<?xml version="1.0" encoding="UTF-8" standalone="no" ?>
<gpx xmlns="http://www.topografix.com/GPX/1/1" xmlns:xsi="http://www.w3.org/2001/XMLSchema-instance" xsi:schemaLocation="http://www.topografix.com/GPX/1/1 http://www.topografix.com/GPX/1/1/gpx.xsd" version="1.1" creator="VisuGPX - https://www.visugpx.com">
  <metadata>
    <name>Belvedere de Mandeure etc...</name>
    <desc><![CDATA[Belvedere de Mandeure etc...]]></desc>
  </metadata>
  <trk>
    <name><![CDATA[mandeure etc...]]></name>
    <desc><![CDATA[]]></desc>
    <trkseg>
      <trkpt lat="47.51809" lon="6.77471">
        <ele>405.3</ele>
        <time>2014-05-04T06:40:41.000Z</time>
      </trkpt>
      <trkpt lat="47.51805" lon="6.77473">
        <ele>345.3</ele>
        <time>2014-05-04T06:43:40.000Z</time>
      </trkpt>
      <trkpt lat="47.51805" lon="6.77473">
        <ele>345.9</ele>
        <time>2014-05-04T06:43:41.000Z</time>
      </trkpt>
      <trkpt lat="47.51801" lon="6.7747">
        <ele>297.7</ele>
        <time>2014-05-04T06:45:18.000Z</time>
      </trkpt>
      <trkpt lat="47.51801" lon="6.77469">
        <ele>299.4</ele>
        <time>2014-05-04T06:45:19.000Z</time>
      </trkpt>
      <trkpt lat="47.51798" lon="6.77467">
        <ele>302.9</ele>
        <time>2014-05-04T06:46:12.000Z</time>
      </trkpt>
      <trkpt lat="47.51796" lon="6.77465">
        <ele>312.4</ele>
        <time>2014-05-04T06:46:13.000Z</time>
      </trkpt>
      <trkpt lat="47.51795" lon="6.77471">
        <ele>335</ele>
        <time>2014-05-04T06:46:47.000Z</time>
      </trkpt>
      <trkpt lat="47.51797" lon="6.77475">
        <ele>339.6</ele>
        <time>2014-05-04T06:46:48.000Z</time>
      </trkpt>
      <trkpt lat="47.51798" lon="6.77478">
        <ele>345.5</ele>
        <time>2014-05-04T06:46:49.000Z</time>
      </trkpt>
      <trkpt lat="47.51798" lon="6.77482">
        <ele>349.5</ele>
        <time>2014-05-04T06:46:50.000Z</time>
      </trkpt>
      <trkpt lat="47.51796" lon="6.77487">
        <ele>356.4</ele>
        <time>2014-05-04T06:46:52.000Z</time>
      </trkpt>
      <trkpt lat="47.51796" lon="6.77488">
        <ele>357.1</ele>
        <time>2014-05-04T06:46:53.000Z</time>
      </trkpt>
      <trkpt lat="47.51793" lon="6.77486">
        <ele>359.8</ele>
        <time>2014-05-04T06:46:54.000Z</time>
      </trkpt>
      <trkpt lat="47.51791" lon="6.77483">
        <ele>362.9</ele>
        <time>2014-05-04T06:46:55.000Z</time>
      </trkpt>
      <trkpt lat="47.51788" lon="6.7748">
        <ele>365.1</ele>
        <time>2014-05-04T06:46:57.000Z</time>
      </trkpt>
      <trkpt lat="47.51786" lon="6.7748">
        <ele>367.4</ele>
        <time>2014-05-04T06:46:58.000Z</time>
      </trkpt>
      <trkpt lat="47.51783" lon="6.77479">
        <ele>370.6</ele>
        <time>2014-05-04T06:46:59.000Z</time>
      </trkpt>
      <trkpt lat="47.5178" lon="6.77479">
        <ele>372.6</ele>
        <time>2014-05-04T06:47:00.000Z</time>
      </trkpt>
      <trkpt lat="47.51776" lon="6.77478">
        <ele>373.7</ele>
        <time>2014-05-04T06:47:01.000Z</time>
      </trkpt>
      <trkpt lat="47.51773" lon="6.77476">
        <ele>374.4</ele>
        <time>2014-05-04T06:47:02.000Z</time>
      </trkpt>
      <trkpt lat="47.5177" lon="6.77475">
        <ele>374.4</ele>
        <time>2014-05-04T06:47:03.000Z</time>
      </trkpt>
      <trkpt lat="47.51764" lon="6.77474">
        <ele>376.7</ele>
        <time>2014-05-04T06:47:04.000Z</time>
      </trkpt>
      <trkpt lat="47.5176" lon="6.77473">
        <ele>378.8</ele>
        <time>2014-05-04T06:47:05.000Z</time>
      </trkpt>
      <trkpt lat="47.51755" lon="6.77472">
        <ele>380.1</ele>
        <time>2014-05-04T06:47:06.000Z</time>
      </trkpt>
      <trkpt lat="47.51751" lon="6.77471">
        <ele>379.9</ele>
        <time>2014-05-04T06:47:07.000Z</time>
      </trkpt>
      <trkpt lat="47.51746" lon="6.7747">
        <ele>380.4</ele>
        <time>2014-05-04T06:47:08.000Z</time>
      </trkpt>
      <trkpt lat="47.51741" lon="6.7747">
        <ele>382.4</ele>
        <time>2014-05-04T06:47:09.000Z</time>
      </trkpt>
      <trkpt lat="47.51736" lon="6.7747">
        <ele>383.9</ele>
        <time>2014-05-04T06:47:10.000Z</time>
      </trkpt>
      <trkpt lat="47.51729" lon="6.77473">
        <ele>384.3</ele>
        <time>2014-05-04T06:47:11.000Z</time>
      </trkpt>
      <trkpt lat="47.51726" lon="6.77478">
        <ele>384.3</ele>
        <time>2014-05-04T06:47:12.000Z</time>
      </trkpt>
      <trkpt lat="47.51725" lon="6.77484">
        <ele>384.4</ele>
        <time>2014-05-04T06:47:13.000Z</time>
      </trkpt>
      <trkpt lat="47.51724" lon="6.77491">
        <ele>384.7</ele>
        <time>2014-05-04T06:47:14.000Z</time>
      </trkpt>
      <trkpt lat="47.51723" lon="6.77498">
        <ele>384.7</ele>
        <time>2014-05-04T06:47:15.000Z</time>
      </trkpt>
      <trkpt lat="47.51721" lon="6.77505">
        <ele>385.2</ele>
        <time>2014-05-04T06:47:16.000Z</time>
      </trkpt>
      <trkpt lat="47.51719" lon="6.77511">
        <ele>385.5</ele>
        <time>2014-05-04T06:47:17.000Z</time>
      </trkpt>
      <trkpt lat="47.51716" lon="6.77517">
        <ele>385.9</ele>
        <time>2014-05-04T06:47:18.000Z</time>
      </trkpt>
      <trkpt lat="47.51714" lon="6.77523">
        <ele>386</ele>
        <time>2014-05-04T06:47:19.000Z</time>
      </trkpt>
      <trkpt lat="47.51711" lon="6.77529">
        <ele>385.5</ele>
        <time>2014-05-04T06:47:20.001Z</time>
      </trkpt>
      <trkpt lat="47.5171" lon="6.77534">
        <ele>387.8</ele>
        <time>2014-05-04T06:47:21.000Z</time>
      </trkpt>
      <trkpt lat="47.51709" lon="6.7754">
        <ele>388</ele>
        <time>2014-05-04T06:47:22.001Z</time>
      </trkpt>
      <trkpt lat="47.51706" lon="6.77545">
        <ele>388.3</ele>
        <time>2014-05-04T06:47:23.000Z</time>
      </trkpt>
      <trkpt lat="47.51701" lon="6.77541">
        <ele>388.2</ele>
        <time>2014-05-04T06:47:24.000Z</time>
      </trkpt>
      <trkpt lat="47.51698" lon="6.77541">
        <ele>388.5</ele>
        <time>2014-05-04T06:47:25.000Z</time>
      </trkpt>
      <trkpt lat="47.51694" lon="6.77537">
        <ele>387.8</ele>
        <time>2014-05-04T06:47:26.000Z</time>
      </trkpt>
      <trkpt lat="47.5169" lon="6.77533">
        <ele>387.9</ele>
        <time>2014-05-04T06:47:27.000Z</time>
      </trkpt>
      <trkpt lat="47.51685" lon="6.77529">
        <ele>388.7</ele>
        <time>2014-05-04T06:47:28.000Z</time>
      </trkpt>
      <trkpt lat="47.51681" lon="6.77525">
        <ele>389.9</ele>
        <time>2014-05-04T06:47:29.000Z</time>
      </trkpt>
      <trkpt lat="47.51676" lon="6.77521">
        <ele>390.8</ele>
        <time>2014-05-04T06:47:30.000Z</time>
      </trkpt>
      <trkpt lat="47.51672" lon="6.77515">
        <ele>391.6</ele>
        <time>2014-05-04T06:47:31.000Z</time>
      </trkpt>
      <trkpt lat="47.51667" lon="6.7751">
        <ele>391.7</ele>
        <time>2014-05-04T06:47:32.000Z</time>
      </trkpt>
      <trkpt lat="47.51662" lon="6.77505">
        <ele>391.7</ele>
        <time>2014-05-04T06:47:33.000Z</time>
      </trkpt>
      <trkpt lat="47.51658" lon="6.77499">
        <ele>392.1</ele>
        <time>2014-05-04T06:47:34.000Z</time>
      </trkpt>
      <trkpt lat="47.51653" lon="6.77494">
        <ele>391.9</ele>
        <time>2014-05-04T06:47:35.000Z</time>
      </trkpt>
      <trkpt lat="47.51648" lon="6.77488">
        <ele>392</ele>
        <time>2014-05-04T06:47:36.000Z</time>
      </trkpt>
      <trkpt lat="47.51644" lon="6.77482">
        <ele>391.9</ele>
        <time>2014-05-04T06:47:37.000Z</time>
      </trkpt>
      <trkpt lat="47.51639" lon="6.77477">
        <ele>392</ele>
        <time>2014-05-04T06:47:38.000Z</time>
      </trkpt>
      <trkpt lat="47.51634" lon="6.7747">
        <ele>392</ele>
        <time>2014-05-04T06:47:39.000Z</time>
      </trkpt>
      <trkpt lat="47.51629" lon="6.77465">
        <ele>391.8</ele>
        <time>2014-05-04T06:47:40.000Z</time>
      </trkpt>
      <trkpt lat="47.51625" lon="6.77459">
        <ele>391.7</ele>
        <time>2014-05-04T06:47:41.000Z</time>
      </trkpt>
      <trkpt lat="47.5162" lon="6.77453">
        <ele>391.4</ele>
        <time>2014-05-04T06:47:42.000Z</time>
      </trkpt>
      <trkpt lat="47.51615" lon="6.77447">
        <ele>391.3</ele>
        <time>2014-05-04T06:47:43.000Z</time>
      </trkpt>
      <trkpt lat="47.51603" lon="6.7743">
        <ele>391.4</ele>
        <time>2014-05-04T06:47:46.000Z</time>
      </trkpt>
      <trkpt lat="47.51597" lon="6.77423">
        <ele>391.2</ele>
        <time>2014-05-04T06:47:47.000Z</time>
      </trkpt>
      <trkpt lat="47.51591" lon="6.77417">
        <ele>391.2</ele>
        <time>2014-05-04T06:47:48.000Z</time>
      </trkpt>
      <trkpt lat="47.51585" lon="6.77409">
        <ele>390.7</ele>
        <time>2014-05-04T06:47:49.000Z</time>
      </trkpt>
      <trkpt lat="47.51579" lon="6.77402">
        <ele>390.4</ele>
        <time>2014-05-04T06:47:50.000Z</time>
      </trkpt>
      <trkpt lat="47.51573" lon="6.77395">
        <ele>390.2</ele>
        <time>2014-05-04T06:47:51.000Z</time>
      </trkpt>
      <trkpt lat="47.51568" lon="6.77387">
        <ele>390.1</ele>
        <time>2014-05-04T06:47:52.000Z</time>
      </trkpt>
      <trkpt lat="47.51561" lon="6.7738">
        <ele>389.4</ele>
        <time>2014-05-04T06:47:53.000Z</time>
      </trkpt>
      <trkpt lat="47.51556" lon="6.77372">
        <ele>388.9</ele>
        <time>2014-05-04T06:47:54.000Z</time>
      </trkpt>
      <trkpt lat="47.51549" lon="6.77365">
        <ele>388.3</ele>
        <time>2014-05-04T06:47:54.999Z</time>
      </trkpt>
      <trkpt lat="47.51543" lon="6.77356">
        <ele>388.1</ele>
        <time>2014-05-04T06:47:56.000Z</time>
      </trkpt>
      <trkpt lat="47.51536" lon="6.77348">
        <ele>387.5</ele>
        <time>2014-05-04T06:47:57.000Z</time>
      </trkpt>
      <trkpt lat="47.51531" lon="6.7734">
        <ele>387.4</ele>
        <time>2014-05-04T06:47:58.000Z</time>
      </trkpt>
      <trkpt lat="47.51525" lon="6.77332">
        <ele>387.2</ele>
        <time>2014-05-04T06:47:59.002Z</time>
      </trkpt>
      <trkpt lat="47.51517" lon="6.77324">
        <ele>385.9</ele>
        <time>2014-05-04T06:48:00.000Z</time>
      </trkpt>
      <trkpt lat="47.5151" lon="6.77316">
        <ele>384.8</ele>
        <time>2014-05-04T06:48:01.000Z</time>
      </trkpt>
      <trkpt lat="47.51503" lon="6.77307">
        <ele>384.2</ele>
        <time>2014-05-04T06:48:02.000Z</time>
      </trkpt>
      <trkpt lat="47.51497" lon="6.77297">
        <ele>383.3</ele>
        <time>2014-05-04T06:48:03.000Z</time>
      </trkpt>
      <trkpt lat="47.51493" lon="6.77286">
        <ele>383</ele>
        <time>2014-05-04T06:48:04.000Z</time>
      </trkpt>
      <trkpt lat="47.5149" lon="6.77274">
        <ele>383.2</ele>
        <time>2014-05-04T06:48:05.000Z</time>
      </trkpt>
      <trkpt lat="47.51489" lon="6.77262">
        <ele>382.9</ele>
        <time>2014-05-04T06:48:06.000Z</time>
      </trkpt>
      <trkpt lat="47.51488" lon="6.77249">
        <ele>382.9</ele>
        <time>2014-05-04T06:48:07.000Z</time>
      </trkpt>
      <trkpt lat="47.51486" lon="6.77237">
        <ele>382.2</ele>
        <time>2014-05-04T06:48:08.000Z</time>
      </trkpt>
      <trkpt lat="47.51487" lon="6.77225">
        <ele>382.1</ele>
        <time>2014-05-04T06:48:09.000Z</time>
      </trkpt>
      <trkpt lat="47.51485" lon="6.77214">
        <ele>381.9</ele>
        <time>2014-05-04T06:48:10.000Z</time>
      </trkpt>
      <trkpt lat="47.51483" lon="6.77205">
        <ele>381.9</ele>
        <time>2014-05-04T06:48:11.000Z</time>
      </trkpt>
      <trkpt lat="47.51478" lon="6.77199">
        <ele>382.3</ele>
        <time>2014-05-04T06:48:12.000Z</time>
      </trkpt>
      <trkpt lat="47.51471" lon="6.77196">
        <ele>382</ele>
        <time>2014-05-04T06:48:13.000Z</time>
      </trkpt>
      <trkpt lat="47.51463" lon="6.77196">
        <ele>381</ele>
        <time>2014-05-04T06:48:14.000Z</time>
      </trkpt>
      <trkpt lat="47.51454" lon="6.77199">
        <ele>380.7</ele>
        <time>2014-05-04T06:48:15.000Z</time>
      </trkpt>
      <trkpt lat="47.51445" lon="6.77203">
        <ele>380.5</ele>
        <time>2014-05-04T06:48:16.000Z</time>
      </trkpt>
      <trkpt lat="47.51437" lon="6.77207">
        <ele>380.6</ele>
        <time>2014-05-04T06:48:17.000Z</time>
      </trkpt>
      <trkpt lat="47.51429" lon="6.77211">
        <ele>380.9</ele>
        <time>2014-05-04T06:48:18.000Z</time>
      </trkpt>
      <trkpt lat="47.51422" lon="6.77215">
        <ele>381.2</ele>
        <time>2014-05-04T06:48:19.000Z</time>
      </trkpt>
      <trkpt lat="47.51414" lon="6.77219">
        <ele>381.6</ele>
        <time>2014-05-04T06:48:20.000Z</time>
      </trkpt>
      <trkpt lat="47.51407" lon="6.77222">
        <ele>382.2</ele>
        <time>2014-05-04T06:48:21.000Z</time>
      </trkpt>
      <trkpt lat="47.514" lon="6.77226">
        <ele>382.7</ele>
        <time>2014-05-04T06:48:22.000Z</time>
      </trkpt>
      <trkpt lat="47.51394" lon="6.77229">
        <ele>383.1</ele>
        <time>2014-05-04T06:48:23.000Z</time>
      </trkpt>
      <trkpt lat="47.51388" lon="6.77232">
        <ele>383.6</ele>
        <time>2014-05-04T06:48:24.000Z</time>
      </trkpt>
      <trkpt lat="47.51382" lon="6.77235">
        <ele>384.1</ele>
        <time>2014-05-04T06:48:25.000Z</time>
      </trkpt>
      <trkpt lat="47.51377" lon="6.77238">
        <ele>384.4</ele>
        <time>2014-05-04T06:48:26.000Z</time>
      </trkpt>
      <trkpt lat="47.51372" lon="6.77242">
        <ele>385.1</ele>
        <time>2014-05-04T06:48:27.000Z</time>
      </trkpt>
      <trkpt lat="47.51367" lon="6.77245">
        <ele>385.3</ele>
        <time>2014-05-04T06:48:28.000Z</time>
      </trkpt>
      <trkpt lat="47.51363" lon="6.77248">
        <ele>386.1</ele>
        <time>2014-05-04T06:48:29.000Z</time>
      </trkpt>
      <trkpt lat="47.51359" lon="6.77252">
        <ele>386.6</ele>
        <time>2014-05-04T06:48:30.000Z</time>
      </trkpt>
      <trkpt lat="47.51355" lon="6.77256">
        <ele>386.9</ele>
        <time>2014-05-04T06:48:31.000Z</time>
      </trkpt>
      <trkpt lat="47.51351" lon="6.77259">
        <ele>387.4</ele>
        <time>2014-05-04T06:48:32.000Z</time>
      </trkpt>
      <trkpt lat="47.51347" lon="6.77262">
        <ele>387.5</ele>
        <time>2014-05-04T06:48:33.000Z</time>
      </trkpt>
      <trkpt lat="47.51344" lon="6.77265">
        <ele>387.7</ele>
        <time>2014-05-04T06:48:34.000Z</time>
      </trkpt>
      <trkpt lat="47.51341" lon="6.77269">
        <ele>387.8</ele>
        <time>2014-05-04T06:48:35.000Z</time>
      </trkpt>
      <trkpt lat="47.51338" lon="6.77271">
        <ele>388.4</ele>
        <time>2014-05-04T06:48:36.000Z</time>
      </trkpt>
      <trkpt lat="47.51334" lon="6.77273">
        <ele>388.3</ele>
        <time>2014-05-04T06:48:37.000Z</time>
      </trkpt>
      <trkpt lat="47.51331" lon="6.77275">
        <ele>388.4</ele>
        <time>2014-05-04T06:48:38.000Z</time>
      </trkpt>
      <trkpt lat="47.51328" lon="6.77276">
        <ele>388.1</ele>
        <time>2014-05-04T06:48:39.000Z</time>
      </trkpt>
      <trkpt lat="47.51325" lon="6.77277">
        <ele>387.5</ele>
        <time>2014-05-04T06:48:40.000Z</time>
      </trkpt>
      <trkpt lat="47.51321" lon="6.77278">
        <ele>387.1</ele>
        <time>2014-05-04T06:48:41.000Z</time>
      </trkpt>
      <trkpt lat="47.51317" lon="6.77279">
        <ele>387.2</ele>
        <time>2014-05-04T06:48:42.000Z</time>
      </trkpt>
      <trkpt lat="47.51313" lon="6.77279">
        <ele>386.6</ele>
        <time>2014-05-04T06:48:43.000Z</time>
      </trkpt>
      <trkpt lat="47.51309" lon="6.77278">
        <ele>386.4</ele>
        <time>2014-05-04T06:48:44.000Z</time>
      </trkpt>
      <trkpt lat="47.5128" lon="6.77262">
        <ele>384.8</ele>
        <time>2014-05-04T06:48:52.000Z</time>
      </trkpt>
      <trkpt lat="47.51275" lon="6.77258">
        <ele>385</ele>
        <time>2014-05-04T06:48:53.000Z</time>
      </trkpt>
      <trkpt lat="47.51268" lon="6.77256">
        <ele>384.5</ele>
        <time>2014-05-04T06:48:53.999Z</time>
      </trkpt>
      <trkpt lat="47.51263" lon="6.77252">
        <ele>384.7</ele>
        <time>2014-05-04T06:48:55.000Z</time>
      </trkpt>
      <trkpt lat="47.5126" lon="6.77247">
        <ele>384.9</ele>
        <time>2014-05-04T06:48:56.000Z</time>
      </trkpt>
      <trkpt lat="47.51255" lon="6.77243">
        <ele>384.2</ele>
        <time>2014-05-04T06:48:57.000Z</time>
      </trkpt>
      <trkpt lat="47.51251" lon="6.77238">
        <ele>384</ele>
        <time>2014-05-04T06:48:58.000Z</time>
      </trkpt>
      <trkpt lat="47.51246" lon="6.77232">
        <ele>383.3</ele>
        <time>2014-05-04T06:48:59.000Z</time>
      </trkpt>
      <trkpt lat="47.51243" lon="6.77227">
        <ele>383.3</ele>
        <time>2014-05-04T06:49:00.000Z</time>
      </trkpt>
      <trkpt lat="47.5124" lon="6.7722">
        <ele>381.8</ele>
        <time>2014-05-04T06:49:01.000Z</time>
      </trkpt>
      <trkpt lat="47.51236" lon="6.77212">
        <ele>381.4</ele>
        <time>2014-05-04T06:49:02.000Z</time>
      </trkpt>
      <trkpt lat="47.51233" lon="6.77205">
        <ele>381.2</ele>
        <time>2014-05-04T06:49:03.000Z</time>
      </trkpt>
      <trkpt lat="47.51229" lon="6.77198">
        <ele>381.9</ele>
        <time>2014-05-04T06:49:04.000Z</time>
      </trkpt>
      <trkpt lat="47.51225" lon="6.77191">
        <ele>381.7</ele>
        <time>2014-05-04T06:49:05.000Z</time>
      </trkpt>
      <trkpt lat="47.51222" lon="6.77184">
        <ele>381.2</ele>
        <time>2014-05-04T06:49:06.000Z</time>
      </trkpt>
      <trkpt lat="47.51218" lon="6.77176">
        <ele>381.5</ele>
        <time>2014-05-04T06:49:07.000Z</time>
      </trkpt>
      <trkpt lat="47.51214" lon="6.77168">
        <ele>381.2</ele>
        <time>2014-05-04T06:49:08.000Z</time>
      </trkpt>
      <trkpt lat="47.5121" lon="6.7716">
        <ele>381.4</ele>
        <time>2014-05-04T06:49:09.000Z</time>
      </trkpt>
      <trkpt lat="47.51207" lon="6.77152">
        <ele>381.3</ele>
        <time>2014-05-04T06:49:10.000Z</time>
      </trkpt>
      <trkpt lat="47.51202" lon="6.77145">
        <ele>381</ele>
        <time>2014-05-04T06:49:11.000Z</time>
      </trkpt>
      <trkpt lat="47.51198" lon="6.77137">
        <ele>381.4</ele>
        <time>2014-05-04T06:49:12.000Z</time>
      </trkpt>
      <trkpt lat="47.51193" lon="6.77129">
        <ele>380.9</ele>
        <time>2014-05-04T06:49:13.000Z</time>
      </trkpt>
      <trkpt lat="47.51188" lon="6.77121">
        <ele>381</ele>
        <time>2014-05-04T06:49:14.000Z</time>
      </trkpt>
      <trkpt lat="47.51183" lon="6.77111">
        <ele>380.2</ele>
        <time>2014-05-04T06:49:15.000Z</time>
      </trkpt>
      <trkpt lat="47.51178" lon="6.77102">
        <ele>378.5</ele>
        <time>2014-05-04T06:49:16.000Z</time>
      </trkpt>
      <trkpt lat="47.51173" lon="6.77094">
        <ele>377.9</ele>
        <time>2014-05-04T06:49:17.000Z</time>
      </trkpt>
      <trkpt lat="47.51169" lon="6.77085">
        <ele>377.2</ele>
        <time>2014-05-04T06:49:18.000Z</time>
      </trkpt>
      <trkpt lat="47.51164" lon="6.77077">
        <ele>376.7</ele>
        <time>2014-05-04T06:49:19.000Z</time>
      </trkpt>
      <trkpt lat="47.51159" lon="6.77068">
        <ele>375.8</ele>
        <time>2014-05-04T06:49:20.000Z</time>
      </trkpt>
      <trkpt lat="47.51154" lon="6.77061">
        <ele>375.6</ele>
        <time>2014-05-04T06:49:21.000Z</time>
      </trkpt>
      <trkpt lat="47.51148" lon="6.77055">
        <ele>375.7</ele>
        <time>2014-05-04T06:49:22.000Z</time>
      </trkpt>
      <trkpt lat="47.51143" lon="6.77049">
        <ele>376.3</ele>
        <time>2014-05-04T06:49:23.000Z</time>
      </trkpt>
      <trkpt lat="47.51137" lon="6.77044">
        <ele>376.2</ele>
        <time>2014-05-04T06:49:24.000Z</time>
      </trkpt>
      <trkpt lat="47.51133" lon="6.77037">
        <ele>376.3</ele>
        <time>2014-05-04T06:49:25.000Z</time>
      </trkpt>
      <trkpt lat="47.51125" lon="6.77033">
        <ele>376.4</ele>
        <time>2014-05-04T06:49:26.000Z</time>
      </trkpt>
      <trkpt lat="47.5112" lon="6.77028">
        <ele>376.3</ele>
        <time>2014-05-04T06:49:27.000Z</time>
      </trkpt>
      <trkpt lat="47.51114" lon="6.77023">
        <ele>377</ele>
        <time>2014-05-04T06:49:28.000Z</time>
      </trkpt>
      <trkpt lat="47.51108" lon="6.77018">
        <ele>377.6</ele>
        <time>2014-05-04T06:49:29.000Z</time>
      </trkpt>
      <trkpt lat="47.51101" lon="6.77014">
        <ele>377.4</ele>
        <time>2014-05-04T06:49:30.000Z</time>
      </trkpt>
      <trkpt lat="47.51095" lon="6.77009">
        <ele>377.5</ele>
        <time>2014-05-04T06:49:31.000Z</time>
      </trkpt>
      <trkpt lat="47.51089" lon="6.77004">
        <ele>376.1</ele>
        <time>2014-05-04T06:49:32.000Z</time>
      </trkpt>
      <trkpt lat="47.51084" lon="6.76998">
        <ele>375.7</ele>
        <time>2014-05-04T06:49:33.000Z</time>
      </trkpt>
      <trkpt lat="47.51079" lon="6.76993">
        <ele>375.6</ele>
        <time>2014-05-04T06:49:34.001Z</time>
      </trkpt>
      <trkpt lat="47.51073" lon="6.76989">
        <ele>375.7</ele>
        <time>2014-05-04T06:49:35.000Z</time>
      </trkpt>
      <trkpt lat="47.5107" lon="6.76985">
        <ele>376.6</ele>
        <time>2014-05-04T06:49:36.000Z</time>
      </trkpt>
      <trkpt lat="47.51063" lon="6.7698">
        <ele>375.7</ele>
        <time>2014-05-04T06:49:37.000Z</time>
      </trkpt>
      <trkpt lat="47.51056" lon="6.76975">
        <ele>375.5</ele>
        <time>2014-05-04T06:49:38.000Z</time>
      </trkpt>
      <trkpt lat="47.5105" lon="6.7697">
        <ele>374.5</ele>
        <time>2014-05-04T06:49:39.000Z</time>
      </trkpt>
      <trkpt lat="47.51044" lon="6.76965">
        <ele>374.4</ele>
        <time>2014-05-04T06:49:40.000Z</time>
      </trkpt>
      <trkpt lat="47.51038" lon="6.7696">
        <ele>374.4</ele>
        <time>2014-05-04T06:49:41.000Z</time>
      </trkpt>
      <trkpt lat="47.51032" lon="6.76955">
        <ele>374.7</ele>
        <time>2014-05-04T06:49:42.000Z</time>
      </trkpt>
      <trkpt lat="47.51027" lon="6.7695">
        <ele>375.2</ele>
        <time>2014-05-04T06:49:43.000Z</time>
      </trkpt>
      <trkpt lat="47.51018" lon="6.76937">
        <ele>375.7</ele>
        <time>2014-05-04T06:49:46.000Z</time>
      </trkpt>
      <trkpt lat="47.51011" lon="6.76932">
        <ele>375.2</ele>
        <time>2014-05-04T06:49:47.000Z</time>
      </trkpt>
      <trkpt lat="47.51007" lon="6.76928">
        <ele>376.4</ele>
        <time>2014-05-04T06:49:48.000Z</time>
      </trkpt>
      <trkpt lat="47.51003" lon="6.76924">
        <ele>376.8</ele>
        <time>2014-05-04T06:49:49.000Z</time>
      </trkpt>
      <trkpt lat="47.51" lon="6.76921">
        <ele>377.3</ele>
        <time>2014-05-04T06:49:50.000Z</time>
      </trkpt>
      <trkpt lat="47.50996" lon="6.76916">
        <ele>376.5</ele>
        <time>2014-05-04T06:49:50.999Z</time>
      </trkpt>
      <trkpt lat="47.50994" lon="6.7691">
        <ele>376.9</ele>
        <time>2014-05-04T06:49:52.000Z</time>
      </trkpt>
      <trkpt lat="47.5099" lon="6.76904">
        <ele>376.1</ele>
        <time>2014-05-04T06:49:53.000Z</time>
      </trkpt>
      <trkpt lat="47.50984" lon="6.76901">
        <ele>376.3</ele>
        <time>2014-05-04T06:49:54.000Z</time>
      </trkpt>
      <trkpt lat="47.50978" lon="6.76899">
        <ele>376.9</ele>
        <time>2014-05-04T06:49:55.000Z</time>
      </trkpt>
      <trkpt lat="47.50973" lon="6.76898">
        <ele>376.8</ele>
        <time>2014-05-04T06:49:56.000Z</time>
      </trkpt>
      <trkpt lat="47.50967" lon="6.76897">
        <ele>377.7</ele>
        <time>2014-05-04T06:49:57.000Z</time>
      </trkpt>
      <trkpt lat="47.50962" lon="6.76896">
        <ele>378</ele>
        <time>2014-05-04T06:49:58.000Z</time>
      </trkpt>
      <trkpt lat="47.50959" lon="6.76893">
        <ele>378</ele>
        <time>2014-05-04T06:49:59.000Z</time>
      </trkpt>
      <trkpt lat="47.50955" lon="6.76889">
        <ele>378</ele>
        <time>2014-05-04T06:50:00.000Z</time>
      </trkpt>
      <trkpt lat="47.5095" lon="6.76885">
        <ele>378.3</ele>
        <time>2014-05-04T06:50:01.000Z</time>
      </trkpt>
      <trkpt lat="47.50945" lon="6.76882">
        <ele>378.1</ele>
        <time>2014-05-04T06:50:02.000Z</time>
      </trkpt>
      <trkpt lat="47.50941" lon="6.76878">
        <ele>378.3</ele>
        <time>2014-05-04T06:50:03.000Z</time>
      </trkpt>
      <trkpt lat="47.50936" lon="6.76874">
        <ele>378.5</ele>
        <time>2014-05-04T06:50:04.000Z</time>
      </trkpt>
      <trkpt lat="47.50933" lon="6.76869">
        <ele>379</ele>
        <time>2014-05-04T06:50:05.000Z</time>
      </trkpt>
      <trkpt lat="47.50928" lon="6.76864">
        <ele>378.5</ele>
        <time>2014-05-04T06:50:06.000Z</time>
      </trkpt>
      <trkpt lat="47.50925" lon="6.76859">
        <ele>377.8</ele>
        <time>2014-05-04T06:50:07.000Z</time>
      </trkpt>
      <trkpt lat="47.50922" lon="6.76854">
        <ele>378</ele>
        <time>2014-05-04T06:50:08.000Z</time>
      </trkpt>
      <trkpt lat="47.50919" lon="6.76848">
        <ele>378.9</ele>
        <time>2014-05-04T06:50:09.000Z</time>
      </trkpt>
      <trkpt lat="47.50916" lon="6.76841">
        <ele>379.5</ele>
        <time>2014-05-04T06:50:10.000Z</time>
      </trkpt>
      <trkpt lat="47.50913" lon="6.76836">
        <ele>380</ele>
        <time>2014-05-04T06:50:11.000Z</time>
      </trkpt>
      <trkpt lat="47.50911" lon="6.7683">
        <ele>380.2</ele>
        <time>2014-05-04T06:50:12.000Z</time>
      </trkpt>
      <trkpt lat="47.50908" lon="6.76823">
        <ele>380.5</ele>
        <time>2014-05-04T06:50:13.000Z</time>
      </trkpt>
      <trkpt lat="47.50905" lon="6.76817">
        <ele>380.9</ele>
        <time>2014-05-04T06:50:14.000Z</time>
      </trkpt>
      <trkpt lat="47.50902" lon="6.76812">
        <ele>380.8</ele>
        <time>2014-05-04T06:50:15.000Z</time>
      </trkpt>
      <trkpt lat="47.509" lon="6.76806">
        <ele>381.3</ele>
        <time>2014-05-04T06:50:16.000Z</time>
      </trkpt>
      <trkpt lat="47.50897" lon="6.768">
        <ele>381.7</ele>
        <time>2014-05-04T06:50:16.998Z</time>
      </trkpt>
      <trkpt lat="47.50894" lon="6.76794">
        <ele>381.3</ele>
        <time>2014-05-04T06:50:18.000Z</time>
      </trkpt>
      <trkpt lat="47.50891" lon="6.76788">
        <ele>381.2</ele>
        <time>2014-05-04T06:50:19.000Z</time>
      </trkpt>
      <trkpt lat="47.50889" lon="6.76782">
        <ele>381.3</ele>
        <time>2014-05-04T06:50:20.000Z</time>
      </trkpt>
      <trkpt lat="47.50887" lon="6.76776">
        <ele>382.1</ele>
        <time>2014-05-04T06:50:21.000Z</time>
      </trkpt>
      <trkpt lat="47.50885" lon="6.76771">
        <ele>382.3</ele>
        <time>2014-05-04T06:50:22.000Z</time>
      </trkpt>
      <trkpt lat="47.50883" lon="6.76765">
        <ele>382.5</ele>
        <time>2014-05-04T06:50:23.000Z</time>
      </trkpt>
      <trkpt lat="47.50881" lon="6.7676">
        <ele>382.5</ele>
        <time>2014-05-04T06:50:24.000Z</time>
      </trkpt>
      <trkpt lat="47.50879" lon="6.76754">
        <ele>382.3</ele>
        <time>2014-05-04T06:50:25.000Z</time>
      </trkpt>
      <trkpt lat="47.50878" lon="6.76749">
        <ele>382.8</ele>
        <time>2014-05-04T06:50:26.000Z</time>
      </trkpt>
      <trkpt lat="47.50877" lon="6.76744">
        <ele>385.5</ele>
        <time>2014-05-04T06:50:27.000Z</time>
      </trkpt>
      <trkpt lat="47.50875" lon="6.76738">
        <ele>385.7</ele>
        <time>2014-05-04T06:50:28.000Z</time>
      </trkpt>
      <trkpt lat="47.50873" lon="6.76732">
        <ele>386</ele>
        <time>2014-05-04T06:50:29.000Z</time>
      </trkpt>
      <trkpt lat="47.50872" lon="6.76726">
        <ele>386.2</ele>
        <time>2014-05-04T06:50:30.000Z</time>
      </trkpt>
      <trkpt lat="47.5087" lon="6.76721">
        <ele>386.6</ele>
        <time>2014-05-04T06:50:31.000Z</time>
      </trkpt>
      <trkpt lat="47.50868" lon="6.76715">
        <ele>386.3</ele>
        <time>2014-05-04T06:50:32.000Z</time>
      </trkpt>
      <trkpt lat="47.50866" lon="6.7671">
        <ele>386.5</ele>
        <time>2014-05-04T06:50:33.000Z</time>
      </trkpt>
      <trkpt lat="47.50864" lon="6.76704">
        <ele>386.2</ele>
        <time>2014-05-04T06:50:34.000Z</time>
      </trkpt>
      <trkpt lat="47.50861" lon="6.76699">
        <ele>386.1</ele>
        <time>2014-05-04T06:50:35.000Z</time>
      </trkpt>
      <trkpt lat="47.5086" lon="6.76694">
        <ele>386.2</ele>
        <time>2014-05-04T06:50:36.000Z</time>
      </trkpt>
      <trkpt lat="47.50858" lon="6.7669">
        <ele>386.3</ele>
        <time>2014-05-04T06:50:37.000Z</time>
      </trkpt>
      <trkpt lat="47.50856" lon="6.76685">
        <ele>386.4</ele>
        <time>2014-05-04T06:50:38.000Z</time>
      </trkpt>
      <trkpt lat="47.50854" lon="6.7668">
        <ele>386.5</ele>
        <time>2014-05-04T06:50:39.000Z</time>
      </trkpt>
      <trkpt lat="47.50852" lon="6.76675">
        <ele>386.9</ele>
        <time>2014-05-04T06:50:40.000Z</time>
      </trkpt>
      <trkpt lat="47.5085" lon="6.7667">
        <ele>387.2</ele>
        <time>2014-05-04T06:50:41.000Z</time>
      </trkpt>
      <trkpt lat="47.50848" lon="6.76665">
        <ele>387.9</ele>
        <time>2014-05-04T06:50:42.000Z</time>
      </trkpt>
      <trkpt lat="47.50846" lon="6.76661">
        <ele>387.2</ele>
        <time>2014-05-04T06:50:43.000Z</time>
      </trkpt>
      <trkpt lat="47.50841" lon="6.76648">
        <ele>388.4</ele>
        <time>2014-05-04T06:50:46.000Z</time>
      </trkpt>
      <trkpt lat="47.50839" lon="6.76644">
        <ele>389</ele>
        <time>2014-05-04T06:50:47.000Z</time>
      </trkpt>
      <trkpt lat="47.50837" lon="6.7664">
        <ele>388.9</ele>
        <time>2014-05-04T06:50:48.000Z</time>
      </trkpt>
      <trkpt lat="47.50834" lon="6.76636">
        <ele>389.2</ele>
        <time>2014-05-04T06:50:49.000Z</time>
      </trkpt>
      <trkpt lat="47.50832" lon="6.76632">
        <ele>389.3</ele>
        <time>2014-05-04T06:50:50.000Z</time>
      </trkpt>
      <trkpt lat="47.5083" lon="6.76628">
        <ele>389.3</ele>
        <time>2014-05-04T06:50:51.000Z</time>
      </trkpt>
      <trkpt lat="47.50828" lon="6.76624">
        <ele>389.7</ele>
        <time>2014-05-04T06:50:52.000Z</time>
      </trkpt>
      <trkpt lat="47.50827" lon="6.76619">
        <ele>388.7</ele>
        <time>2014-05-04T06:50:53.000Z</time>
      </trkpt>
      <trkpt lat="47.50825" lon="6.76615">
        <ele>389.4</ele>
        <time>2014-05-04T06:50:54.000Z</time>
      </trkpt>
      <trkpt lat="47.50823" lon="6.76611">
        <ele>389.8</ele>
        <time>2014-05-04T06:50:55.000Z</time>
      </trkpt>
      <trkpt lat="47.50822" lon="6.76606">
        <ele>390.2</ele>
        <time>2014-05-04T06:50:56.001Z</time>
      </trkpt>
      <trkpt lat="47.5082" lon="6.76602">
        <ele>390.2</ele>
        <time>2014-05-04T06:50:57.000Z</time>
      </trkpt>
      <trkpt lat="47.50819" lon="6.76598">
        <ele>390.2</ele>
        <time>2014-05-04T06:50:58.000Z</time>
      </trkpt>
      <trkpt lat="47.50815" lon="6.76595">
        <ele>389.3</ele>
        <time>2014-05-04T06:51:00.000Z</time>
      </trkpt>
      <trkpt lat="47.50813" lon="6.76596">
        <ele>388.7</ele>
        <time>2014-05-04T06:51:01.000Z</time>
      </trkpt>
      <trkpt lat="47.50811" lon="6.76598">
        <ele>388.8</ele>
        <time>2014-05-04T06:51:02.000Z</time>
      </trkpt>
      <trkpt lat="47.50808" lon="6.76599">
        <ele>388.9</ele>
        <time>2014-05-04T06:51:03.000Z</time>
      </trkpt>
      <trkpt lat="47.50806" lon="6.76598">
        <ele>389.3</ele>
        <time>2014-05-04T06:51:04.000Z</time>
      </trkpt>
      <trkpt lat="47.50804" lon="6.76595">
        <ele>389.2</ele>
        <time>2014-05-04T06:51:05.000Z</time>
      </trkpt>
      <trkpt lat="47.50803" lon="6.76592">
        <ele>389.4</ele>
        <time>2014-05-04T06:51:06.000Z</time>
      </trkpt>
      <trkpt lat="47.50801" lon="6.76589">
        <ele>389.6</ele>
        <time>2014-05-04T06:51:07.000Z</time>
      </trkpt>
      <trkpt lat="47.50797" lon="6.76587">
        <ele>389.3</ele>
        <time>2014-05-04T06:51:09.000Z</time>
      </trkpt>
      <trkpt lat="47.50795" lon="6.76588">
        <ele>390</ele>
        <time>2014-05-04T06:51:10.000Z</time>
      </trkpt>
      <trkpt lat="47.50792" lon="6.7659">
        <ele>390.4</ele>
        <time>2014-05-04T06:51:11.000Z</time>
      </trkpt>
      <trkpt lat="47.5079" lon="6.76591">
        <ele>390.6</ele>
        <time>2014-05-04T06:51:12.000Z</time>
      </trkpt>
      <trkpt lat="47.50786" lon="6.76593">
        <ele>391.3</ele>
        <time>2014-05-04T06:51:14.000Z</time>
      </trkpt>
      <trkpt lat="47.50785" lon="6.76594">
        <ele>391.9</ele>
        <time>2014-05-04T06:51:15.000Z</time>
      </trkpt>
      <trkpt lat="47.50783" lon="6.76594">
        <ele>391.1</ele>
        <time>2014-05-04T06:51:16.000Z</time>
      </trkpt>
      <trkpt lat="47.5078" lon="6.76594">
        <ele>391.5</ele>
        <time>2014-05-04T06:51:17.000Z</time>
      </trkpt>
      <trkpt lat="47.50777" lon="6.76595">
        <ele>391.4</ele>
        <time>2014-05-04T06:51:18.000Z</time>
      </trkpt>
      <trkpt lat="47.50773" lon="6.76595">
        <ele>391.5</ele>
        <time>2014-05-04T06:51:19.000Z</time>
      </trkpt>
      <trkpt lat="47.5077" lon="6.76596">
        <ele>391.7</ele>
        <time>2014-05-04T06:51:20.000Z</time>
      </trkpt>
      <trkpt lat="47.50767" lon="6.76596">
        <ele>390.8</ele>
        <time>2014-05-04T06:51:21.000Z</time>
      </trkpt>
      <trkpt lat="47.50765" lon="6.76597">
        <ele>391.1</ele>
        <time>2014-05-04T06:51:22.000Z</time>
      </trkpt>
      <trkpt lat="47.50762" lon="6.76597">
        <ele>391.3</ele>
        <time>2014-05-04T06:51:23.000Z</time>
      </trkpt>
      <trkpt lat="47.5076" lon="6.76597">
        <ele>391.7</ele>
        <time>2014-05-04T06:51:24.000Z</time>
      </trkpt>
      <trkpt lat="47.50757" lon="6.76597">
        <ele>391.5</ele>
        <time>2014-05-04T06:51:25.000Z</time>
      </trkpt>
      <trkpt lat="47.50754" lon="6.76597">
        <ele>391.2</ele>
        <time>2014-05-04T06:51:26.000Z</time>
      </trkpt>
      <trkpt lat="47.50752" lon="6.76597">
        <ele>391.8</ele>
        <time>2014-05-04T06:51:27.000Z</time>
      </trkpt>
      <trkpt lat="47.50749" lon="6.76598">
        <ele>392.2</ele>
        <time>2014-05-04T06:51:28.000Z</time>
      </trkpt>
      <trkpt lat="47.50746" lon="6.76597">
        <ele>392.3</ele>
        <time>2014-05-04T06:51:29.000Z</time>
      </trkpt>
      <trkpt lat="47.50743" lon="6.76597">
        <ele>391.9</ele>
        <time>2014-05-04T06:51:30.000Z</time>
      </trkpt>
      <trkpt lat="47.5074" lon="6.76596">
        <ele>391.6</ele>
        <time>2014-05-04T06:51:31.000Z</time>
      </trkpt>
      <trkpt lat="47.50737" lon="6.76596">
        <ele>392.1</ele>
        <time>2014-05-04T06:51:32.000Z</time>
      </trkpt>
      <trkpt lat="47.50734" lon="6.76595">
        <ele>392.1</ele>
        <time>2014-05-04T06:51:33.000Z</time>
      </trkpt>
      <trkpt lat="47.50731" lon="6.76595">
        <ele>392.9</ele>
        <time>2014-05-04T06:51:34.000Z</time>
      </trkpt>
      <trkpt lat="47.50728" lon="6.76594">
        <ele>393.3</ele>
        <time>2014-05-04T06:51:35.000Z</time>
      </trkpt>
      <trkpt lat="47.50724" lon="6.76593">
        <ele>393.3</ele>
        <time>2014-05-04T06:51:36.000Z</time>
      </trkpt>
      <trkpt lat="47.50721" lon="6.76592">
        <ele>393.4</ele>
        <time>2014-05-04T06:51:37.000Z</time>
      </trkpt>
      <trkpt lat="47.50718" lon="6.76592">
        <ele>393.5</ele>
        <time>2014-05-04T06:51:38.000Z</time>
      </trkpt>
      <trkpt lat="47.50715" lon="6.76591">
        <ele>393.6</ele>
        <time>2014-05-04T06:51:39.000Z</time>
      </trkpt>
      <trkpt lat="47.50711" lon="6.7659">
        <ele>393.1</ele>
        <time>2014-05-04T06:51:40.000Z</time>
      </trkpt>
      <trkpt lat="47.50708" lon="6.7659">
        <ele>392.5</ele>
        <time>2014-05-04T06:51:41.000Z</time>
      </trkpt>
      <trkpt lat="47.50705" lon="6.76589">
        <ele>392.1</ele>
        <time>2014-05-04T06:51:42.000Z</time>
      </trkpt>
      <trkpt lat="47.50701" lon="6.76589">
        <ele>392.8</ele>
        <time>2014-05-04T06:51:43.000Z</time>
      </trkpt>
      <trkpt lat="47.50689" lon="6.76589">
        <ele>394.3</ele>
        <time>2014-05-04T06:51:47.000Z</time>
      </trkpt>
      <trkpt lat="47.50686" lon="6.76589">
        <ele>394.4</ele>
        <time>2014-05-04T06:51:48.000Z</time>
      </trkpt>
      <trkpt lat="47.50684" lon="6.76589">
        <ele>392.5</ele>
        <time>2014-05-04T06:51:49.000Z</time>
      </trkpt>
      <trkpt lat="47.5068" lon="6.7659">
        <ele>393.1</ele>
        <time>2014-05-04T06:51:50.000Z</time>
      </trkpt>
      <trkpt lat="47.50677" lon="6.7659">
        <ele>393.3</ele>
        <time>2014-05-04T06:51:51.000Z</time>
      </trkpt>
      <trkpt lat="47.50674" lon="6.76591">
        <ele>393.2</ele>
        <time>2014-05-04T06:51:52.000Z</time>
      </trkpt>
      <trkpt lat="47.5067" lon="6.76591">
        <ele>393.2</ele>
        <time>2014-05-04T06:51:53.000Z</time>
      </trkpt>
      <trkpt lat="47.50667" lon="6.76592">
        <ele>393.2</ele>
        <time>2014-05-04T06:51:54.000Z</time>
      </trkpt>
      <trkpt lat="47.50664" lon="6.76592">
        <ele>393.1</ele>
        <time>2014-05-04T06:51:55.002Z</time>
      </trkpt>
      <trkpt lat="47.50661" lon="6.76593">
        <ele>393.2</ele>
        <time>2014-05-04T06:51:56.000Z</time>
      </trkpt>
      <trkpt lat="47.50658" lon="6.76594">
        <ele>393.6</ele>
        <time>2014-05-04T06:51:57.000Z</time>
      </trkpt>
      <trkpt lat="47.50655" lon="6.76595">
        <ele>393.8</ele>
        <time>2014-05-04T06:51:58.000Z</time>
      </trkpt>
      <trkpt lat="47.50653" lon="6.76596">
        <ele>393.9</ele>
        <time>2014-05-04T06:51:59.000Z</time>
      </trkpt>
      <trkpt lat="47.5065" lon="6.76597">
        <ele>394.1</ele>
        <time>2014-05-04T06:52:00.000Z</time>
      </trkpt>
      <trkpt lat="47.50648" lon="6.76598">
        <ele>394.9</ele>
        <time>2014-05-04T06:52:01.000Z</time>
      </trkpt>
      <trkpt lat="47.50645" lon="6.76599">
        <ele>394.5</ele>
        <time>2014-05-04T06:52:02.000Z</time>
      </trkpt>
      <trkpt lat="47.50642" lon="6.766">
        <ele>394.3</ele>
        <time>2014-05-04T06:52:03.000Z</time>
      </trkpt>
      <trkpt lat="47.50639" lon="6.76602">
        <ele>394.5</ele>
        <time>2014-05-04T06:52:04.000Z</time>
      </trkpt>
      <trkpt lat="47.50636" lon="6.76603">
        <ele>394.6</ele>
        <time>2014-05-04T06:52:05.000Z</time>
      </trkpt>
      <trkpt lat="47.50633" lon="6.76605">
        <ele>394.7</ele>
        <time>2014-05-04T06:52:06.000Z</time>
      </trkpt>
      <trkpt lat="47.5063" lon="6.76607">
        <ele>395</ele>
        <time>2014-05-04T06:52:07.000Z</time>
      </trkpt>
      <trkpt lat="47.50627" lon="6.76608">
        <ele>395</ele>
        <time>2014-05-04T06:52:08.000Z</time>
      </trkpt>
      <trkpt lat="47.50624" lon="6.7661">
        <ele>395.1</ele>
        <time>2014-05-04T06:52:09.000Z</time>
      </trkpt>
      <trkpt lat="47.50621" lon="6.76612">
        <ele>395</ele>
        <time>2014-05-04T06:52:10.000Z</time>
      </trkpt>
      <trkpt lat="47.50618" lon="6.76614">
        <ele>395.2</ele>
        <time>2014-05-04T06:52:11.000Z</time>
      </trkpt>
      <trkpt lat="47.50615" lon="6.76616">
        <ele>395.1</ele>
        <time>2014-05-04T06:52:12.000Z</time>
      </trkpt>
      <trkpt lat="47.50612" lon="6.76618">
        <ele>395</ele>
        <time>2014-05-04T06:52:13.000Z</time>
      </trkpt>
      <trkpt lat="47.50609" lon="6.76619">
        <ele>395.5</ele>
        <time>2014-05-04T06:52:14.000Z</time>
      </trkpt>
      <trkpt lat="47.50606" lon="6.76621">
        <ele>395.4</ele>
        <time>2014-05-04T06:52:15.000Z</time>
      </trkpt>
      <trkpt lat="47.50603" lon="6.76622">
        <ele>394.3</ele>
        <time>2014-05-04T06:52:16.000Z</time>
      </trkpt>
      <trkpt lat="47.50599" lon="6.76624">
        <ele>393.3</ele>
        <time>2014-05-04T06:52:17.000Z</time>
      </trkpt>
      <trkpt lat="47.50596" lon="6.76625">
        <ele>394.4</ele>
        <time>2014-05-04T06:52:18.000Z</time>
      </trkpt>
      <trkpt lat="47.50593" lon="6.76626">
        <ele>395.1</ele>
        <time>2014-05-04T06:52:19.000Z</time>
      </trkpt>
      <trkpt lat="47.5059" lon="6.76627">
        <ele>395.5</ele>
        <time>2014-05-04T06:52:20.000Z</time>
      </trkpt>
      <trkpt lat="47.50587" lon="6.76628">
        <ele>395.7</ele>
        <time>2014-05-04T06:52:21.000Z</time>
      </trkpt>
      <trkpt lat="47.50584" lon="6.76628">
        <ele>395.4</ele>
        <time>2014-05-04T06:52:22.000Z</time>
      </trkpt>
      <trkpt lat="47.50581" lon="6.76629">
        <ele>396.1</ele>
        <time>2014-05-04T06:52:23.000Z</time>
      </trkpt>
      <trkpt lat="47.50578" lon="6.76629">
        <ele>396.7</ele>
        <time>2014-05-04T06:52:24.000Z</time>
      </trkpt>
      <trkpt lat="47.50575" lon="6.7663">
        <ele>397</ele>
        <time>2014-05-04T06:52:25.000Z</time>
      </trkpt>
      <trkpt lat="47.50572" lon="6.7663">
        <ele>397.2</ele>
        <time>2014-05-04T06:52:26.000Z</time>
      </trkpt>
      <trkpt lat="47.50569" lon="6.76631">
        <ele>397.5</ele>
        <time>2014-05-04T06:52:27.000Z</time>
      </trkpt>
      <trkpt lat="47.50567" lon="6.76631">
        <ele>398.5</ele>
        <time>2014-05-04T06:52:28.000Z</time>
      </trkpt>
      <trkpt lat="47.50564" lon="6.76632">
        <ele>398.8</ele>
        <time>2014-05-04T06:52:29.000Z</time>
      </trkpt>
      <trkpt lat="47.50561" lon="6.76632">
        <ele>398.8</ele>
        <time>2014-05-04T06:52:30.000Z</time>
      </trkpt>
      <trkpt lat="47.50558" lon="6.76633">
        <ele>399</ele>
        <time>2014-05-04T06:52:31.000Z</time>
      </trkpt>
      <trkpt lat="47.50556" lon="6.76634">
        <ele>398.6</ele>
        <time>2014-05-04T06:52:32.000Z</time>
      </trkpt>
      <trkpt lat="47.50553" lon="6.76635">
        <ele>398.5</ele>
        <time>2014-05-04T06:52:33.000Z</time>
      </trkpt>
      <trkpt lat="47.50549" lon="6.76636">
        <ele>398.3</ele>
        <time>2014-05-04T06:52:34.000Z</time>
      </trkpt>
      <trkpt lat="47.50546" lon="6.76636">
        <ele>398.3</ele>
        <time>2014-05-04T06:52:35.000Z</time>
      </trkpt>
      <trkpt lat="47.50543" lon="6.76637">
        <ele>398.2</ele>
        <time>2014-05-04T06:52:36.000Z</time>
      </trkpt>
      <trkpt lat="47.5054" lon="6.76638">
        <ele>398</ele>
        <time>2014-05-04T06:52:37.000Z</time>
      </trkpt>
      <trkpt lat="47.50537" lon="6.76639">
        <ele>397.8</ele>
        <time>2014-05-04T06:52:38.000Z</time>
      </trkpt>
      <trkpt lat="47.50533" lon="6.7664">
        <ele>397.7</ele>
        <time>2014-05-04T06:52:39.000Z</time>
      </trkpt>
      <trkpt lat="47.5053" lon="6.76641">
        <ele>397.6</ele>
        <time>2014-05-04T06:52:40.000Z</time>
      </trkpt>
      <trkpt lat="47.50527" lon="6.76642">
        <ele>397.5</ele>
        <time>2014-05-04T06:52:41.000Z</time>
      </trkpt>
      <trkpt lat="47.50523" lon="6.76643">
        <ele>397.3</ele>
        <time>2014-05-04T06:52:42.000Z</time>
      </trkpt>
      <trkpt lat="47.5052" lon="6.76644">
        <ele>397.2</ele>
        <time>2014-05-04T06:52:43.000Z</time>
      </trkpt>
      <trkpt lat="47.50516" lon="6.76645">
        <ele>396.9</ele>
        <time>2014-05-04T06:52:44.000Z</time>
      </trkpt>
      <trkpt lat="47.50482" lon="6.76655">
        <ele>396.2</ele>
        <time>2014-05-04T06:52:52.000Z</time>
      </trkpt>
      <trkpt lat="47.50477" lon="6.76657">
        <ele>395.5</ele>
        <time>2014-05-04T06:52:53.000Z</time>
      </trkpt>
      <trkpt lat="47.50473" lon="6.76658">
        <ele>395.6</ele>
        <time>2014-05-04T06:52:54.000Z</time>
      </trkpt>
      <trkpt lat="47.50468" lon="6.7666">
        <ele>395.4</ele>
        <time>2014-05-04T06:52:55.000Z</time>
      </trkpt>
      <trkpt lat="47.50463" lon="6.76662">
        <ele>395.4</ele>
        <time>2014-05-04T06:52:56.000Z</time>
      </trkpt>
      <trkpt lat="47.50458" lon="6.76664">
        <ele>395.1</ele>
        <time>2014-05-04T06:52:57.000Z</time>
      </trkpt>
      <trkpt lat="47.50454" lon="6.76667">
        <ele>395.1</ele>
        <time>2014-05-04T06:52:58.000Z</time>
      </trkpt>
      <trkpt lat="47.50449" lon="6.76668">
        <ele>395.1</ele>
        <time>2014-05-04T06:52:59.000Z</time>
      </trkpt>
      <trkpt lat="47.50444" lon="6.76671">
        <ele>395.5</ele>
        <time>2014-05-04T06:53:00.000Z</time>
      </trkpt>
      <trkpt lat="47.5044" lon="6.76673">
        <ele>395.8</ele>
        <time>2014-05-04T06:53:01.000Z</time>
      </trkpt>
      <trkpt lat="47.50436" lon="6.76675">
        <ele>395.7</ele>
        <time>2014-05-04T06:53:02.000Z</time>
      </trkpt>
      <trkpt lat="47.50432" lon="6.76677">
        <ele>395.9</ele>
        <time>2014-05-04T06:53:03.000Z</time>
      </trkpt>
      <trkpt lat="47.50428" lon="6.76678">
        <ele>395.9</ele>
        <time>2014-05-04T06:53:04.000Z</time>
      </trkpt>
      <trkpt lat="47.50423" lon="6.7668">
        <ele>395.7</ele>
        <time>2014-05-04T06:53:05.000Z</time>
      </trkpt>
      <trkpt lat="47.50419" lon="6.76682">
        <ele>395.7</ele>
        <time>2014-05-04T06:53:06.000Z</time>
      </trkpt>
      <trkpt lat="47.50415" lon="6.76684">
        <ele>395.9</ele>
        <time>2014-05-04T06:53:07.000Z</time>
      </trkpt>
      <trkpt lat="47.50411" lon="6.76686">
        <ele>396</ele>
        <time>2014-05-04T06:53:08.000Z</time>
      </trkpt>
      <trkpt lat="47.50407" lon="6.76687">
        <ele>395.3</ele>
        <time>2014-05-04T06:53:09.000Z</time>
      </trkpt>
      <trkpt lat="47.50403" lon="6.76689">
        <ele>395.2</ele>
        <time>2014-05-04T06:53:10.000Z</time>
      </trkpt>
      <trkpt lat="47.50398" lon="6.7669">
        <ele>395.4</ele>
        <time>2014-05-04T06:53:11.000Z</time>
      </trkpt>
      <trkpt lat="47.50394" lon="6.76692">
        <ele>395.4</ele>
        <time>2014-05-04T06:53:12.000Z</time>
      </trkpt>
      <trkpt lat="47.5039" lon="6.76693">
        <ele>395.4</ele>
        <time>2014-05-04T06:53:13.000Z</time>
      </trkpt>
      <trkpt lat="47.50386" lon="6.76695">
        <ele>395.6</ele>
        <time>2014-05-04T06:53:14.000Z</time>
      </trkpt>
      <trkpt lat="47.50383" lon="6.76697">
        <ele>395.9</ele>
        <time>2014-05-04T06:53:15.000Z</time>
      </trkpt>
      <trkpt lat="47.50379" lon="6.76699">
        <ele>396</ele>
        <time>2014-05-04T06:53:16.000Z</time>
      </trkpt>
      <trkpt lat="47.50375" lon="6.767">
        <ele>396</ele>
        <time>2014-05-04T06:53:17.000Z</time>
      </trkpt>
      <trkpt lat="47.50371" lon="6.76702">
        <ele>395.7</ele>
        <time>2014-05-04T06:53:18.000Z</time>
      </trkpt>
      <trkpt lat="47.50367" lon="6.76703">
        <ele>395.7</ele>
        <time>2014-05-04T06:53:19.000Z</time>
      </trkpt>
      <trkpt lat="47.50363" lon="6.76705">
        <ele>395.6</ele>
        <time>2014-05-04T06:53:20.000Z</time>
      </trkpt>
      <trkpt lat="47.50359" lon="6.76707">
        <ele>396</ele>
        <time>2014-05-04T06:53:21.000Z</time>
      </trkpt>
      <trkpt lat="47.50355" lon="6.76709">
        <ele>396.2</ele>
        <time>2014-05-04T06:53:22.000Z</time>
      </trkpt>
      <trkpt lat="47.50351" lon="6.7671">
        <ele>396.1</ele>
        <time>2014-05-04T06:53:23.000Z</time>
      </trkpt>
      <trkpt lat="47.50347" lon="6.76712">
        <ele>396.3</ele>
        <time>2014-05-04T06:53:24.000Z</time>
      </trkpt>
      <trkpt lat="47.50343" lon="6.76714">
        <ele>396.6</ele>
        <time>2014-05-04T06:53:25.000Z</time>
      </trkpt>
      <trkpt lat="47.50339" lon="6.76716">
        <ele>396.8</ele>
        <time>2014-05-04T06:53:26.000Z</time>
      </trkpt>
      <trkpt lat="47.50335" lon="6.76718">
        <ele>396.9</ele>
        <time>2014-05-04T06:53:27.000Z</time>
      </trkpt>
      <trkpt lat="47.50331" lon="6.7672">
        <ele>397</ele>
        <time>2014-05-04T06:53:27.999Z</time>
      </trkpt>
      <trkpt lat="47.50328" lon="6.76721">
        <ele>397</ele>
        <time>2014-05-04T06:53:29.000Z</time>
      </trkpt>
      <trkpt lat="47.50324" lon="6.76723">
        <ele>397.1</ele>
        <time>2014-05-04T06:53:30.000Z</time>
      </trkpt>
      <trkpt lat="47.5032" lon="6.76724">
        <ele>397.2</ele>
        <time>2014-05-04T06:53:31.000Z</time>
      </trkpt>
      <trkpt lat="47.50316" lon="6.76726">
        <ele>396.7</ele>
        <time>2014-05-04T06:53:32.000Z</time>
      </trkpt>
      <trkpt lat="47.50312" lon="6.76727">
        <ele>396.4</ele>
        <time>2014-05-04T06:53:33.000Z</time>
      </trkpt>
      <trkpt lat="47.50308" lon="6.76729">
        <ele>396.4</ele>
        <time>2014-05-04T06:53:34.000Z</time>
      </trkpt>
      <trkpt lat="47.50304" lon="6.7673">
        <ele>396.6</ele>
        <time>2014-05-04T06:53:35.000Z</time>
      </trkpt>
      <trkpt lat="47.503" lon="6.76732">
        <ele>397.1</ele>
        <time>2014-05-04T06:53:36.000Z</time>
      </trkpt>
      <trkpt lat="47.50297" lon="6.76734">
        <ele>397.5</ele>
        <time>2014-05-04T06:53:37.000Z</time>
      </trkpt>
      <trkpt lat="47.50294" lon="6.76735">
        <ele>397.5</ele>
        <time>2014-05-04T06:53:38.000Z</time>
      </trkpt>
      <trkpt lat="47.50291" lon="6.76736">
        <ele>397.6</ele>
        <time>2014-05-04T06:53:39.000Z</time>
      </trkpt>
      <trkpt lat="47.50288" lon="6.76737">
        <ele>398</ele>
        <time>2014-05-04T06:53:40.000Z</time>
      </trkpt>
      <trkpt lat="47.50285" lon="6.76738">
        <ele>398.3</ele>
        <time>2014-05-04T06:53:41.000Z</time>
      </trkpt>
      <trkpt lat="47.50282" lon="6.76739">
        <ele>398.6</ele>
        <time>2014-05-04T06:53:42.000Z</time>
      </trkpt>
      <trkpt lat="47.50278" lon="6.76739">
        <ele>399</ele>
        <time>2014-05-04T06:53:43.000Z</time>
      </trkpt>
      <trkpt lat="47.50274" lon="6.7674">
        <ele>399.3</ele>
        <time>2014-05-04T06:53:44.000Z</time>
      </trkpt>
      <trkpt lat="47.5027" lon="6.7674">
        <ele>399.6</ele>
        <time>2014-05-04T06:53:45.000Z</time>
      </trkpt>
      <trkpt lat="47.50267" lon="6.76741">
        <ele>399.7</ele>
        <time>2014-05-04T06:53:46.000Z</time>
      </trkpt>
      <trkpt lat="47.50263" lon="6.76742">
        <ele>400</ele>
        <time>2014-05-04T06:53:47.000Z</time>
      </trkpt>
      <trkpt lat="47.50259" lon="6.76743">
        <ele>400</ele>
        <time>2014-05-04T06:53:48.000Z</time>
      </trkpt>
      <trkpt lat="47.50256" lon="6.76744">
        <ele>399.6</ele>
        <time>2014-05-04T06:53:49.000Z</time>
      </trkpt>
      <trkpt lat="47.50252" lon="6.76745">
        <ele>399.7</ele>
        <time>2014-05-04T06:53:50.000Z</time>
      </trkpt>
      <trkpt lat="47.50249" lon="6.76746">
        <ele>399.2</ele>
        <time>2014-05-04T06:53:51.000Z</time>
      </trkpt>
      <trkpt lat="47.50245" lon="6.76746">
        <ele>399.4</ele>
        <time>2014-05-04T06:53:52.000Z</time>
      </trkpt>
      <trkpt lat="47.50242" lon="6.76745">
        <ele>400</ele>
        <time>2014-05-04T06:53:53.000Z</time>
      </trkpt>
      <trkpt lat="47.50239" lon="6.76743">
        <ele>399.9</ele>
        <time>2014-05-04T06:53:54.000Z</time>
      </trkpt>
      <trkpt lat="47.50237" lon="6.7674">
        <ele>399.8</ele>
        <time>2014-05-04T06:53:55.000Z</time>
      </trkpt>
      <trkpt lat="47.50235" lon="6.76736">
        <ele>400</ele>
        <time>2014-05-04T06:53:56.000Z</time>
      </trkpt>
      <trkpt lat="47.50233" lon="6.76732">
        <ele>399.9</ele>
        <time>2014-05-04T06:53:57.000Z</time>
      </trkpt>
      <trkpt lat="47.50232" lon="6.76728">
        <ele>400.4</ele>
        <time>2014-05-04T06:53:58.000Z</time>
      </trkpt>
      <trkpt lat="47.5023" lon="6.76724">
        <ele>400.1</ele>
        <time>2014-05-04T06:53:59.000Z</time>
      </trkpt>
      <trkpt lat="47.50228" lon="6.7672">
        <ele>399.8</ele>
        <time>2014-05-04T06:54:00.000Z</time>
      </trkpt>
      <trkpt lat="47.50227" lon="6.76717">
        <ele>399.9</ele>
        <time>2014-05-04T06:54:01.000Z</time>
      </trkpt>
      <trkpt lat="47.50225" lon="6.76713">
        <ele>399.9</ele>
        <time>2014-05-04T06:54:02.000Z</time>
      </trkpt>
      <trkpt lat="47.50223" lon="6.76708">
        <ele>399.9</ele>
        <time>2014-05-04T06:54:03.000Z</time>
      </trkpt>
      <trkpt lat="47.50222" lon="6.76704">
        <ele>399.7</ele>
        <time>2014-05-04T06:54:04.000Z</time>
      </trkpt>
      <trkpt lat="47.5022" lon="6.76699">
        <ele>399.6</ele>
        <time>2014-05-04T06:54:05.000Z</time>
      </trkpt>
      <trkpt lat="47.50219" lon="6.76695">
        <ele>399.6</ele>
        <time>2014-05-04T06:54:06.000Z</time>
      </trkpt>
      <trkpt lat="47.50217" lon="6.7669">
        <ele>399.9</ele>
        <time>2014-05-04T06:54:07.000Z</time>
      </trkpt>
      <trkpt lat="47.50216" lon="6.76684">
        <ele>399.9</ele>
        <time>2014-05-04T06:54:08.000Z</time>
      </trkpt>
      <trkpt lat="47.50214" lon="6.76679">
        <ele>399.7</ele>
        <time>2014-05-04T06:54:09.000Z</time>
      </trkpt>
      <trkpt lat="47.50212" lon="6.76674">
        <ele>399.4</ele>
        <time>2014-05-04T06:54:10.000Z</time>
      </trkpt>
      <trkpt lat="47.5021" lon="6.76669">
        <ele>399.2</ele>
        <time>2014-05-04T06:54:11.000Z</time>
      </trkpt>
      <trkpt lat="47.50209" lon="6.76664">
        <ele>399.1</ele>
        <time>2014-05-04T06:54:12.000Z</time>
      </trkpt>
      <trkpt lat="47.50207" lon="6.76659">
        <ele>399.7</ele>
        <time>2014-05-04T06:54:13.000Z</time>
      </trkpt>
      <trkpt lat="47.50205" lon="6.76654">
        <ele>399.7</ele>
        <time>2014-05-04T06:54:14.000Z</time>
      </trkpt>
      <trkpt lat="47.50203" lon="6.76649">
        <ele>399.4</ele>
        <time>2014-05-04T06:54:15.000Z</time>
      </trkpt>
      <trkpt lat="47.50202" lon="6.76644">
        <ele>399</ele>
        <time>2014-05-04T06:54:16.000Z</time>
      </trkpt>
      <trkpt lat="47.502" lon="6.76638">
        <ele>399</ele>
        <time>2014-05-04T06:54:17.000Z</time>
      </trkpt>
      <trkpt lat="47.50198" lon="6.76633">
        <ele>398.9</ele>
        <time>2014-05-04T06:54:18.000Z</time>
      </trkpt>
      <trkpt lat="47.50196" lon="6.76629">
        <ele>398.6</ele>
        <time>2014-05-04T06:54:19.000Z</time>
      </trkpt>
      <trkpt lat="47.50195" lon="6.76624">
        <ele>398.4</ele>
        <time>2014-05-04T06:54:20.000Z</time>
      </trkpt>
      <trkpt lat="47.50193" lon="6.76619">
        <ele>398.3</ele>
        <time>2014-05-04T06:54:21.000Z</time>
      </trkpt>
      <trkpt lat="47.50192" lon="6.76615">
        <ele>398.3</ele>
        <time>2014-05-04T06:54:22.000Z</time>
      </trkpt>
      <trkpt lat="47.50191" lon="6.76611">
        <ele>398.3</ele>
        <time>2014-05-04T06:54:22.999Z</time>
      </trkpt>
      <trkpt lat="47.50191" lon="6.76606">
        <ele>398.2</ele>
        <time>2014-05-04T06:55:08.000Z</time>
      </trkpt>
      <trkpt lat="47.50191" lon="6.76603">
        <ele>397.7</ele>
        <time>2014-05-04T06:55:09.000Z</time>
      </trkpt>
      <trkpt lat="47.5019" lon="6.76597">
        <ele>398.3</ele>
        <time>2014-05-04T06:55:11.000Z</time>
      </trkpt>
      <trkpt lat="47.5019" lon="6.76595">
        <ele>398.5</ele>
        <time>2014-05-04T06:55:12.000Z</time>
      </trkpt>
      <trkpt lat="47.50189" lon="6.76589">
        <ele>400</ele>
        <time>2014-05-04T06:55:15.000Z</time>
      </trkpt>
      <trkpt lat="47.50188" lon="6.76588">
        <ele>401</ele>
        <time>2014-05-04T06:55:16.000Z</time>
      </trkpt>
      <trkpt lat="47.50189" lon="6.76582">
        <ele>399.9</ele>
        <time>2014-05-04T06:55:18.000Z</time>
      </trkpt>
      <trkpt lat="47.5019" lon="6.76579">
        <ele>399.6</ele>
        <time>2014-05-04T06:55:19.000Z</time>
      </trkpt>
      <trkpt lat="47.50193" lon="6.76576">
        <ele>399.8</ele>
        <time>2014-05-04T06:55:21.000Z</time>
      </trkpt>
      <trkpt lat="47.50197" lon="6.76575">
        <ele>399.2</ele>
        <time>2014-05-04T06:55:22.000Z</time>
      </trkpt>
      <trkpt lat="47.50201" lon="6.76574">
        <ele>399.4</ele>
        <time>2014-05-04T06:55:23.000Z</time>
      </trkpt>
      <trkpt lat="47.50205" lon="6.76573">
        <ele>399.4</ele>
        <time>2014-05-04T06:55:24.000Z</time>
      </trkpt>
      <trkpt lat="47.50209" lon="6.76572">
        <ele>399.7</ele>
        <time>2014-05-04T06:55:25.000Z</time>
      </trkpt>
      <trkpt lat="47.50212" lon="6.76571">
        <ele>400.1</ele>
        <time>2014-05-04T06:55:26.000Z</time>
      </trkpt>
      <trkpt lat="47.50214" lon="6.76568">
        <ele>400.6</ele>
        <time>2014-05-04T06:55:27.000Z</time>
      </trkpt>
      <trkpt lat="47.50215" lon="6.76565">
        <ele>401</ele>
        <time>2014-05-04T06:55:28.000Z</time>
      </trkpt>
      <trkpt lat="47.50216" lon="6.76561">
        <ele>401.3</ele>
        <time>2014-05-04T06:55:29.000Z</time>
      </trkpt>
      <trkpt lat="47.50216" lon="6.76556">
        <ele>401.9</ele>
        <time>2014-05-04T06:55:30.000Z</time>
      </trkpt>
      <trkpt lat="47.50215" lon="6.76552">
        <ele>402.1</ele>
        <time>2014-05-04T06:55:31.000Z</time>
      </trkpt>
      <trkpt lat="47.50214" lon="6.76546">
        <ele>402</ele>
        <time>2014-05-04T06:55:32.000Z</time>
      </trkpt>
      <trkpt lat="47.50213" lon="6.7654">
        <ele>402.6</ele>
        <time>2014-05-04T06:55:33.000Z</time>
      </trkpt>
      <trkpt lat="47.50211" lon="6.76534">
        <ele>402.5</ele>
        <time>2014-05-04T06:55:34.000Z</time>
      </trkpt>
      <trkpt lat="47.50209" lon="6.76527">
        <ele>402.1</ele>
        <time>2014-05-04T06:55:35.000Z</time>
      </trkpt>
      <trkpt lat="47.50207" lon="6.7652">
        <ele>402.1</ele>
        <time>2014-05-04T06:55:36.000Z</time>
      </trkpt>
      <trkpt lat="47.50202" lon="6.76496">
        <ele>401.7</ele>
        <time>2014-05-04T06:55:37.000Z</time>
      </trkpt>
      <trkpt lat="47.50199" lon="6.76485">
        <ele>400.9</ele>
        <time>2014-05-04T06:55:38.000Z</time>
      </trkpt>
      <trkpt lat="47.50195" lon="6.76477">
        <ele>400.8</ele>
        <time>2014-05-04T06:55:39.000Z</time>
      </trkpt>
      <trkpt lat="47.5019" lon="6.76469">
        <ele>402.3</ele>
        <time>2014-05-04T06:55:40.000Z</time>
      </trkpt>
      <trkpt lat="47.50187" lon="6.76461">
        <ele>402.8</ele>
        <time>2014-05-04T06:55:41.000Z</time>
      </trkpt>
      <trkpt lat="47.50186" lon="6.76455">
        <ele>403.1</ele>
        <time>2014-05-04T06:55:42.000Z</time>
      </trkpt>
      <trkpt lat="47.50184" lon="6.76449">
        <ele>402.9</ele>
        <time>2014-05-04T06:55:43.000Z</time>
      </trkpt>
      <trkpt lat="47.50182" lon="6.76444">
        <ele>403</ele>
        <time>2014-05-04T06:55:44.000Z</time>
      </trkpt>
      <trkpt lat="47.50179" lon="6.7643">
        <ele>403.5</ele>
        <time>2014-05-04T06:55:47.000Z</time>
      </trkpt>
      <trkpt lat="47.50177" lon="6.76424">
        <ele>403.7</ele>
        <time>2014-05-04T06:55:48.000Z</time>
      </trkpt>
      <trkpt lat="47.50176" lon="6.76416">
        <ele>403.2</ele>
        <time>2014-05-04T06:55:49.000Z</time>
      </trkpt>
      <trkpt lat="47.50174" lon="6.7641">
        <ele>403.6</ele>
        <time>2014-05-04T06:55:50.000Z</time>
      </trkpt>
      <trkpt lat="47.50172" lon="6.76403">
        <ele>403.6</ele>
        <time>2014-05-04T06:55:51.000Z</time>
      </trkpt>
      <trkpt lat="47.50171" lon="6.76395">
        <ele>403.5</ele>
        <time>2014-05-04T06:55:52.000Z</time>
      </trkpt>
      <trkpt lat="47.50168" lon="6.76388">
        <ele>402.8</ele>
        <time>2014-05-04T06:55:53.000Z</time>
      </trkpt>
      <trkpt lat="47.50166" lon="6.76381">
        <ele>402.5</ele>
        <time>2014-05-04T06:55:54.000Z</time>
      </trkpt>
      <trkpt lat="47.50163" lon="6.76373">
        <ele>402.4</ele>
        <time>2014-05-04T06:55:55.000Z</time>
      </trkpt>
      <trkpt lat="47.50161" lon="6.76367">
        <ele>403.1</ele>
        <time>2014-05-04T06:55:56.000Z</time>
      </trkpt>
      <trkpt lat="47.50159" lon="6.7636">
        <ele>403.8</ele>
        <time>2014-05-04T06:55:57.000Z</time>
      </trkpt>
      <trkpt lat="47.50156" lon="6.76353">
        <ele>404.4</ele>
        <time>2014-05-04T06:55:58.000Z</time>
      </trkpt>
      <trkpt lat="47.50154" lon="6.76347">
        <ele>405.6</ele>
        <time>2014-05-04T06:55:59.000Z</time>
      </trkpt>
      <trkpt lat="47.50151" lon="6.7634">
        <ele>406.6</ele>
        <time>2014-05-04T06:56:00.000Z</time>
      </trkpt>
      <trkpt lat="47.50148" lon="6.76332">
        <ele>407.2</ele>
        <time>2014-05-04T06:56:01.000Z</time>
      </trkpt>
      <trkpt lat="47.50146" lon="6.76328">
        <ele>407.7</ele>
        <time>2014-05-04T06:56:02.000Z</time>
      </trkpt>
      <trkpt lat="47.50142" lon="6.76318">
        <ele>408.2</ele>
        <time>2014-05-04T06:56:03.000Z</time>
      </trkpt>
      <trkpt lat="47.50139" lon="6.76311">
        <ele>408.5</ele>
        <time>2014-05-04T06:56:04.000Z</time>
      </trkpt>
      <trkpt lat="47.50137" lon="6.76304">
        <ele>408.1</ele>
        <time>2014-05-04T06:56:05.000Z</time>
      </trkpt>
      <trkpt lat="47.50134" lon="6.76296">
        <ele>408.8</ele>
        <time>2014-05-04T06:56:06.000Z</time>
      </trkpt>
      <trkpt lat="47.50131" lon="6.76289">
        <ele>408.5</ele>
        <time>2014-05-04T06:56:07.000Z</time>
      </trkpt>
      <trkpt lat="47.50129" lon="6.76281">
        <ele>409.1</ele>
        <time>2014-05-04T06:56:08.000Z</time>
      </trkpt>
      <trkpt lat="47.50127" lon="6.76272">
        <ele>409.3</ele>
        <time>2014-05-04T06:56:09.000Z</time>
      </trkpt>
      <trkpt lat="47.50125" lon="6.76262">
        <ele>409</ele>
        <time>2014-05-04T06:56:10.000Z</time>
      </trkpt>
      <trkpt lat="47.50123" lon="6.76252">
        <ele>409.1</ele>
        <time>2014-05-04T06:56:11.000Z</time>
      </trkpt>
      <trkpt lat="47.50121" lon="6.76242">
        <ele>408.3</ele>
        <time>2014-05-04T06:56:12.000Z</time>
      </trkpt>
      <trkpt lat="47.5012" lon="6.76232">
        <ele>408.5</ele>
        <time>2014-05-04T06:56:13.000Z</time>
      </trkpt>
      <trkpt lat="47.50119" lon="6.76223">
        <ele>407.8</ele>
        <time>2014-05-04T06:56:14.000Z</time>
      </trkpt>
      <trkpt lat="47.50117" lon="6.76214">
        <ele>406.5</ele>
        <time>2014-05-04T06:56:15.000Z</time>
      </trkpt>
      <trkpt lat="47.50116" lon="6.76206">
        <ele>405.8</ele>
        <time>2014-05-04T06:56:16.000Z</time>
      </trkpt>
      <trkpt lat="47.50113" lon="6.76198">
        <ele>405.6</ele>
        <time>2014-05-04T06:56:17.000Z</time>
      </trkpt>
      <trkpt lat="47.50111" lon="6.76191">
        <ele>405.3</ele>
        <time>2014-05-04T06:56:18.000Z</time>
      </trkpt>
      <trkpt lat="47.50109" lon="6.76187">
        <ele>405.4</ele>
        <time>2014-05-04T06:56:18.999Z</time>
      </trkpt>
      <trkpt lat="47.50105" lon="6.76174">
        <ele>403.7</ele>
        <time>2014-05-04T06:56:20.000Z</time>
      </trkpt>
      <trkpt lat="47.501" lon="6.76141">
        <ele>403.8</ele>
        <time>2014-05-04T06:56:21.000Z</time>
      </trkpt>
      <trkpt lat="47.50099" lon="6.76136">
        <ele>403.8</ele>
        <time>2014-05-04T06:56:21.999Z</time>
      </trkpt>
      <trkpt lat="47.50097" lon="6.76112">
        <ele>403.5</ele>
        <time>2014-05-04T06:56:23.000Z</time>
      </trkpt>
      <trkpt lat="47.50094" lon="6.76098">
        <ele>401.8</ele>
        <time>2014-05-04T06:56:24.000Z</time>
      </trkpt>
      <trkpt lat="47.50093" lon="6.76082">
        <ele>398.1</ele>
        <time>2014-05-04T06:56:25.000Z</time>
      </trkpt>
      <trkpt lat="47.50093" lon="6.76068">
        <ele>394.7</ele>
        <time>2014-05-04T06:56:26.000Z</time>
      </trkpt>
      <trkpt lat="47.5009" lon="6.76054">
        <ele>391.2</ele>
        <time>2014-05-04T06:56:27.000Z</time>
      </trkpt>
      <trkpt lat="47.50087" lon="6.76043">
        <ele>389.7</ele>
        <time>2014-05-04T06:56:28.000Z</time>
      </trkpt>
      <trkpt lat="47.50084" lon="6.76027">
        <ele>390.4</ele>
        <time>2014-05-04T06:56:29.000Z</time>
      </trkpt>
      <trkpt lat="47.50082" lon="6.76013">
        <ele>390.7</ele>
        <time>2014-05-04T06:56:30.000Z</time>
      </trkpt>
      <trkpt lat="47.50079" lon="6.76">
        <ele>389.2</ele>
        <time>2014-05-04T06:56:31.000Z</time>
      </trkpt>
      <trkpt lat="47.50074" lon="6.7599">
        <ele>390.4</ele>
        <time>2014-05-04T06:56:32.000Z</time>
      </trkpt>
      <trkpt lat="47.50068" lon="6.75981">
        <ele>391</ele>
        <time>2014-05-04T06:56:33.000Z</time>
      </trkpt>
      <trkpt lat="47.50065" lon="6.75971">
        <ele>390.3</ele>
        <time>2014-05-04T06:56:34.000Z</time>
      </trkpt>
      <trkpt lat="47.50061" lon="6.75962">
        <ele>390.3</ele>
        <time>2014-05-04T06:56:35.000Z</time>
      </trkpt>
      <trkpt lat="47.50059" lon="6.75954">
        <ele>389.4</ele>
        <time>2014-05-04T06:56:36.000Z</time>
      </trkpt>
      <trkpt lat="47.50056" lon="6.75943">
        <ele>386.8</ele>
        <time>2014-05-04T06:56:37.000Z</time>
      </trkpt>
      <trkpt lat="47.50054" lon="6.75934">
        <ele>384.8</ele>
        <time>2014-05-04T06:56:38.000Z</time>
      </trkpt>
      <trkpt lat="47.50049" lon="6.75923">
        <ele>388.2</ele>
        <time>2014-05-04T06:56:39.000Z</time>
      </trkpt>
      <trkpt lat="47.50046" lon="6.75914">
        <ele>388.6</ele>
        <time>2014-05-04T06:56:40.000Z</time>
      </trkpt>
      <trkpt lat="47.50044" lon="6.75908">
        <ele>388.5</ele>
        <time>2014-05-04T06:56:41.000Z</time>
      </trkpt>
      <trkpt lat="47.50038" lon="6.75901">
        <ele>388.7</ele>
        <time>2014-05-04T06:56:42.000Z</time>
      </trkpt>
      <trkpt lat="47.50036" lon="6.75896">
        <ele>389</ele>
        <time>2014-05-04T06:56:43.000Z</time>
      </trkpt>
      <trkpt lat="47.50029" lon="6.75878">
        <ele>389.5</ele>
        <time>2014-05-04T06:56:46.000Z</time>
      </trkpt>
      <trkpt lat="47.50023" lon="6.75869">
        <ele>388.8</ele>
        <time>2014-05-04T06:56:47.000Z</time>
      </trkpt>
      <trkpt lat="47.50018" lon="6.7586">
        <ele>386.8</ele>
        <time>2014-05-04T06:56:48.000Z</time>
      </trkpt>
      <trkpt lat="47.50013" lon="6.75851">
        <ele>386.5</ele>
        <time>2014-05-04T06:56:49.000Z</time>
      </trkpt>
      <trkpt lat="47.5001" lon="6.75843">
        <ele>385.8</ele>
        <time>2014-05-04T06:56:50.000Z</time>
      </trkpt>
      <trkpt lat="47.50006" lon="6.75835">
        <ele>385.2</ele>
        <time>2014-05-04T06:56:51.000Z</time>
      </trkpt>
      <trkpt lat="47.50001" lon="6.75827">
        <ele>384.6</ele>
        <time>2014-05-04T06:56:52.000Z</time>
      </trkpt>
      <trkpt lat="47.49994" lon="6.7582">
        <ele>385</ele>
        <time>2014-05-04T06:56:53.000Z</time>
      </trkpt>
      <trkpt lat="47.49989" lon="6.75815">
        <ele>384.5</ele>
        <time>2014-05-04T06:56:54.000Z</time>
      </trkpt>
      <trkpt lat="47.49984" lon="6.7581">
        <ele>383.1</ele>
        <time>2014-05-04T06:56:55.000Z</time>
      </trkpt>
      <trkpt lat="47.49978" lon="6.75804">
        <ele>381.9</ele>
        <time>2014-05-04T06:56:56.000Z</time>
      </trkpt>
      <trkpt lat="47.49973" lon="6.75796">
        <ele>378.9</ele>
        <time>2014-05-04T06:56:57.000Z</time>
      </trkpt>
      <trkpt lat="47.49967" lon="6.75788">
        <ele>375.9</ele>
        <time>2014-05-04T06:56:58.000Z</time>
      </trkpt>
      <trkpt lat="47.49964" lon="6.75783">
        <ele>374</ele>
        <time>2014-05-04T06:56:59.000Z</time>
      </trkpt>
      <trkpt lat="47.49961" lon="6.75779">
        <ele>372.8</ele>
        <time>2014-05-04T06:57:01.000Z</time>
      </trkpt>
      <trkpt lat="47.4996" lon="6.75777">
        <ele>372.6</ele>
        <time>2014-05-04T06:57:02.000Z</time>
      </trkpt>
      <trkpt lat="47.49958" lon="6.75774">
        <ele>372.3</ele>
        <time>2014-05-04T06:57:04.000Z</time>
      </trkpt>
      <trkpt lat="47.49956" lon="6.75772">
        <ele>371.9</ele>
        <time>2014-05-04T06:57:05.000Z</time>
      </trkpt>
      <trkpt lat="47.49955" lon="6.7577">
        <ele>371.5</ele>
        <time>2014-05-04T06:57:06.000Z</time>
      </trkpt>
      <trkpt lat="47.49953" lon="6.75767">
        <ele>371.9</ele>
        <time>2014-05-04T06:57:07.000Z</time>
      </trkpt>
      <trkpt lat="47.4995" lon="6.75764">
        <ele>372.2</ele>
        <time>2014-05-04T06:57:08.000Z</time>
      </trkpt>
      <trkpt lat="47.49947" lon="6.75758">
        <ele>372.4</ele>
        <time>2014-05-04T06:57:09.000Z</time>
      </trkpt>
      <trkpt lat="47.49944" lon="6.75752">
        <ele>373.1</ele>
        <time>2014-05-04T06:57:10.000Z</time>
      </trkpt>
      <trkpt lat="47.49941" lon="6.75745">
        <ele>372.7</ele>
        <time>2014-05-04T06:57:11.000Z</time>
      </trkpt>
      <trkpt lat="47.49937" lon="6.75738">
        <ele>372.2</ele>
        <time>2014-05-04T06:57:12.000Z</time>
      </trkpt>
      <trkpt lat="47.49932" lon="6.75733">
        <ele>370.9</ele>
        <time>2014-05-04T06:57:13.000Z</time>
      </trkpt>
      <trkpt lat="47.49927" lon="6.75729">
        <ele>370.8</ele>
        <time>2014-05-04T06:57:14.000Z</time>
      </trkpt>
      <trkpt lat="47.49922" lon="6.75726">
        <ele>370.9</ele>
        <time>2014-05-04T06:57:15.000Z</time>
      </trkpt>
      <trkpt lat="47.49917" lon="6.75723">
        <ele>371.2</ele>
        <time>2014-05-04T06:57:16.000Z</time>
      </trkpt>
      <trkpt lat="47.499" lon="6.75722">
        <ele>373.9</ele>
        <time>2014-05-04T06:57:17.000Z</time>
      </trkpt>
      <trkpt lat="47.49892" lon="6.7572">
        <ele>373.9</ele>
        <time>2014-05-04T06:57:18.000Z</time>
      </trkpt>
      <trkpt lat="47.49885" lon="6.7572">
        <ele>373.5</ele>
        <time>2014-05-04T06:57:19.000Z</time>
      </trkpt>
      <trkpt lat="47.49881" lon="6.75719">
        <ele>373.2</ele>
        <time>2014-05-04T06:57:20.000Z</time>
      </trkpt>
      <trkpt lat="47.49876" lon="6.7572">
        <ele>373</ele>
        <time>2014-05-04T06:57:21.000Z</time>
      </trkpt>
      <trkpt lat="47.4987" lon="6.75719">
        <ele>372.4</ele>
        <time>2014-05-04T06:57:22.000Z</time>
      </trkpt>
      <trkpt lat="47.49867" lon="6.7572">
        <ele>372.2</ele>
        <time>2014-05-04T06:57:23.000Z</time>
      </trkpt>
      <trkpt lat="47.4986" lon="6.75721">
        <ele>372.8</ele>
        <time>2014-05-04T06:57:24.000Z</time>
      </trkpt>
      <trkpt lat="47.49855" lon="6.75722">
        <ele>372.9</ele>
        <time>2014-05-04T06:57:25.000Z</time>
      </trkpt>
      <trkpt lat="47.49845" lon="6.75721">
        <ele>372.5</ele>
        <time>2014-05-04T06:57:26.000Z</time>
      </trkpt>
      <trkpt lat="47.49837" lon="6.75721">
        <ele>372.2</ele>
        <time>2014-05-04T06:57:27.000Z</time>
      </trkpt>
      <trkpt lat="47.49829" lon="6.7572">
        <ele>372.3</ele>
        <time>2014-05-04T06:57:28.000Z</time>
      </trkpt>
      <trkpt lat="47.49824" lon="6.7572">
        <ele>372.4</ele>
        <time>2014-05-04T06:57:28.999Z</time>
      </trkpt>
      <trkpt lat="47.4981" lon="6.75723">
        <ele>371.4</ele>
        <time>2014-05-04T06:57:30.000Z</time>
      </trkpt>
      <trkpt lat="47.49799" lon="6.75729">
        <ele>370.5</ele>
        <time>2014-05-04T06:57:31.000Z</time>
      </trkpt>
      <trkpt lat="47.49788" lon="6.75732">
        <ele>370.4</ele>
        <time>2014-05-04T06:57:32.000Z</time>
      </trkpt>
      <trkpt lat="47.49778" lon="6.75738">
        <ele>368.3</ele>
        <time>2014-05-04T06:57:33.000Z</time>
      </trkpt>
      <trkpt lat="47.49767" lon="6.75742">
        <ele>367.5</ele>
        <time>2014-05-04T06:57:34.000Z</time>
      </trkpt>
      <trkpt lat="47.49756" lon="6.75746">
        <ele>366.6</ele>
        <time>2014-05-04T06:57:35.000Z</time>
      </trkpt>
      <trkpt lat="47.49749" lon="6.75751">
        <ele>365.6</ele>
        <time>2014-05-04T06:57:36.000Z</time>
      </trkpt>
      <trkpt lat="47.4974" lon="6.75755">
        <ele>364.2</ele>
        <time>2014-05-04T06:57:37.000Z</time>
      </trkpt>
      <trkpt lat="47.49729" lon="6.75756">
        <ele>363.4</ele>
        <time>2014-05-04T06:57:38.000Z</time>
      </trkpt>
      <trkpt lat="47.49723" lon="6.75759">
        <ele>363.4</ele>
        <time>2014-05-04T06:57:39.000Z</time>
      </trkpt>
      <trkpt lat="47.49715" lon="6.75761">
        <ele>365.2</ele>
        <time>2014-05-04T06:57:40.000Z</time>
      </trkpt>
      <trkpt lat="47.49704" lon="6.75762">
        <ele>364.9</ele>
        <time>2014-05-04T06:57:41.000Z</time>
      </trkpt>
      <trkpt lat="47.49695" lon="6.75765">
        <ele>364.7</ele>
        <time>2014-05-04T06:57:42.000Z</time>
      </trkpt>
      <trkpt lat="47.49688" lon="6.75766">
        <ele>364.8</ele>
        <time>2014-05-04T06:57:43.000Z</time>
      </trkpt>
      <trkpt lat="47.4968" lon="6.7577">
        <ele>361.5</ele>
        <time>2014-05-04T06:57:44.000Z</time>
      </trkpt>
      <trkpt lat="47.49643" lon="6.75766">
        <ele>358.5</ele>
        <time>2014-05-04T06:57:52.000Z</time>
      </trkpt>
      <trkpt lat="47.49636" lon="6.75764">
        <ele>358.5</ele>
        <time>2014-05-04T06:57:53.000Z</time>
      </trkpt>
      <trkpt lat="47.49628" lon="6.75765">
        <ele>358.2</ele>
        <time>2014-05-04T06:57:54.000Z</time>
      </trkpt>
      <trkpt lat="47.49623" lon="6.75765">
        <ele>357.8</ele>
        <time>2014-05-04T06:57:55.000Z</time>
      </trkpt>
      <trkpt lat="47.49615" lon="6.75765">
        <ele>357.4</ele>
        <time>2014-05-04T06:57:56.000Z</time>
      </trkpt>
      <trkpt lat="47.49606" lon="6.75765">
        <ele>356.8</ele>
        <time>2014-05-04T06:57:57.000Z</time>
      </trkpt>
      <trkpt lat="47.496" lon="6.75764">
        <ele>356.8</ele>
        <time>2014-05-04T06:57:58.000Z</time>
      </trkpt>
      <trkpt lat="47.49595" lon="6.75763">
        <ele>355.8</ele>
        <time>2014-05-04T06:57:59.000Z</time>
      </trkpt>
      <trkpt lat="47.4959" lon="6.75761">
        <ele>354.9</ele>
        <time>2014-05-04T06:58:00.000Z</time>
      </trkpt>
      <trkpt lat="47.49583" lon="6.75761">
        <ele>353</ele>
        <time>2014-05-04T06:58:01.000Z</time>
      </trkpt>
      <trkpt lat="47.49578" lon="6.7576">
        <ele>350.9</ele>
        <time>2014-05-04T06:58:02.000Z</time>
      </trkpt>
      <trkpt lat="47.49574" lon="6.75758">
        <ele>350</ele>
        <time>2014-05-04T06:58:03.000Z</time>
      </trkpt>
      <trkpt lat="47.49572" lon="6.75754">
        <ele>349.8</ele>
        <time>2014-05-04T06:58:04.000Z</time>
      </trkpt>
      <trkpt lat="47.49572" lon="6.75749">
        <ele>351</ele>
        <time>2014-05-04T06:58:05.000Z</time>
      </trkpt>
      <trkpt lat="47.49571" lon="6.75736">
        <ele>351.2</ele>
        <time>2014-05-04T06:58:06.000Z</time>
      </trkpt>
      <trkpt lat="47.49572" lon="6.7573">
        <ele>351.3</ele>
        <time>2014-05-04T06:58:07.000Z</time>
      </trkpt>
      <trkpt lat="47.49574" lon="6.75727">
        <ele>350.9</ele>
        <time>2014-05-04T06:58:08.000Z</time>
      </trkpt>
      <trkpt lat="47.49577" lon="6.75724">
        <ele>351.1</ele>
        <time>2014-05-04T06:58:09.000Z</time>
      </trkpt>
      <trkpt lat="47.4958" lon="6.75716">
        <ele>352.2</ele>
        <time>2014-05-04T06:58:10.000Z</time>
      </trkpt>
      <trkpt lat="47.49583" lon="6.75712">
        <ele>352.3</ele>
        <time>2014-05-04T06:58:11.000Z</time>
      </trkpt>
      <trkpt lat="47.49585" lon="6.75707">
        <ele>352.3</ele>
        <time>2014-05-04T06:58:12.000Z</time>
      </trkpt>
      <trkpt lat="47.49587" lon="6.75703">
        <ele>352.3</ele>
        <time>2014-05-04T06:58:13.000Z</time>
      </trkpt>
      <trkpt lat="47.49588" lon="6.75689">
        <ele>351.2</ele>
        <time>2014-05-04T06:58:14.000Z</time>
      </trkpt>
      <trkpt lat="47.49587" lon="6.75681">
        <ele>349</ele>
        <time>2014-05-04T06:58:15.000Z</time>
      </trkpt>
      <trkpt lat="47.49585" lon="6.75675">
        <ele>347.1</ele>
        <time>2014-05-04T06:58:16.000Z</time>
      </trkpt>
      <trkpt lat="47.49581" lon="6.75671">
        <ele>343.9</ele>
        <time>2014-05-04T06:58:17.000Z</time>
      </trkpt>
      <trkpt lat="47.49577" lon="6.75665">
        <ele>341.4</ele>
        <time>2014-05-04T06:58:18.000Z</time>
      </trkpt>
      <trkpt lat="47.49572" lon="6.75662">
        <ele>338.2</ele>
        <time>2014-05-04T06:58:19.000Z</time>
      </trkpt>
      <trkpt lat="47.49566" lon="6.75664">
        <ele>334.4</ele>
        <time>2014-05-04T06:58:20.000Z</time>
      </trkpt>
      <trkpt lat="47.4956" lon="6.75669">
        <ele>333.5</ele>
        <time>2014-05-04T06:58:21.000Z</time>
      </trkpt>
      <trkpt lat="47.49555" lon="6.75676">
        <ele>332.6</ele>
        <time>2014-05-04T06:58:22.000Z</time>
      </trkpt>
      <trkpt lat="47.49551" lon="6.75682">
        <ele>332.2</ele>
        <time>2014-05-04T06:58:23.000Z</time>
      </trkpt>
      <trkpt lat="47.49546" lon="6.75689">
        <ele>331.5</ele>
        <time>2014-05-04T06:58:24.000Z</time>
      </trkpt>
      <trkpt lat="47.49541" lon="6.75695">
        <ele>331.1</ele>
        <time>2014-05-04T06:58:25.000Z</time>
      </trkpt>
      <trkpt lat="47.49536" lon="6.75701">
        <ele>330.7</ele>
        <time>2014-05-04T06:58:26.000Z</time>
      </trkpt>
      <trkpt lat="47.49532" lon="6.75706">
        <ele>330</ele>
        <time>2014-05-04T06:58:27.000Z</time>
      </trkpt>
      <trkpt lat="47.49526" lon="6.75711">
        <ele>329.8</ele>
        <time>2014-05-04T06:58:28.000Z</time>
      </trkpt>
      <trkpt lat="47.49521" lon="6.75716">
        <ele>329.2</ele>
        <time>2014-05-04T06:58:29.000Z</time>
      </trkpt>
      <trkpt lat="47.49515" lon="6.75721">
        <ele>329.2</ele>
        <time>2014-05-04T06:58:30.000Z</time>
      </trkpt>
      <trkpt lat="47.49509" lon="6.75725">
        <ele>329.1</ele>
        <time>2014-05-04T06:58:31.000Z</time>
      </trkpt>
      <trkpt lat="47.49504" lon="6.75729">
        <ele>329.3</ele>
        <time>2014-05-04T06:58:32.000Z</time>
      </trkpt>
      <trkpt lat="47.49498" lon="6.75732">
        <ele>328.7</ele>
        <time>2014-05-04T06:58:33.000Z</time>
      </trkpt>
      <trkpt lat="47.49493" lon="6.75734">
        <ele>328.7</ele>
        <time>2014-05-04T06:58:34.000Z</time>
      </trkpt>
      <trkpt lat="47.49487" lon="6.75736">
        <ele>329.1</ele>
        <time>2014-05-04T06:58:35.000Z</time>
      </trkpt>
      <trkpt lat="47.49482" lon="6.75737">
        <ele>328</ele>
        <time>2014-05-04T06:58:36.000Z</time>
      </trkpt>
      <trkpt lat="47.49478" lon="6.75733">
        <ele>326.8</ele>
        <time>2014-05-04T06:58:37.000Z</time>
      </trkpt>
      <trkpt lat="47.49475" lon="6.75727">
        <ele>326.5</ele>
        <time>2014-05-04T06:58:38.000Z</time>
      </trkpt>
      <trkpt lat="47.49472" lon="6.75721">
        <ele>325.7</ele>
        <time>2014-05-04T06:58:39.000Z</time>
      </trkpt>
      <trkpt lat="47.49469" lon="6.75714">
        <ele>325.4</ele>
        <time>2014-05-04T06:58:40.000Z</time>
      </trkpt>
      <trkpt lat="47.49467" lon="6.75708">
        <ele>326.2</ele>
        <time>2014-05-04T06:58:41.000Z</time>
      </trkpt>
      <trkpt lat="47.49464" lon="6.75702">
        <ele>325.9</ele>
        <time>2014-05-04T06:58:42.000Z</time>
      </trkpt>
      <trkpt lat="47.49462" lon="6.75696">
        <ele>325.3</ele>
        <time>2014-05-04T06:58:43.000Z</time>
      </trkpt>
      <trkpt lat="47.49456" lon="6.75694">
        <ele>324.2</ele>
        <time>2014-05-04T06:58:46.000Z</time>
      </trkpt>
      <trkpt lat="47.49451" lon="6.75698">
        <ele>323.8</ele>
        <time>2014-05-04T06:58:47.000Z</time>
      </trkpt>
      <trkpt lat="47.49447" lon="6.757">
        <ele>323.8</ele>
        <time>2014-05-04T06:58:48.000Z</time>
      </trkpt>
      <trkpt lat="47.49444" lon="6.757">
        <ele>324</ele>
        <time>2014-05-04T06:58:49.000Z</time>
      </trkpt>
      <trkpt lat="47.49441" lon="6.75693">
        <ele>324.4</ele>
        <time>2014-05-04T06:58:50.000Z</time>
      </trkpt>
      <trkpt lat="47.49438" lon="6.75686">
        <ele>324.3</ele>
        <time>2014-05-04T06:58:51.000Z</time>
      </trkpt>
      <trkpt lat="47.49436" lon="6.75679">
        <ele>324.2</ele>
        <time>2014-05-04T06:58:52.000Z</time>
      </trkpt>
      <trkpt lat="47.49434" lon="6.75675">
        <ele>324</ele>
        <time>2014-05-04T06:58:53.000Z</time>
      </trkpt>
      <trkpt lat="47.49431" lon="6.75671">
        <ele>325.5</ele>
        <time>2014-05-04T06:58:54.000Z</time>
      </trkpt>
      <trkpt lat="47.49427" lon="6.75671">
        <ele>325.7</ele>
        <time>2014-05-04T06:58:55.000Z</time>
      </trkpt>
      <trkpt lat="47.49422" lon="6.75673">
        <ele>325.5</ele>
        <time>2014-05-04T06:58:56.000Z</time>
      </trkpt>
      <trkpt lat="47.49418" lon="6.75675">
        <ele>325.5</ele>
        <time>2014-05-04T06:58:57.000Z</time>
      </trkpt>
      <trkpt lat="47.49415" lon="6.75677">
        <ele>325.2</ele>
        <time>2014-05-04T06:58:58.000Z</time>
      </trkpt>
      <trkpt lat="47.49411" lon="6.7568">
        <ele>324.9</ele>
        <time>2014-05-04T06:58:59.000Z</time>
      </trkpt>
      <trkpt lat="47.49404" lon="6.75685">
        <ele>322.9</ele>
        <time>2014-05-04T06:59:00.000Z</time>
      </trkpt>
      <trkpt lat="47.49399" lon="6.75688">
        <ele>322.7</ele>
        <time>2014-05-04T06:59:01.000Z</time>
      </trkpt>
      <trkpt lat="47.49393" lon="6.75692">
        <ele>323</ele>
        <time>2014-05-04T06:59:02.000Z</time>
      </trkpt>
      <trkpt lat="47.49388" lon="6.75696">
        <ele>322.2</ele>
        <time>2014-05-04T06:59:03.000Z</time>
      </trkpt>
      <trkpt lat="47.49385" lon="6.757">
        <ele>322.7</ele>
        <time>2014-05-04T06:59:04.000Z</time>
      </trkpt>
      <trkpt lat="47.49381" lon="6.75702">
        <ele>323.5</ele>
        <time>2014-05-04T06:59:05.000Z</time>
      </trkpt>
      <trkpt lat="47.49377" lon="6.75705">
        <ele>323.7</ele>
        <time>2014-05-04T06:59:06.000Z</time>
      </trkpt>
      <trkpt lat="47.49374" lon="6.75708">
        <ele>324.8</ele>
        <time>2014-05-04T06:59:07.000Z</time>
      </trkpt>
      <trkpt lat="47.4937" lon="6.7571">
        <ele>325.1</ele>
        <time>2014-05-04T06:59:08.000Z</time>
      </trkpt>
      <trkpt lat="47.49366" lon="6.75712">
        <ele>325.5</ele>
        <time>2014-05-04T06:59:10.000Z</time>
      </trkpt>
      <trkpt lat="47.49364" lon="6.75714">
        <ele>325.3</ele>
        <time>2014-05-04T06:59:11.000Z</time>
      </trkpt>
      <trkpt lat="47.49361" lon="6.75717">
        <ele>325.6</ele>
        <time>2014-05-04T06:59:12.000Z</time>
      </trkpt>
      <trkpt lat="47.49357" lon="6.75719">
        <ele>325.5</ele>
        <time>2014-05-04T06:59:13.000Z</time>
      </trkpt>
      <trkpt lat="47.49354" lon="6.75721">
        <ele>325</ele>
        <time>2014-05-04T06:59:14.000Z</time>
      </trkpt>
      <trkpt lat="47.4935" lon="6.75724">
        <ele>324.2</ele>
        <time>2014-05-04T06:59:15.000Z</time>
      </trkpt>
      <trkpt lat="47.49346" lon="6.75725">
        <ele>323.6</ele>
        <time>2014-05-04T06:59:16.000Z</time>
      </trkpt>
      <trkpt lat="47.49342" lon="6.75728">
        <ele>325.2</ele>
        <time>2014-05-04T06:59:17.000Z</time>
      </trkpt>
      <trkpt lat="47.49339" lon="6.75731">
        <ele>325.8</ele>
        <time>2014-05-04T06:59:18.000Z</time>
      </trkpt>
      <trkpt lat="47.49335" lon="6.75734">
        <ele>326.1</ele>
        <time>2014-05-04T06:59:19.000Z</time>
      </trkpt>
      <trkpt lat="47.49332" lon="6.75737">
        <ele>326</ele>
        <time>2014-05-04T06:59:20.000Z</time>
      </trkpt>
      <trkpt lat="47.49328" lon="6.7574">
        <ele>326</ele>
        <time>2014-05-04T06:59:21.000Z</time>
      </trkpt>
      <trkpt lat="47.49324" lon="6.75743">
        <ele>326.4</ele>
        <time>2014-05-04T06:59:22.000Z</time>
      </trkpt>
      <trkpt lat="47.49321" lon="6.75746">
        <ele>326</ele>
        <time>2014-05-04T06:59:23.000Z</time>
      </trkpt>
      <trkpt lat="47.49317" lon="6.7575">
        <ele>326.1</ele>
        <time>2014-05-04T06:59:24.000Z</time>
      </trkpt>
      <trkpt lat="47.4931" lon="6.7576">
        <ele>325.9</ele>
        <time>2014-05-04T06:59:25.000Z</time>
      </trkpt>
      <trkpt lat="47.49306" lon="6.75766">
        <ele>325.5</ele>
        <time>2014-05-04T06:59:26.000Z</time>
      </trkpt>
      <trkpt lat="47.49303" lon="6.75771">
        <ele>324.9</ele>
        <time>2014-05-04T06:59:27.000Z</time>
      </trkpt>
      <trkpt lat="47.493" lon="6.75776">
        <ele>324.9</ele>
        <time>2014-05-04T06:59:28.000Z</time>
      </trkpt>
      <trkpt lat="47.49295" lon="6.75779">
        <ele>324.7</ele>
        <time>2014-05-04T06:59:29.000Z</time>
      </trkpt>
      <trkpt lat="47.4929" lon="6.75784">
        <ele>324.1</ele>
        <time>2014-05-04T06:59:30.000Z</time>
      </trkpt>
      <trkpt lat="47.49285" lon="6.75789">
        <ele>323.5</ele>
        <time>2014-05-04T06:59:31.000Z</time>
      </trkpt>
      <trkpt lat="47.49282" lon="6.75797">
        <ele>323.8</ele>
        <time>2014-05-04T06:59:32.000Z</time>
      </trkpt>
      <trkpt lat="47.49278" lon="6.75803">
        <ele>323.3</ele>
        <time>2014-05-04T06:59:33.000Z</time>
      </trkpt>
      <trkpt lat="47.49271" lon="6.75811">
        <ele>321.1</ele>
        <time>2014-05-04T06:59:34.000Z</time>
      </trkpt>
      <trkpt lat="47.49266" lon="6.75819">
        <ele>320.6</ele>
        <time>2014-05-04T06:59:35.000Z</time>
      </trkpt>
      <trkpt lat="47.49261" lon="6.75827">
        <ele>320.4</ele>
        <time>2014-05-04T06:59:36.000Z</time>
      </trkpt>
      <trkpt lat="47.49256" lon="6.75833">
        <ele>320</ele>
        <time>2014-05-04T06:59:37.000Z</time>
      </trkpt>
      <trkpt lat="47.49253" lon="6.75838">
        <ele>320.2</ele>
        <time>2014-05-04T06:59:38.000Z</time>
      </trkpt>
      <trkpt lat="47.49249" lon="6.75843">
        <ele>320.6</ele>
        <time>2014-05-04T06:59:39.000Z</time>
      </trkpt>
      <trkpt lat="47.49245" lon="6.75852">
        <ele>318.8</ele>
        <time>2014-05-04T06:59:40.000Z</time>
      </trkpt>
      <trkpt lat="47.49241" lon="6.75859">
        <ele>318.6</ele>
        <time>2014-05-04T06:59:41.000Z</time>
      </trkpt>
      <trkpt lat="47.49237" lon="6.75864">
        <ele>318.9</ele>
        <time>2014-05-04T06:59:42.000Z</time>
      </trkpt>
      <trkpt lat="47.49234" lon="6.75869">
        <ele>319.3</ele>
        <time>2014-05-04T06:59:43.000Z</time>
      </trkpt>
      <trkpt lat="47.49216" lon="6.75911">
        <ele>318.8</ele>
        <time>2014-05-04T06:59:50.859Z</time>
      </trkpt>
      <trkpt lat="47.49212" lon="6.75918">
        <ele>318.9</ele>
        <time>2014-05-04T06:59:52.000Z</time>
      </trkpt>
      <trkpt lat="47.49208" lon="6.75922">
        <ele>319.2</ele>
        <time>2014-05-04T06:59:53.000Z</time>
      </trkpt>
      <trkpt lat="47.49206" lon="6.75926">
        <ele>318.8</ele>
        <time>2014-05-04T06:59:54.000Z</time>
      </trkpt>
      <trkpt lat="47.492" lon="6.75929">
        <ele>318</ele>
        <time>2014-05-04T06:59:55.000Z</time>
      </trkpt>
      <trkpt lat="47.49197" lon="6.75937">
        <ele>318</ele>
        <time>2014-05-04T06:59:56.000Z</time>
      </trkpt>
      <trkpt lat="47.49193" lon="6.75944">
        <ele>317.6</ele>
        <time>2014-05-04T06:59:57.000Z</time>
      </trkpt>
      <trkpt lat="47.49191" lon="6.75957">
        <ele>319.9</ele>
        <time>2014-05-04T06:59:58.000Z</time>
      </trkpt>
      <trkpt lat="47.49188" lon="6.75966">
        <ele>319.8</ele>
        <time>2014-05-04T06:59:59.000Z</time>
      </trkpt>
      <trkpt lat="47.49185" lon="6.75971">
        <ele>320.2</ele>
        <time>2014-05-04T07:00:00.000Z</time>
      </trkpt>
      <trkpt lat="47.49183" lon="6.75977">
        <ele>319.9</ele>
        <time>2014-05-04T07:00:01.000Z</time>
      </trkpt>
      <trkpt lat="47.49179" lon="6.75984">
        <ele>319.5</ele>
        <time>2014-05-04T07:00:02.000Z</time>
      </trkpt>
      <trkpt lat="47.49172" lon="6.75996">
        <ele>316.6</ele>
        <time>2014-05-04T07:00:03.000Z</time>
      </trkpt>
      <trkpt lat="47.49168" lon="6.76006">
        <ele>317.6</ele>
        <time>2014-05-04T07:00:04.000Z</time>
      </trkpt>
      <trkpt lat="47.49165" lon="6.76015">
        <ele>318.3</ele>
        <time>2014-05-04T07:00:05.000Z</time>
      </trkpt>
      <trkpt lat="47.49162" lon="6.76023">
        <ele>318.7</ele>
        <time>2014-05-04T07:00:06.000Z</time>
      </trkpt>
      <trkpt lat="47.49158" lon="6.76031">
        <ele>319.2</ele>
        <time>2014-05-04T07:00:07.000Z</time>
      </trkpt>
      <trkpt lat="47.49154" lon="6.7604">
        <ele>317.9</ele>
        <time>2014-05-04T07:00:08.000Z</time>
      </trkpt>
      <trkpt lat="47.4915" lon="6.76049">
        <ele>318.2</ele>
        <time>2014-05-04T07:00:09.000Z</time>
      </trkpt>
      <trkpt lat="47.49146" lon="6.76058">
        <ele>317.5</ele>
        <time>2014-05-04T07:00:10.000Z</time>
      </trkpt>
      <trkpt lat="47.49144" lon="6.76066">
        <ele>318.1</ele>
        <time>2014-05-04T07:00:11.000Z</time>
      </trkpt>
      <trkpt lat="47.49142" lon="6.76073">
        <ele>318.6</ele>
        <time>2014-05-04T07:00:12.000Z</time>
      </trkpt>
      <trkpt lat="47.4914" lon="6.7608">
        <ele>318.3</ele>
        <time>2014-05-04T07:00:13.000Z</time>
      </trkpt>
      <trkpt lat="47.49138" lon="6.76088">
        <ele>318.4</ele>
        <time>2014-05-04T07:00:14.000Z</time>
      </trkpt>
      <trkpt lat="47.49136" lon="6.76097">
        <ele>319</ele>
        <time>2014-05-04T07:00:15.000Z</time>
      </trkpt>
      <trkpt lat="47.49134" lon="6.76106">
        <ele>318.9</ele>
        <time>2014-05-04T07:00:16.000Z</time>
      </trkpt>
      <trkpt lat="47.49133" lon="6.76114">
        <ele>319.1</ele>
        <time>2014-05-04T07:00:17.000Z</time>
      </trkpt>
      <trkpt lat="47.49132" lon="6.76122">
        <ele>319.1</ele>
        <time>2014-05-04T07:00:18.000Z</time>
      </trkpt>
      <trkpt lat="47.49129" lon="6.76131">
        <ele>318.2</ele>
        <time>2014-05-04T07:00:19.000Z</time>
      </trkpt>
      <trkpt lat="47.49126" lon="6.76139">
        <ele>319.4</ele>
        <time>2014-05-04T07:00:20.000Z</time>
      </trkpt>
      <trkpt lat="47.49124" lon="6.76147">
        <ele>319.5</ele>
        <time>2014-05-04T07:00:21.000Z</time>
      </trkpt>
      <trkpt lat="47.49122" lon="6.76153">
        <ele>319.6</ele>
        <time>2014-05-04T07:00:22.000Z</time>
      </trkpt>
      <trkpt lat="47.49119" lon="6.76161">
        <ele>319.1</ele>
        <time>2014-05-04T07:00:23.000Z</time>
      </trkpt>
      <trkpt lat="47.49118" lon="6.76166">
        <ele>319.5</ele>
        <time>2014-05-04T07:00:24.000Z</time>
      </trkpt>
      <trkpt lat="47.49116" lon="6.76172">
        <ele>319.6</ele>
        <time>2014-05-04T07:00:25.000Z</time>
      </trkpt>
      <trkpt lat="47.49115" lon="6.7618">
        <ele>320.3</ele>
        <time>2014-05-04T07:00:26.000Z</time>
      </trkpt>
      <trkpt lat="47.49114" lon="6.76186">
        <ele>321</ele>
        <time>2014-05-04T07:00:27.000Z</time>
      </trkpt>
      <trkpt lat="47.49112" lon="6.76192">
        <ele>320.9</ele>
        <time>2014-05-04T07:00:28.000Z</time>
      </trkpt>
      <trkpt lat="47.4911" lon="6.76197">
        <ele>321.4</ele>
        <time>2014-05-04T07:00:29.000Z</time>
      </trkpt>
      <trkpt lat="47.49109" lon="6.76203">
        <ele>322</ele>
        <time>2014-05-04T07:00:30.000Z</time>
      </trkpt>
      <trkpt lat="47.49108" lon="6.76209">
        <ele>323.6</ele>
        <time>2014-05-04T07:00:31.000Z</time>
      </trkpt>
      <trkpt lat="47.49107" lon="6.76214">
        <ele>324</ele>
        <time>2014-05-04T07:00:32.000Z</time>
      </trkpt>
      <trkpt lat="47.49107" lon="6.76218">
        <ele>324.3</ele>
        <time>2014-05-04T07:00:33.000Z</time>
      </trkpt>
      <trkpt lat="47.49106" lon="6.76222">
        <ele>324.5</ele>
        <time>2014-05-04T07:00:34.000Z</time>
      </trkpt>
      <trkpt lat="47.49105" lon="6.76226">
        <ele>324.6</ele>
        <time>2014-05-04T07:00:35.000Z</time>
      </trkpt>
      <trkpt lat="47.49105" lon="6.7623">
        <ele>324.9</ele>
        <time>2014-05-04T07:00:36.000Z</time>
      </trkpt>
      <trkpt lat="47.49105" lon="6.76235">
        <ele>324.6</ele>
        <time>2014-05-04T07:00:37.000Z</time>
      </trkpt>
      <trkpt lat="47.49105" lon="6.76241">
        <ele>327.8</ele>
        <time>2014-05-04T07:00:38.000Z</time>
      </trkpt>
      <trkpt lat="47.49105" lon="6.76247">
        <ele>329.1</ele>
        <time>2014-05-04T07:00:39.000Z</time>
      </trkpt>
      <trkpt lat="47.49106" lon="6.76254">
        <ele>330.4</ele>
        <time>2014-05-04T07:00:40.000Z</time>
      </trkpt>
      <trkpt lat="47.49105" lon="6.76261">
        <ele>331.3</ele>
        <time>2014-05-04T07:00:41.000Z</time>
      </trkpt>
      <trkpt lat="47.49105" lon="6.76268">
        <ele>332.3</ele>
        <time>2014-05-04T07:00:42.000Z</time>
      </trkpt>
      <trkpt lat="47.49105" lon="6.76275">
        <ele>332.9</ele>
        <time>2014-05-04T07:00:43.000Z</time>
      </trkpt>
      <trkpt lat="47.491" lon="6.76342">
        <ele>336.8</ele>
        <time>2014-05-04T07:00:52.000Z</time>
      </trkpt>
      <trkpt lat="47.49104" lon="6.7637">
        <ele>340.1</ele>
        <time>2014-05-04T07:00:53.000Z</time>
      </trkpt>
      <trkpt lat="47.49104" lon="6.76384">
        <ele>340.1</ele>
        <time>2014-05-04T07:00:54.000Z</time>
      </trkpt>
      <trkpt lat="47.49106" lon="6.76393">
        <ele>340.7</ele>
        <time>2014-05-04T07:00:55.000Z</time>
      </trkpt>
      <trkpt lat="47.49107" lon="6.76405">
        <ele>340</ele>
        <time>2014-05-04T07:00:56.000Z</time>
      </trkpt>
      <trkpt lat="47.49107" lon="6.76418">
        <ele>338.5</ele>
        <time>2014-05-04T07:00:57.000Z</time>
      </trkpt>
      <trkpt lat="47.49107" lon="6.76426">
        <ele>337.1</ele>
        <time>2014-05-04T07:00:58.000Z</time>
      </trkpt>
      <trkpt lat="47.49107" lon="6.76435">
        <ele>337</ele>
        <time>2014-05-04T07:00:59.000Z</time>
      </trkpt>
      <trkpt lat="47.49106" lon="6.76445">
        <ele>336</ele>
        <time>2014-05-04T07:01:00.000Z</time>
      </trkpt>
      <trkpt lat="47.49104" lon="6.76455">
        <ele>337.2</ele>
        <time>2014-05-04T07:01:01.000Z</time>
      </trkpt>
      <trkpt lat="47.49104" lon="6.76466">
        <ele>336.1</ele>
        <time>2014-05-04T07:01:02.000Z</time>
      </trkpt>
      <trkpt lat="47.49105" lon="6.76477">
        <ele>335.5</ele>
        <time>2014-05-04T07:01:03.000Z</time>
      </trkpt>
      <trkpt lat="47.49114" lon="6.76493">
        <ele>322.9</ele>
        <time>2014-05-04T07:01:04.000Z</time>
      </trkpt>
      <trkpt lat="47.49125" lon="6.76502">
        <ele>317.5</ele>
        <time>2014-05-04T07:01:05.000Z</time>
      </trkpt>
      <trkpt lat="47.49134" lon="6.76507">
        <ele>318.2</ele>
        <time>2014-05-04T07:01:06.000Z</time>
      </trkpt>
      <trkpt lat="47.49141" lon="6.76507">
        <ele>318.8</ele>
        <time>2014-05-04T07:01:07.000Z</time>
      </trkpt>
      <trkpt lat="47.49148" lon="6.76504">
        <ele>318.3</ele>
        <time>2014-05-04T07:01:08.000Z</time>
      </trkpt>
      <trkpt lat="47.49153" lon="6.76501">
        <ele>319</ele>
        <time>2014-05-04T07:01:09.000Z</time>
      </trkpt>
      <trkpt lat="47.49158" lon="6.765">
        <ele>319.1</ele>
        <time>2014-05-04T07:01:10.000Z</time>
      </trkpt>
      <trkpt lat="47.49161" lon="6.76499">
        <ele>319.5</ele>
        <time>2014-05-04T07:01:11.000Z</time>
      </trkpt>
      <trkpt lat="47.49165" lon="6.76497">
        <ele>319.7</ele>
        <time>2014-05-04T07:01:12.000Z</time>
      </trkpt>
      <trkpt lat="47.49168" lon="6.76494">
        <ele>318.8</ele>
        <time>2014-05-04T07:01:13.000Z</time>
      </trkpt>
      <trkpt lat="47.49171" lon="6.76491">
        <ele>318.3</ele>
        <time>2014-05-04T07:01:14.000Z</time>
      </trkpt>
      <trkpt lat="47.49173" lon="6.76487">
        <ele>318.9</ele>
        <time>2014-05-04T07:01:15.000Z</time>
      </trkpt>
      <trkpt lat="47.49173" lon="6.76483">
        <ele>318.8</ele>
        <time>2014-05-04T07:01:16.000Z</time>
      </trkpt>
      <trkpt lat="47.49171" lon="6.76478">
        <ele>319</ele>
        <time>2014-05-04T07:01:18.000Z</time>
      </trkpt>
      <trkpt lat="47.49171" lon="6.76476">
        <ele>318.6</ele>
        <time>2014-05-04T07:01:19.000Z</time>
      </trkpt>
      <trkpt lat="47.4917" lon="6.76482">
        <ele>319.8</ele>
        <time>2014-05-04T07:06:48.000Z</time>
      </trkpt>
      <trkpt lat="47.4917" lon="6.76482">
        <ele>319.9</ele>
        <time>2014-05-04T07:06:49.000Z</time>
      </trkpt>
      <trkpt lat="47.49172" lon="6.76482">
        <ele>319.2</ele>
        <time>2014-05-04T07:07:18.000Z</time>
      </trkpt>
      <trkpt lat="47.49174" lon="6.76484">
        <ele>319.5</ele>
        <time>2014-05-04T07:07:19.000Z</time>
      </trkpt>
      <trkpt lat="47.49175" lon="6.76489">
        <ele>320.6</ele>
        <time>2014-05-04T07:07:21.000Z</time>
      </trkpt>
      <trkpt lat="47.49174" lon="6.76492">
        <ele>320.5</ele>
        <time>2014-05-04T07:07:22.000Z</time>
      </trkpt>
      <trkpt lat="47.49172" lon="6.76495">
        <ele>320.5</ele>
        <time>2014-05-04T07:07:23.000Z</time>
      </trkpt>
      <trkpt lat="47.49171" lon="6.76498">
        <ele>320.5</ele>
        <time>2014-05-04T07:07:24.000Z</time>
      </trkpt>
      <trkpt lat="47.49168" lon="6.76501">
        <ele>320</ele>
        <time>2014-05-04T07:07:25.000Z</time>
      </trkpt>
      <trkpt lat="47.49157" lon="6.76508">
        <ele>318.7</ele>
        <time>2014-05-04T07:07:26.000Z</time>
      </trkpt>
      <trkpt lat="47.49153" lon="6.76511">
        <ele>318.5</ele>
        <time>2014-05-04T07:07:27.000Z</time>
      </trkpt>
      <trkpt lat="47.49148" lon="6.76514">
        <ele>318.2</ele>
        <time>2014-05-04T07:07:28.000Z</time>
      </trkpt>
      <trkpt lat="47.49143" lon="6.76517">
        <ele>318.5</ele>
        <time>2014-05-04T07:07:29.000Z</time>
      </trkpt>
      <trkpt lat="47.49137" lon="6.76519">
        <ele>319.2</ele>
        <time>2014-05-04T07:07:30.000Z</time>
      </trkpt>
      <trkpt lat="47.49132" lon="6.76519">
        <ele>319.2</ele>
        <time>2014-05-04T07:07:31.000Z</time>
      </trkpt>
      <trkpt lat="47.49127" lon="6.7652">
        <ele>317.9</ele>
        <time>2014-05-04T07:07:32.000Z</time>
      </trkpt>
      <trkpt lat="47.49121" lon="6.76523">
        <ele>317.8</ele>
        <time>2014-05-04T07:07:33.000Z</time>
      </trkpt>
      <trkpt lat="47.49117" lon="6.76526">
        <ele>318</ele>
        <time>2014-05-04T07:07:34.000Z</time>
      </trkpt>
      <trkpt lat="47.49118" lon="6.76535">
        <ele>318.5</ele>
        <time>2014-05-04T07:07:35.000Z</time>
      </trkpt>
      <trkpt lat="47.49116" lon="6.7654">
        <ele>318.8</ele>
        <time>2014-05-04T07:07:36.000Z</time>
      </trkpt>
      <trkpt lat="47.49114" lon="6.76543">
        <ele>318.7</ele>
        <time>2014-05-04T07:07:37.000Z</time>
      </trkpt>
      <trkpt lat="47.49112" lon="6.76546">
        <ele>319.4</ele>
        <time>2014-05-04T07:07:38.000Z</time>
      </trkpt>
      <trkpt lat="47.49111" lon="6.76548">
        <ele>319.9</ele>
        <time>2014-05-04T07:07:39.000Z</time>
      </trkpt>
      <trkpt lat="47.49114" lon="6.76561">
        <ele>318.2</ele>
        <time>2014-05-04T07:07:40.000Z</time>
      </trkpt>
      <trkpt lat="47.49115" lon="6.76569">
        <ele>318</ele>
        <time>2014-05-04T07:07:41.000Z</time>
      </trkpt>
      <trkpt lat="47.49117" lon="6.76576">
        <ele>317.7</ele>
        <time>2014-05-04T07:07:42.000Z</time>
      </trkpt>
      <trkpt lat="47.49118" lon="6.76583">
        <ele>317.4</ele>
        <time>2014-05-04T07:07:43.000Z</time>
      </trkpt>
      <trkpt lat="47.4912" lon="6.76599">
        <ele>315.9</ele>
        <time>2014-05-04T07:07:46.000Z</time>
      </trkpt>
      <trkpt lat="47.49121" lon="6.76606">
        <ele>315.9</ele>
        <time>2014-05-04T07:07:47.000Z</time>
      </trkpt>
      <trkpt lat="47.4912" lon="6.76611">
        <ele>316.4</ele>
        <time>2014-05-04T07:07:48.000Z</time>
      </trkpt>
      <trkpt lat="47.49122" lon="6.7662">
        <ele>316.8</ele>
        <time>2014-05-04T07:07:49.000Z</time>
      </trkpt>
      <trkpt lat="47.49123" lon="6.76627">
        <ele>316.8</ele>
        <time>2014-05-04T07:07:49.999Z</time>
      </trkpt>
      <trkpt lat="47.49124" lon="6.76633">
        <ele>319.3</ele>
        <time>2014-05-04T07:07:51.000Z</time>
      </trkpt>
      <trkpt lat="47.49125" lon="6.76638">
        <ele>318.6</ele>
        <time>2014-05-04T07:07:52.000Z</time>
      </trkpt>
      <trkpt lat="47.49126" lon="6.76643">
        <ele>319</ele>
        <time>2014-05-04T07:07:53.000Z</time>
      </trkpt>
      <trkpt lat="47.49125" lon="6.76647">
        <ele>318.6</ele>
        <time>2014-05-04T07:07:54.000Z</time>
      </trkpt>
      <trkpt lat="47.49125" lon="6.7665">
        <ele>318.9</ele>
        <time>2014-05-04T07:07:55.000Z</time>
      </trkpt>
      <trkpt lat="47.49127" lon="6.7666">
        <ele>316.4</ele>
        <time>2014-05-04T07:07:56.000Z</time>
      </trkpt>
      <trkpt lat="47.49127" lon="6.76667">
        <ele>315.6</ele>
        <time>2014-05-04T07:07:57.000Z</time>
      </trkpt>
      <trkpt lat="47.4913" lon="6.76673">
        <ele>316.4</ele>
        <time>2014-05-04T07:07:58.000Z</time>
      </trkpt>
      <trkpt lat="47.49131" lon="6.7668">
        <ele>315.9</ele>
        <time>2014-05-04T07:07:59.000Z</time>
      </trkpt>
      <trkpt lat="47.49132" lon="6.76686">
        <ele>316.1</ele>
        <time>2014-05-04T07:08:00.000Z</time>
      </trkpt>
      <trkpt lat="47.49133" lon="6.76693">
        <ele>315.9</ele>
        <time>2014-05-04T07:08:01.000Z</time>
      </trkpt>
      <trkpt lat="47.49132" lon="6.76699">
        <ele>315.4</ele>
        <time>2014-05-04T07:08:02.000Z</time>
      </trkpt>
      <trkpt lat="47.49132" lon="6.76707">
        <ele>315.9</ele>
        <time>2014-05-04T07:08:03.000Z</time>
      </trkpt>
      <trkpt lat="47.49134" lon="6.76714">
        <ele>317.5</ele>
        <time>2014-05-04T07:08:04.000Z</time>
      </trkpt>
      <trkpt lat="47.4913" lon="6.76711">
        <ele>314.4</ele>
        <time>2014-05-04T07:08:05.000Z</time>
      </trkpt>
      <trkpt lat="47.49129" lon="6.76712">
        <ele>313.4</ele>
        <time>2014-05-04T07:08:06.000Z</time>
      </trkpt>
      <trkpt lat="47.49129" lon="6.76719">
        <ele>315.4</ele>
        <time>2014-05-04T07:08:07.000Z</time>
      </trkpt>
      <trkpt lat="47.49129" lon="6.76723">
        <ele>316.8</ele>
        <time>2014-05-04T07:08:07.999Z</time>
      </trkpt>
      <trkpt lat="47.4913" lon="6.76733">
        <ele>317.4</ele>
        <time>2014-05-04T07:08:09.000Z</time>
      </trkpt>
      <trkpt lat="47.4913" lon="6.76737">
        <ele>318.1</ele>
        <time>2014-05-04T07:08:10.000Z</time>
      </trkpt>
      <trkpt lat="47.4913" lon="6.76743">
        <ele>317.3</ele>
        <time>2014-05-04T07:08:11.000Z</time>
      </trkpt>
      <trkpt lat="47.49131" lon="6.76752">
        <ele>317.6</ele>
        <time>2014-05-04T07:08:12.000Z</time>
      </trkpt>
      <trkpt lat="47.49131" lon="6.76759">
        <ele>317.3</ele>
        <time>2014-05-04T07:08:13.000Z</time>
      </trkpt>
      <trkpt lat="47.49132" lon="6.76766">
        <ele>317.2</ele>
        <time>2014-05-04T07:08:14.000Z</time>
      </trkpt>
      <trkpt lat="47.49131" lon="6.76775">
        <ele>320.2</ele>
        <time>2014-05-04T07:08:15.000Z</time>
      </trkpt>
      <trkpt lat="47.49132" lon="6.76785">
        <ele>320.8</ele>
        <time>2014-05-04T07:08:16.000Z</time>
      </trkpt>
      <trkpt lat="47.49132" lon="6.76791">
        <ele>322.2</ele>
        <time>2014-05-04T07:08:17.000Z</time>
      </trkpt>
      <trkpt lat="47.49133" lon="6.76798">
        <ele>320.9</ele>
        <time>2014-05-04T07:08:18.000Z</time>
      </trkpt>
      <trkpt lat="47.49131" lon="6.76804">
        <ele>319.3</ele>
        <time>2014-05-04T07:08:19.000Z</time>
      </trkpt>
      <trkpt lat="47.49132" lon="6.7682">
        <ele>318.4</ele>
        <time>2014-05-04T07:08:20.000Z</time>
      </trkpt>
      <trkpt lat="47.49133" lon="6.7683">
        <ele>321.5</ele>
        <time>2014-05-04T07:08:21.000Z</time>
      </trkpt>
      <trkpt lat="47.49132" lon="6.76839">
        <ele>324.7</ele>
        <time>2014-05-04T07:08:22.000Z</time>
      </trkpt>
      <trkpt lat="47.49131" lon="6.76845">
        <ele>327.2</ele>
        <time>2014-05-04T07:08:23.000Z</time>
      </trkpt>
      <trkpt lat="47.49132" lon="6.76857">
        <ele>325.7</ele>
        <time>2014-05-04T07:08:24.000Z</time>
      </trkpt>
      <trkpt lat="47.49131" lon="6.76861">
        <ele>324.5</ele>
        <time>2014-05-04T07:08:25.000Z</time>
      </trkpt>
      <trkpt lat="47.49131" lon="6.76867">
        <ele>323.8</ele>
        <time>2014-05-04T07:08:26.000Z</time>
      </trkpt>
      <trkpt lat="47.49131" lon="6.76878">
        <ele>325.3</ele>
        <time>2014-05-04T07:08:27.000Z</time>
      </trkpt>
      <trkpt lat="47.4913" lon="6.76884">
        <ele>325.2</ele>
        <time>2014-05-04T07:08:28.000Z</time>
      </trkpt>
      <trkpt lat="47.49129" lon="6.76891">
        <ele>325.3</ele>
        <time>2014-05-04T07:08:28.999Z</time>
      </trkpt>
      <trkpt lat="47.4913" lon="6.76902">
        <ele>324</ele>
        <time>2014-05-04T07:08:30.000Z</time>
      </trkpt>
      <trkpt lat="47.49133" lon="6.76916">
        <ele>322</ele>
        <time>2014-05-04T07:08:31.000Z</time>
      </trkpt>
      <trkpt lat="47.49133" lon="6.76924">
        <ele>321.9</ele>
        <time>2014-05-04T07:08:32.001Z</time>
      </trkpt>
      <trkpt lat="47.49133" lon="6.76929">
        <ele>320.8</ele>
        <time>2014-05-04T07:08:33.000Z</time>
      </trkpt>
      <trkpt lat="47.49132" lon="6.76935">
        <ele>321.8</ele>
        <time>2014-05-04T07:08:34.000Z</time>
      </trkpt>
      <trkpt lat="47.49132" lon="6.76941">
        <ele>322.3</ele>
        <time>2014-05-04T07:08:35.000Z</time>
      </trkpt>
      <trkpt lat="47.49133" lon="6.76951">
        <ele>320.8</ele>
        <time>2014-05-04T07:08:36.000Z</time>
      </trkpt>
      <trkpt lat="47.49136" lon="6.76962">
        <ele>320.6</ele>
        <time>2014-05-04T07:08:37.000Z</time>
      </trkpt>
      <trkpt lat="47.4914" lon="6.76972">
        <ele>320.7</ele>
        <time>2014-05-04T07:08:38.000Z</time>
      </trkpt>
      <trkpt lat="47.49143" lon="6.7698">
        <ele>321.6</ele>
        <time>2014-05-04T07:08:39.000Z</time>
      </trkpt>
      <trkpt lat="47.49146" lon="6.76989">
        <ele>322.2</ele>
        <time>2014-05-04T07:08:40.000Z</time>
      </trkpt>
      <trkpt lat="47.49148" lon="6.76999">
        <ele>322.9</ele>
        <time>2014-05-04T07:08:41.001Z</time>
      </trkpt>
      <trkpt lat="47.4915" lon="6.77008">
        <ele>322.6</ele>
        <time>2014-05-04T07:08:42.000Z</time>
      </trkpt>
      <trkpt lat="47.49151" lon="6.77015">
        <ele>321.5</ele>
        <time>2014-05-04T07:08:43.000Z</time>
      </trkpt>
      <trkpt lat="47.49153" lon="6.77033">
        <ele>322.7</ele>
        <time>2014-05-04T07:08:46.000Z</time>
      </trkpt>
      <trkpt lat="47.49154" lon="6.77043">
        <ele>322.9</ele>
        <time>2014-05-04T07:08:47.000Z</time>
      </trkpt>
      <trkpt lat="47.49155" lon="6.77052">
        <ele>322.9</ele>
        <time>2014-05-04T07:08:48.000Z</time>
      </trkpt>
      <trkpt lat="47.49156" lon="6.7706">
        <ele>322.8</ele>
        <time>2014-05-04T07:08:49.000Z</time>
      </trkpt>
      <trkpt lat="47.49157" lon="6.77068">
        <ele>321.4</ele>
        <time>2014-05-04T07:08:50.000Z</time>
      </trkpt>
      <trkpt lat="47.49158" lon="6.77075">
        <ele>321</ele>
        <time>2014-05-04T07:08:50.999Z</time>
      </trkpt>
      <trkpt lat="47.49159" lon="6.77083">
        <ele>321.3</ele>
        <time>2014-05-04T07:08:52.000Z</time>
      </trkpt>
      <trkpt lat="47.4916" lon="6.77089">
        <ele>321.2</ele>
        <time>2014-05-04T07:08:53.000Z</time>
      </trkpt>
      <trkpt lat="47.49161" lon="6.77095">
        <ele>321.3</ele>
        <time>2014-05-04T07:08:53.999Z</time>
      </trkpt>
      <trkpt lat="47.49161" lon="6.77099">
        <ele>321.6</ele>
        <time>2014-05-04T07:08:55.000Z</time>
      </trkpt>
      <trkpt lat="47.49161" lon="6.77102">
        <ele>321.6</ele>
        <time>2014-05-04T07:08:56.000Z</time>
      </trkpt>
      <trkpt lat="47.49162" lon="6.77106">
        <ele>325</ele>
        <time>2014-05-04T07:08:59.000Z</time>
      </trkpt>
      <trkpt lat="47.49163" lon="6.77109">
        <ele>325.7</ele>
        <time>2014-05-04T07:09:00.000Z</time>
      </trkpt>
      <trkpt lat="47.49163" lon="6.77113">
        <ele>325.5</ele>
        <time>2014-05-04T07:09:01.000Z</time>
      </trkpt>
      <trkpt lat="47.49164" lon="6.77115">
        <ele>325.8</ele>
        <time>2014-05-04T07:09:01.999Z</time>
      </trkpt>
      <trkpt lat="47.49165" lon="6.77123">
        <ele>326.6</ele>
        <time>2014-05-04T07:09:03.000Z</time>
      </trkpt>
      <trkpt lat="47.49165" lon="6.77129">
        <ele>325.1</ele>
        <time>2014-05-04T07:09:04.000Z</time>
      </trkpt>
      <trkpt lat="47.49166" lon="6.77135">
        <ele>324.8</ele>
        <time>2014-05-04T07:09:05.000Z</time>
      </trkpt>
      <trkpt lat="47.49167" lon="6.77141">
        <ele>324.5</ele>
        <time>2014-05-04T07:09:06.000Z</time>
      </trkpt>
      <trkpt lat="47.49167" lon="6.77153">
        <ele>324</ele>
        <time>2014-05-04T07:09:07.000Z</time>
      </trkpt>
      <trkpt lat="47.49169" lon="6.7716">
        <ele>323.6</ele>
        <time>2014-05-04T07:09:08.000Z</time>
      </trkpt>
      <trkpt lat="47.4917" lon="6.77168">
        <ele>323.2</ele>
        <time>2014-05-04T07:09:09.000Z</time>
      </trkpt>
      <trkpt lat="47.49169" lon="6.77174">
        <ele>323</ele>
        <time>2014-05-04T07:09:10.000Z</time>
      </trkpt>
      <trkpt lat="47.49169" lon="6.7718">
        <ele>322.3</ele>
        <time>2014-05-04T07:09:11.000Z</time>
      </trkpt>
      <trkpt lat="47.49169" lon="6.77185">
        <ele>323.1</ele>
        <time>2014-05-04T07:09:12.000Z</time>
      </trkpt>
      <trkpt lat="47.49169" lon="6.77191">
        <ele>323.4</ele>
        <time>2014-05-04T07:09:13.000Z</time>
      </trkpt>
      <trkpt lat="47.49169" lon="6.77196">
        <ele>322.9</ele>
        <time>2014-05-04T07:09:14.000Z</time>
      </trkpt>
      <trkpt lat="47.49168" lon="6.77202">
        <ele>322.7</ele>
        <time>2014-05-04T07:09:15.000Z</time>
      </trkpt>
      <trkpt lat="47.49167" lon="6.77205">
        <ele>324.4</ele>
        <time>2014-05-04T07:09:16.000Z</time>
      </trkpt>
      <trkpt lat="47.49167" lon="6.77209">
        <ele>322.8</ele>
        <time>2014-05-04T07:09:17.000Z</time>
      </trkpt>
      <trkpt lat="47.49166" lon="6.7721">
        <ele>323.6</ele>
        <time>2014-05-04T07:09:18.000Z</time>
      </trkpt>
      <trkpt lat="47.49168" lon="6.77219">
        <ele>323.9</ele>
        <time>2014-05-04T07:09:19.000Z</time>
      </trkpt>
      <trkpt lat="47.49168" lon="6.77222">
        <ele>324.3</ele>
        <time>2014-05-04T07:09:19.999Z</time>
      </trkpt>
      <trkpt lat="47.49168" lon="6.77234">
        <ele>324.2</ele>
        <time>2014-05-04T07:09:21.000Z</time>
      </trkpt>
      <trkpt lat="47.49168" lon="6.77242">
        <ele>322.9</ele>
        <time>2014-05-04T07:09:22.000Z</time>
      </trkpt>
      <trkpt lat="47.49168" lon="6.7725">
        <ele>322</ele>
        <time>2014-05-04T07:09:23.000Z</time>
      </trkpt>
      <trkpt lat="47.49168" lon="6.77258">
        <ele>320.2</ele>
        <time>2014-05-04T07:09:24.000Z</time>
      </trkpt>
      <trkpt lat="47.49168" lon="6.77266">
        <ele>319.8</ele>
        <time>2014-05-04T07:09:25.000Z</time>
      </trkpt>
      <trkpt lat="47.49168" lon="6.77274">
        <ele>319.7</ele>
        <time>2014-05-04T07:09:26.000Z</time>
      </trkpt>
      <trkpt lat="47.49168" lon="6.77282">
        <ele>319.1</ele>
        <time>2014-05-04T07:09:27.000Z</time>
      </trkpt>
      <trkpt lat="47.49168" lon="6.7729">
        <ele>318.6</ele>
        <time>2014-05-04T07:09:28.000Z</time>
      </trkpt>
      <trkpt lat="47.49168" lon="6.77299">
        <ele>317.5</ele>
        <time>2014-05-04T07:09:29.000Z</time>
      </trkpt>
      <trkpt lat="47.49167" lon="6.77309">
        <ele>317.3</ele>
        <time>2014-05-04T07:09:30.000Z</time>
      </trkpt>
      <trkpt lat="47.49165" lon="6.77316">
        <ele>317.3</ele>
        <time>2014-05-04T07:09:31.000Z</time>
      </trkpt>
      <trkpt lat="47.49163" lon="6.77323">
        <ele>315.9</ele>
        <time>2014-05-04T07:09:32.000Z</time>
      </trkpt>
      <trkpt lat="47.49158" lon="6.77323">
        <ele>314.1</ele>
        <time>2014-05-04T07:09:33.000Z</time>
      </trkpt>
      <trkpt lat="47.49152" lon="6.77323">
        <ele>312.9</ele>
        <time>2014-05-04T07:09:34.000Z</time>
      </trkpt>
      <trkpt lat="47.49147" lon="6.77325">
        <ele>311.5</ele>
        <time>2014-05-04T07:09:35.000Z</time>
      </trkpt>
      <trkpt lat="47.49142" lon="6.77325">
        <ele>311.2</ele>
        <time>2014-05-04T07:09:36.000Z</time>
      </trkpt>
      <trkpt lat="47.49137" lon="6.77326">
        <ele>310.3</ele>
        <time>2014-05-04T07:09:37.000Z</time>
      </trkpt>
      <trkpt lat="47.49132" lon="6.77327">
        <ele>310.8</ele>
        <time>2014-05-04T07:09:38.000Z</time>
      </trkpt>
      <trkpt lat="47.49127" lon="6.77326">
        <ele>310.4</ele>
        <time>2014-05-04T07:09:39.000Z</time>
      </trkpt>
      <trkpt lat="47.49121" lon="6.77326">
        <ele>310.4</ele>
        <time>2014-05-04T07:09:40.000Z</time>
      </trkpt>
      <trkpt lat="47.49115" lon="6.77326">
        <ele>310.4</ele>
        <time>2014-05-04T07:09:41.000Z</time>
      </trkpt>
      <trkpt lat="47.49109" lon="6.77326">
        <ele>310.2</ele>
        <time>2014-05-04T07:09:42.000Z</time>
      </trkpt>
      <trkpt lat="47.49104" lon="6.77326">
        <ele>310.2</ele>
        <time>2014-05-04T07:09:43.000Z</time>
      </trkpt>
      <trkpt lat="47.49093" lon="6.77325">
        <ele>310.8</ele>
        <time>2014-05-04T07:09:46.000Z</time>
      </trkpt>
      <trkpt lat="47.49086" lon="6.77325">
        <ele>310.4</ele>
        <time>2014-05-04T07:09:47.000Z</time>
      </trkpt>
      <trkpt lat="47.4908" lon="6.77326">
        <ele>311.2</ele>
        <time>2014-05-04T07:09:48.000Z</time>
      </trkpt>
      <trkpt lat="47.49075" lon="6.77325">
        <ele>311.5</ele>
        <time>2014-05-04T07:09:49.000Z</time>
      </trkpt>
      <trkpt lat="47.49071" lon="6.77324">
        <ele>311.5</ele>
        <time>2014-05-04T07:09:50.000Z</time>
      </trkpt>
      <trkpt lat="47.49064" lon="6.77324">
        <ele>312.1</ele>
        <time>2014-05-04T07:09:51.000Z</time>
      </trkpt>
      <trkpt lat="47.49059" lon="6.77325">
        <ele>311.8</ele>
        <time>2014-05-04T07:09:52.000Z</time>
      </trkpt>
      <trkpt lat="47.49053" lon="6.77325">
        <ele>311.7</ele>
        <time>2014-05-04T07:09:53.000Z</time>
      </trkpt>
      <trkpt lat="47.49048" lon="6.77323">
        <ele>311.5</ele>
        <time>2014-05-04T07:09:54.000Z</time>
      </trkpt>
      <trkpt lat="47.49042" lon="6.77323">
        <ele>311.1</ele>
        <time>2014-05-04T07:09:55.000Z</time>
      </trkpt>
      <trkpt lat="47.49036" lon="6.77323">
        <ele>310.6</ele>
        <time>2014-05-04T07:09:56.000Z</time>
      </trkpt>
      <trkpt lat="47.4903" lon="6.77321">
        <ele>311.4</ele>
        <time>2014-05-04T07:09:57.000Z</time>
      </trkpt>
      <trkpt lat="47.49024" lon="6.7732">
        <ele>311.1</ele>
        <time>2014-05-04T07:09:58.000Z</time>
      </trkpt>
      <trkpt lat="47.49018" lon="6.7732">
        <ele>310.1</ele>
        <time>2014-05-04T07:09:59.000Z</time>
      </trkpt>
      <trkpt lat="47.49013" lon="6.77319">
        <ele>310</ele>
        <time>2014-05-04T07:10:00.000Z</time>
      </trkpt>
      <trkpt lat="47.49008" lon="6.77319">
        <ele>311.8</ele>
        <time>2014-05-04T07:10:01.000Z</time>
      </trkpt>
      <trkpt lat="47.49003" lon="6.77319">
        <ele>311.7</ele>
        <time>2014-05-04T07:10:02.000Z</time>
      </trkpt>
      <trkpt lat="47.48997" lon="6.77318">
        <ele>310.9</ele>
        <time>2014-05-04T07:10:03.000Z</time>
      </trkpt>
      <trkpt lat="47.48991" lon="6.77318">
        <ele>311.6</ele>
        <time>2014-05-04T07:10:04.000Z</time>
      </trkpt>
      <trkpt lat="47.48985" lon="6.77318">
        <ele>311.7</ele>
        <time>2014-05-04T07:10:05.000Z</time>
      </trkpt>
      <trkpt lat="47.48979" lon="6.77319">
        <ele>311.5</ele>
        <time>2014-05-04T07:10:06.000Z</time>
      </trkpt>
      <trkpt lat="47.48973" lon="6.77319">
        <ele>311.9</ele>
        <time>2014-05-04T07:10:07.000Z</time>
      </trkpt>
      <trkpt lat="47.48967" lon="6.77317">
        <ele>311.9</ele>
        <time>2014-05-04T07:10:08.000Z</time>
      </trkpt>
      <trkpt lat="47.48961" lon="6.77316">
        <ele>310.9</ele>
        <time>2014-05-04T07:10:09.000Z</time>
      </trkpt>
      <trkpt lat="47.48955" lon="6.77315">
        <ele>311.2</ele>
        <time>2014-05-04T07:10:10.000Z</time>
      </trkpt>
      <trkpt lat="47.4895" lon="6.77315">
        <ele>311.4</ele>
        <time>2014-05-04T07:10:10.999Z</time>
      </trkpt>
      <trkpt lat="47.48943" lon="6.77314">
        <ele>310.4</ele>
        <time>2014-05-04T07:10:12.000Z</time>
      </trkpt>
      <trkpt lat="47.48937" lon="6.77312">
        <ele>309.4</ele>
        <time>2014-05-04T07:10:13.000Z</time>
      </trkpt>
      <trkpt lat="47.48932" lon="6.77309">
        <ele>309.2</ele>
        <time>2014-05-04T07:10:14.000Z</time>
      </trkpt>
      <trkpt lat="47.48925" lon="6.77307">
        <ele>308.2</ele>
        <time>2014-05-04T07:10:15.000Z</time>
      </trkpt>
      <trkpt lat="47.4892" lon="6.77306">
        <ele>307.6</ele>
        <time>2014-05-04T07:10:16.000Z</time>
      </trkpt>
      <trkpt lat="47.48914" lon="6.77303">
        <ele>307.7</ele>
        <time>2014-05-04T07:10:17.000Z</time>
      </trkpt>
      <trkpt lat="47.48909" lon="6.77301">
        <ele>308.3</ele>
        <time>2014-05-04T07:10:18.000Z</time>
      </trkpt>
      <trkpt lat="47.48903" lon="6.77299">
        <ele>308.4</ele>
        <time>2014-05-04T07:10:19.000Z</time>
      </trkpt>
      <trkpt lat="47.48898" lon="6.77296">
        <ele>309</ele>
        <time>2014-05-04T07:10:20.000Z</time>
      </trkpt>
      <trkpt lat="47.48893" lon="6.77294">
        <ele>310</ele>
        <time>2014-05-04T07:10:21.000Z</time>
      </trkpt>
      <trkpt lat="47.48886" lon="6.77292">
        <ele>310.2</ele>
        <time>2014-05-04T07:10:22.000Z</time>
      </trkpt>
      <trkpt lat="47.4888" lon="6.7729">
        <ele>310.4</ele>
        <time>2014-05-04T07:10:23.000Z</time>
      </trkpt>
      <trkpt lat="47.48874" lon="6.77288">
        <ele>309.7</ele>
        <time>2014-05-04T07:10:24.000Z</time>
      </trkpt>
      <trkpt lat="47.48868" lon="6.77287">
        <ele>309.3</ele>
        <time>2014-05-04T07:10:25.000Z</time>
      </trkpt>
      <trkpt lat="47.48862" lon="6.77285">
        <ele>309.5</ele>
        <time>2014-05-04T07:10:26.000Z</time>
      </trkpt>
      <trkpt lat="47.48857" lon="6.77281">
        <ele>309.8</ele>
        <time>2014-05-04T07:10:27.000Z</time>
      </trkpt>
      <trkpt lat="47.48852" lon="6.77279">
        <ele>310</ele>
        <time>2014-05-04T07:10:28.000Z</time>
      </trkpt>
      <trkpt lat="47.48847" lon="6.77277">
        <ele>310.2</ele>
        <time>2014-05-04T07:10:29.000Z</time>
      </trkpt>
      <trkpt lat="47.48842" lon="6.77272">
        <ele>310</ele>
        <time>2014-05-04T07:10:30.000Z</time>
      </trkpt>
      <trkpt lat="47.48837" lon="6.77269">
        <ele>309.7</ele>
        <time>2014-05-04T07:10:31.000Z</time>
      </trkpt>
      <trkpt lat="47.48831" lon="6.77266">
        <ele>309.3</ele>
        <time>2014-05-04T07:10:32.000Z</time>
      </trkpt>
      <trkpt lat="47.48826" lon="6.77262">
        <ele>309</ele>
        <time>2014-05-04T07:10:33.000Z</time>
      </trkpt>
      <trkpt lat="47.48821" lon="6.77258">
        <ele>308.9</ele>
        <time>2014-05-04T07:10:34.000Z</time>
      </trkpt>
      <trkpt lat="47.48815" lon="6.77254">
        <ele>308.9</ele>
        <time>2014-05-04T07:10:35.000Z</time>
      </trkpt>
      <trkpt lat="47.48808" lon="6.7725">
        <ele>308</ele>
        <time>2014-05-04T07:10:36.000Z</time>
      </trkpt>
      <trkpt lat="47.488" lon="6.77246">
        <ele>307.7</ele>
        <time>2014-05-04T07:10:37.000Z</time>
      </trkpt>
      <trkpt lat="47.48796" lon="6.77242">
        <ele>306.9</ele>
        <time>2014-05-04T07:10:38.000Z</time>
      </trkpt>
      <trkpt lat="47.48791" lon="6.77238">
        <ele>306.4</ele>
        <time>2014-05-04T07:10:39.000Z</time>
      </trkpt>
      <trkpt lat="47.48786" lon="6.77234">
        <ele>306.3</ele>
        <time>2014-05-04T07:10:40.000Z</time>
      </trkpt>
      <trkpt lat="47.48781" lon="6.7723">
        <ele>307.1</ele>
        <time>2014-05-04T07:10:41.000Z</time>
      </trkpt>
      <trkpt lat="47.48776" lon="6.77226">
        <ele>307.2</ele>
        <time>2014-05-04T07:10:42.000Z</time>
      </trkpt>
      <trkpt lat="47.4877" lon="6.77222">
        <ele>307.1</ele>
        <time>2014-05-04T07:10:43.000Z</time>
      </trkpt>
      <trkpt lat="47.48757" lon="6.7721">
        <ele>308</ele>
        <time>2014-05-04T07:10:46.000Z</time>
      </trkpt>
      <trkpt lat="47.48752" lon="6.77206">
        <ele>308.1</ele>
        <time>2014-05-04T07:10:47.000Z</time>
      </trkpt>
      <trkpt lat="47.48747" lon="6.77202">
        <ele>308.6</ele>
        <time>2014-05-04T07:10:48.000Z</time>
      </trkpt>
      <trkpt lat="47.48742" lon="6.77198">
        <ele>308.2</ele>
        <time>2014-05-04T07:10:49.000Z</time>
      </trkpt>
      <trkpt lat="47.48736" lon="6.77194">
        <ele>308.3</ele>
        <time>2014-05-04T07:10:50.000Z</time>
      </trkpt>
      <trkpt lat="47.48731" lon="6.7719">
        <ele>307.4</ele>
        <time>2014-05-04T07:10:51.000Z</time>
      </trkpt>
      <trkpt lat="47.48726" lon="6.77186">
        <ele>307.3</ele>
        <time>2014-05-04T07:10:52.000Z</time>
      </trkpt>
      <trkpt lat="47.4872" lon="6.77182">
        <ele>307.7</ele>
        <time>2014-05-04T07:10:53.000Z</time>
      </trkpt>
      <trkpt lat="47.48715" lon="6.77177">
        <ele>307.8</ele>
        <time>2014-05-04T07:10:54.000Z</time>
      </trkpt>
      <trkpt lat="47.48711" lon="6.77173">
        <ele>308.1</ele>
        <time>2014-05-04T07:10:55.000Z</time>
      </trkpt>
      <trkpt lat="47.48706" lon="6.77169">
        <ele>308.5</ele>
        <time>2014-05-04T07:10:56.000Z</time>
      </trkpt>
      <trkpt lat="47.48701" lon="6.77164">
        <ele>309.1</ele>
        <time>2014-05-04T07:10:57.000Z</time>
      </trkpt>
      <trkpt lat="47.48696" lon="6.77159">
        <ele>309.2</ele>
        <time>2014-05-04T07:10:58.000Z</time>
      </trkpt>
      <trkpt lat="47.4869" lon="6.77155">
        <ele>309.3</ele>
        <time>2014-05-04T07:10:59.000Z</time>
      </trkpt>
      <trkpt lat="47.48685" lon="6.7715">
        <ele>309.2</ele>
        <time>2014-05-04T07:11:00.000Z</time>
      </trkpt>
      <trkpt lat="47.48681" lon="6.77145">
        <ele>308.5</ele>
        <time>2014-05-04T07:11:01.000Z</time>
      </trkpt>
      <trkpt lat="47.48676" lon="6.77141">
        <ele>308</ele>
        <time>2014-05-04T07:11:02.000Z</time>
      </trkpt>
      <trkpt lat="47.48671" lon="6.77135">
        <ele>308.3</ele>
        <time>2014-05-04T07:11:03.000Z</time>
      </trkpt>
      <trkpt lat="47.48666" lon="6.7713">
        <ele>308</ele>
        <time>2014-05-04T07:11:04.000Z</time>
      </trkpt>
      <trkpt lat="47.4866" lon="6.77124">
        <ele>308.1</ele>
        <time>2014-05-04T07:11:05.000Z</time>
      </trkpt>
      <trkpt lat="47.48654" lon="6.77119">
        <ele>306.7</ele>
        <time>2014-05-04T07:11:06.000Z</time>
      </trkpt>
      <trkpt lat="47.48647" lon="6.77114">
        <ele>304.2</ele>
        <time>2014-05-04T07:11:07.000Z</time>
      </trkpt>
      <trkpt lat="47.48645" lon="6.77107">
        <ele>307.2</ele>
        <time>2014-05-04T07:11:08.000Z</time>
      </trkpt>
      <trkpt lat="47.48641" lon="6.77101">
        <ele>307.4</ele>
        <time>2014-05-04T07:11:09.000Z</time>
      </trkpt>
      <trkpt lat="47.48635" lon="6.77096">
        <ele>307.3</ele>
        <time>2014-05-04T07:11:09.999Z</time>
      </trkpt>
      <trkpt lat="47.48631" lon="6.77091">
        <ele>308.1</ele>
        <time>2014-05-04T07:11:11.000Z</time>
      </trkpt>
      <trkpt lat="47.48626" lon="6.77086">
        <ele>308.4</ele>
        <time>2014-05-04T07:11:12.000Z</time>
      </trkpt>
      <trkpt lat="47.48621" lon="6.77081">
        <ele>309.2</ele>
        <time>2014-05-04T07:11:13.000Z</time>
      </trkpt>
      <trkpt lat="47.48616" lon="6.77078">
        <ele>309.1</ele>
        <time>2014-05-04T07:11:14.000Z</time>
      </trkpt>
      <trkpt lat="47.4861" lon="6.77075">
        <ele>308.9</ele>
        <time>2014-05-04T07:11:15.000Z</time>
      </trkpt>
      <trkpt lat="47.48605" lon="6.77071">
        <ele>309</ele>
        <time>2014-05-04T07:11:16.000Z</time>
      </trkpt>
      <trkpt lat="47.48599" lon="6.77066">
        <ele>309.7</ele>
        <time>2014-05-04T07:11:17.000Z</time>
      </trkpt>
      <trkpt lat="47.48593" lon="6.77062">
        <ele>309.6</ele>
        <time>2014-05-04T07:11:18.000Z</time>
      </trkpt>
      <trkpt lat="47.48587" lon="6.77059">
        <ele>309.9</ele>
        <time>2014-05-04T07:11:19.000Z</time>
      </trkpt>
      <trkpt lat="47.48581" lon="6.77056">
        <ele>312</ele>
        <time>2014-05-04T07:11:20.000Z</time>
      </trkpt>
      <trkpt lat="47.48576" lon="6.77052">
        <ele>312.1</ele>
        <time>2014-05-04T07:11:21.000Z</time>
      </trkpt>
      <trkpt lat="47.48569" lon="6.7705">
        <ele>312.6</ele>
        <time>2014-05-04T07:11:22.000Z</time>
      </trkpt>
      <trkpt lat="47.48562" lon="6.77047">
        <ele>312.7</ele>
        <time>2014-05-04T07:11:23.000Z</time>
      </trkpt>
      <trkpt lat="47.48555" lon="6.77045">
        <ele>312.3</ele>
        <time>2014-05-04T07:11:24.000Z</time>
      </trkpt>
      <trkpt lat="47.48548" lon="6.77042">
        <ele>312</ele>
        <time>2014-05-04T07:11:25.000Z</time>
      </trkpt>
      <trkpt lat="47.4854" lon="6.77037">
        <ele>311.1</ele>
        <time>2014-05-04T07:11:26.000Z</time>
      </trkpt>
      <trkpt lat="47.48531" lon="6.77033">
        <ele>310.4</ele>
        <time>2014-05-04T07:11:27.000Z</time>
      </trkpt>
      <trkpt lat="47.48525" lon="6.77026">
        <ele>310.8</ele>
        <time>2014-05-04T07:11:28.000Z</time>
      </trkpt>
      <trkpt lat="47.48513" lon="6.77021">
        <ele>309.4</ele>
        <time>2014-05-04T07:11:29.000Z</time>
      </trkpt>
      <trkpt lat="47.48502" lon="6.77016">
        <ele>306.5</ele>
        <time>2014-05-04T07:11:29.999Z</time>
      </trkpt>
      <trkpt lat="47.48497" lon="6.77011">
        <ele>306.7</ele>
        <time>2014-05-04T07:11:31.000Z</time>
      </trkpt>
      <trkpt lat="47.48489" lon="6.77006">
        <ele>306</ele>
        <time>2014-05-04T07:11:32.000Z</time>
      </trkpt>
      <trkpt lat="47.48481" lon="6.77001">
        <ele>305.6</ele>
        <time>2014-05-04T07:11:33.000Z</time>
      </trkpt>
      <trkpt lat="47.48474" lon="6.76996">
        <ele>306.5</ele>
        <time>2014-05-04T07:11:34.000Z</time>
      </trkpt>
      <trkpt lat="47.48467" lon="6.76991">
        <ele>306.2</ele>
        <time>2014-05-04T07:11:35.000Z</time>
      </trkpt>
      <trkpt lat="47.48459" lon="6.76986">
        <ele>305.8</ele>
        <time>2014-05-04T07:11:36.000Z</time>
      </trkpt>
      <trkpt lat="47.48452" lon="6.76981">
        <ele>306.2</ele>
        <time>2014-05-04T07:11:37.000Z</time>
      </trkpt>
      <trkpt lat="47.48446" lon="6.76976">
        <ele>306.6</ele>
        <time>2014-05-04T07:11:38.000Z</time>
      </trkpt>
      <trkpt lat="47.48438" lon="6.76971">
        <ele>306.4</ele>
        <time>2014-05-04T07:11:39.000Z</time>
      </trkpt>
      <trkpt lat="47.4843" lon="6.76966">
        <ele>307.7</ele>
        <time>2014-05-04T07:11:40.000Z</time>
      </trkpt>
      <trkpt lat="47.48423" lon="6.76962">
        <ele>308</ele>
        <time>2014-05-04T07:11:41.000Z</time>
      </trkpt>
      <trkpt lat="47.48416" lon="6.76959">
        <ele>308.5</ele>
        <time>2014-05-04T07:11:42.000Z</time>
      </trkpt>
      <trkpt lat="47.48408" lon="6.76955">
        <ele>308.4</ele>
        <time>2014-05-04T07:11:43.000Z</time>
      </trkpt>
      <trkpt lat="47.48392" lon="6.76943">
        <ele>310</ele>
        <time>2014-05-04T07:11:46.000Z</time>
      </trkpt>
      <trkpt lat="47.48384" lon="6.7694">
        <ele>309.7</ele>
        <time>2014-05-04T07:11:47.000Z</time>
      </trkpt>
      <trkpt lat="47.48376" lon="6.76936">
        <ele>310.3</ele>
        <time>2014-05-04T07:11:48.000Z</time>
      </trkpt>
      <trkpt lat="47.48369" lon="6.7693">
        <ele>309.5</ele>
        <time>2014-05-04T07:11:49.000Z</time>
      </trkpt>
      <trkpt lat="47.48363" lon="6.76924">
        <ele>309.8</ele>
        <time>2014-05-04T07:11:50.000Z</time>
      </trkpt>
      <trkpt lat="47.48356" lon="6.76919">
        <ele>309.9</ele>
        <time>2014-05-04T07:11:50.999Z</time>
      </trkpt>
      <trkpt lat="47.48348" lon="6.76914">
        <ele>310.1</ele>
        <time>2014-05-04T07:11:52.000Z</time>
      </trkpt>
      <trkpt lat="47.48341" lon="6.7691">
        <ele>310.1</ele>
        <time>2014-05-04T07:11:52.999Z</time>
      </trkpt>
      <trkpt lat="47.48334" lon="6.76904">
        <ele>309.9</ele>
        <time>2014-05-04T07:11:54.000Z</time>
      </trkpt>
      <trkpt lat="47.48327" lon="6.769">
        <ele>309.9</ele>
        <time>2014-05-04T07:11:54.999Z</time>
      </trkpt>
      <trkpt lat="47.48319" lon="6.76894">
        <ele>310.4</ele>
        <time>2014-05-04T07:11:56.000Z</time>
      </trkpt>
      <trkpt lat="47.48312" lon="6.76889">
        <ele>309.8</ele>
        <time>2014-05-04T07:11:57.000Z</time>
      </trkpt>
      <trkpt lat="47.48306" lon="6.76883">
        <ele>309.9</ele>
        <time>2014-05-04T07:11:58.000Z</time>
      </trkpt>
      <trkpt lat="47.48299" lon="6.76877">
        <ele>310.1</ele>
        <time>2014-05-04T07:11:59.000Z</time>
      </trkpt>
      <trkpt lat="47.48294" lon="6.76872">
        <ele>310.9</ele>
        <time>2014-05-04T07:12:00.000Z</time>
      </trkpt>
      <trkpt lat="47.48288" lon="6.76865">
        <ele>310.6</ele>
        <time>2014-05-04T07:12:01.000Z</time>
      </trkpt>
      <trkpt lat="47.48282" lon="6.76857">
        <ele>310.5</ele>
        <time>2014-05-04T07:12:02.000Z</time>
      </trkpt>
      <trkpt lat="47.48276" lon="6.7685">
        <ele>310.5</ele>
        <time>2014-05-04T07:12:03.000Z</time>
      </trkpt>
      <trkpt lat="47.48271" lon="6.76843">
        <ele>311.1</ele>
        <time>2014-05-04T07:12:04.000Z</time>
      </trkpt>
      <trkpt lat="47.48266" lon="6.76836">
        <ele>311</ele>
        <time>2014-05-04T07:12:05.000Z</time>
      </trkpt>
      <trkpt lat="47.4826" lon="6.76828">
        <ele>312.1</ele>
        <time>2014-05-04T07:12:06.000Z</time>
      </trkpt>
      <trkpt lat="47.48255" lon="6.7682">
        <ele>311.9</ele>
        <time>2014-05-04T07:12:07.000Z</time>
      </trkpt>
      <trkpt lat="47.48251" lon="6.76813">
        <ele>312.6</ele>
        <time>2014-05-04T07:12:08.000Z</time>
      </trkpt>
      <trkpt lat="47.48245" lon="6.76807">
        <ele>311.6</ele>
        <time>2014-05-04T07:12:09.000Z</time>
      </trkpt>
      <trkpt lat="47.48238" lon="6.76801">
        <ele>312.3</ele>
        <time>2014-05-04T07:12:10.000Z</time>
      </trkpt>
      <trkpt lat="47.48232" lon="6.76798">
        <ele>312</ele>
        <time>2014-05-04T07:12:11.000Z</time>
      </trkpt>
      <trkpt lat="47.48224" lon="6.76794">
        <ele>311.8</ele>
        <time>2014-05-04T07:12:12.000Z</time>
      </trkpt>
      <trkpt lat="47.48217" lon="6.76791">
        <ele>312.6</ele>
        <time>2014-05-04T07:12:13.000Z</time>
      </trkpt>
      <trkpt lat="47.4821" lon="6.76788">
        <ele>312.5</ele>
        <time>2014-05-04T07:12:14.000Z</time>
      </trkpt>
      <trkpt lat="47.48203" lon="6.76785">
        <ele>311.9</ele>
        <time>2014-05-04T07:12:15.000Z</time>
      </trkpt>
      <trkpt lat="47.48195" lon="6.76782">
        <ele>311.5</ele>
        <time>2014-05-04T07:12:16.000Z</time>
      </trkpt>
      <trkpt lat="47.48188" lon="6.76778">
        <ele>311.4</ele>
        <time>2014-05-04T07:12:16.999Z</time>
      </trkpt>
      <trkpt lat="47.48182" lon="6.76772">
        <ele>311.4</ele>
        <time>2014-05-04T07:12:18.000Z</time>
      </trkpt>
      <trkpt lat="47.48175" lon="6.76765">
        <ele>310.8</ele>
        <time>2014-05-04T07:12:19.000Z</time>
      </trkpt>
      <trkpt lat="47.48169" lon="6.76758">
        <ele>310.6</ele>
        <time>2014-05-04T07:12:20.000Z</time>
      </trkpt>
      <trkpt lat="47.48163" lon="6.7675">
        <ele>310.6</ele>
        <time>2014-05-04T07:12:21.000Z</time>
      </trkpt>
      <trkpt lat="47.48158" lon="6.76743">
        <ele>310.7</ele>
        <time>2014-05-04T07:12:22.000Z</time>
      </trkpt>
      <trkpt lat="47.48153" lon="6.76734">
        <ele>310.4</ele>
        <time>2014-05-04T07:12:22.999Z</time>
      </trkpt>
      <trkpt lat="47.48148" lon="6.76725">
        <ele>310.5</ele>
        <time>2014-05-04T07:12:24.000Z</time>
      </trkpt>
      <trkpt lat="47.48145" lon="6.76716">
        <ele>310.5</ele>
        <time>2014-05-04T07:12:25.000Z</time>
      </trkpt>
      <trkpt lat="47.48141" lon="6.76707">
        <ele>310.3</ele>
        <time>2014-05-04T07:12:26.000Z</time>
      </trkpt>
      <trkpt lat="47.48137" lon="6.76697">
        <ele>310.6</ele>
        <time>2014-05-04T07:12:27.000Z</time>
      </trkpt>
      <trkpt lat="47.48132" lon="6.76689">
        <ele>310.4</ele>
        <time>2014-05-04T07:12:28.000Z</time>
      </trkpt>
      <trkpt lat="47.48127" lon="6.7668">
        <ele>310.2</ele>
        <time>2014-05-04T07:12:29.000Z</time>
      </trkpt>
      <trkpt lat="47.48121" lon="6.76671">
        <ele>309.9</ele>
        <time>2014-05-04T07:12:30.000Z</time>
      </trkpt>
      <trkpt lat="47.48117" lon="6.76664">
        <ele>310</ele>
        <time>2014-05-04T07:12:31.000Z</time>
      </trkpt>
      <trkpt lat="47.48114" lon="6.76657">
        <ele>310.9</ele>
        <time>2014-05-04T07:12:32.000Z</time>
      </trkpt>
      <trkpt lat="47.48111" lon="6.7665">
        <ele>311</ele>
        <time>2014-05-04T07:12:33.000Z</time>
      </trkpt>
      <trkpt lat="47.48107" lon="6.76643">
        <ele>312.1</ele>
        <time>2014-05-04T07:12:34.000Z</time>
      </trkpt>
      <trkpt lat="47.48103" lon="6.76636">
        <ele>311.8</ele>
        <time>2014-05-04T07:12:35.000Z</time>
      </trkpt>
      <trkpt lat="47.48098" lon="6.7663">
        <ele>311.7</ele>
        <time>2014-05-04T07:12:36.000Z</time>
      </trkpt>
      <trkpt lat="47.48094" lon="6.7662">
        <ele>311.7</ele>
        <time>2014-05-04T07:12:37.000Z</time>
      </trkpt>
      <trkpt lat="47.48092" lon="6.7661">
        <ele>311.9</ele>
        <time>2014-05-04T07:12:38.000Z</time>
      </trkpt>
      <trkpt lat="47.48091" lon="6.766">
        <ele>312</ele>
        <time>2014-05-04T07:12:39.000Z</time>
      </trkpt>
      <trkpt lat="47.48094" lon="6.76591">
        <ele>312.7</ele>
        <time>2014-05-04T07:12:40.000Z</time>
      </trkpt>
      <trkpt lat="47.48097" lon="6.76583">
        <ele>313.7</ele>
        <time>2014-05-04T07:12:41.000Z</time>
      </trkpt>
      <trkpt lat="47.481" lon="6.76577">
        <ele>314.7</ele>
        <time>2014-05-04T07:12:42.000Z</time>
      </trkpt>
      <trkpt lat="47.48103" lon="6.7657">
        <ele>315.3</ele>
        <time>2014-05-04T07:12:43.000Z</time>
      </trkpt>
      <trkpt lat="47.48109" lon="6.76533">
        <ele>319.8</ele>
        <time>2014-05-04T07:12:51.000Z</time>
      </trkpt>
      <trkpt lat="47.48104" lon="6.76525">
        <ele>319.1</ele>
        <time>2014-05-04T07:12:52.000Z</time>
      </trkpt>
      <trkpt lat="47.48097" lon="6.7652">
        <ele>319.3</ele>
        <time>2014-05-04T07:12:53.000Z</time>
      </trkpt>
      <trkpt lat="47.48091" lon="6.76523">
        <ele>318.7</ele>
        <time>2014-05-04T07:12:54.000Z</time>
      </trkpt>
      <trkpt lat="47.48086" lon="6.76526">
        <ele>317.9</ele>
        <time>2014-05-04T07:12:55.000Z</time>
      </trkpt>
      <trkpt lat="47.48081" lon="6.7653">
        <ele>317.5</ele>
        <time>2014-05-04T07:12:56.000Z</time>
      </trkpt>
      <trkpt lat="47.48076" lon="6.76534">
        <ele>316.4</ele>
        <time>2014-05-04T07:12:57.000Z</time>
      </trkpt>
      <trkpt lat="47.48071" lon="6.76538">
        <ele>315.3</ele>
        <time>2014-05-04T07:12:58.000Z</time>
      </trkpt>
      <trkpt lat="47.48066" lon="6.76541">
        <ele>315.2</ele>
        <time>2014-05-04T07:12:59.000Z</time>
      </trkpt>
      <trkpt lat="47.48062" lon="6.76544">
        <ele>315.4</ele>
        <time>2014-05-04T07:13:00.000Z</time>
      </trkpt>
      <trkpt lat="47.48058" lon="6.76547">
        <ele>316.4</ele>
        <time>2014-05-04T07:13:01.000Z</time>
      </trkpt>
      <trkpt lat="47.48054" lon="6.76551">
        <ele>317.9</ele>
        <time>2014-05-04T07:13:02.000Z</time>
      </trkpt>
      <trkpt lat="47.48049" lon="6.76556">
        <ele>317.5</ele>
        <time>2014-05-04T07:13:03.000Z</time>
      </trkpt>
      <trkpt lat="47.48044" lon="6.7656">
        <ele>317.4</ele>
        <time>2014-05-04T07:13:04.000Z</time>
      </trkpt>
      <trkpt lat="47.48039" lon="6.76564">
        <ele>316.5</ele>
        <time>2014-05-04T07:13:05.000Z</time>
      </trkpt>
      <trkpt lat="47.48034" lon="6.76568">
        <ele>316.8</ele>
        <time>2014-05-04T07:13:06.000Z</time>
      </trkpt>
      <trkpt lat="47.48029" lon="6.76572">
        <ele>316.7</ele>
        <time>2014-05-04T07:13:07.000Z</time>
      </trkpt>
      <trkpt lat="47.48024" lon="6.76576">
        <ele>317.3</ele>
        <time>2014-05-04T07:13:08.000Z</time>
      </trkpt>
      <trkpt lat="47.4802" lon="6.7658">
        <ele>317.8</ele>
        <time>2014-05-04T07:13:09.000Z</time>
      </trkpt>
      <trkpt lat="47.48015" lon="6.76582">
        <ele>316.3</ele>
        <time>2014-05-04T07:13:10.000Z</time>
      </trkpt>
      <trkpt lat="47.48009" lon="6.76587">
        <ele>315.5</ele>
        <time>2014-05-04T07:13:11.000Z</time>
      </trkpt>
      <trkpt lat="47.48004" lon="6.7659">
        <ele>315.7</ele>
        <time>2014-05-04T07:13:12.000Z</time>
      </trkpt>
      <trkpt lat="47.47998" lon="6.76594">
        <ele>315.4</ele>
        <time>2014-05-04T07:13:13.000Z</time>
      </trkpt>
      <trkpt lat="47.47993" lon="6.76596">
        <ele>314.5</ele>
        <time>2014-05-04T07:13:14.000Z</time>
      </trkpt>
      <trkpt lat="47.47988" lon="6.76599">
        <ele>313.6</ele>
        <time>2014-05-04T07:13:15.000Z</time>
      </trkpt>
      <trkpt lat="47.47983" lon="6.76601">
        <ele>313.7</ele>
        <time>2014-05-04T07:13:16.000Z</time>
      </trkpt>
      <trkpt lat="47.47978" lon="6.76605">
        <ele>313.6</ele>
        <time>2014-05-04T07:13:17.000Z</time>
      </trkpt>
      <trkpt lat="47.47974" lon="6.76608">
        <ele>313.6</ele>
        <time>2014-05-04T07:13:18.000Z</time>
      </trkpt>
      <trkpt lat="47.47969" lon="6.76612">
        <ele>313.7</ele>
        <time>2014-05-04T07:13:19.000Z</time>
      </trkpt>
      <trkpt lat="47.47965" lon="6.76613">
        <ele>314.1</ele>
        <time>2014-05-04T07:13:20.000Z</time>
      </trkpt>
      <trkpt lat="47.4796" lon="6.76616">
        <ele>312</ele>
        <time>2014-05-04T07:13:21.000Z</time>
      </trkpt>
      <trkpt lat="47.47955" lon="6.76618">
        <ele>311.3</ele>
        <time>2014-05-04T07:13:22.000Z</time>
      </trkpt>
      <trkpt lat="47.4795" lon="6.76619">
        <ele>311.2</ele>
        <time>2014-05-04T07:13:23.000Z</time>
      </trkpt>
      <trkpt lat="47.47945" lon="6.76618">
        <ele>311.3</ele>
        <time>2014-05-04T07:13:24.000Z</time>
      </trkpt>
      <trkpt lat="47.4794" lon="6.7662">
        <ele>311.4</ele>
        <time>2014-05-04T07:13:25.000Z</time>
      </trkpt>
      <trkpt lat="47.47934" lon="6.7662">
        <ele>312.2</ele>
        <time>2014-05-04T07:13:26.000Z</time>
      </trkpt>
      <trkpt lat="47.47928" lon="6.76622">
        <ele>312.4</ele>
        <time>2014-05-04T07:13:27.000Z</time>
      </trkpt>
      <trkpt lat="47.47921" lon="6.76628">
        <ele>314</ele>
        <time>2014-05-04T07:13:28.000Z</time>
      </trkpt>
      <trkpt lat="47.47915" lon="6.76631">
        <ele>313.8</ele>
        <time>2014-05-04T07:13:29.000Z</time>
      </trkpt>
      <trkpt lat="47.47908" lon="6.76635">
        <ele>312.2</ele>
        <time>2014-05-04T07:13:30.000Z</time>
      </trkpt>
      <trkpt lat="47.47902" lon="6.76641">
        <ele>311.5</ele>
        <time>2014-05-04T07:13:31.000Z</time>
      </trkpt>
      <trkpt lat="47.47896" lon="6.76647">
        <ele>311.4</ele>
        <time>2014-05-04T07:13:32.000Z</time>
      </trkpt>
      <trkpt lat="47.47891" lon="6.76652">
        <ele>311.3</ele>
        <time>2014-05-04T07:13:32.998Z</time>
      </trkpt>
      <trkpt lat="47.47885" lon="6.76662">
        <ele>310.7</ele>
        <time>2014-05-04T07:13:34.000Z</time>
      </trkpt>
      <trkpt lat="47.47881" lon="6.7667">
        <ele>310.3</ele>
        <time>2014-05-04T07:13:35.000Z</time>
      </trkpt>
      <trkpt lat="47.47877" lon="6.76677">
        <ele>310.1</ele>
        <time>2014-05-04T07:13:36.000Z</time>
      </trkpt>
      <trkpt lat="47.47873" lon="6.76685">
        <ele>309.4</ele>
        <time>2014-05-04T07:13:37.000Z</time>
      </trkpt>
      <trkpt lat="47.47868" lon="6.76693">
        <ele>308.8</ele>
        <time>2014-05-04T07:13:38.000Z</time>
      </trkpt>
      <trkpt lat="47.47864" lon="6.76699">
        <ele>308.9</ele>
        <time>2014-05-04T07:13:39.000Z</time>
      </trkpt>
      <trkpt lat="47.47863" lon="6.76708">
        <ele>311.2</ele>
        <time>2014-05-04T07:13:40.000Z</time>
      </trkpt>
      <trkpt lat="47.4786" lon="6.76716">
        <ele>311.9</ele>
        <time>2014-05-04T07:13:41.000Z</time>
      </trkpt>
      <trkpt lat="47.47855" lon="6.76724">
        <ele>311.6</ele>
        <time>2014-05-04T07:13:42.000Z</time>
      </trkpt>
      <trkpt lat="47.47852" lon="6.76732">
        <ele>311.9</ele>
        <time>2014-05-04T07:13:42.999Z</time>
      </trkpt>
      <trkpt lat="47.47823" lon="6.7679">
        <ele>312.5</ele>
        <time>2014-05-04T07:13:51.000Z</time>
      </trkpt>
      <trkpt lat="47.47818" lon="6.76796">
        <ele>312.3</ele>
        <time>2014-05-04T07:13:52.000Z</time>
      </trkpt>
      <trkpt lat="47.47813" lon="6.76801">
        <ele>313.6</ele>
        <time>2014-05-04T07:13:53.000Z</time>
      </trkpt>
      <trkpt lat="47.47808" lon="6.76803">
        <ele>312.4</ele>
        <time>2014-05-04T07:13:54.000Z</time>
      </trkpt>
      <trkpt lat="47.47803" lon="6.76803">
        <ele>311.5</ele>
        <time>2014-05-04T07:13:55.000Z</time>
      </trkpt>
      <trkpt lat="47.47797" lon="6.76803">
        <ele>311.6</ele>
        <time>2014-05-04T07:13:55.999Z</time>
      </trkpt>
      <trkpt lat="47.47795" lon="6.768">
        <ele>313.3</ele>
        <time>2014-05-04T07:13:57.000Z</time>
      </trkpt>
      <trkpt lat="47.47791" lon="6.76798">
        <ele>314.3</ele>
        <time>2014-05-04T07:13:58.000Z</time>
      </trkpt>
      <trkpt lat="47.47779" lon="6.76797">
        <ele>312.4</ele>
        <time>2014-05-04T07:13:59.000Z</time>
      </trkpt>
      <trkpt lat="47.47774" lon="6.76794">
        <ele>313</ele>
        <time>2014-05-04T07:14:00.000Z</time>
      </trkpt>
      <trkpt lat="47.47769" lon="6.76792">
        <ele>312</ele>
        <time>2014-05-04T07:14:01.000Z</time>
      </trkpt>
      <trkpt lat="47.47764" lon="6.7679">
        <ele>311</ele>
        <time>2014-05-04T07:14:02.000Z</time>
      </trkpt>
      <trkpt lat="47.4776" lon="6.76788">
        <ele>311.9</ele>
        <time>2014-05-04T07:14:03.000Z</time>
      </trkpt>
      <trkpt lat="47.47755" lon="6.76788">
        <ele>311.4</ele>
        <time>2014-05-04T07:14:04.000Z</time>
      </trkpt>
      <trkpt lat="47.4775" lon="6.76789">
        <ele>311.8</ele>
        <time>2014-05-04T07:14:05.000Z</time>
      </trkpt>
      <trkpt lat="47.47745" lon="6.7679">
        <ele>311.3</ele>
        <time>2014-05-04T07:14:06.000Z</time>
      </trkpt>
      <trkpt lat="47.47739" lon="6.76792">
        <ele>310</ele>
        <time>2014-05-04T07:14:07.000Z</time>
      </trkpt>
      <trkpt lat="47.47734" lon="6.76793">
        <ele>309.2</ele>
        <time>2014-05-04T07:14:08.000Z</time>
      </trkpt>
      <trkpt lat="47.47727" lon="6.76795">
        <ele>308.9</ele>
        <time>2014-05-04T07:14:09.000Z</time>
      </trkpt>
      <trkpt lat="47.47721" lon="6.768">
        <ele>308.3</ele>
        <time>2014-05-04T07:14:10.000Z</time>
      </trkpt>
      <trkpt lat="47.47716" lon="6.76806">
        <ele>307.4</ele>
        <time>2014-05-04T07:14:11.000Z</time>
      </trkpt>
      <trkpt lat="47.47712" lon="6.76815">
        <ele>307.3</ele>
        <time>2014-05-04T07:14:12.000Z</time>
      </trkpt>
      <trkpt lat="47.47709" lon="6.76823">
        <ele>307</ele>
        <time>2014-05-04T07:14:13.000Z</time>
      </trkpt>
      <trkpt lat="47.47705" lon="6.76832">
        <ele>306.6</ele>
        <time>2014-05-04T07:14:14.000Z</time>
      </trkpt>
      <trkpt lat="47.47702" lon="6.76841">
        <ele>306.6</ele>
        <time>2014-05-04T07:14:15.001Z</time>
      </trkpt>
      <trkpt lat="47.477" lon="6.76848">
        <ele>306.9</ele>
        <time>2014-05-04T07:14:16.000Z</time>
      </trkpt>
      <trkpt lat="47.47698" lon="6.76855">
        <ele>306.9</ele>
        <time>2014-05-04T07:14:17.000Z</time>
      </trkpt>
      <trkpt lat="47.47697" lon="6.7686">
        <ele>308.1</ele>
        <time>2014-05-04T07:14:18.000Z</time>
      </trkpt>
      <trkpt lat="47.47695" lon="6.76866">
        <ele>309</ele>
        <time>2014-05-04T07:14:19.000Z</time>
      </trkpt>
      <trkpt lat="47.47693" lon="6.76873">
        <ele>309.3</ele>
        <time>2014-05-04T07:14:20.001Z</time>
      </trkpt>
      <trkpt lat="47.47689" lon="6.76882">
        <ele>309.5</ele>
        <time>2014-05-04T07:14:20.999Z</time>
      </trkpt>
      <trkpt lat="47.47686" lon="6.7689">
        <ele>309.8</ele>
        <time>2014-05-04T07:14:22.000Z</time>
      </trkpt>
      <trkpt lat="47.47684" lon="6.76898">
        <ele>311.4</ele>
        <time>2014-05-04T07:14:23.000Z</time>
      </trkpt>
      <trkpt lat="47.47681" lon="6.76906">
        <ele>311.6</ele>
        <time>2014-05-04T07:14:24.000Z</time>
      </trkpt>
      <trkpt lat="47.47678" lon="6.76912">
        <ele>311.2</ele>
        <time>2014-05-04T07:14:25.000Z</time>
      </trkpt>
      <trkpt lat="47.47674" lon="6.7692">
        <ele>310.2</ele>
        <time>2014-05-04T07:14:26.000Z</time>
      </trkpt>
      <trkpt lat="47.47672" lon="6.76928">
        <ele>309.2</ele>
        <time>2014-05-04T07:14:27.000Z</time>
      </trkpt>
      <trkpt lat="47.47668" lon="6.76935">
        <ele>309.2</ele>
        <time>2014-05-04T07:14:28.000Z</time>
      </trkpt>
      <trkpt lat="47.47666" lon="6.76941">
        <ele>308.2</ele>
        <time>2014-05-04T07:14:29.000Z</time>
      </trkpt>
      <trkpt lat="47.47663" lon="6.76949">
        <ele>309.2</ele>
        <time>2014-05-04T07:14:30.000Z</time>
      </trkpt>
      <trkpt lat="47.4766" lon="6.76956">
        <ele>309.6</ele>
        <time>2014-05-04T07:14:31.000Z</time>
      </trkpt>
      <trkpt lat="47.47658" lon="6.76963">
        <ele>309.7</ele>
        <time>2014-05-04T07:14:32.000Z</time>
      </trkpt>
      <trkpt lat="47.47656" lon="6.76968">
        <ele>310</ele>
        <time>2014-05-04T07:14:33.000Z</time>
      </trkpt>
      <trkpt lat="47.47654" lon="6.76974">
        <ele>310.7</ele>
        <time>2014-05-04T07:14:34.000Z</time>
      </trkpt>
      <trkpt lat="47.4765" lon="6.7698">
        <ele>310.4</ele>
        <time>2014-05-04T07:14:35.000Z</time>
      </trkpt>
      <trkpt lat="47.47647" lon="6.76984">
        <ele>311.7</ele>
        <time>2014-05-04T07:14:36.000Z</time>
      </trkpt>
      <trkpt lat="47.47644" lon="6.76988">
        <ele>311.3</ele>
        <time>2014-05-04T07:14:37.000Z</time>
      </trkpt>
      <trkpt lat="47.47643" lon="6.76992">
        <ele>311.2</ele>
        <time>2014-05-04T07:14:38.000Z</time>
      </trkpt>
      <trkpt lat="47.47642" lon="6.76996">
        <ele>311.4</ele>
        <time>2014-05-04T07:14:39.000Z</time>
      </trkpt>
      <trkpt lat="47.4764" lon="6.77002">
        <ele>311.6</ele>
        <time>2014-05-04T07:14:40.000Z</time>
      </trkpt>
      <trkpt lat="47.4764" lon="6.77009">
        <ele>311.5</ele>
        <time>2014-05-04T07:14:41.000Z</time>
      </trkpt>
      <trkpt lat="47.47639" lon="6.77015">
        <ele>313</ele>
        <time>2014-05-04T07:14:42.000Z</time>
      </trkpt>
      <trkpt lat="47.47632" lon="6.7705">
        <ele>314.7</ele>
        <time>2014-05-04T07:14:50.000Z</time>
      </trkpt>
      <trkpt lat="47.47632" lon="6.77054">
        <ele>315.1</ele>
        <time>2014-05-04T07:14:51.000Z</time>
      </trkpt>
      <trkpt lat="47.47631" lon="6.77064">
        <ele>313.6</ele>
        <time>2014-05-04T07:14:52.000Z</time>
      </trkpt>
      <trkpt lat="47.47631" lon="6.77071">
        <ele>313</ele>
        <time>2014-05-04T07:14:53.000Z</time>
      </trkpt>
      <trkpt lat="47.47629" lon="6.77076">
        <ele>312.8</ele>
        <time>2014-05-04T07:14:54.000Z</time>
      </trkpt>
      <trkpt lat="47.47629" lon="6.77083">
        <ele>312.7</ele>
        <time>2014-05-04T07:14:55.000Z</time>
      </trkpt>
      <trkpt lat="47.47628" lon="6.7709">
        <ele>313.6</ele>
        <time>2014-05-04T07:14:56.000Z</time>
      </trkpt>
      <trkpt lat="47.47627" lon="6.77097">
        <ele>313.8</ele>
        <time>2014-05-04T07:14:57.000Z</time>
      </trkpt>
      <trkpt lat="47.47626" lon="6.77104">
        <ele>312.4</ele>
        <time>2014-05-04T07:14:58.000Z</time>
      </trkpt>
      <trkpt lat="47.47626" lon="6.77114">
        <ele>312.4</ele>
        <time>2014-05-04T07:14:59.000Z</time>
      </trkpt>
      <trkpt lat="47.47624" lon="6.77121">
        <ele>312.5</ele>
        <time>2014-05-04T07:15:00.000Z</time>
      </trkpt>
      <trkpt lat="47.47622" lon="6.77131">
        <ele>311.9</ele>
        <time>2014-05-04T07:15:01.000Z</time>
      </trkpt>
      <trkpt lat="47.4762" lon="6.77139">
        <ele>311.9</ele>
        <time>2014-05-04T07:15:02.000Z</time>
      </trkpt>
      <trkpt lat="47.47617" lon="6.77148">
        <ele>312.2</ele>
        <time>2014-05-04T07:15:03.000Z</time>
      </trkpt>
      <trkpt lat="47.47614" lon="6.77157">
        <ele>311.9</ele>
        <time>2014-05-04T07:15:04.000Z</time>
      </trkpt>
      <trkpt lat="47.47611" lon="6.77168">
        <ele>311.2</ele>
        <time>2014-05-04T07:15:05.000Z</time>
      </trkpt>
      <trkpt lat="47.47606" lon="6.77177">
        <ele>310.7</ele>
        <time>2014-05-04T07:15:06.000Z</time>
      </trkpt>
      <trkpt lat="47.47601" lon="6.77183">
        <ele>310.4</ele>
        <time>2014-05-04T07:15:07.000Z</time>
      </trkpt>
      <trkpt lat="47.47595" lon="6.77185">
        <ele>309.4</ele>
        <time>2014-05-04T07:15:08.000Z</time>
      </trkpt>
      <trkpt lat="47.47589" lon="6.77184">
        <ele>308.9</ele>
        <time>2014-05-04T07:15:09.000Z</time>
      </trkpt>
      <trkpt lat="47.47583" lon="6.7718">
        <ele>309.1</ele>
        <time>2014-05-04T07:15:10.000Z</time>
      </trkpt>
      <trkpt lat="47.47577" lon="6.77176">
        <ele>308.6</ele>
        <time>2014-05-04T07:15:11.000Z</time>
      </trkpt>
      <trkpt lat="47.47571" lon="6.77172">
        <ele>308.2</ele>
        <time>2014-05-04T07:15:12.000Z</time>
      </trkpt>
      <trkpt lat="47.47566" lon="6.77167">
        <ele>309.3</ele>
        <time>2014-05-04T07:15:13.000Z</time>
      </trkpt>
      <trkpt lat="47.4756" lon="6.77162">
        <ele>308.9</ele>
        <time>2014-05-04T07:15:14.000Z</time>
      </trkpt>
      <trkpt lat="47.47555" lon="6.77157">
        <ele>307.9</ele>
        <time>2014-05-04T07:15:15.000Z</time>
      </trkpt>
      <trkpt lat="47.47549" lon="6.77152">
        <ele>307.6</ele>
        <time>2014-05-04T07:15:16.000Z</time>
      </trkpt>
      <trkpt lat="47.47544" lon="6.77148">
        <ele>307.6</ele>
        <time>2014-05-04T07:15:17.000Z</time>
      </trkpt>
      <trkpt lat="47.47539" lon="6.77143">
        <ele>308.5</ele>
        <time>2014-05-04T07:15:18.000Z</time>
      </trkpt>
      <trkpt lat="47.47536" lon="6.77139">
        <ele>309.4</ele>
        <time>2014-05-04T07:15:19.000Z</time>
      </trkpt>
      <trkpt lat="47.47532" lon="6.77137">
        <ele>309.3</ele>
        <time>2014-05-04T07:15:20.000Z</time>
      </trkpt>
      <trkpt lat="47.47527" lon="6.77136">
        <ele>308.5</ele>
        <time>2014-05-04T07:15:21.000Z</time>
      </trkpt>
      <trkpt lat="47.47521" lon="6.77139">
        <ele>308.2</ele>
        <time>2014-05-04T07:15:22.000Z</time>
      </trkpt>
      <trkpt lat="47.47516" lon="6.77142">
        <ele>308</ele>
        <time>2014-05-04T07:15:23.000Z</time>
      </trkpt>
      <trkpt lat="47.47511" lon="6.77146">
        <ele>308</ele>
        <time>2014-05-04T07:15:24.002Z</time>
      </trkpt>
      <trkpt lat="47.47504" lon="6.77151">
        <ele>308</ele>
        <time>2014-05-04T07:15:26.000Z</time>
      </trkpt>
      <trkpt lat="47.47506" lon="6.7716">
        <ele>308.1</ele>
        <time>2014-05-04T07:15:27.000Z</time>
      </trkpt>
      <trkpt lat="47.47508" lon="6.77175">
        <ele>308.6</ele>
        <time>2014-05-04T07:15:28.000Z</time>
      </trkpt>
      <trkpt lat="47.47507" lon="6.77182">
        <ele>307.7</ele>
        <time>2014-05-04T07:15:29.000Z</time>
      </trkpt>
      <trkpt lat="47.4751" lon="6.77187">
        <ele>307.3</ele>
        <time>2014-05-04T07:15:30.000Z</time>
      </trkpt>
      <trkpt lat="47.47514" lon="6.77189">
        <ele>307.3</ele>
        <time>2014-05-04T07:15:31.000Z</time>
      </trkpt>
      <trkpt lat="47.47518" lon="6.7719">
        <ele>307.8</ele>
        <time>2014-05-04T07:15:32.000Z</time>
      </trkpt>
      <trkpt lat="47.47523" lon="6.7719">
        <ele>308.2</ele>
        <time>2014-05-04T07:15:33.000Z</time>
      </trkpt>
      <trkpt lat="47.47527" lon="6.7719">
        <ele>307.9</ele>
        <time>2014-05-04T07:15:34.000Z</time>
      </trkpt>
      <trkpt lat="47.47533" lon="6.77193">
        <ele>308</ele>
        <time>2014-05-04T07:15:35.000Z</time>
      </trkpt>
      <trkpt lat="47.47538" lon="6.77196">
        <ele>308.4</ele>
        <time>2014-05-04T07:15:36.000Z</time>
      </trkpt>
      <trkpt lat="47.47544" lon="6.77201">
        <ele>308.6</ele>
        <time>2014-05-04T07:15:37.000Z</time>
      </trkpt>
      <trkpt lat="47.4755" lon="6.77205">
        <ele>307.9</ele>
        <time>2014-05-04T07:15:38.000Z</time>
      </trkpt>
      <trkpt lat="47.47556" lon="6.77209">
        <ele>308.1</ele>
        <time>2014-05-04T07:15:39.000Z</time>
      </trkpt>
      <trkpt lat="47.47561" lon="6.77215">
        <ele>308.1</ele>
        <time>2014-05-04T07:15:40.000Z</time>
      </trkpt>
      <trkpt lat="47.47567" lon="6.77221">
        <ele>307.2</ele>
        <time>2014-05-04T07:15:41.000Z</time>
      </trkpt>
      <trkpt lat="47.47573" lon="6.77226">
        <ele>307.8</ele>
        <time>2014-05-04T07:15:42.000Z</time>
      </trkpt>
      <trkpt lat="47.47617" lon="6.77267">
        <ele>310.2</ele>
        <time>2014-05-04T07:15:50.000Z</time>
      </trkpt>
      <trkpt lat="47.47622" lon="6.77272">
        <ele>310.4</ele>
        <time>2014-05-04T07:15:51.000Z</time>
      </trkpt>
      <trkpt lat="47.47626" lon="6.77279">
        <ele>311.3</ele>
        <time>2014-05-04T07:15:52.000Z</time>
      </trkpt>
      <trkpt lat="47.47629" lon="6.77286">
        <ele>310.8</ele>
        <time>2014-05-04T07:15:53.000Z</time>
      </trkpt>
      <trkpt lat="47.47632" lon="6.77293">
        <ele>310.8</ele>
        <time>2014-05-04T07:15:53.999Z</time>
      </trkpt>
      <trkpt lat="47.4763" lon="6.77302">
        <ele>309.6</ele>
        <time>2014-05-04T07:15:55.000Z</time>
      </trkpt>
      <trkpt lat="47.47628" lon="6.77311">
        <ele>309.6</ele>
        <time>2014-05-04T07:15:56.000Z</time>
      </trkpt>
      <trkpt lat="47.47625" lon="6.7732">
        <ele>309.5</ele>
        <time>2014-05-04T07:15:57.000Z</time>
      </trkpt>
      <trkpt lat="47.47622" lon="6.77326">
        <ele>309.5</ele>
        <time>2014-05-04T07:15:58.000Z</time>
      </trkpt>
      <trkpt lat="47.4762" lon="6.77333">
        <ele>309</ele>
        <time>2014-05-04T07:15:59.000Z</time>
      </trkpt>
      <trkpt lat="47.47617" lon="6.7734">
        <ele>308.8</ele>
        <time>2014-05-04T07:16:00.000Z</time>
      </trkpt>
      <trkpt lat="47.47615" lon="6.77346">
        <ele>308.4</ele>
        <time>2014-05-04T07:16:01.000Z</time>
      </trkpt>
      <trkpt lat="47.47612" lon="6.77353">
        <ele>308</ele>
        <time>2014-05-04T07:16:02.000Z</time>
      </trkpt>
      <trkpt lat="47.4761" lon="6.77361">
        <ele>307.6</ele>
        <time>2014-05-04T07:16:03.000Z</time>
      </trkpt>
      <trkpt lat="47.47608" lon="6.77368">
        <ele>307.7</ele>
        <time>2014-05-04T07:16:03.999Z</time>
      </trkpt>
      <trkpt lat="47.47605" lon="6.77375">
        <ele>307.5</ele>
        <time>2014-05-04T07:16:05.000Z</time>
      </trkpt>
      <trkpt lat="47.47603" lon="6.77382">
        <ele>307.7</ele>
        <time>2014-05-04T07:16:06.000Z</time>
      </trkpt>
      <trkpt lat="47.476" lon="6.77388">
        <ele>307.9</ele>
        <time>2014-05-04T07:16:07.000Z</time>
      </trkpt>
      <trkpt lat="47.47599" lon="6.77397">
        <ele>306.1</ele>
        <time>2014-05-04T07:16:08.000Z</time>
      </trkpt>
      <trkpt lat="47.47597" lon="6.77404">
        <ele>305.5</ele>
        <time>2014-05-04T07:16:09.000Z</time>
      </trkpt>
      <trkpt lat="47.47595" lon="6.77408">
        <ele>305.9</ele>
        <time>2014-05-04T07:16:10.000Z</time>
      </trkpt>
      <trkpt lat="47.47592" lon="6.7741">
        <ele>306.4</ele>
        <time>2014-05-04T07:16:11.000Z</time>
      </trkpt>
      <trkpt lat="47.47588" lon="6.77411">
        <ele>308.8</ele>
        <time>2014-05-04T07:16:12.000Z</time>
      </trkpt>
      <trkpt lat="47.47585" lon="6.77412">
        <ele>309.7</ele>
        <time>2014-05-04T07:16:13.000Z</time>
      </trkpt>
      <trkpt lat="47.47581" lon="6.7741">
        <ele>310.4</ele>
        <time>2014-05-04T07:16:14.000Z</time>
      </trkpt>
      <trkpt lat="47.47577" lon="6.77407">
        <ele>311.1</ele>
        <time>2014-05-04T07:16:15.000Z</time>
      </trkpt>
      <trkpt lat="47.47573" lon="6.77404">
        <ele>311.7</ele>
        <time>2014-05-04T07:16:16.000Z</time>
      </trkpt>
      <trkpt lat="47.47569" lon="6.77402">
        <ele>312.4</ele>
        <time>2014-05-04T07:16:17.000Z</time>
      </trkpt>
      <trkpt lat="47.47565" lon="6.77399">
        <ele>312.7</ele>
        <time>2014-05-04T07:16:18.000Z</time>
      </trkpt>
      <trkpt lat="47.47561" lon="6.77397">
        <ele>313.7</ele>
        <time>2014-05-04T07:16:19.000Z</time>
      </trkpt>
      <trkpt lat="47.47558" lon="6.77395">
        <ele>313.1</ele>
        <time>2014-05-04T07:16:20.000Z</time>
      </trkpt>
      <trkpt lat="47.47554" lon="6.77393">
        <ele>313.7</ele>
        <time>2014-05-04T07:16:21.000Z</time>
      </trkpt>
      <trkpt lat="47.47551" lon="6.77391">
        <ele>313.9</ele>
        <time>2014-05-04T07:16:22.000Z</time>
      </trkpt>
      <trkpt lat="47.47548" lon="6.7739">
        <ele>313.8</ele>
        <time>2014-05-04T07:16:23.000Z</time>
      </trkpt>
      <trkpt lat="47.47544" lon="6.77389">
        <ele>314.7</ele>
        <time>2014-05-04T07:16:25.000Z</time>
      </trkpt>
      <trkpt lat="47.47542" lon="6.77389">
        <ele>314.2</ele>
        <time>2014-05-04T07:16:26.000Z</time>
      </trkpt>
      <trkpt lat="47.47539" lon="6.77389">
        <ele>314</ele>
        <time>2014-05-04T07:16:29.000Z</time>
      </trkpt>
      <trkpt lat="47.47537" lon="6.7739">
        <ele>313</ele>
        <time>2014-05-04T07:16:30.000Z</time>
      </trkpt>
      <trkpt lat="47.47535" lon="6.77389">
        <ele>312.8</ele>
        <time>2014-05-04T07:16:31.000Z</time>
      </trkpt>
      <trkpt lat="47.47533" lon="6.77395">
        <ele>311.9</ele>
        <time>2014-05-04T07:16:32.000Z</time>
      </trkpt>
      <trkpt lat="47.47531" lon="6.77397">
        <ele>311.7</ele>
        <time>2014-05-04T07:16:33.000Z</time>
      </trkpt>
      <trkpt lat="47.47528" lon="6.77405">
        <ele>311.7</ele>
        <time>2014-05-04T07:16:34.000Z</time>
      </trkpt>
      <trkpt lat="47.47525" lon="6.77409">
        <ele>312.3</ele>
        <time>2014-05-04T07:16:35.000Z</time>
      </trkpt>
      <trkpt lat="47.47522" lon="6.77414">
        <ele>312.4</ele>
        <time>2014-05-04T07:16:36.000Z</time>
      </trkpt>
      <trkpt lat="47.4752" lon="6.77418">
        <ele>312.7</ele>
        <time>2014-05-04T07:16:36.999Z</time>
      </trkpt>
      <trkpt lat="47.47516" lon="6.77422">
        <ele>312.8</ele>
        <time>2014-05-04T07:16:38.000Z</time>
      </trkpt>
      <trkpt lat="47.47512" lon="6.77425">
        <ele>313.3</ele>
        <time>2014-05-04T07:16:39.000Z</time>
      </trkpt>
      <trkpt lat="47.47509" lon="6.77429">
        <ele>313.9</ele>
        <time>2014-05-04T07:16:40.000Z</time>
      </trkpt>
      <trkpt lat="47.47506" lon="6.77433">
        <ele>313.5</ele>
        <time>2014-05-04T07:16:41.000Z</time>
      </trkpt>
      <trkpt lat="47.47504" lon="6.77438">
        <ele>313.7</ele>
        <time>2014-05-04T07:16:42.000Z</time>
      </trkpt>
      <trkpt lat="47.47483" lon="6.77479">
        <ele>311.5</ele>
        <time>2014-05-04T07:16:50.000Z</time>
      </trkpt>
      <trkpt lat="47.47478" lon="6.77486">
        <ele>311.3</ele>
        <time>2014-05-04T07:16:51.000Z</time>
      </trkpt>
      <trkpt lat="47.47475" lon="6.77491">
        <ele>310.8</ele>
        <time>2014-05-04T07:16:52.000Z</time>
      </trkpt>
      <trkpt lat="47.47475" lon="6.77495">
        <ele>313.1</ele>
        <time>2014-05-04T07:16:53.000Z</time>
      </trkpt>
      <trkpt lat="47.47472" lon="6.775">
        <ele>312.9</ele>
        <time>2014-05-04T07:16:54.000Z</time>
      </trkpt>
      <trkpt lat="47.47469" lon="6.77505">
        <ele>312.9</ele>
        <time>2014-05-04T07:16:55.000Z</time>
      </trkpt>
      <trkpt lat="47.47465" lon="6.77509">
        <ele>314</ele>
        <time>2014-05-04T07:16:56.000Z</time>
      </trkpt>
      <trkpt lat="47.47463" lon="6.77517">
        <ele>313.9</ele>
        <time>2014-05-04T07:16:57.000Z</time>
      </trkpt>
      <trkpt lat="47.47459" lon="6.77521">
        <ele>314.2</ele>
        <time>2014-05-04T07:16:57.999Z</time>
      </trkpt>
      <trkpt lat="47.47457" lon="6.77528">
        <ele>314.1</ele>
        <time>2014-05-04T07:16:59.000Z</time>
      </trkpt>
      <trkpt lat="47.47453" lon="6.77531">
        <ele>314.5</ele>
        <time>2014-05-04T07:17:00.000Z</time>
      </trkpt>
      <trkpt lat="47.4745" lon="6.77534">
        <ele>314.6</ele>
        <time>2014-05-04T07:17:01.000Z</time>
      </trkpt>
      <trkpt lat="47.47447" lon="6.77536">
        <ele>315</ele>
        <time>2014-05-04T07:17:02.000Z</time>
      </trkpt>
      <trkpt lat="47.47444" lon="6.77539">
        <ele>315.2</ele>
        <time>2014-05-04T07:17:03.001Z</time>
      </trkpt>
      <trkpt lat="47.47437" lon="6.7754">
        <ele>315.8</ele>
        <time>2014-05-04T07:17:04.000Z</time>
      </trkpt>
      <trkpt lat="47.47433" lon="6.77542">
        <ele>314.9</ele>
        <time>2014-05-04T07:17:05.000Z</time>
      </trkpt>
      <trkpt lat="47.47429" lon="6.77544">
        <ele>314.3</ele>
        <time>2014-05-04T07:17:06.000Z</time>
      </trkpt>
      <trkpt lat="47.47425" lon="6.77547">
        <ele>314.3</ele>
        <time>2014-05-04T07:17:07.000Z</time>
      </trkpt>
      <trkpt lat="47.4742" lon="6.77549">
        <ele>313.6</ele>
        <time>2014-05-04T07:17:08.000Z</time>
      </trkpt>
      <trkpt lat="47.47415" lon="6.7755">
        <ele>313.9</ele>
        <time>2014-05-04T07:17:09.000Z</time>
      </trkpt>
      <trkpt lat="47.4741" lon="6.77551">
        <ele>315.3</ele>
        <time>2014-05-04T07:17:10.000Z</time>
      </trkpt>
      <trkpt lat="47.47405" lon="6.77554">
        <ele>313.9</ele>
        <time>2014-05-04T07:17:11.000Z</time>
      </trkpt>
      <trkpt lat="47.47402" lon="6.77554">
        <ele>314.2</ele>
        <time>2014-05-04T07:17:12.000Z</time>
      </trkpt>
      <trkpt lat="47.47398" lon="6.77555">
        <ele>314.1</ele>
        <time>2014-05-04T07:17:13.000Z</time>
      </trkpt>
      <trkpt lat="47.47393" lon="6.77557">
        <ele>314.5</ele>
        <time>2014-05-04T07:17:14.000Z</time>
      </trkpt>
      <trkpt lat="47.47388" lon="6.77558">
        <ele>313.7</ele>
        <time>2014-05-04T07:17:15.000Z</time>
      </trkpt>
      <trkpt lat="47.47384" lon="6.77559">
        <ele>313.6</ele>
        <time>2014-05-04T07:17:16.000Z</time>
      </trkpt>
      <trkpt lat="47.4738" lon="6.77559">
        <ele>313.8</ele>
        <time>2014-05-04T07:17:17.000Z</time>
      </trkpt>
      <trkpt lat="47.47375" lon="6.7756">
        <ele>313.9</ele>
        <time>2014-05-04T07:17:18.000Z</time>
      </trkpt>
      <trkpt lat="47.47371" lon="6.7756">
        <ele>313.8</ele>
        <time>2014-05-04T07:17:18.999Z</time>
      </trkpt>
      <trkpt lat="47.47368" lon="6.7756">
        <ele>315.4</ele>
        <time>2014-05-04T07:17:20.000Z</time>
      </trkpt>
      <trkpt lat="47.47364" lon="6.77561">
        <ele>316.2</ele>
        <time>2014-05-04T07:17:21.000Z</time>
      </trkpt>
      <trkpt lat="47.4736" lon="6.77562">
        <ele>316.9</ele>
        <time>2014-05-04T07:17:22.000Z</time>
      </trkpt>
      <trkpt lat="47.47357" lon="6.77563">
        <ele>317.6</ele>
        <time>2014-05-04T07:17:23.000Z</time>
      </trkpt>
      <trkpt lat="47.47353" lon="6.77563">
        <ele>318.5</ele>
        <time>2014-05-04T07:17:24.000Z</time>
      </trkpt>
      <trkpt lat="47.47351" lon="6.77563">
        <ele>319</ele>
        <time>2014-05-04T07:17:25.000Z</time>
      </trkpt>
      <trkpt lat="47.47348" lon="6.77563">
        <ele>319.3</ele>
        <time>2014-05-04T07:17:26.000Z</time>
      </trkpt>
      <trkpt lat="47.47345" lon="6.77563">
        <ele>319.4</ele>
        <time>2014-05-04T07:17:27.000Z</time>
      </trkpt>
      <trkpt lat="47.47342" lon="6.77563">
        <ele>318.8</ele>
        <time>2014-05-04T07:17:28.000Z</time>
      </trkpt>
      <trkpt lat="47.47339" lon="6.77563">
        <ele>318.9</ele>
        <time>2014-05-04T07:17:29.000Z</time>
      </trkpt>
      <trkpt lat="47.47336" lon="6.77563">
        <ele>319.2</ele>
        <time>2014-05-04T07:17:30.000Z</time>
      </trkpt>
      <trkpt lat="47.47333" lon="6.77563">
        <ele>319.4</ele>
        <time>2014-05-04T07:17:30.999Z</time>
      </trkpt>
      <trkpt lat="47.47329" lon="6.77563">
        <ele>319.8</ele>
        <time>2014-05-04T07:17:32.000Z</time>
      </trkpt>
      <trkpt lat="47.47326" lon="6.77563">
        <ele>320.4</ele>
        <time>2014-05-04T07:17:33.000Z</time>
      </trkpt>
      <trkpt lat="47.47323" lon="6.77563">
        <ele>320</ele>
        <time>2014-05-04T07:17:34.000Z</time>
      </trkpt>
      <trkpt lat="47.4732" lon="6.77563">
        <ele>320</ele>
        <time>2014-05-04T07:17:35.000Z</time>
      </trkpt>
      <trkpt lat="47.47317" lon="6.77563">
        <ele>320.6</ele>
        <time>2014-05-04T07:17:36.000Z</time>
      </trkpt>
      <trkpt lat="47.47314" lon="6.77563">
        <ele>320.2</ele>
        <time>2014-05-04T07:17:37.000Z</time>
      </trkpt>
      <trkpt lat="47.47312" lon="6.77563">
        <ele>319.9</ele>
        <time>2014-05-04T07:17:38.000Z</time>
      </trkpt>
      <trkpt lat="47.47309" lon="6.77564">
        <ele>320.4</ele>
        <time>2014-05-04T07:17:39.000Z</time>
      </trkpt>
      <trkpt lat="47.47306" lon="6.77564">
        <ele>320.8</ele>
        <time>2014-05-04T07:17:40.000Z</time>
      </trkpt>
      <trkpt lat="47.47303" lon="6.77564">
        <ele>321.4</ele>
        <time>2014-05-04T07:17:41.000Z</time>
      </trkpt>
      <trkpt lat="47.473" lon="6.77564">
        <ele>321.5</ele>
        <time>2014-05-04T07:17:42.000Z</time>
      </trkpt>
      <trkpt lat="47.47275" lon="6.77567">
        <ele>323.6</ele>
        <time>2014-05-04T07:17:50.000Z</time>
      </trkpt>
      <trkpt lat="47.47272" lon="6.77567">
        <ele>323.7</ele>
        <time>2014-05-04T07:17:51.000Z</time>
      </trkpt>
      <trkpt lat="47.4727" lon="6.77568">
        <ele>323.5</ele>
        <time>2014-05-04T07:17:52.000Z</time>
      </trkpt>
      <trkpt lat="47.47267" lon="6.77568">
        <ele>323.4</ele>
        <time>2014-05-04T07:17:53.000Z</time>
      </trkpt>
      <trkpt lat="47.47264" lon="6.77567">
        <ele>324</ele>
        <time>2014-05-04T07:17:54.000Z</time>
      </trkpt>
      <trkpt lat="47.47261" lon="6.77568">
        <ele>323.8</ele>
        <time>2014-05-04T07:17:55.000Z</time>
      </trkpt>
      <trkpt lat="47.47258" lon="6.77568">
        <ele>323.7</ele>
        <time>2014-05-04T07:17:56.000Z</time>
      </trkpt>
      <trkpt lat="47.47255" lon="6.77568">
        <ele>324</ele>
        <time>2014-05-04T07:17:56.999Z</time>
      </trkpt>
      <trkpt lat="47.47252" lon="6.77569">
        <ele>323.8</ele>
        <time>2014-05-04T07:17:58.000Z</time>
      </trkpt>
      <trkpt lat="47.47249" lon="6.77569">
        <ele>323.4</ele>
        <time>2014-05-04T07:17:59.000Z</time>
      </trkpt>
      <trkpt lat="47.47246" lon="6.77569">
        <ele>323.7</ele>
        <time>2014-05-04T07:18:00.000Z</time>
      </trkpt>
      <trkpt lat="47.47243" lon="6.77569">
        <ele>323.6</ele>
        <time>2014-05-04T07:18:01.000Z</time>
      </trkpt>
      <trkpt lat="47.47241" lon="6.77569">
        <ele>323.7</ele>
        <time>2014-05-04T07:18:02.000Z</time>
      </trkpt>
      <trkpt lat="47.47238" lon="6.7757">
        <ele>324</ele>
        <time>2014-05-04T07:18:03.000Z</time>
      </trkpt>
      <trkpt lat="47.47235" lon="6.77569">
        <ele>324.3</ele>
        <time>2014-05-04T07:18:04.000Z</time>
      </trkpt>
      <trkpt lat="47.47232" lon="6.77569">
        <ele>323.9</ele>
        <time>2014-05-04T07:18:05.000Z</time>
      </trkpt>
      <trkpt lat="47.4723" lon="6.77569">
        <ele>325.9</ele>
        <time>2014-05-04T07:18:06.000Z</time>
      </trkpt>
      <trkpt lat="47.47227" lon="6.77569">
        <ele>327.5</ele>
        <time>2014-05-04T07:18:07.000Z</time>
      </trkpt>
      <trkpt lat="47.47224" lon="6.77568">
        <ele>327.5</ele>
        <time>2014-05-04T07:18:08.000Z</time>
      </trkpt>
      <trkpt lat="47.47222" lon="6.77568">
        <ele>327.7</ele>
        <time>2014-05-04T07:18:09.000Z</time>
      </trkpt>
      <trkpt lat="47.4722" lon="6.77568">
        <ele>328.5</ele>
        <time>2014-05-04T07:18:10.000Z</time>
      </trkpt>
      <trkpt lat="47.47217" lon="6.77568">
        <ele>329</ele>
        <time>2014-05-04T07:18:11.000Z</time>
      </trkpt>
      <trkpt lat="47.47215" lon="6.77568">
        <ele>328.7</ele>
        <time>2014-05-04T07:18:12.000Z</time>
      </trkpt>
      <trkpt lat="47.47213" lon="6.77569">
        <ele>329.5</ele>
        <time>2014-05-04T07:18:13.000Z</time>
      </trkpt>
      <trkpt lat="47.4721" lon="6.77569">
        <ele>329.2</ele>
        <time>2014-05-04T07:18:14.000Z</time>
      </trkpt>
      <trkpt lat="47.47206" lon="6.77569">
        <ele>329.2</ele>
        <time>2014-05-04T07:18:15.000Z</time>
      </trkpt>
      <trkpt lat="47.47203" lon="6.77569">
        <ele>329.5</ele>
        <time>2014-05-04T07:18:16.000Z</time>
      </trkpt>
      <trkpt lat="47.47201" lon="6.77569">
        <ele>329.9</ele>
        <time>2014-05-04T07:18:17.000Z</time>
      </trkpt>
      <trkpt lat="47.47198" lon="6.7757">
        <ele>330</ele>
        <time>2014-05-04T07:18:18.000Z</time>
      </trkpt>
      <trkpt lat="47.47196" lon="6.7757">
        <ele>330.7</ele>
        <time>2014-05-04T07:18:19.000Z</time>
      </trkpt>
      <trkpt lat="47.47193" lon="6.7757">
        <ele>331.7</ele>
        <time>2014-05-04T07:18:20.000Z</time>
      </trkpt>
      <trkpt lat="47.4719" lon="6.77569">
        <ele>332.6</ele>
        <time>2014-05-04T07:18:22.000Z</time>
      </trkpt>
      <trkpt lat="47.47187" lon="6.77569">
        <ele>332.1</ele>
        <time>2014-05-04T07:18:23.000Z</time>
      </trkpt>
      <trkpt lat="47.47185" lon="6.77569">
        <ele>332.5</ele>
        <time>2014-05-04T07:18:24.000Z</time>
      </trkpt>
      <trkpt lat="47.47182" lon="6.77569">
        <ele>332.9</ele>
        <time>2014-05-04T07:18:25.000Z</time>
      </trkpt>
      <trkpt lat="47.4718" lon="6.77569">
        <ele>333.5</ele>
        <time>2014-05-04T07:18:26.000Z</time>
      </trkpt>
      <trkpt lat="47.47178" lon="6.77568">
        <ele>333.8</ele>
        <time>2014-05-04T07:18:27.000Z</time>
      </trkpt>
      <trkpt lat="47.47174" lon="6.77567">
        <ele>334.3</ele>
        <time>2014-05-04T07:18:29.000Z</time>
      </trkpt>
      <trkpt lat="47.47171" lon="6.77566">
        <ele>334.2</ele>
        <time>2014-05-04T07:18:30.000Z</time>
      </trkpt>
      <trkpt lat="47.47167" lon="6.77566">
        <ele>335.5</ele>
        <time>2014-05-04T07:18:32.000Z</time>
      </trkpt>
      <trkpt lat="47.47165" lon="6.77567">
        <ele>335.5</ele>
        <time>2014-05-04T07:18:33.000Z</time>
      </trkpt>
      <trkpt lat="47.47162" lon="6.77568">
        <ele>335.4</ele>
        <time>2014-05-04T07:18:34.000Z</time>
      </trkpt>
      <trkpt lat="47.4716" lon="6.77569">
        <ele>335.3</ele>
        <time>2014-05-04T07:18:35.000Z</time>
      </trkpt>
      <trkpt lat="47.47157" lon="6.77572">
        <ele>335.4</ele>
        <time>2014-05-04T07:18:36.000Z</time>
      </trkpt>
      <trkpt lat="47.47155" lon="6.77575">
        <ele>335.1</ele>
        <time>2014-05-04T07:18:37.000Z</time>
      </trkpt>
      <trkpt lat="47.47153" lon="6.77579">
        <ele>335.6</ele>
        <time>2014-05-04T07:18:38.000Z</time>
      </trkpt>
      <trkpt lat="47.47151" lon="6.77582">
        <ele>336.1</ele>
        <time>2014-05-04T07:18:39.000Z</time>
      </trkpt>
      <trkpt lat="47.47149" lon="6.77586">
        <ele>335.8</ele>
        <time>2014-05-04T07:18:40.000Z</time>
      </trkpt>
      <trkpt lat="47.47147" lon="6.7759">
        <ele>335.8</ele>
        <time>2014-05-04T07:18:41.000Z</time>
      </trkpt>
      <trkpt lat="47.47145" lon="6.77594">
        <ele>335.3</ele>
        <time>2014-05-04T07:18:42.000Z</time>
      </trkpt>
      <trkpt lat="47.47132" lon="6.77625">
        <ele>335.2</ele>
        <time>2014-05-04T07:18:50.000Z</time>
      </trkpt>
      <trkpt lat="47.47131" lon="6.77629">
        <ele>336.4</ele>
        <time>2014-05-04T07:18:51.000Z</time>
      </trkpt>
      <trkpt lat="47.4713" lon="6.77633">
        <ele>336</ele>
        <time>2014-05-04T07:18:52.000Z</time>
      </trkpt>
      <trkpt lat="47.47128" lon="6.77637">
        <ele>336.4</ele>
        <time>2014-05-04T07:18:53.001Z</time>
      </trkpt>
      <trkpt lat="47.47127" lon="6.77642">
        <ele>336.4</ele>
        <time>2014-05-04T07:18:54.000Z</time>
      </trkpt>
      <trkpt lat="47.47126" lon="6.77646">
        <ele>336.4</ele>
        <time>2014-05-04T07:18:55.000Z</time>
      </trkpt>
      <trkpt lat="47.47125" lon="6.7765">
        <ele>336.4</ele>
        <time>2014-05-04T07:18:56.000Z</time>
      </trkpt>
      <trkpt lat="47.47123" lon="6.77655">
        <ele>336.4</ele>
        <time>2014-05-04T07:18:57.000Z</time>
      </trkpt>
      <trkpt lat="47.47122" lon="6.7766">
        <ele>336.4</ele>
        <time>2014-05-04T07:18:58.000Z</time>
      </trkpt>
      <trkpt lat="47.4712" lon="6.77665">
        <ele>336.4</ele>
        <time>2014-05-04T07:18:59.000Z</time>
      </trkpt>
      <trkpt lat="47.47116" lon="6.7767">
        <ele>336.5</ele>
        <time>2014-05-04T07:19:00.000Z</time>
      </trkpt>
      <trkpt lat="47.47112" lon="6.77673">
        <ele>336</ele>
        <time>2014-05-04T07:19:01.000Z</time>
      </trkpt>
      <trkpt lat="47.47101" lon="6.7766">
        <ele>333.1</ele>
        <time>2014-05-04T07:19:02.000Z</time>
      </trkpt>
      <trkpt lat="47.47096" lon="6.77658">
        <ele>331.3</ele>
        <time>2014-05-04T07:19:03.000Z</time>
      </trkpt>
      <trkpt lat="47.47091" lon="6.77655">
        <ele>330.9</ele>
        <time>2014-05-04T07:19:04.000Z</time>
      </trkpt>
      <trkpt lat="47.47086" lon="6.7765">
        <ele>330.8</ele>
        <time>2014-05-04T07:19:05.000Z</time>
      </trkpt>
      <trkpt lat="47.47081" lon="6.77645">
        <ele>330.4</ele>
        <time>2014-05-04T07:19:06.000Z</time>
      </trkpt>
      <trkpt lat="47.47076" lon="6.7764">
        <ele>330.2</ele>
        <time>2014-05-04T07:19:07.000Z</time>
      </trkpt>
      <trkpt lat="47.4707" lon="6.77636">
        <ele>331.8</ele>
        <time>2014-05-04T07:19:08.000Z</time>
      </trkpt>
      <trkpt lat="47.47065" lon="6.77631">
        <ele>330.9</ele>
        <time>2014-05-04T07:19:09.000Z</time>
      </trkpt>
      <trkpt lat="47.47061" lon="6.77626">
        <ele>331.5</ele>
        <time>2014-05-04T07:19:10.000Z</time>
      </trkpt>
      <trkpt lat="47.47056" lon="6.77621">
        <ele>331.9</ele>
        <time>2014-05-04T07:19:11.000Z</time>
      </trkpt>
      <trkpt lat="47.47052" lon="6.77616">
        <ele>331.3</ele>
        <time>2014-05-04T07:19:12.000Z</time>
      </trkpt>
      <trkpt lat="47.47048" lon="6.77611">
        <ele>331.8</ele>
        <time>2014-05-04T07:19:13.000Z</time>
      </trkpt>
      <trkpt lat="47.47044" lon="6.77606">
        <ele>331.7</ele>
        <time>2014-05-04T07:19:14.000Z</time>
      </trkpt>
      <trkpt lat="47.4704" lon="6.77602">
        <ele>332.1</ele>
        <time>2014-05-04T07:19:15.000Z</time>
      </trkpt>
      <trkpt lat="47.47037" lon="6.77597">
        <ele>332.4</ele>
        <time>2014-05-04T07:19:16.000Z</time>
      </trkpt>
      <trkpt lat="47.47034" lon="6.77593">
        <ele>333</ele>
        <time>2014-05-04T07:19:17.000Z</time>
      </trkpt>
      <trkpt lat="47.47031" lon="6.77588">
        <ele>332.8</ele>
        <time>2014-05-04T07:19:18.000Z</time>
      </trkpt>
      <trkpt lat="47.47028" lon="6.77585">
        <ele>332.7</ele>
        <time>2014-05-04T07:19:19.000Z</time>
      </trkpt>
      <trkpt lat="47.47025" lon="6.77581">
        <ele>332.4</ele>
        <time>2014-05-04T07:19:20.000Z</time>
      </trkpt>
      <trkpt lat="47.47022" lon="6.77577">
        <ele>333</ele>
        <time>2014-05-04T07:19:21.000Z</time>
      </trkpt>
      <trkpt lat="47.4702" lon="6.77573">
        <ele>333.9</ele>
        <time>2014-05-04T07:19:22.000Z</time>
      </trkpt>
      <trkpt lat="47.47017" lon="6.7757">
        <ele>334.2</ele>
        <time>2014-05-04T07:19:23.000Z</time>
      </trkpt>
      <trkpt lat="47.47015" lon="6.77567">
        <ele>334.4</ele>
        <time>2014-05-04T07:19:24.000Z</time>
      </trkpt>
      <trkpt lat="47.47012" lon="6.77564">
        <ele>333.8</ele>
        <time>2014-05-04T07:19:25.000Z</time>
      </trkpt>
      <trkpt lat="47.47009" lon="6.7756">
        <ele>334.3</ele>
        <time>2014-05-04T07:19:26.000Z</time>
      </trkpt>
      <trkpt lat="47.47007" lon="6.77557">
        <ele>334.7</ele>
        <time>2014-05-04T07:19:27.000Z</time>
      </trkpt>
      <trkpt lat="47.47004" lon="6.77553">
        <ele>334.9</ele>
        <time>2014-05-04T07:19:28.000Z</time>
      </trkpt>
      <trkpt lat="47.47002" lon="6.7755">
        <ele>334.9</ele>
        <time>2014-05-04T07:19:29.000Z</time>
      </trkpt>
      <trkpt lat="47.47" lon="6.77547">
        <ele>334.7</ele>
        <time>2014-05-04T07:19:30.000Z</time>
      </trkpt>
      <trkpt lat="47.46998" lon="6.77544">
        <ele>334.5</ele>
        <time>2014-05-04T07:19:31.000Z</time>
      </trkpt>
      <trkpt lat="47.46996" lon="6.77541">
        <ele>335.2</ele>
        <time>2014-05-04T07:19:32.000Z</time>
      </trkpt>
      <trkpt lat="47.46994" lon="6.77539">
        <ele>334.6</ele>
        <time>2014-05-04T07:19:33.000Z</time>
      </trkpt>
      <trkpt lat="47.46992" lon="6.77536">
        <ele>334.1</ele>
        <time>2014-05-04T07:19:34.000Z</time>
      </trkpt>
      <trkpt lat="47.4699" lon="6.77532">
        <ele>334.7</ele>
        <time>2014-05-04T07:19:35.000Z</time>
      </trkpt>
      <trkpt lat="47.46988" lon="6.77529">
        <ele>335.1</ele>
        <time>2014-05-04T07:19:36.000Z</time>
      </trkpt>
      <trkpt lat="47.46986" lon="6.77525">
        <ele>334.7</ele>
        <time>2014-05-04T07:19:37.000Z</time>
      </trkpt>
      <trkpt lat="47.46984" lon="6.77521">
        <ele>335</ele>
        <time>2014-05-04T07:19:38.000Z</time>
      </trkpt>
      <trkpt lat="47.46981" lon="6.77517">
        <ele>335.2</ele>
        <time>2014-05-04T07:19:39.000Z</time>
      </trkpt>
      <trkpt lat="47.46979" lon="6.77514">
        <ele>336.4</ele>
        <time>2014-05-04T07:19:40.000Z</time>
      </trkpt>
      <trkpt lat="47.46977" lon="6.7751">
        <ele>337.1</ele>
        <time>2014-05-04T07:19:41.000Z</time>
      </trkpt>
      <trkpt lat="47.46975" lon="6.77507">
        <ele>337.4</ele>
        <time>2014-05-04T07:19:42.000Z</time>
      </trkpt>
      <trkpt lat="47.46962" lon="6.77481">
        <ele>337.2</ele>
        <time>2014-05-04T07:19:50.000Z</time>
      </trkpt>
      <trkpt lat="47.4696" lon="6.77477">
        <ele>337.1</ele>
        <time>2014-05-04T07:19:51.000Z</time>
      </trkpt>
      <trkpt lat="47.46959" lon="6.77473">
        <ele>337.2</ele>
        <time>2014-05-04T07:19:52.000Z</time>
      </trkpt>
      <trkpt lat="47.46957" lon="6.77469">
        <ele>338</ele>
        <time>2014-05-04T07:19:53.000Z</time>
      </trkpt>
      <trkpt lat="47.46955" lon="6.77465">
        <ele>338.7</ele>
        <time>2014-05-04T07:19:54.000Z</time>
      </trkpt>
      <trkpt lat="47.46952" lon="6.77461">
        <ele>339</ele>
        <time>2014-05-04T07:19:55.000Z</time>
      </trkpt>
      <trkpt lat="47.4695" lon="6.77458">
        <ele>338.6</ele>
        <time>2014-05-04T07:19:56.000Z</time>
      </trkpt>
      <trkpt lat="47.46948" lon="6.77454">
        <ele>338.7</ele>
        <time>2014-05-04T07:19:57.000Z</time>
      </trkpt>
      <trkpt lat="47.46946" lon="6.77452">
        <ele>339</ele>
        <time>2014-05-04T07:19:58.000Z</time>
      </trkpt>
      <trkpt lat="47.46944" lon="6.77449">
        <ele>339.4</ele>
        <time>2014-05-04T07:19:59.000Z</time>
      </trkpt>
      <trkpt lat="47.46942" lon="6.77446">
        <ele>340.3</ele>
        <time>2014-05-04T07:20:00.000Z</time>
      </trkpt>
      <trkpt lat="47.46941" lon="6.77443">
        <ele>341</ele>
        <time>2014-05-04T07:20:01.000Z</time>
      </trkpt>
      <trkpt lat="47.4694" lon="6.77439">
        <ele>341.6</ele>
        <time>2014-05-04T07:20:02.000Z</time>
      </trkpt>
      <trkpt lat="47.46939" lon="6.77436">
        <ele>341.8</ele>
        <time>2014-05-04T07:20:03.000Z</time>
      </trkpt>
      <trkpt lat="47.46938" lon="6.77433">
        <ele>341.6</ele>
        <time>2014-05-04T07:20:04.000Z</time>
      </trkpt>
      <trkpt lat="47.46936" lon="6.7743">
        <ele>341</ele>
        <time>2014-05-04T07:20:05.000Z</time>
      </trkpt>
      <trkpt lat="47.46934" lon="6.77427">
        <ele>341.1</ele>
        <time>2014-05-04T07:20:06.000Z</time>
      </trkpt>
      <trkpt lat="47.46932" lon="6.77424">
        <ele>340.9</ele>
        <time>2014-05-04T07:20:07.000Z</time>
      </trkpt>
      <trkpt lat="47.46929" lon="6.77422">
        <ele>339.6</ele>
        <time>2014-05-04T07:20:08.000Z</time>
      </trkpt>
      <trkpt lat="47.46926" lon="6.7742">
        <ele>339.6</ele>
        <time>2014-05-04T07:20:09.000Z</time>
      </trkpt>
      <trkpt lat="47.46923" lon="6.77419">
        <ele>339.7</ele>
        <time>2014-05-04T07:20:10.000Z</time>
      </trkpt>
      <trkpt lat="47.4692" lon="6.77419">
        <ele>340.5</ele>
        <time>2014-05-04T07:20:11.000Z</time>
      </trkpt>
      <trkpt lat="47.46917" lon="6.77421">
        <ele>340.8</ele>
        <time>2014-05-04T07:20:12.000Z</time>
      </trkpt>
      <trkpt lat="47.46914" lon="6.77423">
        <ele>340.9</ele>
        <time>2014-05-04T07:20:13.000Z</time>
      </trkpt>
      <trkpt lat="47.46912" lon="6.77426">
        <ele>341</ele>
        <time>2014-05-04T07:20:14.000Z</time>
      </trkpt>
      <trkpt lat="47.46909" lon="6.77429">
        <ele>341.1</ele>
        <time>2014-05-04T07:20:15.000Z</time>
      </trkpt>
      <trkpt lat="47.46907" lon="6.77431">
        <ele>340.6</ele>
        <time>2014-05-04T07:20:16.000Z</time>
      </trkpt>
      <trkpt lat="47.46905" lon="6.77434">
        <ele>341.2</ele>
        <time>2014-05-04T07:20:17.000Z</time>
      </trkpt>
      <trkpt lat="47.46903" lon="6.77437">
        <ele>341.3</ele>
        <time>2014-05-04T07:20:18.000Z</time>
      </trkpt>
      <trkpt lat="47.46901" lon="6.77439">
        <ele>341.2</ele>
        <time>2014-05-04T07:20:19.000Z</time>
      </trkpt>
      <trkpt lat="47.46898" lon="6.77441">
        <ele>341.5</ele>
        <time>2014-05-04T07:20:20.000Z</time>
      </trkpt>
      <trkpt lat="47.46896" lon="6.77442">
        <ele>341.4</ele>
        <time>2014-05-04T07:20:21.000Z</time>
      </trkpt>
      <trkpt lat="47.46894" lon="6.77444">
        <ele>341.4</ele>
        <time>2014-05-04T07:20:22.000Z</time>
      </trkpt>
      <trkpt lat="47.46892" lon="6.77445">
        <ele>340.8</ele>
        <time>2014-05-04T07:20:23.000Z</time>
      </trkpt>
      <trkpt lat="47.46889" lon="6.77446">
        <ele>340.9</ele>
        <time>2014-05-04T07:20:24.000Z</time>
      </trkpt>
      <trkpt lat="47.46887" lon="6.77447">
        <ele>341.4</ele>
        <time>2014-05-04T07:20:25.000Z</time>
      </trkpt>
      <trkpt lat="47.46884" lon="6.77448">
        <ele>342.1</ele>
        <time>2014-05-04T07:20:26.000Z</time>
      </trkpt>
      <trkpt lat="47.46882" lon="6.77448">
        <ele>342.3</ele>
        <time>2014-05-04T07:20:27.000Z</time>
      </trkpt>
      <trkpt lat="47.46879" lon="6.77448">
        <ele>341.4</ele>
        <time>2014-05-04T07:20:28.000Z</time>
      </trkpt>
      <trkpt lat="47.46877" lon="6.77448">
        <ele>341.1</ele>
        <time>2014-05-04T07:20:29.000Z</time>
      </trkpt>
      <trkpt lat="47.46874" lon="6.77448">
        <ele>341.3</ele>
        <time>2014-05-04T07:20:30.000Z</time>
      </trkpt>
      <trkpt lat="47.46872" lon="6.77447">
        <ele>341.6</ele>
        <time>2014-05-04T07:20:31.000Z</time>
      </trkpt>
      <trkpt lat="47.4687" lon="6.77447">
        <ele>343.2</ele>
        <time>2014-05-04T07:20:32.000Z</time>
      </trkpt>
      <trkpt lat="47.46865" lon="6.77446">
        <ele>345.6</ele>
        <time>2014-05-04T07:20:34.000Z</time>
      </trkpt>
      <trkpt lat="47.46863" lon="6.77445">
        <ele>344.8</ele>
        <time>2014-05-04T07:20:35.000Z</time>
      </trkpt>
      <trkpt lat="47.46859" lon="6.77443">
        <ele>343.9</ele>
        <time>2014-05-04T07:20:36.999Z</time>
      </trkpt>
      <trkpt lat="47.46856" lon="6.77443">
        <ele>343.2</ele>
        <time>2014-05-04T07:20:38.000Z</time>
      </trkpt>
      <trkpt lat="47.46853" lon="6.77442">
        <ele>345.3</ele>
        <time>2014-05-04T07:20:39.000Z</time>
      </trkpt>
      <trkpt lat="47.46851" lon="6.7744">
        <ele>347.4</ele>
        <time>2014-05-04T07:20:40.000Z</time>
      </trkpt>
      <trkpt lat="47.46848" lon="6.77439">
        <ele>344.4</ele>
        <time>2014-05-04T07:20:41.000Z</time>
      </trkpt>
      <trkpt lat="47.46827" lon="6.77443">
        <ele>345.7</ele>
        <time>2014-05-04T07:20:50.000Z</time>
      </trkpt>
      <trkpt lat="47.46825" lon="6.77446">
        <ele>346</ele>
        <time>2014-05-04T07:20:51.000Z</time>
      </trkpt>
      <trkpt lat="47.46824" lon="6.7745">
        <ele>346</ele>
        <time>2014-05-04T07:20:52.000Z</time>
      </trkpt>
      <trkpt lat="47.46823" lon="6.77452">
        <ele>346.3</ele>
        <time>2014-05-04T07:20:53.000Z</time>
      </trkpt>
      <trkpt lat="47.46822" lon="6.77456">
        <ele>347.4</ele>
        <time>2014-05-04T07:20:54.000Z</time>
      </trkpt>
      <trkpt lat="47.46821" lon="6.77462">
        <ele>347.4</ele>
        <time>2014-05-04T07:20:56.000Z</time>
      </trkpt>
      <trkpt lat="47.4682" lon="6.77464">
        <ele>347.6</ele>
        <time>2014-05-04T07:20:57.001Z</time>
      </trkpt>
      <trkpt lat="47.4682" lon="6.7747">
        <ele>351.3</ele>
        <time>2014-05-04T07:20:59.000Z</time>
      </trkpt>
      <trkpt lat="47.46819" lon="6.77472">
        <ele>351.3</ele>
        <time>2014-05-04T07:21:00.000Z</time>
      </trkpt>
      <trkpt lat="47.46816" lon="6.77477">
        <ele>355.7</ele>
        <time>2014-05-04T07:21:03.000Z</time>
      </trkpt>
      <trkpt lat="47.46815" lon="6.77478">
        <ele>357.3</ele>
        <time>2014-05-04T07:21:04.001Z</time>
      </trkpt>
      <trkpt lat="47.46816" lon="6.77483">
        <ele>357</ele>
        <time>2014-05-04T07:21:05.999Z</time>
      </trkpt>
      <trkpt lat="47.46816" lon="6.77487">
        <ele>356.9</ele>
        <time>2014-05-04T07:21:07.001Z</time>
      </trkpt>
      <trkpt lat="47.46817" lon="6.77493">
        <ele>361</ele>
        <time>2014-05-04T07:21:09.000Z</time>
      </trkpt>
      <trkpt lat="47.46817" lon="6.77495">
        <ele>360.6</ele>
        <time>2014-05-04T07:21:10.000Z</time>
      </trkpt>
      <trkpt lat="47.46817" lon="6.77501">
        <ele>365.4</ele>
        <time>2014-05-04T07:21:13.000Z</time>
      </trkpt>
      <trkpt lat="47.46817" lon="6.77503">
        <ele>364.9</ele>
        <time>2014-05-04T07:21:14.000Z</time>
      </trkpt>
      <trkpt lat="47.46816" lon="6.77508">
        <ele>365.1</ele>
        <time>2014-05-04T07:21:16.000Z</time>
      </trkpt>
      <trkpt lat="47.46816" lon="6.7751">
        <ele>365.8</ele>
        <time>2014-05-04T07:21:17.000Z</time>
      </trkpt>
      <trkpt lat="47.46814" lon="6.77514">
        <ele>366.7</ele>
        <time>2014-05-04T07:21:19.000Z</time>
      </trkpt>
      <trkpt lat="47.46813" lon="6.77516">
        <ele>367.3</ele>
        <time>2014-05-04T07:21:20.000Z</time>
      </trkpt>
      <trkpt lat="47.46811" lon="6.77519">
        <ele>367.8</ele>
        <time>2014-05-04T07:21:22.000Z</time>
      </trkpt>
      <trkpt lat="47.46811" lon="6.77522">
        <ele>368.1</ele>
        <time>2014-05-04T07:21:23.000Z</time>
      </trkpt>
      <trkpt lat="47.4681" lon="6.77527">
        <ele>370.1</ele>
        <time>2014-05-04T07:21:25.000Z</time>
      </trkpt>
      <trkpt lat="47.46809" lon="6.7753">
        <ele>370.5</ele>
        <time>2014-05-04T07:21:26.000Z</time>
      </trkpt>
      <trkpt lat="47.46807" lon="6.77535">
        <ele>368.9</ele>
        <time>2014-05-04T07:21:28.000Z</time>
      </trkpt>
      <trkpt lat="47.46806" lon="6.77538">
        <ele>367.8</ele>
        <time>2014-05-04T07:21:29.000Z</time>
      </trkpt>
      <trkpt lat="47.46805" lon="6.77544">
        <ele>367.6</ele>
        <time>2014-05-04T07:21:31.000Z</time>
      </trkpt>
      <trkpt lat="47.46804" lon="6.77546">
        <ele>367.8</ele>
        <time>2014-05-04T07:21:32.000Z</time>
      </trkpt>
      <trkpt lat="47.46804" lon="6.77551">
        <ele>368.2</ele>
        <time>2014-05-04T07:21:34.000Z</time>
      </trkpt>
      <trkpt lat="47.46803" lon="6.77553">
        <ele>371.4</ele>
        <time>2014-05-04T07:21:35.000Z</time>
      </trkpt>
      <trkpt lat="47.46803" lon="6.77558">
        <ele>373.1</ele>
        <time>2014-05-04T07:21:37.000Z</time>
      </trkpt>
      <trkpt lat="47.46803" lon="6.7756">
        <ele>374.4</ele>
        <time>2014-05-04T07:21:38.000Z</time>
      </trkpt>
      <trkpt lat="47.46801" lon="6.77566">
        <ele>373.9</ele>
        <time>2014-05-04T07:21:41.000Z</time>
      </trkpt>
      <trkpt lat="47.46799" lon="6.77572">
        <ele>374.9</ele>
        <time>2014-05-04T07:21:44.000Z</time>
      </trkpt>
      <trkpt lat="47.46798" lon="6.77577">
        <ele>374.7</ele>
        <time>2014-05-04T07:21:46.000Z</time>
      </trkpt>
      <trkpt lat="47.46797" lon="6.77579">
        <ele>374.2</ele>
        <time>2014-05-04T07:21:47.000Z</time>
      </trkpt>
      <trkpt lat="47.46795" lon="6.77584">
        <ele>374.9</ele>
        <time>2014-05-04T07:21:49.000Z</time>
      </trkpt>
      <trkpt lat="47.46794" lon="6.77586">
        <ele>374.6</ele>
        <time>2014-05-04T07:21:50.000Z</time>
      </trkpt>
      <trkpt lat="47.46793" lon="6.77592">
        <ele>376</ele>
        <time>2014-05-04T07:21:52.000Z</time>
      </trkpt>
      <trkpt lat="47.46793" lon="6.77595">
        <ele>376.4</ele>
        <time>2014-05-04T07:21:53.000Z</time>
      </trkpt>
      <trkpt lat="47.4679" lon="6.776">
        <ele>379.3</ele>
        <time>2014-05-04T07:21:56.000Z</time>
      </trkpt>
      <trkpt lat="47.4679" lon="6.77601">
        <ele>378.9</ele>
        <time>2014-05-04T07:21:57.000Z</time>
      </trkpt>
      <trkpt lat="47.46788" lon="6.77604">
        <ele>380.7</ele>
        <time>2014-05-04T07:22:00.000Z</time>
      </trkpt>
      <trkpt lat="47.46787" lon="6.77607">
        <ele>380.3</ele>
        <time>2014-05-04T07:22:01.000Z</time>
      </trkpt>
      <trkpt lat="47.46785" lon="6.77612">
        <ele>381.1</ele>
        <time>2014-05-04T07:22:03.000Z</time>
      </trkpt>
      <trkpt lat="47.46783" lon="6.77615">
        <ele>381.9</ele>
        <time>2014-05-04T07:22:04.000Z</time>
      </trkpt>
      <trkpt lat="47.46782" lon="6.77621">
        <ele>382.4</ele>
        <time>2014-05-04T07:22:06.000Z</time>
      </trkpt>
      <trkpt lat="47.46781" lon="6.77624">
        <ele>381.7</ele>
        <time>2014-05-04T07:22:07.000Z</time>
      </trkpt>
      <trkpt lat="47.4678" lon="6.77628">
        <ele>380.3</ele>
        <time>2014-05-04T07:22:08.000Z</time>
      </trkpt>
      <trkpt lat="47.46779" lon="6.77632">
        <ele>382.2</ele>
        <time>2014-05-04T07:22:09.000Z</time>
      </trkpt>
      <trkpt lat="47.46779" lon="6.77636">
        <ele>381.6</ele>
        <time>2014-05-04T07:22:10.000Z</time>
      </trkpt>
      <trkpt lat="47.4678" lon="6.77639">
        <ele>383.7</ele>
        <time>2014-05-04T07:22:11.000Z</time>
      </trkpt>
      <trkpt lat="47.46781" lon="6.77643">
        <ele>385.3</ele>
        <time>2014-05-04T07:22:12.000Z</time>
      </trkpt>
      <trkpt lat="47.46781" lon="6.77647">
        <ele>384.2</ele>
        <time>2014-05-04T07:22:13.000Z</time>
      </trkpt>
      <trkpt lat="47.4678" lon="6.77651">
        <ele>383.6</ele>
        <time>2014-05-04T07:22:14.000Z</time>
      </trkpt>
      <trkpt lat="47.46779" lon="6.77655">
        <ele>382.7</ele>
        <time>2014-05-04T07:22:15.000Z</time>
      </trkpt>
      <trkpt lat="47.46778" lon="6.77659">
        <ele>381.7</ele>
        <time>2014-05-04T07:22:16.000Z</time>
      </trkpt>
      <trkpt lat="47.46777" lon="6.77663">
        <ele>385.9</ele>
        <time>2014-05-04T07:22:17.000Z</time>
      </trkpt>
      <trkpt lat="47.46776" lon="6.77667">
        <ele>386.4</ele>
        <time>2014-05-04T07:22:18.000Z</time>
      </trkpt>
      <trkpt lat="47.46775" lon="6.77671">
        <ele>388.7</ele>
        <time>2014-05-04T07:22:19.000Z</time>
      </trkpt>
      <trkpt lat="47.46774" lon="6.77675">
        <ele>388.2</ele>
        <time>2014-05-04T07:22:20.000Z</time>
      </trkpt>
      <trkpt lat="47.46773" lon="6.7768">
        <ele>388.6</ele>
        <time>2014-05-04T07:22:21.000Z</time>
      </trkpt>
      <trkpt lat="47.46772" lon="6.77685">
        <ele>388.6</ele>
        <time>2014-05-04T07:22:22.000Z</time>
      </trkpt>
      <trkpt lat="47.46771" lon="6.77691">
        <ele>388.1</ele>
        <time>2014-05-04T07:22:23.000Z</time>
      </trkpt>
      <trkpt lat="47.4677" lon="6.77697">
        <ele>387.4</ele>
        <time>2014-05-04T07:22:24.000Z</time>
      </trkpt>
      <trkpt lat="47.4677" lon="6.77702">
        <ele>386.8</ele>
        <time>2014-05-04T07:22:25.000Z</time>
      </trkpt>
      <trkpt lat="47.46769" lon="6.77706">
        <ele>386.5</ele>
        <time>2014-05-04T07:22:26.000Z</time>
      </trkpt>
      <trkpt lat="47.46768" lon="6.77711">
        <ele>389.7</ele>
        <time>2014-05-04T07:22:27.000Z</time>
      </trkpt>
      <trkpt lat="47.46767" lon="6.77716">
        <ele>389.9</ele>
        <time>2014-05-04T07:22:28.000Z</time>
      </trkpt>
      <trkpt lat="47.46767" lon="6.77722">
        <ele>389.6</ele>
        <time>2014-05-04T07:22:29.000Z</time>
      </trkpt>
      <trkpt lat="47.46766" lon="6.77728">
        <ele>388.8</ele>
        <time>2014-05-04T07:22:30.000Z</time>
      </trkpt>
      <trkpt lat="47.46766" lon="6.77734">
        <ele>387.8</ele>
        <time>2014-05-04T07:22:31.000Z</time>
      </trkpt>
      <trkpt lat="47.46766" lon="6.7774">
        <ele>387.3</ele>
        <time>2014-05-04T07:22:32.000Z</time>
      </trkpt>
      <trkpt lat="47.46765" lon="6.77747">
        <ele>385.4</ele>
        <time>2014-05-04T07:22:33.000Z</time>
      </trkpt>
      <trkpt lat="47.46765" lon="6.77755">
        <ele>385.1</ele>
        <time>2014-05-04T07:22:34.000Z</time>
      </trkpt>
      <trkpt lat="47.46765" lon="6.77762">
        <ele>384.6</ele>
        <time>2014-05-04T07:22:35.000Z</time>
      </trkpt>
      <trkpt lat="47.46764" lon="6.77769">
        <ele>383.9</ele>
        <time>2014-05-04T07:22:36.000Z</time>
      </trkpt>
      <trkpt lat="47.46764" lon="6.77776">
        <ele>384</ele>
        <time>2014-05-04T07:22:37.000Z</time>
      </trkpt>
      <trkpt lat="47.46764" lon="6.77783">
        <ele>384.5</ele>
        <time>2014-05-04T07:22:38.000Z</time>
      </trkpt>
      <trkpt lat="47.46763" lon="6.77789">
        <ele>385.1</ele>
        <time>2014-05-04T07:22:39.000Z</time>
      </trkpt>
      <trkpt lat="47.46762" lon="6.77795">
        <ele>384.7</ele>
        <time>2014-05-04T07:22:40.000Z</time>
      </trkpt>
      <trkpt lat="47.4676" lon="6.77802">
        <ele>384.6</ele>
        <time>2014-05-04T07:22:41.000Z</time>
      </trkpt>
      <trkpt lat="47.46755" lon="6.77823">
        <ele>381.3</ele>
        <time>2014-05-04T07:22:45.000Z</time>
      </trkpt>
      <trkpt lat="47.46753" lon="6.77828">
        <ele>380.7</ele>
        <time>2014-05-04T07:22:46.000Z</time>
      </trkpt>
      <trkpt lat="47.46752" lon="6.77834">
        <ele>379.4</ele>
        <time>2014-05-04T07:22:47.000Z</time>
      </trkpt>
      <trkpt lat="47.46751" lon="6.7784">
        <ele>378.1</ele>
        <time>2014-05-04T07:22:48.000Z</time>
      </trkpt>
      <trkpt lat="47.46749" lon="6.77845">
        <ele>379.5</ele>
        <time>2014-05-04T07:22:49.000Z</time>
      </trkpt>
      <trkpt lat="47.46747" lon="6.77851">
        <ele>381.2</ele>
        <time>2014-05-04T07:22:50.000Z</time>
      </trkpt>
      <trkpt lat="47.46745" lon="6.77857">
        <ele>381</ele>
        <time>2014-05-04T07:22:51.000Z</time>
      </trkpt>
      <trkpt lat="47.46744" lon="6.77862">
        <ele>382.2</ele>
        <time>2014-05-04T07:22:52.000Z</time>
      </trkpt>
      <trkpt lat="47.46743" lon="6.77867">
        <ele>382</ele>
        <time>2014-05-04T07:22:53.000Z</time>
      </trkpt>
      <trkpt lat="47.46742" lon="6.77871">
        <ele>381.4</ele>
        <time>2014-05-04T07:22:54.000Z</time>
      </trkpt>
      <trkpt lat="47.46741" lon="6.77876">
        <ele>382.5</ele>
        <time>2014-05-04T07:22:55.000Z</time>
      </trkpt>
      <trkpt lat="47.46739" lon="6.7788">
        <ele>384.4</ele>
        <time>2014-05-04T07:22:56.000Z</time>
      </trkpt>
      <trkpt lat="47.46738" lon="6.77884">
        <ele>384</ele>
        <time>2014-05-04T07:22:57.000Z</time>
      </trkpt>
      <trkpt lat="47.46736" lon="6.77889">
        <ele>384</ele>
        <time>2014-05-04T07:22:58.000Z</time>
      </trkpt>
      <trkpt lat="47.46734" lon="6.77892">
        <ele>383.6</ele>
        <time>2014-05-04T07:22:59.000Z</time>
      </trkpt>
      <trkpt lat="47.46731" lon="6.77896">
        <ele>382.8</ele>
        <time>2014-05-04T07:23:00.000Z</time>
      </trkpt>
      <trkpt lat="47.46729" lon="6.77899">
        <ele>382.1</ele>
        <time>2014-05-04T07:23:01.000Z</time>
      </trkpt>
      <trkpt lat="47.46726" lon="6.77903">
        <ele>381</ele>
        <time>2014-05-04T07:23:02.000Z</time>
      </trkpt>
      <trkpt lat="47.46723" lon="6.77907">
        <ele>380.9</ele>
        <time>2014-05-04T07:23:03.000Z</time>
      </trkpt>
      <trkpt lat="47.4672" lon="6.77911">
        <ele>381</ele>
        <time>2014-05-04T07:23:04.000Z</time>
      </trkpt>
      <trkpt lat="47.46718" lon="6.77915">
        <ele>380</ele>
        <time>2014-05-04T07:23:05.000Z</time>
      </trkpt>
      <trkpt lat="47.46715" lon="6.77919">
        <ele>379.4</ele>
        <time>2014-05-04T07:23:06.000Z</time>
      </trkpt>
      <trkpt lat="47.46713" lon="6.77924">
        <ele>378.3</ele>
        <time>2014-05-04T07:23:07.000Z</time>
      </trkpt>
      <trkpt lat="47.46711" lon="6.77929">
        <ele>380.2</ele>
        <time>2014-05-04T07:23:08.000Z</time>
      </trkpt>
      <trkpt lat="47.4671" lon="6.77934">
        <ele>380.2</ele>
        <time>2014-05-04T07:23:09.000Z</time>
      </trkpt>
      <trkpt lat="47.4671" lon="6.77939">
        <ele>380.6</ele>
        <time>2014-05-04T07:23:10.000Z</time>
      </trkpt>
      <trkpt lat="47.4671" lon="6.77945">
        <ele>384.1</ele>
        <time>2014-05-04T07:23:11.000Z</time>
      </trkpt>
      <trkpt lat="47.4671" lon="6.77951">
        <ele>384.8</ele>
        <time>2014-05-04T07:23:12.000Z</time>
      </trkpt>
      <trkpt lat="47.46711" lon="6.77957">
        <ele>385.4</ele>
        <time>2014-05-04T07:23:13.000Z</time>
      </trkpt>
      <trkpt lat="47.46711" lon="6.77963">
        <ele>385.6</ele>
        <time>2014-05-04T07:23:14.000Z</time>
      </trkpt>
      <trkpt lat="47.4671" lon="6.77969">
        <ele>385.2</ele>
        <time>2014-05-04T07:23:15.000Z</time>
      </trkpt>
      <trkpt lat="47.46709" lon="6.77974">
        <ele>384.9</ele>
        <time>2014-05-04T07:23:16.000Z</time>
      </trkpt>
      <trkpt lat="47.46708" lon="6.77979">
        <ele>384.9</ele>
        <time>2014-05-04T07:23:17.000Z</time>
      </trkpt>
      <trkpt lat="47.46706" lon="6.77984">
        <ele>384.6</ele>
        <time>2014-05-04T07:23:18.000Z</time>
      </trkpt>
      <trkpt lat="47.46705" lon="6.77989">
        <ele>387.7</ele>
        <time>2014-05-04T07:23:19.000Z</time>
      </trkpt>
      <trkpt lat="47.46704" lon="6.77995">
        <ele>387.2</ele>
        <time>2014-05-04T07:23:20.000Z</time>
      </trkpt>
      <trkpt lat="47.46702" lon="6.78001">
        <ele>388</ele>
        <time>2014-05-04T07:23:21.000Z</time>
      </trkpt>
      <trkpt lat="47.46701" lon="6.78007">
        <ele>388.1</ele>
        <time>2014-05-04T07:23:22.000Z</time>
      </trkpt>
      <trkpt lat="47.46698" lon="6.78012">
        <ele>386.8</ele>
        <time>2014-05-04T07:23:23.000Z</time>
      </trkpt>
      <trkpt lat="47.46696" lon="6.78017">
        <ele>387.5</ele>
        <time>2014-05-04T07:23:24.000Z</time>
      </trkpt>
      <trkpt lat="47.46693" lon="6.78023">
        <ele>386.5</ele>
        <time>2014-05-04T07:23:25.000Z</time>
      </trkpt>
      <trkpt lat="47.4669" lon="6.7803">
        <ele>384.6</ele>
        <time>2014-05-04T07:23:26.000Z</time>
      </trkpt>
      <trkpt lat="47.46687" lon="6.78037">
        <ele>384.8</ele>
        <time>2014-05-04T07:23:27.000Z</time>
      </trkpt>
      <trkpt lat="47.46681" lon="6.78061">
        <ele>386.5</ele>
        <time>2014-05-04T07:23:28.000Z</time>
      </trkpt>
      <trkpt lat="47.46677" lon="6.78068">
        <ele>386.1</ele>
        <time>2014-05-04T07:23:29.000Z</time>
      </trkpt>
      <trkpt lat="47.46675" lon="6.78075">
        <ele>385.6</ele>
        <time>2014-05-04T07:23:30.000Z</time>
      </trkpt>
      <trkpt lat="47.46673" lon="6.78081">
        <ele>384.2</ele>
        <time>2014-05-04T07:23:31.000Z</time>
      </trkpt>
      <trkpt lat="47.46671" lon="6.78088">
        <ele>383.7</ele>
        <time>2014-05-04T07:23:32.000Z</time>
      </trkpt>
      <trkpt lat="47.46668" lon="6.78094">
        <ele>382</ele>
        <time>2014-05-04T07:23:33.000Z</time>
      </trkpt>
      <trkpt lat="47.46666" lon="6.78099">
        <ele>380.8</ele>
        <time>2014-05-04T07:23:34.000Z</time>
      </trkpt>
      <trkpt lat="47.46664" lon="6.78102">
        <ele>379.8</ele>
        <time>2014-05-04T07:23:35.000Z</time>
      </trkpt>
      <trkpt lat="47.46662" lon="6.78106">
        <ele>378.6</ele>
        <time>2014-05-04T07:23:36.000Z</time>
      </trkpt>
      <trkpt lat="47.46659" lon="6.7811">
        <ele>377.6</ele>
        <time>2014-05-04T07:23:37.000Z</time>
      </trkpt>
      <trkpt lat="47.46657" lon="6.78114">
        <ele>376.7</ele>
        <time>2014-05-04T07:23:38.000Z</time>
      </trkpt>
      <trkpt lat="47.46655" lon="6.78117">
        <ele>374.8</ele>
        <time>2014-05-04T07:23:39.000Z</time>
      </trkpt>
      <trkpt lat="47.46653" lon="6.7812">
        <ele>373.4</ele>
        <time>2014-05-04T07:23:40.000Z</time>
      </trkpt>
      <trkpt lat="47.46651" lon="6.78123">
        <ele>371.9</ele>
        <time>2014-05-04T07:23:41.000Z</time>
      </trkpt>
      <trkpt lat="47.46649" lon="6.78125">
        <ele>370.9</ele>
        <time>2014-05-04T07:23:42.000Z</time>
      </trkpt>
      <trkpt lat="47.46644" lon="6.78132">
        <ele>369.8</ele>
        <time>2014-05-04T07:23:45.000Z</time>
      </trkpt>
      <trkpt lat="47.46643" lon="6.78134">
        <ele>370.1</ele>
        <time>2014-05-04T07:23:46.000Z</time>
      </trkpt>
      <trkpt lat="47.46641" lon="6.78137">
        <ele>371.7</ele>
        <time>2014-05-04T07:23:47.000Z</time>
      </trkpt>
      <trkpt lat="47.46639" lon="6.7814">
        <ele>371.7</ele>
        <time>2014-05-04T07:23:48.000Z</time>
      </trkpt>
      <trkpt lat="47.46638" lon="6.78144">
        <ele>370.8</ele>
        <time>2014-05-04T07:23:49.000Z</time>
      </trkpt>
      <trkpt lat="47.46636" lon="6.78147">
        <ele>370.4</ele>
        <time>2014-05-04T07:23:50.000Z</time>
      </trkpt>
      <trkpt lat="47.46635" lon="6.78151">
        <ele>369.8</ele>
        <time>2014-05-04T07:23:51.000Z</time>
      </trkpt>
      <trkpt lat="47.46634" lon="6.78155">
        <ele>370.9</ele>
        <time>2014-05-04T07:23:52.000Z</time>
      </trkpt>
      <trkpt lat="47.46633" lon="6.78159">
        <ele>371.3</ele>
        <time>2014-05-04T07:23:53.000Z</time>
      </trkpt>
      <trkpt lat="47.46632" lon="6.78163">
        <ele>371.7</ele>
        <time>2014-05-04T07:23:54.000Z</time>
      </trkpt>
      <trkpt lat="47.46632" lon="6.78167">
        <ele>370.7</ele>
        <time>2014-05-04T07:23:55.000Z</time>
      </trkpt>
      <trkpt lat="47.46631" lon="6.78171">
        <ele>368.6</ele>
        <time>2014-05-04T07:23:56.000Z</time>
      </trkpt>
      <trkpt lat="47.4663" lon="6.78176">
        <ele>368.1</ele>
        <time>2014-05-04T07:23:57.000Z</time>
      </trkpt>
      <trkpt lat="47.46629" lon="6.7818">
        <ele>367.5</ele>
        <time>2014-05-04T07:23:58.000Z</time>
      </trkpt>
      <trkpt lat="47.46628" lon="6.78185">
        <ele>367.2</ele>
        <time>2014-05-04T07:23:59.000Z</time>
      </trkpt>
      <trkpt lat="47.46627" lon="6.7819">
        <ele>367.2</ele>
        <time>2014-05-04T07:24:00.000Z</time>
      </trkpt>
      <trkpt lat="47.46627" lon="6.78195">
        <ele>366.7</ele>
        <time>2014-05-04T07:24:01.000Z</time>
      </trkpt>
      <trkpt lat="47.46626" lon="6.782">
        <ele>366.6</ele>
        <time>2014-05-04T07:24:02.000Z</time>
      </trkpt>
      <trkpt lat="47.46625" lon="6.78204">
        <ele>366.7</ele>
        <time>2014-05-04T07:24:03.000Z</time>
      </trkpt>
      <trkpt lat="47.46625" lon="6.78209">
        <ele>366.3</ele>
        <time>2014-05-04T07:24:04.000Z</time>
      </trkpt>
      <trkpt lat="47.46624" lon="6.78213">
        <ele>366.1</ele>
        <time>2014-05-04T07:24:05.000Z</time>
      </trkpt>
      <trkpt lat="47.46624" lon="6.78217">
        <ele>366.4</ele>
        <time>2014-05-04T07:24:06.000Z</time>
      </trkpt>
      <trkpt lat="47.46624" lon="6.78221">
        <ele>366.6</ele>
        <time>2014-05-04T07:24:07.000Z</time>
      </trkpt>
      <trkpt lat="47.46624" lon="6.78228">
        <ele>367.3</ele>
        <time>2014-05-04T07:24:09.000Z</time>
      </trkpt>
      <trkpt lat="47.46623" lon="6.7823">
        <ele>367</ele>
        <time>2014-05-04T07:24:10.000Z</time>
      </trkpt>
      <trkpt lat="47.46621" lon="6.78234">
        <ele>367.4</ele>
        <time>2014-05-04T07:24:12.000Z</time>
      </trkpt>
      <trkpt lat="47.4662" lon="6.78236">
        <ele>371.8</ele>
        <time>2014-05-04T07:24:13.000Z</time>
      </trkpt>
      <trkpt lat="47.46617" lon="6.7824">
        <ele>373.6</ele>
        <time>2014-05-04T07:24:15.000Z</time>
      </trkpt>
      <trkpt lat="47.46615" lon="6.78242">
        <ele>375</ele>
        <time>2014-05-04T07:24:16.000Z</time>
      </trkpt>
      <trkpt lat="47.46614" lon="6.78244">
        <ele>375</ele>
        <time>2014-05-04T07:24:17.000Z</time>
      </trkpt>
      <trkpt lat="47.46613" lon="6.78248">
        <ele>375.1</ele>
        <time>2014-05-04T07:24:18.000Z</time>
      </trkpt>
      <trkpt lat="47.46612" lon="6.78251">
        <ele>374.3</ele>
        <time>2014-05-04T07:24:19.000Z</time>
      </trkpt>
      <trkpt lat="47.46611" lon="6.78255">
        <ele>373</ele>
        <time>2014-05-04T07:24:20.000Z</time>
      </trkpt>
      <trkpt lat="47.4661" lon="6.78258">
        <ele>371.6</ele>
        <time>2014-05-04T07:24:21.000Z</time>
      </trkpt>
      <trkpt lat="47.46609" lon="6.78262">
        <ele>370.8</ele>
        <time>2014-05-04T07:24:22.000Z</time>
      </trkpt>
      <trkpt lat="47.46606" lon="6.78266">
        <ele>371</ele>
        <time>2014-05-04T07:24:24.000Z</time>
      </trkpt>
      <trkpt lat="47.46605" lon="6.78268">
        <ele>371.2</ele>
        <time>2014-05-04T07:24:25.000Z</time>
      </trkpt>
      <trkpt lat="47.46602" lon="6.7827">
        <ele>370.6</ele>
        <time>2014-05-04T07:24:27.000Z</time>
      </trkpt>
      <trkpt lat="47.466" lon="6.78271">
        <ele>370.6</ele>
        <time>2014-05-04T07:24:28.000Z</time>
      </trkpt>
      <trkpt lat="47.46597" lon="6.78274">
        <ele>369.8</ele>
        <time>2014-05-04T07:24:30.000Z</time>
      </trkpt>
      <trkpt lat="47.46596" lon="6.78274">
        <ele>369.3</ele>
        <time>2014-05-04T07:24:31.000Z</time>
      </trkpt>
      <trkpt lat="47.46592" lon="6.78275">
        <ele>370.2</ele>
        <time>2014-05-04T07:24:33.000Z</time>
      </trkpt>
      <trkpt lat="47.4659" lon="6.78275">
        <ele>370.8</ele>
        <time>2014-05-04T07:24:34.000Z</time>
      </trkpt>
      <trkpt lat="47.46586" lon="6.78275">
        <ele>369.8</ele>
        <time>2014-05-04T07:24:37.000Z</time>
      </trkpt>
      <trkpt lat="47.46585" lon="6.78275">
        <ele>368.9</ele>
        <time>2014-05-04T07:24:38.000Z</time>
      </trkpt>
      <trkpt lat="47.46582" lon="6.78275">
        <ele>371.6</ele>
        <time>2014-05-04T07:24:41.000Z</time>
      </trkpt>
      <trkpt lat="47.46573" lon="6.78274">
        <ele>374.7</ele>
        <time>2014-05-04T07:24:50.000Z</time>
      </trkpt>
      <trkpt lat="47.46569" lon="6.78274">
        <ele>375.4</ele>
        <time>2014-05-04T07:24:52.000Z</time>
      </trkpt>
      <trkpt lat="47.46567" lon="6.78275">
        <ele>375.6</ele>
        <time>2014-05-04T07:24:53.000Z</time>
      </trkpt>
      <trkpt lat="47.46565" lon="6.78275">
        <ele>376.4</ele>
        <time>2014-05-04T07:24:54.000Z</time>
      </trkpt>
      <trkpt lat="47.46562" lon="6.78275">
        <ele>376.7</ele>
        <time>2014-05-04T07:24:55.000Z</time>
      </trkpt>
      <trkpt lat="47.46558" lon="6.78275">
        <ele>377.2</ele>
        <time>2014-05-04T07:24:57.000Z</time>
      </trkpt>
      <trkpt lat="47.46556" lon="6.78275">
        <ele>377.2</ele>
        <time>2014-05-04T07:24:58.000Z</time>
      </trkpt>
      <trkpt lat="47.46553" lon="6.78275">
        <ele>378.1</ele>
        <time>2014-05-04T07:24:59.000Z</time>
      </trkpt>
      <trkpt lat="47.46551" lon="6.78275">
        <ele>377</ele>
        <time>2014-05-04T07:25:00.000Z</time>
      </trkpt>
      <trkpt lat="47.46549" lon="6.78276">
        <ele>376.2</ele>
        <time>2014-05-04T07:25:01.000Z</time>
      </trkpt>
      <trkpt lat="47.46546" lon="6.78276">
        <ele>375.6</ele>
        <time>2014-05-04T07:25:02.000Z</time>
      </trkpt>
      <trkpt lat="47.46544" lon="6.78277">
        <ele>375.8</ele>
        <time>2014-05-04T07:25:03.000Z</time>
      </trkpt>
      <trkpt lat="47.46541" lon="6.78277">
        <ele>376.2</ele>
        <time>2014-05-04T07:25:04.000Z</time>
      </trkpt>
      <trkpt lat="47.46539" lon="6.78277">
        <ele>375.3</ele>
        <time>2014-05-04T07:25:05.000Z</time>
      </trkpt>
      <trkpt lat="47.46537" lon="6.78276">
        <ele>375.1</ele>
        <time>2014-05-04T07:25:06.001Z</time>
      </trkpt>
      <trkpt lat="47.46533" lon="6.78275">
        <ele>374</ele>
        <time>2014-05-04T07:25:08.000Z</time>
      </trkpt>
      <trkpt lat="47.46531" lon="6.78275">
        <ele>373.8</ele>
        <time>2014-05-04T07:25:09.000Z</time>
      </trkpt>
      <trkpt lat="47.46527" lon="6.78274">
        <ele>374</ele>
        <time>2014-05-04T07:25:11.000Z</time>
      </trkpt>
      <trkpt lat="47.46524" lon="6.78273">
        <ele>374.5</ele>
        <time>2014-05-04T07:25:12.000Z</time>
      </trkpt>
      <trkpt lat="47.4652" lon="6.78272">
        <ele>373.9</ele>
        <time>2014-05-04T07:25:14.000Z</time>
      </trkpt>
      <trkpt lat="47.46518" lon="6.78271">
        <ele>373.7</ele>
        <time>2014-05-04T07:25:15.000Z</time>
      </trkpt>
      <trkpt lat="47.46515" lon="6.78271">
        <ele>373.4</ele>
        <time>2014-05-04T07:25:16.000Z</time>
      </trkpt>
      <trkpt lat="47.46512" lon="6.78271">
        <ele>372.6</ele>
        <time>2014-05-04T07:25:17.000Z</time>
      </trkpt>
      <trkpt lat="47.4651" lon="6.78271">
        <ele>372.5</ele>
        <time>2014-05-04T07:25:18.000Z</time>
      </trkpt>
      <trkpt lat="47.46507" lon="6.78271">
        <ele>371.7</ele>
        <time>2014-05-04T07:25:19.000Z</time>
      </trkpt>
      <trkpt lat="47.46505" lon="6.78271">
        <ele>371.7</ele>
        <time>2014-05-04T07:25:20.000Z</time>
      </trkpt>
      <trkpt lat="47.46503" lon="6.78271">
        <ele>372.1</ele>
        <time>2014-05-04T07:25:21.000Z</time>
      </trkpt>
      <trkpt lat="47.465" lon="6.7827">
        <ele>371.9</ele>
        <time>2014-05-04T07:25:22.000Z</time>
      </trkpt>
      <trkpt lat="47.46498" lon="6.7827">
        <ele>372</ele>
        <time>2014-05-04T07:25:23.000Z</time>
      </trkpt>
      <trkpt lat="47.46494" lon="6.78268">
        <ele>371.3</ele>
        <time>2014-05-04T07:25:25.000Z</time>
      </trkpt>
      <trkpt lat="47.46492" lon="6.78267">
        <ele>371.9</ele>
        <time>2014-05-04T07:25:26.000Z</time>
      </trkpt>
      <trkpt lat="47.46488" lon="6.78265">
        <ele>372</ele>
        <time>2014-05-04T07:25:28.000Z</time>
      </trkpt>
      <trkpt lat="47.46486" lon="6.78265">
        <ele>371.8</ele>
        <time>2014-05-04T07:25:29.000Z</time>
      </trkpt>
      <trkpt lat="47.46482" lon="6.78263">
        <ele>371</ele>
        <time>2014-05-04T07:25:31.000Z</time>
      </trkpt>
      <trkpt lat="47.4648" lon="6.78264">
        <ele>371.1</ele>
        <time>2014-05-04T07:25:32.000Z</time>
      </trkpt>
      <trkpt lat="47.4648" lon="6.78269">
        <ele>373</ele>
        <time>2014-05-04T07:27:00.000Z</time>
      </trkpt>
      <trkpt lat="47.4648" lon="6.7827">
        <ele>372.2</ele>
        <time>2014-05-04T07:27:01.000Z</time>
      </trkpt>
      <trkpt lat="47.46479" lon="6.78275">
        <ele>366.1</ele>
        <time>2014-05-04T07:27:47.000Z</time>
      </trkpt>
      <trkpt lat="47.46479" lon="6.78278">
        <ele>365.7</ele>
        <time>2014-05-04T07:27:48.000Z</time>
      </trkpt>
      <trkpt lat="47.46478" lon="6.78281">
        <ele>366</ele>
        <time>2014-05-04T07:27:49.000Z</time>
      </trkpt>
      <trkpt lat="47.46477" lon="6.78284">
        <ele>365.3</ele>
        <time>2014-05-04T07:27:50.000Z</time>
      </trkpt>
      <trkpt lat="47.46476" lon="6.78287">
        <ele>365.4</ele>
        <time>2014-05-04T07:27:51.000Z</time>
      </trkpt>
      <trkpt lat="47.46474" lon="6.7829">
        <ele>366.5</ele>
        <time>2014-05-04T07:27:52.000Z</time>
      </trkpt>
      <trkpt lat="47.4647" lon="6.78292">
        <ele>366.3</ele>
        <time>2014-05-04T07:27:54.000Z</time>
      </trkpt>
      <trkpt lat="47.46468" lon="6.78292">
        <ele>365.8</ele>
        <time>2014-05-04T07:27:55.000Z</time>
      </trkpt>
      <trkpt lat="47.46465" lon="6.78291">
        <ele>366.3</ele>
        <time>2014-05-04T07:27:56.000Z</time>
      </trkpt>
      <trkpt lat="47.46462" lon="6.7829">
        <ele>366.4</ele>
        <time>2014-05-04T07:27:57.000Z</time>
      </trkpt>
      <trkpt lat="47.46458" lon="6.78289">
        <ele>365.8</ele>
        <time>2014-05-04T07:27:59.000Z</time>
      </trkpt>
      <trkpt lat="47.46456" lon="6.78288">
        <ele>366.5</ele>
        <time>2014-05-04T07:28:00.000Z</time>
      </trkpt>
      <trkpt lat="47.46452" lon="6.78287">
        <ele>366.8</ele>
        <time>2014-05-04T07:28:02.000Z</time>
      </trkpt>
      <trkpt lat="47.46451" lon="6.78287">
        <ele>367.6</ele>
        <time>2014-05-04T07:28:03.000Z</time>
      </trkpt>
      <trkpt lat="47.46447" lon="6.78285">
        <ele>369.6</ele>
        <time>2014-05-04T07:28:05.000Z</time>
      </trkpt>
      <trkpt lat="47.46445" lon="6.78284">
        <ele>370.4</ele>
        <time>2014-05-04T07:28:06.000Z</time>
      </trkpt>
      <trkpt lat="47.46442" lon="6.78283">
        <ele>371.2</ele>
        <time>2014-05-04T07:28:07.000Z</time>
      </trkpt>
      <trkpt lat="47.4644" lon="6.78283">
        <ele>370.8</ele>
        <time>2014-05-04T07:28:08.000Z</time>
      </trkpt>
      <trkpt lat="47.46435" lon="6.7828">
        <ele>371.6</ele>
        <time>2014-05-04T07:28:10.000Z</time>
      </trkpt>
      <trkpt lat="47.46434" lon="6.7828">
        <ele>371.8</ele>
        <time>2014-05-04T07:28:11.000Z</time>
      </trkpt>
      <trkpt lat="47.46431" lon="6.78279">
        <ele>371.4</ele>
        <time>2014-05-04T07:28:13.000Z</time>
      </trkpt>
      <trkpt lat="47.46429" lon="6.78278">
        <ele>371.6</ele>
        <time>2014-05-04T07:28:14.000Z</time>
      </trkpt>
      <trkpt lat="47.46425" lon="6.78278">
        <ele>372.9</ele>
        <time>2014-05-04T07:28:16.000Z</time>
      </trkpt>
      <trkpt lat="47.46423" lon="6.78278">
        <ele>375</ele>
        <time>2014-05-04T07:28:17.000Z</time>
      </trkpt>
      <trkpt lat="47.46418" lon="6.78278">
        <ele>378.4</ele>
        <time>2014-05-04T07:28:19.000Z</time>
      </trkpt>
      <trkpt lat="47.46415" lon="6.78278">
        <ele>378.8</ele>
        <time>2014-05-04T07:28:20.000Z</time>
      </trkpt>
      <trkpt lat="47.46411" lon="6.78278">
        <ele>379.9</ele>
        <time>2014-05-04T07:28:22.000Z</time>
      </trkpt>
      <trkpt lat="47.46409" lon="6.78277">
        <ele>379.4</ele>
        <time>2014-05-04T07:28:23.000Z</time>
      </trkpt>
      <trkpt lat="47.46405" lon="6.78278">
        <ele>379.8</ele>
        <time>2014-05-04T07:28:25.000Z</time>
      </trkpt>
      <trkpt lat="47.46404" lon="6.78279">
        <ele>379.3</ele>
        <time>2014-05-04T07:28:26.000Z</time>
      </trkpt>
      <trkpt lat="47.46402" lon="6.78279">
        <ele>379.3</ele>
        <time>2014-05-04T07:28:27.000Z</time>
      </trkpt>
      <trkpt lat="47.46399" lon="6.7828">
        <ele>375.5</ele>
        <time>2014-05-04T07:28:28.000Z</time>
      </trkpt>
      <trkpt lat="47.46396" lon="6.78281">
        <ele>374.4</ele>
        <time>2014-05-04T07:28:29.000Z</time>
      </trkpt>
      <trkpt lat="47.46392" lon="6.78282">
        <ele>373.4</ele>
        <time>2014-05-04T07:28:30.000Z</time>
      </trkpt>
      <trkpt lat="47.46388" lon="6.78281">
        <ele>374.2</ele>
        <time>2014-05-04T07:28:31.000Z</time>
      </trkpt>
      <trkpt lat="47.46384" lon="6.78281">
        <ele>375.7</ele>
        <time>2014-05-04T07:28:32.000Z</time>
      </trkpt>
      <trkpt lat="47.46381" lon="6.78281">
        <ele>376.9</ele>
        <time>2014-05-04T07:28:33.000Z</time>
      </trkpt>
      <trkpt lat="47.46378" lon="6.78281">
        <ele>375.2</ele>
        <time>2014-05-04T07:28:34.000Z</time>
      </trkpt>
      <trkpt lat="47.46375" lon="6.78282">
        <ele>375.2</ele>
        <time>2014-05-04T07:28:35.000Z</time>
      </trkpt>
      <trkpt lat="47.46372" lon="6.78283">
        <ele>376.3</ele>
        <time>2014-05-04T07:28:36.000Z</time>
      </trkpt>
      <trkpt lat="47.46368" lon="6.78283">
        <ele>376</ele>
        <time>2014-05-04T07:28:37.000Z</time>
      </trkpt>
      <trkpt lat="47.46365" lon="6.78284">
        <ele>376.1</ele>
        <time>2014-05-04T07:28:38.000Z</time>
      </trkpt>
      <trkpt lat="47.46362" lon="6.78284">
        <ele>376.8</ele>
        <time>2014-05-04T07:28:39.000Z</time>
      </trkpt>
      <trkpt lat="47.46358" lon="6.78283">
        <ele>376.4</ele>
        <time>2014-05-04T07:28:40.000Z</time>
      </trkpt>
      <trkpt lat="47.46354" lon="6.78283">
        <ele>375.1</ele>
        <time>2014-05-04T07:28:41.000Z</time>
      </trkpt>
      <trkpt lat="47.4635" lon="6.78284">
        <ele>375</ele>
        <time>2014-05-04T07:28:42.000Z</time>
      </trkpt>
      <trkpt lat="47.46323" lon="6.78289">
        <ele>377.9</ele>
        <time>2014-05-04T07:28:50.000Z</time>
      </trkpt>
      <trkpt lat="47.4632" lon="6.78289">
        <ele>377.6</ele>
        <time>2014-05-04T07:28:51.000Z</time>
      </trkpt>
      <trkpt lat="47.46317" lon="6.7829">
        <ele>378.7</ele>
        <time>2014-05-04T07:28:52.000Z</time>
      </trkpt>
      <trkpt lat="47.46314" lon="6.78291">
        <ele>378.8</ele>
        <time>2014-05-04T07:28:53.000Z</time>
      </trkpt>
      <trkpt lat="47.4631" lon="6.78292">
        <ele>379.1</ele>
        <time>2014-05-04T07:28:54.000Z</time>
      </trkpt>
      <trkpt lat="47.46307" lon="6.78292">
        <ele>379.9</ele>
        <time>2014-05-04T07:28:55.000Z</time>
      </trkpt>
      <trkpt lat="47.46304" lon="6.78293">
        <ele>379.7</ele>
        <time>2014-05-04T07:28:56.000Z</time>
      </trkpt>
      <trkpt lat="47.46301" lon="6.78293">
        <ele>380.1</ele>
        <time>2014-05-04T07:28:57.000Z</time>
      </trkpt>
      <trkpt lat="47.46298" lon="6.78294">
        <ele>381.3</ele>
        <time>2014-05-04T07:28:58.000Z</time>
      </trkpt>
      <trkpt lat="47.46294" lon="6.78294">
        <ele>381.3</ele>
        <time>2014-05-04T07:28:59.000Z</time>
      </trkpt>
      <trkpt lat="47.46291" lon="6.78295">
        <ele>381.7</ele>
        <time>2014-05-04T07:29:00.000Z</time>
      </trkpt>
      <trkpt lat="47.46288" lon="6.78295">
        <ele>382</ele>
        <time>2014-05-04T07:29:01.000Z</time>
      </trkpt>
      <trkpt lat="47.46285" lon="6.78295">
        <ele>381.6</ele>
        <time>2014-05-04T07:29:02.000Z</time>
      </trkpt>
      <trkpt lat="47.46282" lon="6.78295">
        <ele>382.2</ele>
        <time>2014-05-04T07:29:03.000Z</time>
      </trkpt>
      <trkpt lat="47.4628" lon="6.78296">
        <ele>380.5</ele>
        <time>2014-05-04T07:29:04.000Z</time>
      </trkpt>
      <trkpt lat="47.46277" lon="6.78296">
        <ele>380.1</ele>
        <time>2014-05-04T07:29:05.000Z</time>
      </trkpt>
      <trkpt lat="47.46275" lon="6.78296">
        <ele>379.2</ele>
        <time>2014-05-04T07:29:06.000Z</time>
      </trkpt>
      <trkpt lat="47.46272" lon="6.78296">
        <ele>379.5</ele>
        <time>2014-05-04T07:29:07.000Z</time>
      </trkpt>
      <trkpt lat="47.4627" lon="6.78297">
        <ele>380.2</ele>
        <time>2014-05-04T07:29:08.000Z</time>
      </trkpt>
      <trkpt lat="47.46267" lon="6.78297">
        <ele>381.2</ele>
        <time>2014-05-04T07:29:09.000Z</time>
      </trkpt>
      <trkpt lat="47.46265" lon="6.78297">
        <ele>384</ele>
        <time>2014-05-04T07:29:10.000Z</time>
      </trkpt>
      <trkpt lat="47.46262" lon="6.78298">
        <ele>385.2</ele>
        <time>2014-05-04T07:29:11.000Z</time>
      </trkpt>
      <trkpt lat="47.46259" lon="6.78299">
        <ele>384.6</ele>
        <time>2014-05-04T07:29:12.000Z</time>
      </trkpt>
      <trkpt lat="47.46256" lon="6.78299">
        <ele>385.5</ele>
        <time>2014-05-04T07:29:13.000Z</time>
      </trkpt>
      <trkpt lat="47.46253" lon="6.783">
        <ele>385.4</ele>
        <time>2014-05-04T07:29:14.000Z</time>
      </trkpt>
      <trkpt lat="47.46251" lon="6.783">
        <ele>385.5</ele>
        <time>2014-05-04T07:29:15.000Z</time>
      </trkpt>
      <trkpt lat="47.46248" lon="6.78301">
        <ele>385.8</ele>
        <time>2014-05-04T07:29:16.000Z</time>
      </trkpt>
      <trkpt lat="47.46245" lon="6.78301">
        <ele>386.9</ele>
        <time>2014-05-04T07:29:17.000Z</time>
      </trkpt>
      <trkpt lat="47.46242" lon="6.78301">
        <ele>386.2</ele>
        <time>2014-05-04T07:29:18.000Z</time>
      </trkpt>
      <trkpt lat="47.4624" lon="6.78301">
        <ele>386.7</ele>
        <time>2014-05-04T07:29:19.000Z</time>
      </trkpt>
      <trkpt lat="47.46237" lon="6.78301">
        <ele>388.2</ele>
        <time>2014-05-04T07:29:20.000Z</time>
      </trkpt>
      <trkpt lat="47.46235" lon="6.78302">
        <ele>388.4</ele>
        <time>2014-05-04T07:29:21.000Z</time>
      </trkpt>
      <trkpt lat="47.46232" lon="6.78302">
        <ele>389.5</ele>
        <time>2014-05-04T07:29:22.000Z</time>
      </trkpt>
      <trkpt lat="47.46229" lon="6.78302">
        <ele>389.7</ele>
        <time>2014-05-04T07:29:23.000Z</time>
      </trkpt>
      <trkpt lat="47.46227" lon="6.78303">
        <ele>390.6</ele>
        <time>2014-05-04T07:29:24.000Z</time>
      </trkpt>
      <trkpt lat="47.46224" lon="6.78303">
        <ele>390.8</ele>
        <time>2014-05-04T07:29:25.000Z</time>
      </trkpt>
      <trkpt lat="47.46221" lon="6.78304">
        <ele>391</ele>
        <time>2014-05-04T07:29:26.000Z</time>
      </trkpt>
      <trkpt lat="47.46218" lon="6.78304">
        <ele>391.8</ele>
        <time>2014-05-04T07:29:27.000Z</time>
      </trkpt>
      <trkpt lat="47.46215" lon="6.78304">
        <ele>393.4</ele>
        <time>2014-05-04T07:29:28.000Z</time>
      </trkpt>
      <trkpt lat="47.46212" lon="6.78305">
        <ele>395</ele>
        <time>2014-05-04T07:29:29.000Z</time>
      </trkpt>
      <trkpt lat="47.4621" lon="6.78305">
        <ele>395.9</ele>
        <time>2014-05-04T07:29:30.000Z</time>
      </trkpt>
      <trkpt lat="47.46207" lon="6.78306">
        <ele>397</ele>
        <time>2014-05-04T07:29:31.000Z</time>
      </trkpt>
      <trkpt lat="47.46205" lon="6.78306">
        <ele>398.5</ele>
        <time>2014-05-04T07:29:32.000Z</time>
      </trkpt>
      <trkpt lat="47.46202" lon="6.78307">
        <ele>399.6</ele>
        <time>2014-05-04T07:29:33.000Z</time>
      </trkpt>
      <trkpt lat="47.462" lon="6.78307">
        <ele>399.7</ele>
        <time>2014-05-04T07:29:34.000Z</time>
      </trkpt>
      <trkpt lat="47.46195" lon="6.78308">
        <ele>401.5</ele>
        <time>2014-05-04T07:29:36.000Z</time>
      </trkpt>
      <trkpt lat="47.46193" lon="6.78308">
        <ele>402</ele>
        <time>2014-05-04T07:29:37.000Z</time>
      </trkpt>
      <trkpt lat="47.46189" lon="6.78308">
        <ele>404.4</ele>
        <time>2014-05-04T07:29:39.000Z</time>
      </trkpt>
      <trkpt lat="47.46187" lon="6.78308">
        <ele>404.1</ele>
        <time>2014-05-04T07:29:40.000Z</time>
      </trkpt>
      <trkpt lat="47.46185" lon="6.78308">
        <ele>404.8</ele>
        <time>2014-05-04T07:29:41.000Z</time>
      </trkpt>
      <trkpt lat="47.46183" lon="6.78308">
        <ele>404.5</ele>
        <time>2014-05-04T07:29:42.000Z</time>
      </trkpt>
      <trkpt lat="47.46161" lon="6.78311">
        <ele>406.2</ele>
        <time>2014-05-04T07:29:50.000Z</time>
      </trkpt>
      <trkpt lat="47.46158" lon="6.78312">
        <ele>406</ele>
        <time>2014-05-04T07:29:51.000Z</time>
      </trkpt>
      <trkpt lat="47.46156" lon="6.78312">
        <ele>405</ele>
        <time>2014-05-04T07:29:52.000Z</time>
      </trkpt>
      <trkpt lat="47.46153" lon="6.78313">
        <ele>405.8</ele>
        <time>2014-05-04T07:29:53.000Z</time>
      </trkpt>
      <trkpt lat="47.4615" lon="6.78314">
        <ele>406.7</ele>
        <time>2014-05-04T07:29:54.000Z</time>
      </trkpt>
      <trkpt lat="47.46147" lon="6.78314">
        <ele>406.4</ele>
        <time>2014-05-04T07:29:55.000Z</time>
      </trkpt>
      <trkpt lat="47.46144" lon="6.78315">
        <ele>406.3</ele>
        <time>2014-05-04T07:29:56.000Z</time>
      </trkpt>
      <trkpt lat="47.46141" lon="6.78315">
        <ele>405.9</ele>
        <time>2014-05-04T07:29:57.000Z</time>
      </trkpt>
      <trkpt lat="47.46139" lon="6.78316">
        <ele>404.8</ele>
        <time>2014-05-04T07:29:58.000Z</time>
      </trkpt>
      <trkpt lat="47.46136" lon="6.78316">
        <ele>404.3</ele>
        <time>2014-05-04T07:29:59.000Z</time>
      </trkpt>
      <trkpt lat="47.46134" lon="6.78317">
        <ele>403.6</ele>
        <time>2014-05-04T07:30:00.000Z</time>
      </trkpt>
      <trkpt lat="47.46131" lon="6.78319">
        <ele>407.6</ele>
        <time>2014-05-04T07:30:01.000Z</time>
      </trkpt>
      <trkpt lat="47.46129" lon="6.7832">
        <ele>409.3</ele>
        <time>2014-05-04T07:30:02.000Z</time>
      </trkpt>
      <trkpt lat="47.46126" lon="6.78323">
        <ele>413.2</ele>
        <time>2014-05-04T07:30:03.000Z</time>
      </trkpt>
      <trkpt lat="47.46123" lon="6.78325">
        <ele>415.3</ele>
        <time>2014-05-04T07:30:04.000Z</time>
      </trkpt>
      <trkpt lat="47.4612" lon="6.78326">
        <ele>414</ele>
        <time>2014-05-04T07:30:05.000Z</time>
      </trkpt>
      <trkpt lat="47.46116" lon="6.78326">
        <ele>413.2</ele>
        <time>2014-05-04T07:30:06.000Z</time>
      </trkpt>
      <trkpt lat="47.46112" lon="6.78326">
        <ele>413.1</ele>
        <time>2014-05-04T07:30:07.000Z</time>
      </trkpt>
      <trkpt lat="47.46109" lon="6.78326">
        <ele>412.5</ele>
        <time>2014-05-04T07:30:08.000Z</time>
      </trkpt>
      <trkpt lat="47.46105" lon="6.78326">
        <ele>413.4</ele>
        <time>2014-05-04T07:30:09.000Z</time>
      </trkpt>
      <trkpt lat="47.46101" lon="6.78327">
        <ele>413.5</ele>
        <time>2014-05-04T07:30:10.000Z</time>
      </trkpt>
      <trkpt lat="47.46097" lon="6.78327">
        <ele>413.2</ele>
        <time>2014-05-04T07:30:11.000Z</time>
      </trkpt>
      <trkpt lat="47.46093" lon="6.78327">
        <ele>413.5</ele>
        <time>2014-05-04T07:30:12.000Z</time>
      </trkpt>
      <trkpt lat="47.46089" lon="6.78328">
        <ele>412.6</ele>
        <time>2014-05-04T07:30:13.000Z</time>
      </trkpt>
      <trkpt lat="47.46085" lon="6.78329">
        <ele>412</ele>
        <time>2014-05-04T07:30:14.000Z</time>
      </trkpt>
      <trkpt lat="47.46081" lon="6.7833">
        <ele>412.4</ele>
        <time>2014-05-04T07:30:15.000Z</time>
      </trkpt>
      <trkpt lat="47.46077" lon="6.78332">
        <ele>412.9</ele>
        <time>2014-05-04T07:30:16.000Z</time>
      </trkpt>
      <trkpt lat="47.46073" lon="6.78334">
        <ele>413.4</ele>
        <time>2014-05-04T07:30:17.000Z</time>
      </trkpt>
      <trkpt lat="47.46068" lon="6.78336">
        <ele>414</ele>
        <time>2014-05-04T07:30:18.000Z</time>
      </trkpt>
      <trkpt lat="47.46064" lon="6.78339">
        <ele>413.8</ele>
        <time>2014-05-04T07:30:19.000Z</time>
      </trkpt>
      <trkpt lat="47.4606" lon="6.78341">
        <ele>412.8</ele>
        <time>2014-05-04T07:30:20.000Z</time>
      </trkpt>
      <trkpt lat="47.46057" lon="6.78344">
        <ele>412.5</ele>
        <time>2014-05-04T07:30:21.000Z</time>
      </trkpt>
      <trkpt lat="47.46053" lon="6.78346">
        <ele>412.7</ele>
        <time>2014-05-04T07:30:22.000Z</time>
      </trkpt>
      <trkpt lat="47.46049" lon="6.78349">
        <ele>412.1</ele>
        <time>2014-05-04T07:30:23.000Z</time>
      </trkpt>
      <trkpt lat="47.46045" lon="6.78352">
        <ele>412.4</ele>
        <time>2014-05-04T07:30:24.000Z</time>
      </trkpt>
      <trkpt lat="47.4604" lon="6.78354">
        <ele>412.7</ele>
        <time>2014-05-04T07:30:25.000Z</time>
      </trkpt>
      <trkpt lat="47.46035" lon="6.78357">
        <ele>412.2</ele>
        <time>2014-05-04T07:30:26.000Z</time>
      </trkpt>
      <trkpt lat="47.4603" lon="6.78359">
        <ele>412</ele>
        <time>2014-05-04T07:30:27.000Z</time>
      </trkpt>
      <trkpt lat="47.46025" lon="6.78363">
        <ele>411.3</ele>
        <time>2014-05-04T07:30:28.000Z</time>
      </trkpt>
      <trkpt lat="47.46022" lon="6.78366">
        <ele>409.1</ele>
        <time>2014-05-04T07:30:29.000Z</time>
      </trkpt>
      <trkpt lat="47.46018" lon="6.78367">
        <ele>408.3</ele>
        <time>2014-05-04T07:30:30.000Z</time>
      </trkpt>
      <trkpt lat="47.46012" lon="6.7837">
        <ele>408.4</ele>
        <time>2014-05-04T07:30:31.000Z</time>
      </trkpt>
      <trkpt lat="47.46006" lon="6.78373">
        <ele>408</ele>
        <time>2014-05-04T07:30:32.000Z</time>
      </trkpt>
      <trkpt lat="47.46002" lon="6.78378">
        <ele>405.3</ele>
        <time>2014-05-04T07:30:33.000Z</time>
      </trkpt>
      <trkpt lat="47.45997" lon="6.78382">
        <ele>404.2</ele>
        <time>2014-05-04T07:30:34.000Z</time>
      </trkpt>
      <trkpt lat="47.45992" lon="6.78389">
        <ele>403</ele>
        <time>2014-05-04T07:30:35.000Z</time>
      </trkpt>
      <trkpt lat="47.45986" lon="6.78394">
        <ele>402.7</ele>
        <time>2014-05-04T07:30:36.000Z</time>
      </trkpt>
      <trkpt lat="47.45981" lon="6.78398">
        <ele>405</ele>
        <time>2014-05-04T07:30:37.000Z</time>
      </trkpt>
      <trkpt lat="47.45976" lon="6.78404">
        <ele>405.3</ele>
        <time>2014-05-04T07:30:38.000Z</time>
      </trkpt>
      <trkpt lat="47.45974" lon="6.78408">
        <ele>403.3</ele>
        <time>2014-05-04T07:30:39.000Z</time>
      </trkpt>
      <trkpt lat="47.4597" lon="6.78412">
        <ele>402.2</ele>
        <time>2014-05-04T07:30:40.000Z</time>
      </trkpt>
      <trkpt lat="47.45965" lon="6.78418">
        <ele>401.1</ele>
        <time>2014-05-04T07:30:41.000Z</time>
      </trkpt>
      <trkpt lat="47.4595" lon="6.78432">
        <ele>401.8</ele>
        <time>2014-05-04T07:30:44.000Z</time>
      </trkpt>
      <trkpt lat="47.45942" lon="6.7844">
        <ele>401.5</ele>
        <time>2014-05-04T07:30:45.000Z</time>
      </trkpt>
      <trkpt lat="47.45937" lon="6.78455">
        <ele>400.5</ele>
        <time>2014-05-04T07:30:46.000Z</time>
      </trkpt>
      <trkpt lat="47.45934" lon="6.78467">
        <ele>397.5</ele>
        <time>2014-05-04T07:30:47.000Z</time>
      </trkpt>
      <trkpt lat="47.45933" lon="6.78479">
        <ele>396.3</ele>
        <time>2014-05-04T07:30:48.000Z</time>
      </trkpt>
      <trkpt lat="47.45931" lon="6.7849">
        <ele>395.2</ele>
        <time>2014-05-04T07:30:49.000Z</time>
      </trkpt>
      <trkpt lat="47.45931" lon="6.78501">
        <ele>393.6</ele>
        <time>2014-05-04T07:30:50.000Z</time>
      </trkpt>
      <trkpt lat="47.45932" lon="6.78512">
        <ele>394.3</ele>
        <time>2014-05-04T07:30:51.000Z</time>
      </trkpt>
      <trkpt lat="47.45932" lon="6.78521">
        <ele>392.7</ele>
        <time>2014-05-04T07:30:52.000Z</time>
      </trkpt>
      <trkpt lat="47.45928" lon="6.7853">
        <ele>391</ele>
        <time>2014-05-04T07:30:53.000Z</time>
      </trkpt>
      <trkpt lat="47.45923" lon="6.78533">
        <ele>390.6</ele>
        <time>2014-05-04T07:30:54.000Z</time>
      </trkpt>
      <trkpt lat="47.45917" lon="6.78532">
        <ele>390.4</ele>
        <time>2014-05-04T07:30:55.000Z</time>
      </trkpt>
      <trkpt lat="47.4591" lon="6.78529">
        <ele>388</ele>
        <time>2014-05-04T07:30:56.000Z</time>
      </trkpt>
      <trkpt lat="47.45904" lon="6.78527">
        <ele>386.9</ele>
        <time>2014-05-04T07:30:57.000Z</time>
      </trkpt>
      <trkpt lat="47.45899" lon="6.78522">
        <ele>383.9</ele>
        <time>2014-05-04T07:30:58.000Z</time>
      </trkpt>
      <trkpt lat="47.45893" lon="6.78517">
        <ele>382.1</ele>
        <time>2014-05-04T07:30:59.000Z</time>
      </trkpt>
      <trkpt lat="47.45886" lon="6.78511">
        <ele>381.8</ele>
        <time>2014-05-04T07:31:00.000Z</time>
      </trkpt>
      <trkpt lat="47.4588" lon="6.78504">
        <ele>381.2</ele>
        <time>2014-05-04T07:31:01.000Z</time>
      </trkpt>
      <trkpt lat="47.45873" lon="6.78497">
        <ele>380.2</ele>
        <time>2014-05-04T07:31:02.000Z</time>
      </trkpt>
      <trkpt lat="47.45865" lon="6.78488">
        <ele>380.1</ele>
        <time>2014-05-04T07:31:03.000Z</time>
      </trkpt>
      <trkpt lat="47.45858" lon="6.78482">
        <ele>379.3</ele>
        <time>2014-05-04T07:31:04.000Z</time>
      </trkpt>
      <trkpt lat="47.45851" lon="6.78475">
        <ele>377.7</ele>
        <time>2014-05-04T07:31:05.000Z</time>
      </trkpt>
      <trkpt lat="47.45843" lon="6.78468">
        <ele>376.8</ele>
        <time>2014-05-04T07:31:06.000Z</time>
      </trkpt>
      <trkpt lat="47.45835" lon="6.7846">
        <ele>375.7</ele>
        <time>2014-05-04T07:31:07.000Z</time>
      </trkpt>
      <trkpt lat="47.45826" lon="6.78453">
        <ele>374.6</ele>
        <time>2014-05-04T07:31:08.000Z</time>
      </trkpt>
      <trkpt lat="47.45818" lon="6.78445">
        <ele>372.9</ele>
        <time>2014-05-04T07:31:09.000Z</time>
      </trkpt>
      <trkpt lat="47.4581" lon="6.78437">
        <ele>372.1</ele>
        <time>2014-05-04T07:31:10.000Z</time>
      </trkpt>
      <trkpt lat="47.45802" lon="6.7843">
        <ele>372.2</ele>
        <time>2014-05-04T07:31:11.000Z</time>
      </trkpt>
      <trkpt lat="47.45794" lon="6.7842">
        <ele>370.8</ele>
        <time>2014-05-04T07:31:12.000Z</time>
      </trkpt>
      <trkpt lat="47.45786" lon="6.78412">
        <ele>369.1</ele>
        <time>2014-05-04T07:31:13.000Z</time>
      </trkpt>
      <trkpt lat="47.45778" lon="6.78404">
        <ele>367.4</ele>
        <time>2014-05-04T07:31:14.000Z</time>
      </trkpt>
      <trkpt lat="47.45768" lon="6.78399">
        <ele>366.7</ele>
        <time>2014-05-04T07:31:15.000Z</time>
      </trkpt>
      <trkpt lat="47.45757" lon="6.78394">
        <ele>365.1</ele>
        <time>2014-05-04T07:31:16.000Z</time>
      </trkpt>
      <trkpt lat="47.45747" lon="6.7839">
        <ele>365</ele>
        <time>2014-05-04T07:31:17.000Z</time>
      </trkpt>
      <trkpt lat="47.45737" lon="6.78387">
        <ele>364.7</ele>
        <time>2014-05-04T07:31:18.000Z</time>
      </trkpt>
      <trkpt lat="47.45728" lon="6.78384">
        <ele>364.5</ele>
        <time>2014-05-04T07:31:19.000Z</time>
      </trkpt>
      <trkpt lat="47.45718" lon="6.78384">
        <ele>365.2</ele>
        <time>2014-05-04T07:31:20.000Z</time>
      </trkpt>
      <trkpt lat="47.45708" lon="6.78384">
        <ele>364.6</ele>
        <time>2014-05-04T07:31:21.000Z</time>
      </trkpt>
      <trkpt lat="47.45698" lon="6.78384">
        <ele>363.9</ele>
        <time>2014-05-04T07:31:22.000Z</time>
      </trkpt>
      <trkpt lat="47.45688" lon="6.78383">
        <ele>362.5</ele>
        <time>2014-05-04T07:31:23.000Z</time>
      </trkpt>
      <trkpt lat="47.45678" lon="6.78383">
        <ele>361.1</ele>
        <time>2014-05-04T07:31:24.000Z</time>
      </trkpt>
      <trkpt lat="47.45668" lon="6.78384">
        <ele>360</ele>
        <time>2014-05-04T07:31:25.000Z</time>
      </trkpt>
      <trkpt lat="47.45658" lon="6.78387">
        <ele>360</ele>
        <time>2014-05-04T07:31:26.000Z</time>
      </trkpt>
      <trkpt lat="47.45649" lon="6.7839">
        <ele>359.6</ele>
        <time>2014-05-04T07:31:27.000Z</time>
      </trkpt>
      <trkpt lat="47.45641" lon="6.78393">
        <ele>358.6</ele>
        <time>2014-05-04T07:31:28.000Z</time>
      </trkpt>
      <trkpt lat="47.45634" lon="6.78396">
        <ele>358.2</ele>
        <time>2014-05-04T07:31:29.000Z</time>
      </trkpt>
      <trkpt lat="47.45626" lon="6.784">
        <ele>358</ele>
        <time>2014-05-04T07:31:30.000Z</time>
      </trkpt>
      <trkpt lat="47.45617" lon="6.78404">
        <ele>358.5</ele>
        <time>2014-05-04T07:31:31.000Z</time>
      </trkpt>
      <trkpt lat="47.45609" lon="6.78407">
        <ele>357.7</ele>
        <time>2014-05-04T07:31:32.000Z</time>
      </trkpt>
      <trkpt lat="47.45601" lon="6.78411">
        <ele>356.6</ele>
        <time>2014-05-04T07:31:33.000Z</time>
      </trkpt>
      <trkpt lat="47.45592" lon="6.78415">
        <ele>355.8</ele>
        <time>2014-05-04T07:31:34.000Z</time>
      </trkpt>
      <trkpt lat="47.45585" lon="6.78419">
        <ele>355</ele>
        <time>2014-05-04T07:31:35.000Z</time>
      </trkpt>
      <trkpt lat="47.45577" lon="6.78423">
        <ele>354.7</ele>
        <time>2014-05-04T07:31:36.000Z</time>
      </trkpt>
      <trkpt lat="47.45569" lon="6.78427">
        <ele>353.9</ele>
        <time>2014-05-04T07:31:37.000Z</time>
      </trkpt>
      <trkpt lat="47.45561" lon="6.7843">
        <ele>353.5</ele>
        <time>2014-05-04T07:31:38.000Z</time>
      </trkpt>
      <trkpt lat="47.45554" lon="6.78435">
        <ele>353.1</ele>
        <time>2014-05-04T07:31:39.000Z</time>
      </trkpt>
      <trkpt lat="47.45547" lon="6.78439">
        <ele>352.5</ele>
        <time>2014-05-04T07:31:40.000Z</time>
      </trkpt>
      <trkpt lat="47.45539" lon="6.78444">
        <ele>352.1</ele>
        <time>2014-05-04T07:31:41.000Z</time>
      </trkpt>
      <trkpt lat="47.45518" lon="6.78455">
        <ele>352.3</ele>
        <time>2014-05-04T07:31:44.000Z</time>
      </trkpt>
      <trkpt lat="47.4551" lon="6.78458">
        <ele>352.1</ele>
        <time>2014-05-04T07:31:45.000Z</time>
      </trkpt>
      <trkpt lat="47.45501" lon="6.78461">
        <ele>349.1</ele>
        <time>2014-05-04T07:31:46.000Z</time>
      </trkpt>
      <trkpt lat="47.45494" lon="6.78465">
        <ele>347.5</ele>
        <time>2014-05-04T07:31:47.000Z</time>
      </trkpt>
      <trkpt lat="47.45486" lon="6.78469">
        <ele>347.4</ele>
        <time>2014-05-04T07:31:48.000Z</time>
      </trkpt>
      <trkpt lat="47.45479" lon="6.78474">
        <ele>347.2</ele>
        <time>2014-05-04T07:31:49.000Z</time>
      </trkpt>
      <trkpt lat="47.45473" lon="6.78479">
        <ele>346.4</ele>
        <time>2014-05-04T07:31:50.000Z</time>
      </trkpt>
      <trkpt lat="47.45465" lon="6.78484">
        <ele>346.4</ele>
        <time>2014-05-04T07:31:51.000Z</time>
      </trkpt>
      <trkpt lat="47.45459" lon="6.78489">
        <ele>347.5</ele>
        <time>2014-05-04T07:31:52.000Z</time>
      </trkpt>
      <trkpt lat="47.45453" lon="6.78492">
        <ele>345.4</ele>
        <time>2014-05-04T07:31:53.000Z</time>
      </trkpt>
      <trkpt lat="47.45448" lon="6.78494">
        <ele>344</ele>
        <time>2014-05-04T07:31:54.000Z</time>
      </trkpt>
      <trkpt lat="47.45444" lon="6.78496">
        <ele>344</ele>
        <time>2014-05-04T07:31:55.000Z</time>
      </trkpt>
      <trkpt lat="47.45441" lon="6.78496">
        <ele>344.1</ele>
        <time>2014-05-04T07:31:56.000Z</time>
      </trkpt>
      <trkpt lat="47.45439" lon="6.78502">
        <ele>343.8</ele>
        <time>2014-05-04T07:31:57.000Z</time>
      </trkpt>
      <trkpt lat="47.45437" lon="6.78507">
        <ele>342.8</ele>
        <time>2014-05-04T07:31:58.000Z</time>
      </trkpt>
      <trkpt lat="47.45433" lon="6.78511">
        <ele>342.1</ele>
        <time>2014-05-04T07:31:59.000Z</time>
      </trkpt>
      <trkpt lat="47.45429" lon="6.78513">
        <ele>340.8</ele>
        <time>2014-05-04T07:32:00.000Z</time>
      </trkpt>
      <trkpt lat="47.45425" lon="6.78516">
        <ele>341.1</ele>
        <time>2014-05-04T07:32:01.000Z</time>
      </trkpt>
      <trkpt lat="47.45421" lon="6.78521">
        <ele>340.6</ele>
        <time>2014-05-04T07:32:02.000Z</time>
      </trkpt>
      <trkpt lat="47.45417" lon="6.78526">
        <ele>339.5</ele>
        <time>2014-05-04T07:32:03.000Z</time>
      </trkpt>
      <trkpt lat="47.45413" lon="6.78533">
        <ele>337.3</ele>
        <time>2014-05-04T07:32:04.000Z</time>
      </trkpt>
      <trkpt lat="47.45408" lon="6.78539">
        <ele>336.9</ele>
        <time>2014-05-04T07:32:05.000Z</time>
      </trkpt>
      <trkpt lat="47.45404" lon="6.78546">
        <ele>335.1</ele>
        <time>2014-05-04T07:32:06.000Z</time>
      </trkpt>
      <trkpt lat="47.45399" lon="6.78552">
        <ele>334.1</ele>
        <time>2014-05-04T07:32:07.000Z</time>
      </trkpt>
      <trkpt lat="47.45395" lon="6.78557">
        <ele>333.8</ele>
        <time>2014-05-04T07:32:08.000Z</time>
      </trkpt>
      <trkpt lat="47.45392" lon="6.78562">
        <ele>333.7</ele>
        <time>2014-05-04T07:32:09.000Z</time>
      </trkpt>
      <trkpt lat="47.45389" lon="6.78566">
        <ele>333.1</ele>
        <time>2014-05-04T07:32:10.000Z</time>
      </trkpt>
      <trkpt lat="47.45388" lon="6.78571">
        <ele>332.4</ele>
        <time>2014-05-04T07:32:11.000Z</time>
      </trkpt>
      <trkpt lat="47.45387" lon="6.78576">
        <ele>331.9</ele>
        <time>2014-05-04T07:32:12.000Z</time>
      </trkpt>
      <trkpt lat="47.45387" lon="6.78582">
        <ele>332.1</ele>
        <time>2014-05-04T07:32:13.000Z</time>
      </trkpt>
      <trkpt lat="47.45388" lon="6.78587">
        <ele>331.2</ele>
        <time>2014-05-04T07:32:14.000Z</time>
      </trkpt>
      <trkpt lat="47.45391" lon="6.78592">
        <ele>330.8</ele>
        <time>2014-05-04T07:32:15.000Z</time>
      </trkpt>
      <trkpt lat="47.45394" lon="6.78598">
        <ele>330.5</ele>
        <time>2014-05-04T07:32:16.000Z</time>
      </trkpt>
      <trkpt lat="47.45398" lon="6.78603">
        <ele>331.1</ele>
        <time>2014-05-04T07:32:17.000Z</time>
      </trkpt>
      <trkpt lat="47.45402" lon="6.7861">
        <ele>331.2</ele>
        <time>2014-05-04T07:32:18.000Z</time>
      </trkpt>
      <trkpt lat="47.45406" lon="6.78616">
        <ele>332.1</ele>
        <time>2014-05-04T07:32:19.000Z</time>
      </trkpt>
      <trkpt lat="47.45409" lon="6.78623">
        <ele>330.9</ele>
        <time>2014-05-04T07:32:20.000Z</time>
      </trkpt>
      <trkpt lat="47.45413" lon="6.7863">
        <ele>331.2</ele>
        <time>2014-05-04T07:32:21.000Z</time>
      </trkpt>
      <trkpt lat="47.45417" lon="6.78637">
        <ele>331.1</ele>
        <time>2014-05-04T07:32:22.000Z</time>
      </trkpt>
      <trkpt lat="47.45421" lon="6.78646">
        <ele>330.8</ele>
        <time>2014-05-04T07:32:23.000Z</time>
      </trkpt>
      <trkpt lat="47.45425" lon="6.78654">
        <ele>330.7</ele>
        <time>2014-05-04T07:32:24.000Z</time>
      </trkpt>
      <trkpt lat="47.45429" lon="6.78662">
        <ele>330.9</ele>
        <time>2014-05-04T07:32:25.000Z</time>
      </trkpt>
      <trkpt lat="47.45433" lon="6.78668">
        <ele>331.1</ele>
        <time>2014-05-04T07:32:26.000Z</time>
      </trkpt>
      <trkpt lat="47.45436" lon="6.78676">
        <ele>331</ele>
        <time>2014-05-04T07:32:27.000Z</time>
      </trkpt>
      <trkpt lat="47.45439" lon="6.78684">
        <ele>331.3</ele>
        <time>2014-05-04T07:32:28.000Z</time>
      </trkpt>
      <trkpt lat="47.45442" lon="6.7869">
        <ele>331.5</ele>
        <time>2014-05-04T07:32:29.000Z</time>
      </trkpt>
      <trkpt lat="47.45447" lon="6.78695">
        <ele>330.8</ele>
        <time>2014-05-04T07:32:30.000Z</time>
      </trkpt>
      <trkpt lat="47.45451" lon="6.78702">
        <ele>331.5</ele>
        <time>2014-05-04T07:32:31.000Z</time>
      </trkpt>
      <trkpt lat="47.45454" lon="6.78708">
        <ele>331.8</ele>
        <time>2014-05-04T07:32:32.000Z</time>
      </trkpt>
      <trkpt lat="47.45457" lon="6.78715">
        <ele>331.7</ele>
        <time>2014-05-04T07:32:33.000Z</time>
      </trkpt>
      <trkpt lat="47.4546" lon="6.78722">
        <ele>331.5</ele>
        <time>2014-05-04T07:32:34.000Z</time>
      </trkpt>
      <trkpt lat="47.45463" lon="6.78729">
        <ele>331.6</ele>
        <time>2014-05-04T07:32:35.000Z</time>
      </trkpt>
      <trkpt lat="47.45465" lon="6.78737">
        <ele>330.8</ele>
        <time>2014-05-04T07:32:36.000Z</time>
      </trkpt>
      <trkpt lat="47.45469" lon="6.78743">
        <ele>331</ele>
        <time>2014-05-04T07:32:37.000Z</time>
      </trkpt>
      <trkpt lat="47.45472" lon="6.78751">
        <ele>330.4</ele>
        <time>2014-05-04T07:32:38.000Z</time>
      </trkpt>
      <trkpt lat="47.45475" lon="6.78757">
        <ele>329.4</ele>
        <time>2014-05-04T07:32:39.000Z</time>
      </trkpt>
      <trkpt lat="47.45475" lon="6.78763">
        <ele>329.1</ele>
        <time>2014-05-04T07:32:40.000Z</time>
      </trkpt>
      <trkpt lat="47.45474" lon="6.7877">
        <ele>328</ele>
        <time>2014-05-04T07:32:41.000Z</time>
      </trkpt>
      <trkpt lat="47.45469" lon="6.78777">
        <ele>327.7</ele>
        <time>2014-05-04T07:32:42.000Z</time>
      </trkpt>
      <trkpt lat="47.45428" lon="6.78821">
        <ele>327.3</ele>
        <time>2014-05-04T07:32:50.000Z</time>
      </trkpt>
      <trkpt lat="47.45424" lon="6.78827">
        <ele>326.9</ele>
        <time>2014-05-04T07:32:51.000Z</time>
      </trkpt>
      <trkpt lat="47.45419" lon="6.78832">
        <ele>326.7</ele>
        <time>2014-05-04T07:32:52.000Z</time>
      </trkpt>
      <trkpt lat="47.45414" lon="6.78838">
        <ele>327.1</ele>
        <time>2014-05-04T07:32:53.000Z</time>
      </trkpt>
      <trkpt lat="47.45409" lon="6.78845">
        <ele>326.4</ele>
        <time>2014-05-04T07:32:54.000Z</time>
      </trkpt>
      <trkpt lat="47.45404" lon="6.7885">
        <ele>326.7</ele>
        <time>2014-05-04T07:32:55.000Z</time>
      </trkpt>
      <trkpt lat="47.45399" lon="6.78856">
        <ele>326.3</ele>
        <time>2014-05-04T07:32:56.000Z</time>
      </trkpt>
      <trkpt lat="47.45394" lon="6.78863">
        <ele>325.8</ele>
        <time>2014-05-04T07:32:57.000Z</time>
      </trkpt>
      <trkpt lat="47.45389" lon="6.78869">
        <ele>326.5</ele>
        <time>2014-05-04T07:32:58.000Z</time>
      </trkpt>
      <trkpt lat="47.45385" lon="6.78875">
        <ele>326.9</ele>
        <time>2014-05-04T07:32:59.000Z</time>
      </trkpt>
      <trkpt lat="47.45382" lon="6.78882">
        <ele>327.2</ele>
        <time>2014-05-04T07:33:00.000Z</time>
      </trkpt>
      <trkpt lat="47.4538" lon="6.78885">
        <ele>327.8</ele>
        <time>2014-05-04T07:33:01.000Z</time>
      </trkpt>
      <trkpt lat="47.45378" lon="6.78887">
        <ele>327.7</ele>
        <time>2014-05-04T07:33:02.000Z</time>
      </trkpt>
      <trkpt lat="47.45373" lon="6.78888">
        <ele>327.9</ele>
        <time>2014-05-04T07:33:04.000Z</time>
      </trkpt>
      <trkpt lat="47.4537" lon="6.78891">
        <ele>328.6</ele>
        <time>2014-05-04T07:33:05.000Z</time>
      </trkpt>
      <trkpt lat="47.45369" lon="6.78894">
        <ele>328.5</ele>
        <time>2014-05-04T07:33:06.000Z</time>
      </trkpt>
      <trkpt lat="47.45365" lon="6.78898">
        <ele>327.7</ele>
        <time>2014-05-04T07:33:07.000Z</time>
      </trkpt>
      <trkpt lat="47.45362" lon="6.78904">
        <ele>328</ele>
        <time>2014-05-04T07:33:08.000Z</time>
      </trkpt>
      <trkpt lat="47.45358" lon="6.78909">
        <ele>328.3</ele>
        <time>2014-05-04T07:33:09.000Z</time>
      </trkpt>
      <trkpt lat="47.45355" lon="6.78913">
        <ele>328</ele>
        <time>2014-05-04T07:33:10.000Z</time>
      </trkpt>
      <trkpt lat="47.45351" lon="6.78918">
        <ele>328</ele>
        <time>2014-05-04T07:33:11.000Z</time>
      </trkpt>
      <trkpt lat="47.45347" lon="6.78924">
        <ele>327.5</ele>
        <time>2014-05-04T07:33:12.000Z</time>
      </trkpt>
      <trkpt lat="47.45344" lon="6.7893">
        <ele>327</ele>
        <time>2014-05-04T07:33:13.000Z</time>
      </trkpt>
      <trkpt lat="47.4534" lon="6.78936">
        <ele>327.1</ele>
        <time>2014-05-04T07:33:14.000Z</time>
      </trkpt>
      <trkpt lat="47.45336" lon="6.78941">
        <ele>328.1</ele>
        <time>2014-05-04T07:33:15.000Z</time>
      </trkpt>
      <trkpt lat="47.45334" lon="6.78946">
        <ele>328.5</ele>
        <time>2014-05-04T07:33:16.000Z</time>
      </trkpt>
      <trkpt lat="47.4533" lon="6.78949">
        <ele>328.5</ele>
        <time>2014-05-04T07:33:17.000Z</time>
      </trkpt>
      <trkpt lat="47.45326" lon="6.78951">
        <ele>327.8</ele>
        <time>2014-05-04T07:33:18.000Z</time>
      </trkpt>
      <trkpt lat="47.45322" lon="6.78955">
        <ele>326.8</ele>
        <time>2014-05-04T07:33:19.000Z</time>
      </trkpt>
      <trkpt lat="47.45319" lon="6.78959">
        <ele>326.3</ele>
        <time>2014-05-04T07:33:20.000Z</time>
      </trkpt>
      <trkpt lat="47.45315" lon="6.78963">
        <ele>326.6</ele>
        <time>2014-05-04T07:33:21.000Z</time>
      </trkpt>
      <trkpt lat="47.45312" lon="6.78968">
        <ele>326.4</ele>
        <time>2014-05-04T07:33:22.000Z</time>
      </trkpt>
      <trkpt lat="47.45307" lon="6.78973">
        <ele>326.5</ele>
        <time>2014-05-04T07:33:23.000Z</time>
      </trkpt>
      <trkpt lat="47.45304" lon="6.78978">
        <ele>326.9</ele>
        <time>2014-05-04T07:33:24.000Z</time>
      </trkpt>
      <trkpt lat="47.453" lon="6.78983">
        <ele>326.3</ele>
        <time>2014-05-04T07:33:25.000Z</time>
      </trkpt>
      <trkpt lat="47.45297" lon="6.78988">
        <ele>326.7</ele>
        <time>2014-05-04T07:33:26.000Z</time>
      </trkpt>
      <trkpt lat="47.45294" lon="6.78994">
        <ele>326.9</ele>
        <time>2014-05-04T07:33:27.000Z</time>
      </trkpt>
      <trkpt lat="47.45291" lon="6.79001">
        <ele>327.5</ele>
        <time>2014-05-04T07:33:28.000Z</time>
      </trkpt>
      <trkpt lat="47.45287" lon="6.79006">
        <ele>327.5</ele>
        <time>2014-05-04T07:33:29.000Z</time>
      </trkpt>
      <trkpt lat="47.45284" lon="6.79011">
        <ele>326.7</ele>
        <time>2014-05-04T07:33:30.000Z</time>
      </trkpt>
      <trkpt lat="47.45281" lon="6.79017">
        <ele>326.4</ele>
        <time>2014-05-04T07:33:31.000Z</time>
      </trkpt>
      <trkpt lat="47.45278" lon="6.79024">
        <ele>326.2</ele>
        <time>2014-05-04T07:33:32.000Z</time>
      </trkpt>
      <trkpt lat="47.45274" lon="6.7903">
        <ele>325.8</ele>
        <time>2014-05-04T07:33:33.000Z</time>
      </trkpt>
      <trkpt lat="47.45272" lon="6.79037">
        <ele>324.6</ele>
        <time>2014-05-04T07:33:34.000Z</time>
      </trkpt>
      <trkpt lat="47.4527" lon="6.79042">
        <ele>325</ele>
        <time>2014-05-04T07:33:35.000Z</time>
      </trkpt>
      <trkpt lat="47.45268" lon="6.79048">
        <ele>324.7</ele>
        <time>2014-05-04T07:33:36.000Z</time>
      </trkpt>
      <trkpt lat="47.45266" lon="6.79053">
        <ele>324.3</ele>
        <time>2014-05-04T07:33:37.000Z</time>
      </trkpt>
      <trkpt lat="47.45264" lon="6.79061">
        <ele>325.2</ele>
        <time>2014-05-04T07:33:38.000Z</time>
      </trkpt>
      <trkpt lat="47.45263" lon="6.79068">
        <ele>324.6</ele>
        <time>2014-05-04T07:33:39.000Z</time>
      </trkpt>
      <trkpt lat="47.45261" lon="6.79073">
        <ele>325.2</ele>
        <time>2014-05-04T07:33:40.000Z</time>
      </trkpt>
      <trkpt lat="47.45259" lon="6.79078">
        <ele>326</ele>
        <time>2014-05-04T07:33:41.000Z</time>
      </trkpt>
      <trkpt lat="47.45256" lon="6.79084">
        <ele>326.2</ele>
        <time>2014-05-04T07:33:42.000Z</time>
      </trkpt>
      <trkpt lat="47.45238" lon="6.79128">
        <ele>322.1</ele>
        <time>2014-05-04T07:33:50.000Z</time>
      </trkpt>
      <trkpt lat="47.45232" lon="6.79131">
        <ele>322.7</ele>
        <time>2014-05-04T07:33:51.000Z</time>
      </trkpt>
      <trkpt lat="47.45228" lon="6.79134">
        <ele>322.1</ele>
        <time>2014-05-04T07:33:52.000Z</time>
      </trkpt>
      <trkpt lat="47.45225" lon="6.79136">
        <ele>322.9</ele>
        <time>2014-05-04T07:33:53.000Z</time>
      </trkpt>
      <trkpt lat="47.45223" lon="6.79137">
        <ele>323</ele>
        <time>2014-05-04T07:33:54.000Z</time>
      </trkpt>
      <trkpt lat="47.45219" lon="6.7914">
        <ele>322.5</ele>
        <time>2014-05-04T07:33:55.000Z</time>
      </trkpt>
      <trkpt lat="47.45216" lon="6.79143">
        <ele>323.4</ele>
        <time>2014-05-04T07:33:56.000Z</time>
      </trkpt>
      <trkpt lat="47.45215" lon="6.79148">
        <ele>323.7</ele>
        <time>2014-05-04T07:33:57.000Z</time>
      </trkpt>
      <trkpt lat="47.45213" lon="6.79153">
        <ele>324.2</ele>
        <time>2014-05-04T07:33:58.000Z</time>
      </trkpt>
      <trkpt lat="47.45212" lon="6.79158">
        <ele>323.7</ele>
        <time>2014-05-04T07:33:59.000Z</time>
      </trkpt>
      <trkpt lat="47.4521" lon="6.79164">
        <ele>323.6</ele>
        <time>2014-05-04T07:34:00.000Z</time>
      </trkpt>
      <trkpt lat="47.45209" lon="6.7917">
        <ele>323.8</ele>
        <time>2014-05-04T07:34:01.000Z</time>
      </trkpt>
      <trkpt lat="47.45208" lon="6.79181">
        <ele>322.8</ele>
        <time>2014-05-04T07:34:02.000Z</time>
      </trkpt>
      <trkpt lat="47.45207" lon="6.79187">
        <ele>322.4</ele>
        <time>2014-05-04T07:34:03.000Z</time>
      </trkpt>
      <trkpt lat="47.45207" lon="6.79194">
        <ele>322.3</ele>
        <time>2014-05-04T07:34:04.000Z</time>
      </trkpt>
      <trkpt lat="47.45206" lon="6.79199">
        <ele>322.2</ele>
        <time>2014-05-04T07:34:05.000Z</time>
      </trkpt>
      <trkpt lat="47.45204" lon="6.79205">
        <ele>322</ele>
        <time>2014-05-04T07:34:06.000Z</time>
      </trkpt>
      <trkpt lat="47.45203" lon="6.79211">
        <ele>322.4</ele>
        <time>2014-05-04T07:34:07.000Z</time>
      </trkpt>
      <trkpt lat="47.45202" lon="6.79217">
        <ele>323.6</ele>
        <time>2014-05-04T07:34:08.000Z</time>
      </trkpt>
      <trkpt lat="47.452" lon="6.79223">
        <ele>323.1</ele>
        <time>2014-05-04T07:34:09.000Z</time>
      </trkpt>
      <trkpt lat="47.45199" lon="6.79229">
        <ele>323.3</ele>
        <time>2014-05-04T07:34:10.000Z</time>
      </trkpt>
      <trkpt lat="47.45197" lon="6.79236">
        <ele>323.2</ele>
        <time>2014-05-04T07:34:11.000Z</time>
      </trkpt>
      <trkpt lat="47.45194" lon="6.7924">
        <ele>323</ele>
        <time>2014-05-04T07:34:12.000Z</time>
      </trkpt>
      <trkpt lat="47.45192" lon="6.79246">
        <ele>323.9</ele>
        <time>2014-05-04T07:34:13.000Z</time>
      </trkpt>
      <trkpt lat="47.45189" lon="6.79252">
        <ele>324.3</ele>
        <time>2014-05-04T07:34:14.000Z</time>
      </trkpt>
      <trkpt lat="47.45185" lon="6.79258">
        <ele>324.5</ele>
        <time>2014-05-04T07:34:15.000Z</time>
      </trkpt>
      <trkpt lat="47.45182" lon="6.79265">
        <ele>324.6</ele>
        <time>2014-05-04T07:34:16.000Z</time>
      </trkpt>
      <trkpt lat="47.4518" lon="6.79273">
        <ele>324.1</ele>
        <time>2014-05-04T07:34:17.000Z</time>
      </trkpt>
      <trkpt lat="47.45177" lon="6.79282">
        <ele>323.5</ele>
        <time>2014-05-04T07:34:18.000Z</time>
      </trkpt>
      <trkpt lat="47.45175" lon="6.7929">
        <ele>323</ele>
        <time>2014-05-04T07:34:19.000Z</time>
      </trkpt>
      <trkpt lat="47.45174" lon="6.79297">
        <ele>322.7</ele>
        <time>2014-05-04T07:34:20.000Z</time>
      </trkpt>
      <trkpt lat="47.45172" lon="6.79303">
        <ele>323.2</ele>
        <time>2014-05-04T07:34:21.000Z</time>
      </trkpt>
      <trkpt lat="47.4517" lon="6.79311">
        <ele>322.5</ele>
        <time>2014-05-04T07:34:22.000Z</time>
      </trkpt>
      <trkpt lat="47.45169" lon="6.79322">
        <ele>322</ele>
        <time>2014-05-04T07:34:23.000Z</time>
      </trkpt>
      <trkpt lat="47.45168" lon="6.79331">
        <ele>321.1</ele>
        <time>2014-05-04T07:34:24.000Z</time>
      </trkpt>
      <trkpt lat="47.45166" lon="6.79339">
        <ele>320.4</ele>
        <time>2014-05-04T07:34:25.000Z</time>
      </trkpt>
      <trkpt lat="47.45164" lon="6.79347">
        <ele>320.4</ele>
        <time>2014-05-04T07:34:26.000Z</time>
      </trkpt>
      <trkpt lat="47.45162" lon="6.79357">
        <ele>319.9</ele>
        <time>2014-05-04T07:34:27.000Z</time>
      </trkpt>
      <trkpt lat="47.45161" lon="6.79365">
        <ele>320.2</ele>
        <time>2014-05-04T07:34:28.000Z</time>
      </trkpt>
      <trkpt lat="47.45159" lon="6.79373">
        <ele>320</ele>
        <time>2014-05-04T07:34:29.000Z</time>
      </trkpt>
      <trkpt lat="47.45156" lon="6.7938">
        <ele>320.3</ele>
        <time>2014-05-04T07:34:30.000Z</time>
      </trkpt>
      <trkpt lat="47.45154" lon="6.79387">
        <ele>319.8</ele>
        <time>2014-05-04T07:34:31.000Z</time>
      </trkpt>
      <trkpt lat="47.45152" lon="6.79394">
        <ele>319.2</ele>
        <time>2014-05-04T07:34:32.000Z</time>
      </trkpt>
      <trkpt lat="47.45151" lon="6.79401">
        <ele>319.7</ele>
        <time>2014-05-04T07:34:33.000Z</time>
      </trkpt>
      <trkpt lat="47.45149" lon="6.79407">
        <ele>321.2</ele>
        <time>2014-05-04T07:34:34.000Z</time>
      </trkpt>
      <trkpt lat="47.45146" lon="6.79413">
        <ele>321.5</ele>
        <time>2014-05-04T07:34:35.000Z</time>
      </trkpt>
      <trkpt lat="47.45144" lon="6.7942">
        <ele>321.5</ele>
        <time>2014-05-04T07:34:36.000Z</time>
      </trkpt>
      <trkpt lat="47.45141" lon="6.79426">
        <ele>322</ele>
        <time>2014-05-04T07:34:37.000Z</time>
      </trkpt>
      <trkpt lat="47.45138" lon="6.79432">
        <ele>321.4</ele>
        <time>2014-05-04T07:34:38.000Z</time>
      </trkpt>
      <trkpt lat="47.45136" lon="6.79439">
        <ele>321.4</ele>
        <time>2014-05-04T07:34:39.000Z</time>
      </trkpt>
      <trkpt lat="47.45134" lon="6.79447">
        <ele>321</ele>
        <time>2014-05-04T07:34:40.000Z</time>
      </trkpt>
      <trkpt lat="47.45132" lon="6.79454">
        <ele>322.7</ele>
        <time>2014-05-04T07:34:41.000Z</time>
      </trkpt>
      <trkpt lat="47.45128" lon="6.79472">
        <ele>325.3</ele>
        <time>2014-05-04T07:34:44.000Z</time>
      </trkpt>
      <trkpt lat="47.45126" lon="6.7948">
        <ele>325.2</ele>
        <time>2014-05-04T07:34:45.000Z</time>
      </trkpt>
      <trkpt lat="47.45124" lon="6.79487">
        <ele>326.3</ele>
        <time>2014-05-04T07:34:46.000Z</time>
      </trkpt>
      <trkpt lat="47.45123" lon="6.79494">
        <ele>327.2</ele>
        <time>2014-05-04T07:34:47.000Z</time>
      </trkpt>
      <trkpt lat="47.45122" lon="6.79502">
        <ele>326.4</ele>
        <time>2014-05-04T07:34:48.000Z</time>
      </trkpt>
      <trkpt lat="47.45121" lon="6.7951">
        <ele>326</ele>
        <time>2014-05-04T07:34:49.000Z</time>
      </trkpt>
      <trkpt lat="47.45119" lon="6.79516">
        <ele>325.6</ele>
        <time>2014-05-04T07:34:50.000Z</time>
      </trkpt>
      <trkpt lat="47.45118" lon="6.79524">
        <ele>324.5</ele>
        <time>2014-05-04T07:34:51.000Z</time>
      </trkpt>
      <trkpt lat="47.45116" lon="6.79532">
        <ele>323.6</ele>
        <time>2014-05-04T07:34:52.000Z</time>
      </trkpt>
      <trkpt lat="47.45112" lon="6.79537">
        <ele>323.1</ele>
        <time>2014-05-04T07:34:53.000Z</time>
      </trkpt>
      <trkpt lat="47.45108" lon="6.79544">
        <ele>322.7</ele>
        <time>2014-05-04T07:34:54.000Z</time>
      </trkpt>
      <trkpt lat="47.45104" lon="6.7955">
        <ele>322.5</ele>
        <time>2014-05-04T07:34:55.000Z</time>
      </trkpt>
      <trkpt lat="47.45101" lon="6.79557">
        <ele>321.8</ele>
        <time>2014-05-04T07:34:56.000Z</time>
      </trkpt>
      <trkpt lat="47.45097" lon="6.79562">
        <ele>321.6</ele>
        <time>2014-05-04T07:34:57.000Z</time>
      </trkpt>
      <trkpt lat="47.45093" lon="6.79567">
        <ele>322.1</ele>
        <time>2014-05-04T07:34:58.000Z</time>
      </trkpt>
      <trkpt lat="47.45089" lon="6.79573">
        <ele>321.7</ele>
        <time>2014-05-04T07:34:59.000Z</time>
      </trkpt>
      <trkpt lat="47.45085" lon="6.79578">
        <ele>321.7</ele>
        <time>2014-05-04T07:35:00.000Z</time>
      </trkpt>
      <trkpt lat="47.45081" lon="6.79583">
        <ele>321.8</ele>
        <time>2014-05-04T07:35:01.000Z</time>
      </trkpt>
      <trkpt lat="47.45077" lon="6.79587">
        <ele>322.9</ele>
        <time>2014-05-04T07:35:02.000Z</time>
      </trkpt>
      <trkpt lat="47.45073" lon="6.79592">
        <ele>322.8</ele>
        <time>2014-05-04T07:35:03.000Z</time>
      </trkpt>
      <trkpt lat="47.4507" lon="6.79597">
        <ele>322.7</ele>
        <time>2014-05-04T07:35:04.000Z</time>
      </trkpt>
      <trkpt lat="47.45067" lon="6.79601">
        <ele>322.5</ele>
        <time>2014-05-04T07:35:05.000Z</time>
      </trkpt>
      <trkpt lat="47.45064" lon="6.79606">
        <ele>322.3</ele>
        <time>2014-05-04T07:35:06.000Z</time>
      </trkpt>
      <trkpt lat="47.45061" lon="6.79611">
        <ele>321.9</ele>
        <time>2014-05-04T07:35:07.000Z</time>
      </trkpt>
      <trkpt lat="47.45057" lon="6.79615">
        <ele>321.5</ele>
        <time>2014-05-04T07:35:08.000Z</time>
      </trkpt>
      <trkpt lat="47.45055" lon="6.79618">
        <ele>321.8</ele>
        <time>2014-05-04T07:35:09.000Z</time>
      </trkpt>
      <trkpt lat="47.45052" lon="6.79621">
        <ele>322</ele>
        <time>2014-05-04T07:35:10.000Z</time>
      </trkpt>
      <trkpt lat="47.45049" lon="6.79624">
        <ele>322.3</ele>
        <time>2014-05-04T07:35:11.000Z</time>
      </trkpt>
      <trkpt lat="47.45047" lon="6.79626">
        <ele>322.7</ele>
        <time>2014-05-04T07:35:12.000Z</time>
      </trkpt>
      <trkpt lat="47.45046" lon="6.79629">
        <ele>323</ele>
        <time>2014-05-04T07:35:13.000Z</time>
      </trkpt>
      <trkpt lat="47.45045" lon="6.79632">
        <ele>323.1</ele>
        <time>2014-05-04T07:35:14.000Z</time>
      </trkpt>
      <trkpt lat="47.45042" lon="6.79636">
        <ele>323.8</ele>
        <time>2014-05-04T07:35:16.000Z</time>
      </trkpt>
      <trkpt lat="47.45041" lon="6.79639">
        <ele>324.9</ele>
        <time>2014-05-04T07:35:17.000Z</time>
      </trkpt>
      <trkpt lat="47.45039" lon="6.79643">
        <ele>325.1</ele>
        <time>2014-05-04T07:35:18.000Z</time>
      </trkpt>
      <trkpt lat="47.45038" lon="6.79647">
        <ele>324.6</ele>
        <time>2014-05-04T07:35:19.000Z</time>
      </trkpt>
      <trkpt lat="47.45037" lon="6.79651">
        <ele>324</ele>
        <time>2014-05-04T07:35:20.000Z</time>
      </trkpt>
      <trkpt lat="47.45036" lon="6.79655">
        <ele>324.3</ele>
        <time>2014-05-04T07:35:21.000Z</time>
      </trkpt>
      <trkpt lat="47.45035" lon="6.7966">
        <ele>323.8</ele>
        <time>2014-05-04T07:35:22.000Z</time>
      </trkpt>
      <trkpt lat="47.45034" lon="6.79664">
        <ele>324.1</ele>
        <time>2014-05-04T07:35:23.000Z</time>
      </trkpt>
      <trkpt lat="47.45033" lon="6.79668">
        <ele>323.1</ele>
        <time>2014-05-04T07:35:24.000Z</time>
      </trkpt>
      <trkpt lat="47.45033" lon="6.79672">
        <ele>323</ele>
        <time>2014-05-04T07:35:25.000Z</time>
      </trkpt>
      <trkpt lat="47.45032" lon="6.79676">
        <ele>323.2</ele>
        <time>2014-05-04T07:35:26.000Z</time>
      </trkpt>
      <trkpt lat="47.45032" lon="6.79679">
        <ele>323.4</ele>
        <time>2014-05-04T07:35:27.000Z</time>
      </trkpt>
      <trkpt lat="47.45031" lon="6.79683">
        <ele>323.4</ele>
        <time>2014-05-04T07:35:28.000Z</time>
      </trkpt>
      <trkpt lat="47.45031" lon="6.79686">
        <ele>323.8</ele>
        <time>2014-05-04T07:35:29.000Z</time>
      </trkpt>
      <trkpt lat="47.45031" lon="6.7969">
        <ele>323.1</ele>
        <time>2014-05-04T07:35:30.000Z</time>
      </trkpt>
      <trkpt lat="47.45031" lon="6.79694">
        <ele>323.2</ele>
        <time>2014-05-04T07:35:31.000Z</time>
      </trkpt>
      <trkpt lat="47.45031" lon="6.79698">
        <ele>324.1</ele>
        <time>2014-05-04T07:35:32.000Z</time>
      </trkpt>
      <trkpt lat="47.45031" lon="6.79702">
        <ele>325.5</ele>
        <time>2014-05-04T07:35:33.000Z</time>
      </trkpt>
      <trkpt lat="47.4503" lon="6.79708">
        <ele>325.5</ele>
        <time>2014-05-04T07:35:35.000Z</time>
      </trkpt>
      <trkpt lat="47.4503" lon="6.79711">
        <ele>325.4</ele>
        <time>2014-05-04T07:35:36.000Z</time>
      </trkpt>
      <trkpt lat="47.45029" lon="6.79716">
        <ele>327.2</ele>
        <time>2014-05-04T07:35:40.000Z</time>
      </trkpt>
      <trkpt lat="47.45028" lon="6.79718">
        <ele>327.8</ele>
        <time>2014-05-04T07:35:41.000Z</time>
      </trkpt>
      <trkpt lat="47.45027" lon="6.79719">
        <ele>328.4</ele>
        <time>2014-05-04T07:35:42.000Z</time>
      </trkpt>
      <trkpt lat="47.45016" lon="6.79717">
        <ele>333.2</ele>
        <time>2014-05-04T07:35:50.000Z</time>
      </trkpt>
      <trkpt lat="47.45013" lon="6.79714">
        <ele>335.5</ele>
        <time>2014-05-04T07:35:53.000Z</time>
      </trkpt>
      <trkpt lat="47.45011" lon="6.79713">
        <ele>336.4</ele>
        <time>2014-05-04T07:35:54.000Z</time>
      </trkpt>
      <trkpt lat="47.45008" lon="6.79711">
        <ele>338.8</ele>
        <time>2014-05-04T07:35:57.000Z</time>
      </trkpt>
      <trkpt lat="47.45007" lon="6.7971">
        <ele>339.3</ele>
        <time>2014-05-04T07:35:58.000Z</time>
      </trkpt>
      <trkpt lat="47.45004" lon="6.79706">
        <ele>340.3</ele>
        <time>2014-05-04T07:36:01.000Z</time>
      </trkpt>
      <trkpt lat="47.45003" lon="6.79705">
        <ele>340.6</ele>
        <time>2014-05-04T07:36:02.000Z</time>
      </trkpt>
      <trkpt lat="47.45" lon="6.79701">
        <ele>344.2</ele>
        <time>2014-05-04T07:36:06.000Z</time>
      </trkpt>
      <trkpt lat="47.44999" lon="6.79701">
        <ele>344.4</ele>
        <time>2014-05-04T07:36:07.000Z</time>
      </trkpt>
      <trkpt lat="47.44995" lon="6.79699">
        <ele>348.2</ele>
        <time>2014-05-04T07:36:10.000Z</time>
      </trkpt>
      <trkpt lat="47.44994" lon="6.79698">
        <ele>348.3</ele>
        <time>2014-05-04T07:36:11.000Z</time>
      </trkpt>
      <trkpt lat="47.4499" lon="6.79695">
        <ele>348.5</ele>
        <time>2014-05-04T07:36:14.000Z</time>
      </trkpt>
      <trkpt lat="47.44989" lon="6.79694">
        <ele>349.2</ele>
        <time>2014-05-04T07:36:15.000Z</time>
      </trkpt>
      <trkpt lat="47.44985" lon="6.79692">
        <ele>347.9</ele>
        <time>2014-05-04T07:36:18.000Z</time>
      </trkpt>
      <trkpt lat="47.44984" lon="6.79691">
        <ele>348.3</ele>
        <time>2014-05-04T07:36:19.000Z</time>
      </trkpt>
      <trkpt lat="47.44981" lon="6.7969">
        <ele>348.4</ele>
        <time>2014-05-04T07:36:21.000Z</time>
      </trkpt>
      <trkpt lat="47.44979" lon="6.79691">
        <ele>348.4</ele>
        <time>2014-05-04T07:36:22.000Z</time>
      </trkpt>
      <trkpt lat="47.44976" lon="6.79691">
        <ele>350.3</ele>
        <time>2014-05-04T07:36:24.000Z</time>
      </trkpt>
      <trkpt lat="47.44974" lon="6.79691">
        <ele>350.5</ele>
        <time>2014-05-04T07:36:25.000Z</time>
      </trkpt>
      <trkpt lat="47.4497" lon="6.7969">
        <ele>350.8</ele>
        <time>2014-05-04T07:36:27.000Z</time>
      </trkpt>
      <trkpt lat="47.44968" lon="6.7969">
        <ele>351.1</ele>
        <time>2014-05-04T07:36:28.000Z</time>
      </trkpt>
      <trkpt lat="47.44965" lon="6.79691">
        <ele>350.6</ele>
        <time>2014-05-04T07:36:30.000Z</time>
      </trkpt>
      <trkpt lat="47.44963" lon="6.79691">
        <ele>350.5</ele>
        <time>2014-05-04T07:36:31.000Z</time>
      </trkpt>
      <trkpt lat="47.4496" lon="6.79693">
        <ele>352.5</ele>
        <time>2014-05-04T07:36:33.000Z</time>
      </trkpt>
      <trkpt lat="47.44959" lon="6.79694">
        <ele>352.9</ele>
        <time>2014-05-04T07:36:34.000Z</time>
      </trkpt>
      <trkpt lat="47.44956" lon="6.79695">
        <ele>354.3</ele>
        <time>2014-05-04T07:36:36.000Z</time>
      </trkpt>
      <trkpt lat="47.44954" lon="6.79696">
        <ele>355</ele>
        <time>2014-05-04T07:36:37.000Z</time>
      </trkpt>
      <trkpt lat="47.44951" lon="6.79697">
        <ele>356.6</ele>
        <time>2014-05-04T07:36:39.000Z</time>
      </trkpt>
      <trkpt lat="47.4495" lon="6.79699">
        <ele>356.6</ele>
        <time>2014-05-04T07:36:40.000Z</time>
      </trkpt>
      <trkpt lat="47.44948" lon="6.797">
        <ele>356.8</ele>
        <time>2014-05-04T07:36:41.000Z</time>
      </trkpt>
      <trkpt lat="47.44945" lon="6.79706">
        <ele>355.9</ele>
        <time>2014-05-04T07:36:44.000Z</time>
      </trkpt>
      <trkpt lat="47.44943" lon="6.79711">
        <ele>356.4</ele>
        <time>2014-05-04T07:36:46.000Z</time>
      </trkpt>
      <trkpt lat="47.44942" lon="6.79713">
        <ele>357.9</ele>
        <time>2014-05-04T07:36:47.000Z</time>
      </trkpt>
      <trkpt lat="47.44939" lon="6.79715">
        <ele>357.1</ele>
        <time>2014-05-04T07:36:49.000Z</time>
      </trkpt>
      <trkpt lat="47.44937" lon="6.79715">
        <ele>357.9</ele>
        <time>2014-05-04T07:36:50.000Z</time>
      </trkpt>
      <trkpt lat="47.44934" lon="6.79715">
        <ele>358.9</ele>
        <time>2014-05-04T07:36:52.000Z</time>
      </trkpt>
      <trkpt lat="47.44932" lon="6.79715">
        <ele>358.7</ele>
        <time>2014-05-04T07:36:53.000Z</time>
      </trkpt>
      <trkpt lat="47.44928" lon="6.79714">
        <ele>359.6</ele>
        <time>2014-05-04T07:36:55.000Z</time>
      </trkpt>
      <trkpt lat="47.44926" lon="6.79715">
        <ele>359.3</ele>
        <time>2014-05-04T07:36:56.000Z</time>
      </trkpt>
      <trkpt lat="47.44923" lon="6.79715">
        <ele>357</ele>
        <time>2014-05-04T07:36:58.000Z</time>
      </trkpt>
      <trkpt lat="47.44921" lon="6.79716">
        <ele>357.3</ele>
        <time>2014-05-04T07:36:59.000Z</time>
      </trkpt>
      <trkpt lat="47.44919" lon="6.79717">
        <ele>357.8</ele>
        <time>2014-05-04T07:37:00.000Z</time>
      </trkpt>
      <trkpt lat="47.44917" lon="6.79718">
        <ele>358.8</ele>
        <time>2014-05-04T07:37:01.000Z</time>
      </trkpt>
      <trkpt lat="47.44914" lon="6.79719">
        <ele>359.1</ele>
        <time>2014-05-04T07:37:02.000Z</time>
      </trkpt>
      <trkpt lat="47.44911" lon="6.7972">
        <ele>359.6</ele>
        <time>2014-05-04T07:37:03.000Z</time>
      </trkpt>
      <trkpt lat="47.44909" lon="6.79721">
        <ele>359.4</ele>
        <time>2014-05-04T07:37:04.000Z</time>
      </trkpt>
      <trkpt lat="47.44907" lon="6.79722">
        <ele>358</ele>
        <time>2014-05-04T07:37:05.000Z</time>
      </trkpt>
      <trkpt lat="47.44902" lon="6.79721">
        <ele>353.9</ele>
        <time>2014-05-04T07:37:07.000Z</time>
      </trkpt>
      <trkpt lat="47.449" lon="6.79721">
        <ele>354.1</ele>
        <time>2014-05-04T07:37:08.000Z</time>
      </trkpt>
      <trkpt lat="47.44896" lon="6.79722">
        <ele>353.9</ele>
        <time>2014-05-04T07:37:10.000Z</time>
      </trkpt>
      <trkpt lat="47.44895" lon="6.79724">
        <ele>354</ele>
        <time>2014-05-04T07:37:11.000Z</time>
      </trkpt>
      <trkpt lat="47.44891" lon="6.79727">
        <ele>353.4</ele>
        <time>2014-05-04T07:37:13.000Z</time>
      </trkpt>
      <trkpt lat="47.44889" lon="6.79728">
        <ele>353.2</ele>
        <time>2014-05-04T07:37:14.000Z</time>
      </trkpt>
      <trkpt lat="47.44887" lon="6.7973">
        <ele>353.7</ele>
        <time>2014-05-04T07:37:15.000Z</time>
      </trkpt>
      <trkpt lat="47.44885" lon="6.79731">
        <ele>354.2</ele>
        <time>2014-05-04T07:37:16.000Z</time>
      </trkpt>
      <trkpt lat="47.44882" lon="6.79731">
        <ele>354.6</ele>
        <time>2014-05-04T07:37:17.000Z</time>
      </trkpt>
      <trkpt lat="47.4488" lon="6.79731">
        <ele>354.9</ele>
        <time>2014-05-04T07:37:18.000Z</time>
      </trkpt>
      <trkpt lat="47.44878" lon="6.7973">
        <ele>355.4</ele>
        <time>2014-05-04T07:37:19.000Z</time>
      </trkpt>
      <trkpt lat="47.44875" lon="6.79729">
        <ele>355.8</ele>
        <time>2014-05-04T07:37:20.000Z</time>
      </trkpt>
      <trkpt lat="47.44873" lon="6.79728">
        <ele>356.3</ele>
        <time>2014-05-04T07:37:21.000Z</time>
      </trkpt>
      <trkpt lat="47.4487" lon="6.79727">
        <ele>356</ele>
        <time>2014-05-04T07:37:22.000Z</time>
      </trkpt>
      <trkpt lat="47.44868" lon="6.79726">
        <ele>355.9</ele>
        <time>2014-05-04T07:37:23.000Z</time>
      </trkpt>
      <trkpt lat="47.44866" lon="6.79725">
        <ele>355.8</ele>
        <time>2014-05-04T07:37:24.000Z</time>
      </trkpt>
      <trkpt lat="47.44864" lon="6.79724">
        <ele>355.6</ele>
        <time>2014-05-04T07:37:25.000Z</time>
      </trkpt>
      <trkpt lat="47.44861" lon="6.79723">
        <ele>355.8</ele>
        <time>2014-05-04T07:37:26.000Z</time>
      </trkpt>
      <trkpt lat="47.44859" lon="6.79722">
        <ele>355.5</ele>
        <time>2014-05-04T07:37:27.000Z</time>
      </trkpt>
      <trkpt lat="47.44857" lon="6.7972">
        <ele>355.4</ele>
        <time>2014-05-04T07:37:28.000Z</time>
      </trkpt>
      <trkpt lat="47.44855" lon="6.79719">
        <ele>352.8</ele>
        <time>2014-05-04T07:37:29.000Z</time>
      </trkpt>
      <trkpt lat="47.44852" lon="6.79717">
        <ele>351.6</ele>
        <time>2014-05-04T07:37:30.000Z</time>
      </trkpt>
      <trkpt lat="47.4485" lon="6.79716">
        <ele>350.9</ele>
        <time>2014-05-04T07:37:31.000Z</time>
      </trkpt>
      <trkpt lat="47.44847" lon="6.79715">
        <ele>350.5</ele>
        <time>2014-05-04T07:37:32.000Z</time>
      </trkpt>
      <trkpt lat="47.44845" lon="6.79715">
        <ele>350.8</ele>
        <time>2014-05-04T07:37:33.000Z</time>
      </trkpt>
      <trkpt lat="47.44842" lon="6.79715">
        <ele>351.2</ele>
        <time>2014-05-04T07:37:34.000Z</time>
      </trkpt>
      <trkpt lat="47.44839" lon="6.79715">
        <ele>351.6</ele>
        <time>2014-05-04T07:37:35.000Z</time>
      </trkpt>
      <trkpt lat="47.44837" lon="6.79716">
        <ele>351.7</ele>
        <time>2014-05-04T07:37:36.000Z</time>
      </trkpt>
      <trkpt lat="47.44834" lon="6.79716">
        <ele>351.4</ele>
        <time>2014-05-04T07:37:37.000Z</time>
      </trkpt>
      <trkpt lat="47.44831" lon="6.79717">
        <ele>351.8</ele>
        <time>2014-05-04T07:37:38.000Z</time>
      </trkpt>
      <trkpt lat="47.44828" lon="6.79718">
        <ele>351.9</ele>
        <time>2014-05-04T07:37:39.000Z</time>
      </trkpt>
      <trkpt lat="47.44825" lon="6.7972">
        <ele>353.4</ele>
        <time>2014-05-04T07:37:40.000Z</time>
      </trkpt>
      <trkpt lat="47.44822" lon="6.79721">
        <ele>353.9</ele>
        <time>2014-05-04T07:37:41.000Z</time>
      </trkpt>
      <trkpt lat="47.44819" lon="6.79722">
        <ele>354.1</ele>
        <time>2014-05-04T07:37:42.000Z</time>
      </trkpt>
      <trkpt lat="47.44813" lon="6.79745">
        <ele>356.5</ele>
        <time>2014-05-04T07:37:50.000Z</time>
      </trkpt>
      <trkpt lat="47.44813" lon="6.79749">
        <ele>356.6</ele>
        <time>2014-05-04T07:37:51.000Z</time>
      </trkpt>
      <trkpt lat="47.44813" lon="6.79755">
        <ele>357.3</ele>
        <time>2014-05-04T07:37:52.000Z</time>
      </trkpt>
      <trkpt lat="47.44812" lon="6.7976">
        <ele>355.9</ele>
        <time>2014-05-04T07:37:53.000Z</time>
      </trkpt>
      <trkpt lat="47.44811" lon="6.79765">
        <ele>355.1</ele>
        <time>2014-05-04T07:37:54.000Z</time>
      </trkpt>
      <trkpt lat="47.4481" lon="6.7977">
        <ele>354.3</ele>
        <time>2014-05-04T07:37:55.000Z</time>
      </trkpt>
      <trkpt lat="47.44809" lon="6.79775">
        <ele>354.7</ele>
        <time>2014-05-04T07:37:56.000Z</time>
      </trkpt>
      <trkpt lat="47.44808" lon="6.7978">
        <ele>354</ele>
        <time>2014-05-04T07:37:57.000Z</time>
      </trkpt>
      <trkpt lat="47.44807" lon="6.79785">
        <ele>353.5</ele>
        <time>2014-05-04T07:37:58.000Z</time>
      </trkpt>
      <trkpt lat="47.44806" lon="6.7979">
        <ele>353.3</ele>
        <time>2014-05-04T07:37:59.000Z</time>
      </trkpt>
      <trkpt lat="47.44805" lon="6.79796">
        <ele>352.5</ele>
        <time>2014-05-04T07:38:00.000Z</time>
      </trkpt>
      <trkpt lat="47.44805" lon="6.79801">
        <ele>352.1</ele>
        <time>2014-05-04T07:38:01.000Z</time>
      </trkpt>
      <trkpt lat="47.44804" lon="6.79806">
        <ele>351.7</ele>
        <time>2014-05-04T07:38:02.000Z</time>
      </trkpt>
      <trkpt lat="47.44803" lon="6.79811">
        <ele>351.3</ele>
        <time>2014-05-04T07:38:03.000Z</time>
      </trkpt>
      <trkpt lat="47.44802" lon="6.79816">
        <ele>351.4</ele>
        <time>2014-05-04T07:38:04.000Z</time>
      </trkpt>
      <trkpt lat="47.44801" lon="6.79821">
        <ele>352</ele>
        <time>2014-05-04T07:38:05.000Z</time>
      </trkpt>
      <trkpt lat="47.448" lon="6.79826">
        <ele>351.5</ele>
        <time>2014-05-04T07:38:06.000Z</time>
      </trkpt>
      <trkpt lat="47.44799" lon="6.79831">
        <ele>350.3</ele>
        <time>2014-05-04T07:38:07.000Z</time>
      </trkpt>
      <trkpt lat="47.44799" lon="6.79836">
        <ele>351</ele>
        <time>2014-05-04T07:38:08.000Z</time>
      </trkpt>
      <trkpt lat="47.44798" lon="6.79841">
        <ele>351.4</ele>
        <time>2014-05-04T07:38:09.000Z</time>
      </trkpt>
      <trkpt lat="47.44798" lon="6.79847">
        <ele>350.8</ele>
        <time>2014-05-04T07:38:10.000Z</time>
      </trkpt>
      <trkpt lat="47.44797" lon="6.79852">
        <ele>350.2</ele>
        <time>2014-05-04T07:38:11.000Z</time>
      </trkpt>
      <trkpt lat="47.44797" lon="6.79857">
        <ele>351.4</ele>
        <time>2014-05-04T07:38:12.000Z</time>
      </trkpt>
      <trkpt lat="47.44796" lon="6.79862">
        <ele>350.9</ele>
        <time>2014-05-04T07:38:13.000Z</time>
      </trkpt>
      <trkpt lat="47.44796" lon="6.79867">
        <ele>350.6</ele>
        <time>2014-05-04T07:38:14.000Z</time>
      </trkpt>
      <trkpt lat="47.44795" lon="6.79872">
        <ele>351.1</ele>
        <time>2014-05-04T07:38:15.000Z</time>
      </trkpt>
      <trkpt lat="47.44795" lon="6.79877">
        <ele>350</ele>
        <time>2014-05-04T07:38:16.000Z</time>
      </trkpt>
      <trkpt lat="47.44794" lon="6.79882">
        <ele>348.9</ele>
        <time>2014-05-04T07:38:17.000Z</time>
      </trkpt>
      <trkpt lat="47.44793" lon="6.79886">
        <ele>349.4</ele>
        <time>2014-05-04T07:38:18.000Z</time>
      </trkpt>
      <trkpt lat="47.44792" lon="6.79891">
        <ele>349.3</ele>
        <time>2014-05-04T07:38:19.000Z</time>
      </trkpt>
      <trkpt lat="47.44792" lon="6.79896">
        <ele>348.7</ele>
        <time>2014-05-04T07:38:20.000Z</time>
      </trkpt>
      <trkpt lat="47.44791" lon="6.799">
        <ele>348.5</ele>
        <time>2014-05-04T07:38:21.000Z</time>
      </trkpt>
      <trkpt lat="47.4479" lon="6.79904">
        <ele>348.3</ele>
        <time>2014-05-04T07:38:22.000Z</time>
      </trkpt>
      <trkpt lat="47.44789" lon="6.79909">
        <ele>347.9</ele>
        <time>2014-05-04T07:38:23.000Z</time>
      </trkpt>
      <trkpt lat="47.44788" lon="6.79913">
        <ele>347.9</ele>
        <time>2014-05-04T07:38:24.000Z</time>
      </trkpt>
      <trkpt lat="47.44788" lon="6.79918">
        <ele>347.4</ele>
        <time>2014-05-04T07:38:25.000Z</time>
      </trkpt>
      <trkpt lat="47.44787" lon="6.79922">
        <ele>347</ele>
        <time>2014-05-04T07:38:26.000Z</time>
      </trkpt>
      <trkpt lat="47.44787" lon="6.79926">
        <ele>347.3</ele>
        <time>2014-05-04T07:38:27.000Z</time>
      </trkpt>
      <trkpt lat="47.44787" lon="6.7993">
        <ele>347.7</ele>
        <time>2014-05-04T07:38:28.000Z</time>
      </trkpt>
      <trkpt lat="47.44786" lon="6.79935">
        <ele>348</ele>
        <time>2014-05-04T07:38:29.000Z</time>
      </trkpt>
      <trkpt lat="47.44786" lon="6.79939">
        <ele>348.9</ele>
        <time>2014-05-04T07:38:30.000Z</time>
      </trkpt>
      <trkpt lat="47.44785" lon="6.79943">
        <ele>349.4</ele>
        <time>2014-05-04T07:38:31.000Z</time>
      </trkpt>
      <trkpt lat="47.44784" lon="6.79947">
        <ele>348.5</ele>
        <time>2014-05-04T07:38:32.000Z</time>
      </trkpt>
      <trkpt lat="47.44783" lon="6.79951">
        <ele>349</ele>
        <time>2014-05-04T07:38:33.000Z</time>
      </trkpt>
      <trkpt lat="47.44783" lon="6.79955">
        <ele>349.2</ele>
        <time>2014-05-04T07:38:34.000Z</time>
      </trkpt>
      <trkpt lat="47.44782" lon="6.79958">
        <ele>348.9</ele>
        <time>2014-05-04T07:38:35.000Z</time>
      </trkpt>
      <trkpt lat="47.44781" lon="6.79962">
        <ele>349</ele>
        <time>2014-05-04T07:38:36.000Z</time>
      </trkpt>
      <trkpt lat="47.44781" lon="6.79965">
        <ele>348.4</ele>
        <time>2014-05-04T07:38:37.000Z</time>
      </trkpt>
      <trkpt lat="47.4478" lon="6.79968">
        <ele>348</ele>
        <time>2014-05-04T07:38:38.000Z</time>
      </trkpt>
      <trkpt lat="47.44779" lon="6.79975">
        <ele>347.7</ele>
        <time>2014-05-04T07:38:40.000Z</time>
      </trkpt>
      <trkpt lat="47.44779" lon="6.79977">
        <ele>347.5</ele>
        <time>2014-05-04T07:38:41.000Z</time>
      </trkpt>
      <trkpt lat="47.44778" lon="6.79984">
        <ele>348.3</ele>
        <time>2014-05-04T07:38:44.000Z</time>
      </trkpt>
      <trkpt lat="47.44775" lon="6.79986">
        <ele>351.1</ele>
        <time>2014-05-04T07:38:47.000Z</time>
      </trkpt>
      <trkpt lat="47.44773" lon="6.79986">
        <ele>350.6</ele>
        <time>2014-05-04T07:38:48.000Z</time>
      </trkpt>
      <trkpt lat="47.44771" lon="6.79984">
        <ele>351.9</ele>
        <time>2014-05-04T07:38:49.000Z</time>
      </trkpt>
      <trkpt lat="47.44768" lon="6.79983">
        <ele>352</ele>
        <time>2014-05-04T07:38:50.000Z</time>
      </trkpt>
      <trkpt lat="47.44766" lon="6.79982">
        <ele>352.2</ele>
        <time>2014-05-04T07:38:51.000Z</time>
      </trkpt>
      <trkpt lat="47.44764" lon="6.79981">
        <ele>353.2</ele>
        <time>2014-05-04T07:38:52.000Z</time>
      </trkpt>
      <trkpt lat="47.4476" lon="6.79981">
        <ele>353.7</ele>
        <time>2014-05-04T07:38:54.000Z</time>
      </trkpt>
      <trkpt lat="47.44757" lon="6.7998">
        <ele>354.5</ele>
        <time>2014-05-04T07:38:55.000Z</time>
      </trkpt>
      <trkpt lat="47.44755" lon="6.79979">
        <ele>354.6</ele>
        <time>2014-05-04T07:38:56.000Z</time>
      </trkpt>
      <trkpt lat="47.44753" lon="6.79978">
        <ele>354.6</ele>
        <time>2014-05-04T07:38:57.000Z</time>
      </trkpt>
      <trkpt lat="47.4475" lon="6.79977">
        <ele>354.9</ele>
        <time>2014-05-04T07:38:58.000Z</time>
      </trkpt>
      <trkpt lat="47.44748" lon="6.79977">
        <ele>355.6</ele>
        <time>2014-05-04T07:38:59.000Z</time>
      </trkpt>
      <trkpt lat="47.44745" lon="6.79976">
        <ele>356</ele>
        <time>2014-05-04T07:39:00.000Z</time>
      </trkpt>
      <trkpt lat="47.44742" lon="6.79976">
        <ele>355.8</ele>
        <time>2014-05-04T07:39:01.000Z</time>
      </trkpt>
      <trkpt lat="47.4474" lon="6.79975">
        <ele>356.8</ele>
        <time>2014-05-04T07:39:02.000Z</time>
      </trkpt>
      <trkpt lat="47.44738" lon="6.79975">
        <ele>358</ele>
        <time>2014-05-04T07:39:03.000Z</time>
      </trkpt>
      <trkpt lat="47.44735" lon="6.79974">
        <ele>358.2</ele>
        <time>2014-05-04T07:39:04.000Z</time>
      </trkpt>
      <trkpt lat="47.44733" lon="6.79974">
        <ele>356</ele>
        <time>2014-05-04T07:39:05.000Z</time>
      </trkpt>
      <trkpt lat="47.44729" lon="6.79972">
        <ele>356.1</ele>
        <time>2014-05-04T07:39:07.000Z</time>
      </trkpt>
      <trkpt lat="47.44727" lon="6.79972">
        <ele>356.5</ele>
        <time>2014-05-04T07:39:08.000Z</time>
      </trkpt>
      <trkpt lat="47.44724" lon="6.79971">
        <ele>356.8</ele>
        <time>2014-05-04T07:39:09.000Z</time>
      </trkpt>
      <trkpt lat="47.44721" lon="6.79971">
        <ele>357.3</ele>
        <time>2014-05-04T07:39:10.000Z</time>
      </trkpt>
      <trkpt lat="47.44719" lon="6.7997">
        <ele>357.8</ele>
        <time>2014-05-04T07:39:11.000Z</time>
      </trkpt>
      <trkpt lat="47.44716" lon="6.79969">
        <ele>357.5</ele>
        <time>2014-05-04T07:39:12.000Z</time>
      </trkpt>
      <trkpt lat="47.44714" lon="6.79969">
        <ele>357.4</ele>
        <time>2014-05-04T07:39:13.000Z</time>
      </trkpt>
      <trkpt lat="47.44711" lon="6.79968">
        <ele>357.6</ele>
        <time>2014-05-04T07:39:14.000Z</time>
      </trkpt>
      <trkpt lat="47.44709" lon="6.79967">
        <ele>358.2</ele>
        <time>2014-05-04T07:39:15.000Z</time>
      </trkpt>
      <trkpt lat="47.44706" lon="6.79967">
        <ele>359</ele>
        <time>2014-05-04T07:39:16.000Z</time>
      </trkpt>
      <trkpt lat="47.44704" lon="6.79967">
        <ele>359.9</ele>
        <time>2014-05-04T07:39:17.000Z</time>
      </trkpt>
      <trkpt lat="47.44701" lon="6.79967">
        <ele>360.6</ele>
        <time>2014-05-04T07:39:18.000Z</time>
      </trkpt>
      <trkpt lat="47.44699" lon="6.79966">
        <ele>360.2</ele>
        <time>2014-05-04T07:39:19.000Z</time>
      </trkpt>
      <trkpt lat="47.44697" lon="6.79966">
        <ele>360.6</ele>
        <time>2014-05-04T07:39:20.000Z</time>
      </trkpt>
      <trkpt lat="47.44694" lon="6.79965">
        <ele>360.9</ele>
        <time>2014-05-04T07:39:21.000Z</time>
      </trkpt>
      <trkpt lat="47.44692" lon="6.79964">
        <ele>361.9</ele>
        <time>2014-05-04T07:39:22.000Z</time>
      </trkpt>
      <trkpt lat="47.44689" lon="6.79964">
        <ele>362.2</ele>
        <time>2014-05-04T07:39:23.000Z</time>
      </trkpt>
      <trkpt lat="47.44687" lon="6.79963">
        <ele>362.6</ele>
        <time>2014-05-04T07:39:24.000Z</time>
      </trkpt>
      <trkpt lat="47.44684" lon="6.79962">
        <ele>361.8</ele>
        <time>2014-05-04T07:39:25.000Z</time>
      </trkpt>
      <trkpt lat="47.44682" lon="6.79962">
        <ele>362</ele>
        <time>2014-05-04T07:39:26.000Z</time>
      </trkpt>
      <trkpt lat="47.44679" lon="6.79961">
        <ele>362.5</ele>
        <time>2014-05-04T07:39:27.000Z</time>
      </trkpt>
      <trkpt lat="47.44677" lon="6.7996">
        <ele>363.1</ele>
        <time>2014-05-04T07:39:28.000Z</time>
      </trkpt>
      <trkpt lat="47.44675" lon="6.7996">
        <ele>362.9</ele>
        <time>2014-05-04T07:39:29.000Z</time>
      </trkpt>
      <trkpt lat="47.44672" lon="6.79959">
        <ele>363</ele>
        <time>2014-05-04T07:39:30.000Z</time>
      </trkpt>
      <trkpt lat="47.4467" lon="6.79959">
        <ele>362.4</ele>
        <time>2014-05-04T07:39:31.000Z</time>
      </trkpt>
      <trkpt lat="47.44667" lon="6.79958">
        <ele>362.5</ele>
        <time>2014-05-04T07:39:32.000Z</time>
      </trkpt>
      <trkpt lat="47.44665" lon="6.79958">
        <ele>362.6</ele>
        <time>2014-05-04T07:39:33.000Z</time>
      </trkpt>
      <trkpt lat="47.44662" lon="6.79958">
        <ele>362.4</ele>
        <time>2014-05-04T07:39:34.000Z</time>
      </trkpt>
      <trkpt lat="47.4466" lon="6.79957">
        <ele>362.9</ele>
        <time>2014-05-04T07:39:35.000Z</time>
      </trkpt>
      <trkpt lat="47.44657" lon="6.79957">
        <ele>362.9</ele>
        <time>2014-05-04T07:39:36.000Z</time>
      </trkpt>
      <trkpt lat="47.44654" lon="6.79957">
        <ele>363</ele>
        <time>2014-05-04T07:39:37.000Z</time>
      </trkpt>
      <trkpt lat="47.44651" lon="6.79957">
        <ele>363.2</ele>
        <time>2014-05-04T07:39:38.000Z</time>
      </trkpt>
      <trkpt lat="47.44649" lon="6.79956">
        <ele>364.6</ele>
        <time>2014-05-04T07:39:39.000Z</time>
      </trkpt>
      <trkpt lat="47.44646" lon="6.79956">
        <ele>365.3</ele>
        <time>2014-05-04T07:39:40.000Z</time>
      </trkpt>
      <trkpt lat="47.44644" lon="6.79955">
        <ele>365.8</ele>
        <time>2014-05-04T07:39:41.000Z</time>
      </trkpt>
      <trkpt lat="47.44637" lon="6.79953">
        <ele>366.1</ele>
        <time>2014-05-04T07:39:44.000Z</time>
      </trkpt>
      <trkpt lat="47.44634" lon="6.79953">
        <ele>366.6</ele>
        <time>2014-05-04T07:39:45.000Z</time>
      </trkpt>
      <trkpt lat="47.44632" lon="6.79952">
        <ele>366.5</ele>
        <time>2014-05-04T07:39:46.000Z</time>
      </trkpt>
      <trkpt lat="47.4463" lon="6.79951">
        <ele>367.6</ele>
        <time>2014-05-04T07:39:47.000Z</time>
      </trkpt>
      <trkpt lat="47.44627" lon="6.79951">
        <ele>367.5</ele>
        <time>2014-05-04T07:39:48.000Z</time>
      </trkpt>
      <trkpt lat="47.44623" lon="6.7995">
        <ele>367.7</ele>
        <time>2014-05-04T07:39:50.000Z</time>
      </trkpt>
      <trkpt lat="47.44621" lon="6.7995">
        <ele>368.5</ele>
        <time>2014-05-04T07:39:51.000Z</time>
      </trkpt>
      <trkpt lat="47.44616" lon="6.79948">
        <ele>370.3</ele>
        <time>2014-05-04T07:39:53.000Z</time>
      </trkpt>
      <trkpt lat="47.44614" lon="6.79947">
        <ele>369.6</ele>
        <time>2014-05-04T07:39:54.000Z</time>
      </trkpt>
      <trkpt lat="47.44612" lon="6.79945">
        <ele>370.4</ele>
        <time>2014-05-04T07:39:55.000Z</time>
      </trkpt>
      <trkpt lat="47.4461" lon="6.79944">
        <ele>370.9</ele>
        <time>2014-05-04T07:39:56.000Z</time>
      </trkpt>
      <trkpt lat="47.44607" lon="6.79943">
        <ele>370.9</ele>
        <time>2014-05-04T07:39:57.000Z</time>
      </trkpt>
      <trkpt lat="47.44604" lon="6.79941">
        <ele>369.9</ele>
        <time>2014-05-04T07:39:58.000Z</time>
      </trkpt>
      <trkpt lat="47.44602" lon="6.7994">
        <ele>370</ele>
        <time>2014-05-04T07:39:59.000Z</time>
      </trkpt>
      <trkpt lat="47.446" lon="6.79939">
        <ele>370.1</ele>
        <time>2014-05-04T07:40:00.000Z</time>
      </trkpt>
      <trkpt lat="47.44597" lon="6.79938">
        <ele>370</ele>
        <time>2014-05-04T07:40:01.000Z</time>
      </trkpt>
      <trkpt lat="47.44595" lon="6.79937">
        <ele>370.5</ele>
        <time>2014-05-04T07:40:02.000Z</time>
      </trkpt>
      <trkpt lat="47.44592" lon="6.79936">
        <ele>370.7</ele>
        <time>2014-05-04T07:40:03.000Z</time>
      </trkpt>
      <trkpt lat="47.44589" lon="6.79935">
        <ele>370.9</ele>
        <time>2014-05-04T07:40:04.000Z</time>
      </trkpt>
      <trkpt lat="47.44586" lon="6.79934">
        <ele>370.1</ele>
        <time>2014-05-04T07:40:05.000Z</time>
      </trkpt>
      <trkpt lat="47.44584" lon="6.79933">
        <ele>370</ele>
        <time>2014-05-04T07:40:06.000Z</time>
      </trkpt>
      <trkpt lat="47.44581" lon="6.79931">
        <ele>370.6</ele>
        <time>2014-05-04T07:40:07.000Z</time>
      </trkpt>
      <trkpt lat="47.44578" lon="6.7993">
        <ele>370.8</ele>
        <time>2014-05-04T07:40:08.000Z</time>
      </trkpt>
      <trkpt lat="47.44575" lon="6.79929">
        <ele>367.9</ele>
        <time>2014-05-04T07:40:09.000Z</time>
      </trkpt>
      <trkpt lat="47.44572" lon="6.79928">
        <ele>367.1</ele>
        <time>2014-05-04T07:40:10.000Z</time>
      </trkpt>
      <trkpt lat="47.44568" lon="6.79927">
        <ele>367.3</ele>
        <time>2014-05-04T07:40:11.000Z</time>
      </trkpt>
      <trkpt lat="47.44566" lon="6.79925">
        <ele>367.2</ele>
        <time>2014-05-04T07:40:12.000Z</time>
      </trkpt>
      <trkpt lat="47.44563" lon="6.79925">
        <ele>366.7</ele>
        <time>2014-05-04T07:40:13.000Z</time>
      </trkpt>
      <trkpt lat="47.4456" lon="6.79924">
        <ele>366.4</ele>
        <time>2014-05-04T07:40:14.000Z</time>
      </trkpt>
      <trkpt lat="47.44557" lon="6.79923">
        <ele>366.6</ele>
        <time>2014-05-04T07:40:15.000Z</time>
      </trkpt>
      <trkpt lat="47.44554" lon="6.79923">
        <ele>367.1</ele>
        <time>2014-05-04T07:40:16.000Z</time>
      </trkpt>
      <trkpt lat="47.44551" lon="6.79922">
        <ele>367.3</ele>
        <time>2014-05-04T07:40:17.000Z</time>
      </trkpt>
      <trkpt lat="47.44548" lon="6.79921">
        <ele>367.9</ele>
        <time>2014-05-04T07:40:18.000Z</time>
      </trkpt>
      <trkpt lat="47.44544" lon="6.7992">
        <ele>368.2</ele>
        <time>2014-05-04T07:40:19.000Z</time>
      </trkpt>
      <trkpt lat="47.44541" lon="6.79919">
        <ele>368.6</ele>
        <time>2014-05-04T07:40:20.000Z</time>
      </trkpt>
      <trkpt lat="47.44538" lon="6.79919">
        <ele>369.2</ele>
        <time>2014-05-04T07:40:21.000Z</time>
      </trkpt>
      <trkpt lat="47.44535" lon="6.79918">
        <ele>369.1</ele>
        <time>2014-05-04T07:40:22.000Z</time>
      </trkpt>
      <trkpt lat="47.44533" lon="6.79917">
        <ele>369.1</ele>
        <time>2014-05-04T07:40:23.000Z</time>
      </trkpt>
      <trkpt lat="47.4453" lon="6.79915">
        <ele>368.7</ele>
        <time>2014-05-04T07:40:24.000Z</time>
      </trkpt>
      <trkpt lat="47.44528" lon="6.79915">
        <ele>369.1</ele>
        <time>2014-05-04T07:40:25.000Z</time>
      </trkpt>
      <trkpt lat="47.44525" lon="6.79914">
        <ele>370</ele>
        <time>2014-05-04T07:40:26.000Z</time>
      </trkpt>
      <trkpt lat="47.44522" lon="6.79913">
        <ele>369.6</ele>
        <time>2014-05-04T07:40:27.000Z</time>
      </trkpt>
      <trkpt lat="47.4452" lon="6.79913">
        <ele>369.5</ele>
        <time>2014-05-04T07:40:28.000Z</time>
      </trkpt>
      <trkpt lat="47.44517" lon="6.79913">
        <ele>368.9</ele>
        <time>2014-05-04T07:40:29.000Z</time>
      </trkpt>
      <trkpt lat="47.44514" lon="6.79913">
        <ele>369.5</ele>
        <time>2014-05-04T07:40:30.000Z</time>
      </trkpt>
      <trkpt lat="47.44511" lon="6.79913">
        <ele>370</ele>
        <time>2014-05-04T07:40:31.000Z</time>
      </trkpt>
      <trkpt lat="47.44508" lon="6.79913">
        <ele>369.7</ele>
        <time>2014-05-04T07:40:32.000Z</time>
      </trkpt>
      <trkpt lat="47.44505" lon="6.79912">
        <ele>369.9</ele>
        <time>2014-05-04T07:40:33.000Z</time>
      </trkpt>
      <trkpt lat="47.44503" lon="6.79912">
        <ele>369.7</ele>
        <time>2014-05-04T07:40:34.000Z</time>
      </trkpt>
      <trkpt lat="47.44501" lon="6.79911">
        <ele>369.7</ele>
        <time>2014-05-04T07:40:35.000Z</time>
      </trkpt>
      <trkpt lat="47.44498" lon="6.79911">
        <ele>370.2</ele>
        <time>2014-05-04T07:40:36.000Z</time>
      </trkpt>
      <trkpt lat="47.44494" lon="6.7991">
        <ele>370.5</ele>
        <time>2014-05-04T07:40:38.000Z</time>
      </trkpt>
      <trkpt lat="47.44492" lon="6.7991">
        <ele>370.6</ele>
        <time>2014-05-04T07:40:39.000Z</time>
      </trkpt>
      <trkpt lat="47.44487" lon="6.7991">
        <ele>370.1</ele>
        <time>2014-05-04T07:40:41.000Z</time>
      </trkpt>
      <trkpt lat="47.44481" lon="6.7991">
        <ele>370.4</ele>
        <time>2014-05-04T07:40:44.000Z</time>
      </trkpt>
      <trkpt lat="47.44478" lon="6.79909">
        <ele>371</ele>
        <time>2014-05-04T07:40:45.000Z</time>
      </trkpt>
      <trkpt lat="47.44476" lon="6.79909">
        <ele>371.7</ele>
        <time>2014-05-04T07:40:46.000Z</time>
      </trkpt>
      <trkpt lat="47.44474" lon="6.79908">
        <ele>371.3</ele>
        <time>2014-05-04T07:40:47.000Z</time>
      </trkpt>
      <trkpt lat="47.44471" lon="6.79907">
        <ele>372.3</ele>
        <time>2014-05-04T07:40:48.000Z</time>
      </trkpt>
      <trkpt lat="47.44469" lon="6.79906">
        <ele>372.5</ele>
        <time>2014-05-04T07:40:49.000Z</time>
      </trkpt>
      <trkpt lat="47.44467" lon="6.79905">
        <ele>372.8</ele>
        <time>2014-05-04T07:40:50.000Z</time>
      </trkpt>
      <trkpt lat="47.44463" lon="6.79903">
        <ele>373.8</ele>
        <time>2014-05-04T07:40:52.000Z</time>
      </trkpt>
      <trkpt lat="47.44461" lon="6.79902">
        <ele>374.4</ele>
        <time>2014-05-04T07:40:53.000Z</time>
      </trkpt>
      <trkpt lat="47.44457" lon="6.79899">
        <ele>374.9</ele>
        <time>2014-05-04T07:40:55.000Z</time>
      </trkpt>
      <trkpt lat="47.44455" lon="6.79898">
        <ele>374.7</ele>
        <time>2014-05-04T07:40:56.000Z</time>
      </trkpt>
      <trkpt lat="47.44451" lon="6.79896">
        <ele>374.3</ele>
        <time>2014-05-04T07:40:58.000Z</time>
      </trkpt>
      <trkpt lat="47.44449" lon="6.79896">
        <ele>374.7</ele>
        <time>2014-05-04T07:40:59.000Z</time>
      </trkpt>
      <trkpt lat="47.44445" lon="6.79894">
        <ele>375.2</ele>
        <time>2014-05-04T07:41:01.000Z</time>
      </trkpt>
      <trkpt lat="47.44443" lon="6.79894">
        <ele>375.9</ele>
        <time>2014-05-04T07:41:02.000Z</time>
      </trkpt>
      <trkpt lat="47.4444" lon="6.79892">
        <ele>377.1</ele>
        <time>2014-05-04T07:41:04.000Z</time>
      </trkpt>
      <trkpt lat="47.44438" lon="6.79891">
        <ele>377.7</ele>
        <time>2014-05-04T07:41:05.000Z</time>
      </trkpt>
      <trkpt lat="47.44434" lon="6.7989">
        <ele>378.2</ele>
        <time>2014-05-04T07:41:07.000Z</time>
      </trkpt>
      <trkpt lat="47.44432" lon="6.79889">
        <ele>377.8</ele>
        <time>2014-05-04T07:41:08.000Z</time>
      </trkpt>
      <trkpt lat="47.44428" lon="6.79887">
        <ele>377.8</ele>
        <time>2014-05-04T07:41:10.000Z</time>
      </trkpt>
      <trkpt lat="47.44427" lon="6.79886">
        <ele>377.4</ele>
        <time>2014-05-04T07:41:11.000Z</time>
      </trkpt>
      <trkpt lat="47.44423" lon="6.79885">
        <ele>378.9</ele>
        <time>2014-05-04T07:41:13.000Z</time>
      </trkpt>
      <trkpt lat="47.44422" lon="6.79884">
        <ele>378.8</ele>
        <time>2014-05-04T07:41:14.000Z</time>
      </trkpt>
      <trkpt lat="47.44418" lon="6.79882">
        <ele>379.7</ele>
        <time>2014-05-04T07:41:16.000Z</time>
      </trkpt>
      <trkpt lat="47.44416" lon="6.79882">
        <ele>379.7</ele>
        <time>2014-05-04T07:41:17.000Z</time>
      </trkpt>
      <trkpt lat="47.44413" lon="6.7988">
        <ele>379.9</ele>
        <time>2014-05-04T07:41:19.000Z</time>
      </trkpt>
      <trkpt lat="47.44411" lon="6.79879">
        <ele>380</ele>
        <time>2014-05-04T07:41:20.000Z</time>
      </trkpt>
      <trkpt lat="47.44407" lon="6.79878">
        <ele>380.3</ele>
        <time>2014-05-04T07:41:22.000Z</time>
      </trkpt>
      <trkpt lat="47.44405" lon="6.79877">
        <ele>380</ele>
        <time>2014-05-04T07:41:23.000Z</time>
      </trkpt>
      <trkpt lat="47.44402" lon="6.79875">
        <ele>380.6</ele>
        <time>2014-05-04T07:41:25.000Z</time>
      </trkpt>
      <trkpt lat="47.444" lon="6.79875">
        <ele>380.4</ele>
        <time>2014-05-04T07:41:26.000Z</time>
      </trkpt>
      <trkpt lat="47.44396" lon="6.79873">
        <ele>380.9</ele>
        <time>2014-05-04T07:41:28.000Z</time>
      </trkpt>
      <trkpt lat="47.44394" lon="6.79872">
        <ele>381</ele>
        <time>2014-05-04T07:41:29.000Z</time>
      </trkpt>
      <trkpt lat="47.44392" lon="6.79871">
        <ele>381.4</ele>
        <time>2014-05-04T07:41:30.000Z</time>
      </trkpt>
      <trkpt lat="47.4439" lon="6.7987">
        <ele>381.2</ele>
        <time>2014-05-04T07:41:31.000Z</time>
      </trkpt>
      <trkpt lat="47.44387" lon="6.7987">
        <ele>380.9</ele>
        <time>2014-05-04T07:41:32.000Z</time>
      </trkpt>
      <trkpt lat="47.44385" lon="6.79869">
        <ele>381.3</ele>
        <time>2014-05-04T07:41:33.000Z</time>
      </trkpt>
      <trkpt lat="47.4438" lon="6.79868">
        <ele>380.9</ele>
        <time>2014-05-04T07:41:35.000Z</time>
      </trkpt>
      <trkpt lat="47.44379" lon="6.79866">
        <ele>381</ele>
        <time>2014-05-04T07:41:36.000Z</time>
      </trkpt>
      <trkpt lat="47.44378" lon="6.79861">
        <ele>381.9</ele>
        <time>2014-05-04T07:41:38.000Z</time>
      </trkpt>
      <trkpt lat="47.44379" lon="6.79857">
        <ele>382.3</ele>
        <time>2014-05-04T07:41:39.000Z</time>
      </trkpt>
      <trkpt lat="47.4438" lon="6.79854">
        <ele>382.5</ele>
        <time>2014-05-04T07:41:40.000Z</time>
      </trkpt>
      <trkpt lat="47.44382" lon="6.7985">
        <ele>382.5</ele>
        <time>2014-05-04T07:41:41.000Z</time>
      </trkpt>
      <trkpt lat="47.44386" lon="6.79842">
        <ele>381.7</ele>
        <time>2014-05-04T07:41:44.000Z</time>
      </trkpt>
      <trkpt lat="47.44384" lon="6.79837">
        <ele>388.1</ele>
        <time>2014-05-04T07:41:48.000Z</time>
      </trkpt>
      <trkpt lat="47.44385" lon="6.79835">
        <ele>388.4</ele>
        <time>2014-05-04T07:41:48.999Z</time>
      </trkpt>
      <trkpt lat="47.44385" lon="6.7983">
        <ele>390.9</ele>
        <time>2014-05-04T07:41:55.000Z</time>
      </trkpt>
      <trkpt lat="47.44385" lon="6.79828">
        <ele>390.9</ele>
        <time>2014-05-04T07:41:56.000Z</time>
      </trkpt>
      <trkpt lat="47.44386" lon="6.79824">
        <ele>390.5</ele>
        <time>2014-05-04T07:41:58.000Z</time>
      </trkpt>
      <trkpt lat="47.44386" lon="6.79822">
        <ele>390.5</ele>
        <time>2014-05-04T07:41:59.000Z</time>
      </trkpt>
      <trkpt lat="47.44387" lon="6.79816">
        <ele>392.3</ele>
        <time>2014-05-04T07:42:02.000Z</time>
      </trkpt>
      <trkpt lat="47.44388" lon="6.79814">
        <ele>392.1</ele>
        <time>2014-05-04T07:42:03.000Z</time>
      </trkpt>
      <trkpt lat="47.44388" lon="6.79809">
        <ele>392.6</ele>
        <time>2014-05-04T07:42:07.000Z</time>
      </trkpt>
      <trkpt lat="47.44388" lon="6.79807">
        <ele>392.3</ele>
        <time>2014-05-04T07:42:08.000Z</time>
      </trkpt>
      <trkpt lat="47.44389" lon="6.798">
        <ele>392.4</ele>
        <time>2014-05-04T07:42:11.000Z</time>
      </trkpt>
      <trkpt lat="47.4439" lon="6.79799">
        <ele>393.1</ele>
        <time>2014-05-04T07:42:12.000Z</time>
      </trkpt>
      <trkpt lat="47.44391" lon="6.79794">
        <ele>393.2</ele>
        <time>2014-05-04T07:42:14.000Z</time>
      </trkpt>
      <trkpt lat="47.44391" lon="6.79791">
        <ele>393</ele>
        <time>2014-05-04T07:42:15.000Z</time>
      </trkpt>
      <trkpt lat="47.44391" lon="6.79785">
        <ele>394.1</ele>
        <time>2014-05-04T07:42:17.000Z</time>
      </trkpt>
      <trkpt lat="47.44391" lon="6.79783">
        <ele>394.3</ele>
        <time>2014-05-04T07:42:18.000Z</time>
      </trkpt>
      <trkpt lat="47.44388" lon="6.79777">
        <ele>393.8</ele>
        <time>2014-05-04T07:42:22.000Z</time>
      </trkpt>
      <trkpt lat="47.44387" lon="6.79777">
        <ele>393.7</ele>
        <time>2014-05-04T07:42:23.000Z</time>
      </trkpt>
      <trkpt lat="47.44383" lon="6.79779">
        <ele>398.1</ele>
        <time>2014-05-04T07:42:28.000Z</time>
      </trkpt>
      <trkpt lat="47.44383" lon="6.7978">
        <ele>398.4</ele>
        <time>2014-05-04T07:42:29.000Z</time>
      </trkpt>
      <trkpt lat="47.4438" lon="6.79782">
        <ele>398.3</ele>
        <time>2014-05-04T07:42:32.000Z</time>
      </trkpt>
      <trkpt lat="47.44378" lon="6.79783">
        <ele>397.7</ele>
        <time>2014-05-04T07:42:33.000Z</time>
      </trkpt>
      <trkpt lat="47.44375" lon="6.79786">
        <ele>398</ele>
        <time>2014-05-04T07:42:36.000Z</time>
      </trkpt>
      <trkpt lat="47.44374" lon="6.79786">
        <ele>397.5</ele>
        <time>2014-05-04T07:42:37.000Z</time>
      </trkpt>
      <trkpt lat="47.44369" lon="6.79789">
        <ele>396.6</ele>
        <time>2014-05-04T07:42:40.000Z</time>
      </trkpt>
      <trkpt lat="47.44368" lon="6.79789">
        <ele>397</ele>
        <time>2014-05-04T07:42:41.000Z</time>
      </trkpt>
      <trkpt lat="47.44357" lon="6.79792">
        <ele>404.2</ele>
        <time>2014-05-04T07:42:50.000Z</time>
      </trkpt>
      <trkpt lat="47.44355" lon="6.79797">
        <ele>403.8</ele>
        <time>2014-05-04T07:42:53.000Z</time>
      </trkpt>
      <trkpt lat="47.44355" lon="6.79798">
        <ele>405.3</ele>
        <time>2014-05-04T07:42:54.000Z</time>
      </trkpt>
      <trkpt lat="47.44352" lon="6.79802">
        <ele>406</ele>
        <time>2014-05-04T07:42:58.000Z</time>
      </trkpt>
      <trkpt lat="47.44351" lon="6.79803">
        <ele>406.5</ele>
        <time>2014-05-04T07:42:59.000Z</time>
      </trkpt>
      <trkpt lat="47.44349" lon="6.79806">
        <ele>411.6</ele>
        <time>2014-05-04T07:43:02.000Z</time>
      </trkpt>
      <trkpt lat="47.44348" lon="6.79808">
        <ele>412.8</ele>
        <time>2014-05-04T07:43:03.000Z</time>
      </trkpt>
      <trkpt lat="47.44345" lon="6.79811">
        <ele>415.6</ele>
        <time>2014-05-04T07:43:06.000Z</time>
      </trkpt>
      <trkpt lat="47.44344" lon="6.79812">
        <ele>417</ele>
        <time>2014-05-04T07:43:07.000Z</time>
      </trkpt>
      <trkpt lat="47.44341" lon="6.79816">
        <ele>417.6</ele>
        <time>2014-05-04T07:43:11.000Z</time>
      </trkpt>
      <trkpt lat="47.44339" lon="6.79818">
        <ele>417.6</ele>
        <time>2014-05-04T07:43:12.000Z</time>
      </trkpt>
      <trkpt lat="47.44336" lon="6.79822">
        <ele>422.1</ele>
        <time>2014-05-04T07:43:17.000Z</time>
      </trkpt>
      <trkpt lat="47.44336" lon="6.79824">
        <ele>422.6</ele>
        <time>2014-05-04T07:43:18.000Z</time>
      </trkpt>
      <trkpt lat="47.44333" lon="6.79829">
        <ele>426.8</ele>
        <time>2014-05-04T07:43:21.000Z</time>
      </trkpt>
      <trkpt lat="47.44332" lon="6.7983">
        <ele>427.5</ele>
        <time>2014-05-04T07:43:22.000Z</time>
      </trkpt>
      <trkpt lat="47.4433" lon="6.79834">
        <ele>426.5</ele>
        <time>2014-05-04T07:43:24.000Z</time>
      </trkpt>
      <trkpt lat="47.44329" lon="6.79835">
        <ele>426.9</ele>
        <time>2014-05-04T07:43:25.000Z</time>
      </trkpt>
      <trkpt lat="47.44326" lon="6.79838">
        <ele>427.4</ele>
        <time>2014-05-04T07:43:27.000Z</time>
      </trkpt>
      <trkpt lat="47.44325" lon="6.7984">
        <ele>427.4</ele>
        <time>2014-05-04T07:43:28.000Z</time>
      </trkpt>
      <trkpt lat="47.44322" lon="6.79844">
        <ele>426.9</ele>
        <time>2014-05-04T07:43:30.000Z</time>
      </trkpt>
      <trkpt lat="47.44321" lon="6.79845">
        <ele>428.3</ele>
        <time>2014-05-04T07:43:31.000Z</time>
      </trkpt>
      <trkpt lat="47.44318" lon="6.79849">
        <ele>431.3</ele>
        <time>2014-05-04T07:43:34.000Z</time>
      </trkpt>
      <trkpt lat="47.44318" lon="6.7985">
        <ele>433.2</ele>
        <time>2014-05-04T07:43:35.000Z</time>
      </trkpt>
      <trkpt lat="47.44316" lon="6.79855">
        <ele>437</ele>
        <time>2014-05-04T07:43:39.000Z</time>
      </trkpt>
      <trkpt lat="47.44315" lon="6.79856">
        <ele>437</ele>
        <time>2014-05-04T07:43:40.000Z</time>
      </trkpt>
      <trkpt lat="47.44314" lon="6.79857">
        <ele>437.5</ele>
        <time>2014-05-04T07:43:41.000Z</time>
      </trkpt>
      <trkpt lat="47.44309" lon="6.7986">
        <ele>436.9</ele>
        <time>2014-05-04T07:43:44.000Z</time>
      </trkpt>
      <trkpt lat="47.44307" lon="6.79865">
        <ele>436.2</ele>
        <time>2014-05-04T07:43:47.000Z</time>
      </trkpt>
      <trkpt lat="47.44306" lon="6.79866">
        <ele>436.1</ele>
        <time>2014-05-04T07:43:48.000Z</time>
      </trkpt>
      <trkpt lat="47.44303" lon="6.7987">
        <ele>437.1</ele>
        <time>2014-05-04T07:43:51.000Z</time>
      </trkpt>
      <trkpt lat="47.44302" lon="6.79871">
        <ele>435.9</ele>
        <time>2014-05-04T07:43:52.000Z</time>
      </trkpt>
      <trkpt lat="47.44299" lon="6.79874">
        <ele>436.9</ele>
        <time>2014-05-04T07:43:55.000Z</time>
      </trkpt>
      <trkpt lat="47.44297" lon="6.79874">
        <ele>436.8</ele>
        <time>2014-05-04T07:43:56.000Z</time>
      </trkpt>
      <trkpt lat="47.44293" lon="6.79875">
        <ele>439</ele>
        <time>2014-05-04T07:43:59.000Z</time>
      </trkpt>
      <trkpt lat="47.44292" lon="6.79876">
        <ele>438.8</ele>
        <time>2014-05-04T07:44:00.000Z</time>
      </trkpt>
      <trkpt lat="47.44289" lon="6.79878">
        <ele>440.9</ele>
        <time>2014-05-04T07:44:03.000Z</time>
      </trkpt>
      <trkpt lat="47.44288" lon="6.79879">
        <ele>441.2</ele>
        <time>2014-05-04T07:44:04.000Z</time>
      </trkpt>
      <trkpt lat="47.44283" lon="6.7988">
        <ele>441.6</ele>
        <time>2014-05-04T07:44:07.000Z</time>
      </trkpt>
      <trkpt lat="47.44282" lon="6.79881">
        <ele>444.7</ele>
        <time>2014-05-04T07:44:08.000Z</time>
      </trkpt>
      <trkpt lat="47.44279" lon="6.79883">
        <ele>446.7</ele>
        <time>2014-05-04T07:44:10.000Z</time>
      </trkpt>
      <trkpt lat="47.44277" lon="6.79884">
        <ele>447.4</ele>
        <time>2014-05-04T07:44:11.000Z</time>
      </trkpt>
      <trkpt lat="47.44273" lon="6.79886">
        <ele>448.2</ele>
        <time>2014-05-04T07:44:16.000Z</time>
      </trkpt>
      <trkpt lat="47.44272" lon="6.79886">
        <ele>446.8</ele>
        <time>2014-05-04T07:44:17.000Z</time>
      </trkpt>
      <trkpt lat="47.44267" lon="6.79886">
        <ele>442.8</ele>
        <time>2014-05-04T07:44:29.000Z</time>
      </trkpt>
      <trkpt lat="47.44267" lon="6.79887">
        <ele>443</ele>
        <time>2014-05-04T07:44:30.000Z</time>
      </trkpt>
      <trkpt lat="47.44264" lon="6.79891">
        <ele>445.5</ele>
        <time>2014-05-04T07:44:36.000Z</time>
      </trkpt>
      <trkpt lat="47.44263" lon="6.79892">
        <ele>448.3</ele>
        <time>2014-05-04T07:44:37.000Z</time>
      </trkpt>
      <trkpt lat="47.44261" lon="6.79894">
        <ele>447.1</ele>
        <time>2014-05-04T07:44:45.000Z</time>
      </trkpt>
      <trkpt lat="47.44259" lon="6.79897">
        <ele>454.2</ele>
        <time>2014-05-04T07:44:46.000Z</time>
      </trkpt>
      <trkpt lat="47.44255" lon="6.79898">
        <ele>450.1</ele>
        <time>2014-05-04T07:44:51.999Z</time>
      </trkpt>
      <trkpt lat="47.44254" lon="6.79899">
        <ele>451.2</ele>
        <time>2014-05-04T07:44:53.000Z</time>
      </trkpt>
      <trkpt lat="47.4425" lon="6.79901">
        <ele>450.2</ele>
        <time>2014-05-04T07:45:00.000Z</time>
      </trkpt>
      <trkpt lat="47.44248" lon="6.79901">
        <ele>450.7</ele>
        <time>2014-05-04T07:45:01.000Z</time>
      </trkpt>
      <trkpt lat="47.44245" lon="6.79902">
        <ele>446.4</ele>
        <time>2014-05-04T07:45:10.000Z</time>
      </trkpt>
      <trkpt lat="47.44244" lon="6.79902">
        <ele>446.3</ele>
        <time>2014-05-04T07:45:11.000Z</time>
      </trkpt>
      <trkpt lat="47.44243" lon="6.79908">
        <ele>454.6</ele>
        <time>2014-05-04T07:45:17.000Z</time>
      </trkpt>
      <trkpt lat="47.44242" lon="6.79909">
        <ele>455</ele>
        <time>2014-05-04T07:45:18.000Z</time>
      </trkpt>
      <trkpt lat="47.44239" lon="6.79909">
        <ele>454.4</ele>
        <time>2014-05-04T07:45:21.000Z</time>
      </trkpt>
      <trkpt lat="47.44237" lon="6.79909">
        <ele>455.3</ele>
        <time>2014-05-04T07:45:22.000Z</time>
      </trkpt>
      <trkpt lat="47.44233" lon="6.79909">
        <ele>458.1</ele>
        <time>2014-05-04T07:45:25.000Z</time>
      </trkpt>
      <trkpt lat="47.44232" lon="6.7991">
        <ele>459.1</ele>
        <time>2014-05-04T07:45:26.000Z</time>
      </trkpt>
      <trkpt lat="47.44228" lon="6.79913">
        <ele>462.8</ele>
        <time>2014-05-04T07:45:30.000Z</time>
      </trkpt>
      <trkpt lat="47.44227" lon="6.79914">
        <ele>458.3</ele>
        <time>2014-05-04T07:45:31.000Z</time>
      </trkpt>
      <trkpt lat="47.44223" lon="6.79916">
        <ele>455.4</ele>
        <time>2014-05-04T07:45:33.000Z</time>
      </trkpt>
      <trkpt lat="47.44221" lon="6.79916">
        <ele>456.5</ele>
        <time>2014-05-04T07:45:34.000Z</time>
      </trkpt>
      <trkpt lat="47.44217" lon="6.79916">
        <ele>458.2</ele>
        <time>2014-05-04T07:45:36.000Z</time>
      </trkpt>
      <trkpt lat="47.44215" lon="6.79915">
        <ele>457.4</ele>
        <time>2014-05-04T07:45:37.000Z</time>
      </trkpt>
      <trkpt lat="47.44212" lon="6.79915">
        <ele>457.7</ele>
        <time>2014-05-04T07:45:39.000Z</time>
      </trkpt>
      <trkpt lat="47.4421" lon="6.79917">
        <ele>459.4</ele>
        <time>2014-05-04T07:45:40.000Z</time>
      </trkpt>
      <trkpt lat="47.44207" lon="6.7992">
        <ele>456.8</ele>
        <time>2014-05-04T07:45:44.000Z</time>
      </trkpt>
      <trkpt lat="47.44206" lon="6.79921">
        <ele>458.9</ele>
        <time>2014-05-04T07:45:45.000Z</time>
      </trkpt>
      <trkpt lat="47.44202" lon="6.79923">
        <ele>458.6</ele>
        <time>2014-05-04T07:45:48.000Z</time>
      </trkpt>
      <trkpt lat="47.44201" lon="6.79924">
        <ele>458.8</ele>
        <time>2014-05-04T07:45:49.000Z</time>
      </trkpt>
      <trkpt lat="47.44197" lon="6.79925">
        <ele>454.6</ele>
        <time>2014-05-04T07:45:54.000Z</time>
      </trkpt>
      <trkpt lat="47.44197" lon="6.79926">
        <ele>453.9</ele>
        <time>2014-05-04T07:45:55.000Z</time>
      </trkpt>
      <trkpt lat="47.44194" lon="6.79922">
        <ele>450.3</ele>
        <time>2014-05-04T07:46:00.000Z</time>
      </trkpt>
      <trkpt lat="47.44192" lon="6.79921">
        <ele>449.9</ele>
        <time>2014-05-04T07:46:01.000Z</time>
      </trkpt>
      <trkpt lat="47.44189" lon="6.7992">
        <ele>451.5</ele>
        <time>2014-05-04T07:46:04.000Z</time>
      </trkpt>
      <trkpt lat="47.44188" lon="6.79919">
        <ele>451</ele>
        <time>2014-05-04T07:46:05.000Z</time>
      </trkpt>
      <trkpt lat="47.44185" lon="6.79914">
        <ele>450.7</ele>
        <time>2014-05-04T07:46:11.000Z</time>
      </trkpt>
      <trkpt lat="47.44185" lon="6.79913">
        <ele>451.6</ele>
        <time>2014-05-04T07:46:12.000Z</time>
      </trkpt>
      <trkpt lat="47.44183" lon="6.79909">
        <ele>451.2</ele>
        <time>2014-05-04T07:46:17.000Z</time>
      </trkpt>
      <trkpt lat="47.44182" lon="6.79908">
        <ele>451.3</ele>
        <time>2014-05-04T07:46:18.000Z</time>
      </trkpt>
      <trkpt lat="47.44181" lon="6.79902">
        <ele>450.7</ele>
        <time>2014-05-04T07:46:21.000Z</time>
      </trkpt>
      <trkpt lat="47.44182" lon="6.799">
        <ele>450</ele>
        <time>2014-05-04T07:46:22.000Z</time>
      </trkpt>
      <trkpt lat="47.44182" lon="6.79895">
        <ele>451</ele>
        <time>2014-05-04T07:46:24.000Z</time>
      </trkpt>
      <trkpt lat="47.44183" lon="6.79893">
        <ele>450.9</ele>
        <time>2014-05-04T07:46:25.000Z</time>
      </trkpt>
      <trkpt lat="47.44182" lon="6.79886">
        <ele>452.9</ele>
        <time>2014-05-04T07:46:28.000Z</time>
      </trkpt>
      <trkpt lat="47.44181" lon="6.79884">
        <ele>451.5</ele>
        <time>2014-05-04T07:46:29.000Z</time>
      </trkpt>
      <trkpt lat="47.44181" lon="6.79879">
        <ele>452.2</ele>
        <time>2014-05-04T07:46:31.000Z</time>
      </trkpt>
      <trkpt lat="47.4418" lon="6.79877">
        <ele>450.9</ele>
        <time>2014-05-04T07:46:32.000Z</time>
      </trkpt>
      <trkpt lat="47.4418" lon="6.79872">
        <ele>451.4</ele>
        <time>2014-05-04T07:46:34.000Z</time>
      </trkpt>
      <trkpt lat="47.4418" lon="6.79869">
        <ele>450.5</ele>
        <time>2014-05-04T07:46:35.000Z</time>
      </trkpt>
      <trkpt lat="47.44181" lon="6.79862">
        <ele>447.3</ele>
        <time>2014-05-04T07:46:38.000Z</time>
      </trkpt>
      <trkpt lat="47.44181" lon="6.7986">
        <ele>447.5</ele>
        <time>2014-05-04T07:46:39.000Z</time>
      </trkpt>
      <trkpt lat="47.44181" lon="6.79855">
        <ele>447</ele>
        <time>2014-05-04T07:46:41.000Z</time>
      </trkpt>
      <trkpt lat="47.44181" lon="6.79847">
        <ele>446.5</ele>
        <time>2014-05-04T07:46:44.000Z</time>
      </trkpt>
      <trkpt lat="47.4418" lon="6.79841">
        <ele>447.4</ele>
        <time>2014-05-04T07:46:46.000Z</time>
      </trkpt>
      <trkpt lat="47.4418" lon="6.79839">
        <ele>446.9</ele>
        <time>2014-05-04T07:46:47.000Z</time>
      </trkpt>
      <trkpt lat="47.44179" lon="6.79834">
        <ele>446.2</ele>
        <time>2014-05-04T07:46:49.000Z</time>
      </trkpt>
      <trkpt lat="47.44178" lon="6.79832">
        <ele>445.7</ele>
        <time>2014-05-04T07:46:50.000Z</time>
      </trkpt>
      <trkpt lat="47.44178" lon="6.79826">
        <ele>445</ele>
        <time>2014-05-04T07:46:52.000Z</time>
      </trkpt>
      <trkpt lat="47.44177" lon="6.79823">
        <ele>445.3</ele>
        <time>2014-05-04T07:46:53.000Z</time>
      </trkpt>
      <trkpt lat="47.44176" lon="6.79819">
        <ele>446</ele>
        <time>2014-05-04T07:46:55.000Z</time>
      </trkpt>
      <trkpt lat="47.44176" lon="6.79816">
        <ele>445.5</ele>
        <time>2014-05-04T07:46:56.000Z</time>
      </trkpt>
      <trkpt lat="47.44176" lon="6.7981">
        <ele>444.1</ele>
        <time>2014-05-04T07:47:00.000Z</time>
      </trkpt>
      <trkpt lat="47.44176" lon="6.79808">
        <ele>443.9</ele>
        <time>2014-05-04T07:47:01.000Z</time>
      </trkpt>
      <trkpt lat="47.44176" lon="6.79803">
        <ele>442.8</ele>
        <time>2014-05-04T07:47:03.000Z</time>
      </trkpt>
      <trkpt lat="47.44176" lon="6.798">
        <ele>441.9</ele>
        <time>2014-05-04T07:47:04.000Z</time>
      </trkpt>
      <trkpt lat="47.44175" lon="6.79795">
        <ele>442</ele>
        <time>2014-05-04T07:47:07.000Z</time>
      </trkpt>
      <trkpt lat="47.44174" lon="6.79793">
        <ele>442</ele>
        <time>2014-05-04T07:47:07.999Z</time>
      </trkpt>
      <trkpt lat="47.44176" lon="6.79788">
        <ele>442.5</ele>
        <time>2014-05-04T07:47:10.000Z</time>
      </trkpt>
      <trkpt lat="47.44177" lon="6.79785">
        <ele>442.5</ele>
        <time>2014-05-04T07:47:11.000Z</time>
      </trkpt>
      <trkpt lat="47.44177" lon="6.79779">
        <ele>442.8</ele>
        <time>2014-05-04T07:47:14.000Z</time>
      </trkpt>
      <trkpt lat="47.44177" lon="6.79777">
        <ele>442.7</ele>
        <time>2014-05-04T07:47:15.000Z</time>
      </trkpt>
      <trkpt lat="47.44177" lon="6.79771">
        <ele>446.7</ele>
        <time>2014-05-04T07:49:33.000Z</time>
      </trkpt>
      <trkpt lat="47.44177" lon="6.7977">
        <ele>447.9</ele>
        <time>2014-05-04T07:49:34.000Z</time>
      </trkpt>
      <trkpt lat="47.44176" lon="6.79767">
        <ele>443.9</ele>
        <time>2014-05-04T07:49:45.000Z</time>
      </trkpt>
      <trkpt lat="47.44175" lon="6.79764">
        <ele>445.6</ele>
        <time>2014-05-04T07:49:46.000Z</time>
      </trkpt>
      <trkpt lat="47.44175" lon="6.79758">
        <ele>447.6</ele>
        <time>2014-05-04T07:49:48.000Z</time>
      </trkpt>
      <trkpt lat="47.44175" lon="6.79754">
        <ele>447.4</ele>
        <time>2014-05-04T07:49:49.000Z</time>
      </trkpt>
      <trkpt lat="47.44176" lon="6.7975">
        <ele>450.2</ele>
        <time>2014-05-04T07:49:50.000Z</time>
      </trkpt>
      <trkpt lat="47.44176" lon="6.79747">
        <ele>451.2</ele>
        <time>2014-05-04T07:49:51.000Z</time>
      </trkpt>
      <trkpt lat="47.44174" lon="6.79742">
        <ele>450.9</ele>
        <time>2014-05-04T07:49:53.000Z</time>
      </trkpt>
      <trkpt lat="47.44173" lon="6.79739">
        <ele>449.7</ele>
        <time>2014-05-04T07:49:54.000Z</time>
      </trkpt>
      <trkpt lat="47.44173" lon="6.79736">
        <ele>448.7</ele>
        <time>2014-05-04T07:49:55.000Z</time>
      </trkpt>
      <trkpt lat="47.44173" lon="6.79732">
        <ele>448</ele>
        <time>2014-05-04T07:49:56.000Z</time>
      </trkpt>
      <trkpt lat="47.44174" lon="6.79727">
        <ele>447.6</ele>
        <time>2014-05-04T07:49:57.000Z</time>
      </trkpt>
      <trkpt lat="47.44175" lon="6.79721">
        <ele>447.5</ele>
        <time>2014-05-04T07:49:58.000Z</time>
      </trkpt>
      <trkpt lat="47.44177" lon="6.79714">
        <ele>447</ele>
        <time>2014-05-04T07:49:59.000Z</time>
      </trkpt>
      <trkpt lat="47.44177" lon="6.79711">
        <ele>446.9</ele>
        <time>2014-05-04T07:49:59.999Z</time>
      </trkpt>
      <trkpt lat="47.44181" lon="6.79701">
        <ele>447.2</ele>
        <time>2014-05-04T07:50:01.000Z</time>
      </trkpt>
      <trkpt lat="47.4419" lon="6.7969">
        <ele>456.5</ele>
        <time>2014-05-04T07:50:02.000Z</time>
      </trkpt>
      <trkpt lat="47.4419" lon="6.79687">
        <ele>458.8</ele>
        <time>2014-05-04T07:50:03.000Z</time>
      </trkpt>
      <trkpt lat="47.4419" lon="6.79683">
        <ele>459.1</ele>
        <time>2014-05-04T07:50:04.000Z</time>
      </trkpt>
      <trkpt lat="47.44188" lon="6.79679">
        <ele>459.6</ele>
        <time>2014-05-04T07:50:05.000Z</time>
      </trkpt>
      <trkpt lat="47.44188" lon="6.79675">
        <ele>459.4</ele>
        <time>2014-05-04T07:50:06.000Z</time>
      </trkpt>
      <trkpt lat="47.44186" lon="6.79672">
        <ele>459.3</ele>
        <time>2014-05-04T07:50:07.000Z</time>
      </trkpt>
      <trkpt lat="47.44183" lon="6.79668">
        <ele>459.7</ele>
        <time>2014-05-04T07:50:08.000Z</time>
      </trkpt>
      <trkpt lat="47.44183" lon="6.79663">
        <ele>459.2</ele>
        <time>2014-05-04T07:50:09.000Z</time>
      </trkpt>
      <trkpt lat="47.44182" lon="6.7966">
        <ele>459.4</ele>
        <time>2014-05-04T07:50:10.000Z</time>
      </trkpt>
      <trkpt lat="47.4418" lon="6.79657">
        <ele>458.8</ele>
        <time>2014-05-04T07:50:13.000Z</time>
      </trkpt>
      <trkpt lat="47.44178" lon="6.79656">
        <ele>458</ele>
        <time>2014-05-04T07:50:14.000Z</time>
      </trkpt>
      <trkpt lat="47.44175" lon="6.79653">
        <ele>455.7</ele>
        <time>2014-05-04T07:50:16.000Z</time>
      </trkpt>
      <trkpt lat="47.44174" lon="6.79652">
        <ele>454.8</ele>
        <time>2014-05-04T07:50:17.000Z</time>
      </trkpt>
      <trkpt lat="47.4417" lon="6.7965">
        <ele>459.7</ele>
        <time>2014-05-04T07:50:21.000Z</time>
      </trkpt>
      <trkpt lat="47.44168" lon="6.79649">
        <ele>460.7</ele>
        <time>2014-05-04T07:50:22.000Z</time>
      </trkpt>
      <trkpt lat="47.44166" lon="6.79649">
        <ele>460.1</ele>
        <time>2014-05-04T07:50:23.000Z</time>
      </trkpt>
      <trkpt lat="47.44163" lon="6.79648">
        <ele>460.9</ele>
        <time>2014-05-04T07:50:24.000Z</time>
      </trkpt>
      <trkpt lat="47.44161" lon="6.79647">
        <ele>460.7</ele>
        <time>2014-05-04T07:50:25.000Z</time>
      </trkpt>
      <trkpt lat="47.44159" lon="6.79645">
        <ele>460</ele>
        <time>2014-05-04T07:50:26.000Z</time>
      </trkpt>
      <trkpt lat="47.44157" lon="6.79642">
        <ele>467.9</ele>
        <time>2014-05-04T07:50:28.000Z</time>
      </trkpt>
      <trkpt lat="47.44156" lon="6.7964">
        <ele>468</ele>
        <time>2014-05-04T07:50:29.000Z</time>
      </trkpt>
      <trkpt lat="47.44153" lon="6.79636">
        <ele>469.6</ele>
        <time>2014-05-04T07:50:32.000Z</time>
      </trkpt>
      <trkpt lat="47.44152" lon="6.79635">
        <ele>469</ele>
        <time>2014-05-04T07:50:33.000Z</time>
      </trkpt>
      <trkpt lat="47.44149" lon="6.79633">
        <ele>467.8</ele>
        <time>2014-05-04T07:50:35.000Z</time>
      </trkpt>
      <trkpt lat="47.44147" lon="6.79632">
        <ele>467.6</ele>
        <time>2014-05-04T07:50:36.000Z</time>
      </trkpt>
      <trkpt lat="47.44143" lon="6.79629">
        <ele>468.8</ele>
        <time>2014-05-04T07:50:38.000Z</time>
      </trkpt>
      <trkpt lat="47.44142" lon="6.79627">
        <ele>468.7</ele>
        <time>2014-05-04T07:50:39.000Z</time>
      </trkpt>
      <trkpt lat="47.4414" lon="6.79624">
        <ele>467.8</ele>
        <time>2014-05-04T07:50:40.000Z</time>
      </trkpt>
      <trkpt lat="47.44138" lon="6.79621">
        <ele>467.3</ele>
        <time>2014-05-04T07:50:41.000Z</time>
      </trkpt>
      <trkpt lat="47.44136" lon="6.79619">
        <ele>466.9</ele>
        <time>2014-05-04T07:50:42.000Z</time>
      </trkpt>
      <trkpt lat="47.44115" lon="6.79613">
        <ele>464.6</ele>
        <time>2014-05-04T07:50:50.000Z</time>
      </trkpt>
      <trkpt lat="47.44113" lon="6.79612">
        <ele>465.7</ele>
        <time>2014-05-04T07:50:51.000Z</time>
      </trkpt>
      <trkpt lat="47.4411" lon="6.7961">
        <ele>465.4</ele>
        <time>2014-05-04T07:50:52.000Z</time>
      </trkpt>
      <trkpt lat="47.44105" lon="6.79609">
        <ele>465.7</ele>
        <time>2014-05-04T07:50:54.000Z</time>
      </trkpt>
      <trkpt lat="47.44103" lon="6.79608">
        <ele>465.1</ele>
        <time>2014-05-04T07:50:55.000Z</time>
      </trkpt>
      <trkpt lat="47.44101" lon="6.79608">
        <ele>465.6</ele>
        <time>2014-05-04T07:50:56.000Z</time>
      </trkpt>
      <trkpt lat="47.44099" lon="6.79606">
        <ele>465.6</ele>
        <time>2014-05-04T07:50:57.000Z</time>
      </trkpt>
      <trkpt lat="47.44096" lon="6.79605">
        <ele>465.9</ele>
        <time>2014-05-04T07:50:58.000Z</time>
      </trkpt>
      <trkpt lat="47.44094" lon="6.79603">
        <ele>469.9</ele>
        <time>2014-05-04T07:50:59.000Z</time>
      </trkpt>
      <trkpt lat="47.44091" lon="6.79601">
        <ele>472.8</ele>
        <time>2014-05-04T07:51:01.000Z</time>
      </trkpt>
      <trkpt lat="47.4409" lon="6.796">
        <ele>473.6</ele>
        <time>2014-05-04T07:51:02.000Z</time>
      </trkpt>
      <trkpt lat="47.44087" lon="6.79598">
        <ele>476.1</ele>
        <time>2014-05-04T07:51:04.000Z</time>
      </trkpt>
      <trkpt lat="47.44085" lon="6.79597">
        <ele>476.9</ele>
        <time>2014-05-04T07:51:05.000Z</time>
      </trkpt>
      <trkpt lat="47.44081" lon="6.79596">
        <ele>478.7</ele>
        <time>2014-05-04T07:51:07.000Z</time>
      </trkpt>
      <trkpt lat="47.4408" lon="6.79595">
        <ele>481.6</ele>
        <time>2014-05-04T07:51:08.000Z</time>
      </trkpt>
      <trkpt lat="47.44076" lon="6.79594">
        <ele>484.2</ele>
        <time>2014-05-04T07:51:12.000Z</time>
      </trkpt>
      <trkpt lat="47.44074" lon="6.79593">
        <ele>482.5</ele>
        <time>2014-05-04T07:51:13.000Z</time>
      </trkpt>
      <trkpt lat="47.44071" lon="6.79591">
        <ele>480.6</ele>
        <time>2014-05-04T07:51:15.000Z</time>
      </trkpt>
      <trkpt lat="47.4407" lon="6.79589">
        <ele>481.1</ele>
        <time>2014-05-04T07:51:16.000Z</time>
      </trkpt>
      <trkpt lat="47.44068" lon="6.79587">
        <ele>481.2</ele>
        <time>2014-05-04T07:51:17.000Z</time>
      </trkpt>
      <trkpt lat="47.44066" lon="6.79586">
        <ele>480.9</ele>
        <time>2014-05-04T07:51:18.000Z</time>
      </trkpt>
      <trkpt lat="47.44063" lon="6.79585">
        <ele>479.9</ele>
        <time>2014-05-04T07:51:19.000Z</time>
      </trkpt>
      <trkpt lat="47.4406" lon="6.79583">
        <ele>478.9</ele>
        <time>2014-05-04T07:51:20.000Z</time>
      </trkpt>
      <trkpt lat="47.44057" lon="6.79582">
        <ele>478.9</ele>
        <time>2014-05-04T07:51:21.000Z</time>
      </trkpt>
      <trkpt lat="47.44055" lon="6.79581">
        <ele>483.3</ele>
        <time>2014-05-04T07:51:22.000Z</time>
      </trkpt>
      <trkpt lat="47.44051" lon="6.7958">
        <ele>484.6</ele>
        <time>2014-05-04T07:51:25.000Z</time>
      </trkpt>
      <trkpt lat="47.44049" lon="6.7958">
        <ele>485.1</ele>
        <time>2014-05-04T07:51:26.000Z</time>
      </trkpt>
      <trkpt lat="47.44047" lon="6.79579">
        <ele>483.9</ele>
        <time>2014-05-04T07:51:27.000Z</time>
      </trkpt>
      <trkpt lat="47.44044" lon="6.79579">
        <ele>484.5</ele>
        <time>2014-05-04T07:51:28.000Z</time>
      </trkpt>
      <trkpt lat="47.44041" lon="6.79578">
        <ele>483.9</ele>
        <time>2014-05-04T07:51:29.000Z</time>
      </trkpt>
      <trkpt lat="47.44038" lon="6.79577">
        <ele>483.5</ele>
        <time>2014-05-04T07:51:30.000Z</time>
      </trkpt>
      <trkpt lat="47.44034" lon="6.79577">
        <ele>483.4</ele>
        <time>2014-05-04T07:51:31.000Z</time>
      </trkpt>
      <trkpt lat="47.44031" lon="6.79576">
        <ele>482.6</ele>
        <time>2014-05-04T07:51:32.000Z</time>
      </trkpt>
      <trkpt lat="47.44027" lon="6.79576">
        <ele>481.8</ele>
        <time>2014-05-04T07:51:33.000Z</time>
      </trkpt>
      <trkpt lat="47.44024" lon="6.79575">
        <ele>481</ele>
        <time>2014-05-04T07:51:34.000Z</time>
      </trkpt>
      <trkpt lat="47.44022" lon="6.79575">
        <ele>481</ele>
        <time>2014-05-04T07:51:35.000Z</time>
      </trkpt>
      <trkpt lat="47.44019" lon="6.79573">
        <ele>480.5</ele>
        <time>2014-05-04T07:51:36.000Z</time>
      </trkpt>
      <trkpt lat="47.44016" lon="6.79571">
        <ele>479.8</ele>
        <time>2014-05-04T07:51:38.000Z</time>
      </trkpt>
      <trkpt lat="47.44014" lon="6.7957">
        <ele>479.9</ele>
        <time>2014-05-04T07:51:39.000Z</time>
      </trkpt>
      <trkpt lat="47.4401" lon="6.79571">
        <ele>480.1</ele>
        <time>2014-05-04T07:51:41.000Z</time>
      </trkpt>
      <trkpt lat="47.44006" lon="6.79572">
        <ele>437.5</ele>
        <time>2014-05-04T07:51:44.000Z</time>
      </trkpt>
      <trkpt lat="47.44004" lon="6.79572">
        <ele>438.9</ele>
        <time>2014-05-04T07:51:45.000Z</time>
      </trkpt>
      <trkpt lat="47.44001" lon="6.79574">
        <ele>440.6</ele>
        <time>2014-05-04T07:51:46.000Z</time>
      </trkpt>
      <trkpt lat="47.43999" lon="6.79575">
        <ele>441.7</ele>
        <time>2014-05-04T07:51:47.000Z</time>
      </trkpt>
      <trkpt lat="47.43996" lon="6.79577">
        <ele>443.7</ele>
        <time>2014-05-04T07:51:48.000Z</time>
      </trkpt>
      <trkpt lat="47.43994" lon="6.79579">
        <ele>446.1</ele>
        <time>2014-05-04T07:51:49.000Z</time>
      </trkpt>
      <trkpt lat="47.43991" lon="6.79581">
        <ele>446.1</ele>
        <time>2014-05-04T07:51:50.000Z</time>
      </trkpt>
      <trkpt lat="47.43989" lon="6.79583">
        <ele>446.6</ele>
        <time>2014-05-04T07:51:51.000Z</time>
      </trkpt>
      <trkpt lat="47.43987" lon="6.79585">
        <ele>447.4</ele>
        <time>2014-05-04T07:51:52.000Z</time>
      </trkpt>
      <trkpt lat="47.43983" lon="6.79587">
        <ele>446.2</ele>
        <time>2014-05-04T07:51:54.000Z</time>
      </trkpt>
      <trkpt lat="47.4398" lon="6.79588">
        <ele>446.3</ele>
        <time>2014-05-04T07:51:55.000Z</time>
      </trkpt>
      <trkpt lat="47.43976" lon="6.7959">
        <ele>446.6</ele>
        <time>2014-05-04T07:51:57.000Z</time>
      </trkpt>
      <trkpt lat="47.43974" lon="6.79591">
        <ele>446.3</ele>
        <time>2014-05-04T07:51:58.000Z</time>
      </trkpt>
      <trkpt lat="47.43971" lon="6.79593">
        <ele>446.9</ele>
        <time>2014-05-04T07:52:00.000Z</time>
      </trkpt>
      <trkpt lat="47.43969" lon="6.79594">
        <ele>449</ele>
        <time>2014-05-04T07:52:01.000Z</time>
      </trkpt>
      <trkpt lat="47.43966" lon="6.79596">
        <ele>450.6</ele>
        <time>2014-05-04T07:52:03.000Z</time>
      </trkpt>
      <trkpt lat="47.43964" lon="6.79597">
        <ele>451.7</ele>
        <time>2014-05-04T07:52:04.000Z</time>
      </trkpt>
      <trkpt lat="47.43961" lon="6.79599">
        <ele>451.3</ele>
        <time>2014-05-04T07:52:05.999Z</time>
      </trkpt>
      <trkpt lat="47.43958" lon="6.796">
        <ele>452.3</ele>
        <time>2014-05-04T07:52:07.000Z</time>
      </trkpt>
      <trkpt lat="47.43954" lon="6.79602">
        <ele>451.7</ele>
        <time>2014-05-04T07:52:09.000Z</time>
      </trkpt>
      <trkpt lat="47.43951" lon="6.79602">
        <ele>452.4</ele>
        <time>2014-05-04T07:52:10.000Z</time>
      </trkpt>
      <trkpt lat="47.43947" lon="6.79602">
        <ele>456.6</ele>
        <time>2014-05-04T07:52:12.000Z</time>
      </trkpt>
      <trkpt lat="47.43945" lon="6.79601">
        <ele>459.1</ele>
        <time>2014-05-04T07:52:13.000Z</time>
      </trkpt>
      <trkpt lat="47.43941" lon="6.79599">
        <ele>462.6</ele>
        <time>2014-05-04T07:52:17.000Z</time>
      </trkpt>
      <trkpt lat="47.4394" lon="6.79599">
        <ele>465.4</ele>
        <time>2014-05-04T07:52:18.000Z</time>
      </trkpt>
      <trkpt lat="47.43936" lon="6.79598">
        <ele>468</ele>
        <time>2014-05-04T07:52:21.000Z</time>
      </trkpt>
      <trkpt lat="47.43934" lon="6.79597">
        <ele>468.9</ele>
        <time>2014-05-04T07:52:22.000Z</time>
      </trkpt>
      <trkpt lat="47.43931" lon="6.79596">
        <ele>469.7</ele>
        <time>2014-05-04T07:52:24.000Z</time>
      </trkpt>
      <trkpt lat="47.43929" lon="6.79595">
        <ele>471.8</ele>
        <time>2014-05-04T07:52:25.000Z</time>
      </trkpt>
      <trkpt lat="47.43926" lon="6.79595">
        <ele>471.4</ele>
        <time>2014-05-04T07:52:26.000Z</time>
      </trkpt>
      <trkpt lat="47.43923" lon="6.79594">
        <ele>471.4</ele>
        <time>2014-05-04T07:52:27.000Z</time>
      </trkpt>
      <trkpt lat="47.4392" lon="6.79592">
        <ele>471.8</ele>
        <time>2014-05-04T07:52:28.000Z</time>
      </trkpt>
      <trkpt lat="47.43916" lon="6.7959">
        <ele>474.2</ele>
        <time>2014-05-04T07:52:29.000Z</time>
      </trkpt>
      <trkpt lat="47.43913" lon="6.79587">
        <ele>474.1</ele>
        <time>2014-05-04T07:52:30.000Z</time>
      </trkpt>
      <trkpt lat="47.4391" lon="6.79584">
        <ele>473.6</ele>
        <time>2014-05-04T07:52:31.000Z</time>
      </trkpt>
      <trkpt lat="47.43908" lon="6.7958">
        <ele>473.1</ele>
        <time>2014-05-04T07:52:32.000Z</time>
      </trkpt>
      <trkpt lat="47.43906" lon="6.79577">
        <ele>472.8</ele>
        <time>2014-05-04T07:52:33.000Z</time>
      </trkpt>
      <trkpt lat="47.43904" lon="6.79572">
        <ele>473.8</ele>
        <time>2014-05-04T07:52:35.000Z</time>
      </trkpt>
      <trkpt lat="47.43903" lon="6.7957">
        <ele>472.4</ele>
        <time>2014-05-04T07:52:36.000Z</time>
      </trkpt>
      <trkpt lat="47.43899" lon="6.79568">
        <ele>468.4</ele>
        <time>2014-05-04T07:52:38.000Z</time>
      </trkpt>
      <trkpt lat="47.43897" lon="6.79567">
        <ele>468.1</ele>
        <time>2014-05-04T07:52:39.000Z</time>
      </trkpt>
      <trkpt lat="47.43894" lon="6.79565">
        <ele>467.4</ele>
        <time>2014-05-04T07:52:41.000Z</time>
      </trkpt>
      <trkpt lat="47.43887" lon="6.79561">
        <ele>465.2</ele>
        <time>2014-05-04T07:52:45.000Z</time>
      </trkpt>
      <trkpt lat="47.43885" lon="6.79559">
        <ele>465.6</ele>
        <time>2014-05-04T07:52:46.000Z</time>
      </trkpt>
      <trkpt lat="47.43883" lon="6.79557">
        <ele>465.7</ele>
        <time>2014-05-04T07:52:47.000Z</time>
      </trkpt>
      <trkpt lat="47.4388" lon="6.79555">
        <ele>466.2</ele>
        <time>2014-05-04T07:52:48.000Z</time>
      </trkpt>
      <trkpt lat="47.43878" lon="6.79554">
        <ele>466.8</ele>
        <time>2014-05-04T07:52:49.000Z</time>
      </trkpt>
      <trkpt lat="47.43874" lon="6.79551">
        <ele>467.8</ele>
        <time>2014-05-04T07:52:51.000Z</time>
      </trkpt>
      <trkpt lat="47.43872" lon="6.79549">
        <ele>469.8</ele>
        <time>2014-05-04T07:52:52.000Z</time>
      </trkpt>
      <trkpt lat="47.43868" lon="6.79546">
        <ele>473.1</ele>
        <time>2014-05-04T07:52:54.000Z</time>
      </trkpt>
      <trkpt lat="47.43866" lon="6.79545">
        <ele>473</ele>
        <time>2014-05-04T07:52:55.000Z</time>
      </trkpt>
      <trkpt lat="47.43862" lon="6.79543">
        <ele>473.9</ele>
        <time>2014-05-04T07:52:57.000Z</time>
      </trkpt>
      <trkpt lat="47.4386" lon="6.79543">
        <ele>473.9</ele>
        <time>2014-05-04T07:52:58.000Z</time>
      </trkpt>
      <trkpt lat="47.43857" lon="6.79542">
        <ele>473.4</ele>
        <time>2014-05-04T07:52:59.000Z</time>
      </trkpt>
      <trkpt lat="47.43855" lon="6.79543">
        <ele>474.4</ele>
        <time>2014-05-04T07:53:00.000Z</time>
      </trkpt>
      <trkpt lat="47.43853" lon="6.79543">
        <ele>473.9</ele>
        <time>2014-05-04T07:53:01.000Z</time>
      </trkpt>
      <trkpt lat="47.4385" lon="6.79544">
        <ele>473.9</ele>
        <time>2014-05-04T07:53:02.000Z</time>
      </trkpt>
      <trkpt lat="47.43846" lon="6.79545">
        <ele>474.7</ele>
        <time>2014-05-04T07:53:04.000Z</time>
      </trkpt>
      <trkpt lat="47.43844" lon="6.79546">
        <ele>475.9</ele>
        <time>2014-05-04T07:53:05.000Z</time>
      </trkpt>
      <trkpt lat="47.4384" lon="6.79547">
        <ele>476.7</ele>
        <time>2014-05-04T07:53:07.000Z</time>
      </trkpt>
      <trkpt lat="47.43838" lon="6.79547">
        <ele>476.3</ele>
        <time>2014-05-04T07:53:08.000Z</time>
      </trkpt>
      <trkpt lat="47.43836" lon="6.79547">
        <ele>476.6</ele>
        <time>2014-05-04T07:53:09.000Z</time>
      </trkpt>
      <trkpt lat="47.43833" lon="6.79546">
        <ele>476.7</ele>
        <time>2014-05-04T07:53:10.000Z</time>
      </trkpt>
      <trkpt lat="47.43831" lon="6.79546">
        <ele>476.1</ele>
        <time>2014-05-04T07:53:11.000Z</time>
      </trkpt>
      <trkpt lat="47.43829" lon="6.79546">
        <ele>476.3</ele>
        <time>2014-05-04T07:53:12.000Z</time>
      </trkpt>
      <trkpt lat="47.43825" lon="6.79546">
        <ele>477.2</ele>
        <time>2014-05-04T07:53:14.000Z</time>
      </trkpt>
      <trkpt lat="47.43823" lon="6.79546">
        <ele>477.9</ele>
        <time>2014-05-04T07:53:15.000Z</time>
      </trkpt>
      <trkpt lat="47.43821" lon="6.79547">
        <ele>478.4</ele>
        <time>2014-05-04T07:53:16.000Z</time>
      </trkpt>
      <trkpt lat="47.43818" lon="6.79549">
        <ele>478.7</ele>
        <time>2014-05-04T07:53:17.000Z</time>
      </trkpt>
      <trkpt lat="47.43816" lon="6.79551">
        <ele>479.2</ele>
        <time>2014-05-04T07:53:18.000Z</time>
      </trkpt>
      <trkpt lat="47.43813" lon="6.79553">
        <ele>480</ele>
        <time>2014-05-04T07:53:19.000Z</time>
      </trkpt>
      <trkpt lat="47.43811" lon="6.79556">
        <ele>480.2</ele>
        <time>2014-05-04T07:53:20.000Z</time>
      </trkpt>
      <trkpt lat="47.43809" lon="6.79558">
        <ele>481.1</ele>
        <time>2014-05-04T07:53:21.000Z</time>
      </trkpt>
      <trkpt lat="47.43807" lon="6.7956">
        <ele>482.5</ele>
        <time>2014-05-04T07:53:23.000Z</time>
      </trkpt>
      <trkpt lat="47.43805" lon="6.79559">
        <ele>482.9</ele>
        <time>2014-05-04T07:53:24.000Z</time>
      </trkpt>
      <trkpt lat="47.43804" lon="6.79557">
        <ele>482.9</ele>
        <time>2014-05-04T07:53:25.000Z</time>
      </trkpt>
      <trkpt lat="47.43803" lon="6.79553">
        <ele>483.1</ele>
        <time>2014-05-04T07:53:26.000Z</time>
      </trkpt>
      <trkpt lat="47.43803" lon="6.79548">
        <ele>485.1</ele>
        <time>2014-05-04T07:53:27.000Z</time>
      </trkpt>
      <trkpt lat="47.43803" lon="6.79544">
        <ele>486</ele>
        <time>2014-05-04T07:53:28.000Z</time>
      </trkpt>
      <trkpt lat="47.43807" lon="6.79537">
        <ele>492.1</ele>
        <time>2014-05-04T07:53:29.000Z</time>
      </trkpt>
      <trkpt lat="47.43807" lon="6.79535">
        <ele>494</ele>
        <time>2014-05-04T07:53:30.000Z</time>
      </trkpt>
      <trkpt lat="47.43807" lon="6.7953">
        <ele>494.9</ele>
        <time>2014-05-04T07:53:31.000Z</time>
      </trkpt>
      <trkpt lat="47.43804" lon="6.79527">
        <ele>497.3</ele>
        <time>2014-05-04T07:53:32.000Z</time>
      </trkpt>
      <trkpt lat="47.43801" lon="6.79524">
        <ele>496.7</ele>
        <time>2014-05-04T07:53:33.000Z</time>
      </trkpt>
      <trkpt lat="47.43798" lon="6.79521">
        <ele>496.3</ele>
        <time>2014-05-04T07:53:34.000Z</time>
      </trkpt>
      <trkpt lat="47.43796" lon="6.79518">
        <ele>496.5</ele>
        <time>2014-05-04T07:53:35.000Z</time>
      </trkpt>
      <trkpt lat="47.43793" lon="6.79515">
        <ele>495.2</ele>
        <time>2014-05-04T07:53:36.000Z</time>
      </trkpt>
      <trkpt lat="47.43791" lon="6.79513">
        <ele>495.3</ele>
        <time>2014-05-04T07:53:37.000Z</time>
      </trkpt>
      <trkpt lat="47.43794" lon="6.79502">
        <ele>494.1</ele>
        <time>2014-05-04T07:53:38.000Z</time>
      </trkpt>
      <trkpt lat="47.43793" lon="6.79497">
        <ele>493.2</ele>
        <time>2014-05-04T07:53:39.000Z</time>
      </trkpt>
      <trkpt lat="47.43793" lon="6.79492">
        <ele>492.3</ele>
        <time>2014-05-04T07:53:40.000Z</time>
      </trkpt>
      <trkpt lat="47.43791" lon="6.79487">
        <ele>491.5</ele>
        <time>2014-05-04T07:53:41.000Z</time>
      </trkpt>
      <trkpt lat="47.43787" lon="6.79474">
        <ele>486</ele>
        <time>2014-05-04T07:53:44.000Z</time>
      </trkpt>
      <trkpt lat="47.43786" lon="6.7947">
        <ele>487.3</ele>
        <time>2014-05-04T07:53:45.000Z</time>
      </trkpt>
      <trkpt lat="47.43785" lon="6.79465">
        <ele>485.5</ele>
        <time>2014-05-04T07:53:46.000Z</time>
      </trkpt>
      <trkpt lat="47.43784" lon="6.79462">
        <ele>484.7</ele>
        <time>2014-05-04T07:53:47.000Z</time>
      </trkpt>
      <trkpt lat="47.43784" lon="6.79458">
        <ele>484.2</ele>
        <time>2014-05-04T07:53:48.000Z</time>
      </trkpt>
      <trkpt lat="47.43782" lon="6.79453">
        <ele>489.5</ele>
        <time>2014-05-04T07:53:50.000Z</time>
      </trkpt>
      <trkpt lat="47.43781" lon="6.7945">
        <ele>489.2</ele>
        <time>2014-05-04T07:53:51.000Z</time>
      </trkpt>
      <trkpt lat="47.43781" lon="6.79444">
        <ele>490.6</ele>
        <time>2014-05-04T07:53:53.000Z</time>
      </trkpt>
      <trkpt lat="47.43781" lon="6.79441">
        <ele>492.4</ele>
        <time>2014-05-04T07:53:54.000Z</time>
      </trkpt>
      <trkpt lat="47.43781" lon="6.79437">
        <ele>493.7</ele>
        <time>2014-05-04T07:53:55.000Z</time>
      </trkpt>
      <trkpt lat="47.43782" lon="6.79433">
        <ele>493.8</ele>
        <time>2014-05-04T07:53:56.000Z</time>
      </trkpt>
      <trkpt lat="47.43782" lon="6.79429">
        <ele>492.6</ele>
        <time>2014-05-04T07:53:57.000Z</time>
      </trkpt>
      <trkpt lat="47.43782" lon="6.79426">
        <ele>497.8</ele>
        <time>2014-05-04T07:53:58.000Z</time>
      </trkpt>
      <trkpt lat="47.43781" lon="6.7942">
        <ele>501.9</ele>
        <time>2014-05-04T07:54:00.000Z</time>
      </trkpt>
      <trkpt lat="47.43779" lon="6.79418">
        <ele>500.4</ele>
        <time>2014-05-04T07:54:01.000Z</time>
      </trkpt>
      <trkpt lat="47.43775" lon="6.79416">
        <ele>501.1</ele>
        <time>2014-05-04T07:54:03.000Z</time>
      </trkpt>
      <trkpt lat="47.43772" lon="6.79415">
        <ele>498.5</ele>
        <time>2014-05-04T07:54:04.000Z</time>
      </trkpt>
      <trkpt lat="47.4377" lon="6.79414">
        <ele>498</ele>
        <time>2014-05-04T07:54:05.000Z</time>
      </trkpt>
      <trkpt lat="47.43767" lon="6.79413">
        <ele>497.9</ele>
        <time>2014-05-04T07:54:06.000Z</time>
      </trkpt>
      <trkpt lat="47.43763" lon="6.79412">
        <ele>495.1</ele>
        <time>2014-05-04T07:54:07.000Z</time>
      </trkpt>
      <trkpt lat="47.4376" lon="6.79412">
        <ele>493.3</ele>
        <time>2014-05-04T07:54:08.000Z</time>
      </trkpt>
      <trkpt lat="47.43757" lon="6.79412">
        <ele>493.1</ele>
        <time>2014-05-04T07:54:09.000Z</time>
      </trkpt>
      <trkpt lat="47.43753" lon="6.79411">
        <ele>494.4</ele>
        <time>2014-05-04T07:54:10.000Z</time>
      </trkpt>
      <trkpt lat="47.43749" lon="6.79412">
        <ele>491.1</ele>
        <time>2014-05-04T07:54:11.000Z</time>
      </trkpt>
      <trkpt lat="47.43745" lon="6.79414">
        <ele>488.7</ele>
        <time>2014-05-04T07:54:12.000Z</time>
      </trkpt>
      <trkpt lat="47.43742" lon="6.79416">
        <ele>488.7</ele>
        <time>2014-05-04T07:54:13.000Z</time>
      </trkpt>
      <trkpt lat="47.43739" lon="6.79419">
        <ele>487.9</ele>
        <time>2014-05-04T07:54:14.000Z</time>
      </trkpt>
      <trkpt lat="47.43737" lon="6.79421">
        <ele>488.7</ele>
        <time>2014-05-04T07:54:15.000Z</time>
      </trkpt>
      <trkpt lat="47.43735" lon="6.79423">
        <ele>490</ele>
        <time>2014-05-04T07:54:16.000Z</time>
      </trkpt>
      <trkpt lat="47.43731" lon="6.79423">
        <ele>491.9</ele>
        <time>2014-05-04T07:54:18.000Z</time>
      </trkpt>
      <trkpt lat="47.43729" lon="6.79423">
        <ele>493.5</ele>
        <time>2014-05-04T07:54:19.000Z</time>
      </trkpt>
      <trkpt lat="47.43726" lon="6.79423">
        <ele>496.4</ele>
        <time>2014-05-04T07:54:21.000Z</time>
      </trkpt>
      <trkpt lat="47.43724" lon="6.79423">
        <ele>496.9</ele>
        <time>2014-05-04T07:54:22.000Z</time>
      </trkpt>
      <trkpt lat="47.43721" lon="6.79424">
        <ele>496.6</ele>
        <time>2014-05-04T07:54:23.000Z</time>
      </trkpt>
      <trkpt lat="47.43719" lon="6.79424">
        <ele>495.8</ele>
        <time>2014-05-04T07:54:24.000Z</time>
      </trkpt>
      <trkpt lat="47.43716" lon="6.79425">
        <ele>495.5</ele>
        <time>2014-05-04T07:54:25.000Z</time>
      </trkpt>
      <trkpt lat="47.43714" lon="6.79424">
        <ele>493.6</ele>
        <time>2014-05-04T07:54:26.000Z</time>
      </trkpt>
      <trkpt lat="47.43711" lon="6.79425">
        <ele>493</ele>
        <time>2014-05-04T07:54:27.000Z</time>
      </trkpt>
      <trkpt lat="47.43708" lon="6.79425">
        <ele>494.4</ele>
        <time>2014-05-04T07:54:28.000Z</time>
      </trkpt>
      <trkpt lat="47.43706" lon="6.79425">
        <ele>495.2</ele>
        <time>2014-05-04T07:54:29.000Z</time>
      </trkpt>
      <trkpt lat="47.43703" lon="6.79426">
        <ele>495.6</ele>
        <time>2014-05-04T07:54:30.000Z</time>
      </trkpt>
      <trkpt lat="47.43701" lon="6.79427">
        <ele>496.3</ele>
        <time>2014-05-04T07:54:31.001Z</time>
      </trkpt>
      <trkpt lat="47.43699" lon="6.7943">
        <ele>495.4</ele>
        <time>2014-05-04T07:54:32.000Z</time>
      </trkpt>
      <trkpt lat="47.43697" lon="6.79432">
        <ele>494.8</ele>
        <time>2014-05-04T07:54:33.000Z</time>
      </trkpt>
      <trkpt lat="47.43694" lon="6.79435">
        <ele>494.7</ele>
        <time>2014-05-04T07:54:34.000Z</time>
      </trkpt>
      <trkpt lat="47.43692" lon="6.79437">
        <ele>495.8</ele>
        <time>2014-05-04T07:54:35.000Z</time>
      </trkpt>
      <trkpt lat="47.4369" lon="6.79438">
        <ele>496.3</ele>
        <time>2014-05-04T07:54:36.000Z</time>
      </trkpt>
      <trkpt lat="47.43687" lon="6.79439">
        <ele>497.1</ele>
        <time>2014-05-04T07:54:37.000Z</time>
      </trkpt>
      <trkpt lat="47.43684" lon="6.7944">
        <ele>496.7</ele>
        <time>2014-05-04T07:54:38.000Z</time>
      </trkpt>
      <trkpt lat="47.43682" lon="6.79441">
        <ele>496</ele>
        <time>2014-05-04T07:54:39.000Z</time>
      </trkpt>
      <trkpt lat="47.43679" lon="6.79441">
        <ele>494.7</ele>
        <time>2014-05-04T07:54:40.000Z</time>
      </trkpt>
      <trkpt lat="47.43676" lon="6.79442">
        <ele>495.3</ele>
        <time>2014-05-04T07:54:41.000Z</time>
      </trkpt>
      <trkpt lat="47.43667" lon="6.79443">
        <ele>493.9</ele>
        <time>2014-05-04T07:54:45.000Z</time>
      </trkpt>
      <trkpt lat="47.43662" lon="6.79444">
        <ele>496.1</ele>
        <time>2014-05-04T07:54:47.000Z</time>
      </trkpt>
      <trkpt lat="47.4366" lon="6.79444">
        <ele>495.7</ele>
        <time>2014-05-04T07:54:48.000Z</time>
      </trkpt>
      <trkpt lat="47.43657" lon="6.79447">
        <ele>495.2</ele>
        <time>2014-05-04T07:54:50.000Z</time>
      </trkpt>
      <trkpt lat="47.43655" lon="6.79448">
        <ele>494.9</ele>
        <time>2014-05-04T07:54:51.000Z</time>
      </trkpt>
      <trkpt lat="47.43651" lon="6.79449">
        <ele>498.4</ele>
        <time>2014-05-04T07:54:53.000Z</time>
      </trkpt>
      <trkpt lat="47.43649" lon="6.79448">
        <ele>499.1</ele>
        <time>2014-05-04T07:54:54.000Z</time>
      </trkpt>
      <trkpt lat="47.43645" lon="6.79447">
        <ele>499.8</ele>
        <time>2014-05-04T07:54:56.000Z</time>
      </trkpt>
      <trkpt lat="47.43643" lon="6.79447">
        <ele>500.3</ele>
        <time>2014-05-04T07:54:57.000Z</time>
      </trkpt>
      <trkpt lat="47.43639" lon="6.79449">
        <ele>501.4</ele>
        <time>2014-05-04T07:54:59.000Z</time>
      </trkpt>
      <trkpt lat="47.43637" lon="6.79449">
        <ele>501.5</ele>
        <time>2014-05-04T07:55:00.000Z</time>
      </trkpt>
      <trkpt lat="47.43635" lon="6.79448">
        <ele>502.2</ele>
        <time>2014-05-04T07:55:01.000Z</time>
      </trkpt>
      <trkpt lat="47.43632" lon="6.79448">
        <ele>501.3</ele>
        <time>2014-05-04T07:55:02.000Z</time>
      </trkpt>
      <trkpt lat="47.43629" lon="6.79446">
        <ele>499.1</ele>
        <time>2014-05-04T07:55:03.000Z</time>
      </trkpt>
      <trkpt lat="47.43625" lon="6.79444">
        <ele>499.5</ele>
        <time>2014-05-04T07:55:04.000Z</time>
      </trkpt>
      <trkpt lat="47.4362" lon="6.79442">
        <ele>495.6</ele>
        <time>2014-05-04T07:55:05.000Z</time>
      </trkpt>
      <trkpt lat="47.43616" lon="6.7944">
        <ele>495.9</ele>
        <time>2014-05-04T07:55:06.000Z</time>
      </trkpt>
      <trkpt lat="47.43612" lon="6.79439">
        <ele>496.1</ele>
        <time>2014-05-04T07:55:07.000Z</time>
      </trkpt>
      <trkpt lat="47.43608" lon="6.79438">
        <ele>495.9</ele>
        <time>2014-05-04T07:55:08.000Z</time>
      </trkpt>
      <trkpt lat="47.43604" lon="6.79439">
        <ele>495.7</ele>
        <time>2014-05-04T07:55:09.000Z</time>
      </trkpt>
      <trkpt lat="47.43601" lon="6.79439">
        <ele>495.2</ele>
        <time>2014-05-04T07:55:10.000Z</time>
      </trkpt>
      <trkpt lat="47.43598" lon="6.79441">
        <ele>496.5</ele>
        <time>2014-05-04T07:55:11.000Z</time>
      </trkpt>
      <trkpt lat="47.43595" lon="6.79442">
        <ele>495.4</ele>
        <time>2014-05-04T07:55:12.000Z</time>
      </trkpt>
      <trkpt lat="47.43591" lon="6.79443">
        <ele>493.4</ele>
        <time>2014-05-04T07:55:13.000Z</time>
      </trkpt>
      <trkpt lat="47.43588" lon="6.79445">
        <ele>491.8</ele>
        <time>2014-05-04T07:55:14.000Z</time>
      </trkpt>
      <trkpt lat="47.43584" lon="6.79447">
        <ele>492.3</ele>
        <time>2014-05-04T07:55:15.000Z</time>
      </trkpt>
      <trkpt lat="47.4358" lon="6.79449">
        <ele>490.9</ele>
        <time>2014-05-04T07:55:16.000Z</time>
      </trkpt>
      <trkpt lat="47.43576" lon="6.79451">
        <ele>489</ele>
        <time>2014-05-04T07:55:17.000Z</time>
      </trkpt>
      <trkpt lat="47.4357" lon="6.79453">
        <ele>486.6</ele>
        <time>2014-05-04T07:55:18.000Z</time>
      </trkpt>
      <trkpt lat="47.43565" lon="6.79455">
        <ele>484.6</ele>
        <time>2014-05-04T07:55:19.000Z</time>
      </trkpt>
      <trkpt lat="47.43559" lon="6.79456">
        <ele>485.5</ele>
        <time>2014-05-04T07:55:20.000Z</time>
      </trkpt>
      <trkpt lat="47.43555" lon="6.79457">
        <ele>484.5</ele>
        <time>2014-05-04T07:55:21.000Z</time>
      </trkpt>
      <trkpt lat="47.43551" lon="6.79458">
        <ele>485.2</ele>
        <time>2014-05-04T07:55:22.000Z</time>
      </trkpt>
      <trkpt lat="47.43547" lon="6.79458">
        <ele>485.5</ele>
        <time>2014-05-04T07:55:23.000Z</time>
      </trkpt>
      <trkpt lat="47.43545" lon="6.7946">
        <ele>485.7</ele>
        <time>2014-05-04T07:55:24.000Z</time>
      </trkpt>
      <trkpt lat="47.43542" lon="6.79462">
        <ele>483.6</ele>
        <time>2014-05-04T07:55:25.000Z</time>
      </trkpt>
      <trkpt lat="47.43539" lon="6.79464">
        <ele>483.2</ele>
        <time>2014-05-04T07:55:26.000Z</time>
      </trkpt>
      <trkpt lat="47.43535" lon="6.79466">
        <ele>480.2</ele>
        <time>2014-05-04T07:55:27.000Z</time>
      </trkpt>
      <trkpt lat="47.43532" lon="6.79467">
        <ele>481.5</ele>
        <time>2014-05-04T07:55:28.000Z</time>
      </trkpt>
      <trkpt lat="47.43528" lon="6.79468">
        <ele>481.7</ele>
        <time>2014-05-04T07:55:29.000Z</time>
      </trkpt>
      <trkpt lat="47.43525" lon="6.7947">
        <ele>482</ele>
        <time>2014-05-04T07:55:30.000Z</time>
      </trkpt>
      <trkpt lat="47.43521" lon="6.79471">
        <ele>482.4</ele>
        <time>2014-05-04T07:55:31.000Z</time>
      </trkpt>
      <trkpt lat="47.43518" lon="6.79472">
        <ele>482.6</ele>
        <time>2014-05-04T07:55:32.000Z</time>
      </trkpt>
      <trkpt lat="47.43516" lon="6.79473">
        <ele>483.8</ele>
        <time>2014-05-04T07:55:33.000Z</time>
      </trkpt>
      <trkpt lat="47.43513" lon="6.79474">
        <ele>484.5</ele>
        <time>2014-05-04T07:55:34.000Z</time>
      </trkpt>
      <trkpt lat="47.43511" lon="6.79475">
        <ele>485.2</ele>
        <time>2014-05-04T07:55:35.000Z</time>
      </trkpt>
      <trkpt lat="47.43508" lon="6.79477">
        <ele>483.5</ele>
        <time>2014-05-04T07:55:36.000Z</time>
      </trkpt>
      <trkpt lat="47.43505" lon="6.79478">
        <ele>484.4</ele>
        <time>2014-05-04T07:55:37.000Z</time>
      </trkpt>
      <trkpt lat="47.43501" lon="6.79479">
        <ele>484.1</ele>
        <time>2014-05-04T07:55:38.000Z</time>
      </trkpt>
      <trkpt lat="47.43497" lon="6.79481">
        <ele>484.7</ele>
        <time>2014-05-04T07:55:39.000Z</time>
      </trkpt>
      <trkpt lat="47.43493" lon="6.79483">
        <ele>485.8</ele>
        <time>2014-05-04T07:55:40.000Z</time>
      </trkpt>
      <trkpt lat="47.43489" lon="6.79484">
        <ele>484.9</ele>
        <time>2014-05-04T07:55:41.000Z</time>
      </trkpt>
      <trkpt lat="47.43485" lon="6.79486">
        <ele>485.6</ele>
        <time>2014-05-04T07:55:42.000Z</time>
      </trkpt>
      <trkpt lat="47.43456" lon="6.79518">
        <ele>482.1</ele>
        <time>2014-05-04T07:55:50.000Z</time>
      </trkpt>
      <trkpt lat="47.43453" lon="6.79522">
        <ele>482.7</ele>
        <time>2014-05-04T07:55:51.000Z</time>
      </trkpt>
      <trkpt lat="47.43449" lon="6.79526">
        <ele>484.4</ele>
        <time>2014-05-04T07:55:52.000Z</time>
      </trkpt>
      <trkpt lat="47.43446" lon="6.79529">
        <ele>484.5</ele>
        <time>2014-05-04T07:55:53.000Z</time>
      </trkpt>
      <trkpt lat="47.43444" lon="6.79532">
        <ele>485.4</ele>
        <time>2014-05-04T07:55:54.000Z</time>
      </trkpt>
      <trkpt lat="47.43441" lon="6.79535">
        <ele>486.2</ele>
        <time>2014-05-04T07:55:55.000Z</time>
      </trkpt>
      <trkpt lat="47.43438" lon="6.79537">
        <ele>486.7</ele>
        <time>2014-05-04T07:55:56.000Z</time>
      </trkpt>
      <trkpt lat="47.43435" lon="6.79538">
        <ele>488.3</ele>
        <time>2014-05-04T07:55:57.000Z</time>
      </trkpt>
      <trkpt lat="47.43433" lon="6.79538">
        <ele>489.3</ele>
        <time>2014-05-04T07:55:58.000Z</time>
      </trkpt>
      <trkpt lat="47.43429" lon="6.79538">
        <ele>490</ele>
        <time>2014-05-04T07:55:59.000Z</time>
      </trkpt>
      <trkpt lat="47.43426" lon="6.79537">
        <ele>490.1</ele>
        <time>2014-05-04T07:56:00.000Z</time>
      </trkpt>
      <trkpt lat="47.43423" lon="6.79536">
        <ele>489.9</ele>
        <time>2014-05-04T07:56:01.000Z</time>
      </trkpt>
      <trkpt lat="47.4342" lon="6.79534">
        <ele>490.5</ele>
        <time>2014-05-04T07:56:02.000Z</time>
      </trkpt>
      <trkpt lat="47.43417" lon="6.79531">
        <ele>489.7</ele>
        <time>2014-05-04T07:56:03.000Z</time>
      </trkpt>
      <trkpt lat="47.43413" lon="6.7953">
        <ele>489</ele>
        <time>2014-05-04T07:56:04.000Z</time>
      </trkpt>
      <trkpt lat="47.4341" lon="6.79528">
        <ele>488.4</ele>
        <time>2014-05-04T07:56:05.000Z</time>
      </trkpt>
      <trkpt lat="47.43406" lon="6.79527">
        <ele>490</ele>
        <time>2014-05-04T07:56:06.000Z</time>
      </trkpt>
      <trkpt lat="47.43402" lon="6.79527">
        <ele>487.9</ele>
        <time>2014-05-04T07:56:07.000Z</time>
      </trkpt>
      <trkpt lat="47.43397" lon="6.79527">
        <ele>482.4</ele>
        <time>2014-05-04T07:56:08.000Z</time>
      </trkpt>
      <trkpt lat="47.43392" lon="6.79527">
        <ele>481.5</ele>
        <time>2014-05-04T07:56:09.000Z</time>
      </trkpt>
      <trkpt lat="47.43389" lon="6.79528">
        <ele>481.3</ele>
        <time>2014-05-04T07:56:10.000Z</time>
      </trkpt>
      <trkpt lat="47.43386" lon="6.79528">
        <ele>482.8</ele>
        <time>2014-05-04T07:56:11.000Z</time>
      </trkpt>
      <trkpt lat="47.43383" lon="6.79529">
        <ele>485</ele>
        <time>2014-05-04T07:56:12.000Z</time>
      </trkpt>
      <trkpt lat="47.43381" lon="6.7953">
        <ele>485.9</ele>
        <time>2014-05-04T07:56:13.000Z</time>
      </trkpt>
      <trkpt lat="47.43377" lon="6.79532">
        <ele>487.7</ele>
        <time>2014-05-04T07:56:15.000Z</time>
      </trkpt>
      <trkpt lat="47.43375" lon="6.79533">
        <ele>488.2</ele>
        <time>2014-05-04T07:56:16.000Z</time>
      </trkpt>
      <trkpt lat="47.43371" lon="6.79537">
        <ele>489.1</ele>
        <time>2014-05-04T07:56:19.000Z</time>
      </trkpt>
      <trkpt lat="47.4337" lon="6.79537">
        <ele>489.4</ele>
        <time>2014-05-04T07:56:20.000Z</time>
      </trkpt>
      <trkpt lat="47.43366" lon="6.79538">
        <ele>489.1</ele>
        <time>2014-05-04T07:56:22.000Z</time>
      </trkpt>
      <trkpt lat="47.43364" lon="6.79539">
        <ele>489.9</ele>
        <time>2014-05-04T07:56:23.000Z</time>
      </trkpt>
      <trkpt lat="47.4336" lon="6.7954">
        <ele>494.3</ele>
        <time>2014-05-04T07:56:27.000Z</time>
      </trkpt>
      <trkpt lat="47.43359" lon="6.79541">
        <ele>496.4</ele>
        <time>2014-05-04T07:56:28.000Z</time>
      </trkpt>
      <trkpt lat="47.43356" lon="6.79543">
        <ele>496.6</ele>
        <time>2014-05-04T07:56:31.000Z</time>
      </trkpt>
      <trkpt lat="47.43354" lon="6.79543">
        <ele>496</ele>
        <time>2014-05-04T07:56:32.000Z</time>
      </trkpt>
      <trkpt lat="47.4335" lon="6.79545">
        <ele>495.7</ele>
        <time>2014-05-04T07:56:34.000Z</time>
      </trkpt>
      <trkpt lat="47.43347" lon="6.79546">
        <ele>496.1</ele>
        <time>2014-05-04T07:56:35.000Z</time>
      </trkpt>
      <trkpt lat="47.43344" lon="6.79547">
        <ele>496.8</ele>
        <time>2014-05-04T07:56:36.000Z</time>
      </trkpt>
      <trkpt lat="47.43341" lon="6.79549">
        <ele>495.8</ele>
        <time>2014-05-04T07:56:37.000Z</time>
      </trkpt>
      <trkpt lat="47.43338" lon="6.79552">
        <ele>495.4</ele>
        <time>2014-05-04T07:56:38.000Z</time>
      </trkpt>
      <trkpt lat="47.43336" lon="6.79553">
        <ele>496.7</ele>
        <time>2014-05-04T07:56:39.000Z</time>
      </trkpt>
      <trkpt lat="47.43333" lon="6.79553">
        <ele>496.5</ele>
        <time>2014-05-04T07:56:40.000Z</time>
      </trkpt>
      <trkpt lat="47.4333" lon="6.79554">
        <ele>495.9</ele>
        <time>2014-05-04T07:56:41.000Z</time>
      </trkpt>
      <trkpt lat="47.43327" lon="6.79554">
        <ele>496</ele>
        <time>2014-05-04T07:56:42.000Z</time>
      </trkpt>
      <trkpt lat="47.43306" lon="6.79563">
        <ele>495.9</ele>
        <time>2014-05-04T07:56:50.000Z</time>
      </trkpt>
      <trkpt lat="47.43304" lon="6.79564">
        <ele>496.5</ele>
        <time>2014-05-04T07:56:51.000Z</time>
      </trkpt>
      <trkpt lat="47.43301" lon="6.79567">
        <ele>492.7</ele>
        <time>2014-05-04T07:56:52.000Z</time>
      </trkpt>
      <trkpt lat="47.43298" lon="6.79568">
        <ele>491.6</ele>
        <time>2014-05-04T07:56:53.000Z</time>
      </trkpt>
      <trkpt lat="47.43296" lon="6.7957">
        <ele>492.3</ele>
        <time>2014-05-04T07:56:54.000Z</time>
      </trkpt>
      <trkpt lat="47.43293" lon="6.7957">
        <ele>492.3</ele>
        <time>2014-05-04T07:56:55.000Z</time>
      </trkpt>
      <trkpt lat="47.4329" lon="6.7957">
        <ele>491.9</ele>
        <time>2014-05-04T07:56:56.000Z</time>
      </trkpt>
      <trkpt lat="47.43287" lon="6.7957">
        <ele>490.6</ele>
        <time>2014-05-04T07:56:57.000Z</time>
      </trkpt>
      <trkpt lat="47.43284" lon="6.7957">
        <ele>489.5</ele>
        <time>2014-05-04T07:56:58.000Z</time>
      </trkpt>
      <trkpt lat="47.43281" lon="6.79569">
        <ele>489.1</ele>
        <time>2014-05-04T07:56:59.000Z</time>
      </trkpt>
      <trkpt lat="47.43278" lon="6.7957">
        <ele>489.8</ele>
        <time>2014-05-04T07:57:00.000Z</time>
      </trkpt>
      <trkpt lat="47.43274" lon="6.7957">
        <ele>490.8</ele>
        <time>2014-05-04T07:57:01.000Z</time>
      </trkpt>
      <trkpt lat="47.43271" lon="6.7957">
        <ele>492.4</ele>
        <time>2014-05-04T07:57:02.000Z</time>
      </trkpt>
      <trkpt lat="47.43267" lon="6.7957">
        <ele>493.3</ele>
        <time>2014-05-04T07:57:03.000Z</time>
      </trkpt>
      <trkpt lat="47.43264" lon="6.7957">
        <ele>494.2</ele>
        <time>2014-05-04T07:57:04.000Z</time>
      </trkpt>
      <trkpt lat="47.43261" lon="6.7957">
        <ele>493.8</ele>
        <time>2014-05-04T07:57:05.000Z</time>
      </trkpt>
      <trkpt lat="47.43257" lon="6.7957">
        <ele>494.8</ele>
        <time>2014-05-04T07:57:06.000Z</time>
      </trkpt>
      <trkpt lat="47.43255" lon="6.7957">
        <ele>495.9</ele>
        <time>2014-05-04T07:57:07.000Z</time>
      </trkpt>
      <trkpt lat="47.43252" lon="6.7957">
        <ele>494.1</ele>
        <time>2014-05-04T07:57:08.000Z</time>
      </trkpt>
      <trkpt lat="47.43248" lon="6.7957">
        <ele>492.8</ele>
        <time>2014-05-04T07:57:10.000Z</time>
      </trkpt>
      <trkpt lat="47.43246" lon="6.7957">
        <ele>492.2</ele>
        <time>2014-05-04T07:57:11.000Z</time>
      </trkpt>
      <trkpt lat="47.43242" lon="6.7957">
        <ele>486.6</ele>
        <time>2014-05-04T07:57:23.000Z</time>
      </trkpt>
      <trkpt lat="47.43242" lon="6.7957">
        <ele>492.7</ele>
        <time>2014-05-04T07:57:24.000Z</time>
      </trkpt>
      <trkpt lat="47.43243" lon="6.79575">
        <ele>492.3</ele>
        <time>2014-05-04T07:59:47.000Z</time>
      </trkpt>
      <trkpt lat="47.43243" lon="6.79576">
        <ele>491.7</ele>
        <time>2014-05-04T07:59:48.000Z</time>
      </trkpt>
      <trkpt lat="47.43247" lon="6.79576">
        <ele>492.5</ele>
        <time>2014-05-04T08:00:18.000Z</time>
      </trkpt>
      <trkpt lat="47.43248" lon="6.79576">
        <ele>493.2</ele>
        <time>2014-05-04T08:00:19.000Z</time>
      </trkpt>
      <trkpt lat="47.43246" lon="6.79573">
        <ele>488.3</ele>
        <time>2014-05-04T08:01:38.000Z</time>
      </trkpt>
      <trkpt lat="47.43244" lon="6.79572">
        <ele>488.9</ele>
        <time>2014-05-04T08:01:39.000Z</time>
      </trkpt>
      <trkpt lat="47.43241" lon="6.79572">
        <ele>489.2</ele>
        <time>2014-05-04T08:01:40.000Z</time>
      </trkpt>
      <trkpt lat="47.43238" lon="6.7957">
        <ele>490.1</ele>
        <time>2014-05-04T08:01:41.000Z</time>
      </trkpt>
      <trkpt lat="47.43231" lon="6.79568">
        <ele>487.7</ele>
        <time>2014-05-04T08:01:44.000Z</time>
      </trkpt>
      <trkpt lat="47.43227" lon="6.79567">
        <ele>487.3</ele>
        <time>2014-05-04T08:01:45.000Z</time>
      </trkpt>
      <trkpt lat="47.43222" lon="6.79567">
        <ele>488.3</ele>
        <time>2014-05-04T08:01:46.000Z</time>
      </trkpt>
      <trkpt lat="47.43218" lon="6.79567">
        <ele>491.5</ele>
        <time>2014-05-04T08:01:47.000Z</time>
      </trkpt>
      <trkpt lat="47.43215" lon="6.79567">
        <ele>492.2</ele>
        <time>2014-05-04T08:01:48.000Z</time>
      </trkpt>
      <trkpt lat="47.43213" lon="6.79568">
        <ele>491.6</ele>
        <time>2014-05-04T08:01:49.000Z</time>
      </trkpt>
      <trkpt lat="47.4321" lon="6.7957">
        <ele>490.7</ele>
        <time>2014-05-04T08:01:50.000Z</time>
      </trkpt>
      <trkpt lat="47.43206" lon="6.79571">
        <ele>491.3</ele>
        <time>2014-05-04T08:01:52.000Z</time>
      </trkpt>
      <trkpt lat="47.43203" lon="6.79571">
        <ele>492.4</ele>
        <time>2014-05-04T08:01:53.000Z</time>
      </trkpt>
      <trkpt lat="47.43198" lon="6.7957">
        <ele>493.6</ele>
        <time>2014-05-04T08:01:54.000Z</time>
      </trkpt>
      <trkpt lat="47.43193" lon="6.79569">
        <ele>494.1</ele>
        <time>2014-05-04T08:01:55.000Z</time>
      </trkpt>
      <trkpt lat="47.43188" lon="6.79568">
        <ele>492.2</ele>
        <time>2014-05-04T08:01:56.000Z</time>
      </trkpt>
      <trkpt lat="47.43183" lon="6.79569">
        <ele>492.6</ele>
        <time>2014-05-04T08:01:57.000Z</time>
      </trkpt>
      <trkpt lat="47.43179" lon="6.7957">
        <ele>491.7</ele>
        <time>2014-05-04T08:01:58.000Z</time>
      </trkpt>
      <trkpt lat="47.43175" lon="6.79573">
        <ele>490</ele>
        <time>2014-05-04T08:01:59.000Z</time>
      </trkpt>
      <trkpt lat="47.43171" lon="6.79576">
        <ele>489.6</ele>
        <time>2014-05-04T08:02:00.000Z</time>
      </trkpt>
      <trkpt lat="47.43169" lon="6.7958">
        <ele>489.1</ele>
        <time>2014-05-04T08:02:01.000Z</time>
      </trkpt>
      <trkpt lat="47.43167" lon="6.79584">
        <ele>487.5</ele>
        <time>2014-05-04T08:02:02.000Z</time>
      </trkpt>
      <trkpt lat="47.43164" lon="6.79589">
        <ele>487.3</ele>
        <time>2014-05-04T08:02:03.000Z</time>
      </trkpt>
      <trkpt lat="47.43162" lon="6.79593">
        <ele>486.8</ele>
        <time>2014-05-04T08:02:04.000Z</time>
      </trkpt>
      <trkpt lat="47.4316" lon="6.79597">
        <ele>486.6</ele>
        <time>2014-05-04T08:02:05.000Z</time>
      </trkpt>
      <trkpt lat="47.43158" lon="6.796">
        <ele>486.9</ele>
        <time>2014-05-04T08:02:06.000Z</time>
      </trkpt>
      <trkpt lat="47.43157" lon="6.79604">
        <ele>486.6</ele>
        <time>2014-05-04T08:02:07.000Z</time>
      </trkpt>
      <trkpt lat="47.43155" lon="6.79607">
        <ele>486</ele>
        <time>2014-05-04T08:02:08.000Z</time>
      </trkpt>
      <trkpt lat="47.43154" lon="6.7961">
        <ele>486.4</ele>
        <time>2014-05-04T08:02:09.000Z</time>
      </trkpt>
      <trkpt lat="47.43153" lon="6.79613">
        <ele>485.4</ele>
        <time>2014-05-04T08:02:10.000Z</time>
      </trkpt>
      <trkpt lat="47.43151" lon="6.79617">
        <ele>486.1</ele>
        <time>2014-05-04T08:02:12.000Z</time>
      </trkpt>
      <trkpt lat="47.4315" lon="6.79618">
        <ele>485.8</ele>
        <time>2014-05-04T08:02:13.000Z</time>
      </trkpt>
      <trkpt lat="47.43147" lon="6.79621">
        <ele>489.5</ele>
        <time>2014-05-04T08:02:16.000Z</time>
      </trkpt>
      <trkpt lat="47.43146" lon="6.79621">
        <ele>489.2</ele>
        <time>2014-05-04T08:02:17.000Z</time>
      </trkpt>
      <trkpt lat="47.43142" lon="6.79618">
        <ele>489.5</ele>
        <time>2014-05-04T08:02:19.000Z</time>
      </trkpt>
      <trkpt lat="47.4314" lon="6.79616">
        <ele>490.6</ele>
        <time>2014-05-04T08:02:20.000Z</time>
      </trkpt>
      <trkpt lat="47.43139" lon="6.79613">
        <ele>490.7</ele>
        <time>2014-05-04T08:02:21.000Z</time>
      </trkpt>
      <trkpt lat="47.43137" lon="6.79611">
        <ele>487.8</ele>
        <time>2014-05-04T08:02:22.000Z</time>
      </trkpt>
      <trkpt lat="47.43132" lon="6.7961">
        <ele>487.6</ele>
        <time>2014-05-04T08:02:24.000Z</time>
      </trkpt>
      <trkpt lat="47.4313" lon="6.79609">
        <ele>486.5</ele>
        <time>2014-05-04T08:02:25.000Z</time>
      </trkpt>
      <trkpt lat="47.43127" lon="6.79606">
        <ele>484.1</ele>
        <time>2014-05-04T08:02:28.000Z</time>
      </trkpt>
      <trkpt lat="47.43126" lon="6.79604">
        <ele>487.2</ele>
        <time>2014-05-04T08:02:29.000Z</time>
      </trkpt>
      <trkpt lat="47.43122" lon="6.79603">
        <ele>490.4</ele>
        <time>2014-05-04T08:02:32.000Z</time>
      </trkpt>
      <trkpt lat="47.4312" lon="6.79602">
        <ele>491.2</ele>
        <time>2014-05-04T08:02:33.000Z</time>
      </trkpt>
      <trkpt lat="47.43117" lon="6.79601">
        <ele>492.4</ele>
        <time>2014-05-04T08:02:34.000Z</time>
      </trkpt>
      <trkpt lat="47.43115" lon="6.796">
        <ele>493.9</ele>
        <time>2014-05-04T08:02:35.000Z</time>
      </trkpt>
      <trkpt lat="47.43112" lon="6.79599">
        <ele>492.8</ele>
        <time>2014-05-04T08:02:36.000Z</time>
      </trkpt>
      <trkpt lat="47.43109" lon="6.79598">
        <ele>492.1</ele>
        <time>2014-05-04T08:02:37.000Z</time>
      </trkpt>
      <trkpt lat="47.43106" lon="6.79598">
        <ele>492.1</ele>
        <time>2014-05-04T08:02:38.000Z</time>
      </trkpt>
      <trkpt lat="47.43103" lon="6.79598">
        <ele>492</ele>
        <time>2014-05-04T08:02:39.000Z</time>
      </trkpt>
      <trkpt lat="47.43099" lon="6.79598">
        <ele>492.6</ele>
        <time>2014-05-04T08:02:40.000Z</time>
      </trkpt>
      <trkpt lat="47.43096" lon="6.79598">
        <ele>492.7</ele>
        <time>2014-05-04T08:02:41.000Z</time>
      </trkpt>
      <trkpt lat="47.43088" lon="6.79596">
        <ele>490</ele>
        <time>2014-05-04T08:02:44.000Z</time>
      </trkpt>
      <trkpt lat="47.43086" lon="6.79595">
        <ele>491.3</ele>
        <time>2014-05-04T08:02:45.000Z</time>
      </trkpt>
      <trkpt lat="47.43083" lon="6.79595">
        <ele>490.6</ele>
        <time>2014-05-04T08:02:46.000Z</time>
      </trkpt>
      <trkpt lat="47.43081" lon="6.79596">
        <ele>489.6</ele>
        <time>2014-05-04T08:02:47.000Z</time>
      </trkpt>
      <trkpt lat="47.43078" lon="6.79596">
        <ele>489.6</ele>
        <time>2014-05-04T08:02:48.000Z</time>
      </trkpt>
      <trkpt lat="47.43075" lon="6.79596">
        <ele>489.9</ele>
        <time>2014-05-04T08:02:49.000Z</time>
      </trkpt>
      <trkpt lat="47.43073" lon="6.79595">
        <ele>498</ele>
        <time>2014-05-04T08:02:50.000Z</time>
      </trkpt>
      <trkpt lat="47.43069" lon="6.79593">
        <ele>502.1</ele>
        <time>2014-05-04T08:02:52.000Z</time>
      </trkpt>
      <trkpt lat="47.43066" lon="6.79592">
        <ele>502</ele>
        <time>2014-05-04T08:02:53.000Z</time>
      </trkpt>
      <trkpt lat="47.43063" lon="6.79592">
        <ele>501.4</ele>
        <time>2014-05-04T08:02:54.000Z</time>
      </trkpt>
      <trkpt lat="47.43059" lon="6.79592">
        <ele>501.4</ele>
        <time>2014-05-04T08:02:55.000Z</time>
      </trkpt>
      <trkpt lat="47.43055" lon="6.79593">
        <ele>503.8</ele>
        <time>2014-05-04T08:02:56.000Z</time>
      </trkpt>
      <trkpt lat="47.43051" lon="6.79592">
        <ele>505</ele>
        <time>2014-05-04T08:02:57.000Z</time>
      </trkpt>
      <trkpt lat="47.43047" lon="6.79591">
        <ele>506.6</ele>
        <time>2014-05-04T08:02:58.000Z</time>
      </trkpt>
      <trkpt lat="47.43043" lon="6.79589">
        <ele>508.3</ele>
        <time>2014-05-04T08:02:59.000Z</time>
      </trkpt>
      <trkpt lat="47.4304" lon="6.79586">
        <ele>508.7</ele>
        <time>2014-05-04T08:03:00.000Z</time>
      </trkpt>
      <trkpt lat="47.43037" lon="6.79584">
        <ele>509</ele>
        <time>2014-05-04T08:03:01.000Z</time>
      </trkpt>
      <trkpt lat="47.43034" lon="6.79582">
        <ele>508.6</ele>
        <time>2014-05-04T08:03:02.000Z</time>
      </trkpt>
      <trkpt lat="47.43031" lon="6.79581">
        <ele>506.8</ele>
        <time>2014-05-04T08:03:03.000Z</time>
      </trkpt>
      <trkpt lat="47.43028" lon="6.7958">
        <ele>505.9</ele>
        <time>2014-05-04T08:03:04.000Z</time>
      </trkpt>
      <trkpt lat="47.43025" lon="6.7958">
        <ele>504.8</ele>
        <time>2014-05-04T08:03:05.000Z</time>
      </trkpt>
      <trkpt lat="47.43022" lon="6.7958">
        <ele>504.5</ele>
        <time>2014-05-04T08:03:06.000Z</time>
      </trkpt>
      <trkpt lat="47.43019" lon="6.7958">
        <ele>505</ele>
        <time>2014-05-04T08:03:07.000Z</time>
      </trkpt>
      <trkpt lat="47.43016" lon="6.79581">
        <ele>505.7</ele>
        <time>2014-05-04T08:03:08.000Z</time>
      </trkpt>
      <trkpt lat="47.43014" lon="6.79581">
        <ele>505.8</ele>
        <time>2014-05-04T08:03:09.000Z</time>
      </trkpt>
      <trkpt lat="47.43011" lon="6.79582">
        <ele>505.9</ele>
        <time>2014-05-04T08:03:10.000Z</time>
      </trkpt>
      <trkpt lat="47.43009" lon="6.79582">
        <ele>505.8</ele>
        <time>2014-05-04T08:03:11.000Z</time>
      </trkpt>
      <trkpt lat="47.43007" lon="6.79582">
        <ele>504.4</ele>
        <time>2014-05-04T08:03:12.000Z</time>
      </trkpt>
      <trkpt lat="47.43004" lon="6.79582">
        <ele>504.4</ele>
        <time>2014-05-04T08:03:13.000Z</time>
      </trkpt>
      <trkpt lat="47.43001" lon="6.79582">
        <ele>504</ele>
        <time>2014-05-04T08:03:14.000Z</time>
      </trkpt>
      <trkpt lat="47.42998" lon="6.79583">
        <ele>504.3</ele>
        <time>2014-05-04T08:03:15.000Z</time>
      </trkpt>
      <trkpt lat="47.42995" lon="6.79584">
        <ele>503.2</ele>
        <time>2014-05-04T08:03:16.000Z</time>
      </trkpt>
      <trkpt lat="47.42992" lon="6.79586">
        <ele>503</ele>
        <time>2014-05-04T08:03:17.000Z</time>
      </trkpt>
      <trkpt lat="47.42989" lon="6.79588">
        <ele>503.1</ele>
        <time>2014-05-04T08:03:18.000Z</time>
      </trkpt>
      <trkpt lat="47.42986" lon="6.7959">
        <ele>502.3</ele>
        <time>2014-05-04T08:03:19.000Z</time>
      </trkpt>
      <trkpt lat="47.42982" lon="6.79592">
        <ele>503</ele>
        <time>2014-05-04T08:03:20.000Z</time>
      </trkpt>
      <trkpt lat="47.4298" lon="6.79592">
        <ele>503.5</ele>
        <time>2014-05-04T08:03:21.000Z</time>
      </trkpt>
      <trkpt lat="47.42976" lon="6.79592">
        <ele>509.1</ele>
        <time>2014-05-04T08:03:23.000Z</time>
      </trkpt>
      <trkpt lat="47.42974" lon="6.7959">
        <ele>511.5</ele>
        <time>2014-05-04T08:03:24.000Z</time>
      </trkpt>
      <trkpt lat="47.42972" lon="6.79589">
        <ele>509.7</ele>
        <time>2014-05-04T08:03:25.000Z</time>
      </trkpt>
      <trkpt lat="47.42969" lon="6.79588">
        <ele>509.7</ele>
        <time>2014-05-04T08:03:26.000Z</time>
      </trkpt>
      <trkpt lat="47.42967" lon="6.79587">
        <ele>510.7</ele>
        <time>2014-05-04T08:03:27.000Z</time>
      </trkpt>
      <trkpt lat="47.42964" lon="6.79587">
        <ele>510.6</ele>
        <time>2014-05-04T08:03:28.000Z</time>
      </trkpt>
      <trkpt lat="47.4296" lon="6.79586">
        <ele>510.3</ele>
        <time>2014-05-04T08:03:29.000Z</time>
      </trkpt>
      <trkpt lat="47.42957" lon="6.79587">
        <ele>512</ele>
        <time>2014-05-04T08:03:30.000Z</time>
      </trkpt>
      <trkpt lat="47.42955" lon="6.79587">
        <ele>513.4</ele>
        <time>2014-05-04T08:03:31.000Z</time>
      </trkpt>
      <trkpt lat="47.42952" lon="6.79587">
        <ele>514</ele>
        <time>2014-05-04T08:03:32.000Z</time>
      </trkpt>
      <trkpt lat="47.4295" lon="6.79588">
        <ele>514.7</ele>
        <time>2014-05-04T08:03:33.000Z</time>
      </trkpt>
      <trkpt lat="47.42947" lon="6.79588">
        <ele>514.5</ele>
        <time>2014-05-04T08:03:34.000Z</time>
      </trkpt>
      <trkpt lat="47.42944" lon="6.79588">
        <ele>514.3</ele>
        <time>2014-05-04T08:03:35.000Z</time>
      </trkpt>
      <trkpt lat="47.4294" lon="6.79589">
        <ele>512.3</ele>
        <time>2014-05-04T08:03:36.000Z</time>
      </trkpt>
      <trkpt lat="47.42936" lon="6.7959">
        <ele>512.4</ele>
        <time>2014-05-04T08:03:37.000Z</time>
      </trkpt>
      <trkpt lat="47.42931" lon="6.79591">
        <ele>512.5</ele>
        <time>2014-05-04T08:03:38.000Z</time>
      </trkpt>
      <trkpt lat="47.42926" lon="6.79592">
        <ele>512.7</ele>
        <time>2014-05-04T08:03:39.000Z</time>
      </trkpt>
      <trkpt lat="47.42921" lon="6.79592">
        <ele>512.2</ele>
        <time>2014-05-04T08:03:40.000Z</time>
      </trkpt>
      <trkpt lat="47.42916" lon="6.79592">
        <ele>512</ele>
        <time>2014-05-04T08:03:41.000Z</time>
      </trkpt>
      <trkpt lat="47.42894" lon="6.79585">
        <ele>509</ele>
        <time>2014-05-04T08:03:44.000Z</time>
      </trkpt>
      <trkpt lat="47.42888" lon="6.79585">
        <ele>508.3</ele>
        <time>2014-05-04T08:03:45.000Z</time>
      </trkpt>
      <trkpt lat="47.42884" lon="6.79582">
        <ele>509</ele>
        <time>2014-05-04T08:03:46.000Z</time>
      </trkpt>
      <trkpt lat="47.42877" lon="6.79582">
        <ele>508.5</ele>
        <time>2014-05-04T08:03:47.000Z</time>
      </trkpt>
      <trkpt lat="47.42873" lon="6.79579">
        <ele>510</ele>
        <time>2014-05-04T08:03:48.000Z</time>
      </trkpt>
      <trkpt lat="47.42868" lon="6.79576">
        <ele>509.6</ele>
        <time>2014-05-04T08:03:49.000Z</time>
      </trkpt>
      <trkpt lat="47.42863" lon="6.79578">
        <ele>509.7</ele>
        <time>2014-05-04T08:03:50.000Z</time>
      </trkpt>
      <trkpt lat="47.42859" lon="6.79578">
        <ele>509.1</ele>
        <time>2014-05-04T08:03:51.000Z</time>
      </trkpt>
      <trkpt lat="47.42851" lon="6.79577">
        <ele>508.2</ele>
        <time>2014-05-04T08:03:52.000Z</time>
      </trkpt>
      <trkpt lat="47.42844" lon="6.79575">
        <ele>508.9</ele>
        <time>2014-05-04T08:03:53.000Z</time>
      </trkpt>
      <trkpt lat="47.42837" lon="6.79577">
        <ele>509.8</ele>
        <time>2014-05-04T08:03:54.000Z</time>
      </trkpt>
      <trkpt lat="47.42828" lon="6.79578">
        <ele>508.9</ele>
        <time>2014-05-04T08:03:55.000Z</time>
      </trkpt>
      <trkpt lat="47.42824" lon="6.79578">
        <ele>507.8</ele>
        <time>2014-05-04T08:03:56.000Z</time>
      </trkpt>
      <trkpt lat="47.42819" lon="6.79578">
        <ele>507.8</ele>
        <time>2014-05-04T08:03:57.000Z</time>
      </trkpt>
      <trkpt lat="47.42816" lon="6.79577">
        <ele>506.8</ele>
        <time>2014-05-04T08:03:58.000Z</time>
      </trkpt>
      <trkpt lat="47.42811" lon="6.79577">
        <ele>506.5</ele>
        <time>2014-05-04T08:03:59.000Z</time>
      </trkpt>
      <trkpt lat="47.42809" lon="6.79576">
        <ele>506.1</ele>
        <time>2014-05-04T08:04:00.000Z</time>
      </trkpt>
      <trkpt lat="47.42801" lon="6.79574">
        <ele>507</ele>
        <time>2014-05-04T08:04:01.000Z</time>
      </trkpt>
      <trkpt lat="47.428" lon="6.79576">
        <ele>507.8</ele>
        <time>2014-05-04T08:04:02.000Z</time>
      </trkpt>
      <trkpt lat="47.42796" lon="6.79575">
        <ele>507.8</ele>
        <time>2014-05-04T08:04:03.000Z</time>
      </trkpt>
      <trkpt lat="47.42789" lon="6.79573">
        <ele>507.9</ele>
        <time>2014-05-04T08:04:04.000Z</time>
      </trkpt>
      <trkpt lat="47.42785" lon="6.79572">
        <ele>507.2</ele>
        <time>2014-05-04T08:04:06.000Z</time>
      </trkpt>
      <trkpt lat="47.42782" lon="6.79571">
        <ele>509.7</ele>
        <time>2014-05-04T08:04:07.000Z</time>
      </trkpt>
      <trkpt lat="47.42778" lon="6.79569">
        <ele>507.6</ele>
        <time>2014-05-04T08:04:08.000Z</time>
      </trkpt>
      <trkpt lat="47.42774" lon="6.79567">
        <ele>505.5</ele>
        <time>2014-05-04T08:04:09.000Z</time>
      </trkpt>
      <trkpt lat="47.4277" lon="6.79566">
        <ele>506.1</ele>
        <time>2014-05-04T08:04:10.000Z</time>
      </trkpt>
      <trkpt lat="47.42765" lon="6.79565">
        <ele>509.2</ele>
        <time>2014-05-04T08:04:11.000Z</time>
      </trkpt>
      <trkpt lat="47.42761" lon="6.79565">
        <ele>510.8</ele>
        <time>2014-05-04T08:04:12.000Z</time>
      </trkpt>
      <trkpt lat="47.42756" lon="6.79564">
        <ele>511.2</ele>
        <time>2014-05-04T08:04:13.000Z</time>
      </trkpt>
      <trkpt lat="47.42752" lon="6.79564">
        <ele>511.7</ele>
        <time>2014-05-04T08:04:14.000Z</time>
      </trkpt>
      <trkpt lat="47.42748" lon="6.79563">
        <ele>512.6</ele>
        <time>2014-05-04T08:04:15.000Z</time>
      </trkpt>
      <trkpt lat="47.42743" lon="6.79563">
        <ele>512.4</ele>
        <time>2014-05-04T08:04:16.000Z</time>
      </trkpt>
      <trkpt lat="47.4274" lon="6.79562">
        <ele>516.2</ele>
        <time>2014-05-04T08:04:17.000Z</time>
      </trkpt>
      <trkpt lat="47.42737" lon="6.7956">
        <ele>517.7</ele>
        <time>2014-05-04T08:04:18.000Z</time>
      </trkpt>
      <trkpt lat="47.42734" lon="6.79559">
        <ele>519</ele>
        <time>2014-05-04T08:04:19.000Z</time>
      </trkpt>
      <trkpt lat="47.42731" lon="6.79557">
        <ele>518.3</ele>
        <time>2014-05-04T08:04:20.000Z</time>
      </trkpt>
      <trkpt lat="47.42728" lon="6.79557">
        <ele>517.9</ele>
        <time>2014-05-04T08:04:21.000Z</time>
      </trkpt>
      <trkpt lat="47.42725" lon="6.79557">
        <ele>518.8</ele>
        <time>2014-05-04T08:04:22.000Z</time>
      </trkpt>
      <trkpt lat="47.42721" lon="6.79557">
        <ele>517.8</ele>
        <time>2014-05-04T08:04:23.000Z</time>
      </trkpt>
      <trkpt lat="47.42716" lon="6.79557">
        <ele>518.6</ele>
        <time>2014-05-04T08:04:24.000Z</time>
      </trkpt>
      <trkpt lat="47.42711" lon="6.79557">
        <ele>519.3</ele>
        <time>2014-05-04T08:04:25.000Z</time>
      </trkpt>
      <trkpt lat="47.427" lon="6.79554">
        <ele>521.8</ele>
        <time>2014-05-04T08:04:26.000Z</time>
      </trkpt>
      <trkpt lat="47.42694" lon="6.79551">
        <ele>521.1</ele>
        <time>2014-05-04T08:04:27.000Z</time>
      </trkpt>
      <trkpt lat="47.42689" lon="6.79549">
        <ele>520.1</ele>
        <time>2014-05-04T08:04:28.000Z</time>
      </trkpt>
      <trkpt lat="47.42686" lon="6.79547">
        <ele>519.5</ele>
        <time>2014-05-04T08:04:29.000Z</time>
      </trkpt>
      <trkpt lat="47.42682" lon="6.79548">
        <ele>520.1</ele>
        <time>2014-05-04T08:04:30.000Z</time>
      </trkpt>
      <trkpt lat="47.4268" lon="6.79544">
        <ele>519.7</ele>
        <time>2014-05-04T08:04:31.000Z</time>
      </trkpt>
      <trkpt lat="47.42677" lon="6.79542">
        <ele>518.5</ele>
        <time>2014-05-04T08:04:32.000Z</time>
      </trkpt>
      <trkpt lat="47.4267" lon="6.79543">
        <ele>517.2</ele>
        <time>2014-05-04T08:04:33.000Z</time>
      </trkpt>
      <trkpt lat="47.42666" lon="6.79542">
        <ele>517.3</ele>
        <time>2014-05-04T08:04:34.000Z</time>
      </trkpt>
      <trkpt lat="47.42663" lon="6.79541">
        <ele>515.9</ele>
        <time>2014-05-04T08:04:35.000Z</time>
      </trkpt>
      <trkpt lat="47.42659" lon="6.79541">
        <ele>515.5</ele>
        <time>2014-05-04T08:04:36.000Z</time>
      </trkpt>
      <trkpt lat="47.42657" lon="6.79541">
        <ele>516.1</ele>
        <time>2014-05-04T08:04:37.000Z</time>
      </trkpt>
      <trkpt lat="47.42654" lon="6.79542">
        <ele>516.5</ele>
        <time>2014-05-04T08:04:39.000Z</time>
      </trkpt>
      <trkpt lat="47.42652" lon="6.79542">
        <ele>518.3</ele>
        <time>2014-05-04T08:04:40.000Z</time>
      </trkpt>
      <trkpt lat="47.4265" lon="6.79543">
        <ele>517.9</ele>
        <time>2014-05-04T08:04:41.000Z</time>
      </trkpt>
      <trkpt lat="47.42612" lon="6.79537">
        <ele>516.2</ele>
        <time>2014-05-04T08:04:50.000Z</time>
      </trkpt>
      <trkpt lat="47.42608" lon="6.79539">
        <ele>514.6</ele>
        <time>2014-05-04T08:04:51.000Z</time>
      </trkpt>
      <trkpt lat="47.42604" lon="6.7954">
        <ele>513.8</ele>
        <time>2014-05-04T08:04:52.000Z</time>
      </trkpt>
      <trkpt lat="47.42601" lon="6.79541">
        <ele>513.7</ele>
        <time>2014-05-04T08:04:53.000Z</time>
      </trkpt>
      <trkpt lat="47.42599" lon="6.79542">
        <ele>513.5</ele>
        <time>2014-05-04T08:04:54.000Z</time>
      </trkpt>
      <trkpt lat="47.42595" lon="6.79539">
        <ele>523.5</ele>
        <time>2014-05-04T08:04:57.000Z</time>
      </trkpt>
      <trkpt lat="47.42594" lon="6.79538">
        <ele>524.3</ele>
        <time>2014-05-04T08:04:58.000Z</time>
      </trkpt>
      <trkpt lat="47.42591" lon="6.79535">
        <ele>525.8</ele>
        <time>2014-05-04T08:05:01.000Z</time>
      </trkpt>
      <trkpt lat="47.42589" lon="6.79534">
        <ele>524.9</ele>
        <time>2014-05-04T08:05:02.000Z</time>
      </trkpt>
      <trkpt lat="47.42585" lon="6.79535">
        <ele>523.3</ele>
        <time>2014-05-04T08:05:04.000Z</time>
      </trkpt>
      <trkpt lat="47.42583" lon="6.79536">
        <ele>524</ele>
        <time>2014-05-04T08:05:05.000Z</time>
      </trkpt>
      <trkpt lat="47.42581" lon="6.79537">
        <ele>523.6</ele>
        <time>2014-05-04T08:05:06.000Z</time>
      </trkpt>
      <trkpt lat="47.42578" lon="6.79538">
        <ele>523.3</ele>
        <time>2014-05-04T08:05:07.000Z</time>
      </trkpt>
      <trkpt lat="47.42576" lon="6.79539">
        <ele>523.3</ele>
        <time>2014-05-04T08:05:08.000Z</time>
      </trkpt>
      <trkpt lat="47.42573" lon="6.7954">
        <ele>522.8</ele>
        <time>2014-05-04T08:05:09.000Z</time>
      </trkpt>
      <trkpt lat="47.42571" lon="6.79541">
        <ele>522.8</ele>
        <time>2014-05-04T08:05:10.000Z</time>
      </trkpt>
      <trkpt lat="47.42568" lon="6.79542">
        <ele>520.1</ele>
        <time>2014-05-04T08:05:11.000Z</time>
      </trkpt>
      <trkpt lat="47.42565" lon="6.79543">
        <ele>520.5</ele>
        <time>2014-05-04T08:05:12.000Z</time>
      </trkpt>
      <trkpt lat="47.42562" lon="6.79543">
        <ele>520.8</ele>
        <time>2014-05-04T08:05:13.000Z</time>
      </trkpt>
      <trkpt lat="47.42559" lon="6.79544">
        <ele>520.4</ele>
        <time>2014-05-04T08:05:14.000Z</time>
      </trkpt>
      <trkpt lat="47.42556" lon="6.79545">
        <ele>518.8</ele>
        <time>2014-05-04T08:05:15.000Z</time>
      </trkpt>
      <trkpt lat="47.42552" lon="6.79545">
        <ele>518.4</ele>
        <time>2014-05-04T08:05:16.000Z</time>
      </trkpt>
      <trkpt lat="47.42549" lon="6.79546">
        <ele>518.1</ele>
        <time>2014-05-04T08:05:17.000Z</time>
      </trkpt>
      <trkpt lat="47.42545" lon="6.79545">
        <ele>522.2</ele>
        <time>2014-05-04T08:05:19.000Z</time>
      </trkpt>
      <trkpt lat="47.42543" lon="6.79545">
        <ele>521.7</ele>
        <time>2014-05-04T08:05:20.000Z</time>
      </trkpt>
      <trkpt lat="47.4254" lon="6.79541">
        <ele>520.8</ele>
        <time>2014-05-04T08:05:22.000Z</time>
      </trkpt>
      <trkpt lat="47.42538" lon="6.7954">
        <ele>520.2</ele>
        <time>2014-05-04T08:05:23.000Z</time>
      </trkpt>
      <trkpt lat="47.42534" lon="6.79541">
        <ele>518.7</ele>
        <time>2014-05-04T08:05:25.000Z</time>
      </trkpt>
      <trkpt lat="47.42531" lon="6.79542">
        <ele>519.6</ele>
        <time>2014-05-04T08:05:26.000Z</time>
      </trkpt>
      <trkpt lat="47.42529" lon="6.79543">
        <ele>519.1</ele>
        <time>2014-05-04T08:05:27.000Z</time>
      </trkpt>
      <trkpt lat="47.42526" lon="6.79543">
        <ele>520.7</ele>
        <time>2014-05-04T08:05:28.000Z</time>
      </trkpt>
      <trkpt lat="47.42523" lon="6.79542">
        <ele>518.7</ele>
        <time>2014-05-04T08:05:29.000Z</time>
      </trkpt>
      <trkpt lat="47.4252" lon="6.79541">
        <ele>520.1</ele>
        <time>2014-05-04T08:05:30.000Z</time>
      </trkpt>
      <trkpt lat="47.42517" lon="6.7954">
        <ele>519.1</ele>
        <time>2014-05-04T08:05:31.000Z</time>
      </trkpt>
      <trkpt lat="47.42514" lon="6.79539">
        <ele>518.9</ele>
        <time>2014-05-04T08:05:32.000Z</time>
      </trkpt>
      <trkpt lat="47.42511" lon="6.79538">
        <ele>517.7</ele>
        <time>2014-05-04T08:05:33.000Z</time>
      </trkpt>
      <trkpt lat="47.42507" lon="6.79537">
        <ele>515.8</ele>
        <time>2014-05-04T08:05:34.000Z</time>
      </trkpt>
      <trkpt lat="47.42503" lon="6.79537">
        <ele>515.4</ele>
        <time>2014-05-04T08:05:35.000Z</time>
      </trkpt>
      <trkpt lat="47.42499" lon="6.79536">
        <ele>514</ele>
        <time>2014-05-04T08:05:36.000Z</time>
      </trkpt>
      <trkpt lat="47.42495" lon="6.79536">
        <ele>512.7</ele>
        <time>2014-05-04T08:05:37.000Z</time>
      </trkpt>
      <trkpt lat="47.42491" lon="6.79535">
        <ele>513</ele>
        <time>2014-05-04T08:05:38.000Z</time>
      </trkpt>
      <trkpt lat="47.42488" lon="6.79535">
        <ele>515.9</ele>
        <time>2014-05-04T08:05:39.000Z</time>
      </trkpt>
      <trkpt lat="47.42484" lon="6.79534">
        <ele>514.7</ele>
        <time>2014-05-04T08:05:40.000Z</time>
      </trkpt>
      <trkpt lat="47.42481" lon="6.79533">
        <ele>514.3</ele>
        <time>2014-05-04T08:05:41.000Z</time>
      </trkpt>
      <trkpt lat="47.42478" lon="6.79532">
        <ele>515.2</ele>
        <time>2014-05-04T08:05:42.000Z</time>
      </trkpt>
      <trkpt lat="47.4246" lon="6.79522">
        <ele>516.7</ele>
        <time>2014-05-04T08:05:50.000Z</time>
      </trkpt>
      <trkpt lat="47.42456" lon="6.79521">
        <ele>514.6</ele>
        <time>2014-05-04T08:05:51.000Z</time>
      </trkpt>
      <trkpt lat="47.42451" lon="6.7952">
        <ele>515.2</ele>
        <time>2014-05-04T08:05:52.000Z</time>
      </trkpt>
      <trkpt lat="47.42447" lon="6.79519">
        <ele>514.4</ele>
        <time>2014-05-04T08:05:53.000Z</time>
      </trkpt>
      <trkpt lat="47.42442" lon="6.79519">
        <ele>510.4</ele>
        <time>2014-05-04T08:05:54.000Z</time>
      </trkpt>
      <trkpt lat="47.42438" lon="6.79519">
        <ele>510.2</ele>
        <time>2014-05-04T08:05:55.000Z</time>
      </trkpt>
      <trkpt lat="47.42435" lon="6.79518">
        <ele>510</ele>
        <time>2014-05-04T08:05:56.000Z</time>
      </trkpt>
      <trkpt lat="47.42432" lon="6.79518">
        <ele>506.8</ele>
        <time>2014-05-04T08:05:57.000Z</time>
      </trkpt>
      <trkpt lat="47.4243" lon="6.79518">
        <ele>505.9</ele>
        <time>2014-05-04T08:05:58.000Z</time>
      </trkpt>
      <trkpt lat="47.42426" lon="6.79517">
        <ele>505</ele>
        <time>2014-05-04T08:06:00.000Z</time>
      </trkpt>
      <trkpt lat="47.42423" lon="6.79518">
        <ele>504.4</ele>
        <time>2014-05-04T08:06:01.000Z</time>
      </trkpt>
      <trkpt lat="47.42419" lon="6.79518">
        <ele>505.7</ele>
        <time>2014-05-04T08:06:03.000Z</time>
      </trkpt>
      <trkpt lat="47.42417" lon="6.79518">
        <ele>505.6</ele>
        <time>2014-05-04T08:06:04.000Z</time>
      </trkpt>
      <trkpt lat="47.42413" lon="6.79517">
        <ele>504.3</ele>
        <time>2014-05-04T08:06:07.000Z</time>
      </trkpt>
      <trkpt lat="47.42411" lon="6.79516">
        <ele>506.5</ele>
        <time>2014-05-04T08:06:08.000Z</time>
      </trkpt>
      <trkpt lat="47.42408" lon="6.79514">
        <ele>507.4</ele>
        <time>2014-05-04T08:06:10.000Z</time>
      </trkpt>
      <trkpt lat="47.42405" lon="6.79514">
        <ele>506.3</ele>
        <time>2014-05-04T08:06:11.000Z</time>
      </trkpt>
      <trkpt lat="47.42403" lon="6.79513">
        <ele>505.3</ele>
        <time>2014-05-04T08:06:12.000Z</time>
      </trkpt>
      <trkpt lat="47.424" lon="6.79513">
        <ele>505.6</ele>
        <time>2014-05-04T08:06:13.000Z</time>
      </trkpt>
      <trkpt lat="47.42397" lon="6.79513">
        <ele>504.3</ele>
        <time>2014-05-04T08:06:14.000Z</time>
      </trkpt>
      <trkpt lat="47.42394" lon="6.79513">
        <ele>503.3</ele>
        <time>2014-05-04T08:06:15.000Z</time>
      </trkpt>
      <trkpt lat="47.42391" lon="6.79513">
        <ele>503.7</ele>
        <time>2014-05-04T08:06:16.000Z</time>
      </trkpt>
      <trkpt lat="47.42388" lon="6.79513">
        <ele>503</ele>
        <time>2014-05-04T08:06:17.000Z</time>
      </trkpt>
      <trkpt lat="47.42385" lon="6.79512">
        <ele>502.1</ele>
        <time>2014-05-04T08:06:19.000Z</time>
      </trkpt>
      <trkpt lat="47.42384" lon="6.79512">
        <ele>503.1</ele>
        <time>2014-05-04T08:06:20.000Z</time>
      </trkpt>
      <trkpt lat="47.42379" lon="6.7951">
        <ele>505.9</ele>
        <time>2014-05-04T08:06:26.000Z</time>
      </trkpt>
      <trkpt lat="47.42378" lon="6.79511">
        <ele>506.4</ele>
        <time>2014-05-04T08:06:27.000Z</time>
      </trkpt>
      <trkpt lat="47.42375" lon="6.79511">
        <ele>510.3</ele>
        <time>2014-05-04T08:06:29.000Z</time>
      </trkpt>
      <trkpt lat="47.42373" lon="6.79511">
        <ele>512.3</ele>
        <time>2014-05-04T08:06:30.000Z</time>
      </trkpt>
      <trkpt lat="47.42369" lon="6.79509">
        <ele>512.8</ele>
        <time>2014-05-04T08:06:33.000Z</time>
      </trkpt>
      <trkpt lat="47.42367" lon="6.79508">
        <ele>512.3</ele>
        <time>2014-05-04T08:06:34.000Z</time>
      </trkpt>
      <trkpt lat="47.42365" lon="6.79507">
        <ele>511.9</ele>
        <time>2014-05-04T08:06:35.000Z</time>
      </trkpt>
      <trkpt lat="47.42361" lon="6.79505">
        <ele>513.7</ele>
        <time>2014-05-04T08:06:36.000Z</time>
      </trkpt>
      <trkpt lat="47.42357" lon="6.79503">
        <ele>512.2</ele>
        <time>2014-05-04T08:06:37.000Z</time>
      </trkpt>
      <trkpt lat="47.42352" lon="6.79502">
        <ele>512.3</ele>
        <time>2014-05-04T08:06:38.000Z</time>
      </trkpt>
      <trkpt lat="47.42347" lon="6.795">
        <ele>510.2</ele>
        <time>2014-05-04T08:06:39.000Z</time>
      </trkpt>
      <trkpt lat="47.42343" lon="6.79499">
        <ele>510</ele>
        <time>2014-05-04T08:06:40.000Z</time>
      </trkpt>
      <trkpt lat="47.42339" lon="6.79498">
        <ele>509.4</ele>
        <time>2014-05-04T08:06:41.000Z</time>
      </trkpt>
      <trkpt lat="47.42328" lon="6.79498">
        <ele>503</ele>
        <time>2014-05-04T08:06:44.000Z</time>
      </trkpt>
      <trkpt lat="47.42325" lon="6.79499">
        <ele>502.2</ele>
        <time>2014-05-04T08:06:45.000Z</time>
      </trkpt>
      <trkpt lat="47.4232" lon="6.79498">
        <ele>501.4</ele>
        <time>2014-05-04T08:06:46.000Z</time>
      </trkpt>
      <trkpt lat="47.42316" lon="6.79497">
        <ele>499.8</ele>
        <time>2014-05-04T08:06:47.000Z</time>
      </trkpt>
      <trkpt lat="47.42313" lon="6.79498">
        <ele>499.2</ele>
        <time>2014-05-04T08:06:48.000Z</time>
      </trkpt>
      <trkpt lat="47.4231" lon="6.79497">
        <ele>499.4</ele>
        <time>2014-05-04T08:06:49.000Z</time>
      </trkpt>
      <trkpt lat="47.42307" lon="6.79497">
        <ele>499.3</ele>
        <time>2014-05-04T08:06:50.000Z</time>
      </trkpt>
      <trkpt lat="47.42304" lon="6.79497">
        <ele>499.7</ele>
        <time>2014-05-04T08:06:51.000Z</time>
      </trkpt>
      <trkpt lat="47.42301" lon="6.79496">
        <ele>499.2</ele>
        <time>2014-05-04T08:06:52.000Z</time>
      </trkpt>
      <trkpt lat="47.42298" lon="6.79495">
        <ele>498.3</ele>
        <time>2014-05-04T08:06:53.000Z</time>
      </trkpt>
      <trkpt lat="47.42294" lon="6.79493">
        <ele>497.4</ele>
        <time>2014-05-04T08:06:54.000Z</time>
      </trkpt>
      <trkpt lat="47.4229" lon="6.79492">
        <ele>496.9</ele>
        <time>2014-05-04T08:06:55.000Z</time>
      </trkpt>
      <trkpt lat="47.42286" lon="6.7949">
        <ele>496.7</ele>
        <time>2014-05-04T08:06:56.000Z</time>
      </trkpt>
      <trkpt lat="47.42276" lon="6.79481">
        <ele>503.6</ele>
        <time>2014-05-04T08:06:57.000Z</time>
      </trkpt>
      <trkpt lat="47.42273" lon="6.79479">
        <ele>505.8</ele>
        <time>2014-05-04T08:06:58.000Z</time>
      </trkpt>
      <trkpt lat="47.4227" lon="6.79477">
        <ele>506.3</ele>
        <time>2014-05-04T08:06:59.000Z</time>
      </trkpt>
      <trkpt lat="47.42264" lon="6.79479">
        <ele>505.5</ele>
        <time>2014-05-04T08:07:00.000Z</time>
      </trkpt>
      <trkpt lat="47.4226" lon="6.79479">
        <ele>506.1</ele>
        <time>2014-05-04T08:07:01.001Z</time>
      </trkpt>
      <trkpt lat="47.42258" lon="6.79477">
        <ele>503</ele>
        <time>2014-05-04T08:07:02.000Z</time>
      </trkpt>
      <trkpt lat="47.42254" lon="6.79476">
        <ele>501.6</ele>
        <time>2014-05-04T08:07:03.000Z</time>
      </trkpt>
      <trkpt lat="47.4225" lon="6.79478">
        <ele>500.8</ele>
        <time>2014-05-04T08:07:04.000Z</time>
      </trkpt>
      <trkpt lat="47.42246" lon="6.79478">
        <ele>499.9</ele>
        <time>2014-05-04T08:07:05.000Z</time>
      </trkpt>
      <trkpt lat="47.42243" lon="6.79479">
        <ele>498.8</ele>
        <time>2014-05-04T08:07:06.000Z</time>
      </trkpt>
      <trkpt lat="47.42239" lon="6.79478">
        <ele>496.8</ele>
        <time>2014-05-04T08:07:07.000Z</time>
      </trkpt>
      <trkpt lat="47.42235" lon="6.79479">
        <ele>494.4</ele>
        <time>2014-05-04T08:07:08.000Z</time>
      </trkpt>
      <trkpt lat="47.42232" lon="6.79478">
        <ele>494</ele>
        <time>2014-05-04T08:07:09.000Z</time>
      </trkpt>
      <trkpt lat="47.42228" lon="6.79478">
        <ele>492.8</ele>
        <time>2014-05-04T08:07:10.000Z</time>
      </trkpt>
      <trkpt lat="47.42225" lon="6.79478">
        <ele>494</ele>
        <time>2014-05-04T08:07:11.000Z</time>
      </trkpt>
      <trkpt lat="47.42222" lon="6.79478">
        <ele>493.8</ele>
        <time>2014-05-04T08:07:12.000Z</time>
      </trkpt>
      <trkpt lat="47.42219" lon="6.79478">
        <ele>491.9</ele>
        <time>2014-05-04T08:07:13.000Z</time>
      </trkpt>
      <trkpt lat="47.42217" lon="6.79477">
        <ele>491.5</ele>
        <time>2014-05-04T08:07:14.000Z</time>
      </trkpt>
      <trkpt lat="47.42213" lon="6.79478">
        <ele>491.9</ele>
        <time>2014-05-04T08:07:17.000Z</time>
      </trkpt>
      <trkpt lat="47.42212" lon="6.79478">
        <ele>491.5</ele>
        <time>2014-05-04T08:07:18.000Z</time>
      </trkpt>
      <trkpt lat="47.42209" lon="6.7948">
        <ele>490.4</ele>
        <time>2014-05-04T08:07:20.000Z</time>
      </trkpt>
      <trkpt lat="47.42206" lon="6.7948">
        <ele>489.9</ele>
        <time>2014-05-04T08:07:21.000Z</time>
      </trkpt>
      <trkpt lat="47.42204" lon="6.79481">
        <ele>489.1</ele>
        <time>2014-05-04T08:07:22.000Z</time>
      </trkpt>
      <trkpt lat="47.42202" lon="6.79481">
        <ele>491</ele>
        <time>2014-05-04T08:07:23.000Z</time>
      </trkpt>
      <trkpt lat="47.42198" lon="6.79481">
        <ele>490</ele>
        <time>2014-05-04T08:07:25.000Z</time>
      </trkpt>
      <trkpt lat="47.42195" lon="6.79481">
        <ele>489.6</ele>
        <time>2014-05-04T08:07:26.000Z</time>
      </trkpt>
      <trkpt lat="47.42193" lon="6.79481">
        <ele>489.1</ele>
        <time>2014-05-04T08:07:27.000Z</time>
      </trkpt>
      <trkpt lat="47.4219" lon="6.79481">
        <ele>488.7</ele>
        <time>2014-05-04T08:07:28.000Z</time>
      </trkpt>
      <trkpt lat="47.42187" lon="6.79482">
        <ele>483.6</ele>
        <time>2014-05-04T08:07:29.000Z</time>
      </trkpt>
      <trkpt lat="47.42184" lon="6.79483">
        <ele>481.7</ele>
        <time>2014-05-04T08:07:30.000Z</time>
      </trkpt>
      <trkpt lat="47.42181" lon="6.79485">
        <ele>480.4</ele>
        <time>2014-05-04T08:07:31.000Z</time>
      </trkpt>
      <trkpt lat="47.42179" lon="6.79487">
        <ele>478.2</ele>
        <time>2014-05-04T08:07:32.000Z</time>
      </trkpt>
      <trkpt lat="47.42176" lon="6.79489">
        <ele>477.4</ele>
        <time>2014-05-04T08:07:33.000Z</time>
      </trkpt>
      <trkpt lat="47.42173" lon="6.79491">
        <ele>476.4</ele>
        <time>2014-05-04T08:07:34.000Z</time>
      </trkpt>
      <trkpt lat="47.42171" lon="6.79492">
        <ele>476</ele>
        <time>2014-05-04T08:07:35.000Z</time>
      </trkpt>
      <trkpt lat="47.42168" lon="6.79493">
        <ele>476.1</ele>
        <time>2014-05-04T08:07:36.000Z</time>
      </trkpt>
      <trkpt lat="47.42166" lon="6.79493">
        <ele>475.7</ele>
        <time>2014-05-04T08:07:37.000Z</time>
      </trkpt>
      <trkpt lat="47.42163" lon="6.79493">
        <ele>474.5</ele>
        <time>2014-05-04T08:07:38.000Z</time>
      </trkpt>
      <trkpt lat="47.42161" lon="6.79494">
        <ele>472.5</ele>
        <time>2014-05-04T08:07:39.000Z</time>
      </trkpt>
      <trkpt lat="47.42158" lon="6.79494">
        <ele>473.5</ele>
        <time>2014-05-04T08:07:40.000Z</time>
      </trkpt>
      <trkpt lat="47.42155" lon="6.79493">
        <ele>474.6</ele>
        <time>2014-05-04T08:07:41.000Z</time>
      </trkpt>
      <trkpt lat="47.42152" lon="6.79492">
        <ele>474.2</ele>
        <time>2014-05-04T08:07:42.000Z</time>
      </trkpt>
      <trkpt lat="47.42134" lon="6.79489">
        <ele>470.4</ele>
        <time>2014-05-04T08:07:50.000Z</time>
      </trkpt>
      <trkpt lat="47.42132" lon="6.79489">
        <ele>472.3</ele>
        <time>2014-05-04T08:07:51.000Z</time>
      </trkpt>
      <trkpt lat="47.42129" lon="6.79488">
        <ele>471.4</ele>
        <time>2014-05-04T08:07:52.000Z</time>
      </trkpt>
      <trkpt lat="47.42126" lon="6.79489">
        <ele>471.7</ele>
        <time>2014-05-04T08:07:53.000Z</time>
      </trkpt>
      <trkpt lat="47.42123" lon="6.79489">
        <ele>471</ele>
        <time>2014-05-04T08:07:54.000Z</time>
      </trkpt>
      <trkpt lat="47.42121" lon="6.79488">
        <ele>473.9</ele>
        <time>2014-05-04T08:07:55.000Z</time>
      </trkpt>
      <trkpt lat="47.42119" lon="6.79488">
        <ele>472.8</ele>
        <time>2014-05-04T08:07:56.000Z</time>
      </trkpt>
      <trkpt lat="47.42116" lon="6.79488">
        <ele>475.5</ele>
        <time>2014-05-04T08:07:57.000Z</time>
      </trkpt>
      <trkpt lat="47.42114" lon="6.79487">
        <ele>475.4</ele>
        <time>2014-05-04T08:07:58.000Z</time>
      </trkpt>
      <trkpt lat="47.4211" lon="6.79487">
        <ele>476.2</ele>
        <time>2014-05-04T08:08:00.000Z</time>
      </trkpt>
      <trkpt lat="47.42108" lon="6.79487">
        <ele>478.3</ele>
        <time>2014-05-04T08:08:01.000Z</time>
      </trkpt>
      <trkpt lat="47.42104" lon="6.79488">
        <ele>479.2</ele>
        <time>2014-05-04T08:08:03.000Z</time>
      </trkpt>
      <trkpt lat="47.42102" lon="6.79488">
        <ele>479.4</ele>
        <time>2014-05-04T08:08:04.000Z</time>
      </trkpt>
      <trkpt lat="47.42098" lon="6.7949">
        <ele>476.8</ele>
        <time>2014-05-04T08:08:06.000Z</time>
      </trkpt>
      <trkpt lat="47.42096" lon="6.79491">
        <ele>477.2</ele>
        <time>2014-05-04T08:08:07.000Z</time>
      </trkpt>
      <trkpt lat="47.42091" lon="6.79491">
        <ele>479.5</ele>
        <time>2014-05-04T08:08:10.000Z</time>
      </trkpt>
      <trkpt lat="47.4209" lon="6.79491">
        <ele>479.5</ele>
        <time>2014-05-04T08:08:11.000Z</time>
      </trkpt>
      <trkpt lat="47.42086" lon="6.7949">
        <ele>481.5</ele>
        <time>2014-05-04T08:08:14.000Z</time>
      </trkpt>
      <trkpt lat="47.42084" lon="6.79491">
        <ele>481.3</ele>
        <time>2014-05-04T08:08:15.000Z</time>
      </trkpt>
      <trkpt lat="47.42081" lon="6.79494">
        <ele>481.1</ele>
        <time>2014-05-04T08:08:18.000Z</time>
      </trkpt>
      <trkpt lat="47.42079" lon="6.79494">
        <ele>480.8</ele>
        <time>2014-05-04T08:08:19.000Z</time>
      </trkpt>
      <trkpt lat="47.42076" lon="6.79496">
        <ele>480.1</ele>
        <time>2014-05-04T08:08:21.000Z</time>
      </trkpt>
      <trkpt lat="47.42074" lon="6.79497">
        <ele>479.6</ele>
        <time>2014-05-04T08:08:22.000Z</time>
      </trkpt>
      <trkpt lat="47.42071" lon="6.79497">
        <ele>479.9</ele>
        <time>2014-05-04T08:08:23.000Z</time>
      </trkpt>
      <trkpt lat="47.42068" lon="6.79499">
        <ele>480.8</ele>
        <time>2014-05-04T08:08:24.000Z</time>
      </trkpt>
      <trkpt lat="47.42066" lon="6.795">
        <ele>481.9</ele>
        <time>2014-05-04T08:08:25.000Z</time>
      </trkpt>
      <trkpt lat="47.42063" lon="6.79501">
        <ele>483.1</ele>
        <time>2014-05-04T08:08:26.000Z</time>
      </trkpt>
      <trkpt lat="47.4206" lon="6.79504">
        <ele>481.8</ele>
        <time>2014-05-04T08:08:28.000Z</time>
      </trkpt>
      <trkpt lat="47.42059" lon="6.79506">
        <ele>482.2</ele>
        <time>2014-05-04T08:08:29.000Z</time>
      </trkpt>
      <trkpt lat="47.42056" lon="6.79508">
        <ele>485.2</ele>
        <time>2014-05-04T08:08:31.000Z</time>
      </trkpt>
      <trkpt lat="47.42054" lon="6.79509">
        <ele>485.4</ele>
        <time>2014-05-04T08:08:32.000Z</time>
      </trkpt>
      <trkpt lat="47.42051" lon="6.7951">
        <ele>484.6</ele>
        <time>2014-05-04T08:08:33.000Z</time>
      </trkpt>
      <trkpt lat="47.42049" lon="6.7951">
        <ele>485.3</ele>
        <time>2014-05-04T08:08:34.000Z</time>
      </trkpt>
      <trkpt lat="47.42046" lon="6.7951">
        <ele>485.6</ele>
        <time>2014-05-04T08:08:35.000Z</time>
      </trkpt>
      <trkpt lat="47.42044" lon="6.7951">
        <ele>489.2</ele>
        <time>2014-05-04T08:08:36.000Z</time>
      </trkpt>
      <trkpt lat="47.42041" lon="6.79509">
        <ele>492.2</ele>
        <time>2014-05-04T08:08:37.000Z</time>
      </trkpt>
      <trkpt lat="47.42039" lon="6.79508">
        <ele>494</ele>
        <time>2014-05-04T08:08:38.000Z</time>
      </trkpt>
      <trkpt lat="47.42036" lon="6.79505">
        <ele>494</ele>
        <time>2014-05-04T08:08:40.000Z</time>
      </trkpt>
      <trkpt lat="47.42035" lon="6.79504">
        <ele>495.2</ele>
        <time>2014-05-04T08:08:41.000Z</time>
      </trkpt>
      <trkpt lat="47.42031" lon="6.79503">
        <ele>491.1</ele>
        <time>2014-05-04T08:08:44.000Z</time>
      </trkpt>
      <trkpt lat="47.42028" lon="6.79503">
        <ele>491.2</ele>
        <time>2014-05-04T08:08:45.000Z</time>
      </trkpt>
      <trkpt lat="47.42025" lon="6.79504">
        <ele>490.8</ele>
        <time>2014-05-04T08:08:46.000Z</time>
      </trkpt>
      <trkpt lat="47.42022" lon="6.79504">
        <ele>491.4</ele>
        <time>2014-05-04T08:08:47.000Z</time>
      </trkpt>
      <trkpt lat="47.42019" lon="6.79504">
        <ele>492.5</ele>
        <time>2014-05-04T08:08:48.000Z</time>
      </trkpt>
      <trkpt lat="47.42016" lon="6.79505">
        <ele>492.2</ele>
        <time>2014-05-04T08:08:49.000Z</time>
      </trkpt>
      <trkpt lat="47.42013" lon="6.79505">
        <ele>493.1</ele>
        <time>2014-05-04T08:08:50.000Z</time>
      </trkpt>
      <trkpt lat="47.4201" lon="6.79506">
        <ele>493.4</ele>
        <time>2014-05-04T08:08:51.000Z</time>
      </trkpt>
      <trkpt lat="47.42007" lon="6.79506">
        <ele>492.6</ele>
        <time>2014-05-04T08:08:52.000Z</time>
      </trkpt>
      <trkpt lat="47.42004" lon="6.79507">
        <ele>492.6</ele>
        <time>2014-05-04T08:08:53.000Z</time>
      </trkpt>
      <trkpt lat="47.42" lon="6.79507">
        <ele>490.8</ele>
        <time>2014-05-04T08:08:54.000Z</time>
      </trkpt>
      <trkpt lat="47.41997" lon="6.79508">
        <ele>489.4</ele>
        <time>2014-05-04T08:08:55.000Z</time>
      </trkpt>
      <trkpt lat="47.41993" lon="6.79509">
        <ele>488.2</ele>
        <time>2014-05-04T08:08:56.000Z</time>
      </trkpt>
      <trkpt lat="47.41991" lon="6.79511">
        <ele>488.1</ele>
        <time>2014-05-04T08:08:57.000Z</time>
      </trkpt>
      <trkpt lat="47.41988" lon="6.79513">
        <ele>487.8</ele>
        <time>2014-05-04T08:08:58.000Z</time>
      </trkpt>
      <trkpt lat="47.41985" lon="6.79516">
        <ele>486.6</ele>
        <time>2014-05-04T08:08:59.000Z</time>
      </trkpt>
      <trkpt lat="47.41983" lon="6.79518">
        <ele>485.5</ele>
        <time>2014-05-04T08:09:00.000Z</time>
      </trkpt>
      <trkpt lat="47.41981" lon="6.79522">
        <ele>484.2</ele>
        <time>2014-05-04T08:09:01.000Z</time>
      </trkpt>
      <trkpt lat="47.41979" lon="6.79525">
        <ele>483.2</ele>
        <time>2014-05-04T08:09:02.000Z</time>
      </trkpt>
      <trkpt lat="47.41977" lon="6.79528">
        <ele>482</ele>
        <time>2014-05-04T08:09:03.000Z</time>
      </trkpt>
      <trkpt lat="47.41974" lon="6.79531">
        <ele>482.1</ele>
        <time>2014-05-04T08:09:04.000Z</time>
      </trkpt>
      <trkpt lat="47.41971" lon="6.79533">
        <ele>482</ele>
        <time>2014-05-04T08:09:05.000Z</time>
      </trkpt>
      <trkpt lat="47.41969" lon="6.79536">
        <ele>481.2</ele>
        <time>2014-05-04T08:09:06.000Z</time>
      </trkpt>
      <trkpt lat="47.41967" lon="6.7954">
        <ele>481.8</ele>
        <time>2014-05-04T08:09:07.000Z</time>
      </trkpt>
      <trkpt lat="47.41966" lon="6.79544">
        <ele>481.2</ele>
        <time>2014-05-04T08:09:08.000Z</time>
      </trkpt>
      <trkpt lat="47.41964" lon="6.79549">
        <ele>481.1</ele>
        <time>2014-05-04T08:09:09.000Z</time>
      </trkpt>
      <trkpt lat="47.41963" lon="6.79554">
        <ele>480.5</ele>
        <time>2014-05-04T08:09:10.000Z</time>
      </trkpt>
      <trkpt lat="47.41962" lon="6.79559">
        <ele>479.1</ele>
        <time>2014-05-04T08:09:11.000Z</time>
      </trkpt>
      <trkpt lat="47.4196" lon="6.79564">
        <ele>478.1</ele>
        <time>2014-05-04T08:09:12.000Z</time>
      </trkpt>
      <trkpt lat="47.41959" lon="6.79568">
        <ele>479.1</ele>
        <time>2014-05-04T08:09:13.000Z</time>
      </trkpt>
      <trkpt lat="47.41957" lon="6.79572">
        <ele>477.7</ele>
        <time>2014-05-04T08:09:14.000Z</time>
      </trkpt>
      <trkpt lat="47.41956" lon="6.79575">
        <ele>478.4</ele>
        <time>2014-05-04T08:09:15.000Z</time>
      </trkpt>
      <trkpt lat="47.41954" lon="6.79578">
        <ele>477.9</ele>
        <time>2014-05-04T08:09:16.000Z</time>
      </trkpt>
      <trkpt lat="47.41952" lon="6.79581">
        <ele>477.5</ele>
        <time>2014-05-04T08:09:17.000Z</time>
      </trkpt>
      <trkpt lat="47.41951" lon="6.79586">
        <ele>477.7</ele>
        <time>2014-05-04T08:09:18.000Z</time>
      </trkpt>
      <trkpt lat="47.4195" lon="6.79591">
        <ele>477.1</ele>
        <time>2014-05-04T08:09:19.000Z</time>
      </trkpt>
      <trkpt lat="47.41949" lon="6.79596">
        <ele>475.5</ele>
        <time>2014-05-04T08:09:20.000Z</time>
      </trkpt>
      <trkpt lat="47.41948" lon="6.79601">
        <ele>475.6</ele>
        <time>2014-05-04T08:09:21.000Z</time>
      </trkpt>
      <trkpt lat="47.41947" lon="6.79605">
        <ele>475.2</ele>
        <time>2014-05-04T08:09:22.000Z</time>
      </trkpt>
      <trkpt lat="47.41945" lon="6.7961">
        <ele>475</ele>
        <time>2014-05-04T08:09:23.000Z</time>
      </trkpt>
      <trkpt lat="47.41944" lon="6.79614">
        <ele>475.1</ele>
        <time>2014-05-04T08:09:24.000Z</time>
      </trkpt>
      <trkpt lat="47.41942" lon="6.79618">
        <ele>475.5</ele>
        <time>2014-05-04T08:09:25.000Z</time>
      </trkpt>
      <trkpt lat="47.4194" lon="6.79622">
        <ele>475.2</ele>
        <time>2014-05-04T08:09:26.000Z</time>
      </trkpt>
      <trkpt lat="47.41939" lon="6.79626">
        <ele>473.5</ele>
        <time>2014-05-04T08:09:27.000Z</time>
      </trkpt>
      <trkpt lat="47.41937" lon="6.79629">
        <ele>476.9</ele>
        <time>2014-05-04T08:09:28.000Z</time>
      </trkpt>
      <trkpt lat="47.41935" lon="6.79633">
        <ele>475.1</ele>
        <time>2014-05-04T08:09:29.000Z</time>
      </trkpt>
      <trkpt lat="47.41933" lon="6.79637">
        <ele>475.2</ele>
        <time>2014-05-04T08:09:30.000Z</time>
      </trkpt>
      <trkpt lat="47.41931" lon="6.7964">
        <ele>473.9</ele>
        <time>2014-05-04T08:09:31.000Z</time>
      </trkpt>
      <trkpt lat="47.41929" lon="6.79644">
        <ele>473.6</ele>
        <time>2014-05-04T08:09:32.000Z</time>
      </trkpt>
      <trkpt lat="47.41928" lon="6.79648">
        <ele>473.4</ele>
        <time>2014-05-04T08:09:33.000Z</time>
      </trkpt>
      <trkpt lat="47.41926" lon="6.79653">
        <ele>473.1</ele>
        <time>2014-05-04T08:09:34.000Z</time>
      </trkpt>
      <trkpt lat="47.41925" lon="6.79659">
        <ele>473.5</ele>
        <time>2014-05-04T08:09:35.000Z</time>
      </trkpt>
      <trkpt lat="47.41924" lon="6.79663">
        <ele>473.6</ele>
        <time>2014-05-04T08:09:36.000Z</time>
      </trkpt>
      <trkpt lat="47.41923" lon="6.79668">
        <ele>469.5</ele>
        <time>2014-05-04T08:09:37.000Z</time>
      </trkpt>
      <trkpt lat="47.41923" lon="6.79673">
        <ele>470.1</ele>
        <time>2014-05-04T08:09:38.000Z</time>
      </trkpt>
      <trkpt lat="47.41923" lon="6.79678">
        <ele>471</ele>
        <time>2014-05-04T08:09:39.000Z</time>
      </trkpt>
      <trkpt lat="47.41923" lon="6.79683">
        <ele>472.7</ele>
        <time>2014-05-04T08:09:40.000Z</time>
      </trkpt>
      <trkpt lat="47.41923" lon="6.79687">
        <ele>473.6</ele>
        <time>2014-05-04T08:09:41.000Z</time>
      </trkpt>
      <trkpt lat="47.41923" lon="6.79702">
        <ele>469</ele>
        <time>2014-05-04T08:09:44.000Z</time>
      </trkpt>
      <trkpt lat="47.41922" lon="6.79708">
        <ele>468.8</ele>
        <time>2014-05-04T08:09:45.000Z</time>
      </trkpt>
      <trkpt lat="47.41921" lon="6.79716">
        <ele>469.4</ele>
        <time>2014-05-04T08:09:46.000Z</time>
      </trkpt>
      <trkpt lat="47.4192" lon="6.79722">
        <ele>471.7</ele>
        <time>2014-05-04T08:09:47.000Z</time>
      </trkpt>
      <trkpt lat="47.41918" lon="6.79727">
        <ele>473.4</ele>
        <time>2014-05-04T08:09:48.000Z</time>
      </trkpt>
      <trkpt lat="47.41918" lon="6.79731">
        <ele>480</ele>
        <time>2014-05-04T08:09:49.000Z</time>
      </trkpt>
      <trkpt lat="47.41918" lon="6.79734">
        <ele>478.5</ele>
        <time>2014-05-04T08:09:50.000Z</time>
      </trkpt>
      <trkpt lat="47.41918" lon="6.79739">
        <ele>480.1</ele>
        <time>2014-05-04T08:09:52.000Z</time>
      </trkpt>
      <trkpt lat="47.41918" lon="6.79742">
        <ele>480</ele>
        <time>2014-05-04T08:09:53.000Z</time>
      </trkpt>
      <trkpt lat="47.41917" lon="6.79746">
        <ele>480.3</ele>
        <time>2014-05-04T08:09:54.000Z</time>
      </trkpt>
      <trkpt lat="47.41916" lon="6.79752">
        <ele>479</ele>
        <time>2014-05-04T08:09:55.000Z</time>
      </trkpt>
      <trkpt lat="47.41915" lon="6.79758">
        <ele>478.8</ele>
        <time>2014-05-04T08:09:56.000Z</time>
      </trkpt>
      <trkpt lat="47.41914" lon="6.79764">
        <ele>478.7</ele>
        <time>2014-05-04T08:09:57.000Z</time>
      </trkpt>
      <trkpt lat="47.41913" lon="6.79771">
        <ele>478.4</ele>
        <time>2014-05-04T08:09:58.000Z</time>
      </trkpt>
      <trkpt lat="47.41912" lon="6.79778">
        <ele>475.8</ele>
        <time>2014-05-04T08:09:59.000Z</time>
      </trkpt>
      <trkpt lat="47.41911" lon="6.79784">
        <ele>475.8</ele>
        <time>2014-05-04T08:10:00.000Z</time>
      </trkpt>
      <trkpt lat="47.41909" lon="6.79791">
        <ele>474.2</ele>
        <time>2014-05-04T08:10:01.000Z</time>
      </trkpt>
      <trkpt lat="47.41908" lon="6.79798">
        <ele>475.5</ele>
        <time>2014-05-04T08:10:02.000Z</time>
      </trkpt>
      <trkpt lat="47.41906" lon="6.79804">
        <ele>476.4</ele>
        <time>2014-05-04T08:10:03.000Z</time>
      </trkpt>
      <trkpt lat="47.41905" lon="6.79809">
        <ele>476.7</ele>
        <time>2014-05-04T08:10:04.000Z</time>
      </trkpt>
      <trkpt lat="47.41903" lon="6.79814">
        <ele>475.6</ele>
        <time>2014-05-04T08:10:05.000Z</time>
      </trkpt>
      <trkpt lat="47.41901" lon="6.7982">
        <ele>473.5</ele>
        <time>2014-05-04T08:10:06.000Z</time>
      </trkpt>
      <trkpt lat="47.41901" lon="6.79825">
        <ele>473.1</ele>
        <time>2014-05-04T08:10:07.000Z</time>
      </trkpt>
      <trkpt lat="47.41901" lon="6.79831">
        <ele>472.8</ele>
        <time>2014-05-04T08:10:08.000Z</time>
      </trkpt>
      <trkpt lat="47.41902" lon="6.79838">
        <ele>473</ele>
        <time>2014-05-04T08:10:09.000Z</time>
      </trkpt>
      <trkpt lat="47.41903" lon="6.79844">
        <ele>473.2</ele>
        <time>2014-05-04T08:10:10.000Z</time>
      </trkpt>
      <trkpt lat="47.41904" lon="6.7985">
        <ele>473</ele>
        <time>2014-05-04T08:10:11.000Z</time>
      </trkpt>
      <trkpt lat="47.41905" lon="6.79856">
        <ele>473</ele>
        <time>2014-05-04T08:10:12.000Z</time>
      </trkpt>
      <trkpt lat="47.41905" lon="6.79861">
        <ele>474.3</ele>
        <time>2014-05-04T08:10:13.000Z</time>
      </trkpt>
      <trkpt lat="47.41907" lon="6.79866">
        <ele>477.1</ele>
        <time>2014-05-04T08:10:14.000Z</time>
      </trkpt>
      <trkpt lat="47.41908" lon="6.7987">
        <ele>480.5</ele>
        <time>2014-05-04T08:10:15.000Z</time>
      </trkpt>
      <trkpt lat="47.4191" lon="6.79873">
        <ele>480.9</ele>
        <time>2014-05-04T08:10:16.000Z</time>
      </trkpt>
      <trkpt lat="47.41911" lon="6.79876">
        <ele>481</ele>
        <time>2014-05-04T08:10:17.000Z</time>
      </trkpt>
      <trkpt lat="47.41912" lon="6.79879">
        <ele>481.2</ele>
        <time>2014-05-04T08:10:18.000Z</time>
      </trkpt>
      <trkpt lat="47.41912" lon="6.79885">
        <ele>480.8</ele>
        <time>2014-05-04T08:10:19.000Z</time>
      </trkpt>
      <trkpt lat="47.41912" lon="6.79891">
        <ele>481.9</ele>
        <time>2014-05-04T08:10:20.000Z</time>
      </trkpt>
      <trkpt lat="47.41911" lon="6.79897">
        <ele>484</ele>
        <time>2014-05-04T08:10:21.000Z</time>
      </trkpt>
      <trkpt lat="47.41909" lon="6.79903">
        <ele>484.5</ele>
        <time>2014-05-04T08:10:22.000Z</time>
      </trkpt>
      <trkpt lat="47.41908" lon="6.79909">
        <ele>484.3</ele>
        <time>2014-05-04T08:10:23.000Z</time>
      </trkpt>
      <trkpt lat="47.41907" lon="6.79915">
        <ele>485.4</ele>
        <time>2014-05-04T08:10:24.000Z</time>
      </trkpt>
      <trkpt lat="47.41905" lon="6.79922">
        <ele>486.3</ele>
        <time>2014-05-04T08:10:25.000Z</time>
      </trkpt>
      <trkpt lat="47.41903" lon="6.79927">
        <ele>490.8</ele>
        <time>2014-05-04T08:10:26.000Z</time>
      </trkpt>
      <trkpt lat="47.419" lon="6.79933">
        <ele>491.5</ele>
        <time>2014-05-04T08:10:27.000Z</time>
      </trkpt>
      <trkpt lat="47.41897" lon="6.79939">
        <ele>492.2</ele>
        <time>2014-05-04T08:10:28.000Z</time>
      </trkpt>
      <trkpt lat="47.41894" lon="6.79944">
        <ele>492.4</ele>
        <time>2014-05-04T08:10:29.000Z</time>
      </trkpt>
      <trkpt lat="47.41891" lon="6.7995">
        <ele>491.8</ele>
        <time>2014-05-04T08:10:30.000Z</time>
      </trkpt>
      <trkpt lat="47.41888" lon="6.79957">
        <ele>491.4</ele>
        <time>2014-05-04T08:10:31.000Z</time>
      </trkpt>
      <trkpt lat="47.41886" lon="6.79962">
        <ele>492.1</ele>
        <time>2014-05-04T08:10:32.000Z</time>
      </trkpt>
      <trkpt lat="47.41884" lon="6.79968">
        <ele>491.9</ele>
        <time>2014-05-04T08:10:33.000Z</time>
      </trkpt>
      <trkpt lat="47.41883" lon="6.79973">
        <ele>492.1</ele>
        <time>2014-05-04T08:10:34.000Z</time>
      </trkpt>
      <trkpt lat="47.41882" lon="6.79978">
        <ele>492.2</ele>
        <time>2014-05-04T08:10:35.000Z</time>
      </trkpt>
      <trkpt lat="47.41881" lon="6.79984">
        <ele>493.6</ele>
        <time>2014-05-04T08:10:36.000Z</time>
      </trkpt>
      <trkpt lat="47.41879" lon="6.79991">
        <ele>493.5</ele>
        <time>2014-05-04T08:10:37.000Z</time>
      </trkpt>
      <trkpt lat="47.41876" lon="6.80006">
        <ele>493.2</ele>
        <time>2014-05-04T08:10:38.000Z</time>
      </trkpt>
      <trkpt lat="47.41875" lon="6.80013">
        <ele>493.5</ele>
        <time>2014-05-04T08:10:39.000Z</time>
      </trkpt>
      <trkpt lat="47.41867" lon="6.80011">
        <ele>499</ele>
        <time>2014-05-04T08:10:40.000Z</time>
      </trkpt>
      <trkpt lat="47.41864" lon="6.80013">
        <ele>503.8</ele>
        <time>2014-05-04T08:10:41.000Z</time>
      </trkpt>
      <trkpt lat="47.41852" lon="6.80022">
        <ele>503.4</ele>
        <time>2014-05-04T08:10:44.000Z</time>
      </trkpt>
      <trkpt lat="47.41848" lon="6.80025">
        <ele>508.2</ele>
        <time>2014-05-04T08:10:45.000Z</time>
      </trkpt>
      <trkpt lat="47.41843" lon="6.80027">
        <ele>507.8</ele>
        <time>2014-05-04T08:10:46.000Z</time>
      </trkpt>
      <trkpt lat="47.41839" lon="6.80031">
        <ele>507.8</ele>
        <time>2014-05-04T08:10:47.000Z</time>
      </trkpt>
      <trkpt lat="47.41835" lon="6.80035">
        <ele>508.4</ele>
        <time>2014-05-04T08:10:48.000Z</time>
      </trkpt>
      <trkpt lat="47.41832" lon="6.80038">
        <ele>507.2</ele>
        <time>2014-05-04T08:10:49.000Z</time>
      </trkpt>
      <trkpt lat="47.4183" lon="6.80041">
        <ele>505</ele>
        <time>2014-05-04T08:10:50.000Z</time>
      </trkpt>
      <trkpt lat="47.41826" lon="6.80045">
        <ele>498</ele>
        <time>2014-05-04T08:10:55.000Z</time>
      </trkpt>
      <trkpt lat="47.41825" lon="6.80047">
        <ele>494</ele>
        <time>2014-05-04T08:10:56.000Z</time>
      </trkpt>
      <trkpt lat="47.41822" lon="6.80048">
        <ele>502.1</ele>
        <time>2014-05-04T08:11:00.000Z</time>
      </trkpt>
      <trkpt lat="47.41821" lon="6.80048">
        <ele>502.5</ele>
        <time>2014-05-04T08:11:01.000Z</time>
      </trkpt>
      <trkpt lat="47.41818" lon="6.80046">
        <ele>505.8</ele>
        <time>2014-05-04T08:11:16.000Z</time>
      </trkpt>
      <trkpt lat="47.41817" lon="6.80045">
        <ele>507.9</ele>
        <time>2014-05-04T08:11:17.000Z</time>
      </trkpt>
      <trkpt lat="47.41813" lon="6.80044">
        <ele>509.9</ele>
        <time>2014-05-04T08:11:25.000Z</time>
      </trkpt>
      <trkpt lat="47.41812" lon="6.80041">
        <ele>509.2</ele>
        <time>2014-05-04T08:11:26.000Z</time>
      </trkpt>
      <trkpt lat="47.41809" lon="6.80037">
        <ele>507.6</ele>
        <time>2014-05-04T08:11:30.000Z</time>
      </trkpt>
      <trkpt lat="47.41808" lon="6.80036">
        <ele>507.6</ele>
        <time>2014-05-04T08:11:31.000Z</time>
      </trkpt>
      <trkpt lat="47.41805" lon="6.80035">
        <ele>512.2</ele>
        <time>2014-05-04T08:11:35.000Z</time>
      </trkpt>
      <trkpt lat="47.41803" lon="6.80035">
        <ele>511.9</ele>
        <time>2014-05-04T08:11:36.000Z</time>
      </trkpt>
      <trkpt lat="47.41799" lon="6.80033">
        <ele>512.6</ele>
        <time>2014-05-04T08:11:39.000Z</time>
      </trkpt>
      <trkpt lat="47.41797" lon="6.80032">
        <ele>512.6</ele>
        <time>2014-05-04T08:11:40.000Z</time>
      </trkpt>
      <trkpt lat="47.41796" lon="6.80032">
        <ele>511.5</ele>
        <time>2014-05-04T08:11:41.000Z</time>
      </trkpt>
      <trkpt lat="47.41792" lon="6.80032">
        <ele>509.4</ele>
        <time>2014-05-04T08:11:44.000Z</time>
      </trkpt>
      <trkpt lat="47.41788" lon="6.80033">
        <ele>509.2</ele>
        <time>2014-05-04T08:11:46.000Z</time>
      </trkpt>
      <trkpt lat="47.41787" lon="6.80034">
        <ele>507.7</ele>
        <time>2014-05-04T08:11:47.000Z</time>
      </trkpt>
      <trkpt lat="47.41784" lon="6.80038">
        <ele>507.2</ele>
        <time>2014-05-04T08:11:49.000Z</time>
      </trkpt>
      <trkpt lat="47.41783" lon="6.80041">
        <ele>505.9</ele>
        <time>2014-05-04T08:11:50.000Z</time>
      </trkpt>
      <trkpt lat="47.4178" lon="6.80044">
        <ele>505.8</ele>
        <time>2014-05-04T08:11:52.000Z</time>
      </trkpt>
      <trkpt lat="47.41779" lon="6.80045">
        <ele>508</ele>
        <time>2014-05-04T08:11:53.000Z</time>
      </trkpt>
      <trkpt lat="47.41775" lon="6.80047">
        <ele>512.5</ele>
        <time>2014-05-04T08:11:58.000Z</time>
      </trkpt>
      <trkpt lat="47.41774" lon="6.80048">
        <ele>513</ele>
        <time>2014-05-04T08:11:59.000Z</time>
      </trkpt>
      <trkpt lat="47.4177" lon="6.80049">
        <ele>513.4</ele>
        <time>2014-05-04T08:12:02.000Z</time>
      </trkpt>
      <trkpt lat="47.41769" lon="6.80049">
        <ele>514</ele>
        <time>2014-05-04T08:12:03.000Z</time>
      </trkpt>
      <trkpt lat="47.41766" lon="6.8005">
        <ele>513</ele>
        <time>2014-05-04T08:12:06.000Z</time>
      </trkpt>
      <trkpt lat="47.41764" lon="6.8005">
        <ele>512</ele>
        <time>2014-05-04T08:12:07.000Z</time>
      </trkpt>
      <trkpt lat="47.4176" lon="6.80049">
        <ele>512.7</ele>
        <time>2014-05-04T08:12:11.000Z</time>
      </trkpt>
      <trkpt lat="47.41759" lon="6.80049">
        <ele>513.2</ele>
        <time>2014-05-04T08:12:12.000Z</time>
      </trkpt>
      <trkpt lat="47.41755" lon="6.80049">
        <ele>513.1</ele>
        <time>2014-05-04T08:12:15.000Z</time>
      </trkpt>
      <trkpt lat="47.41754" lon="6.80049">
        <ele>511.2</ele>
        <time>2014-05-04T08:12:16.000Z</time>
      </trkpt>
      <trkpt lat="47.4175" lon="6.80049">
        <ele>511.6</ele>
        <time>2014-05-04T08:12:19.000Z</time>
      </trkpt>
      <trkpt lat="47.41749" lon="6.80049">
        <ele>512.7</ele>
        <time>2014-05-04T08:12:20.000Z</time>
      </trkpt>
      <trkpt lat="47.41745" lon="6.80048">
        <ele>515.1</ele>
        <time>2014-05-04T08:12:24.000Z</time>
      </trkpt>
      <trkpt lat="47.41744" lon="6.80048">
        <ele>516.2</ele>
        <time>2014-05-04T08:12:25.000Z</time>
      </trkpt>
      <trkpt lat="47.4174" lon="6.80048">
        <ele>516.1</ele>
        <time>2014-05-04T08:12:29.000Z</time>
      </trkpt>
      <trkpt lat="47.41739" lon="6.80047">
        <ele>515.6</ele>
        <time>2014-05-04T08:12:30.000Z</time>
      </trkpt>
      <trkpt lat="47.41735" lon="6.80046">
        <ele>515.4</ele>
        <time>2014-05-04T08:12:33.000Z</time>
      </trkpt>
      <trkpt lat="47.41734" lon="6.80046">
        <ele>515.6</ele>
        <time>2014-05-04T08:12:34.000Z</time>
      </trkpt>
      <trkpt lat="47.4173" lon="6.80046">
        <ele>512.4</ele>
        <time>2014-05-04T08:12:37.000Z</time>
      </trkpt>
      <trkpt lat="47.41729" lon="6.80046">
        <ele>512.7</ele>
        <time>2014-05-04T08:12:38.000Z</time>
      </trkpt>
      <trkpt lat="47.41726" lon="6.80046">
        <ele>513.3</ele>
        <time>2014-05-04T08:12:41.000Z</time>
      </trkpt>
      <trkpt lat="47.41722" lon="6.80045">
        <ele>514.8</ele>
        <time>2014-05-04T08:12:44.000Z</time>
      </trkpt>
      <trkpt lat="47.41719" lon="6.80045">
        <ele>515.3</ele>
        <time>2014-05-04T08:12:47.000Z</time>
      </trkpt>
      <trkpt lat="47.41718" lon="6.80045">
        <ele>515</ele>
        <time>2014-05-04T08:12:48.000Z</time>
      </trkpt>
      <trkpt lat="47.41714" lon="6.80045">
        <ele>516.6</ele>
        <time>2014-05-04T08:12:51.000Z</time>
      </trkpt>
      <trkpt lat="47.41713" lon="6.80044">
        <ele>516.6</ele>
        <time>2014-05-04T08:12:52.000Z</time>
      </trkpt>
      <trkpt lat="47.41709" lon="6.80044">
        <ele>517.7</ele>
        <time>2014-05-04T08:12:55.000Z</time>
      </trkpt>
      <trkpt lat="47.41708" lon="6.80043">
        <ele>517.7</ele>
        <time>2014-05-04T08:12:56.000Z</time>
      </trkpt>
      <trkpt lat="47.41704" lon="6.80043">
        <ele>518.6</ele>
        <time>2014-05-04T08:12:59.000Z</time>
      </trkpt>
      <trkpt lat="47.41703" lon="6.80042">
        <ele>517.7</ele>
        <time>2014-05-04T08:13:00.000Z</time>
      </trkpt>
      <trkpt lat="47.41699" lon="6.80042">
        <ele>518.1</ele>
        <time>2014-05-04T08:13:03.000Z</time>
      </trkpt>
      <trkpt lat="47.41698" lon="6.80043">
        <ele>518.5</ele>
        <time>2014-05-04T08:13:04.000Z</time>
      </trkpt>
      <trkpt lat="47.41694" lon="6.8004">
        <ele>519.6</ele>
        <time>2014-05-04T08:13:07.000Z</time>
      </trkpt>
      <trkpt lat="47.41692" lon="6.80038">
        <ele>518.9</ele>
        <time>2014-05-04T08:13:08.000Z</time>
      </trkpt>
      <trkpt lat="47.4169" lon="6.80035">
        <ele>517.5</ele>
        <time>2014-05-04T08:13:10.000Z</time>
      </trkpt>
      <trkpt lat="47.41688" lon="6.80034">
        <ele>517.4</ele>
        <time>2014-05-04T08:13:11.000Z</time>
      </trkpt>
      <trkpt lat="47.41685" lon="6.80029">
        <ele>516.4</ele>
        <time>2014-05-04T08:13:13.000Z</time>
      </trkpt>
      <trkpt lat="47.41683" lon="6.80027">
        <ele>516.5</ele>
        <time>2014-05-04T08:13:14.000Z</time>
      </trkpt>
      <trkpt lat="47.41681" lon="6.80024">
        <ele>515.6</ele>
        <time>2014-05-04T08:13:15.000Z</time>
      </trkpt>
      <trkpt lat="47.4168" lon="6.80021">
        <ele>516.2</ele>
        <time>2014-05-04T08:13:16.000Z</time>
      </trkpt>
      <trkpt lat="47.41678" lon="6.80018">
        <ele>516</ele>
        <time>2014-05-04T08:13:17.000Z</time>
      </trkpt>
      <trkpt lat="47.41675" lon="6.80015">
        <ele>516.2</ele>
        <time>2014-05-04T08:13:18.000Z</time>
      </trkpt>
      <trkpt lat="47.41673" lon="6.80012">
        <ele>515.9</ele>
        <time>2014-05-04T08:13:19.000Z</time>
      </trkpt>
      <trkpt lat="47.41671" lon="6.8001">
        <ele>515.7</ele>
        <time>2014-05-04T08:13:20.000Z</time>
      </trkpt>
      <trkpt lat="47.41668" lon="6.80007">
        <ele>516.2</ele>
        <time>2014-05-04T08:13:21.000Z</time>
      </trkpt>
      <trkpt lat="47.41666" lon="6.80005">
        <ele>516.2</ele>
        <time>2014-05-04T08:13:22.000Z</time>
      </trkpt>
      <trkpt lat="47.41664" lon="6.80002">
        <ele>516.6</ele>
        <time>2014-05-04T08:13:23.000Z</time>
      </trkpt>
      <trkpt lat="47.41662" lon="6.79999">
        <ele>516.4</ele>
        <time>2014-05-04T08:13:24.000Z</time>
      </trkpt>
      <trkpt lat="47.4166" lon="6.79996">
        <ele>516.2</ele>
        <time>2014-05-04T08:13:25.000Z</time>
      </trkpt>
      <trkpt lat="47.41658" lon="6.79994">
        <ele>518</ele>
        <time>2014-05-04T08:13:26.000Z</time>
      </trkpt>
      <trkpt lat="47.41656" lon="6.79991">
        <ele>519.1</ele>
        <time>2014-05-04T08:13:27.000Z</time>
      </trkpt>
      <trkpt lat="47.41654" lon="6.79988">
        <ele>519.6</ele>
        <time>2014-05-04T08:13:28.000Z</time>
      </trkpt>
      <trkpt lat="47.41652" lon="6.79985">
        <ele>520.5</ele>
        <time>2014-05-04T08:13:29.000Z</time>
      </trkpt>
      <trkpt lat="47.4165" lon="6.79982">
        <ele>519.2</ele>
        <time>2014-05-04T08:13:30.000Z</time>
      </trkpt>
      <trkpt lat="47.41648" lon="6.79979">
        <ele>519.3</ele>
        <time>2014-05-04T08:13:31.000Z</time>
      </trkpt>
      <trkpt lat="47.41645" lon="6.79976">
        <ele>519.1</ele>
        <time>2014-05-04T08:13:32.000Z</time>
      </trkpt>
      <trkpt lat="47.41643" lon="6.79973">
        <ele>519.1</ele>
        <time>2014-05-04T08:13:33.000Z</time>
      </trkpt>
      <trkpt lat="47.41641" lon="6.7997">
        <ele>518.8</ele>
        <time>2014-05-04T08:13:34.000Z</time>
      </trkpt>
      <trkpt lat="47.41638" lon="6.79967">
        <ele>518.8</ele>
        <time>2014-05-04T08:13:35.000Z</time>
      </trkpt>
      <trkpt lat="47.41636" lon="6.79964">
        <ele>518.1</ele>
        <time>2014-05-04T08:13:36.000Z</time>
      </trkpt>
      <trkpt lat="47.41634" lon="6.79962">
        <ele>516.7</ele>
        <time>2014-05-04T08:13:37.000Z</time>
      </trkpt>
      <trkpt lat="47.41632" lon="6.79959">
        <ele>517</ele>
        <time>2014-05-04T08:13:38.000Z</time>
      </trkpt>
      <trkpt lat="47.4163" lon="6.79957">
        <ele>517.2</ele>
        <time>2014-05-04T08:13:39.000Z</time>
      </trkpt>
      <trkpt lat="47.41628" lon="6.79954">
        <ele>515.6</ele>
        <time>2014-05-04T08:13:40.000Z</time>
      </trkpt>
      <trkpt lat="47.41625" lon="6.79951">
        <ele>514.4</ele>
        <time>2014-05-04T08:13:41.000Z</time>
      </trkpt>
      <trkpt lat="47.41623" lon="6.79946">
        <ele>513.9</ele>
        <time>2014-05-04T08:13:42.000Z</time>
      </trkpt>
      <trkpt lat="47.41603" lon="6.79902">
        <ele>513.8</ele>
        <time>2014-05-04T08:13:50.000Z</time>
      </trkpt>
      <trkpt lat="47.41597" lon="6.79894">
        <ele>512.8</ele>
        <time>2014-05-04T08:13:51.000Z</time>
      </trkpt>
      <trkpt lat="47.41593" lon="6.79888">
        <ele>512.6</ele>
        <time>2014-05-04T08:13:52.000Z</time>
      </trkpt>
      <trkpt lat="47.41589" lon="6.79882">
        <ele>512.4</ele>
        <time>2014-05-04T08:13:53.000Z</time>
      </trkpt>
      <trkpt lat="47.41586" lon="6.79877">
        <ele>511.8</ele>
        <time>2014-05-04T08:13:54.000Z</time>
      </trkpt>
      <trkpt lat="47.41582" lon="6.79873">
        <ele>511.6</ele>
        <time>2014-05-04T08:13:55.000Z</time>
      </trkpt>
      <trkpt lat="47.41582" lon="6.79868">
        <ele>514.9</ele>
        <time>2014-05-04T08:13:56.000Z</time>
      </trkpt>
      <trkpt lat="47.41577" lon="6.79863">
        <ele>512.4</ele>
        <time>2014-05-04T08:13:57.000Z</time>
      </trkpt>
      <trkpt lat="47.41574" lon="6.7986">
        <ele>511.7</ele>
        <time>2014-05-04T08:13:58.000Z</time>
      </trkpt>
      <trkpt lat="47.41571" lon="6.7986">
        <ele>511.5</ele>
        <time>2014-05-04T08:13:59.000Z</time>
      </trkpt>
      <trkpt lat="47.41567" lon="6.79863">
        <ele>512.1</ele>
        <time>2014-05-04T08:14:01.000Z</time>
      </trkpt>
      <trkpt lat="47.41565" lon="6.79864">
        <ele>512</ele>
        <time>2014-05-04T08:14:02.000Z</time>
      </trkpt>
      <trkpt lat="47.41562" lon="6.79864">
        <ele>511.4</ele>
        <time>2014-05-04T08:14:04.000Z</time>
      </trkpt>
      <trkpt lat="47.4156" lon="6.79863">
        <ele>511.4</ele>
        <time>2014-05-04T08:14:05.000Z</time>
      </trkpt>
      <trkpt lat="47.41557" lon="6.79864">
        <ele>510.9</ele>
        <time>2014-05-04T08:14:07.000Z</time>
      </trkpt>
      <trkpt lat="47.41555" lon="6.79864">
        <ele>510.2</ele>
        <time>2014-05-04T08:14:08.000Z</time>
      </trkpt>
      <trkpt lat="47.41551" lon="6.79863">
        <ele>509.6</ele>
        <time>2014-05-04T08:14:10.000Z</time>
      </trkpt>
      <trkpt lat="47.4155" lon="6.79863">
        <ele>510.1</ele>
        <time>2014-05-04T08:14:11.000Z</time>
      </trkpt>
      <trkpt lat="47.41547" lon="6.79862">
        <ele>509.3</ele>
        <time>2014-05-04T08:14:13.000Z</time>
      </trkpt>
      <trkpt lat="47.41545" lon="6.79861">
        <ele>509</ele>
        <time>2014-05-04T08:14:14.000Z</time>
      </trkpt>
      <trkpt lat="47.41541" lon="6.79859">
        <ele>506.3</ele>
        <time>2014-05-04T08:14:16.000Z</time>
      </trkpt>
      <trkpt lat="47.41539" lon="6.79859">
        <ele>507</ele>
        <time>2014-05-04T08:14:17.000Z</time>
      </trkpt>
      <trkpt lat="47.41535" lon="6.79858">
        <ele>508.4</ele>
        <time>2014-05-04T08:14:19.000Z</time>
      </trkpt>
      <trkpt lat="47.41533" lon="6.79858">
        <ele>507.7</ele>
        <time>2014-05-04T08:14:20.000Z</time>
      </trkpt>
      <trkpt lat="47.41529" lon="6.79858">
        <ele>511.7</ele>
        <time>2014-05-04T08:14:22.000Z</time>
      </trkpt>
      <trkpt lat="47.41527" lon="6.79858">
        <ele>513.6</ele>
        <time>2014-05-04T08:14:23.000Z</time>
      </trkpt>
      <trkpt lat="47.41523" lon="6.79858">
        <ele>512.7</ele>
        <time>2014-05-04T08:14:25.000Z</time>
      </trkpt>
      <trkpt lat="47.41521" lon="6.79857">
        <ele>513.9</ele>
        <time>2014-05-04T08:14:26.000Z</time>
      </trkpt>
      <trkpt lat="47.41519" lon="6.79856">
        <ele>514.9</ele>
        <time>2014-05-04T08:14:27.000Z</time>
      </trkpt>
      <trkpt lat="47.41516" lon="6.79855">
        <ele>515.8</ele>
        <time>2014-05-04T08:14:28.000Z</time>
      </trkpt>
      <trkpt lat="47.41514" lon="6.79855">
        <ele>515.7</ele>
        <time>2014-05-04T08:14:29.000Z</time>
      </trkpt>
      <trkpt lat="47.41512" lon="6.79854">
        <ele>516.4</ele>
        <time>2014-05-04T08:14:30.000Z</time>
      </trkpt>
      <trkpt lat="47.41508" lon="6.79852">
        <ele>518.2</ele>
        <time>2014-05-04T08:14:32.000Z</time>
      </trkpt>
      <trkpt lat="47.41506" lon="6.79851">
        <ele>518.6</ele>
        <time>2014-05-04T08:14:33.000Z</time>
      </trkpt>
      <trkpt lat="47.41503" lon="6.7985">
        <ele>517</ele>
        <time>2014-05-04T08:14:34.000Z</time>
      </trkpt>
      <trkpt lat="47.41501" lon="6.79848">
        <ele>515.7</ele>
        <time>2014-05-04T08:14:35.000Z</time>
      </trkpt>
      <trkpt lat="47.41498" lon="6.79846">
        <ele>516.5</ele>
        <time>2014-05-04T08:14:36.000Z</time>
      </trkpt>
      <trkpt lat="47.41495" lon="6.79844">
        <ele>518.2</ele>
        <time>2014-05-04T08:14:37.000Z</time>
      </trkpt>
      <trkpt lat="47.41492" lon="6.79842">
        <ele>518.3</ele>
        <time>2014-05-04T08:14:38.000Z</time>
      </trkpt>
      <trkpt lat="47.4149" lon="6.7984">
        <ele>517.9</ele>
        <time>2014-05-04T08:14:39.000Z</time>
      </trkpt>
      <trkpt lat="47.41488" lon="6.79838">
        <ele>519</ele>
        <time>2014-05-04T08:14:40.000Z</time>
      </trkpt>
      <trkpt lat="47.41486" lon="6.79836">
        <ele>520.6</ele>
        <time>2014-05-04T08:14:41.000Z</time>
      </trkpt>
      <trkpt lat="47.41484" lon="6.79834">
        <ele>520.8</ele>
        <time>2014-05-04T08:14:42.000Z</time>
      </trkpt>
      <trkpt lat="47.41478" lon="6.79829">
        <ele>521.5</ele>
        <time>2014-05-04T08:14:45.000Z</time>
      </trkpt>
      <trkpt lat="47.41475" lon="6.79828">
        <ele>520.3</ele>
        <time>2014-05-04T08:14:46.000Z</time>
      </trkpt>
      <trkpt lat="47.41473" lon="6.79826">
        <ele>519.6</ele>
        <time>2014-05-04T08:14:47.000Z</time>
      </trkpt>
      <trkpt lat="47.41469" lon="6.79824">
        <ele>519.8</ele>
        <time>2014-05-04T08:14:49.000Z</time>
      </trkpt>
      <trkpt lat="47.41467" lon="6.79823">
        <ele>520.3</ele>
        <time>2014-05-04T08:14:50.000Z</time>
      </trkpt>
      <trkpt lat="47.41463" lon="6.79821">
        <ele>520.7</ele>
        <time>2014-05-04T08:14:52.000Z</time>
      </trkpt>
      <trkpt lat="47.41461" lon="6.79821">
        <ele>520.4</ele>
        <time>2014-05-04T08:14:53.000Z</time>
      </trkpt>
      <trkpt lat="47.41457" lon="6.7982">
        <ele>517.8</ele>
        <time>2014-05-04T08:14:55.000Z</time>
      </trkpt>
      <trkpt lat="47.41455" lon="6.79819">
        <ele>516.5</ele>
        <time>2014-05-04T08:14:56.000Z</time>
      </trkpt>
      <trkpt lat="47.41451" lon="6.79818">
        <ele>516.3</ele>
        <time>2014-05-04T08:14:58.000Z</time>
      </trkpt>
      <trkpt lat="47.41449" lon="6.79818">
        <ele>516.5</ele>
        <time>2014-05-04T08:14:59.000Z</time>
      </trkpt>
      <trkpt lat="47.41445" lon="6.79817">
        <ele>516.1</ele>
        <time>2014-05-04T08:15:01.000Z</time>
      </trkpt>
      <trkpt lat="47.41443" lon="6.79816">
        <ele>516.2</ele>
        <time>2014-05-04T08:15:02.000Z</time>
      </trkpt>
      <trkpt lat="47.41439" lon="6.79815">
        <ele>517.7</ele>
        <time>2014-05-04T08:15:04.000Z</time>
      </trkpt>
      <trkpt lat="47.41437" lon="6.79815">
        <ele>517.5</ele>
        <time>2014-05-04T08:15:05.000Z</time>
      </trkpt>
      <trkpt lat="47.41434" lon="6.79814">
        <ele>519.1</ele>
        <time>2014-05-04T08:15:07.000Z</time>
      </trkpt>
      <trkpt lat="47.41433" lon="6.79814">
        <ele>519</ele>
        <time>2014-05-04T08:15:08.000Z</time>
      </trkpt>
      <trkpt lat="47.41428" lon="6.79814">
        <ele>520.3</ele>
        <time>2014-05-04T08:15:11.000Z</time>
      </trkpt>
      <trkpt lat="47.41427" lon="6.79814">
        <ele>519.7</ele>
        <time>2014-05-04T08:15:12.000Z</time>
      </trkpt>
      <trkpt lat="47.41423" lon="6.79812">
        <ele>521.1</ele>
        <time>2014-05-04T08:15:15.000Z</time>
      </trkpt>
      <trkpt lat="47.41422" lon="6.79811">
        <ele>520.9</ele>
        <time>2014-05-04T08:15:16.000Z</time>
      </trkpt>
      <trkpt lat="47.41419" lon="6.7981">
        <ele>521.6</ele>
        <time>2014-05-04T08:15:18.000Z</time>
      </trkpt>
      <trkpt lat="47.41417" lon="6.79809">
        <ele>521.7</ele>
        <time>2014-05-04T08:15:19.000Z</time>
      </trkpt>
      <trkpt lat="47.41414" lon="6.79807">
        <ele>521.7</ele>
        <time>2014-05-04T08:15:21.000Z</time>
      </trkpt>
      <trkpt lat="47.41413" lon="6.79807">
        <ele>522.4</ele>
        <time>2014-05-04T08:15:22.000Z</time>
      </trkpt>
      <trkpt lat="47.4141" lon="6.79805">
        <ele>523.9</ele>
        <time>2014-05-04T08:15:24.000Z</time>
      </trkpt>
      <trkpt lat="47.41408" lon="6.79804">
        <ele>524.8</ele>
        <time>2014-05-04T08:15:25.000Z</time>
      </trkpt>
      <trkpt lat="47.41405" lon="6.79803">
        <ele>524.7</ele>
        <time>2014-05-04T08:15:27.000Z</time>
      </trkpt>
      <trkpt lat="47.41404" lon="6.79802">
        <ele>523.8</ele>
        <time>2014-05-04T08:15:28.000Z</time>
      </trkpt>
      <trkpt lat="47.41401" lon="6.798">
        <ele>524.1</ele>
        <time>2014-05-04T08:15:30.000Z</time>
      </trkpt>
      <trkpt lat="47.41399" lon="6.79799">
        <ele>524.4</ele>
        <time>2014-05-04T08:15:31.000Z</time>
      </trkpt>
      <trkpt lat="47.41396" lon="6.79797">
        <ele>524.1</ele>
        <time>2014-05-04T08:15:33.000Z</time>
      </trkpt>
      <trkpt lat="47.41395" lon="6.79796">
        <ele>523.8</ele>
        <time>2014-05-04T08:15:34.000Z</time>
      </trkpt>
      <trkpt lat="47.41391" lon="6.79793">
        <ele>524.1</ele>
        <time>2014-05-04T08:15:37.000Z</time>
      </trkpt>
      <trkpt lat="47.4139" lon="6.79792">
        <ele>524.2</ele>
        <time>2014-05-04T08:15:38.000Z</time>
      </trkpt>
      <trkpt lat="47.41387" lon="6.79789">
        <ele>524.7</ele>
        <time>2014-05-04T08:15:40.000Z</time>
      </trkpt>
      <trkpt lat="47.41386" lon="6.79787">
        <ele>524.6</ele>
        <time>2014-05-04T08:15:41.000Z</time>
      </trkpt>
      <trkpt lat="47.41384" lon="6.79785">
        <ele>525.5</ele>
        <time>2014-05-04T08:15:42.000Z</time>
      </trkpt>
      <trkpt lat="47.41372" lon="6.79774">
        <ele>525.4</ele>
        <time>2014-05-04T08:15:50.000Z</time>
      </trkpt>
      <trkpt lat="47.4137" lon="6.79771">
        <ele>526.7</ele>
        <time>2014-05-04T08:15:58.000Z</time>
      </trkpt>
      <trkpt lat="47.41369" lon="6.79769">
        <ele>526.7</ele>
        <time>2014-05-04T08:15:59.000Z</time>
      </trkpt>
      <trkpt lat="47.41366" lon="6.79767">
        <ele>527</ele>
        <time>2014-05-04T08:16:00.000Z</time>
      </trkpt>
      <trkpt lat="47.41364" lon="6.79766">
        <ele>527.7</ele>
        <time>2014-05-04T08:16:01.000Z</time>
      </trkpt>
      <trkpt lat="47.41362" lon="6.79764">
        <ele>527.5</ele>
        <time>2014-05-04T08:16:02.000Z</time>
      </trkpt>
      <trkpt lat="47.4136" lon="6.79762">
        <ele>527.9</ele>
        <time>2014-05-04T08:16:03.000Z</time>
      </trkpt>
      <trkpt lat="47.41357" lon="6.79761">
        <ele>528.3</ele>
        <time>2014-05-04T08:16:04.000Z</time>
      </trkpt>
      <trkpt lat="47.41355" lon="6.79759">
        <ele>529.3</ele>
        <time>2014-05-04T08:16:05.000Z</time>
      </trkpt>
      <trkpt lat="47.41354" lon="6.79756">
        <ele>529.5</ele>
        <time>2014-05-04T08:16:06.000Z</time>
      </trkpt>
      <trkpt lat="47.41352" lon="6.79753">
        <ele>529.1</ele>
        <time>2014-05-04T08:16:07.000Z</time>
      </trkpt>
      <trkpt lat="47.41351" lon="6.79751">
        <ele>528.9</ele>
        <time>2014-05-04T08:16:08.000Z</time>
      </trkpt>
      <trkpt lat="47.41348" lon="6.79747">
        <ele>529.2</ele>
        <time>2014-05-04T08:16:09.000Z</time>
      </trkpt>
      <trkpt lat="47.41346" lon="6.79744">
        <ele>528.9</ele>
        <time>2014-05-04T08:16:10.000Z</time>
      </trkpt>
      <trkpt lat="47.41343" lon="6.79742">
        <ele>528.6</ele>
        <time>2014-05-04T08:16:11.000Z</time>
      </trkpt>
      <trkpt lat="47.4134" lon="6.7974">
        <ele>528.8</ele>
        <time>2014-05-04T08:16:12.000Z</time>
      </trkpt>
      <trkpt lat="47.41338" lon="6.79737">
        <ele>528.7</ele>
        <time>2014-05-04T08:16:13.000Z</time>
      </trkpt>
      <trkpt lat="47.41335" lon="6.79735">
        <ele>528.7</ele>
        <time>2014-05-04T08:16:14.000Z</time>
      </trkpt>
      <trkpt lat="47.41333" lon="6.79733">
        <ele>528.4</ele>
        <time>2014-05-04T08:16:15.000Z</time>
      </trkpt>
      <trkpt lat="47.4133" lon="6.7973">
        <ele>528</ele>
        <time>2014-05-04T08:16:16.000Z</time>
      </trkpt>
      <trkpt lat="47.41328" lon="6.79727">
        <ele>526.9</ele>
        <time>2014-05-04T08:16:17.000Z</time>
      </trkpt>
      <trkpt lat="47.41326" lon="6.79724">
        <ele>526.4</ele>
        <time>2014-05-04T08:16:18.000Z</time>
      </trkpt>
      <trkpt lat="47.41324" lon="6.79721">
        <ele>526.1</ele>
        <time>2014-05-04T08:16:19.000Z</time>
      </trkpt>
      <trkpt lat="47.41321" lon="6.79717">
        <ele>526.1</ele>
        <time>2014-05-04T08:16:20.000Z</time>
      </trkpt>
      <trkpt lat="47.41318" lon="6.79714">
        <ele>526.3</ele>
        <time>2014-05-04T08:16:21.000Z</time>
      </trkpt>
      <trkpt lat="47.41315" lon="6.79711">
        <ele>526.8</ele>
        <time>2014-05-04T08:16:22.000Z</time>
      </trkpt>
      <trkpt lat="47.41311" lon="6.79709">
        <ele>526.9</ele>
        <time>2014-05-04T08:16:23.000Z</time>
      </trkpt>
      <trkpt lat="47.41308" lon="6.7971">
        <ele>526.3</ele>
        <time>2014-05-04T08:16:28.000Z</time>
      </trkpt>
      <trkpt lat="47.41306" lon="6.79709">
        <ele>525.7</ele>
        <time>2014-05-04T08:16:29.000Z</time>
      </trkpt>
      <trkpt lat="47.41304" lon="6.79707">
        <ele>524.7</ele>
        <time>2014-05-04T08:16:30.000Z</time>
      </trkpt>
      <trkpt lat="47.41301" lon="6.79706">
        <ele>523.9</ele>
        <time>2014-05-04T08:16:31.000Z</time>
      </trkpt>
      <trkpt lat="47.41299" lon="6.79705">
        <ele>523.7</ele>
        <time>2014-05-04T08:16:32.000Z</time>
      </trkpt>
      <trkpt lat="47.41293" lon="6.79706">
        <ele>521.9</ele>
        <time>2014-05-04T08:16:33.000Z</time>
      </trkpt>
      <trkpt lat="47.41289" lon="6.79707">
        <ele>521.3</ele>
        <time>2014-05-04T08:16:34.000Z</time>
      </trkpt>
      <trkpt lat="47.41285" lon="6.79709">
        <ele>520.7</ele>
        <time>2014-05-04T08:16:35.000Z</time>
      </trkpt>
      <trkpt lat="47.41281" lon="6.79711">
        <ele>520.1</ele>
        <time>2014-05-04T08:16:36.000Z</time>
      </trkpt>
      <trkpt lat="47.41278" lon="6.79714">
        <ele>519.3</ele>
        <time>2014-05-04T08:16:37.000Z</time>
      </trkpt>
      <trkpt lat="47.41275" lon="6.79717">
        <ele>519.3</ele>
        <time>2014-05-04T08:16:38.000Z</time>
      </trkpt>
      <trkpt lat="47.41272" lon="6.7972">
        <ele>520.6</ele>
        <time>2014-05-04T08:16:39.000Z</time>
      </trkpt>
      <trkpt lat="47.41269" lon="6.79722">
        <ele>520.6</ele>
        <time>2014-05-04T08:16:40.000Z</time>
      </trkpt>
      <trkpt lat="47.41267" lon="6.79725">
        <ele>520.3</ele>
        <time>2014-05-04T08:16:41.000Z</time>
      </trkpt>
      <trkpt lat="47.41264" lon="6.79728">
        <ele>519.1</ele>
        <time>2014-05-04T08:16:42.000Z</time>
      </trkpt>
      <trkpt lat="47.4126" lon="6.79733">
        <ele>518.6</ele>
        <time>2014-05-04T08:16:50.000Z</time>
      </trkpt>
      <trkpt lat="47.41259" lon="6.79728">
        <ele>513.9</ele>
        <time>2014-05-04T08:19:12.000Z</time>
      </trkpt>
      <trkpt lat="47.41258" lon="6.79725">
        <ele>512.8</ele>
        <time>2014-05-04T08:19:13.000Z</time>
      </trkpt>
      <trkpt lat="47.41256" lon="6.7972">
        <ele>512.2</ele>
        <time>2014-05-04T08:19:15.000Z</time>
      </trkpt>
      <trkpt lat="47.41255" lon="6.79717">
        <ele>511.9</ele>
        <time>2014-05-04T08:19:16.000Z</time>
      </trkpt>
      <trkpt lat="47.41252" lon="6.79712">
        <ele>511.2</ele>
        <time>2014-05-04T08:19:18.000Z</time>
      </trkpt>
      <trkpt lat="47.41251" lon="6.7971">
        <ele>511.5</ele>
        <time>2014-05-04T08:19:19.000Z</time>
      </trkpt>
      <trkpt lat="47.41249" lon="6.79706">
        <ele>512.7</ele>
        <time>2014-05-04T08:19:21.000Z</time>
      </trkpt>
      <trkpt lat="47.41247" lon="6.79704">
        <ele>512</ele>
        <time>2014-05-04T08:19:22.000Z</time>
      </trkpt>
      <trkpt lat="47.41245" lon="6.79702">
        <ele>512.2</ele>
        <time>2014-05-04T08:19:23.000Z</time>
      </trkpt>
      <trkpt lat="47.41243" lon="6.79699">
        <ele>512.5</ele>
        <time>2014-05-04T08:19:24.000Z</time>
      </trkpt>
      <trkpt lat="47.4124" lon="6.79696">
        <ele>515.2</ele>
        <time>2014-05-04T08:19:25.000Z</time>
      </trkpt>
      <trkpt lat="47.41238" lon="6.79692">
        <ele>514.7</ele>
        <time>2014-05-04T08:19:26.000Z</time>
      </trkpt>
      <trkpt lat="47.41235" lon="6.79689">
        <ele>515.9</ele>
        <time>2014-05-04T08:19:27.000Z</time>
      </trkpt>
      <trkpt lat="47.41231" lon="6.79686">
        <ele>516.5</ele>
        <time>2014-05-04T08:19:28.000Z</time>
      </trkpt>
      <trkpt lat="47.41228" lon="6.79683">
        <ele>516.6</ele>
        <time>2014-05-04T08:19:29.000Z</time>
      </trkpt>
      <trkpt lat="47.41224" lon="6.79682">
        <ele>517.5</ele>
        <time>2014-05-04T08:19:30.000Z</time>
      </trkpt>
      <trkpt lat="47.41222" lon="6.79681">
        <ele>517.9</ele>
        <time>2014-05-04T08:19:31.001Z</time>
      </trkpt>
      <trkpt lat="47.41217" lon="6.79681">
        <ele>517.4</ele>
        <time>2014-05-04T08:19:32.000Z</time>
      </trkpt>
      <trkpt lat="47.41213" lon="6.79681">
        <ele>516.1</ele>
        <time>2014-05-04T08:19:33.000Z</time>
      </trkpt>
      <trkpt lat="47.4121" lon="6.79681">
        <ele>515.8</ele>
        <time>2014-05-04T08:19:34.000Z</time>
      </trkpt>
      <trkpt lat="47.41207" lon="6.79681">
        <ele>514.8</ele>
        <time>2014-05-04T08:19:35.000Z</time>
      </trkpt>
      <trkpt lat="47.41204" lon="6.79683">
        <ele>513.8</ele>
        <time>2014-05-04T08:19:36.000Z</time>
      </trkpt>
      <trkpt lat="47.41201" lon="6.79684">
        <ele>513.1</ele>
        <time>2014-05-04T08:19:37.000Z</time>
      </trkpt>
      <trkpt lat="47.41198" lon="6.79686">
        <ele>511.7</ele>
        <time>2014-05-04T08:19:38.000Z</time>
      </trkpt>
      <trkpt lat="47.41195" lon="6.79689">
        <ele>512</ele>
        <time>2014-05-04T08:19:39.000Z</time>
      </trkpt>
      <trkpt lat="47.41189" lon="6.79705">
        <ele>506.2</ele>
        <time>2014-05-04T08:19:40.000Z</time>
      </trkpt>
      <trkpt lat="47.41185" lon="6.79709">
        <ele>505.9</ele>
        <time>2014-05-04T08:19:41.000Z</time>
      </trkpt>
      <trkpt lat="47.41175" lon="6.79721">
        <ele>505.8</ele>
        <time>2014-05-04T08:19:44.000Z</time>
      </trkpt>
      <trkpt lat="47.41172" lon="6.79729">
        <ele>501.5</ele>
        <time>2014-05-04T08:19:45.000Z</time>
      </trkpt>
      <trkpt lat="47.41167" lon="6.79734">
        <ele>501.9</ele>
        <time>2014-05-04T08:19:46.000Z</time>
      </trkpt>
      <trkpt lat="47.41163" lon="6.79739">
        <ele>502.2</ele>
        <time>2014-05-04T08:19:47.000Z</time>
      </trkpt>
      <trkpt lat="47.4116" lon="6.79743">
        <ele>502.3</ele>
        <time>2014-05-04T08:19:48.000Z</time>
      </trkpt>
      <trkpt lat="47.41156" lon="6.79744">
        <ele>501.6</ele>
        <time>2014-05-04T08:19:49.000Z</time>
      </trkpt>
      <trkpt lat="47.41152" lon="6.79748">
        <ele>501.8</ele>
        <time>2014-05-04T08:19:50.000Z</time>
      </trkpt>
      <trkpt lat="47.41149" lon="6.79749">
        <ele>501.9</ele>
        <time>2014-05-04T08:19:51.000Z</time>
      </trkpt>
      <trkpt lat="47.41147" lon="6.79749">
        <ele>501.8</ele>
        <time>2014-05-04T08:19:52.000Z</time>
      </trkpt>
      <trkpt lat="47.41144" lon="6.79753">
        <ele>497.7</ele>
        <time>2014-05-04T08:19:54.000Z</time>
      </trkpt>
      <trkpt lat="47.41143" lon="6.79749">
        <ele>500.8</ele>
        <time>2014-05-04T08:19:55.000Z</time>
      </trkpt>
      <trkpt lat="47.41141" lon="6.79746">
        <ele>503.8</ele>
        <time>2014-05-04T08:19:57.000Z</time>
      </trkpt>
      <trkpt lat="47.4114" lon="6.79743">
        <ele>505.1</ele>
        <time>2014-05-04T08:19:58.000Z</time>
      </trkpt>
      <trkpt lat="47.4114" lon="6.79738">
        <ele>501.5</ele>
        <time>2014-05-04T08:20:00.000Z</time>
      </trkpt>
      <trkpt lat="47.41141" lon="6.79736">
        <ele>499.6</ele>
        <time>2014-05-04T08:20:01.000Z</time>
      </trkpt>
      <trkpt lat="47.41143" lon="6.79733">
        <ele>498.6</ele>
        <time>2014-05-04T08:20:03.000Z</time>
      </trkpt>
      <trkpt lat="47.41145" lon="6.79731">
        <ele>498.6</ele>
        <time>2014-05-04T08:20:04.000Z</time>
      </trkpt>
      <trkpt lat="47.41147" lon="6.79728">
        <ele>503</ele>
        <time>2014-05-04T08:20:05.000Z</time>
      </trkpt>
      <trkpt lat="47.41149" lon="6.79724">
        <ele>504.6</ele>
        <time>2014-05-04T08:20:06.000Z</time>
      </trkpt>
      <trkpt lat="47.4115" lon="6.79721">
        <ele>502.3</ele>
        <time>2014-05-04T08:20:07.000Z</time>
      </trkpt>
      <trkpt lat="47.41151" lon="6.79718">
        <ele>501.7</ele>
        <time>2014-05-04T08:20:08.000Z</time>
      </trkpt>
      <trkpt lat="47.41152" lon="6.79714">
        <ele>499.1</ele>
        <time>2014-05-04T08:20:10.000Z</time>
      </trkpt>
      <trkpt lat="47.41152" lon="6.79711">
        <ele>498.6</ele>
        <time>2014-05-04T08:20:11.000Z</time>
      </trkpt>
      <trkpt lat="47.41151" lon="6.79706">
        <ele>498.9</ele>
        <time>2014-05-04T08:20:13.000Z</time>
      </trkpt>
      <trkpt lat="47.4115" lon="6.79703">
        <ele>497.9</ele>
        <time>2014-05-04T08:20:14.000Z</time>
      </trkpt>
      <trkpt lat="47.41151" lon="6.79697">
        <ele>495.9</ele>
        <time>2014-05-04T08:20:16.000Z</time>
      </trkpt>
      <trkpt lat="47.41152" lon="6.79695">
        <ele>494.8</ele>
        <time>2014-05-04T08:20:17.000Z</time>
      </trkpt>
      <trkpt lat="47.41155" lon="6.7969">
        <ele>493.9</ele>
        <time>2014-05-04T08:20:19.000Z</time>
      </trkpt>
      <trkpt lat="47.41156" lon="6.79687">
        <ele>494.4</ele>
        <time>2014-05-04T08:20:20.000Z</time>
      </trkpt>
      <trkpt lat="47.41157" lon="6.79682">
        <ele>494.7</ele>
        <time>2014-05-04T08:20:22.000Z</time>
      </trkpt>
      <trkpt lat="47.41157" lon="6.7968">
        <ele>497.8</ele>
        <time>2014-05-04T08:20:23.000Z</time>
      </trkpt>
      <trkpt lat="47.41156" lon="6.79676">
        <ele>500.8</ele>
        <time>2014-05-04T08:20:25.000Z</time>
      </trkpt>
      <trkpt lat="47.41156" lon="6.79673">
        <ele>503.3</ele>
        <time>2014-05-04T08:20:26.000Z</time>
      </trkpt>
      <trkpt lat="47.41156" lon="6.79669">
        <ele>505.1</ele>
        <time>2014-05-04T08:20:28.000Z</time>
      </trkpt>
      <trkpt lat="47.41156" lon="6.79667">
        <ele>505.9</ele>
        <time>2014-05-04T08:20:29.001Z</time>
      </trkpt>
      <trkpt lat="47.41157" lon="6.79661">
        <ele>484</ele>
        <time>2014-05-04T08:21:22.000Z</time>
      </trkpt>
      <trkpt lat="47.41158" lon="6.7966">
        <ele>483.1</ele>
        <time>2014-05-04T08:21:23.000Z</time>
      </trkpt>
      <trkpt lat="47.41159" lon="6.79655">
        <ele>479.4</ele>
        <time>2014-05-04T08:21:25.000Z</time>
      </trkpt>
      <trkpt lat="47.4116" lon="6.79652">
        <ele>481.3</ele>
        <time>2014-05-04T08:21:26.000Z</time>
      </trkpt>
      <trkpt lat="47.41162" lon="6.79647">
        <ele>481.7</ele>
        <time>2014-05-04T08:21:28.000Z</time>
      </trkpt>
      <trkpt lat="47.41164" lon="6.79645">
        <ele>479.9</ele>
        <time>2014-05-04T08:21:29.000Z</time>
      </trkpt>
      <trkpt lat="47.41166" lon="6.7964">
        <ele>479.2</ele>
        <time>2014-05-04T08:21:31.000Z</time>
      </trkpt>
      <trkpt lat="47.41167" lon="6.79638">
        <ele>479</ele>
        <time>2014-05-04T08:21:32.000Z</time>
      </trkpt>
      <trkpt lat="47.41168" lon="6.79634">
        <ele>480.1</ele>
        <time>2014-05-04T08:21:33.000Z</time>
      </trkpt>
      <trkpt lat="47.41169" lon="6.79631">
        <ele>479.5</ele>
        <time>2014-05-04T08:21:34.000Z</time>
      </trkpt>
      <trkpt lat="47.4117" lon="6.79628">
        <ele>480.6</ele>
        <time>2014-05-04T08:21:35.000Z</time>
      </trkpt>
      <trkpt lat="47.4117" lon="6.79625">
        <ele>481.1</ele>
        <time>2014-05-04T08:21:35.999Z</time>
      </trkpt>
      <trkpt lat="47.41172" lon="6.79619">
        <ele>480.4</ele>
        <time>2014-05-04T08:21:37.000Z</time>
      </trkpt>
      <trkpt lat="47.41173" lon="6.79615">
        <ele>480.4</ele>
        <time>2014-05-04T08:21:38.000Z</time>
      </trkpt>
      <trkpt lat="47.41174" lon="6.7961">
        <ele>480.6</ele>
        <time>2014-05-04T08:21:39.000Z</time>
      </trkpt>
      <trkpt lat="47.41175" lon="6.79606">
        <ele>483.1</ele>
        <time>2014-05-04T08:21:40.000Z</time>
      </trkpt>
      <trkpt lat="47.41176" lon="6.79602">
        <ele>479.6</ele>
        <time>2014-05-04T08:21:41.000Z</time>
      </trkpt>
      <trkpt lat="47.4118" lon="6.79595">
        <ele>475.2</ele>
        <time>2014-05-04T08:21:44.000Z</time>
      </trkpt>
      <trkpt lat="47.41182" lon="6.79592">
        <ele>474.1</ele>
        <time>2014-05-04T08:21:45.000Z</time>
      </trkpt>
      <trkpt lat="47.41183" lon="6.7959">
        <ele>473.4</ele>
        <time>2014-05-04T08:21:46.000Z</time>
      </trkpt>
      <trkpt lat="47.41185" lon="6.79585">
        <ele>470.1</ele>
        <time>2014-05-04T08:21:48.000Z</time>
      </trkpt>
      <trkpt lat="47.41185" lon="6.79581">
        <ele>468.6</ele>
        <time>2014-05-04T08:21:49.000Z</time>
      </trkpt>
      <trkpt lat="47.41186" lon="6.79577">
        <ele>469.7</ele>
        <time>2014-05-04T08:21:50.000Z</time>
      </trkpt>
      <trkpt lat="47.41188" lon="6.79567">
        <ele>476.4</ele>
        <time>2014-05-04T08:21:51.000Z</time>
      </trkpt>
      <trkpt lat="47.41189" lon="6.79561">
        <ele>477.9</ele>
        <time>2014-05-04T08:21:52.000Z</time>
      </trkpt>
      <trkpt lat="47.4119" lon="6.79556">
        <ele>478.8</ele>
        <time>2014-05-04T08:21:52.998Z</time>
      </trkpt>
      <trkpt lat="47.41191" lon="6.79549">
        <ele>478</ele>
        <time>2014-05-04T08:21:55.000Z</time>
      </trkpt>
      <trkpt lat="47.41191" lon="6.79545">
        <ele>478.4</ele>
        <time>2014-05-04T08:21:56.000Z</time>
      </trkpt>
      <trkpt lat="47.41193" lon="6.79537">
        <ele>482.5</ele>
        <time>2014-05-04T08:21:57.000Z</time>
      </trkpt>
      <trkpt lat="47.41194" lon="6.79533">
        <ele>483.5</ele>
        <time>2014-05-04T08:21:58.000Z</time>
      </trkpt>
      <trkpt lat="47.41194" lon="6.79528">
        <ele>484.8</ele>
        <time>2014-05-04T08:21:59.000Z</time>
      </trkpt>
      <trkpt lat="47.41194" lon="6.79525">
        <ele>486.2</ele>
        <time>2014-05-04T08:21:59.998Z</time>
      </trkpt>
      <trkpt lat="47.41195" lon="6.7952">
        <ele>482</ele>
        <time>2014-05-04T08:22:01.000Z</time>
      </trkpt>
      <trkpt lat="47.41195" lon="6.79517">
        <ele>481.8</ele>
        <time>2014-05-04T08:22:02.000Z</time>
      </trkpt>
      <trkpt lat="47.41195" lon="6.79513">
        <ele>481.8</ele>
        <time>2014-05-04T08:22:03.000Z</time>
      </trkpt>
      <trkpt lat="47.41195" lon="6.79509">
        <ele>477.2</ele>
        <time>2014-05-04T08:22:04.000Z</time>
      </trkpt>
      <trkpt lat="47.41195" lon="6.79504">
        <ele>477</ele>
        <time>2014-05-04T08:22:05.000Z</time>
      </trkpt>
      <trkpt lat="47.41195" lon="6.795">
        <ele>478</ele>
        <time>2014-05-04T08:22:06.000Z</time>
      </trkpt>
      <trkpt lat="47.41196" lon="6.79495">
        <ele>478.3</ele>
        <time>2014-05-04T08:22:07.000Z</time>
      </trkpt>
      <trkpt lat="47.41198" lon="6.79491">
        <ele>479.4</ele>
        <time>2014-05-04T08:22:08.000Z</time>
      </trkpt>
      <trkpt lat="47.41199" lon="6.79487">
        <ele>480</ele>
        <time>2014-05-04T08:22:09.000Z</time>
      </trkpt>
      <trkpt lat="47.412" lon="6.79483">
        <ele>478.1</ele>
        <time>2014-05-04T08:22:10.000Z</time>
      </trkpt>
      <trkpt lat="47.412" lon="6.79479">
        <ele>478.5</ele>
        <time>2014-05-04T08:22:11.000Z</time>
      </trkpt>
      <trkpt lat="47.41199" lon="6.79474">
        <ele>477.6</ele>
        <time>2014-05-04T08:22:12.000Z</time>
      </trkpt>
      <trkpt lat="47.41198" lon="6.7947">
        <ele>477.5</ele>
        <time>2014-05-04T08:22:13.000Z</time>
      </trkpt>
      <trkpt lat="47.41198" lon="6.79464">
        <ele>480.7</ele>
        <time>2014-05-04T08:22:14.000Z</time>
      </trkpt>
      <trkpt lat="47.41197" lon="6.7946">
        <ele>479.3</ele>
        <time>2014-05-04T08:22:15.000Z</time>
      </trkpt>
      <trkpt lat="47.41196" lon="6.79456">
        <ele>480.2</ele>
        <time>2014-05-04T08:22:16.000Z</time>
      </trkpt>
      <trkpt lat="47.41194" lon="6.79452">
        <ele>478.8</ele>
        <time>2014-05-04T08:22:17.000Z</time>
      </trkpt>
      <trkpt lat="47.41193" lon="6.79445">
        <ele>475.4</ele>
        <time>2014-05-04T08:22:21.000Z</time>
      </trkpt>
      <trkpt lat="47.41193" lon="6.79443">
        <ele>477.9</ele>
        <time>2014-05-04T08:22:22.000Z</time>
      </trkpt>
      <trkpt lat="47.41193" lon="6.79439">
        <ele>478.6</ele>
        <time>2014-05-04T08:22:23.000Z</time>
      </trkpt>
      <trkpt lat="47.41194" lon="6.79435">
        <ele>479.2</ele>
        <time>2014-05-04T08:22:24.000Z</time>
      </trkpt>
      <trkpt lat="47.41194" lon="6.79429">
        <ele>479.6</ele>
        <time>2014-05-04T08:22:25.000Z</time>
      </trkpt>
      <trkpt lat="47.41195" lon="6.79424">
        <ele>471.6</ele>
        <time>2014-05-04T08:22:26.000Z</time>
      </trkpt>
      <trkpt lat="47.41195" lon="6.7942">
        <ele>465.9</ele>
        <time>2014-05-04T08:22:27.000Z</time>
      </trkpt>
      <trkpt lat="47.41196" lon="6.79417">
        <ele>465.4</ele>
        <time>2014-05-04T08:22:28.000Z</time>
      </trkpt>
      <trkpt lat="47.41198" lon="6.79412">
        <ele>462.7</ele>
        <time>2014-05-04T08:22:30.000Z</time>
      </trkpt>
      <trkpt lat="47.41198" lon="6.7941">
        <ele>462.8</ele>
        <time>2014-05-04T08:22:31.000Z</time>
      </trkpt>
      <trkpt lat="47.41197" lon="6.79406">
        <ele>457.7</ele>
        <time>2014-05-04T08:22:33.000Z</time>
      </trkpt>
      <trkpt lat="47.41197" lon="6.79403">
        <ele>453.6</ele>
        <time>2014-05-04T08:22:34.000Z</time>
      </trkpt>
      <trkpt lat="47.41197" lon="6.79396">
        <ele>449</ele>
        <time>2014-05-04T08:22:36.000Z</time>
      </trkpt>
      <trkpt lat="47.41197" lon="6.79393">
        <ele>448.3</ele>
        <time>2014-05-04T08:22:37.000Z</time>
      </trkpt>
      <trkpt lat="47.41198" lon="6.7939">
        <ele>449.6</ele>
        <time>2014-05-04T08:22:38.000Z</time>
      </trkpt>
      <trkpt lat="47.41199" lon="6.79386">
        <ele>449.3</ele>
        <time>2014-05-04T08:22:39.000Z</time>
      </trkpt>
      <trkpt lat="47.41199" lon="6.7938">
        <ele>449.7</ele>
        <time>2014-05-04T08:22:41.000Z</time>
      </trkpt>
      <trkpt lat="47.41197" lon="6.79373">
        <ele>448.8</ele>
        <time>2014-05-04T08:22:44.000Z</time>
      </trkpt>
      <trkpt lat="47.41197" lon="6.7937">
        <ele>447.2</ele>
        <time>2014-05-04T08:22:45.000Z</time>
      </trkpt>
      <trkpt lat="47.41199" lon="6.79364">
        <ele>445.6</ele>
        <time>2014-05-04T08:22:46.000Z</time>
      </trkpt>
      <trkpt lat="47.412" lon="6.79359">
        <ele>445.5</ele>
        <time>2014-05-04T08:22:47.000Z</time>
      </trkpt>
      <trkpt lat="47.41202" lon="6.79355">
        <ele>445.2</ele>
        <time>2014-05-04T08:22:48.000Z</time>
      </trkpt>
      <trkpt lat="47.41202" lon="6.79351">
        <ele>445.3</ele>
        <time>2014-05-04T08:22:48.999Z</time>
      </trkpt>
      <trkpt lat="47.41203" lon="6.79345">
        <ele>445.6</ele>
        <time>2014-05-04T08:22:50.000Z</time>
      </trkpt>
      <trkpt lat="47.41204" lon="6.79339">
        <ele>445.8</ele>
        <time>2014-05-04T08:22:51.000Z</time>
      </trkpt>
      <trkpt lat="47.41205" lon="6.79334">
        <ele>444.9</ele>
        <time>2014-05-04T08:22:52.000Z</time>
      </trkpt>
      <trkpt lat="47.41206" lon="6.7933">
        <ele>444.4</ele>
        <time>2014-05-04T08:22:53.000Z</time>
      </trkpt>
      <trkpt lat="47.41207" lon="6.79325">
        <ele>444.6</ele>
        <time>2014-05-04T08:22:54.000Z</time>
      </trkpt>
      <trkpt lat="47.41207" lon="6.79322">
        <ele>444.5</ele>
        <time>2014-05-04T08:22:55.000Z</time>
      </trkpt>
      <trkpt lat="47.41208" lon="6.79318">
        <ele>444.7</ele>
        <time>2014-05-04T08:22:56.000Z</time>
      </trkpt>
      <trkpt lat="47.41209" lon="6.79314">
        <ele>447.5</ele>
        <time>2014-05-04T08:22:57.000Z</time>
      </trkpt>
      <trkpt lat="47.4121" lon="6.79309">
        <ele>448.1</ele>
        <time>2014-05-04T08:22:58.000Z</time>
      </trkpt>
      <trkpt lat="47.41211" lon="6.79303">
        <ele>449.8</ele>
        <time>2014-05-04T08:22:59.000Z</time>
      </trkpt>
      <trkpt lat="47.41213" lon="6.79297">
        <ele>448.1</ele>
        <time>2014-05-04T08:23:00.000Z</time>
      </trkpt>
      <trkpt lat="47.41214" lon="6.79291">
        <ele>448.2</ele>
        <time>2014-05-04T08:23:01.000Z</time>
      </trkpt>
      <trkpt lat="47.41215" lon="6.79286">
        <ele>447.9</ele>
        <time>2014-05-04T08:23:02.000Z</time>
      </trkpt>
      <trkpt lat="47.41215" lon="6.79281">
        <ele>448.2</ele>
        <time>2014-05-04T08:23:03.000Z</time>
      </trkpt>
      <trkpt lat="47.41215" lon="6.79275">
        <ele>448.2</ele>
        <time>2014-05-04T08:23:04.000Z</time>
      </trkpt>
      <trkpt lat="47.41216" lon="6.7927">
        <ele>444.7</ele>
        <time>2014-05-04T08:23:05.000Z</time>
      </trkpt>
      <trkpt lat="47.41217" lon="6.79265">
        <ele>444.4</ele>
        <time>2014-05-04T08:23:06.000Z</time>
      </trkpt>
      <trkpt lat="47.41218" lon="6.79261">
        <ele>443.2</ele>
        <time>2014-05-04T08:23:07.000Z</time>
      </trkpt>
      <trkpt lat="47.41218" lon="6.79258">
        <ele>443.1</ele>
        <time>2014-05-04T08:23:08.000Z</time>
      </trkpt>
      <trkpt lat="47.41218" lon="6.79253">
        <ele>443</ele>
        <time>2014-05-04T08:23:09.000Z</time>
      </trkpt>
      <trkpt lat="47.41217" lon="6.79243">
        <ele>441.5</ele>
        <time>2014-05-04T08:23:10.000Z</time>
      </trkpt>
      <trkpt lat="47.41218" lon="6.79237">
        <ele>439.1</ele>
        <time>2014-05-04T08:23:11.000Z</time>
      </trkpt>
      <trkpt lat="47.41219" lon="6.79227">
        <ele>438.7</ele>
        <time>2014-05-04T08:23:12.000Z</time>
      </trkpt>
      <trkpt lat="47.4122" lon="6.79217">
        <ele>440</ele>
        <time>2014-05-04T08:23:13.000Z</time>
      </trkpt>
      <trkpt lat="47.41221" lon="6.79209">
        <ele>439.9</ele>
        <time>2014-05-04T08:23:13.999Z</time>
      </trkpt>
      <trkpt lat="47.41218" lon="6.792">
        <ele>439.4</ele>
        <time>2014-05-04T08:23:15.000Z</time>
      </trkpt>
      <trkpt lat="47.41218" lon="6.79194">
        <ele>439.4</ele>
        <time>2014-05-04T08:23:16.000Z</time>
      </trkpt>
      <trkpt lat="47.41217" lon="6.79188">
        <ele>439.6</ele>
        <time>2014-05-04T08:23:17.000Z</time>
      </trkpt>
      <trkpt lat="47.41217" lon="6.79177">
        <ele>438.9</ele>
        <time>2014-05-04T08:23:18.000Z</time>
      </trkpt>
      <trkpt lat="47.41217" lon="6.79165">
        <ele>438.4</ele>
        <time>2014-05-04T08:23:19.000Z</time>
      </trkpt>
      <trkpt lat="47.41215" lon="6.79154">
        <ele>442.2</ele>
        <time>2014-05-04T08:23:20.000Z</time>
      </trkpt>
      <trkpt lat="47.41216" lon="6.79145">
        <ele>436.4</ele>
        <time>2014-05-04T08:23:21.000Z</time>
      </trkpt>
      <trkpt lat="47.41218" lon="6.79133">
        <ele>433.9</ele>
        <time>2014-05-04T08:23:22.000Z</time>
      </trkpt>
      <trkpt lat="47.41218" lon="6.79123">
        <ele>432.6</ele>
        <time>2014-05-04T08:23:23.000Z</time>
      </trkpt>
      <trkpt lat="47.41222" lon="6.7911">
        <ele>430.3</ele>
        <time>2014-05-04T08:23:24.000Z</time>
      </trkpt>
      <trkpt lat="47.41223" lon="6.79098">
        <ele>425.5</ele>
        <time>2014-05-04T08:23:25.000Z</time>
      </trkpt>
      <trkpt lat="47.41225" lon="6.79087">
        <ele>422.9</ele>
        <time>2014-05-04T08:23:26.000Z</time>
      </trkpt>
      <trkpt lat="47.41226" lon="6.79076">
        <ele>420.7</ele>
        <time>2014-05-04T08:23:27.000Z</time>
      </trkpt>
      <trkpt lat="47.41228" lon="6.79066">
        <ele>419.4</ele>
        <time>2014-05-04T08:23:28.000Z</time>
      </trkpt>
      <trkpt lat="47.41232" lon="6.79056">
        <ele>415.9</ele>
        <time>2014-05-04T08:23:29.000Z</time>
      </trkpt>
      <trkpt lat="47.41235" lon="6.79046">
        <ele>415</ele>
        <time>2014-05-04T08:23:30.000Z</time>
      </trkpt>
      <trkpt lat="47.41237" lon="6.79036">
        <ele>413</ele>
        <time>2014-05-04T08:23:31.000Z</time>
      </trkpt>
      <trkpt lat="47.41237" lon="6.79028">
        <ele>412.9</ele>
        <time>2014-05-04T08:23:32.000Z</time>
      </trkpt>
      <trkpt lat="47.41238" lon="6.79022">
        <ele>412.4</ele>
        <time>2014-05-04T08:23:33.000Z</time>
      </trkpt>
      <trkpt lat="47.41238" lon="6.79015">
        <ele>411.6</ele>
        <time>2014-05-04T08:23:34.000Z</time>
      </trkpt>
      <trkpt lat="47.41241" lon="6.79004">
        <ele>408.9</ele>
        <time>2014-05-04T08:23:35.000Z</time>
      </trkpt>
      <trkpt lat="47.41235" lon="6.78996">
        <ele>403.1</ele>
        <time>2014-05-04T08:23:36.000Z</time>
      </trkpt>
      <trkpt lat="47.41234" lon="6.78989">
        <ele>401.1</ele>
        <time>2014-05-04T08:23:37.000Z</time>
      </trkpt>
      <trkpt lat="47.41233" lon="6.78983">
        <ele>400.1</ele>
        <time>2014-05-04T08:23:38.000Z</time>
      </trkpt>
      <trkpt lat="47.41231" lon="6.78977">
        <ele>399.1</ele>
        <time>2014-05-04T08:23:39.000Z</time>
      </trkpt>
      <trkpt lat="47.41228" lon="6.78969">
        <ele>397.7</ele>
        <time>2014-05-04T08:23:40.000Z</time>
      </trkpt>
      <trkpt lat="47.41224" lon="6.78962">
        <ele>396.2</ele>
        <time>2014-05-04T08:23:41.000Z</time>
      </trkpt>
      <trkpt lat="47.41218" lon="6.78942">
        <ele>395.1</ele>
        <time>2014-05-04T08:23:44.000Z</time>
      </trkpt>
      <trkpt lat="47.41215" lon="6.78937">
        <ele>394</ele>
        <time>2014-05-04T08:23:45.000Z</time>
      </trkpt>
      <trkpt lat="47.41211" lon="6.78932">
        <ele>394.3</ele>
        <time>2014-05-04T08:23:46.000Z</time>
      </trkpt>
      <trkpt lat="47.41211" lon="6.78927">
        <ele>396.3</ele>
        <time>2014-05-04T08:23:47.000Z</time>
      </trkpt>
      <trkpt lat="47.41209" lon="6.78923">
        <ele>395.5</ele>
        <time>2014-05-04T08:23:48.000Z</time>
      </trkpt>
      <trkpt lat="47.41207" lon="6.7892">
        <ele>396.4</ele>
        <time>2014-05-04T08:23:48.998Z</time>
      </trkpt>
      <trkpt lat="47.41204" lon="6.78913">
        <ele>394.4</ele>
        <time>2014-05-04T08:23:50.000Z</time>
      </trkpt>
      <trkpt lat="47.41201" lon="6.78908">
        <ele>393.4</ele>
        <time>2014-05-04T08:23:51.000Z</time>
      </trkpt>
      <trkpt lat="47.41198" lon="6.78901">
        <ele>393.2</ele>
        <time>2014-05-04T08:23:52.000Z</time>
      </trkpt>
      <trkpt lat="47.41195" lon="6.78897">
        <ele>391.4</ele>
        <time>2014-05-04T08:23:53.000Z</time>
      </trkpt>
      <trkpt lat="47.41191" lon="6.78891">
        <ele>386.4</ele>
        <time>2014-05-04T08:23:54.000Z</time>
      </trkpt>
      <trkpt lat="47.41187" lon="6.78886">
        <ele>386.3</ele>
        <time>2014-05-04T08:23:55.000Z</time>
      </trkpt>
      <trkpt lat="47.41183" lon="6.78882">
        <ele>385.9</ele>
        <time>2014-05-04T08:23:56.000Z</time>
      </trkpt>
      <trkpt lat="47.41179" lon="6.78878">
        <ele>386</ele>
        <time>2014-05-04T08:23:57.000Z</time>
      </trkpt>
      <trkpt lat="47.41175" lon="6.78875">
        <ele>383.6</ele>
        <time>2014-05-04T08:23:58.000Z</time>
      </trkpt>
      <trkpt lat="47.41171" lon="6.78872">
        <ele>387.4</ele>
        <time>2014-05-04T08:23:59.000Z</time>
      </trkpt>
      <trkpt lat="47.41167" lon="6.78869">
        <ele>388.1</ele>
        <time>2014-05-04T08:24:00.000Z</time>
      </trkpt>
      <trkpt lat="47.41164" lon="6.78866">
        <ele>388</ele>
        <time>2014-05-04T08:24:02.000Z</time>
      </trkpt>
      <trkpt lat="47.41162" lon="6.78865">
        <ele>385.5</ele>
        <time>2014-05-04T08:24:03.000Z</time>
      </trkpt>
      <trkpt lat="47.41159" lon="6.78866">
        <ele>388.1</ele>
        <time>2014-05-04T08:24:10.000Z</time>
      </trkpt>
      <trkpt lat="47.41157" lon="6.78865">
        <ele>389.2</ele>
        <time>2014-05-04T08:24:11.000Z</time>
      </trkpt>
      <trkpt lat="47.41154" lon="6.7886">
        <ele>387.9</ele>
        <time>2014-05-04T08:24:18.000Z</time>
      </trkpt>
      <trkpt lat="47.41154" lon="6.7886">
        <ele>387.6</ele>
        <time>2014-05-04T08:24:19.000Z</time>
      </trkpt>
      <trkpt lat="47.41154" lon="6.78855">
        <ele>385.6</ele>
        <time>2014-05-04T08:24:21.000Z</time>
      </trkpt>
      <trkpt lat="47.41155" lon="6.78851">
        <ele>384.1</ele>
        <time>2014-05-04T08:24:22.000Z</time>
      </trkpt>
      <trkpt lat="47.41156" lon="6.78846">
        <ele>382.9</ele>
        <time>2014-05-04T08:24:23.000Z</time>
      </trkpt>
      <trkpt lat="47.4116" lon="6.78837">
        <ele>380.6</ele>
        <time>2014-05-04T08:24:24.000Z</time>
      </trkpt>
      <trkpt lat="47.41162" lon="6.7883">
        <ele>379.3</ele>
        <time>2014-05-04T08:24:25.000Z</time>
      </trkpt>
      <trkpt lat="47.41166" lon="6.78826">
        <ele>378.1</ele>
        <time>2014-05-04T08:24:26.000Z</time>
      </trkpt>
      <trkpt lat="47.41168" lon="6.78822">
        <ele>375.8</ele>
        <time>2014-05-04T08:24:27.000Z</time>
      </trkpt>
      <trkpt lat="47.41172" lon="6.7882">
        <ele>374.6</ele>
        <time>2014-05-04T08:24:28.000Z</time>
      </trkpt>
      <trkpt lat="47.41174" lon="6.78818">
        <ele>371.8</ele>
        <time>2014-05-04T08:24:29.000Z</time>
      </trkpt>
      <trkpt lat="47.41177" lon="6.78813">
        <ele>372.5</ele>
        <time>2014-05-04T08:24:30.000Z</time>
      </trkpt>
      <trkpt lat="47.41179" lon="6.78803">
        <ele>368.6</ele>
        <time>2014-05-04T08:24:31.000Z</time>
      </trkpt>
      <trkpt lat="47.41181" lon="6.78795">
        <ele>365.9</ele>
        <time>2014-05-04T08:24:32.000Z</time>
      </trkpt>
      <trkpt lat="47.41182" lon="6.78787">
        <ele>362.6</ele>
        <time>2014-05-04T08:24:33.000Z</time>
      </trkpt>
      <trkpt lat="47.41183" lon="6.7878">
        <ele>360.8</ele>
        <time>2014-05-04T08:24:34.000Z</time>
      </trkpt>
      <trkpt lat="47.41184" lon="6.78772">
        <ele>361.7</ele>
        <time>2014-05-04T08:24:35.000Z</time>
      </trkpt>
      <trkpt lat="47.41186" lon="6.78764">
        <ele>361.4</ele>
        <time>2014-05-04T08:24:36.000Z</time>
      </trkpt>
      <trkpt lat="47.41186" lon="6.78756">
        <ele>362.4</ele>
        <time>2014-05-04T08:24:37.000Z</time>
      </trkpt>
      <trkpt lat="47.41186" lon="6.7875">
        <ele>362.7</ele>
        <time>2014-05-04T08:24:38.000Z</time>
      </trkpt>
      <trkpt lat="47.41186" lon="6.78743">
        <ele>362.5</ele>
        <time>2014-05-04T08:24:39.000Z</time>
      </trkpt>
      <trkpt lat="47.41182" lon="6.78734">
        <ele>358.7</ele>
        <time>2014-05-04T08:24:40.000Z</time>
      </trkpt>
      <trkpt lat="47.41181" lon="6.78729">
        <ele>359.1</ele>
        <time>2014-05-04T08:24:41.000Z</time>
      </trkpt>
      <trkpt lat="47.41179" lon="6.78722">
        <ele>359.4</ele>
        <time>2014-05-04T08:24:44.000Z</time>
      </trkpt>
      <trkpt lat="47.41179" lon="6.78719">
        <ele>359.6</ele>
        <time>2014-05-04T08:25:39.000Z</time>
      </trkpt>
      <trkpt lat="47.41178" lon="6.78716">
        <ele>359.4</ele>
        <time>2014-05-04T08:25:40.000Z</time>
      </trkpt>
      <trkpt lat="47.41177" lon="6.78712">
        <ele>359.6</ele>
        <time>2014-05-04T08:25:41.000Z</time>
      </trkpt>
      <trkpt lat="47.41175" lon="6.78702">
        <ele>359.3</ele>
        <time>2014-05-04T08:25:44.000Z</time>
      </trkpt>
      <trkpt lat="47.41175" lon="6.78698">
        <ele>359.8</ele>
        <time>2014-05-04T08:25:45.000Z</time>
      </trkpt>
      <trkpt lat="47.41173" lon="6.78694">
        <ele>359.7</ele>
        <time>2014-05-04T08:25:46.000Z</time>
      </trkpt>
      <trkpt lat="47.41172" lon="6.7869">
        <ele>359.3</ele>
        <time>2014-05-04T08:25:47.000Z</time>
      </trkpt>
      <trkpt lat="47.41171" lon="6.78686">
        <ele>359.7</ele>
        <time>2014-05-04T08:25:48.000Z</time>
      </trkpt>
      <trkpt lat="47.41169" lon="6.78681">
        <ele>360</ele>
        <time>2014-05-04T08:25:49.000Z</time>
      </trkpt>
      <trkpt lat="47.41168" lon="6.78677">
        <ele>360.8</ele>
        <time>2014-05-04T08:25:50.000Z</time>
      </trkpt>
      <trkpt lat="47.41166" lon="6.78673">
        <ele>360.4</ele>
        <time>2014-05-04T08:25:51.000Z</time>
      </trkpt>
      <trkpt lat="47.41164" lon="6.78668">
        <ele>360.3</ele>
        <time>2014-05-04T08:25:52.000Z</time>
      </trkpt>
      <trkpt lat="47.41163" lon="6.78664">
        <ele>360.2</ele>
        <time>2014-05-04T08:25:53.000Z</time>
      </trkpt>
      <trkpt lat="47.41161" lon="6.7866">
        <ele>360.4</ele>
        <time>2014-05-04T08:25:54.000Z</time>
      </trkpt>
      <trkpt lat="47.4116" lon="6.78656">
        <ele>360.3</ele>
        <time>2014-05-04T08:25:55.000Z</time>
      </trkpt>
      <trkpt lat="47.41159" lon="6.78652">
        <ele>360.2</ele>
        <time>2014-05-04T08:25:56.000Z</time>
      </trkpt>
      <trkpt lat="47.41158" lon="6.78647">
        <ele>360.3</ele>
        <time>2014-05-04T08:25:57.000Z</time>
      </trkpt>
      <trkpt lat="47.41157" lon="6.78642">
        <ele>360</ele>
        <time>2014-05-04T08:25:58.000Z</time>
      </trkpt>
      <trkpt lat="47.41156" lon="6.78637">
        <ele>360.2</ele>
        <time>2014-05-04T08:25:59.000Z</time>
      </trkpt>
      <trkpt lat="47.41155" lon="6.78632">
        <ele>359.2</ele>
        <time>2014-05-04T08:26:00.000Z</time>
      </trkpt>
      <trkpt lat="47.41154" lon="6.78627">
        <ele>359.3</ele>
        <time>2014-05-04T08:26:01.000Z</time>
      </trkpt>
      <trkpt lat="47.41153" lon="6.78623">
        <ele>360.2</ele>
        <time>2014-05-04T08:26:02.000Z</time>
      </trkpt>
      <trkpt lat="47.41152" lon="6.78619">
        <ele>359.3</ele>
        <time>2014-05-04T08:26:03.000Z</time>
      </trkpt>
      <trkpt lat="47.41152" lon="6.78614">
        <ele>359</ele>
        <time>2014-05-04T08:26:04.000Z</time>
      </trkpt>
      <trkpt lat="47.41151" lon="6.7861">
        <ele>359.1</ele>
        <time>2014-05-04T08:26:05.000Z</time>
      </trkpt>
      <trkpt lat="47.4115" lon="6.78605">
        <ele>359.9</ele>
        <time>2014-05-04T08:26:06.000Z</time>
      </trkpt>
      <trkpt lat="47.4115" lon="6.786">
        <ele>359.3</ele>
        <time>2014-05-04T08:26:07.000Z</time>
      </trkpt>
      <trkpt lat="47.41149" lon="6.78595">
        <ele>354.5</ele>
        <time>2014-05-04T08:26:08.000Z</time>
      </trkpt>
      <trkpt lat="47.41148" lon="6.7859">
        <ele>355</ele>
        <time>2014-05-04T08:26:09.000Z</time>
      </trkpt>
      <trkpt lat="47.41147" lon="6.78585">
        <ele>355.5</ele>
        <time>2014-05-04T08:26:10.000Z</time>
      </trkpt>
      <trkpt lat="47.41145" lon="6.78581">
        <ele>355.8</ele>
        <time>2014-05-04T08:26:11.000Z</time>
      </trkpt>
      <trkpt lat="47.41144" lon="6.78577">
        <ele>355.6</ele>
        <time>2014-05-04T08:26:12.000Z</time>
      </trkpt>
      <trkpt lat="47.41143" lon="6.78573">
        <ele>356</ele>
        <time>2014-05-04T08:26:13.000Z</time>
      </trkpt>
      <trkpt lat="47.41142" lon="6.78569">
        <ele>355.6</ele>
        <time>2014-05-04T08:26:14.000Z</time>
      </trkpt>
      <trkpt lat="47.41141" lon="6.78565">
        <ele>356.1</ele>
        <time>2014-05-04T08:26:15.000Z</time>
      </trkpt>
      <trkpt lat="47.4114" lon="6.7856">
        <ele>355.3</ele>
        <time>2014-05-04T08:26:16.000Z</time>
      </trkpt>
      <trkpt lat="47.41139" lon="6.78557">
        <ele>355.6</ele>
        <time>2014-05-04T08:26:17.000Z</time>
      </trkpt>
      <trkpt lat="47.41138" lon="6.78552">
        <ele>355</ele>
        <time>2014-05-04T08:26:18.000Z</time>
      </trkpt>
      <trkpt lat="47.41137" lon="6.78547">
        <ele>355.7</ele>
        <time>2014-05-04T08:26:19.000Z</time>
      </trkpt>
      <trkpt lat="47.41137" lon="6.78542">
        <ele>355.5</ele>
        <time>2014-05-04T08:26:20.000Z</time>
      </trkpt>
      <trkpt lat="47.41137" lon="6.78536">
        <ele>355.9</ele>
        <time>2014-05-04T08:26:21.000Z</time>
      </trkpt>
      <trkpt lat="47.41137" lon="6.7853">
        <ele>355.1</ele>
        <time>2014-05-04T08:26:22.000Z</time>
      </trkpt>
      <trkpt lat="47.41136" lon="6.78524">
        <ele>355.3</ele>
        <time>2014-05-04T08:26:23.000Z</time>
      </trkpt>
      <trkpt lat="47.41136" lon="6.78519">
        <ele>356.3</ele>
        <time>2014-05-04T08:26:24.000Z</time>
      </trkpt>
      <trkpt lat="47.41135" lon="6.78515">
        <ele>356.4</ele>
        <time>2014-05-04T08:26:25.000Z</time>
      </trkpt>
      <trkpt lat="47.41135" lon="6.78511">
        <ele>357.1</ele>
        <time>2014-05-04T08:26:26.000Z</time>
      </trkpt>
      <trkpt lat="47.41134" lon="6.78507">
        <ele>356.3</ele>
        <time>2014-05-04T08:26:27.000Z</time>
      </trkpt>
      <trkpt lat="47.41134" lon="6.78503">
        <ele>356</ele>
        <time>2014-05-04T08:26:28.000Z</time>
      </trkpt>
      <trkpt lat="47.41134" lon="6.78498">
        <ele>354.3</ele>
        <time>2014-05-04T08:26:29.000Z</time>
      </trkpt>
      <trkpt lat="47.41133" lon="6.78494">
        <ele>354.8</ele>
        <time>2014-05-04T08:26:30.000Z</time>
      </trkpt>
      <trkpt lat="47.41132" lon="6.7849">
        <ele>355.6</ele>
        <time>2014-05-04T08:26:31.000Z</time>
      </trkpt>
      <trkpt lat="47.41132" lon="6.78486">
        <ele>355.2</ele>
        <time>2014-05-04T08:26:32.000Z</time>
      </trkpt>
      <trkpt lat="47.41131" lon="6.78482">
        <ele>355.1</ele>
        <time>2014-05-04T08:26:33.000Z</time>
      </trkpt>
      <trkpt lat="47.41131" lon="6.78477">
        <ele>355.3</ele>
        <time>2014-05-04T08:26:34.000Z</time>
      </trkpt>
      <trkpt lat="47.41131" lon="6.78472">
        <ele>355.4</ele>
        <time>2014-05-04T08:26:35.000Z</time>
      </trkpt>
      <trkpt lat="47.41131" lon="6.78466">
        <ele>355.2</ele>
        <time>2014-05-04T08:26:36.000Z</time>
      </trkpt>
      <trkpt lat="47.41131" lon="6.78461">
        <ele>355.8</ele>
        <time>2014-05-04T08:26:37.000Z</time>
      </trkpt>
      <trkpt lat="47.41131" lon="6.78455">
        <ele>355.9</ele>
        <time>2014-05-04T08:26:38.000Z</time>
      </trkpt>
      <trkpt lat="47.4113" lon="6.78449">
        <ele>355.1</ele>
        <time>2014-05-04T08:26:39.000Z</time>
      </trkpt>
      <trkpt lat="47.4113" lon="6.78444">
        <ele>354.4</ele>
        <time>2014-05-04T08:26:40.000Z</time>
      </trkpt>
      <trkpt lat="47.41129" lon="6.78439">
        <ele>354.1</ele>
        <time>2014-05-04T08:26:41.000Z</time>
      </trkpt>
      <trkpt lat="47.41129" lon="6.78425">
        <ele>353.2</ele>
        <time>2014-05-04T08:26:44.000Z</time>
      </trkpt>
      <trkpt lat="47.41129" lon="6.78421">
        <ele>352.3</ele>
        <time>2014-05-04T08:26:45.000Z</time>
      </trkpt>
      <trkpt lat="47.41129" lon="6.78417">
        <ele>352.2</ele>
        <time>2014-05-04T08:26:46.000Z</time>
      </trkpt>
      <trkpt lat="47.4113" lon="6.78412">
        <ele>351.7</ele>
        <time>2014-05-04T08:26:47.000Z</time>
      </trkpt>
      <trkpt lat="47.4113" lon="6.78407">
        <ele>350.1</ele>
        <time>2014-05-04T08:26:48.000Z</time>
      </trkpt>
      <trkpt lat="47.41131" lon="6.78402">
        <ele>350.1</ele>
        <time>2014-05-04T08:26:49.000Z</time>
      </trkpt>
      <trkpt lat="47.41131" lon="6.78397">
        <ele>350.4</ele>
        <time>2014-05-04T08:26:50.000Z</time>
      </trkpt>
      <trkpt lat="47.41131" lon="6.78393">
        <ele>350.6</ele>
        <time>2014-05-04T08:26:51.000Z</time>
      </trkpt>
      <trkpt lat="47.41131" lon="6.78389">
        <ele>352.7</ele>
        <time>2014-05-04T08:26:52.000Z</time>
      </trkpt>
      <trkpt lat="47.41131" lon="6.78385">
        <ele>355.6</ele>
        <time>2014-05-04T08:26:53.000Z</time>
      </trkpt>
      <trkpt lat="47.41132" lon="6.78381">
        <ele>355.4</ele>
        <time>2014-05-04T08:26:54.000Z</time>
      </trkpt>
      <trkpt lat="47.41132" lon="6.78377">
        <ele>356.3</ele>
        <time>2014-05-04T08:26:55.000Z</time>
      </trkpt>
      <trkpt lat="47.41132" lon="6.78372">
        <ele>355.9</ele>
        <time>2014-05-04T08:26:56.000Z</time>
      </trkpt>
      <trkpt lat="47.41132" lon="6.78367">
        <ele>356</ele>
        <time>2014-05-04T08:26:57.000Z</time>
      </trkpt>
      <trkpt lat="47.41131" lon="6.78362">
        <ele>357.4</ele>
        <time>2014-05-04T08:26:58.000Z</time>
      </trkpt>
      <trkpt lat="47.41131" lon="6.78357">
        <ele>357</ele>
        <time>2014-05-04T08:26:59.000Z</time>
      </trkpt>
      <trkpt lat="47.41131" lon="6.78351">
        <ele>353.9</ele>
        <time>2014-05-04T08:27:00.000Z</time>
      </trkpt>
      <trkpt lat="47.4113" lon="6.78345">
        <ele>353.9</ele>
        <time>2014-05-04T08:27:01.000Z</time>
      </trkpt>
      <trkpt lat="47.41129" lon="6.7834">
        <ele>356</ele>
        <time>2014-05-04T08:27:02.000Z</time>
      </trkpt>
      <trkpt lat="47.41128" lon="6.78335">
        <ele>356.6</ele>
        <time>2014-05-04T08:27:03.000Z</time>
      </trkpt>
      <trkpt lat="47.41128" lon="6.7833">
        <ele>357.2</ele>
        <time>2014-05-04T08:27:04.000Z</time>
      </trkpt>
      <trkpt lat="47.41128" lon="6.78325">
        <ele>356.4</ele>
        <time>2014-05-04T08:27:05.000Z</time>
      </trkpt>
      <trkpt lat="47.41128" lon="6.7832">
        <ele>354.5</ele>
        <time>2014-05-04T08:27:06.000Z</time>
      </trkpt>
      <trkpt lat="47.41128" lon="6.78315">
        <ele>354.2</ele>
        <time>2014-05-04T08:27:07.000Z</time>
      </trkpt>
      <trkpt lat="47.41129" lon="6.78309">
        <ele>353.9</ele>
        <time>2014-05-04T08:27:08.000Z</time>
      </trkpt>
      <trkpt lat="47.41129" lon="6.78302">
        <ele>354.1</ele>
        <time>2014-05-04T08:27:09.000Z</time>
      </trkpt>
      <trkpt lat="47.4113" lon="6.78296">
        <ele>355</ele>
        <time>2014-05-04T08:27:10.000Z</time>
      </trkpt>
      <trkpt lat="47.41131" lon="6.78289">
        <ele>355.3</ele>
        <time>2014-05-04T08:27:11.000Z</time>
      </trkpt>
      <trkpt lat="47.41132" lon="6.78282">
        <ele>355</ele>
        <time>2014-05-04T08:27:12.000Z</time>
      </trkpt>
      <trkpt lat="47.41132" lon="6.78276">
        <ele>354.3</ele>
        <time>2014-05-04T08:27:13.000Z</time>
      </trkpt>
      <trkpt lat="47.41132" lon="6.7827">
        <ele>353.7</ele>
        <time>2014-05-04T08:27:14.000Z</time>
      </trkpt>
      <trkpt lat="47.41132" lon="6.78264">
        <ele>349.1</ele>
        <time>2014-05-04T08:27:15.000Z</time>
      </trkpt>
      <trkpt lat="47.41132" lon="6.78258">
        <ele>349.1</ele>
        <time>2014-05-04T08:27:16.000Z</time>
      </trkpt>
      <trkpt lat="47.41133" lon="6.78252">
        <ele>348.5</ele>
        <time>2014-05-04T08:27:17.000Z</time>
      </trkpt>
      <trkpt lat="47.41133" lon="6.78247">
        <ele>348.6</ele>
        <time>2014-05-04T08:27:18.000Z</time>
      </trkpt>
      <trkpt lat="47.41133" lon="6.78241">
        <ele>348.5</ele>
        <time>2014-05-04T08:27:19.000Z</time>
      </trkpt>
      <trkpt lat="47.41132" lon="6.78235">
        <ele>347.8</ele>
        <time>2014-05-04T08:27:20.000Z</time>
      </trkpt>
      <trkpt lat="47.41131" lon="6.7823">
        <ele>347.8</ele>
        <time>2014-05-04T08:27:21.000Z</time>
      </trkpt>
      <trkpt lat="47.4113" lon="6.78224">
        <ele>348</ele>
        <time>2014-05-04T08:27:22.000Z</time>
      </trkpt>
      <trkpt lat="47.41129" lon="6.78218">
        <ele>349.1</ele>
        <time>2014-05-04T08:27:23.000Z</time>
      </trkpt>
      <trkpt lat="47.41129" lon="6.78213">
        <ele>349.9</ele>
        <time>2014-05-04T08:27:24.000Z</time>
      </trkpt>
      <trkpt lat="47.41128" lon="6.78207">
        <ele>349.7</ele>
        <time>2014-05-04T08:27:25.000Z</time>
      </trkpt>
      <trkpt lat="47.41127" lon="6.78201">
        <ele>349.3</ele>
        <time>2014-05-04T08:27:26.000Z</time>
      </trkpt>
      <trkpt lat="47.41126" lon="6.78195">
        <ele>348.9</ele>
        <time>2014-05-04T08:27:27.000Z</time>
      </trkpt>
      <trkpt lat="47.41125" lon="6.78189">
        <ele>348.8</ele>
        <time>2014-05-04T08:27:28.000Z</time>
      </trkpt>
      <trkpt lat="47.41125" lon="6.78183">
        <ele>348.7</ele>
        <time>2014-05-04T08:27:29.000Z</time>
      </trkpt>
      <trkpt lat="47.41124" lon="6.78177">
        <ele>348.5</ele>
        <time>2014-05-04T08:27:30.000Z</time>
      </trkpt>
      <trkpt lat="47.41124" lon="6.78171">
        <ele>348.8</ele>
        <time>2014-05-04T08:27:31.000Z</time>
      </trkpt>
      <trkpt lat="47.41123" lon="6.78164">
        <ele>348.7</ele>
        <time>2014-05-04T08:27:32.000Z</time>
      </trkpt>
      <trkpt lat="47.41122" lon="6.78158">
        <ele>348.8</ele>
        <time>2014-05-04T08:27:33.000Z</time>
      </trkpt>
      <trkpt lat="47.41121" lon="6.78152">
        <ele>348.5</ele>
        <time>2014-05-04T08:27:34.000Z</time>
      </trkpt>
      <trkpt lat="47.4112" lon="6.78146">
        <ele>348.2</ele>
        <time>2014-05-04T08:27:35.000Z</time>
      </trkpt>
      <trkpt lat="47.41119" lon="6.7814">
        <ele>347.7</ele>
        <time>2014-05-04T08:27:36.000Z</time>
      </trkpt>
      <trkpt lat="47.41118" lon="6.78133">
        <ele>347.1</ele>
        <time>2014-05-04T08:27:37.000Z</time>
      </trkpt>
      <trkpt lat="47.41117" lon="6.78127">
        <ele>345.1</ele>
        <time>2014-05-04T08:27:38.000Z</time>
      </trkpt>
      <trkpt lat="47.41116" lon="6.78121">
        <ele>345.1</ele>
        <time>2014-05-04T08:27:39.000Z</time>
      </trkpt>
      <trkpt lat="47.41115" lon="6.78115">
        <ele>344.8</ele>
        <time>2014-05-04T08:27:40.000Z</time>
      </trkpt>
      <trkpt lat="47.41114" lon="6.78109">
        <ele>344.9</ele>
        <time>2014-05-04T08:27:41.000Z</time>
      </trkpt>
      <trkpt lat="47.41111" lon="6.7809">
        <ele>345.2</ele>
        <time>2014-05-04T08:27:44.000Z</time>
      </trkpt>
      <trkpt lat="47.4111" lon="6.78083">
        <ele>345.1</ele>
        <time>2014-05-04T08:27:45.000Z</time>
      </trkpt>
      <trkpt lat="47.4111" lon="6.78077">
        <ele>346.5</ele>
        <time>2014-05-04T08:27:46.000Z</time>
      </trkpt>
      <trkpt lat="47.41109" lon="6.78071">
        <ele>347.1</ele>
        <time>2014-05-04T08:27:47.000Z</time>
      </trkpt>
      <trkpt lat="47.41107" lon="6.78064">
        <ele>347.7</ele>
        <time>2014-05-04T08:27:48.000Z</time>
      </trkpt>
      <trkpt lat="47.41106" lon="6.78057">
        <ele>347.2</ele>
        <time>2014-05-04T08:27:49.000Z</time>
      </trkpt>
      <trkpt lat="47.41105" lon="6.78051">
        <ele>348.1</ele>
        <time>2014-05-04T08:27:50.000Z</time>
      </trkpt>
      <trkpt lat="47.41104" lon="6.78045">
        <ele>348.6</ele>
        <time>2014-05-04T08:27:51.000Z</time>
      </trkpt>
      <trkpt lat="47.41103" lon="6.78038">
        <ele>348.3</ele>
        <time>2014-05-04T08:27:52.000Z</time>
      </trkpt>
      <trkpt lat="47.41101" lon="6.78032">
        <ele>348.4</ele>
        <time>2014-05-04T08:27:53.000Z</time>
      </trkpt>
      <trkpt lat="47.41099" lon="6.78026">
        <ele>348.5</ele>
        <time>2014-05-04T08:27:54.000Z</time>
      </trkpt>
      <trkpt lat="47.41097" lon="6.78019">
        <ele>348</ele>
        <time>2014-05-04T08:27:55.000Z</time>
      </trkpt>
      <trkpt lat="47.41095" lon="6.78013">
        <ele>348.2</ele>
        <time>2014-05-04T08:27:56.000Z</time>
      </trkpt>
      <trkpt lat="47.41094" lon="6.78008">
        <ele>348.5</ele>
        <time>2014-05-04T08:27:57.000Z</time>
      </trkpt>
      <trkpt lat="47.41092" lon="6.78002">
        <ele>348.4</ele>
        <time>2014-05-04T08:27:58.000Z</time>
      </trkpt>
      <trkpt lat="47.41091" lon="6.77996">
        <ele>348.7</ele>
        <time>2014-05-04T08:27:59.000Z</time>
      </trkpt>
      <trkpt lat="47.41089" lon="6.7799">
        <ele>348.8</ele>
        <time>2014-05-04T08:28:00.000Z</time>
      </trkpt>
      <trkpt lat="47.41088" lon="6.77984">
        <ele>348.9</ele>
        <time>2014-05-04T08:28:01.000Z</time>
      </trkpt>
      <trkpt lat="47.41086" lon="6.77979">
        <ele>348.1</ele>
        <time>2014-05-04T08:28:02.000Z</time>
      </trkpt>
      <trkpt lat="47.41085" lon="6.77973">
        <ele>348.4</ele>
        <time>2014-05-04T08:28:03.000Z</time>
      </trkpt>
      <trkpt lat="47.41083" lon="6.77966">
        <ele>348.3</ele>
        <time>2014-05-04T08:28:04.000Z</time>
      </trkpt>
      <trkpt lat="47.41081" lon="6.77961">
        <ele>348.9</ele>
        <time>2014-05-04T08:28:05.000Z</time>
      </trkpt>
      <trkpt lat="47.41079" lon="6.77954">
        <ele>348.3</ele>
        <time>2014-05-04T08:28:06.000Z</time>
      </trkpt>
      <trkpt lat="47.41078" lon="6.77948">
        <ele>348.2</ele>
        <time>2014-05-04T08:28:07.000Z</time>
      </trkpt>
      <trkpt lat="47.41076" lon="6.77942">
        <ele>348.2</ele>
        <time>2014-05-04T08:28:08.000Z</time>
      </trkpt>
      <trkpt lat="47.41075" lon="6.77935">
        <ele>348.4</ele>
        <time>2014-05-04T08:28:09.000Z</time>
      </trkpt>
      <trkpt lat="47.41074" lon="6.77929">
        <ele>348.7</ele>
        <time>2014-05-04T08:28:10.000Z</time>
      </trkpt>
      <trkpt lat="47.41072" lon="6.77924">
        <ele>350.1</ele>
        <time>2014-05-04T08:28:11.000Z</time>
      </trkpt>
      <trkpt lat="47.41069" lon="6.77917">
        <ele>348.9</ele>
        <time>2014-05-04T08:28:12.000Z</time>
      </trkpt>
      <trkpt lat="47.41067" lon="6.77911">
        <ele>348.4</ele>
        <time>2014-05-04T08:28:13.000Z</time>
      </trkpt>
      <trkpt lat="47.41065" lon="6.77905">
        <ele>349.1</ele>
        <time>2014-05-04T08:28:14.000Z</time>
      </trkpt>
      <trkpt lat="47.41063" lon="6.77899">
        <ele>349.4</ele>
        <time>2014-05-04T08:28:15.000Z</time>
      </trkpt>
      <trkpt lat="47.4106" lon="6.77893">
        <ele>349.3</ele>
        <time>2014-05-04T08:28:16.000Z</time>
      </trkpt>
      <trkpt lat="47.41058" lon="6.77888">
        <ele>348.1</ele>
        <time>2014-05-04T08:28:17.000Z</time>
      </trkpt>
      <trkpt lat="47.41056" lon="6.77882">
        <ele>347.4</ele>
        <time>2014-05-04T08:28:18.000Z</time>
      </trkpt>
      <trkpt lat="47.41053" lon="6.77877">
        <ele>347.9</ele>
        <time>2014-05-04T08:28:19.000Z</time>
      </trkpt>
      <trkpt lat="47.41051" lon="6.77872">
        <ele>348.4</ele>
        <time>2014-05-04T08:28:20.000Z</time>
      </trkpt>
      <trkpt lat="47.41049" lon="6.77865">
        <ele>349.3</ele>
        <time>2014-05-04T08:28:21.000Z</time>
      </trkpt>
      <trkpt lat="47.41048" lon="6.77862">
        <ele>349.7</ele>
        <time>2014-05-04T08:28:22.000Z</time>
      </trkpt>
      <trkpt lat="47.41044" lon="6.77856">
        <ele>350.5</ele>
        <time>2014-05-04T08:28:23.000Z</time>
      </trkpt>
      <trkpt lat="47.41042" lon="6.77852">
        <ele>350.9</ele>
        <time>2014-05-04T08:28:24.000Z</time>
      </trkpt>
      <trkpt lat="47.41039" lon="6.77848">
        <ele>352.8</ele>
        <time>2014-05-04T08:28:25.000Z</time>
      </trkpt>
      <trkpt lat="47.41036" lon="6.77842">
        <ele>353</ele>
        <time>2014-05-04T08:28:26.000Z</time>
      </trkpt>
      <trkpt lat="47.41033" lon="6.77839">
        <ele>353.2</ele>
        <time>2014-05-04T08:28:27.000Z</time>
      </trkpt>
      <trkpt lat="47.4103" lon="6.77835">
        <ele>353.3</ele>
        <time>2014-05-04T08:28:28.000Z</time>
      </trkpt>
      <trkpt lat="47.41027" lon="6.7783">
        <ele>354.1</ele>
        <time>2014-05-04T08:28:29.000Z</time>
      </trkpt>
      <trkpt lat="47.41024" lon="6.77823">
        <ele>354.6</ele>
        <time>2014-05-04T08:28:30.000Z</time>
      </trkpt>
      <trkpt lat="47.41021" lon="6.77819">
        <ele>353.7</ele>
        <time>2014-05-04T08:28:31.000Z</time>
      </trkpt>
      <trkpt lat="47.41018" lon="6.77815">
        <ele>353.8</ele>
        <time>2014-05-04T08:28:32.000Z</time>
      </trkpt>
      <trkpt lat="47.41013" lon="6.77811">
        <ele>354.2</ele>
        <time>2014-05-04T08:28:33.000Z</time>
      </trkpt>
      <trkpt lat="47.4101" lon="6.77806">
        <ele>353.9</ele>
        <time>2014-05-04T08:28:34.000Z</time>
      </trkpt>
      <trkpt lat="47.41007" lon="6.77802">
        <ele>354.1</ele>
        <time>2014-05-04T08:28:35.000Z</time>
      </trkpt>
      <trkpt lat="47.41005" lon="6.77797">
        <ele>354.3</ele>
        <time>2014-05-04T08:28:36.000Z</time>
      </trkpt>
      <trkpt lat="47.41002" lon="6.77792">
        <ele>354.1</ele>
        <time>2014-05-04T08:28:37.000Z</time>
      </trkpt>
      <trkpt lat="47.40999" lon="6.77788">
        <ele>353.7</ele>
        <time>2014-05-04T08:28:38.000Z</time>
      </trkpt>
      <trkpt lat="47.40997" lon="6.77784">
        <ele>353.6</ele>
        <time>2014-05-04T08:28:39.000Z</time>
      </trkpt>
      <trkpt lat="47.40994" lon="6.7778">
        <ele>353.1</ele>
        <time>2014-05-04T08:28:40.000Z</time>
      </trkpt>
      <trkpt lat="47.40998" lon="6.77772">
        <ele>353.7</ele>
        <time>2014-05-04T08:28:41.000Z</time>
      </trkpt>
      <trkpt lat="47.41003" lon="6.77756">
        <ele>349</ele>
        <time>2014-05-04T08:28:44.000Z</time>
      </trkpt>
      <trkpt lat="47.41007" lon="6.77751">
        <ele>348.2</ele>
        <time>2014-05-04T08:28:45.000Z</time>
      </trkpt>
      <trkpt lat="47.41009" lon="6.77747">
        <ele>346.7</ele>
        <time>2014-05-04T08:28:46.000Z</time>
      </trkpt>
      <trkpt lat="47.41012" lon="6.77742">
        <ele>346</ele>
        <time>2014-05-04T08:28:47.000Z</time>
      </trkpt>
      <trkpt lat="47.41015" lon="6.77736">
        <ele>345.2</ele>
        <time>2014-05-04T08:28:48.000Z</time>
      </trkpt>
      <trkpt lat="47.41019" lon="6.77731">
        <ele>345</ele>
        <time>2014-05-04T08:28:49.000Z</time>
      </trkpt>
      <trkpt lat="47.41022" lon="6.77725">
        <ele>344.3</ele>
        <time>2014-05-04T08:28:50.000Z</time>
      </trkpt>
      <trkpt lat="47.41026" lon="6.77719">
        <ele>343.9</ele>
        <time>2014-05-04T08:28:51.000Z</time>
      </trkpt>
      <trkpt lat="47.41029" lon="6.77714">
        <ele>344.6</ele>
        <time>2014-05-04T08:28:52.000Z</time>
      </trkpt>
      <trkpt lat="47.41033" lon="6.77709">
        <ele>345.1</ele>
        <time>2014-05-04T08:28:53.000Z</time>
      </trkpt>
      <trkpt lat="47.41037" lon="6.77705">
        <ele>345.1</ele>
        <time>2014-05-04T08:28:54.000Z</time>
      </trkpt>
      <trkpt lat="47.4104" lon="6.777">
        <ele>345.5</ele>
        <time>2014-05-04T08:28:55.000Z</time>
      </trkpt>
      <trkpt lat="47.41045" lon="6.77695">
        <ele>345.7</ele>
        <time>2014-05-04T08:28:56.000Z</time>
      </trkpt>
      <trkpt lat="47.41049" lon="6.77687">
        <ele>345.5</ele>
        <time>2014-05-04T08:28:57.000Z</time>
      </trkpt>
      <trkpt lat="47.41053" lon="6.77682">
        <ele>344.4</ele>
        <time>2014-05-04T08:28:58.000Z</time>
      </trkpt>
      <trkpt lat="47.41057" lon="6.77676">
        <ele>344</ele>
        <time>2014-05-04T08:28:59.000Z</time>
      </trkpt>
      <trkpt lat="47.41061" lon="6.77671">
        <ele>343</ele>
        <time>2014-05-04T08:29:00.000Z</time>
      </trkpt>
      <trkpt lat="47.41065" lon="6.77666">
        <ele>343.2</ele>
        <time>2014-05-04T08:29:01.000Z</time>
      </trkpt>
      <trkpt lat="47.4107" lon="6.77658">
        <ele>342.7</ele>
        <time>2014-05-04T08:29:02.000Z</time>
      </trkpt>
      <trkpt lat="47.41074" lon="6.77654">
        <ele>342.3</ele>
        <time>2014-05-04T08:29:03.000Z</time>
      </trkpt>
      <trkpt lat="47.41078" lon="6.77648">
        <ele>342.8</ele>
        <time>2014-05-04T08:29:04.000Z</time>
      </trkpt>
      <trkpt lat="47.41081" lon="6.77645">
        <ele>343</ele>
        <time>2014-05-04T08:29:05.000Z</time>
      </trkpt>
      <trkpt lat="47.41086" lon="6.77641">
        <ele>342.5</ele>
        <time>2014-05-04T08:29:06.000Z</time>
      </trkpt>
      <trkpt lat="47.4109" lon="6.77636">
        <ele>342.9</ele>
        <time>2014-05-04T08:29:07.000Z</time>
      </trkpt>
      <trkpt lat="47.41093" lon="6.77633">
        <ele>342.9</ele>
        <time>2014-05-04T08:29:08.000Z</time>
      </trkpt>
      <trkpt lat="47.41097" lon="6.77628">
        <ele>343</ele>
        <time>2014-05-04T08:29:09.000Z</time>
      </trkpt>
      <trkpt lat="47.41101" lon="6.77624">
        <ele>346.5</ele>
        <time>2014-05-04T08:29:10.000Z</time>
      </trkpt>
      <trkpt lat="47.41105" lon="6.7762">
        <ele>348.4</ele>
        <time>2014-05-04T08:29:11.000Z</time>
      </trkpt>
      <trkpt lat="47.41108" lon="6.77615">
        <ele>347.4</ele>
        <time>2014-05-04T08:29:12.000Z</time>
      </trkpt>
      <trkpt lat="47.41112" lon="6.77612">
        <ele>346.9</ele>
        <time>2014-05-04T08:29:13.000Z</time>
      </trkpt>
      <trkpt lat="47.41115" lon="6.77608">
        <ele>346.9</ele>
        <time>2014-05-04T08:29:14.000Z</time>
      </trkpt>
      <trkpt lat="47.41118" lon="6.77604">
        <ele>347.5</ele>
        <time>2014-05-04T08:29:15.000Z</time>
      </trkpt>
      <trkpt lat="47.4112" lon="6.77601">
        <ele>347.2</ele>
        <time>2014-05-04T08:29:16.000Z</time>
      </trkpt>
      <trkpt lat="47.41123" lon="6.77598">
        <ele>348</ele>
        <time>2014-05-04T08:29:17.000Z</time>
      </trkpt>
      <trkpt lat="47.41126" lon="6.77596">
        <ele>348.4</ele>
        <time>2014-05-04T08:29:18.000Z</time>
      </trkpt>
      <trkpt lat="47.41129" lon="6.77595">
        <ele>348.2</ele>
        <time>2014-05-04T08:29:19.000Z</time>
      </trkpt>
      <trkpt lat="47.41133" lon="6.77595">
        <ele>348</ele>
        <time>2014-05-04T08:29:20.000Z</time>
      </trkpt>
      <trkpt lat="47.41136" lon="6.77597">
        <ele>346.8</ele>
        <time>2014-05-04T08:29:21.000Z</time>
      </trkpt>
      <trkpt lat="47.4114" lon="6.77599">
        <ele>346.5</ele>
        <time>2014-05-04T08:29:22.000Z</time>
      </trkpt>
      <trkpt lat="47.41144" lon="6.77602">
        <ele>346.8</ele>
        <time>2014-05-04T08:29:23.000Z</time>
      </trkpt>
      <trkpt lat="47.41147" lon="6.77605">
        <ele>346.8</ele>
        <time>2014-05-04T08:29:24.000Z</time>
      </trkpt>
      <trkpt lat="47.41151" lon="6.77609">
        <ele>347</ele>
        <time>2014-05-04T08:29:25.000Z</time>
      </trkpt>
      <trkpt lat="47.41155" lon="6.77613">
        <ele>347.3</ele>
        <time>2014-05-04T08:29:26.000Z</time>
      </trkpt>
      <trkpt lat="47.41158" lon="6.77617">
        <ele>347.5</ele>
        <time>2014-05-04T08:29:27.000Z</time>
      </trkpt>
      <trkpt lat="47.41162" lon="6.77621">
        <ele>346.6</ele>
        <time>2014-05-04T08:29:28.000Z</time>
      </trkpt>
      <trkpt lat="47.41165" lon="6.77626">
        <ele>346.5</ele>
        <time>2014-05-04T08:29:29.000Z</time>
      </trkpt>
      <trkpt lat="47.41169" lon="6.7763">
        <ele>346.8</ele>
        <time>2014-05-04T08:29:30.000Z</time>
      </trkpt>
      <trkpt lat="47.41173" lon="6.77633">
        <ele>346.1</ele>
        <time>2014-05-04T08:29:31.000Z</time>
      </trkpt>
      <trkpt lat="47.41177" lon="6.77639">
        <ele>345.4</ele>
        <time>2014-05-04T08:29:32.000Z</time>
      </trkpt>
      <trkpt lat="47.41181" lon="6.77643">
        <ele>345.4</ele>
        <time>2014-05-04T08:29:33.000Z</time>
      </trkpt>
      <trkpt lat="47.41184" lon="6.77647">
        <ele>345.5</ele>
        <time>2014-05-04T08:29:34.000Z</time>
      </trkpt>
      <trkpt lat="47.41188" lon="6.77651">
        <ele>345.4</ele>
        <time>2014-05-04T08:29:35.000Z</time>
      </trkpt>
      <trkpt lat="47.41191" lon="6.77654">
        <ele>345.7</ele>
        <time>2014-05-04T08:29:36.000Z</time>
      </trkpt>
      <trkpt lat="47.41194" lon="6.77657">
        <ele>345.3</ele>
        <time>2014-05-04T08:29:37.000Z</time>
      </trkpt>
      <trkpt lat="47.41199" lon="6.77661">
        <ele>345.8</ele>
        <time>2014-05-04T08:29:38.000Z</time>
      </trkpt>
      <trkpt lat="47.41203" lon="6.77666">
        <ele>345.4</ele>
        <time>2014-05-04T08:29:39.000Z</time>
      </trkpt>
      <trkpt lat="47.41208" lon="6.77671">
        <ele>344.9</ele>
        <time>2014-05-04T08:29:40.000Z</time>
      </trkpt>
      <trkpt lat="47.41212" lon="6.77675">
        <ele>345.4</ele>
        <time>2014-05-04T08:29:41.000Z</time>
      </trkpt>
      <trkpt lat="47.41224" lon="6.77687">
        <ele>345</ele>
        <time>2014-05-04T08:29:44.000Z</time>
      </trkpt>
      <trkpt lat="47.41228" lon="6.7769">
        <ele>345.4</ele>
        <time>2014-05-04T08:29:45.000Z</time>
      </trkpt>
      <trkpt lat="47.41231" lon="6.77695">
        <ele>344.8</ele>
        <time>2014-05-04T08:29:46.000Z</time>
      </trkpt>
      <trkpt lat="47.41235" lon="6.77699">
        <ele>344.2</ele>
        <time>2014-05-04T08:29:47.000Z</time>
      </trkpt>
      <trkpt lat="47.41238" lon="6.77703">
        <ele>343.9</ele>
        <time>2014-05-04T08:29:48.000Z</time>
      </trkpt>
      <trkpt lat="47.41241" lon="6.77708">
        <ele>343.2</ele>
        <time>2014-05-04T08:29:49.000Z</time>
      </trkpt>
      <trkpt lat="47.41246" lon="6.77714">
        <ele>342.9</ele>
        <time>2014-05-04T08:29:50.000Z</time>
      </trkpt>
      <trkpt lat="47.41249" lon="6.77719">
        <ele>342.7</ele>
        <time>2014-05-04T08:29:51.000Z</time>
      </trkpt>
      <trkpt lat="47.41252" lon="6.77723">
        <ele>342.8</ele>
        <time>2014-05-04T08:29:52.000Z</time>
      </trkpt>
      <trkpt lat="47.41256" lon="6.77729">
        <ele>342.6</ele>
        <time>2014-05-04T08:29:53.000Z</time>
      </trkpt>
      <trkpt lat="47.41259" lon="6.77733">
        <ele>342.4</ele>
        <time>2014-05-04T08:29:54.000Z</time>
      </trkpt>
      <trkpt lat="47.41264" lon="6.77738">
        <ele>342.4</ele>
        <time>2014-05-04T08:29:55.000Z</time>
      </trkpt>
      <trkpt lat="47.41268" lon="6.77743">
        <ele>342.3</ele>
        <time>2014-05-04T08:29:56.000Z</time>
      </trkpt>
      <trkpt lat="47.41271" lon="6.77747">
        <ele>342.5</ele>
        <time>2014-05-04T08:29:57.000Z</time>
      </trkpt>
      <trkpt lat="47.41276" lon="6.77753">
        <ele>341.8</ele>
        <time>2014-05-04T08:29:58.000Z</time>
      </trkpt>
      <trkpt lat="47.4128" lon="6.77758">
        <ele>341.9</ele>
        <time>2014-05-04T08:29:59.000Z</time>
      </trkpt>
      <trkpt lat="47.41284" lon="6.77764">
        <ele>342.1</ele>
        <time>2014-05-04T08:30:00.000Z</time>
      </trkpt>
      <trkpt lat="47.41286" lon="6.77769">
        <ele>341.6</ele>
        <time>2014-05-04T08:30:01.000Z</time>
      </trkpt>
      <trkpt lat="47.41288" lon="6.77775">
        <ele>342</ele>
        <time>2014-05-04T08:30:02.000Z</time>
      </trkpt>
      <trkpt lat="47.41291" lon="6.7778">
        <ele>341.3</ele>
        <time>2014-05-04T08:30:03.000Z</time>
      </trkpt>
      <trkpt lat="47.41294" lon="6.77787">
        <ele>341.1</ele>
        <time>2014-05-04T08:30:04.000Z</time>
      </trkpt>
      <trkpt lat="47.41297" lon="6.77794">
        <ele>341.6</ele>
        <time>2014-05-04T08:30:05.000Z</time>
      </trkpt>
      <trkpt lat="47.413" lon="6.778">
        <ele>341.5</ele>
        <time>2014-05-04T08:30:06.000Z</time>
      </trkpt>
      <trkpt lat="47.41303" lon="6.77807">
        <ele>342.4</ele>
        <time>2014-05-04T08:30:07.000Z</time>
      </trkpt>
      <trkpt lat="47.41306" lon="6.77815">
        <ele>342.4</ele>
        <time>2014-05-04T08:30:08.000Z</time>
      </trkpt>
      <trkpt lat="47.41308" lon="6.77821">
        <ele>342.5</ele>
        <time>2014-05-04T08:30:09.000Z</time>
      </trkpt>
      <trkpt lat="47.4131" lon="6.77827">
        <ele>342</ele>
        <time>2014-05-04T08:30:10.000Z</time>
      </trkpt>
      <trkpt lat="47.41313" lon="6.77834">
        <ele>342.9</ele>
        <time>2014-05-04T08:30:11.000Z</time>
      </trkpt>
      <trkpt lat="47.41316" lon="6.7784">
        <ele>342.8</ele>
        <time>2014-05-04T08:30:12.000Z</time>
      </trkpt>
      <trkpt lat="47.41319" lon="6.77847">
        <ele>343.6</ele>
        <time>2014-05-04T08:30:13.000Z</time>
      </trkpt>
      <trkpt lat="47.41321" lon="6.77854">
        <ele>344</ele>
        <time>2014-05-04T08:30:14.000Z</time>
      </trkpt>
      <trkpt lat="47.41324" lon="6.77861">
        <ele>343.7</ele>
        <time>2014-05-04T08:30:15.000Z</time>
      </trkpt>
      <trkpt lat="47.41326" lon="6.77867">
        <ele>343.5</ele>
        <time>2014-05-04T08:30:16.000Z</time>
      </trkpt>
      <trkpt lat="47.41329" lon="6.77874">
        <ele>342.8</ele>
        <time>2014-05-04T08:30:17.000Z</time>
      </trkpt>
      <trkpt lat="47.41331" lon="6.7788">
        <ele>342.6</ele>
        <time>2014-05-04T08:30:18.000Z</time>
      </trkpt>
      <trkpt lat="47.41334" lon="6.77885">
        <ele>343.1</ele>
        <time>2014-05-04T08:30:19.000Z</time>
      </trkpt>
      <trkpt lat="47.41336" lon="6.7789">
        <ele>343.6</ele>
        <time>2014-05-04T08:30:20.000Z</time>
      </trkpt>
      <trkpt lat="47.41339" lon="6.77897">
        <ele>343.7</ele>
        <time>2014-05-04T08:30:21.000Z</time>
      </trkpt>
      <trkpt lat="47.41342" lon="6.77902">
        <ele>343.5</ele>
        <time>2014-05-04T08:30:22.000Z</time>
      </trkpt>
      <trkpt lat="47.41346" lon="6.77906">
        <ele>343.3</ele>
        <time>2014-05-04T08:30:23.000Z</time>
      </trkpt>
      <trkpt lat="47.4135" lon="6.77908">
        <ele>343.4</ele>
        <time>2014-05-04T08:30:24.000Z</time>
      </trkpt>
      <trkpt lat="47.41354" lon="6.77908">
        <ele>342.7</ele>
        <time>2014-05-04T08:30:25.000Z</time>
      </trkpt>
      <trkpt lat="47.4136" lon="6.77904">
        <ele>343.6</ele>
        <time>2014-05-04T08:30:26.000Z</time>
      </trkpt>
      <trkpt lat="47.41363" lon="6.77899">
        <ele>343</ele>
        <time>2014-05-04T08:30:27.000Z</time>
      </trkpt>
      <trkpt lat="47.41366" lon="6.77893">
        <ele>343.3</ele>
        <time>2014-05-04T08:30:28.000Z</time>
      </trkpt>
      <trkpt lat="47.41369" lon="6.77885">
        <ele>343.7</ele>
        <time>2014-05-04T08:30:29.000Z</time>
      </trkpt>
      <trkpt lat="47.41372" lon="6.77878">
        <ele>343.8</ele>
        <time>2014-05-04T08:30:30.000Z</time>
      </trkpt>
      <trkpt lat="47.41375" lon="6.77872">
        <ele>344.1</ele>
        <time>2014-05-04T08:30:31.000Z</time>
      </trkpt>
      <trkpt lat="47.41377" lon="6.77867">
        <ele>344.6</ele>
        <time>2014-05-04T08:30:32.000Z</time>
      </trkpt>
      <trkpt lat="47.4138" lon="6.7786">
        <ele>345.6</ele>
        <time>2014-05-04T08:30:33.000Z</time>
      </trkpt>
      <trkpt lat="47.41383" lon="6.77853">
        <ele>345.5</ele>
        <time>2014-05-04T08:30:34.000Z</time>
      </trkpt>
      <trkpt lat="47.41386" lon="6.77847">
        <ele>345.6</ele>
        <time>2014-05-04T08:30:35.000Z</time>
      </trkpt>
      <trkpt lat="47.41389" lon="6.7784">
        <ele>346.3</ele>
        <time>2014-05-04T08:30:36.000Z</time>
      </trkpt>
      <trkpt lat="47.41391" lon="6.77832">
        <ele>345.7</ele>
        <time>2014-05-04T08:30:37.000Z</time>
      </trkpt>
      <trkpt lat="47.41394" lon="6.77826">
        <ele>344.4</ele>
        <time>2014-05-04T08:30:38.000Z</time>
      </trkpt>
      <trkpt lat="47.41396" lon="6.7782">
        <ele>344.7</ele>
        <time>2014-05-04T08:30:39.000Z</time>
      </trkpt>
      <trkpt lat="47.41399" lon="6.77813">
        <ele>344.5</ele>
        <time>2014-05-04T08:30:40.000Z</time>
      </trkpt>
      <trkpt lat="47.41402" lon="6.77807">
        <ele>344.7</ele>
        <time>2014-05-04T08:30:41.000Z</time>
      </trkpt>
      <trkpt lat="47.41409" lon="6.77791">
        <ele>346.7</ele>
        <time>2014-05-04T08:30:44.000Z</time>
      </trkpt>
      <trkpt lat="47.41411" lon="6.77785">
        <ele>346.4</ele>
        <time>2014-05-04T08:30:45.000Z</time>
      </trkpt>
      <trkpt lat="47.41414" lon="6.77778">
        <ele>346.6</ele>
        <time>2014-05-04T08:30:46.000Z</time>
      </trkpt>
      <trkpt lat="47.41417" lon="6.77771">
        <ele>346.9</ele>
        <time>2014-05-04T08:30:47.000Z</time>
      </trkpt>
      <trkpt lat="47.41419" lon="6.77766">
        <ele>347.4</ele>
        <time>2014-05-04T08:30:48.000Z</time>
      </trkpt>
      <trkpt lat="47.4142" lon="6.7776">
        <ele>346.3</ele>
        <time>2014-05-04T08:30:49.000Z</time>
      </trkpt>
      <trkpt lat="47.41422" lon="6.77754">
        <ele>347.2</ele>
        <time>2014-05-04T08:30:50.000Z</time>
      </trkpt>
      <trkpt lat="47.41425" lon="6.77748">
        <ele>348</ele>
        <time>2014-05-04T08:30:51.000Z</time>
      </trkpt>
      <trkpt lat="47.41426" lon="6.77742">
        <ele>348.4</ele>
        <time>2014-05-04T08:30:52.000Z</time>
      </trkpt>
      <trkpt lat="47.41428" lon="6.77737">
        <ele>349.3</ele>
        <time>2014-05-04T08:30:53.000Z</time>
      </trkpt>
      <trkpt lat="47.41429" lon="6.77733">
        <ele>349.1</ele>
        <time>2014-05-04T08:30:54.000Z</time>
      </trkpt>
      <trkpt lat="47.41431" lon="6.7773">
        <ele>348.8</ele>
        <time>2014-05-04T08:30:55.000Z</time>
      </trkpt>
      <trkpt lat="47.41433" lon="6.77726">
        <ele>348.1</ele>
        <time>2014-05-04T08:30:56.000Z</time>
      </trkpt>
      <trkpt lat="47.41434" lon="6.77722">
        <ele>350.5</ele>
        <time>2014-05-04T08:30:58.000Z</time>
      </trkpt>
      <trkpt lat="47.41435" lon="6.77719">
        <ele>351.6</ele>
        <time>2014-05-04T08:30:59.000Z</time>
      </trkpt>
      <trkpt lat="47.41435" lon="6.77715">
        <ele>351</ele>
        <time>2014-05-04T08:31:00.000Z</time>
      </trkpt>
      <trkpt lat="47.41436" lon="6.77711">
        <ele>351.4</ele>
        <time>2014-05-04T08:31:01.000Z</time>
      </trkpt>
      <trkpt lat="47.41436" lon="6.777">
        <ele>352.1</ele>
        <time>2014-05-04T08:31:02.000Z</time>
      </trkpt>
      <trkpt lat="47.41437" lon="6.77693">
        <ele>350.6</ele>
        <time>2014-05-04T08:31:03.000Z</time>
      </trkpt>
      <trkpt lat="47.41438" lon="6.77686">
        <ele>349.2</ele>
        <time>2014-05-04T08:31:04.000Z</time>
      </trkpt>
      <trkpt lat="47.4144" lon="6.7768">
        <ele>349.5</ele>
        <time>2014-05-04T08:31:05.000Z</time>
      </trkpt>
      <trkpt lat="47.41441" lon="6.77672">
        <ele>347.9</ele>
        <time>2014-05-04T08:31:06.000Z</time>
      </trkpt>
      <trkpt lat="47.41442" lon="6.77668">
        <ele>348.5</ele>
        <time>2014-05-04T08:31:07.000Z</time>
      </trkpt>
      <trkpt lat="47.41445" lon="6.77663">
        <ele>348.5</ele>
        <time>2014-05-04T08:31:08.000Z</time>
      </trkpt>
      <trkpt lat="47.41446" lon="6.77659">
        <ele>349.2</ele>
        <time>2014-05-04T08:31:09.000Z</time>
      </trkpt>
      <trkpt lat="47.41447" lon="6.77655">
        <ele>348.2</ele>
        <time>2014-05-04T08:31:10.000Z</time>
      </trkpt>
      <trkpt lat="47.41448" lon="6.7765">
        <ele>347.6</ele>
        <time>2014-05-04T08:31:11.000Z</time>
      </trkpt>
      <trkpt lat="47.41449" lon="6.77645">
        <ele>347.1</ele>
        <time>2014-05-04T08:31:12.000Z</time>
      </trkpt>
      <trkpt lat="47.41451" lon="6.7764">
        <ele>347.1</ele>
        <time>2014-05-04T08:31:13.000Z</time>
      </trkpt>
      <trkpt lat="47.41452" lon="6.77636">
        <ele>346.4</ele>
        <time>2014-05-04T08:31:14.000Z</time>
      </trkpt>
      <trkpt lat="47.41454" lon="6.77632">
        <ele>347.2</ele>
        <time>2014-05-04T08:31:15.000Z</time>
      </trkpt>
      <trkpt lat="47.41456" lon="6.77627">
        <ele>346.8</ele>
        <time>2014-05-04T08:31:16.000Z</time>
      </trkpt>
      <trkpt lat="47.41457" lon="6.77623">
        <ele>346.7</ele>
        <time>2014-05-04T08:31:17.000Z</time>
      </trkpt>
      <trkpt lat="47.41459" lon="6.77619">
        <ele>346.8</ele>
        <time>2014-05-04T08:31:18.000Z</time>
      </trkpt>
      <trkpt lat="47.41461" lon="6.77615">
        <ele>346.7</ele>
        <time>2014-05-04T08:31:19.000Z</time>
      </trkpt>
      <trkpt lat="47.41464" lon="6.77611">
        <ele>346.2</ele>
        <time>2014-05-04T08:31:20.000Z</time>
      </trkpt>
      <trkpt lat="47.41468" lon="6.77608">
        <ele>346.3</ele>
        <time>2014-05-04T08:31:21.000Z</time>
      </trkpt>
      <trkpt lat="47.41474" lon="6.77607">
        <ele>345.8</ele>
        <time>2014-05-04T08:31:22.000Z</time>
      </trkpt>
      <trkpt lat="47.41479" lon="6.77605">
        <ele>345.9</ele>
        <time>2014-05-04T08:31:23.000Z</time>
      </trkpt>
      <trkpt lat="47.41483" lon="6.77603">
        <ele>345.8</ele>
        <time>2014-05-04T08:31:24.000Z</time>
      </trkpt>
      <trkpt lat="47.41487" lon="6.77602">
        <ele>345.8</ele>
        <time>2014-05-04T08:31:25.000Z</time>
      </trkpt>
      <trkpt lat="47.41492" lon="6.77601">
        <ele>345.9</ele>
        <time>2014-05-04T08:31:26.000Z</time>
      </trkpt>
      <trkpt lat="47.41497" lon="6.77601">
        <ele>346</ele>
        <time>2014-05-04T08:31:27.000Z</time>
      </trkpt>
      <trkpt lat="47.41502" lon="6.776">
        <ele>346.5</ele>
        <time>2014-05-04T08:31:28.000Z</time>
      </trkpt>
      <trkpt lat="47.41507" lon="6.776">
        <ele>346.4</ele>
        <time>2014-05-04T08:31:29.000Z</time>
      </trkpt>
      <trkpt lat="47.41511" lon="6.77599">
        <ele>346.9</ele>
        <time>2014-05-04T08:31:30.000Z</time>
      </trkpt>
      <trkpt lat="47.41516" lon="6.77598">
        <ele>347.4</ele>
        <time>2014-05-04T08:31:31.000Z</time>
      </trkpt>
      <trkpt lat="47.41521" lon="6.77598">
        <ele>347.2</ele>
        <time>2014-05-04T08:31:32.000Z</time>
      </trkpt>
      <trkpt lat="47.41526" lon="6.77597">
        <ele>345.8</ele>
        <time>2014-05-04T08:31:33.000Z</time>
      </trkpt>
      <trkpt lat="47.41531" lon="6.77597">
        <ele>346</ele>
        <time>2014-05-04T08:31:34.000Z</time>
      </trkpt>
      <trkpt lat="47.41535" lon="6.77596">
        <ele>346.3</ele>
        <time>2014-05-04T08:31:34.999Z</time>
      </trkpt>
      <trkpt lat="47.4154" lon="6.77596">
        <ele>346.2</ele>
        <time>2014-05-04T08:31:36.000Z</time>
      </trkpt>
      <trkpt lat="47.41545" lon="6.77595">
        <ele>346.1</ele>
        <time>2014-05-04T08:31:37.000Z</time>
      </trkpt>
      <trkpt lat="47.41549" lon="6.77596">
        <ele>345.5</ele>
        <time>2014-05-04T08:31:38.000Z</time>
      </trkpt>
      <trkpt lat="47.41554" lon="6.77597">
        <ele>345.9</ele>
        <time>2014-05-04T08:31:39.000Z</time>
      </trkpt>
      <trkpt lat="47.41559" lon="6.77597">
        <ele>346</ele>
        <time>2014-05-04T08:31:40.000Z</time>
      </trkpt>
      <trkpt lat="47.41563" lon="6.77597">
        <ele>346</ele>
        <time>2014-05-04T08:31:41.000Z</time>
      </trkpt>
      <trkpt lat="47.41576" lon="6.77599">
        <ele>346.4</ele>
        <time>2014-05-04T08:31:44.000Z</time>
      </trkpt>
      <trkpt lat="47.41581" lon="6.77601">
        <ele>346.3</ele>
        <time>2014-05-04T08:31:45.000Z</time>
      </trkpt>
      <trkpt lat="47.41586" lon="6.77602">
        <ele>346.7</ele>
        <time>2014-05-04T08:31:46.000Z</time>
      </trkpt>
      <trkpt lat="47.41591" lon="6.77605">
        <ele>346.4</ele>
        <time>2014-05-04T08:31:47.000Z</time>
      </trkpt>
      <trkpt lat="47.41596" lon="6.77607">
        <ele>346.9</ele>
        <time>2014-05-04T08:31:48.000Z</time>
      </trkpt>
      <trkpt lat="47.416" lon="6.77608">
        <ele>346.9</ele>
        <time>2014-05-04T08:31:49.000Z</time>
      </trkpt>
      <trkpt lat="47.41605" lon="6.7761">
        <ele>346.7</ele>
        <time>2014-05-04T08:31:50.000Z</time>
      </trkpt>
      <trkpt lat="47.41609" lon="6.77612">
        <ele>348.3</ele>
        <time>2014-05-04T08:31:51.000Z</time>
      </trkpt>
      <trkpt lat="47.41614" lon="6.77615">
        <ele>347.4</ele>
        <time>2014-05-04T08:31:52.000Z</time>
      </trkpt>
      <trkpt lat="47.41617" lon="6.77619">
        <ele>346.3</ele>
        <time>2014-05-04T08:31:53.000Z</time>
      </trkpt>
      <trkpt lat="47.41621" lon="6.77622">
        <ele>345.2</ele>
        <time>2014-05-04T08:31:54.000Z</time>
      </trkpt>
      <trkpt lat="47.41626" lon="6.77625">
        <ele>345.4</ele>
        <time>2014-05-04T08:31:55.000Z</time>
      </trkpt>
      <trkpt lat="47.4163" lon="6.77628">
        <ele>345.8</ele>
        <time>2014-05-04T08:31:56.000Z</time>
      </trkpt>
      <trkpt lat="47.41633" lon="6.77632">
        <ele>347.1</ele>
        <time>2014-05-04T08:31:57.000Z</time>
      </trkpt>
      <trkpt lat="47.41637" lon="6.77636">
        <ele>347.1</ele>
        <time>2014-05-04T08:31:58.000Z</time>
      </trkpt>
      <trkpt lat="47.41641" lon="6.77637">
        <ele>345.8</ele>
        <time>2014-05-04T08:31:59.000Z</time>
      </trkpt>
      <trkpt lat="47.41644" lon="6.77642">
        <ele>346.6</ele>
        <time>2014-05-04T08:32:00.000Z</time>
      </trkpt>
      <trkpt lat="47.41647" lon="6.77644">
        <ele>346.9</ele>
        <time>2014-05-04T08:32:01.001Z</time>
      </trkpt>
      <trkpt lat="47.41651" lon="6.77646">
        <ele>346.3</ele>
        <time>2014-05-04T08:32:02.000Z</time>
      </trkpt>
      <trkpt lat="47.41654" lon="6.7765">
        <ele>346.5</ele>
        <time>2014-05-04T08:32:03.000Z</time>
      </trkpt>
      <trkpt lat="47.41657" lon="6.77654">
        <ele>346.7</ele>
        <time>2014-05-04T08:32:04.000Z</time>
      </trkpt>
      <trkpt lat="47.4166" lon="6.77658">
        <ele>346.7</ele>
        <time>2014-05-04T08:32:05.000Z</time>
      </trkpt>
      <trkpt lat="47.41663" lon="6.77661">
        <ele>346.8</ele>
        <time>2014-05-04T08:32:06.000Z</time>
      </trkpt>
      <trkpt lat="47.41666" lon="6.77665">
        <ele>347.1</ele>
        <time>2014-05-04T08:32:07.000Z</time>
      </trkpt>
      <trkpt lat="47.41669" lon="6.77668">
        <ele>347.5</ele>
        <time>2014-05-04T08:32:08.000Z</time>
      </trkpt>
      <trkpt lat="47.41672" lon="6.77671">
        <ele>347.6</ele>
        <time>2014-05-04T08:32:09.000Z</time>
      </trkpt>
      <trkpt lat="47.41675" lon="6.77673">
        <ele>348.1</ele>
        <time>2014-05-04T08:32:10.000Z</time>
      </trkpt>
      <trkpt lat="47.41678" lon="6.77675">
        <ele>348.2</ele>
        <time>2014-05-04T08:32:11.000Z</time>
      </trkpt>
      <trkpt lat="47.41682" lon="6.77677">
        <ele>348.1</ele>
        <time>2014-05-04T08:32:12.000Z</time>
      </trkpt>
      <trkpt lat="47.41685" lon="6.77678">
        <ele>348.3</ele>
        <time>2014-05-04T08:32:13.000Z</time>
      </trkpt>
      <trkpt lat="47.41688" lon="6.77679">
        <ele>348.3</ele>
        <time>2014-05-04T08:32:14.000Z</time>
      </trkpt>
      <trkpt lat="47.41692" lon="6.7768">
        <ele>348.3</ele>
        <time>2014-05-04T08:32:15.000Z</time>
      </trkpt>
      <trkpt lat="47.41695" lon="6.77681">
        <ele>347.8</ele>
        <time>2014-05-04T08:32:16.000Z</time>
      </trkpt>
      <trkpt lat="47.41698" lon="6.7768">
        <ele>348.1</ele>
        <time>2014-05-04T08:32:17.000Z</time>
      </trkpt>
      <trkpt lat="47.41701" lon="6.7768">
        <ele>348.2</ele>
        <time>2014-05-04T08:32:18.000Z</time>
      </trkpt>
      <trkpt lat="47.41704" lon="6.77678">
        <ele>348</ele>
        <time>2014-05-04T08:32:19.000Z</time>
      </trkpt>
      <trkpt lat="47.41708" lon="6.77677">
        <ele>348.8</ele>
        <time>2014-05-04T08:32:20.000Z</time>
      </trkpt>
      <trkpt lat="47.41711" lon="6.77675">
        <ele>349.4</ele>
        <time>2014-05-04T08:32:21.000Z</time>
      </trkpt>
      <trkpt lat="47.41713" lon="6.77673">
        <ele>349.8</ele>
        <time>2014-05-04T08:32:22.000Z</time>
      </trkpt>
      <trkpt lat="47.41716" lon="6.77671">
        <ele>350.4</ele>
        <time>2014-05-04T08:32:23.000Z</time>
      </trkpt>
      <trkpt lat="47.41718" lon="6.77669">
        <ele>350.1</ele>
        <time>2014-05-04T08:32:24.000Z</time>
      </trkpt>
      <trkpt lat="47.4172" lon="6.77667">
        <ele>350</ele>
        <time>2014-05-04T08:32:25.000Z</time>
      </trkpt>
      <trkpt lat="47.41722" lon="6.77665">
        <ele>349.8</ele>
        <time>2014-05-04T08:32:26.000Z</time>
      </trkpt>
      <trkpt lat="47.41725" lon="6.77663">
        <ele>350.4</ele>
        <time>2014-05-04T08:32:27.000Z</time>
      </trkpt>
      <trkpt lat="47.41727" lon="6.77661">
        <ele>352</ele>
        <time>2014-05-04T08:32:28.000Z</time>
      </trkpt>
      <trkpt lat="47.41729" lon="6.77659">
        <ele>352.9</ele>
        <time>2014-05-04T08:32:29.000Z</time>
      </trkpt>
      <trkpt lat="47.41732" lon="6.77657">
        <ele>352.5</ele>
        <time>2014-05-04T08:32:30.000Z</time>
      </trkpt>
      <trkpt lat="47.41734" lon="6.77656">
        <ele>352.5</ele>
        <time>2014-05-04T08:32:31.000Z</time>
      </trkpt>
      <trkpt lat="47.41737" lon="6.77655">
        <ele>352.6</ele>
        <time>2014-05-04T08:32:32.000Z</time>
      </trkpt>
      <trkpt lat="47.41739" lon="6.77654">
        <ele>353.2</ele>
        <time>2014-05-04T08:32:33.000Z</time>
      </trkpt>
      <trkpt lat="47.41742" lon="6.77654">
        <ele>354.3</ele>
        <time>2014-05-04T08:32:34.000Z</time>
      </trkpt>
      <trkpt lat="47.41745" lon="6.77654">
        <ele>355.8</ele>
        <time>2014-05-04T08:32:36.000Z</time>
      </trkpt>
      <trkpt lat="47.41747" lon="6.77653">
        <ele>355.3</ele>
        <time>2014-05-04T08:32:37.000Z</time>
      </trkpt>
      <trkpt lat="47.4175" lon="6.77652">
        <ele>356.6</ele>
        <time>2014-05-04T08:32:38.000Z</time>
      </trkpt>
      <trkpt lat="47.41752" lon="6.77651">
        <ele>357</ele>
        <time>2014-05-04T08:32:39.000Z</time>
      </trkpt>
      <trkpt lat="47.41755" lon="6.7765">
        <ele>356.4</ele>
        <time>2014-05-04T08:32:40.000Z</time>
      </trkpt>
      <trkpt lat="47.41758" lon="6.77649">
        <ele>357.2</ele>
        <time>2014-05-04T08:32:41.000Z</time>
      </trkpt>
      <trkpt lat="47.4176" lon="6.77648">
        <ele>358.5</ele>
        <time>2014-05-04T08:32:42.000Z</time>
      </trkpt>
      <trkpt lat="47.41782" lon="6.77639">
        <ele>362.6</ele>
        <time>2014-05-04T08:32:50.000Z</time>
      </trkpt>
      <trkpt lat="47.41784" lon="6.77638">
        <ele>362.9</ele>
        <time>2014-05-04T08:32:51.000Z</time>
      </trkpt>
      <trkpt lat="47.41787" lon="6.77636">
        <ele>361.6</ele>
        <time>2014-05-04T08:32:52.000Z</time>
      </trkpt>
      <trkpt lat="47.4179" lon="6.77635">
        <ele>361.2</ele>
        <time>2014-05-04T08:32:53.000Z</time>
      </trkpt>
      <trkpt lat="47.41793" lon="6.77633">
        <ele>362.4</ele>
        <time>2014-05-04T08:32:54.000Z</time>
      </trkpt>
      <trkpt lat="47.41797" lon="6.7763">
        <ele>363.6</ele>
        <time>2014-05-04T08:32:55.000Z</time>
      </trkpt>
      <trkpt lat="47.418" lon="6.77628">
        <ele>363.4</ele>
        <time>2014-05-04T08:32:56.000Z</time>
      </trkpt>
      <trkpt lat="47.41803" lon="6.77625">
        <ele>364</ele>
        <time>2014-05-04T08:32:57.000Z</time>
      </trkpt>
      <trkpt lat="47.41806" lon="6.77623">
        <ele>364.3</ele>
        <time>2014-05-04T08:32:58.000Z</time>
      </trkpt>
      <trkpt lat="47.41809" lon="6.77619">
        <ele>364.6</ele>
        <time>2014-05-04T08:32:59.000Z</time>
      </trkpt>
      <trkpt lat="47.41812" lon="6.77616">
        <ele>365.2</ele>
        <time>2014-05-04T08:33:00.000Z</time>
      </trkpt>
      <trkpt lat="47.41815" lon="6.77612">
        <ele>365.4</ele>
        <time>2014-05-04T08:33:01.000Z</time>
      </trkpt>
      <trkpt lat="47.41817" lon="6.77609">
        <ele>364</ele>
        <time>2014-05-04T08:33:02.000Z</time>
      </trkpt>
      <trkpt lat="47.4182" lon="6.77605">
        <ele>363.6</ele>
        <time>2014-05-04T08:33:03.000Z</time>
      </trkpt>
      <trkpt lat="47.41822" lon="6.77601">
        <ele>362.8</ele>
        <time>2014-05-04T08:33:04.000Z</time>
      </trkpt>
      <trkpt lat="47.41824" lon="6.77597">
        <ele>362.6</ele>
        <time>2014-05-04T08:33:05.000Z</time>
      </trkpt>
      <trkpt lat="47.41826" lon="6.77593">
        <ele>361.8</ele>
        <time>2014-05-04T08:33:06.000Z</time>
      </trkpt>
      <trkpt lat="47.41828" lon="6.77589">
        <ele>362.6</ele>
        <time>2014-05-04T08:33:07.000Z</time>
      </trkpt>
      <trkpt lat="47.4183" lon="6.77585">
        <ele>361.8</ele>
        <time>2014-05-04T08:33:08.000Z</time>
      </trkpt>
      <trkpt lat="47.41831" lon="6.77581">
        <ele>361.6</ele>
        <time>2014-05-04T08:33:09.000Z</time>
      </trkpt>
      <trkpt lat="47.41833" lon="6.77576">
        <ele>361.8</ele>
        <time>2014-05-04T08:33:10.000Z</time>
      </trkpt>
      <trkpt lat="47.41835" lon="6.77571">
        <ele>361.5</ele>
        <time>2014-05-04T08:33:11.000Z</time>
      </trkpt>
      <trkpt lat="47.41836" lon="6.77567">
        <ele>362.4</ele>
        <time>2014-05-04T08:33:12.000Z</time>
      </trkpt>
      <trkpt lat="47.41837" lon="6.77564">
        <ele>363.6</ele>
        <time>2014-05-04T08:33:13.000Z</time>
      </trkpt>
      <trkpt lat="47.41838" lon="6.7756">
        <ele>363.1</ele>
        <time>2014-05-04T08:33:14.000Z</time>
      </trkpt>
      <trkpt lat="47.41839" lon="6.77556">
        <ele>363.6</ele>
        <time>2014-05-04T08:33:15.000Z</time>
      </trkpt>
      <trkpt lat="47.4184" lon="6.77552">
        <ele>365.7</ele>
        <time>2014-05-04T08:33:16.000Z</time>
      </trkpt>
      <trkpt lat="47.41841" lon="6.77548">
        <ele>366.1</ele>
        <time>2014-05-04T08:33:17.000Z</time>
      </trkpt>
      <trkpt lat="47.41843" lon="6.77544">
        <ele>366.4</ele>
        <time>2014-05-04T08:33:18.000Z</time>
      </trkpt>
      <trkpt lat="47.41844" lon="6.7754">
        <ele>366.1</ele>
        <time>2014-05-04T08:33:19.000Z</time>
      </trkpt>
      <trkpt lat="47.41846" lon="6.77535">
        <ele>364.4</ele>
        <time>2014-05-04T08:33:20.000Z</time>
      </trkpt>
      <trkpt lat="47.41847" lon="6.7753">
        <ele>364</ele>
        <time>2014-05-04T08:33:21.000Z</time>
      </trkpt>
      <trkpt lat="47.41849" lon="6.77526">
        <ele>364.8</ele>
        <time>2014-05-04T08:33:22.000Z</time>
      </trkpt>
      <trkpt lat="47.4185" lon="6.77521">
        <ele>365.2</ele>
        <time>2014-05-04T08:33:23.000Z</time>
      </trkpt>
      <trkpt lat="47.41851" lon="6.77517">
        <ele>365.2</ele>
        <time>2014-05-04T08:33:24.000Z</time>
      </trkpt>
      <trkpt lat="47.41852" lon="6.77513">
        <ele>365.8</ele>
        <time>2014-05-04T08:33:25.000Z</time>
      </trkpt>
      <trkpt lat="47.41854" lon="6.77508">
        <ele>366.3</ele>
        <time>2014-05-04T08:33:26.000Z</time>
      </trkpt>
      <trkpt lat="47.41855" lon="6.77503">
        <ele>365.5</ele>
        <time>2014-05-04T08:33:27.000Z</time>
      </trkpt>
      <trkpt lat="47.41857" lon="6.77498">
        <ele>365.3</ele>
        <time>2014-05-04T08:33:28.000Z</time>
      </trkpt>
      <trkpt lat="47.41858" lon="6.77492">
        <ele>364.8</ele>
        <time>2014-05-04T08:33:29.000Z</time>
      </trkpt>
      <trkpt lat="47.41859" lon="6.77486">
        <ele>364.8</ele>
        <time>2014-05-04T08:33:30.000Z</time>
      </trkpt>
      <trkpt lat="47.41861" lon="6.7748">
        <ele>364.9</ele>
        <time>2014-05-04T08:33:31.000Z</time>
      </trkpt>
      <trkpt lat="47.41862" lon="6.77474">
        <ele>364.8</ele>
        <time>2014-05-04T08:33:32.000Z</time>
      </trkpt>
      <trkpt lat="47.41863" lon="6.77468">
        <ele>364.9</ele>
        <time>2014-05-04T08:33:33.000Z</time>
      </trkpt>
      <trkpt lat="47.41864" lon="6.77462">
        <ele>364.8</ele>
        <time>2014-05-04T08:33:34.000Z</time>
      </trkpt>
      <trkpt lat="47.41865" lon="6.77455">
        <ele>365.5</ele>
        <time>2014-05-04T08:33:35.000Z</time>
      </trkpt>
      <trkpt lat="47.41867" lon="6.77445">
        <ele>367</ele>
        <time>2014-05-04T08:33:36.000Z</time>
      </trkpt>
      <trkpt lat="47.41867" lon="6.77439">
        <ele>367.4</ele>
        <time>2014-05-04T08:33:37.000Z</time>
      </trkpt>
      <trkpt lat="47.41866" lon="6.77432">
        <ele>367.6</ele>
        <time>2014-05-04T08:33:38.000Z</time>
      </trkpt>
      <trkpt lat="47.41866" lon="6.77425">
        <ele>367</ele>
        <time>2014-05-04T08:33:39.000Z</time>
      </trkpt>
      <trkpt lat="47.41865" lon="6.77417">
        <ele>367.1</ele>
        <time>2014-05-04T08:33:40.000Z</time>
      </trkpt>
      <trkpt lat="47.41863" lon="6.77411">
        <ele>367</ele>
        <time>2014-05-04T08:33:41.000Z</time>
      </trkpt>
      <trkpt lat="47.41861" lon="6.77393">
        <ele>366.6</ele>
        <time>2014-05-04T08:33:44.000Z</time>
      </trkpt>
      <trkpt lat="47.4186" lon="6.77387">
        <ele>366.8</ele>
        <time>2014-05-04T08:33:45.000Z</time>
      </trkpt>
      <trkpt lat="47.41859" lon="6.77381">
        <ele>367.2</ele>
        <time>2014-05-04T08:33:46.000Z</time>
      </trkpt>
      <trkpt lat="47.4186" lon="6.77374">
        <ele>367.1</ele>
        <time>2014-05-04T08:33:47.000Z</time>
      </trkpt>
      <trkpt lat="47.4186" lon="6.77369">
        <ele>366</ele>
        <time>2014-05-04T08:33:48.000Z</time>
      </trkpt>
      <trkpt lat="47.41861" lon="6.77363">
        <ele>366.3</ele>
        <time>2014-05-04T08:33:49.000Z</time>
      </trkpt>
      <trkpt lat="47.41861" lon="6.77357">
        <ele>366.6</ele>
        <time>2014-05-04T08:33:50.000Z</time>
      </trkpt>
      <trkpt lat="47.41862" lon="6.77351">
        <ele>367</ele>
        <time>2014-05-04T08:33:51.000Z</time>
      </trkpt>
      <trkpt lat="47.41863" lon="6.77344">
        <ele>367.7</ele>
        <time>2014-05-04T08:33:52.000Z</time>
      </trkpt>
      <trkpt lat="47.41864" lon="6.77339">
        <ele>367.9</ele>
        <time>2014-05-04T08:33:53.000Z</time>
      </trkpt>
      <trkpt lat="47.41865" lon="6.77333">
        <ele>368</ele>
        <time>2014-05-04T08:33:54.000Z</time>
      </trkpt>
      <trkpt lat="47.41865" lon="6.77327">
        <ele>367.4</ele>
        <time>2014-05-04T08:33:55.000Z</time>
      </trkpt>
      <trkpt lat="47.41866" lon="6.77322">
        <ele>366.6</ele>
        <time>2014-05-04T08:33:56.000Z</time>
      </trkpt>
      <trkpt lat="47.41866" lon="6.77316">
        <ele>366.8</ele>
        <time>2014-05-04T08:33:57.000Z</time>
      </trkpt>
      <trkpt lat="47.41866" lon="6.77311">
        <ele>366.8</ele>
        <time>2014-05-04T08:33:58.000Z</time>
      </trkpt>
      <trkpt lat="47.41866" lon="6.77307">
        <ele>369.4</ele>
        <time>2014-05-04T08:33:59.000Z</time>
      </trkpt>
      <trkpt lat="47.41866" lon="6.77303">
        <ele>370.7</ele>
        <time>2014-05-04T08:34:00.000Z</time>
      </trkpt>
      <trkpt lat="47.41866" lon="6.77299">
        <ele>371.1</ele>
        <time>2014-05-04T08:34:01.000Z</time>
      </trkpt>
      <trkpt lat="47.41866" lon="6.77295">
        <ele>372.8</ele>
        <time>2014-05-04T08:34:02.000Z</time>
      </trkpt>
      <trkpt lat="47.41867" lon="6.77291">
        <ele>370.2</ele>
        <time>2014-05-04T08:34:03.000Z</time>
      </trkpt>
      <trkpt lat="47.41867" lon="6.77286">
        <ele>370.1</ele>
        <time>2014-05-04T08:34:04.000Z</time>
      </trkpt>
      <trkpt lat="47.41867" lon="6.7728">
        <ele>370.5</ele>
        <time>2014-05-04T08:34:05.000Z</time>
      </trkpt>
      <trkpt lat="47.41868" lon="6.77274">
        <ele>371.4</ele>
        <time>2014-05-04T08:34:06.000Z</time>
      </trkpt>
      <trkpt lat="47.41868" lon="6.77268">
        <ele>372.7</ele>
        <time>2014-05-04T08:34:07.000Z</time>
      </trkpt>
      <trkpt lat="47.41868" lon="6.77262">
        <ele>372.8</ele>
        <time>2014-05-04T08:34:08.000Z</time>
      </trkpt>
      <trkpt lat="47.41868" lon="6.77256">
        <ele>373.6</ele>
        <time>2014-05-04T08:34:09.000Z</time>
      </trkpt>
      <trkpt lat="47.41869" lon="6.77251">
        <ele>373.6</ele>
        <time>2014-05-04T08:34:10.000Z</time>
      </trkpt>
      <trkpt lat="47.41869" lon="6.77245">
        <ele>374.1</ele>
        <time>2014-05-04T08:34:11.000Z</time>
      </trkpt>
      <trkpt lat="47.41869" lon="6.7724">
        <ele>375.2</ele>
        <time>2014-05-04T08:34:12.000Z</time>
      </trkpt>
      <trkpt lat="47.4187" lon="6.77235">
        <ele>375.2</ele>
        <time>2014-05-04T08:34:13.000Z</time>
      </trkpt>
      <trkpt lat="47.4187" lon="6.7723">
        <ele>375</ele>
        <time>2014-05-04T08:34:14.000Z</time>
      </trkpt>
      <trkpt lat="47.41871" lon="6.77225">
        <ele>375.9</ele>
        <time>2014-05-04T08:34:15.000Z</time>
      </trkpt>
      <trkpt lat="47.41871" lon="6.77221">
        <ele>376.6</ele>
        <time>2014-05-04T08:34:16.001Z</time>
      </trkpt>
      <trkpt lat="47.41872" lon="6.77216">
        <ele>376.9</ele>
        <time>2014-05-04T08:34:17.000Z</time>
      </trkpt>
      <trkpt lat="47.41872" lon="6.77213">
        <ele>377.3</ele>
        <time>2014-05-04T08:34:18.000Z</time>
      </trkpt>
      <trkpt lat="47.41873" lon="6.77206">
        <ele>377.1</ele>
        <time>2014-05-04T08:34:20.000Z</time>
      </trkpt>
      <trkpt lat="47.41873" lon="6.77203">
        <ele>377.1</ele>
        <time>2014-05-04T08:34:21.000Z</time>
      </trkpt>
      <trkpt lat="47.41874" lon="6.772">
        <ele>375.9</ele>
        <time>2014-05-04T08:34:22.000Z</time>
      </trkpt>
      <trkpt lat="47.41875" lon="6.77196">
        <ele>375.1</ele>
        <time>2014-05-04T08:34:23.000Z</time>
      </trkpt>
      <trkpt lat="47.41875" lon="6.77192">
        <ele>374.7</ele>
        <time>2014-05-04T08:34:24.000Z</time>
      </trkpt>
      <trkpt lat="47.41876" lon="6.77188">
        <ele>374.1</ele>
        <time>2014-05-04T08:34:25.000Z</time>
      </trkpt>
      <trkpt lat="47.41878" lon="6.77184">
        <ele>373.6</ele>
        <time>2014-05-04T08:34:26.000Z</time>
      </trkpt>
      <trkpt lat="47.41879" lon="6.7718">
        <ele>374.5</ele>
        <time>2014-05-04T08:34:27.000Z</time>
      </trkpt>
      <trkpt lat="47.4188" lon="6.77176">
        <ele>374.8</ele>
        <time>2014-05-04T08:34:28.000Z</time>
      </trkpt>
      <trkpt lat="47.41881" lon="6.77172">
        <ele>374.7</ele>
        <time>2014-05-04T08:34:29.000Z</time>
      </trkpt>
      <trkpt lat="47.41881" lon="6.77166">
        <ele>380.6</ele>
        <time>2014-05-04T08:34:31.000Z</time>
      </trkpt>
      <trkpt lat="47.41881" lon="6.77164">
        <ele>381.4</ele>
        <time>2014-05-04T08:34:32.000Z</time>
      </trkpt>
      <trkpt lat="47.41881" lon="6.77159">
        <ele>386.9</ele>
        <time>2014-05-04T08:34:34.000Z</time>
      </trkpt>
      <trkpt lat="47.41881" lon="6.77157">
        <ele>389.4</ele>
        <time>2014-05-04T08:34:35.000Z</time>
      </trkpt>
      <trkpt lat="47.41882" lon="6.77151">
        <ele>387.1</ele>
        <time>2014-05-04T08:34:37.000Z</time>
      </trkpt>
      <trkpt lat="47.41883" lon="6.77147">
        <ele>387.2</ele>
        <time>2014-05-04T08:34:38.000Z</time>
      </trkpt>
      <trkpt lat="47.41885" lon="6.77141">
        <ele>387.4</ele>
        <time>2014-05-04T08:34:39.000Z</time>
      </trkpt>
      <trkpt lat="47.41886" lon="6.77136">
        <ele>387.5</ele>
        <time>2014-05-04T08:34:40.000Z</time>
      </trkpt>
      <trkpt lat="47.41887" lon="6.77131">
        <ele>389.1</ele>
        <time>2014-05-04T08:34:41.000Z</time>
      </trkpt>
      <trkpt lat="47.41891" lon="6.77091">
        <ele>400.6</ele>
        <time>2014-05-04T08:34:50.000Z</time>
      </trkpt>
      <trkpt lat="47.41892" lon="6.77086">
        <ele>400.2</ele>
        <time>2014-05-04T08:34:51.000Z</time>
      </trkpt>
      <trkpt lat="47.41897" lon="6.77071">
        <ele>403.7</ele>
        <time>2014-05-04T08:34:52.000Z</time>
      </trkpt>
      <trkpt lat="47.41898" lon="6.77065">
        <ele>405.5</ele>
        <time>2014-05-04T08:34:53.000Z</time>
      </trkpt>
      <trkpt lat="47.41899" lon="6.77058">
        <ele>406.9</ele>
        <time>2014-05-04T08:34:54.000Z</time>
      </trkpt>
      <trkpt lat="47.419" lon="6.77053">
        <ele>408</ele>
        <time>2014-05-04T08:34:55.000Z</time>
      </trkpt>
      <trkpt lat="47.41901" lon="6.77049">
        <ele>409</ele>
        <time>2014-05-04T08:34:56.000Z</time>
      </trkpt>
      <trkpt lat="47.41902" lon="6.77045">
        <ele>409.9</ele>
        <time>2014-05-04T08:34:56.999Z</time>
      </trkpt>
      <trkpt lat="47.41904" lon="6.7704">
        <ele>413.5</ele>
        <time>2014-05-04T08:34:58.000Z</time>
      </trkpt>
      <trkpt lat="47.41904" lon="6.77035">
        <ele>415.3</ele>
        <time>2014-05-04T08:34:59.000Z</time>
      </trkpt>
      <trkpt lat="47.41904" lon="6.77032">
        <ele>416.5</ele>
        <time>2014-05-04T08:35:00.000Z</time>
      </trkpt>
      <trkpt lat="47.41906" lon="6.77028">
        <ele>415.6</ele>
        <time>2014-05-04T08:35:01.000Z</time>
      </trkpt>
      <trkpt lat="47.41907" lon="6.77025">
        <ele>416.8</ele>
        <time>2014-05-04T08:35:02.000Z</time>
      </trkpt>
      <trkpt lat="47.41907" lon="6.77022">
        <ele>417.1</ele>
        <time>2014-05-04T08:35:03.000Z</time>
      </trkpt>
      <trkpt lat="47.41908" lon="6.77018">
        <ele>417.6</ele>
        <time>2014-05-04T08:35:04.000Z</time>
      </trkpt>
      <trkpt lat="47.41908" lon="6.77015">
        <ele>417.3</ele>
        <time>2014-05-04T08:35:05.000Z</time>
      </trkpt>
      <trkpt lat="47.41909" lon="6.77011">
        <ele>417.4</ele>
        <time>2014-05-04T08:35:06.000Z</time>
      </trkpt>
      <trkpt lat="47.41909" lon="6.77008">
        <ele>418.4</ele>
        <time>2014-05-04T08:35:07.000Z</time>
      </trkpt>
      <trkpt lat="47.4191" lon="6.77003">
        <ele>417.6</ele>
        <time>2014-05-04T08:35:08.000Z</time>
      </trkpt>
      <trkpt lat="47.41911" lon="6.76998">
        <ele>416.3</ele>
        <time>2014-05-04T08:35:09.000Z</time>
      </trkpt>
      <trkpt lat="47.41913" lon="6.76994">
        <ele>414.9</ele>
        <time>2014-05-04T08:35:10.000Z</time>
      </trkpt>
      <trkpt lat="47.41914" lon="6.76989">
        <ele>414.9</ele>
        <time>2014-05-04T08:35:11.000Z</time>
      </trkpt>
      <trkpt lat="47.41915" lon="6.76985">
        <ele>415</ele>
        <time>2014-05-04T08:35:12.000Z</time>
      </trkpt>
      <trkpt lat="47.41916" lon="6.7698">
        <ele>411.9</ele>
        <time>2014-05-04T08:35:14.000Z</time>
      </trkpt>
      <trkpt lat="47.41916" lon="6.76977">
        <ele>415</ele>
        <time>2014-05-04T08:35:15.000Z</time>
      </trkpt>
      <trkpt lat="47.41917" lon="6.76973">
        <ele>417</ele>
        <time>2014-05-04T08:35:16.000Z</time>
      </trkpt>
      <trkpt lat="47.41917" lon="6.76968">
        <ele>417.1</ele>
        <time>2014-05-04T08:35:17.000Z</time>
      </trkpt>
      <trkpt lat="47.41918" lon="6.76962">
        <ele>415.9</ele>
        <time>2014-05-04T08:35:18.000Z</time>
      </trkpt>
      <trkpt lat="47.41919" lon="6.76957">
        <ele>413.8</ele>
        <time>2014-05-04T08:35:19.000Z</time>
      </trkpt>
      <trkpt lat="47.41921" lon="6.76952">
        <ele>412.7</ele>
        <time>2014-05-04T08:35:20.000Z</time>
      </trkpt>
      <trkpt lat="47.41922" lon="6.76947">
        <ele>412.1</ele>
        <time>2014-05-04T08:35:21.000Z</time>
      </trkpt>
      <trkpt lat="47.41924" lon="6.76941">
        <ele>411.5</ele>
        <time>2014-05-04T08:35:22.000Z</time>
      </trkpt>
      <trkpt lat="47.41925" lon="6.76936">
        <ele>410.8</ele>
        <time>2014-05-04T08:35:23.000Z</time>
      </trkpt>
      <trkpt lat="47.41926" lon="6.76932">
        <ele>413.9</ele>
        <time>2014-05-04T08:35:24.000Z</time>
      </trkpt>
      <trkpt lat="47.41927" lon="6.76929">
        <ele>414.5</ele>
        <time>2014-05-04T08:35:25.000Z</time>
      </trkpt>
      <trkpt lat="47.41927" lon="6.76922">
        <ele>415.1</ele>
        <time>2014-05-04T08:35:27.000Z</time>
      </trkpt>
      <trkpt lat="47.41927" lon="6.76918">
        <ele>416.7</ele>
        <time>2014-05-04T08:35:28.000Z</time>
      </trkpt>
      <trkpt lat="47.41926" lon="6.76913">
        <ele>413.9</ele>
        <time>2014-05-04T08:35:29.000Z</time>
      </trkpt>
      <trkpt lat="47.41929" lon="6.76898">
        <ele>418</ele>
        <time>2014-05-04T08:35:30.000Z</time>
      </trkpt>
      <trkpt lat="47.41929" lon="6.76892">
        <ele>416.8</ele>
        <time>2014-05-04T08:35:31.000Z</time>
      </trkpt>
      <trkpt lat="47.41931" lon="6.76886">
        <ele>416.6</ele>
        <time>2014-05-04T08:35:32.000Z</time>
      </trkpt>
      <trkpt lat="47.41932" lon="6.76879">
        <ele>415.6</ele>
        <time>2014-05-04T08:35:33.000Z</time>
      </trkpt>
      <trkpt lat="47.41933" lon="6.76875">
        <ele>419.6</ele>
        <time>2014-05-04T08:35:34.000Z</time>
      </trkpt>
      <trkpt lat="47.41935" lon="6.7687">
        <ele>421.6</ele>
        <time>2014-05-04T08:35:35.000Z</time>
      </trkpt>
      <trkpt lat="47.41937" lon="6.76863">
        <ele>423.5</ele>
        <time>2014-05-04T08:35:36.000Z</time>
      </trkpt>
      <trkpt lat="47.4194" lon="6.76856">
        <ele>422.9</ele>
        <time>2014-05-04T08:35:37.000Z</time>
      </trkpt>
      <trkpt lat="47.41939" lon="6.7685">
        <ele>419.8</ele>
        <time>2014-05-04T08:35:38.000Z</time>
      </trkpt>
      <trkpt lat="47.41941" lon="6.76844">
        <ele>418.6</ele>
        <time>2014-05-04T08:35:39.000Z</time>
      </trkpt>
      <trkpt lat="47.41941" lon="6.76839">
        <ele>418.6</ele>
        <time>2014-05-04T08:35:40.000Z</time>
      </trkpt>
      <trkpt lat="47.41942" lon="6.76833">
        <ele>420.5</ele>
        <time>2014-05-04T08:35:41.000Z</time>
      </trkpt>
      <trkpt lat="47.41943" lon="6.76821">
        <ele>421.1</ele>
        <time>2014-05-04T08:35:44.000Z</time>
      </trkpt>
      <trkpt lat="47.41944" lon="6.76817">
        <ele>423.3</ele>
        <time>2014-05-04T08:35:45.000Z</time>
      </trkpt>
      <trkpt lat="47.41944" lon="6.76813">
        <ele>424</ele>
        <time>2014-05-04T08:35:46.000Z</time>
      </trkpt>
      <trkpt lat="47.41943" lon="6.76809">
        <ele>424.6</ele>
        <time>2014-05-04T08:35:47.000Z</time>
      </trkpt>
      <trkpt lat="47.41943" lon="6.76805">
        <ele>425.6</ele>
        <time>2014-05-04T08:35:48.000Z</time>
      </trkpt>
      <trkpt lat="47.41943" lon="6.768">
        <ele>423.6</ele>
        <time>2014-05-04T08:35:49.000Z</time>
      </trkpt>
      <trkpt lat="47.41943" lon="6.76795">
        <ele>421.7</ele>
        <time>2014-05-04T08:35:50.000Z</time>
      </trkpt>
      <trkpt lat="47.41944" lon="6.7679">
        <ele>420.6</ele>
        <time>2014-05-04T08:35:51.000Z</time>
      </trkpt>
      <trkpt lat="47.41944" lon="6.76785">
        <ele>419</ele>
        <time>2014-05-04T08:35:52.000Z</time>
      </trkpt>
      <trkpt lat="47.41944" lon="6.76781">
        <ele>418.5</ele>
        <time>2014-05-04T08:35:53.000Z</time>
      </trkpt>
      <trkpt lat="47.41945" lon="6.76777">
        <ele>415.2</ele>
        <time>2014-05-04T08:35:54.000Z</time>
      </trkpt>
      <trkpt lat="47.41945" lon="6.76773">
        <ele>414.2</ele>
        <time>2014-05-04T08:35:55.000Z</time>
      </trkpt>
      <trkpt lat="47.41945" lon="6.76769">
        <ele>414.6</ele>
        <time>2014-05-04T08:35:56.000Z</time>
      </trkpt>
      <trkpt lat="47.41945" lon="6.76765">
        <ele>413.7</ele>
        <time>2014-05-04T08:35:57.000Z</time>
      </trkpt>
      <trkpt lat="47.41945" lon="6.76761">
        <ele>414.3</ele>
        <time>2014-05-04T08:35:58.000Z</time>
      </trkpt>
      <trkpt lat="47.41946" lon="6.76757">
        <ele>415.3</ele>
        <time>2014-05-04T08:35:59.000Z</time>
      </trkpt>
      <trkpt lat="47.41947" lon="6.76753">
        <ele>415</ele>
        <time>2014-05-04T08:36:00.000Z</time>
      </trkpt>
      <trkpt lat="47.41948" lon="6.76748">
        <ele>415.1</ele>
        <time>2014-05-04T08:36:01.000Z</time>
      </trkpt>
      <trkpt lat="47.41948" lon="6.76744">
        <ele>414.3</ele>
        <time>2014-05-04T08:36:02.000Z</time>
      </trkpt>
      <trkpt lat="47.41949" lon="6.76739">
        <ele>413.9</ele>
        <time>2014-05-04T08:36:03.000Z</time>
      </trkpt>
      <trkpt lat="47.41949" lon="6.76735">
        <ele>414.3</ele>
        <time>2014-05-04T08:36:04.000Z</time>
      </trkpt>
      <trkpt lat="47.41949" lon="6.76731">
        <ele>414</ele>
        <time>2014-05-04T08:36:05.000Z</time>
      </trkpt>
      <trkpt lat="47.41949" lon="6.76727">
        <ele>413.9</ele>
        <time>2014-05-04T08:36:06.000Z</time>
      </trkpt>
      <trkpt lat="47.41949" lon="6.76724">
        <ele>414.6</ele>
        <time>2014-05-04T08:36:07.000Z</time>
      </trkpt>
      <trkpt lat="47.4195" lon="6.7672">
        <ele>414</ele>
        <time>2014-05-04T08:36:08.000Z</time>
      </trkpt>
      <trkpt lat="47.41951" lon="6.76716">
        <ele>413.8</ele>
        <time>2014-05-04T08:36:09.000Z</time>
      </trkpt>
      <trkpt lat="47.41951" lon="6.76713">
        <ele>415.5</ele>
        <time>2014-05-04T08:36:10.000Z</time>
      </trkpt>
      <trkpt lat="47.41951" lon="6.76709">
        <ele>417.5</ele>
        <time>2014-05-04T08:36:11.000Z</time>
      </trkpt>
      <trkpt lat="47.41952" lon="6.76704">
        <ele>417.6</ele>
        <time>2014-05-04T08:36:12.000Z</time>
      </trkpt>
      <trkpt lat="47.41952" lon="6.76699">
        <ele>418</ele>
        <time>2014-05-04T08:36:13.000Z</time>
      </trkpt>
      <trkpt lat="47.41952" lon="6.76695">
        <ele>418</ele>
        <time>2014-05-04T08:36:14.000Z</time>
      </trkpt>
      <trkpt lat="47.41952" lon="6.7669">
        <ele>418.6</ele>
        <time>2014-05-04T08:36:15.000Z</time>
      </trkpt>
      <trkpt lat="47.41952" lon="6.76685">
        <ele>418.1</ele>
        <time>2014-05-04T08:36:16.000Z</time>
      </trkpt>
      <trkpt lat="47.41952" lon="6.76681">
        <ele>419.4</ele>
        <time>2014-05-04T08:36:17.000Z</time>
      </trkpt>
      <trkpt lat="47.41952" lon="6.76677">
        <ele>419.6</ele>
        <time>2014-05-04T08:36:18.000Z</time>
      </trkpt>
      <trkpt lat="47.41952" lon="6.76672">
        <ele>420.5</ele>
        <time>2014-05-04T08:36:19.000Z</time>
      </trkpt>
      <trkpt lat="47.41953" lon="6.76668">
        <ele>421.6</ele>
        <time>2014-05-04T08:36:20.000Z</time>
      </trkpt>
      <trkpt lat="47.41953" lon="6.76663">
        <ele>422</ele>
        <time>2014-05-04T08:36:21.000Z</time>
      </trkpt>
      <trkpt lat="47.41954" lon="6.76659">
        <ele>419.7</ele>
        <time>2014-05-04T08:36:22.000Z</time>
      </trkpt>
      <trkpt lat="47.41954" lon="6.76654">
        <ele>419</ele>
        <time>2014-05-04T08:36:23.000Z</time>
      </trkpt>
      <trkpt lat="47.41954" lon="6.7665">
        <ele>418.8</ele>
        <time>2014-05-04T08:36:24.000Z</time>
      </trkpt>
      <trkpt lat="47.41954" lon="6.76645">
        <ele>418.3</ele>
        <time>2014-05-04T08:36:25.000Z</time>
      </trkpt>
      <trkpt lat="47.41954" lon="6.7664">
        <ele>418</ele>
        <time>2014-05-04T08:36:26.000Z</time>
      </trkpt>
      <trkpt lat="47.41954" lon="6.76635">
        <ele>416.8</ele>
        <time>2014-05-04T08:36:27.000Z</time>
      </trkpt>
      <trkpt lat="47.41954" lon="6.7663">
        <ele>416.1</ele>
        <time>2014-05-04T08:36:28.000Z</time>
      </trkpt>
      <trkpt lat="47.41954" lon="6.76625">
        <ele>415.5</ele>
        <time>2014-05-04T08:36:29.000Z</time>
      </trkpt>
      <trkpt lat="47.41955" lon="6.7662">
        <ele>414.8</ele>
        <time>2014-05-04T08:36:30.000Z</time>
      </trkpt>
      <trkpt lat="47.41955" lon="6.76614">
        <ele>412.3</ele>
        <time>2014-05-04T08:36:31.000Z</time>
      </trkpt>
      <trkpt lat="47.41955" lon="6.76609">
        <ele>412.3</ele>
        <time>2014-05-04T08:36:32.000Z</time>
      </trkpt>
      <trkpt lat="47.41955" lon="6.76604">
        <ele>412.3</ele>
        <time>2014-05-04T08:36:33.000Z</time>
      </trkpt>
      <trkpt lat="47.41955" lon="6.76599">
        <ele>412.8</ele>
        <time>2014-05-04T08:36:34.000Z</time>
      </trkpt>
      <trkpt lat="47.41955" lon="6.76594">
        <ele>413</ele>
        <time>2014-05-04T08:36:35.000Z</time>
      </trkpt>
      <trkpt lat="47.41955" lon="6.7659">
        <ele>413.2</ele>
        <time>2014-05-04T08:36:36.000Z</time>
      </trkpt>
      <trkpt lat="47.41955" lon="6.76585">
        <ele>413.4</ele>
        <time>2014-05-04T08:36:37.000Z</time>
      </trkpt>
      <trkpt lat="47.41955" lon="6.76581">
        <ele>413.3</ele>
        <time>2014-05-04T08:36:38.000Z</time>
      </trkpt>
      <trkpt lat="47.41954" lon="6.76576">
        <ele>412.8</ele>
        <time>2014-05-04T08:36:39.000Z</time>
      </trkpt>
      <trkpt lat="47.41954" lon="6.76572">
        <ele>413.3</ele>
        <time>2014-05-04T08:36:40.000Z</time>
      </trkpt>
      <trkpt lat="47.41953" lon="6.76567">
        <ele>413.3</ele>
        <time>2014-05-04T08:36:41.000Z</time>
      </trkpt>
      <trkpt lat="47.41947" lon="6.76531">
        <ele>412.2</ele>
        <time>2014-05-04T08:36:48.760Z</time>
      </trkpt>
      <trkpt lat="47.41946" lon="6.76526">
        <ele>411.3</ele>
        <time>2014-05-04T08:36:50.000Z</time>
      </trkpt>
      <trkpt lat="47.41945" lon="6.76521">
        <ele>411.3</ele>
        <time>2014-05-04T08:36:51.000Z</time>
      </trkpt>
      <trkpt lat="47.41944" lon="6.76517">
        <ele>412</ele>
        <time>2014-05-04T08:36:52.000Z</time>
      </trkpt>
      <trkpt lat="47.41944" lon="6.76513">
        <ele>412.3</ele>
        <time>2014-05-04T08:36:53.000Z</time>
      </trkpt>
      <trkpt lat="47.41943" lon="6.76509">
        <ele>412.9</ele>
        <time>2014-05-04T08:36:54.000Z</time>
      </trkpt>
      <trkpt lat="47.41943" lon="6.76505">
        <ele>413.7</ele>
        <time>2014-05-04T08:36:55.000Z</time>
      </trkpt>
      <trkpt lat="47.41942" lon="6.76502">
        <ele>415.5</ele>
        <time>2014-05-04T08:36:56.000Z</time>
      </trkpt>
      <trkpt lat="47.41942" lon="6.76498">
        <ele>417</ele>
        <time>2014-05-04T08:36:57.000Z</time>
      </trkpt>
      <trkpt lat="47.41941" lon="6.76494">
        <ele>415.5</ele>
        <time>2014-05-04T08:36:58.000Z</time>
      </trkpt>
      <trkpt lat="47.4194" lon="6.7649">
        <ele>413.9</ele>
        <time>2014-05-04T08:36:59.000Z</time>
      </trkpt>
      <trkpt lat="47.41939" lon="6.76485">
        <ele>413.8</ele>
        <time>2014-05-04T08:37:00.000Z</time>
      </trkpt>
      <trkpt lat="47.41939" lon="6.7648">
        <ele>413.7</ele>
        <time>2014-05-04T08:37:01.000Z</time>
      </trkpt>
      <trkpt lat="47.41938" lon="6.76474">
        <ele>414.3</ele>
        <time>2014-05-04T08:37:02.000Z</time>
      </trkpt>
      <trkpt lat="47.41938" lon="6.76469">
        <ele>414.7</ele>
        <time>2014-05-04T08:37:03.000Z</time>
      </trkpt>
      <trkpt lat="47.41937" lon="6.76465">
        <ele>415.4</ele>
        <time>2014-05-04T08:37:04.000Z</time>
      </trkpt>
      <trkpt lat="47.41936" lon="6.7646">
        <ele>416.4</ele>
        <time>2014-05-04T08:37:05.000Z</time>
      </trkpt>
      <trkpt lat="47.41936" lon="6.76456">
        <ele>416.5</ele>
        <time>2014-05-04T08:37:06.000Z</time>
      </trkpt>
      <trkpt lat="47.41935" lon="6.76453">
        <ele>416.5</ele>
        <time>2014-05-04T08:37:07.000Z</time>
      </trkpt>
      <trkpt lat="47.41934" lon="6.76449">
        <ele>415.6</ele>
        <time>2014-05-04T08:37:08.000Z</time>
      </trkpt>
      <trkpt lat="47.41933" lon="6.76445">
        <ele>415.6</ele>
        <time>2014-05-04T08:37:09.000Z</time>
      </trkpt>
      <trkpt lat="47.41932" lon="6.76442">
        <ele>416.6</ele>
        <time>2014-05-04T08:37:09.999Z</time>
      </trkpt>
      <trkpt lat="47.41931" lon="6.76437">
        <ele>415.7</ele>
        <time>2014-05-04T08:37:11.000Z</time>
      </trkpt>
      <trkpt lat="47.4193" lon="6.76434">
        <ele>417</ele>
        <time>2014-05-04T08:37:12.000Z</time>
      </trkpt>
      <trkpt lat="47.41929" lon="6.7643">
        <ele>418.5</ele>
        <time>2014-05-04T08:37:13.000Z</time>
      </trkpt>
      <trkpt lat="47.41928" lon="6.76427">
        <ele>419.1</ele>
        <time>2014-05-04T08:37:14.000Z</time>
      </trkpt>
      <trkpt lat="47.41927" lon="6.76422">
        <ele>417.7</ele>
        <time>2014-05-04T08:37:15.000Z</time>
      </trkpt>
      <trkpt lat="47.41926" lon="6.76418">
        <ele>417.2</ele>
        <time>2014-05-04T08:37:16.000Z</time>
      </trkpt>
      <trkpt lat="47.41925" lon="6.76413">
        <ele>416.5</ele>
        <time>2014-05-04T08:37:17.000Z</time>
      </trkpt>
      <trkpt lat="47.41924" lon="6.76408">
        <ele>415.4</ele>
        <time>2014-05-04T08:37:18.000Z</time>
      </trkpt>
      <trkpt lat="47.41924" lon="6.76403">
        <ele>414.9</ele>
        <time>2014-05-04T08:37:19.000Z</time>
      </trkpt>
      <trkpt lat="47.41923" lon="6.76398">
        <ele>415.2</ele>
        <time>2014-05-04T08:37:20.000Z</time>
      </trkpt>
      <trkpt lat="47.41922" lon="6.76393">
        <ele>414.4</ele>
        <time>2014-05-04T08:37:21.000Z</time>
      </trkpt>
      <trkpt lat="47.41921" lon="6.76389">
        <ele>417.1</ele>
        <time>2014-05-04T08:37:22.000Z</time>
      </trkpt>
      <trkpt lat="47.41921" lon="6.76386">
        <ele>418.7</ele>
        <time>2014-05-04T08:37:23.000Z</time>
      </trkpt>
      <trkpt lat="47.41918" lon="6.76381">
        <ele>420.6</ele>
        <time>2014-05-04T08:37:25.000Z</time>
      </trkpt>
      <trkpt lat="47.41917" lon="6.76377">
        <ele>419.8</ele>
        <time>2014-05-04T08:37:26.000Z</time>
      </trkpt>
      <trkpt lat="47.41916" lon="6.76373">
        <ele>419.7</ele>
        <time>2014-05-04T08:37:27.000Z</time>
      </trkpt>
      <trkpt lat="47.41915" lon="6.76368">
        <ele>420.9</ele>
        <time>2014-05-04T08:37:28.000Z</time>
      </trkpt>
      <trkpt lat="47.41915" lon="6.76364">
        <ele>423.4</ele>
        <time>2014-05-04T08:37:29.000Z</time>
      </trkpt>
      <trkpt lat="47.41914" lon="6.76361">
        <ele>424.8</ele>
        <time>2014-05-04T08:37:30.000Z</time>
      </trkpt>
      <trkpt lat="47.41913" lon="6.76354">
        <ele>426.4</ele>
        <time>2014-05-04T08:37:32.000Z</time>
      </trkpt>
      <trkpt lat="47.41912" lon="6.76351">
        <ele>427.8</ele>
        <time>2014-05-04T08:37:33.000Z</time>
      </trkpt>
      <trkpt lat="47.41912" lon="6.76346">
        <ele>428.1</ele>
        <time>2014-05-04T08:37:34.000Z</time>
      </trkpt>
      <trkpt lat="47.41912" lon="6.76341">
        <ele>426.7</ele>
        <time>2014-05-04T08:37:35.000Z</time>
      </trkpt>
      <trkpt lat="47.41912" lon="6.76336">
        <ele>426.4</ele>
        <time>2014-05-04T08:37:36.000Z</time>
      </trkpt>
      <trkpt lat="47.41912" lon="6.76331">
        <ele>427.5</ele>
        <time>2014-05-04T08:37:37.000Z</time>
      </trkpt>
      <trkpt lat="47.41912" lon="6.76326">
        <ele>428.9</ele>
        <time>2014-05-04T08:37:38.000Z</time>
      </trkpt>
      <trkpt lat="47.41912" lon="6.7632">
        <ele>428.9</ele>
        <time>2014-05-04T08:37:39.000Z</time>
      </trkpt>
      <trkpt lat="47.41912" lon="6.76316">
        <ele>430.8</ele>
        <time>2014-05-04T08:37:40.000Z</time>
      </trkpt>
      <trkpt lat="47.41913" lon="6.76312">
        <ele>431.1</ele>
        <time>2014-05-04T08:37:41.000Z</time>
      </trkpt>
      <trkpt lat="47.41914" lon="6.76308">
        <ele>431.5</ele>
        <time>2014-05-04T08:37:42.000Z</time>
      </trkpt>
      <trkpt lat="47.41912" lon="6.76277">
        <ele>431.6</ele>
        <time>2014-05-04T08:37:50.000Z</time>
      </trkpt>
      <trkpt lat="47.41912" lon="6.76272">
        <ele>432.4</ele>
        <time>2014-05-04T08:37:51.000Z</time>
      </trkpt>
      <trkpt lat="47.41911" lon="6.76266">
        <ele>432.7</ele>
        <time>2014-05-04T08:37:52.000Z</time>
      </trkpt>
      <trkpt lat="47.4191" lon="6.76262">
        <ele>433.2</ele>
        <time>2014-05-04T08:37:52.999Z</time>
      </trkpt>
      <trkpt lat="47.41908" lon="6.76258">
        <ele>432.5</ele>
        <time>2014-05-04T08:37:54.000Z</time>
      </trkpt>
      <trkpt lat="47.41907" lon="6.76254">
        <ele>431.3</ele>
        <time>2014-05-04T08:37:55.000Z</time>
      </trkpt>
      <trkpt lat="47.41907" lon="6.7625">
        <ele>432.7</ele>
        <time>2014-05-04T08:37:56.000Z</time>
      </trkpt>
      <trkpt lat="47.41906" lon="6.76247">
        <ele>432.7</ele>
        <time>2014-05-04T08:37:57.000Z</time>
      </trkpt>
      <trkpt lat="47.41906" lon="6.76243">
        <ele>433.7</ele>
        <time>2014-05-04T08:37:58.000Z</time>
      </trkpt>
      <trkpt lat="47.41906" lon="6.76239">
        <ele>434.9</ele>
        <time>2014-05-04T08:37:59.000Z</time>
      </trkpt>
      <trkpt lat="47.41906" lon="6.76235">
        <ele>436.3</ele>
        <time>2014-05-04T08:38:00.000Z</time>
      </trkpt>
      <trkpt lat="47.41906" lon="6.76231">
        <ele>437.4</ele>
        <time>2014-05-04T08:38:01.000Z</time>
      </trkpt>
      <trkpt lat="47.41906" lon="6.76227">
        <ele>438.8</ele>
        <time>2014-05-04T08:38:02.000Z</time>
      </trkpt>
      <trkpt lat="47.41906" lon="6.76223">
        <ele>438.8</ele>
        <time>2014-05-04T08:38:03.000Z</time>
      </trkpt>
      <trkpt lat="47.41907" lon="6.76218">
        <ele>439.4</ele>
        <time>2014-05-04T08:38:04.000Z</time>
      </trkpt>
      <trkpt lat="47.41907" lon="6.76213">
        <ele>439.5</ele>
        <time>2014-05-04T08:38:05.000Z</time>
      </trkpt>
      <trkpt lat="47.41907" lon="6.76209">
        <ele>440.5</ele>
        <time>2014-05-04T08:38:06.000Z</time>
      </trkpt>
      <trkpt lat="47.41908" lon="6.76204">
        <ele>440.2</ele>
        <time>2014-05-04T08:38:07.000Z</time>
      </trkpt>
      <trkpt lat="47.41909" lon="6.76199">
        <ele>439.1</ele>
        <time>2014-05-04T08:38:08.000Z</time>
      </trkpt>
      <trkpt lat="47.41909" lon="6.76194">
        <ele>440</ele>
        <time>2014-05-04T08:38:09.000Z</time>
      </trkpt>
      <trkpt lat="47.41909" lon="6.76189">
        <ele>438.5</ele>
        <time>2014-05-04T08:38:10.000Z</time>
      </trkpt>
      <trkpt lat="47.41909" lon="6.76184">
        <ele>437.5</ele>
        <time>2014-05-04T08:38:11.000Z</time>
      </trkpt>
      <trkpt lat="47.41909" lon="6.76179">
        <ele>439.1</ele>
        <time>2014-05-04T08:38:12.000Z</time>
      </trkpt>
      <trkpt lat="47.41908" lon="6.76175">
        <ele>439.1</ele>
        <time>2014-05-04T08:38:13.000Z</time>
      </trkpt>
      <trkpt lat="47.41908" lon="6.76171">
        <ele>438.6</ele>
        <time>2014-05-04T08:38:14.000Z</time>
      </trkpt>
      <trkpt lat="47.41908" lon="6.76168">
        <ele>438.3</ele>
        <time>2014-05-04T08:38:15.000Z</time>
      </trkpt>
      <trkpt lat="47.41907" lon="6.76164">
        <ele>438.5</ele>
        <time>2014-05-04T08:38:16.000Z</time>
      </trkpt>
      <trkpt lat="47.41907" lon="6.76159">
        <ele>438.6</ele>
        <time>2014-05-04T08:38:17.000Z</time>
      </trkpt>
      <trkpt lat="47.41907" lon="6.76155">
        <ele>439</ele>
        <time>2014-05-04T08:38:18.000Z</time>
      </trkpt>
      <trkpt lat="47.41906" lon="6.76151">
        <ele>439.7</ele>
        <time>2014-05-04T08:38:19.000Z</time>
      </trkpt>
      <trkpt lat="47.41906" lon="6.76147">
        <ele>439</ele>
        <time>2014-05-04T08:38:20.000Z</time>
      </trkpt>
      <trkpt lat="47.41906" lon="6.76141">
        <ele>438.1</ele>
        <time>2014-05-04T08:38:21.000Z</time>
      </trkpt>
      <trkpt lat="47.41906" lon="6.76136">
        <ele>437.6</ele>
        <time>2014-05-04T08:38:22.000Z</time>
      </trkpt>
      <trkpt lat="47.41906" lon="6.76131">
        <ele>438.1</ele>
        <time>2014-05-04T08:38:23.000Z</time>
      </trkpt>
      <trkpt lat="47.41906" lon="6.76126">
        <ele>438.5</ele>
        <time>2014-05-04T08:38:24.000Z</time>
      </trkpt>
      <trkpt lat="47.41906" lon="6.76122">
        <ele>438</ele>
        <time>2014-05-04T08:38:25.000Z</time>
      </trkpt>
      <trkpt lat="47.41906" lon="6.76118">
        <ele>436.5</ele>
        <time>2014-05-04T08:38:26.000Z</time>
      </trkpt>
      <trkpt lat="47.41905" lon="6.76114">
        <ele>436.2</ele>
        <time>2014-05-04T08:38:27.000Z</time>
      </trkpt>
      <trkpt lat="47.41905" lon="6.7611">
        <ele>436.5</ele>
        <time>2014-05-04T08:38:28.000Z</time>
      </trkpt>
      <trkpt lat="47.41904" lon="6.76107">
        <ele>437.9</ele>
        <time>2014-05-04T08:38:29.000Z</time>
      </trkpt>
      <trkpt lat="47.41902" lon="6.76104">
        <ele>439.2</ele>
        <time>2014-05-04T08:38:30.000Z</time>
      </trkpt>
      <trkpt lat="47.419" lon="6.76099">
        <ele>439.2</ele>
        <time>2014-05-04T08:38:32.000Z</time>
      </trkpt>
      <trkpt lat="47.41899" lon="6.76094">
        <ele>439.1</ele>
        <time>2014-05-04T08:38:33.000Z</time>
      </trkpt>
      <trkpt lat="47.41899" lon="6.7609">
        <ele>437.1</ele>
        <time>2014-05-04T08:38:34.000Z</time>
      </trkpt>
      <trkpt lat="47.41899" lon="6.76084">
        <ele>436.6</ele>
        <time>2014-05-04T08:38:35.000Z</time>
      </trkpt>
      <trkpt lat="47.41899" lon="6.76079">
        <ele>436.7</ele>
        <time>2014-05-04T08:38:36.000Z</time>
      </trkpt>
      <trkpt lat="47.41899" lon="6.76074">
        <ele>435.5</ele>
        <time>2014-05-04T08:38:37.000Z</time>
      </trkpt>
      <trkpt lat="47.41899" lon="6.7607">
        <ele>434.9</ele>
        <time>2014-05-04T08:38:37.999Z</time>
      </trkpt>
      <trkpt lat="47.419" lon="6.76064">
        <ele>436.6</ele>
        <time>2014-05-04T08:38:39.000Z</time>
      </trkpt>
      <trkpt lat="47.419" lon="6.7606">
        <ele>437.5</ele>
        <time>2014-05-04T08:38:40.000Z</time>
      </trkpt>
      <trkpt lat="47.419" lon="6.76056">
        <ele>437.5</ele>
        <time>2014-05-04T08:38:41.000Z</time>
      </trkpt>
      <trkpt lat="47.419" lon="6.76053">
        <ele>438.7</ele>
        <time>2014-05-04T08:38:42.000Z</time>
      </trkpt>
      <trkpt lat="47.41893" lon="6.76024">
        <ele>438.3</ele>
        <time>2014-05-04T08:38:50.000Z</time>
      </trkpt>
      <trkpt lat="47.41892" lon="6.76019">
        <ele>438.1</ele>
        <time>2014-05-04T08:38:51.000Z</time>
      </trkpt>
      <trkpt lat="47.41891" lon="6.76014">
        <ele>437.4</ele>
        <time>2014-05-04T08:38:52.000Z</time>
      </trkpt>
      <trkpt lat="47.4189" lon="6.76011">
        <ele>437.1</ele>
        <time>2014-05-04T08:38:53.000Z</time>
      </trkpt>
      <trkpt lat="47.41888" lon="6.76008">
        <ele>438.5</ele>
        <time>2014-05-04T08:38:54.000Z</time>
      </trkpt>
      <trkpt lat="47.41885" lon="6.76004">
        <ele>441.2</ele>
        <time>2014-05-04T08:38:56.000Z</time>
      </trkpt>
      <trkpt lat="47.41883" lon="6.76004">
        <ele>444.5</ele>
        <time>2014-05-04T08:38:57.000Z</time>
      </trkpt>
      <trkpt lat="47.41879" lon="6.76004">
        <ele>440.3</ele>
        <time>2014-05-04T08:38:59.000Z</time>
      </trkpt>
      <trkpt lat="47.41877" lon="6.76006">
        <ele>439.3</ele>
        <time>2014-05-04T08:39:00.000Z</time>
      </trkpt>
      <trkpt lat="47.41875" lon="6.76008">
        <ele>438.5</ele>
        <time>2014-05-04T08:39:01.000Z</time>
      </trkpt>
      <trkpt lat="47.41873" lon="6.76011">
        <ele>439.7</ele>
        <time>2014-05-04T08:39:02.000Z</time>
      </trkpt>
      <trkpt lat="47.41872" lon="6.76014">
        <ele>438.9</ele>
        <time>2014-05-04T08:39:03.000Z</time>
      </trkpt>
      <trkpt lat="47.41871" lon="6.76018">
        <ele>439.2</ele>
        <time>2014-05-04T08:39:04.000Z</time>
      </trkpt>
      <trkpt lat="47.41871" lon="6.76021">
        <ele>437.3</ele>
        <time>2014-05-04T08:39:05.000Z</time>
      </trkpt>
      <trkpt lat="47.4187" lon="6.76026">
        <ele>436.8</ele>
        <time>2014-05-04T08:39:06.000Z</time>
      </trkpt>
      <trkpt lat="47.41869" lon="6.7603">
        <ele>436.7</ele>
        <time>2014-05-04T08:39:07.000Z</time>
      </trkpt>
      <trkpt lat="47.41869" lon="6.76034">
        <ele>436.4</ele>
        <time>2014-05-04T08:39:08.000Z</time>
      </trkpt>
      <trkpt lat="47.41868" lon="6.76038">
        <ele>436.8</ele>
        <time>2014-05-04T08:39:09.000Z</time>
      </trkpt>
      <trkpt lat="47.41867" lon="6.76042">
        <ele>436.7</ele>
        <time>2014-05-04T08:39:10.000Z</time>
      </trkpt>
      <trkpt lat="47.41867" lon="6.76047">
        <ele>437.1</ele>
        <time>2014-05-04T08:39:11.000Z</time>
      </trkpt>
      <trkpt lat="47.41866" lon="6.76051">
        <ele>437.7</ele>
        <time>2014-05-04T08:39:12.000Z</time>
      </trkpt>
      <trkpt lat="47.41865" lon="6.76055">
        <ele>439</ele>
        <time>2014-05-04T08:39:13.000Z</time>
      </trkpt>
      <trkpt lat="47.41864" lon="6.76058">
        <ele>439.6</ele>
        <time>2014-05-04T08:39:14.000Z</time>
      </trkpt>
      <trkpt lat="47.41863" lon="6.76062">
        <ele>437.7</ele>
        <time>2014-05-04T08:39:15.000Z</time>
      </trkpt>
      <trkpt lat="47.41862" lon="6.76067">
        <ele>437.9</ele>
        <time>2014-05-04T08:39:16.000Z</time>
      </trkpt>
      <trkpt lat="47.41861" lon="6.76072">
        <ele>439</ele>
        <time>2014-05-04T08:39:17.000Z</time>
      </trkpt>
      <trkpt lat="47.41859" lon="6.76077">
        <ele>439.5</ele>
        <time>2014-05-04T08:39:18.000Z</time>
      </trkpt>
      <trkpt lat="47.41857" lon="6.76081">
        <ele>440.7</ele>
        <time>2014-05-04T08:39:19.000Z</time>
      </trkpt>
      <trkpt lat="47.41855" lon="6.76085">
        <ele>439.8</ele>
        <time>2014-05-04T08:39:20.000Z</time>
      </trkpt>
      <trkpt lat="47.41853" lon="6.76089">
        <ele>439.5</ele>
        <time>2014-05-04T08:39:21.000Z</time>
      </trkpt>
      <trkpt lat="47.41851" lon="6.76092">
        <ele>440.3</ele>
        <time>2014-05-04T08:39:22.000Z</time>
      </trkpt>
      <trkpt lat="47.41849" lon="6.76094">
        <ele>441</ele>
        <time>2014-05-04T08:39:23.000Z</time>
      </trkpt>
      <trkpt lat="47.41847" lon="6.76097">
        <ele>441.1</ele>
        <time>2014-05-04T08:39:24.000Z</time>
      </trkpt>
      <trkpt lat="47.41845" lon="6.76101">
        <ele>441.3</ele>
        <time>2014-05-04T08:39:25.000Z</time>
      </trkpt>
      <trkpt lat="47.41843" lon="6.76105">
        <ele>441.1</ele>
        <time>2014-05-04T08:39:26.000Z</time>
      </trkpt>
      <trkpt lat="47.41842" lon="6.76109">
        <ele>441.8</ele>
        <time>2014-05-04T08:39:27.000Z</time>
      </trkpt>
      <trkpt lat="47.41841" lon="6.76113">
        <ele>442.5</ele>
        <time>2014-05-04T08:39:28.000Z</time>
      </trkpt>
      <trkpt lat="47.41839" lon="6.76117">
        <ele>440.7</ele>
        <time>2014-05-04T08:39:29.000Z</time>
      </trkpt>
      <trkpt lat="47.41838" lon="6.76121">
        <ele>439.9</ele>
        <time>2014-05-04T08:39:30.000Z</time>
      </trkpt>
      <trkpt lat="47.41837" lon="6.76124">
        <ele>438.7</ele>
        <time>2014-05-04T08:39:31.000Z</time>
      </trkpt>
      <trkpt lat="47.41836" lon="6.76128">
        <ele>439.7</ele>
        <time>2014-05-04T08:39:32.000Z</time>
      </trkpt>
      <trkpt lat="47.41834" lon="6.76133">
        <ele>439.5</ele>
        <time>2014-05-04T08:39:33.000Z</time>
      </trkpt>
      <trkpt lat="47.41832" lon="6.76137">
        <ele>440.7</ele>
        <time>2014-05-04T08:39:34.000Z</time>
      </trkpt>
      <trkpt lat="47.4183" lon="6.76141">
        <ele>442.1</ele>
        <time>2014-05-04T08:39:35.000Z</time>
      </trkpt>
      <trkpt lat="47.41827" lon="6.76144">
        <ele>441.2</ele>
        <time>2014-05-04T08:39:36.000Z</time>
      </trkpt>
      <trkpt lat="47.41825" lon="6.76147">
        <ele>441</ele>
        <time>2014-05-04T08:39:37.000Z</time>
      </trkpt>
      <trkpt lat="47.41823" lon="6.7615">
        <ele>441.2</ele>
        <time>2014-05-04T08:39:38.000Z</time>
      </trkpt>
      <trkpt lat="47.41822" lon="6.76153">
        <ele>442.5</ele>
        <time>2014-05-04T08:39:39.000Z</time>
      </trkpt>
      <trkpt lat="47.4182" lon="6.76157">
        <ele>441.6</ele>
        <time>2014-05-04T08:39:40.000Z</time>
      </trkpt>
      <trkpt lat="47.41819" lon="6.7616">
        <ele>440.9</ele>
        <time>2014-05-04T08:39:41.000Z</time>
      </trkpt>
      <trkpt lat="47.41816" lon="6.76173">
        <ele>438.8</ele>
        <time>2014-05-04T08:39:44.000Z</time>
      </trkpt>
      <trkpt lat="47.41815" lon="6.76177">
        <ele>440.1</ele>
        <time>2014-05-04T08:39:45.000Z</time>
      </trkpt>
      <trkpt lat="47.41813" lon="6.76181">
        <ele>442.7</ele>
        <time>2014-05-04T08:39:46.000Z</time>
      </trkpt>
      <trkpt lat="47.41812" lon="6.76184">
        <ele>443.7</ele>
        <time>2014-05-04T08:39:47.000Z</time>
      </trkpt>
      <trkpt lat="47.4181" lon="6.76187">
        <ele>443.2</ele>
        <time>2014-05-04T08:39:48.000Z</time>
      </trkpt>
      <trkpt lat="47.41809" lon="6.76191">
        <ele>442.9</ele>
        <time>2014-05-04T08:39:49.000Z</time>
      </trkpt>
      <trkpt lat="47.41807" lon="6.76195">
        <ele>442.8</ele>
        <time>2014-05-04T08:39:50.000Z</time>
      </trkpt>
      <trkpt lat="47.41806" lon="6.76199">
        <ele>442.4</ele>
        <time>2014-05-04T08:39:51.000Z</time>
      </trkpt>
      <trkpt lat="47.41804" lon="6.76204">
        <ele>443.1</ele>
        <time>2014-05-04T08:39:52.000Z</time>
      </trkpt>
      <trkpt lat="47.41803" lon="6.76207">
        <ele>443.1</ele>
        <time>2014-05-04T08:39:52.999Z</time>
      </trkpt>
      <trkpt lat="47.41803" lon="6.76212">
        <ele>450.9</ele>
        <time>2014-05-04T08:39:54.000Z</time>
      </trkpt>
      <trkpt lat="47.41803" lon="6.76215">
        <ele>453</ele>
        <time>2014-05-04T08:39:55.000Z</time>
      </trkpt>
      <trkpt lat="47.41802" lon="6.76219">
        <ele>455.3</ele>
        <time>2014-05-04T08:39:56.000Z</time>
      </trkpt>
      <trkpt lat="47.41802" lon="6.76223">
        <ele>453.8</ele>
        <time>2014-05-04T08:39:57.000Z</time>
      </trkpt>
      <trkpt lat="47.41801" lon="6.76226">
        <ele>454.7</ele>
        <time>2014-05-04T08:39:58.000Z</time>
      </trkpt>
      <trkpt lat="47.41799" lon="6.7623">
        <ele>454.6</ele>
        <time>2014-05-04T08:39:59.000Z</time>
      </trkpt>
      <trkpt lat="47.41798" lon="6.76234">
        <ele>453.5</ele>
        <time>2014-05-04T08:40:00.000Z</time>
      </trkpt>
      <trkpt lat="47.41797" lon="6.76239">
        <ele>453.3</ele>
        <time>2014-05-04T08:40:01.000Z</time>
      </trkpt>
      <trkpt lat="47.41796" lon="6.76243">
        <ele>454.7</ele>
        <time>2014-05-04T08:40:02.000Z</time>
      </trkpt>
      <trkpt lat="47.41794" lon="6.76246">
        <ele>455.8</ele>
        <time>2014-05-04T08:40:03.000Z</time>
      </trkpt>
      <trkpt lat="47.41793" lon="6.76249">
        <ele>458.6</ele>
        <time>2014-05-04T08:40:04.000Z</time>
      </trkpt>
      <trkpt lat="47.4179" lon="6.76253">
        <ele>462.6</ele>
        <time>2014-05-04T08:40:06.000Z</time>
      </trkpt>
      <trkpt lat="47.41789" lon="6.76256">
        <ele>464.6</ele>
        <time>2014-05-04T08:40:07.000Z</time>
      </trkpt>
      <trkpt lat="47.41787" lon="6.76261">
        <ele>467.1</ele>
        <time>2014-05-04T08:40:09.000Z</time>
      </trkpt>
      <trkpt lat="47.41786" lon="6.76263">
        <ele>469.1</ele>
        <time>2014-05-04T08:40:10.000Z</time>
      </trkpt>
      <trkpt lat="47.41785" lon="6.76269">
        <ele>472.1</ele>
        <time>2014-05-04T08:40:13.000Z</time>
      </trkpt>
      <trkpt lat="47.41784" lon="6.76271">
        <ele>471.9</ele>
        <time>2014-05-04T08:40:14.000Z</time>
      </trkpt>
      <trkpt lat="47.41784" lon="6.76274">
        <ele>472.2</ele>
        <time>2014-05-04T08:40:15.000Z</time>
      </trkpt>
      <trkpt lat="47.41783" lon="6.76278">
        <ele>471.7</ele>
        <time>2014-05-04T08:40:16.000Z</time>
      </trkpt>
      <trkpt lat="47.41782" lon="6.76282">
        <ele>464.9</ele>
        <time>2014-05-04T08:40:17.000Z</time>
      </trkpt>
      <trkpt lat="47.4178" lon="6.76286">
        <ele>465.9</ele>
        <time>2014-05-04T08:40:18.000Z</time>
      </trkpt>
      <trkpt lat="47.41779" lon="6.7629">
        <ele>464.6</ele>
        <time>2014-05-04T08:40:19.000Z</time>
      </trkpt>
      <trkpt lat="47.41778" lon="6.76294">
        <ele>463.7</ele>
        <time>2014-05-04T08:40:20.000Z</time>
      </trkpt>
      <trkpt lat="47.41776" lon="6.76299">
        <ele>463.2</ele>
        <time>2014-05-04T08:40:21.000Z</time>
      </trkpt>
      <trkpt lat="47.41776" lon="6.76304">
        <ele>463.9</ele>
        <time>2014-05-04T08:40:22.000Z</time>
      </trkpt>
      <trkpt lat="47.41775" lon="6.76309">
        <ele>466.8</ele>
        <time>2014-05-04T08:40:23.000Z</time>
      </trkpt>
      <trkpt lat="47.41775" lon="6.76313">
        <ele>469.3</ele>
        <time>2014-05-04T08:40:24.000Z</time>
      </trkpt>
      <trkpt lat="47.41774" lon="6.76316">
        <ele>470.5</ele>
        <time>2014-05-04T08:40:25.000Z</time>
      </trkpt>
      <trkpt lat="47.41773" lon="6.7632">
        <ele>468.3</ele>
        <time>2014-05-04T08:40:26.000Z</time>
      </trkpt>
      <trkpt lat="47.41772" lon="6.76324">
        <ele>467.9</ele>
        <time>2014-05-04T08:40:27.000Z</time>
      </trkpt>
      <trkpt lat="47.41771" lon="6.76328">
        <ele>464.2</ele>
        <time>2014-05-04T08:40:28.000Z</time>
      </trkpt>
      <trkpt lat="47.4177" lon="6.76331">
        <ele>460.6</ele>
        <time>2014-05-04T08:40:28.999Z</time>
      </trkpt>
      <trkpt lat="47.41769" lon="6.76337">
        <ele>461.3</ele>
        <time>2014-05-04T08:40:30.000Z</time>
      </trkpt>
      <trkpt lat="47.41768" lon="6.76342">
        <ele>462</ele>
        <time>2014-05-04T08:40:31.000Z</time>
      </trkpt>
      <trkpt lat="47.41768" lon="6.76346">
        <ele>459.8</ele>
        <time>2014-05-04T08:40:32.000Z</time>
      </trkpt>
      <trkpt lat="47.41767" lon="6.7635">
        <ele>459.7</ele>
        <time>2014-05-04T08:40:33.000Z</time>
      </trkpt>
      <trkpt lat="47.41766" lon="6.76354">
        <ele>460.4</ele>
        <time>2014-05-04T08:40:34.000Z</time>
      </trkpt>
      <trkpt lat="47.41766" lon="6.76358">
        <ele>461.3</ele>
        <time>2014-05-04T08:40:35.000Z</time>
      </trkpt>
      <trkpt lat="47.41765" lon="6.76362">
        <ele>461.8</ele>
        <time>2014-05-04T08:40:36.000Z</time>
      </trkpt>
      <trkpt lat="47.41765" lon="6.76366">
        <ele>461.4</ele>
        <time>2014-05-04T08:40:37.000Z</time>
      </trkpt>
      <trkpt lat="47.41765" lon="6.7637">
        <ele>461.9</ele>
        <time>2014-05-04T08:40:38.000Z</time>
      </trkpt>
      <trkpt lat="47.41765" lon="6.76374">
        <ele>462.1</ele>
        <time>2014-05-04T08:40:39.000Z</time>
      </trkpt>
      <trkpt lat="47.41765" lon="6.76378">
        <ele>467.3</ele>
        <time>2014-05-04T08:40:40.000Z</time>
      </trkpt>
      <trkpt lat="47.41765" lon="6.76383">
        <ele>466.4</ele>
        <time>2014-05-04T08:40:41.000Z</time>
      </trkpt>
      <trkpt lat="47.41763" lon="6.76391">
        <ele>466.2</ele>
        <time>2014-05-04T08:40:42.884Z</time>
      </trkpt>
      <trkpt lat="47.41761" lon="6.76396">
        <ele>466</ele>
        <time>2014-05-04T08:40:44.000Z</time>
      </trkpt>
      <trkpt lat="47.4176" lon="6.76399">
        <ele>466.9</ele>
        <time>2014-05-04T08:40:45.000Z</time>
      </trkpt>
      <trkpt lat="47.41758" lon="6.76404">
        <ele>464.1</ele>
        <time>2014-05-04T08:40:46.000Z</time>
      </trkpt>
      <trkpt lat="47.41757" lon="6.76408">
        <ele>464.2</ele>
        <time>2014-05-04T08:40:47.000Z</time>
      </trkpt>
      <trkpt lat="47.41756" lon="6.76412">
        <ele>464.4</ele>
        <time>2014-05-04T08:40:48.000Z</time>
      </trkpt>
      <trkpt lat="47.41755" lon="6.76415">
        <ele>467.5</ele>
        <time>2014-05-04T08:40:49.000Z</time>
      </trkpt>
      <trkpt lat="47.41755" lon="6.76421">
        <ele>470</ele>
        <time>2014-05-04T08:40:51.000Z</time>
      </trkpt>
      <trkpt lat="47.41755" lon="6.76424">
        <ele>470</ele>
        <time>2014-05-04T08:40:52.000Z</time>
      </trkpt>
      <trkpt lat="47.41755" lon="6.76426">
        <ele>470.6</ele>
        <time>2014-05-04T08:40:53.000Z</time>
      </trkpt>
      <trkpt lat="47.41756" lon="6.76432">
        <ele>467.5</ele>
        <time>2014-05-04T08:40:54.000Z</time>
      </trkpt>
      <trkpt lat="47.41756" lon="6.76436">
        <ele>467.2</ele>
        <time>2014-05-04T08:40:55.000Z</time>
      </trkpt>
      <trkpt lat="47.41755" lon="6.76441">
        <ele>466.8</ele>
        <time>2014-05-04T08:40:56.000Z</time>
      </trkpt>
      <trkpt lat="47.41753" lon="6.76445">
        <ele>466.8</ele>
        <time>2014-05-04T08:40:57.000Z</time>
      </trkpt>
      <trkpt lat="47.41752" lon="6.76449">
        <ele>467.4</ele>
        <time>2014-05-04T08:40:58.000Z</time>
      </trkpt>
      <trkpt lat="47.41751" lon="6.76452">
        <ele>470.1</ele>
        <time>2014-05-04T08:40:59.000Z</time>
      </trkpt>
      <trkpt lat="47.4175" lon="6.76456">
        <ele>471.8</ele>
        <time>2014-05-04T08:41:00.000Z</time>
      </trkpt>
      <trkpt lat="47.4175" lon="6.76461">
        <ele>473.2</ele>
        <time>2014-05-04T08:41:02.000Z</time>
      </trkpt>
      <trkpt lat="47.4175" lon="6.76463">
        <ele>475.2</ele>
        <time>2014-05-04T08:41:03.000Z</time>
      </trkpt>
      <trkpt lat="47.41749" lon="6.76467">
        <ele>476.4</ele>
        <time>2014-05-04T08:41:04.000Z</time>
      </trkpt>
      <trkpt lat="47.41748" lon="6.76471">
        <ele>477.7</ele>
        <time>2014-05-04T08:41:05.000Z</time>
      </trkpt>
      <trkpt lat="47.41747" lon="6.76474">
        <ele>481.4</ele>
        <time>2014-05-04T08:41:06.000Z</time>
      </trkpt>
      <trkpt lat="47.41746" lon="6.76477">
        <ele>482</ele>
        <time>2014-05-04T08:41:07.000Z</time>
      </trkpt>
      <trkpt lat="47.41745" lon="6.7648">
        <ele>483.2</ele>
        <time>2014-05-04T08:41:08.000Z</time>
      </trkpt>
      <trkpt lat="47.41744" lon="6.76483">
        <ele>483.1</ele>
        <time>2014-05-04T08:41:09.000Z</time>
      </trkpt>
      <trkpt lat="47.41742" lon="6.76486">
        <ele>487.6</ele>
        <time>2014-05-04T08:41:10.000Z</time>
      </trkpt>
      <trkpt lat="47.4174" lon="6.76489">
        <ele>488.9</ele>
        <time>2014-05-04T08:41:11.000Z</time>
      </trkpt>
      <trkpt lat="47.41738" lon="6.76493">
        <ele>489.3</ele>
        <time>2014-05-04T08:41:12.000Z</time>
      </trkpt>
      <trkpt lat="47.41737" lon="6.76497">
        <ele>488.9</ele>
        <time>2014-05-04T08:41:13.000Z</time>
      </trkpt>
      <trkpt lat="47.41736" lon="6.765">
        <ele>489</ele>
        <time>2014-05-04T08:41:14.000Z</time>
      </trkpt>
      <trkpt lat="47.41735" lon="6.76506">
        <ele>493</ele>
        <time>2014-05-04T08:41:15.000Z</time>
      </trkpt>
      <trkpt lat="47.41734" lon="6.76509">
        <ele>495.1</ele>
        <time>2014-05-04T08:41:16.000Z</time>
      </trkpt>
      <trkpt lat="47.41733" lon="6.76514">
        <ele>495.3</ele>
        <time>2014-05-04T08:41:17.000Z</time>
      </trkpt>
      <trkpt lat="47.41733" lon="6.76518">
        <ele>496.5</ele>
        <time>2014-05-04T08:41:17.999Z</time>
      </trkpt>
      <trkpt lat="47.41732" lon="6.76522">
        <ele>500.5</ele>
        <time>2014-05-04T08:41:19.000Z</time>
      </trkpt>
      <trkpt lat="47.41731" lon="6.76526">
        <ele>503.8</ele>
        <time>2014-05-04T08:41:20.000Z</time>
      </trkpt>
      <trkpt lat="47.41731" lon="6.76532">
        <ele>508.9</ele>
        <time>2014-05-04T08:41:21.000Z</time>
      </trkpt>
      <trkpt lat="47.41728" lon="6.76536">
        <ele>516.4</ele>
        <time>2014-05-04T08:41:23.000Z</time>
      </trkpt>
      <trkpt lat="47.41726" lon="6.76538">
        <ele>519.5</ele>
        <time>2014-05-04T08:41:24.000Z</time>
      </trkpt>
      <trkpt lat="47.41727" lon="6.76545">
        <ele>520.1</ele>
        <time>2014-05-04T08:41:25.000Z</time>
      </trkpt>
      <trkpt lat="47.41725" lon="6.76547">
        <ele>520.4</ele>
        <time>2014-05-04T08:41:26.000Z</time>
      </trkpt>
      <trkpt lat="47.41725" lon="6.76552">
        <ele>521.6</ele>
        <time>2014-05-04T08:41:27.000Z</time>
      </trkpt>
      <trkpt lat="47.41725" lon="6.76557">
        <ele>522.4</ele>
        <time>2014-05-04T08:41:28.000Z</time>
      </trkpt>
      <trkpt lat="47.41724" lon="6.76561">
        <ele>523.5</ele>
        <time>2014-05-04T08:41:29.000Z</time>
      </trkpt>
      <trkpt lat="47.41723" lon="6.76567">
        <ele>523</ele>
        <time>2014-05-04T08:41:30.000Z</time>
      </trkpt>
      <trkpt lat="47.41722" lon="6.7657">
        <ele>521.7</ele>
        <time>2014-05-04T08:41:31.000Z</time>
      </trkpt>
      <trkpt lat="47.41722" lon="6.76575">
        <ele>516.9</ele>
        <time>2014-05-04T08:41:32.000Z</time>
      </trkpt>
      <trkpt lat="47.41722" lon="6.76579">
        <ele>516.1</ele>
        <time>2014-05-04T08:41:32.998Z</time>
      </trkpt>
      <trkpt lat="47.41721" lon="6.76583">
        <ele>511.3</ele>
        <time>2014-05-04T08:41:34.000Z</time>
      </trkpt>
      <trkpt lat="47.4172" lon="6.76587">
        <ele>508.8</ele>
        <time>2014-05-04T08:41:35.000Z</time>
      </trkpt>
      <trkpt lat="47.4172" lon="6.76591">
        <ele>508.6</ele>
        <time>2014-05-04T08:41:36.000Z</time>
      </trkpt>
      <trkpt lat="47.41718" lon="6.76595">
        <ele>505.7</ele>
        <time>2014-05-04T08:41:37.000Z</time>
      </trkpt>
      <trkpt lat="47.41717" lon="6.76599">
        <ele>505.2</ele>
        <time>2014-05-04T08:41:38.000Z</time>
      </trkpt>
      <trkpt lat="47.41716" lon="6.76603">
        <ele>503.3</ele>
        <time>2014-05-04T08:41:39.000Z</time>
      </trkpt>
      <trkpt lat="47.41715" lon="6.76608">
        <ele>501</ele>
        <time>2014-05-04T08:41:40.000Z</time>
      </trkpt>
      <trkpt lat="47.41714" lon="6.76612">
        <ele>497.4</ele>
        <time>2014-05-04T08:41:41.000Z</time>
      </trkpt>
      <trkpt lat="47.41712" lon="6.76617">
        <ele>496.7</ele>
        <time>2014-05-04T08:41:42.000Z</time>
      </trkpt>
      <trkpt lat="47.41706" lon="6.76651">
        <ele>483.5</ele>
        <time>2014-05-04T08:41:50.000Z</time>
      </trkpt>
      <trkpt lat="47.41705" lon="6.76655">
        <ele>483.1</ele>
        <time>2014-05-04T08:41:51.000Z</time>
      </trkpt>
      <trkpt lat="47.41702" lon="6.76658">
        <ele>485.2</ele>
        <time>2014-05-04T08:41:52.000Z</time>
      </trkpt>
      <trkpt lat="47.417" lon="6.7666">
        <ele>484.2</ele>
        <time>2014-05-04T08:41:53.000Z</time>
      </trkpt>
      <trkpt lat="47.41699" lon="6.76663">
        <ele>484.6</ele>
        <time>2014-05-04T08:41:54.000Z</time>
      </trkpt>
      <trkpt lat="47.41697" lon="6.76668">
        <ele>483.7</ele>
        <time>2014-05-04T08:41:55.000Z</time>
      </trkpt>
      <trkpt lat="47.41696" lon="6.76671">
        <ele>485.6</ele>
        <time>2014-05-04T08:41:56.000Z</time>
      </trkpt>
      <trkpt lat="47.41695" lon="6.76675">
        <ele>485.5</ele>
        <time>2014-05-04T08:41:57.000Z</time>
      </trkpt>
      <trkpt lat="47.41695" lon="6.76679">
        <ele>486.4</ele>
        <time>2014-05-04T08:41:58.000Z</time>
      </trkpt>
      <trkpt lat="47.41693" lon="6.76684">
        <ele>488</ele>
        <time>2014-05-04T08:42:00.000Z</time>
      </trkpt>
      <trkpt lat="47.41692" lon="6.76688">
        <ele>486.6</ele>
        <time>2014-05-04T08:42:01.000Z</time>
      </trkpt>
      <trkpt lat="47.41691" lon="6.76692">
        <ele>485.4</ele>
        <time>2014-05-04T08:42:02.000Z</time>
      </trkpt>
      <trkpt lat="47.41691" lon="6.76697">
        <ele>484.1</ele>
        <time>2014-05-04T08:42:03.000Z</time>
      </trkpt>
      <trkpt lat="47.4169" lon="6.76701">
        <ele>484.3</ele>
        <time>2014-05-04T08:42:04.000Z</time>
      </trkpt>
      <trkpt lat="47.4169" lon="6.76705">
        <ele>485</ele>
        <time>2014-05-04T08:42:05.000Z</time>
      </trkpt>
      <trkpt lat="47.41689" lon="6.7671">
        <ele>485</ele>
        <time>2014-05-04T08:42:06.000Z</time>
      </trkpt>
      <trkpt lat="47.4169" lon="6.76715">
        <ele>479.9</ele>
        <time>2014-05-04T08:42:07.000Z</time>
      </trkpt>
      <trkpt lat="47.4169" lon="6.7672">
        <ele>478.2</ele>
        <time>2014-05-04T08:42:08.000Z</time>
      </trkpt>
      <trkpt lat="47.4169" lon="6.76725">
        <ele>479</ele>
        <time>2014-05-04T08:42:09.000Z</time>
      </trkpt>
      <trkpt lat="47.41691" lon="6.7673">
        <ele>479.3</ele>
        <time>2014-05-04T08:42:10.000Z</time>
      </trkpt>
      <trkpt lat="47.41691" lon="6.76734">
        <ele>479.1</ele>
        <time>2014-05-04T08:42:11.000Z</time>
      </trkpt>
      <trkpt lat="47.41691" lon="6.76739">
        <ele>478.6</ele>
        <time>2014-05-04T08:42:12.000Z</time>
      </trkpt>
      <trkpt lat="47.41691" lon="6.76743">
        <ele>478.5</ele>
        <time>2014-05-04T08:42:13.000Z</time>
      </trkpt>
      <trkpt lat="47.41691" lon="6.76748">
        <ele>478.5</ele>
        <time>2014-05-04T08:42:14.000Z</time>
      </trkpt>
      <trkpt lat="47.41691" lon="6.76753">
        <ele>477.9</ele>
        <time>2014-05-04T08:42:15.000Z</time>
      </trkpt>
      <trkpt lat="47.41691" lon="6.76757">
        <ele>477.5</ele>
        <time>2014-05-04T08:42:16.000Z</time>
      </trkpt>
      <trkpt lat="47.41691" lon="6.76762">
        <ele>475.6</ele>
        <time>2014-05-04T08:42:17.000Z</time>
      </trkpt>
      <trkpt lat="47.41691" lon="6.76766">
        <ele>475</ele>
        <time>2014-05-04T08:42:18.000Z</time>
      </trkpt>
      <trkpt lat="47.4169" lon="6.7677">
        <ele>475.9</ele>
        <time>2014-05-04T08:42:19.000Z</time>
      </trkpt>
      <trkpt lat="47.4169" lon="6.76773">
        <ele>477.4</ele>
        <time>2014-05-04T08:42:20.000Z</time>
      </trkpt>
      <trkpt lat="47.41689" lon="6.76777">
        <ele>478.5</ele>
        <time>2014-05-04T08:42:21.000Z</time>
      </trkpt>
      <trkpt lat="47.41689" lon="6.7678">
        <ele>479.1</ele>
        <time>2014-05-04T08:42:22.000Z</time>
      </trkpt>
      <trkpt lat="47.41689" lon="6.76784">
        <ele>477.7</ele>
        <time>2014-05-04T08:42:23.000Z</time>
      </trkpt>
      <trkpt lat="47.4169" lon="6.76788">
        <ele>477.8</ele>
        <time>2014-05-04T08:42:24.000Z</time>
      </trkpt>
      <trkpt lat="47.4169" lon="6.76793">
        <ele>476.4</ele>
        <time>2014-05-04T08:42:25.000Z</time>
      </trkpt>
      <trkpt lat="47.41691" lon="6.76797">
        <ele>475.9</ele>
        <time>2014-05-04T08:42:26.000Z</time>
      </trkpt>
      <trkpt lat="47.41692" lon="6.76802">
        <ele>475.9</ele>
        <time>2014-05-04T08:42:27.000Z</time>
      </trkpt>
      <trkpt lat="47.41692" lon="6.76806">
        <ele>472</ele>
        <time>2014-05-04T08:42:28.000Z</time>
      </trkpt>
      <trkpt lat="47.41693" lon="6.7681">
        <ele>472.2</ele>
        <time>2014-05-04T08:42:29.000Z</time>
      </trkpt>
      <trkpt lat="47.41694" lon="6.76814">
        <ele>471.3</ele>
        <time>2014-05-04T08:42:30.000Z</time>
      </trkpt>
      <trkpt lat="47.41695" lon="6.76817">
        <ele>472</ele>
        <time>2014-05-04T08:42:31.000Z</time>
      </trkpt>
      <trkpt lat="47.41697" lon="6.76821">
        <ele>472.1</ele>
        <time>2014-05-04T08:42:32.000Z</time>
      </trkpt>
      <trkpt lat="47.41698" lon="6.76825">
        <ele>471.6</ele>
        <time>2014-05-04T08:42:33.000Z</time>
      </trkpt>
      <trkpt lat="47.417" lon="6.76829">
        <ele>469.8</ele>
        <time>2014-05-04T08:42:34.000Z</time>
      </trkpt>
      <trkpt lat="47.41701" lon="6.76833">
        <ele>469.1</ele>
        <time>2014-05-04T08:42:35.000Z</time>
      </trkpt>
      <trkpt lat="47.41702" lon="6.76837">
        <ele>469.2</ele>
        <time>2014-05-04T08:42:36.000Z</time>
      </trkpt>
      <trkpt lat="47.41704" lon="6.76842">
        <ele>468.4</ele>
        <time>2014-05-04T08:42:37.000Z</time>
      </trkpt>
      <trkpt lat="47.41705" lon="6.76846">
        <ele>467.4</ele>
        <time>2014-05-04T08:42:38.000Z</time>
      </trkpt>
      <trkpt lat="47.41707" lon="6.7685">
        <ele>467.5</ele>
        <time>2014-05-04T08:42:39.000Z</time>
      </trkpt>
      <trkpt lat="47.4171" lon="6.76853">
        <ele>467.2</ele>
        <time>2014-05-04T08:42:40.000Z</time>
      </trkpt>
      <trkpt lat="47.41712" lon="6.76856">
        <ele>468.1</ele>
        <time>2014-05-04T08:42:41.000Z</time>
      </trkpt>
      <trkpt lat="47.41724" lon="6.76883">
        <ele>473.2</ele>
        <time>2014-05-04T08:42:50.000Z</time>
      </trkpt>
      <trkpt lat="47.41724" lon="6.76886">
        <ele>472.3</ele>
        <time>2014-05-04T08:42:51.000Z</time>
      </trkpt>
      <trkpt lat="47.41725" lon="6.76891">
        <ele>471.6</ele>
        <time>2014-05-04T08:42:52.000Z</time>
      </trkpt>
      <trkpt lat="47.41725" lon="6.76896">
        <ele>471</ele>
        <time>2014-05-04T08:42:53.000Z</time>
      </trkpt>
      <trkpt lat="47.41725" lon="6.769">
        <ele>469.7</ele>
        <time>2014-05-04T08:42:54.000Z</time>
      </trkpt>
      <trkpt lat="47.41726" lon="6.76905">
        <ele>470.8</ele>
        <time>2014-05-04T08:42:55.000Z</time>
      </trkpt>
      <trkpt lat="47.41726" lon="6.7691">
        <ele>470.1</ele>
        <time>2014-05-04T08:42:56.000Z</time>
      </trkpt>
      <trkpt lat="47.41727" lon="6.76914">
        <ele>470.8</ele>
        <time>2014-05-04T08:42:57.000Z</time>
      </trkpt>
      <trkpt lat="47.41727" lon="6.76919">
        <ele>474.1</ele>
        <time>2014-05-04T08:42:58.000Z</time>
      </trkpt>
      <trkpt lat="47.41727" lon="6.76923">
        <ele>474.2</ele>
        <time>2014-05-04T08:42:59.000Z</time>
      </trkpt>
      <trkpt lat="47.41728" lon="6.76927">
        <ele>474.4</ele>
        <time>2014-05-04T08:43:00.000Z</time>
      </trkpt>
      <trkpt lat="47.41728" lon="6.76932">
        <ele>474.1</ele>
        <time>2014-05-04T08:43:01.000Z</time>
      </trkpt>
      <trkpt lat="47.41728" lon="6.76936">
        <ele>473</ele>
        <time>2014-05-04T08:43:02.000Z</time>
      </trkpt>
      <trkpt lat="47.41727" lon="6.7694">
        <ele>473</ele>
        <time>2014-05-04T08:43:03.000Z</time>
      </trkpt>
      <trkpt lat="47.41726" lon="6.76944">
        <ele>474.4</ele>
        <time>2014-05-04T08:43:04.000Z</time>
      </trkpt>
      <trkpt lat="47.41726" lon="6.76948">
        <ele>476</ele>
        <time>2014-05-04T08:43:04.999Z</time>
      </trkpt>
      <trkpt lat="47.41725" lon="6.76952">
        <ele>474.9</ele>
        <time>2014-05-04T08:43:06.000Z</time>
      </trkpt>
      <trkpt lat="47.41724" lon="6.76956">
        <ele>475.5</ele>
        <time>2014-05-04T08:43:07.000Z</time>
      </trkpt>
      <trkpt lat="47.41723" lon="6.76961">
        <ele>475.2</ele>
        <time>2014-05-04T08:43:08.000Z</time>
      </trkpt>
      <trkpt lat="47.41722" lon="6.76965">
        <ele>476.3</ele>
        <time>2014-05-04T08:43:09.000Z</time>
      </trkpt>
      <trkpt lat="47.41721" lon="6.76968">
        <ele>476.8</ele>
        <time>2014-05-04T08:43:10.000Z</time>
      </trkpt>
      <trkpt lat="47.4172" lon="6.76972">
        <ele>477.2</ele>
        <time>2014-05-04T08:43:11.000Z</time>
      </trkpt>
      <trkpt lat="47.41719" lon="6.76975">
        <ele>476.8</ele>
        <time>2014-05-04T08:43:12.000Z</time>
      </trkpt>
      <trkpt lat="47.41717" lon="6.76979">
        <ele>476.2</ele>
        <time>2014-05-04T08:43:13.000Z</time>
      </trkpt>
      <trkpt lat="47.41716" lon="6.76983">
        <ele>475.6</ele>
        <time>2014-05-04T08:43:14.000Z</time>
      </trkpt>
      <trkpt lat="47.41715" lon="6.76987">
        <ele>476</ele>
        <time>2014-05-04T08:43:15.000Z</time>
      </trkpt>
      <trkpt lat="47.41714" lon="6.76991">
        <ele>476.1</ele>
        <time>2014-05-04T08:43:16.000Z</time>
      </trkpt>
      <trkpt lat="47.41714" lon="6.76995">
        <ele>476.4</ele>
        <time>2014-05-04T08:43:17.000Z</time>
      </trkpt>
      <trkpt lat="47.41714" lon="6.76998">
        <ele>476.4</ele>
        <time>2014-05-04T08:43:18.000Z</time>
      </trkpt>
      <trkpt lat="47.41714" lon="6.77002">
        <ele>476.7</ele>
        <time>2014-05-04T08:43:19.000Z</time>
      </trkpt>
      <trkpt lat="47.41713" lon="6.77005">
        <ele>474.9</ele>
        <time>2014-05-04T08:43:20.000Z</time>
      </trkpt>
      <trkpt lat="47.41712" lon="6.77009">
        <ele>475</ele>
        <time>2014-05-04T08:43:21.000Z</time>
      </trkpt>
      <trkpt lat="47.41711" lon="6.77012">
        <ele>474.4</ele>
        <time>2014-05-04T08:43:22.000Z</time>
      </trkpt>
      <trkpt lat="47.41709" lon="6.77016">
        <ele>474.8</ele>
        <time>2014-05-04T08:43:23.000Z</time>
      </trkpt>
      <trkpt lat="47.41708" lon="6.7702">
        <ele>475.7</ele>
        <time>2014-05-04T08:43:24.000Z</time>
      </trkpt>
      <trkpt lat="47.41706" lon="6.77024">
        <ele>475.7</ele>
        <time>2014-05-04T08:43:25.000Z</time>
      </trkpt>
      <trkpt lat="47.41705" lon="6.77028">
        <ele>475.8</ele>
        <time>2014-05-04T08:43:26.000Z</time>
      </trkpt>
      <trkpt lat="47.41703" lon="6.77031">
        <ele>476.2</ele>
        <time>2014-05-04T08:43:27.000Z</time>
      </trkpt>
      <trkpt lat="47.41702" lon="6.77035">
        <ele>476.9</ele>
        <time>2014-05-04T08:43:28.000Z</time>
      </trkpt>
      <trkpt lat="47.41701" lon="6.77038">
        <ele>477.4</ele>
        <time>2014-05-04T08:43:29.000Z</time>
      </trkpt>
      <trkpt lat="47.41699" lon="6.77042">
        <ele>477.1</ele>
        <time>2014-05-04T08:43:30.000Z</time>
      </trkpt>
      <trkpt lat="47.41699" lon="6.77046">
        <ele>479.3</ele>
        <time>2014-05-04T08:43:31.000Z</time>
      </trkpt>
      <trkpt lat="47.41698" lon="6.77049">
        <ele>481.9</ele>
        <time>2014-05-04T08:43:32.000Z</time>
      </trkpt>
      <trkpt lat="47.41697" lon="6.77053">
        <ele>480.2</ele>
        <time>2014-05-04T08:43:33.000Z</time>
      </trkpt>
      <trkpt lat="47.41697" lon="6.77057">
        <ele>479.9</ele>
        <time>2014-05-04T08:43:34.000Z</time>
      </trkpt>
      <trkpt lat="47.41696" lon="6.7706">
        <ele>480.6</ele>
        <time>2014-05-04T08:43:35.000Z</time>
      </trkpt>
      <trkpt lat="47.41694" lon="6.77064">
        <ele>480.5</ele>
        <time>2014-05-04T08:43:36.000Z</time>
      </trkpt>
      <trkpt lat="47.41693" lon="6.77068">
        <ele>480.4</ele>
        <time>2014-05-04T08:43:37.000Z</time>
      </trkpt>
      <trkpt lat="47.41691" lon="6.77072">
        <ele>480.6</ele>
        <time>2014-05-04T08:43:38.000Z</time>
      </trkpt>
      <trkpt lat="47.4169" lon="6.77075">
        <ele>483.5</ele>
        <time>2014-05-04T08:43:39.000Z</time>
      </trkpt>
      <trkpt lat="47.41688" lon="6.77079">
        <ele>483.6</ele>
        <time>2014-05-04T08:43:40.000Z</time>
      </trkpt>
      <trkpt lat="47.41687" lon="6.77083">
        <ele>483.1</ele>
        <time>2014-05-04T08:43:41.000Z</time>
      </trkpt>
      <trkpt lat="47.41676" lon="6.77119">
        <ele>483.5</ele>
        <time>2014-05-04T08:43:50.000Z</time>
      </trkpt>
      <trkpt lat="47.41675" lon="6.77122">
        <ele>481.2</ele>
        <time>2014-05-04T08:43:51.000Z</time>
      </trkpt>
      <trkpt lat="47.41674" lon="6.77126">
        <ele>480.1</ele>
        <time>2014-05-04T08:43:52.000Z</time>
      </trkpt>
      <trkpt lat="47.41673" lon="6.7713">
        <ele>479.8</ele>
        <time>2014-05-04T08:43:53.000Z</time>
      </trkpt>
      <trkpt lat="47.41671" lon="6.77134">
        <ele>480.1</ele>
        <time>2014-05-04T08:43:54.000Z</time>
      </trkpt>
      <trkpt lat="47.4167" lon="6.77138">
        <ele>480.4</ele>
        <time>2014-05-04T08:43:55.000Z</time>
      </trkpt>
      <trkpt lat="47.41669" lon="6.77142">
        <ele>481.2</ele>
        <time>2014-05-04T08:43:56.000Z</time>
      </trkpt>
      <trkpt lat="47.41668" lon="6.77145">
        <ele>481.6</ele>
        <time>2014-05-04T08:43:57.000Z</time>
      </trkpt>
      <trkpt lat="47.41666" lon="6.77149">
        <ele>480.8</ele>
        <time>2014-05-04T08:43:58.000Z</time>
      </trkpt>
      <trkpt lat="47.41664" lon="6.77153">
        <ele>479.9</ele>
        <time>2014-05-04T08:43:59.000Z</time>
      </trkpt>
      <trkpt lat="47.41662" lon="6.77157">
        <ele>480.1</ele>
        <time>2014-05-04T08:44:00.000Z</time>
      </trkpt>
      <trkpt lat="47.41661" lon="6.77161">
        <ele>480.6</ele>
        <time>2014-05-04T08:44:01.000Z</time>
      </trkpt>
      <trkpt lat="47.41659" lon="6.77164">
        <ele>479.8</ele>
        <time>2014-05-04T08:44:02.000Z</time>
      </trkpt>
      <trkpt lat="47.41657" lon="6.77168">
        <ele>479.2</ele>
        <time>2014-05-04T08:44:03.000Z</time>
      </trkpt>
      <trkpt lat="47.41655" lon="6.77171">
        <ele>479.5</ele>
        <time>2014-05-04T08:44:04.000Z</time>
      </trkpt>
      <trkpt lat="47.41653" lon="6.77173">
        <ele>478.4</ele>
        <time>2014-05-04T08:44:05.000Z</time>
      </trkpt>
      <trkpt lat="47.4165" lon="6.77175">
        <ele>478.1</ele>
        <time>2014-05-04T08:44:06.000Z</time>
      </trkpt>
      <trkpt lat="47.41647" lon="6.77177">
        <ele>477.9</ele>
        <time>2014-05-04T08:44:07.000Z</time>
      </trkpt>
      <trkpt lat="47.41644" lon="6.77179">
        <ele>475.7</ele>
        <time>2014-05-04T08:44:08.000Z</time>
      </trkpt>
      <trkpt lat="47.41642" lon="6.77179">
        <ele>475.1</ele>
        <time>2014-05-04T08:44:09.000Z</time>
      </trkpt>
      <trkpt lat="47.41639" lon="6.7718">
        <ele>475.2</ele>
        <time>2014-05-04T08:44:10.000Z</time>
      </trkpt>
      <trkpt lat="47.41637" lon="6.77179">
        <ele>475.2</ele>
        <time>2014-05-04T08:44:11.000Z</time>
      </trkpt>
      <trkpt lat="47.41635" lon="6.77178">
        <ele>474.9</ele>
        <time>2014-05-04T08:44:12.000Z</time>
      </trkpt>
      <trkpt lat="47.41632" lon="6.77177">
        <ele>475.8</ele>
        <time>2014-05-04T08:44:13.000Z</time>
      </trkpt>
      <trkpt lat="47.4163" lon="6.77175">
        <ele>478.3</ele>
        <time>2014-05-04T08:44:14.000Z</time>
      </trkpt>
      <trkpt lat="47.41627" lon="6.77173">
        <ele>478</ele>
        <time>2014-05-04T08:44:15.000Z</time>
      </trkpt>
      <trkpt lat="47.41625" lon="6.77171">
        <ele>477.4</ele>
        <time>2014-05-04T08:44:16.000Z</time>
      </trkpt>
      <trkpt lat="47.41622" lon="6.77169">
        <ele>476.5</ele>
        <time>2014-05-04T08:44:17.000Z</time>
      </trkpt>
      <trkpt lat="47.4162" lon="6.77167">
        <ele>476.4</ele>
        <time>2014-05-04T08:44:18.000Z</time>
      </trkpt>
      <trkpt lat="47.41618" lon="6.77165">
        <ele>476.6</ele>
        <time>2014-05-04T08:44:19.000Z</time>
      </trkpt>
      <trkpt lat="47.41615" lon="6.77162">
        <ele>477.9</ele>
        <time>2014-05-04T08:44:20.000Z</time>
      </trkpt>
      <trkpt lat="47.41613" lon="6.7716">
        <ele>479.9</ele>
        <time>2014-05-04T08:44:21.000Z</time>
      </trkpt>
      <trkpt lat="47.41612" lon="6.77158">
        <ele>480.4</ele>
        <time>2014-05-04T08:44:22.000Z</time>
      </trkpt>
      <trkpt lat="47.4161" lon="6.77155">
        <ele>481.1</ele>
        <time>2014-05-04T08:44:23.000Z</time>
      </trkpt>
      <trkpt lat="47.41608" lon="6.77153">
        <ele>481.5</ele>
        <time>2014-05-04T08:44:24.000Z</time>
      </trkpt>
      <trkpt lat="47.41606" lon="6.7715">
        <ele>484.1</ele>
        <time>2014-05-04T08:44:25.000Z</time>
      </trkpt>
      <trkpt lat="47.41604" lon="6.77148">
        <ele>485.6</ele>
        <time>2014-05-04T08:44:26.000Z</time>
      </trkpt>
      <trkpt lat="47.41602" lon="6.77145">
        <ele>485.9</ele>
        <time>2014-05-04T08:44:27.000Z</time>
      </trkpt>
      <trkpt lat="47.416" lon="6.77143">
        <ele>486.3</ele>
        <time>2014-05-04T08:44:28.000Z</time>
      </trkpt>
      <trkpt lat="47.41598" lon="6.77141">
        <ele>486.4</ele>
        <time>2014-05-04T08:44:29.000Z</time>
      </trkpt>
      <trkpt lat="47.41596" lon="6.77138">
        <ele>486.4</ele>
        <time>2014-05-04T08:44:30.000Z</time>
      </trkpt>
      <trkpt lat="47.41594" lon="6.77136">
        <ele>487.2</ele>
        <time>2014-05-04T08:44:31.000Z</time>
      </trkpt>
      <trkpt lat="47.41592" lon="6.77134">
        <ele>486</ele>
        <time>2014-05-04T08:44:32.000Z</time>
      </trkpt>
      <trkpt lat="47.4159" lon="6.77131">
        <ele>487.6</ele>
        <time>2014-05-04T08:44:33.000Z</time>
      </trkpt>
      <trkpt lat="47.41588" lon="6.77127">
        <ele>487.9</ele>
        <time>2014-05-04T08:44:34.000Z</time>
      </trkpt>
      <trkpt lat="47.41586" lon="6.77124">
        <ele>487.8</ele>
        <time>2014-05-04T08:44:35.000Z</time>
      </trkpt>
      <trkpt lat="47.41583" lon="6.7712">
        <ele>486.7</ele>
        <time>2014-05-04T08:44:36.000Z</time>
      </trkpt>
      <trkpt lat="47.41582" lon="6.77117">
        <ele>487.8</ele>
        <time>2014-05-04T08:44:37.000Z</time>
      </trkpt>
      <trkpt lat="47.4158" lon="6.77114">
        <ele>487.5</ele>
        <time>2014-05-04T08:44:38.000Z</time>
      </trkpt>
      <trkpt lat="47.41578" lon="6.77112">
        <ele>487.6</ele>
        <time>2014-05-04T08:44:39.000Z</time>
      </trkpt>
      <trkpt lat="47.41576" lon="6.7711">
        <ele>487.8</ele>
        <time>2014-05-04T08:44:40.000Z</time>
      </trkpt>
      <trkpt lat="47.41574" lon="6.77108">
        <ele>487.9</ele>
        <time>2014-05-04T08:44:41.000Z</time>
      </trkpt>
      <trkpt lat="47.41567" lon="6.77106">
        <ele>487.3</ele>
        <time>2014-05-04T08:44:44.000Z</time>
      </trkpt>
      <trkpt lat="47.41564" lon="6.77106">
        <ele>487.2</ele>
        <time>2014-05-04T08:44:45.000Z</time>
      </trkpt>
      <trkpt lat="47.41562" lon="6.77107">
        <ele>487.6</ele>
        <time>2014-05-04T08:44:46.000Z</time>
      </trkpt>
      <trkpt lat="47.41559" lon="6.77109">
        <ele>483.6</ele>
        <time>2014-05-04T08:44:47.000Z</time>
      </trkpt>
      <trkpt lat="47.41557" lon="6.77112">
        <ele>482.5</ele>
        <time>2014-05-04T08:44:48.000Z</time>
      </trkpt>
      <trkpt lat="47.41555" lon="6.77115">
        <ele>480.8</ele>
        <time>2014-05-04T08:44:49.000Z</time>
      </trkpt>
      <trkpt lat="47.41553" lon="6.77119">
        <ele>479.3</ele>
        <time>2014-05-04T08:44:50.000Z</time>
      </trkpt>
      <trkpt lat="47.41552" lon="6.77123">
        <ele>478.6</ele>
        <time>2014-05-04T08:44:51.000Z</time>
      </trkpt>
      <trkpt lat="47.41551" lon="6.77127">
        <ele>480.6</ele>
        <time>2014-05-04T08:44:52.000Z</time>
      </trkpt>
      <trkpt lat="47.41549" lon="6.77129">
        <ele>481.1</ele>
        <time>2014-05-04T08:44:53.000Z</time>
      </trkpt>
      <trkpt lat="47.41547" lon="6.77131">
        <ele>481.2</ele>
        <time>2014-05-04T08:44:54.000Z</time>
      </trkpt>
      <trkpt lat="47.41544" lon="6.77132">
        <ele>479.1</ele>
        <time>2014-05-04T08:44:55.000Z</time>
      </trkpt>
      <trkpt lat="47.41542" lon="6.77133">
        <ele>477.3</ele>
        <time>2014-05-04T08:44:56.000Z</time>
      </trkpt>
      <trkpt lat="47.41539" lon="6.77135">
        <ele>476.9</ele>
        <time>2014-05-04T08:44:57.000Z</time>
      </trkpt>
      <trkpt lat="47.41537" lon="6.77136">
        <ele>476.7</ele>
        <time>2014-05-04T08:44:58.000Z</time>
      </trkpt>
      <trkpt lat="47.41534" lon="6.77137">
        <ele>479</ele>
        <time>2014-05-04T08:44:59.000Z</time>
      </trkpt>
      <trkpt lat="47.41532" lon="6.77138">
        <ele>479.2</ele>
        <time>2014-05-04T08:45:00.000Z</time>
      </trkpt>
      <trkpt lat="47.41529" lon="6.77139">
        <ele>480.6</ele>
        <time>2014-05-04T08:45:01.000Z</time>
      </trkpt>
      <trkpt lat="47.41527" lon="6.7714">
        <ele>482.1</ele>
        <time>2014-05-04T08:45:02.000Z</time>
      </trkpt>
      <trkpt lat="47.41524" lon="6.7714">
        <ele>483.4</ele>
        <time>2014-05-04T08:45:03.000Z</time>
      </trkpt>
      <trkpt lat="47.41521" lon="6.77141">
        <ele>484.4</ele>
        <time>2014-05-04T08:45:04.000Z</time>
      </trkpt>
      <trkpt lat="47.41519" lon="6.77141">
        <ele>486</ele>
        <time>2014-05-04T08:45:05.000Z</time>
      </trkpt>
      <trkpt lat="47.41516" lon="6.77141">
        <ele>486.6</ele>
        <time>2014-05-04T08:45:06.000Z</time>
      </trkpt>
      <trkpt lat="47.41513" lon="6.77141">
        <ele>487.2</ele>
        <time>2014-05-04T08:45:07.000Z</time>
      </trkpt>
      <trkpt lat="47.41509" lon="6.77142">
        <ele>486.1</ele>
        <time>2014-05-04T08:45:08.000Z</time>
      </trkpt>
      <trkpt lat="47.41506" lon="6.77143">
        <ele>485.9</ele>
        <time>2014-05-04T08:45:09.000Z</time>
      </trkpt>
      <trkpt lat="47.41503" lon="6.77144">
        <ele>486.5</ele>
        <time>2014-05-04T08:45:10.000Z</time>
      </trkpt>
      <trkpt lat="47.415" lon="6.77145">
        <ele>490.9</ele>
        <time>2014-05-04T08:45:11.000Z</time>
      </trkpt>
      <trkpt lat="47.41497" lon="6.77145">
        <ele>489.8</ele>
        <time>2014-05-04T08:45:12.000Z</time>
      </trkpt>
      <trkpt lat="47.41494" lon="6.77145">
        <ele>489.8</ele>
        <time>2014-05-04T08:45:13.000Z</time>
      </trkpt>
      <trkpt lat="47.41491" lon="6.77145">
        <ele>490.6</ele>
        <time>2014-05-04T08:45:14.000Z</time>
      </trkpt>
      <trkpt lat="47.41488" lon="6.77146">
        <ele>491.6</ele>
        <time>2014-05-04T08:45:15.000Z</time>
      </trkpt>
      <trkpt lat="47.41485" lon="6.77146">
        <ele>490.6</ele>
        <time>2014-05-04T08:45:16.000Z</time>
      </trkpt>
      <trkpt lat="47.41482" lon="6.77146">
        <ele>490.8</ele>
        <time>2014-05-04T08:45:17.000Z</time>
      </trkpt>
      <trkpt lat="47.4148" lon="6.77146">
        <ele>491.3</ele>
        <time>2014-05-04T08:45:17.999Z</time>
      </trkpt>
      <trkpt lat="47.41477" lon="6.77147">
        <ele>492.5</ele>
        <time>2014-05-04T08:45:19.000Z</time>
      </trkpt>
      <trkpt lat="47.41475" lon="6.77147">
        <ele>492.8</ele>
        <time>2014-05-04T08:45:20.000Z</time>
      </trkpt>
      <trkpt lat="47.41473" lon="6.77147">
        <ele>492.1</ele>
        <time>2014-05-04T08:45:21.000Z</time>
      </trkpt>
      <trkpt lat="47.4147" lon="6.77147">
        <ele>490.3</ele>
        <time>2014-05-04T08:45:22.000Z</time>
      </trkpt>
      <trkpt lat="47.41467" lon="6.77146">
        <ele>490</ele>
        <time>2014-05-04T08:45:23.000Z</time>
      </trkpt>
      <trkpt lat="47.41464" lon="6.77145">
        <ele>490</ele>
        <time>2014-05-04T08:45:24.000Z</time>
      </trkpt>
      <trkpt lat="47.41461" lon="6.77145">
        <ele>489.7</ele>
        <time>2014-05-04T08:45:25.000Z</time>
      </trkpt>
      <trkpt lat="47.41458" lon="6.77144">
        <ele>492</ele>
        <time>2014-05-04T08:45:26.000Z</time>
      </trkpt>
      <trkpt lat="47.41455" lon="6.77144">
        <ele>494</ele>
        <time>2014-05-04T08:45:27.000Z</time>
      </trkpt>
      <trkpt lat="47.41452" lon="6.77144">
        <ele>492.9</ele>
        <time>2014-05-04T08:45:28.000Z</time>
      </trkpt>
      <trkpt lat="47.4145" lon="6.77144">
        <ele>493.3</ele>
        <time>2014-05-04T08:45:29.000Z</time>
      </trkpt>
      <trkpt lat="47.41447" lon="6.77144">
        <ele>495.1</ele>
        <time>2014-05-04T08:45:30.000Z</time>
      </trkpt>
      <trkpt lat="47.41444" lon="6.77143">
        <ele>496.2</ele>
        <time>2014-05-04T08:45:31.000Z</time>
      </trkpt>
      <trkpt lat="47.41442" lon="6.77142">
        <ele>497</ele>
        <time>2014-05-04T08:45:32.000Z</time>
      </trkpt>
      <trkpt lat="47.4144" lon="6.7714">
        <ele>495.6</ele>
        <time>2014-05-04T08:45:33.000Z</time>
      </trkpt>
      <trkpt lat="47.41438" lon="6.77138">
        <ele>495.7</ele>
        <time>2014-05-04T08:45:34.000Z</time>
      </trkpt>
      <trkpt lat="47.41436" lon="6.77136">
        <ele>499.7</ele>
        <time>2014-05-04T08:45:35.000Z</time>
      </trkpt>
      <trkpt lat="47.41434" lon="6.77134">
        <ele>501.4</ele>
        <time>2014-05-04T08:45:36.000Z</time>
      </trkpt>
      <trkpt lat="47.41432" lon="6.77132">
        <ele>502.5</ele>
        <time>2014-05-04T08:45:37.000Z</time>
      </trkpt>
      <trkpt lat="47.41429" lon="6.7713">
        <ele>506.3</ele>
        <time>2014-05-04T08:45:38.000Z</time>
      </trkpt>
      <trkpt lat="47.41425" lon="6.77128">
        <ele>511.2</ele>
        <time>2014-05-04T08:45:40.000Z</time>
      </trkpt>
      <trkpt lat="47.41424" lon="6.77126">
        <ele>513</ele>
        <time>2014-05-04T08:45:41.000Z</time>
      </trkpt>
      <trkpt lat="47.41423" lon="6.77124">
        <ele>512</ele>
        <time>2014-05-04T08:45:42.000Z</time>
      </trkpt>
      <trkpt lat="47.41404" lon="6.77111">
        <ele>511.2</ele>
        <time>2014-05-04T08:45:50.000Z</time>
      </trkpt>
      <trkpt lat="47.41402" lon="6.77109">
        <ele>510.8</ele>
        <time>2014-05-04T08:45:51.000Z</time>
      </trkpt>
      <trkpt lat="47.414" lon="6.77106">
        <ele>509.3</ele>
        <time>2014-05-04T08:45:52.000Z</time>
      </trkpt>
      <trkpt lat="47.41398" lon="6.77103">
        <ele>507.5</ele>
        <time>2014-05-04T08:45:53.000Z</time>
      </trkpt>
      <trkpt lat="47.41396" lon="6.77101">
        <ele>507</ele>
        <time>2014-05-04T08:45:54.000Z</time>
      </trkpt>
      <trkpt lat="47.41394" lon="6.77098">
        <ele>507.4</ele>
        <time>2014-05-04T08:45:55.000Z</time>
      </trkpt>
      <trkpt lat="47.41392" lon="6.77095">
        <ele>506</ele>
        <time>2014-05-04T08:45:56.000Z</time>
      </trkpt>
      <trkpt lat="47.4139" lon="6.77092">
        <ele>503.5</ele>
        <time>2014-05-04T08:45:57.000Z</time>
      </trkpt>
      <trkpt lat="47.41388" lon="6.77089">
        <ele>503.3</ele>
        <time>2014-05-04T08:45:58.000Z</time>
      </trkpt>
      <trkpt lat="47.41386" lon="6.77086">
        <ele>502.7</ele>
        <time>2014-05-04T08:45:59.000Z</time>
      </trkpt>
      <trkpt lat="47.41383" lon="6.77083">
        <ele>503.6</ele>
        <time>2014-05-04T08:46:00.000Z</time>
      </trkpt>
      <trkpt lat="47.4138" lon="6.7708">
        <ele>504.1</ele>
        <time>2014-05-04T08:46:01.000Z</time>
      </trkpt>
      <trkpt lat="47.41378" lon="6.77078">
        <ele>504.1</ele>
        <time>2014-05-04T08:46:02.000Z</time>
      </trkpt>
      <trkpt lat="47.41375" lon="6.77075">
        <ele>503.8</ele>
        <time>2014-05-04T08:46:03.000Z</time>
      </trkpt>
      <trkpt lat="47.41373" lon="6.77072">
        <ele>503.3</ele>
        <time>2014-05-04T08:46:04.000Z</time>
      </trkpt>
      <trkpt lat="47.41371" lon="6.77069">
        <ele>503.5</ele>
        <time>2014-05-04T08:46:05.000Z</time>
      </trkpt>
      <trkpt lat="47.41369" lon="6.77067">
        <ele>504</ele>
        <time>2014-05-04T08:46:06.000Z</time>
      </trkpt>
      <trkpt lat="47.41367" lon="6.77064">
        <ele>503.6</ele>
        <time>2014-05-04T08:46:07.000Z</time>
      </trkpt>
      <trkpt lat="47.41365" lon="6.77061">
        <ele>504.1</ele>
        <time>2014-05-04T08:46:08.000Z</time>
      </trkpt>
      <trkpt lat="47.41364" lon="6.77058">
        <ele>504.2</ele>
        <time>2014-05-04T08:46:09.000Z</time>
      </trkpt>
      <trkpt lat="47.41362" lon="6.77055">
        <ele>503.8</ele>
        <time>2014-05-04T08:46:10.000Z</time>
      </trkpt>
      <trkpt lat="47.4136" lon="6.77052">
        <ele>502.9</ele>
        <time>2014-05-04T08:46:11.000Z</time>
      </trkpt>
      <trkpt lat="47.41358" lon="6.77049">
        <ele>501.6</ele>
        <time>2014-05-04T08:46:12.000Z</time>
      </trkpt>
      <trkpt lat="47.41356" lon="6.77046">
        <ele>502.3</ele>
        <time>2014-05-04T08:46:13.000Z</time>
      </trkpt>
      <trkpt lat="47.41354" lon="6.77043">
        <ele>502.2</ele>
        <time>2014-05-04T08:46:14.000Z</time>
      </trkpt>
      <trkpt lat="47.41353" lon="6.77039">
        <ele>505.8</ele>
        <time>2014-05-04T08:46:15.000Z</time>
      </trkpt>
      <trkpt lat="47.41352" lon="6.77036">
        <ele>508.9</ele>
        <time>2014-05-04T08:46:16.000Z</time>
      </trkpt>
      <trkpt lat="47.4135" lon="6.77032">
        <ele>510.8</ele>
        <time>2014-05-04T08:46:17.000Z</time>
      </trkpt>
      <trkpt lat="47.41349" lon="6.77029">
        <ele>509.7</ele>
        <time>2014-05-04T08:46:18.000Z</time>
      </trkpt>
      <trkpt lat="47.41347" lon="6.77024">
        <ele>516.2</ele>
        <time>2014-05-04T08:46:20.000Z</time>
      </trkpt>
      <trkpt lat="47.41346" lon="6.77021">
        <ele>517.6</ele>
        <time>2014-05-04T08:46:21.000Z</time>
      </trkpt>
      <trkpt lat="47.41343" lon="6.77017">
        <ele>517.2</ele>
        <time>2014-05-04T08:46:23.000Z</time>
      </trkpt>
      <trkpt lat="47.4134" lon="6.77015">
        <ele>513.5</ele>
        <time>2014-05-04T08:46:24.000Z</time>
      </trkpt>
      <trkpt lat="47.41338" lon="6.77014">
        <ele>513.8</ele>
        <time>2014-05-04T08:46:25.000Z</time>
      </trkpt>
      <trkpt lat="47.41335" lon="6.77013">
        <ele>513</ele>
        <time>2014-05-04T08:46:26.000Z</time>
      </trkpt>
      <trkpt lat="47.41332" lon="6.77012">
        <ele>513.2</ele>
        <time>2014-05-04T08:46:27.000Z</time>
      </trkpt>
      <trkpt lat="47.41329" lon="6.77011">
        <ele>512.6</ele>
        <time>2014-05-04T08:46:28.000Z</time>
      </trkpt>
      <trkpt lat="47.41327" lon="6.7701">
        <ele>511.9</ele>
        <time>2014-05-04T08:46:29.000Z</time>
      </trkpt>
      <trkpt lat="47.41324" lon="6.7701">
        <ele>511</ele>
        <time>2014-05-04T08:46:30.000Z</time>
      </trkpt>
      <trkpt lat="47.41321" lon="6.77011">
        <ele>510.2</ele>
        <time>2014-05-04T08:46:31.000Z</time>
      </trkpt>
      <trkpt lat="47.41318" lon="6.77011">
        <ele>508.9</ele>
        <time>2014-05-04T08:46:32.000Z</time>
      </trkpt>
      <trkpt lat="47.41315" lon="6.77012">
        <ele>507.1</ele>
        <time>2014-05-04T08:46:33.000Z</time>
      </trkpt>
      <trkpt lat="47.41312" lon="6.77012">
        <ele>506.9</ele>
        <time>2014-05-04T08:46:34.000Z</time>
      </trkpt>
      <trkpt lat="47.41309" lon="6.77012">
        <ele>506.1</ele>
        <time>2014-05-04T08:46:35.000Z</time>
      </trkpt>
      <trkpt lat="47.41306" lon="6.77011">
        <ele>506.5</ele>
        <time>2014-05-04T08:46:36.000Z</time>
      </trkpt>
      <trkpt lat="47.41304" lon="6.7701">
        <ele>506.9</ele>
        <time>2014-05-04T08:46:37.000Z</time>
      </trkpt>
      <trkpt lat="47.41302" lon="6.77009">
        <ele>506.2</ele>
        <time>2014-05-04T08:46:38.000Z</time>
      </trkpt>
      <trkpt lat="47.41299" lon="6.77008">
        <ele>506.7</ele>
        <time>2014-05-04T08:46:39.000Z</time>
      </trkpt>
      <trkpt lat="47.41295" lon="6.77007">
        <ele>506.7</ele>
        <time>2014-05-04T08:46:40.000Z</time>
      </trkpt>
      <trkpt lat="47.41293" lon="6.77006">
        <ele>507</ele>
        <time>2014-05-04T08:46:41.000Z</time>
      </trkpt>
      <trkpt lat="47.41286" lon="6.77">
        <ele>504.9</ele>
        <time>2014-05-04T08:46:44.000Z</time>
      </trkpt>
      <trkpt lat="47.41284" lon="6.76998">
        <ele>506.3</ele>
        <time>2014-05-04T08:46:45.000Z</time>
      </trkpt>
      <trkpt lat="47.41282" lon="6.76996">
        <ele>507.4</ele>
        <time>2014-05-04T08:46:46.000Z</time>
      </trkpt>
      <trkpt lat="47.41279" lon="6.76995">
        <ele>506.7</ele>
        <time>2014-05-04T08:46:47.000Z</time>
      </trkpt>
      <trkpt lat="47.41277" lon="6.76993">
        <ele>506</ele>
        <time>2014-05-04T08:46:48.000Z</time>
      </trkpt>
      <trkpt lat="47.41273" lon="6.7699">
        <ele>507.9</ele>
        <time>2014-05-04T08:46:50.000Z</time>
      </trkpt>
      <trkpt lat="47.41272" lon="6.76988">
        <ele>511.1</ele>
        <time>2014-05-04T08:46:51.000Z</time>
      </trkpt>
      <trkpt lat="47.41268" lon="6.76984">
        <ele>511.2</ele>
        <time>2014-05-04T08:46:53.000Z</time>
      </trkpt>
      <trkpt lat="47.41267" lon="6.76982">
        <ele>512.3</ele>
        <time>2014-05-04T08:46:54.000Z</time>
      </trkpt>
      <trkpt lat="47.41265" lon="6.7698">
        <ele>511.8</ele>
        <time>2014-05-04T08:46:55.000Z</time>
      </trkpt>
      <trkpt lat="47.41263" lon="6.76978">
        <ele>512.1</ele>
        <time>2014-05-04T08:46:56.000Z</time>
      </trkpt>
      <trkpt lat="47.41261" lon="6.76975">
        <ele>511.2</ele>
        <time>2014-05-04T08:46:57.000Z</time>
      </trkpt>
      <trkpt lat="47.41258" lon="6.76973">
        <ele>510.7</ele>
        <time>2014-05-04T08:46:58.000Z</time>
      </trkpt>
      <trkpt lat="47.41256" lon="6.7697">
        <ele>509.6</ele>
        <time>2014-05-04T08:46:59.000Z</time>
      </trkpt>
      <trkpt lat="47.41254" lon="6.76968">
        <ele>509.8</ele>
        <time>2014-05-04T08:47:00.000Z</time>
      </trkpt>
      <trkpt lat="47.41252" lon="6.76966">
        <ele>509.1</ele>
        <time>2014-05-04T08:47:01.000Z</time>
      </trkpt>
      <trkpt lat="47.4125" lon="6.76963">
        <ele>509.3</ele>
        <time>2014-05-04T08:47:02.000Z</time>
      </trkpt>
      <trkpt lat="47.41247" lon="6.76961">
        <ele>509.2</ele>
        <time>2014-05-04T08:47:03.000Z</time>
      </trkpt>
      <trkpt lat="47.41245" lon="6.76959">
        <ele>509.3</ele>
        <time>2014-05-04T08:47:04.000Z</time>
      </trkpt>
      <trkpt lat="47.41243" lon="6.76957">
        <ele>509.1</ele>
        <time>2014-05-04T08:47:05.000Z</time>
      </trkpt>
      <trkpt lat="47.4124" lon="6.76955">
        <ele>509.4</ele>
        <time>2014-05-04T08:47:06.000Z</time>
      </trkpt>
      <trkpt lat="47.41238" lon="6.76952">
        <ele>509.4</ele>
        <time>2014-05-04T08:47:07.000Z</time>
      </trkpt>
      <trkpt lat="47.41235" lon="6.7695">
        <ele>509.3</ele>
        <time>2014-05-04T08:47:08.000Z</time>
      </trkpt>
      <trkpt lat="47.41233" lon="6.76948">
        <ele>508.6</ele>
        <time>2014-05-04T08:47:09.000Z</time>
      </trkpt>
      <trkpt lat="47.41231" lon="6.76945">
        <ele>509</ele>
        <time>2014-05-04T08:47:10.000Z</time>
      </trkpt>
      <trkpt lat="47.41229" lon="6.76943">
        <ele>509.8</ele>
        <time>2014-05-04T08:47:11.000Z</time>
      </trkpt>
      <trkpt lat="47.41227" lon="6.76941">
        <ele>510.6</ele>
        <time>2014-05-04T08:47:12.000Z</time>
      </trkpt>
      <trkpt lat="47.41225" lon="6.76939">
        <ele>511</ele>
        <time>2014-05-04T08:47:13.000Z</time>
      </trkpt>
      <trkpt lat="47.41222" lon="6.76937">
        <ele>511.1</ele>
        <time>2014-05-04T08:47:14.000Z</time>
      </trkpt>
      <trkpt lat="47.4122" lon="6.76935">
        <ele>511.5</ele>
        <time>2014-05-04T08:47:15.000Z</time>
      </trkpt>
      <trkpt lat="47.41218" lon="6.76932">
        <ele>512.3</ele>
        <time>2014-05-04T08:47:16.000Z</time>
      </trkpt>
      <trkpt lat="47.41215" lon="6.76929">
        <ele>513</ele>
        <time>2014-05-04T08:47:17.000Z</time>
      </trkpt>
      <trkpt lat="47.41213" lon="6.76927">
        <ele>514.7</ele>
        <time>2014-05-04T08:47:18.000Z</time>
      </trkpt>
      <trkpt lat="47.41211" lon="6.76924">
        <ele>510.6</ele>
        <time>2014-05-04T08:47:19.000Z</time>
      </trkpt>
      <trkpt lat="47.41209" lon="6.76922">
        <ele>509.9</ele>
        <time>2014-05-04T08:47:20.000Z</time>
      </trkpt>
      <trkpt lat="47.41207" lon="6.76919">
        <ele>511.8</ele>
        <time>2014-05-04T08:47:21.000Z</time>
      </trkpt>
      <trkpt lat="47.41205" lon="6.76917">
        <ele>511</ele>
        <time>2014-05-04T08:47:22.000Z</time>
      </trkpt>
      <trkpt lat="47.41203" lon="6.76915">
        <ele>512.2</ele>
        <time>2014-05-04T08:47:23.000Z</time>
      </trkpt>
      <trkpt lat="47.41201" lon="6.76913">
        <ele>513.1</ele>
        <time>2014-05-04T08:47:24.000Z</time>
      </trkpt>
      <trkpt lat="47.41199" lon="6.76911">
        <ele>513.7</ele>
        <time>2014-05-04T08:47:25.000Z</time>
      </trkpt>
      <trkpt lat="47.41197" lon="6.76909">
        <ele>513.4</ele>
        <time>2014-05-04T08:47:26.000Z</time>
      </trkpt>
      <trkpt lat="47.41195" lon="6.76906">
        <ele>511.8</ele>
        <time>2014-05-04T08:47:27.000Z</time>
      </trkpt>
      <trkpt lat="47.41193" lon="6.76904">
        <ele>513.1</ele>
        <time>2014-05-04T08:47:28.000Z</time>
      </trkpt>
      <trkpt lat="47.41192" lon="6.76901">
        <ele>513.3</ele>
        <time>2014-05-04T08:47:29.000Z</time>
      </trkpt>
      <trkpt lat="47.4119" lon="6.76898">
        <ele>511.2</ele>
        <time>2014-05-04T08:47:30.000Z</time>
      </trkpt>
      <trkpt lat="47.41188" lon="6.76895">
        <ele>511.1</ele>
        <time>2014-05-04T08:47:31.000Z</time>
      </trkpt>
      <trkpt lat="47.41186" lon="6.76893">
        <ele>510.8</ele>
        <time>2014-05-04T08:47:32.000Z</time>
      </trkpt>
      <trkpt lat="47.41183" lon="6.76891">
        <ele>510.7</ele>
        <time>2014-05-04T08:47:33.000Z</time>
      </trkpt>
      <trkpt lat="47.41181" lon="6.76889">
        <ele>510.2</ele>
        <time>2014-05-04T08:47:34.000Z</time>
      </trkpt>
      <trkpt lat="47.41178" lon="6.76887">
        <ele>510.3</ele>
        <time>2014-05-04T08:47:35.000Z</time>
      </trkpt>
      <trkpt lat="47.41175" lon="6.76886">
        <ele>510.3</ele>
        <time>2014-05-04T08:47:36.000Z</time>
      </trkpt>
      <trkpt lat="47.41172" lon="6.76885">
        <ele>511.2</ele>
        <time>2014-05-04T08:47:37.000Z</time>
      </trkpt>
      <trkpt lat="47.41169" lon="6.76883">
        <ele>510.4</ele>
        <time>2014-05-04T08:47:38.000Z</time>
      </trkpt>
      <trkpt lat="47.41167" lon="6.76882">
        <ele>509.9</ele>
        <time>2014-05-04T08:47:39.000Z</time>
      </trkpt>
      <trkpt lat="47.41164" lon="6.7688">
        <ele>510.2</ele>
        <time>2014-05-04T08:47:40.000Z</time>
      </trkpt>
      <trkpt lat="47.41162" lon="6.76878">
        <ele>510.5</ele>
        <time>2014-05-04T08:47:41.000Z</time>
      </trkpt>
      <trkpt lat="47.41143" lon="6.76859">
        <ele>513.8</ele>
        <time>2014-05-04T08:47:50.000Z</time>
      </trkpt>
      <trkpt lat="47.41141" lon="6.76857">
        <ele>512.5</ele>
        <time>2014-05-04T08:47:51.000Z</time>
      </trkpt>
      <trkpt lat="47.4114" lon="6.76853">
        <ele>511.9</ele>
        <time>2014-05-04T08:47:52.000Z</time>
      </trkpt>
      <trkpt lat="47.41139" lon="6.76849">
        <ele>511.8</ele>
        <time>2014-05-04T08:47:53.000Z</time>
      </trkpt>
      <trkpt lat="47.41138" lon="6.76846">
        <ele>511.7</ele>
        <time>2014-05-04T08:47:54.000Z</time>
      </trkpt>
      <trkpt lat="47.41136" lon="6.76842">
        <ele>512.5</ele>
        <time>2014-05-04T08:47:55.000Z</time>
      </trkpt>
      <trkpt lat="47.41135" lon="6.76838">
        <ele>512.5</ele>
        <time>2014-05-04T08:47:56.000Z</time>
      </trkpt>
      <trkpt lat="47.41134" lon="6.76835">
        <ele>512.2</ele>
        <time>2014-05-04T08:47:57.000Z</time>
      </trkpt>
      <trkpt lat="47.41133" lon="6.76832">
        <ele>513.3</ele>
        <time>2014-05-04T08:47:58.000Z</time>
      </trkpt>
      <trkpt lat="47.41131" lon="6.76829">
        <ele>513.2</ele>
        <time>2014-05-04T08:47:59.000Z</time>
      </trkpt>
      <trkpt lat="47.4113" lon="6.76826">
        <ele>514.1</ele>
        <time>2014-05-04T08:48:00.000Z</time>
      </trkpt>
      <trkpt lat="47.41128" lon="6.76823">
        <ele>515.1</ele>
        <time>2014-05-04T08:48:01.000Z</time>
      </trkpt>
      <trkpt lat="47.41127" lon="6.7682">
        <ele>516.4</ele>
        <time>2014-05-04T08:48:02.000Z</time>
      </trkpt>
      <trkpt lat="47.41124" lon="6.76815">
        <ele>516.8</ele>
        <time>2014-05-04T08:48:04.000Z</time>
      </trkpt>
      <trkpt lat="47.41123" lon="6.76811">
        <ele>515.2</ele>
        <time>2014-05-04T08:48:05.000Z</time>
      </trkpt>
      <trkpt lat="47.41123" lon="6.76808">
        <ele>515.6</ele>
        <time>2014-05-04T08:48:06.000Z</time>
      </trkpt>
      <trkpt lat="47.41122" lon="6.76804">
        <ele>516.7</ele>
        <time>2014-05-04T08:48:07.000Z</time>
      </trkpt>
      <trkpt lat="47.41122" lon="6.76801">
        <ele>515.8</ele>
        <time>2014-05-04T08:48:08.000Z</time>
      </trkpt>
      <trkpt lat="47.41122" lon="6.76797">
        <ele>515.8</ele>
        <time>2014-05-04T08:48:09.000Z</time>
      </trkpt>
      <trkpt lat="47.41122" lon="6.76794">
        <ele>516.6</ele>
        <time>2014-05-04T08:48:10.000Z</time>
      </trkpt>
      <trkpt lat="47.41122" lon="6.76791">
        <ele>516.7</ele>
        <time>2014-05-04T08:48:11.000Z</time>
      </trkpt>
      <trkpt lat="47.41122" lon="6.76787">
        <ele>516.5</ele>
        <time>2014-05-04T08:48:12.000Z</time>
      </trkpt>
      <trkpt lat="47.41123" lon="6.76784">
        <ele>517.1</ele>
        <time>2014-05-04T08:48:13.000Z</time>
      </trkpt>
      <trkpt lat="47.41123" lon="6.7678">
        <ele>517.7</ele>
        <time>2014-05-04T08:48:14.000Z</time>
      </trkpt>
      <trkpt lat="47.41124" lon="6.76777">
        <ele>519</ele>
        <time>2014-05-04T08:48:15.000Z</time>
      </trkpt>
      <trkpt lat="47.41125" lon="6.76772">
        <ele>520.9</ele>
        <time>2014-05-04T08:48:17.000Z</time>
      </trkpt>
      <trkpt lat="47.41126" lon="6.7677">
        <ele>521.9</ele>
        <time>2014-05-04T08:48:18.000Z</time>
      </trkpt>
      <trkpt lat="47.41127" lon="6.76764">
        <ele>523.1</ele>
        <time>2014-05-04T08:48:21.000Z</time>
      </trkpt>
      <trkpt lat="47.41127" lon="6.76762">
        <ele>523.3</ele>
        <time>2014-05-04T08:48:22.000Z</time>
      </trkpt>
      <trkpt lat="47.41128" lon="6.76756">
        <ele>526.5</ele>
        <time>2014-05-04T08:48:24.000Z</time>
      </trkpt>
      <trkpt lat="47.41129" lon="6.76753">
        <ele>526.3</ele>
        <time>2014-05-04T08:48:25.000Z</time>
      </trkpt>
      <trkpt lat="47.4113" lon="6.76749">
        <ele>525.1</ele>
        <time>2014-05-04T08:48:26.000Z</time>
      </trkpt>
      <trkpt lat="47.41131" lon="6.76746">
        <ele>524.7</ele>
        <time>2014-05-04T08:48:27.000Z</time>
      </trkpt>
      <trkpt lat="47.41133" lon="6.76743">
        <ele>524.7</ele>
        <time>2014-05-04T08:48:28.000Z</time>
      </trkpt>
      <trkpt lat="47.41134" lon="6.76739">
        <ele>524.9</ele>
        <time>2014-05-04T08:48:29.000Z</time>
      </trkpt>
      <trkpt lat="47.41135" lon="6.76736">
        <ele>525.1</ele>
        <time>2014-05-04T08:48:29.999Z</time>
      </trkpt>
      <trkpt lat="47.41135" lon="6.76733">
        <ele>523</ele>
        <time>2014-05-04T08:48:31.000Z</time>
      </trkpt>
      <trkpt lat="47.41136" lon="6.76729">
        <ele>523.4</ele>
        <time>2014-05-04T08:48:32.000Z</time>
      </trkpt>
      <trkpt lat="47.41136" lon="6.76725">
        <ele>522</ele>
        <time>2014-05-04T08:48:33.000Z</time>
      </trkpt>
      <trkpt lat="47.41136" lon="6.7672">
        <ele>521.4</ele>
        <time>2014-05-04T08:48:34.000Z</time>
      </trkpt>
      <trkpt lat="47.41135" lon="6.76716">
        <ele>521.6</ele>
        <time>2014-05-04T08:48:35.000Z</time>
      </trkpt>
      <trkpt lat="47.41134" lon="6.76713">
        <ele>523.5</ele>
        <time>2014-05-04T08:48:36.000Z</time>
      </trkpt>
      <trkpt lat="47.41133" lon="6.7671">
        <ele>523.9</ele>
        <time>2014-05-04T08:48:37.000Z</time>
      </trkpt>
      <trkpt lat="47.41131" lon="6.76705">
        <ele>524.3</ele>
        <time>2014-05-04T08:48:39.000Z</time>
      </trkpt>
      <trkpt lat="47.41131" lon="6.76702">
        <ele>524.1</ele>
        <time>2014-05-04T08:48:40.000Z</time>
      </trkpt>
      <trkpt lat="47.4113" lon="6.76699">
        <ele>523.8</ele>
        <time>2014-05-04T08:48:41.000Z</time>
      </trkpt>
      <trkpt lat="47.41127" lon="6.7669">
        <ele>525.4</ele>
        <time>2014-05-04T08:48:44.000Z</time>
      </trkpt>
      <trkpt lat="47.41126" lon="6.76687">
        <ele>525.5</ele>
        <time>2014-05-04T08:48:45.000Z</time>
      </trkpt>
      <trkpt lat="47.41125" lon="6.76684">
        <ele>525.3</ele>
        <time>2014-05-04T08:48:46.000Z</time>
      </trkpt>
      <trkpt lat="47.41123" lon="6.76679">
        <ele>527.1</ele>
        <time>2014-05-04T08:48:48.000Z</time>
      </trkpt>
      <trkpt lat="47.41121" lon="6.76676">
        <ele>528</ele>
        <time>2014-05-04T08:48:49.000Z</time>
      </trkpt>
      <trkpt lat="47.4112" lon="6.76673">
        <ele>529.2</ele>
        <time>2014-05-04T08:48:50.000Z</time>
      </trkpt>
      <trkpt lat="47.41118" lon="6.7667">
        <ele>530.3</ele>
        <time>2014-05-04T08:48:51.000Z</time>
      </trkpt>
      <trkpt lat="47.41117" lon="6.76667">
        <ele>528.9</ele>
        <time>2014-05-04T08:48:52.000Z</time>
      </trkpt>
      <trkpt lat="47.41116" lon="6.76664">
        <ele>527.9</ele>
        <time>2014-05-04T08:48:53.000Z</time>
      </trkpt>
      <trkpt lat="47.41115" lon="6.7666">
        <ele>526.9</ele>
        <time>2014-05-04T08:48:54.000Z</time>
      </trkpt>
      <trkpt lat="47.41115" lon="6.76657">
        <ele>526.9</ele>
        <time>2014-05-04T08:48:55.000Z</time>
      </trkpt>
      <trkpt lat="47.41113" lon="6.76651">
        <ele>528.6</ele>
        <time>2014-05-04T08:48:57.000Z</time>
      </trkpt>
      <trkpt lat="47.41112" lon="6.76647">
        <ele>528.4</ele>
        <time>2014-05-04T08:48:58.000Z</time>
      </trkpt>
      <trkpt lat="47.41111" lon="6.76644">
        <ele>531.6</ele>
        <time>2014-05-04T08:48:59.000Z</time>
      </trkpt>
      <trkpt lat="47.41111" lon="6.76641">
        <ele>533.1</ele>
        <time>2014-05-04T08:49:00.000Z</time>
      </trkpt>
      <trkpt lat="47.4111" lon="6.76635">
        <ele>535.1</ele>
        <time>2014-05-04T08:49:02.000Z</time>
      </trkpt>
      <trkpt lat="47.41109" lon="6.76632">
        <ele>536.7</ele>
        <time>2014-05-04T08:49:03.001Z</time>
      </trkpt>
      <trkpt lat="47.41109" lon="6.76628">
        <ele>536.8</ele>
        <time>2014-05-04T08:49:04.000Z</time>
      </trkpt>
      <trkpt lat="47.41108" lon="6.76625">
        <ele>538</ele>
        <time>2014-05-04T08:49:05.000Z</time>
      </trkpt>
      <trkpt lat="47.41107" lon="6.76622">
        <ele>539.9</ele>
        <time>2014-05-04T08:49:06.000Z</time>
      </trkpt>
      <trkpt lat="47.41106" lon="6.76619">
        <ele>541</ele>
        <time>2014-05-04T08:49:07.000Z</time>
      </trkpt>
      <trkpt lat="47.41103" lon="6.76615">
        <ele>541</ele>
        <time>2014-05-04T08:49:09.000Z</time>
      </trkpt>
      <trkpt lat="47.41101" lon="6.76613">
        <ele>541.4</ele>
        <time>2014-05-04T08:49:09.999Z</time>
      </trkpt>
      <trkpt lat="47.41099" lon="6.76608">
        <ele>536.9</ele>
        <time>2014-05-04T08:49:12.000Z</time>
      </trkpt>
      <trkpt lat="47.41097" lon="6.76605">
        <ele>539.1</ele>
        <time>2014-05-04T08:49:13.000Z</time>
      </trkpt>
      <trkpt lat="47.41095" lon="6.76603">
        <ele>540.8</ele>
        <time>2014-05-04T08:49:14.000Z</time>
      </trkpt>
      <trkpt lat="47.41093" lon="6.766">
        <ele>542</ele>
        <time>2014-05-04T08:49:15.000Z</time>
      </trkpt>
      <trkpt lat="47.41092" lon="6.76598">
        <ele>541.7</ele>
        <time>2014-05-04T08:49:16.000Z</time>
      </trkpt>
      <trkpt lat="47.4109" lon="6.76594">
        <ele>541.5</ele>
        <time>2014-05-04T08:49:17.000Z</time>
      </trkpt>
      <trkpt lat="47.41089" lon="6.76591">
        <ele>544.4</ele>
        <time>2014-05-04T08:49:18.000Z</time>
      </trkpt>
      <trkpt lat="47.41088" lon="6.76587">
        <ele>547.5</ele>
        <time>2014-05-04T08:49:19.000Z</time>
      </trkpt>
      <trkpt lat="47.41087" lon="6.76584">
        <ele>548.9</ele>
        <time>2014-05-04T08:49:20.000Z</time>
      </trkpt>
      <trkpt lat="47.41085" lon="6.76581">
        <ele>548.4</ele>
        <time>2014-05-04T08:49:21.000Z</time>
      </trkpt>
      <trkpt lat="47.41082" lon="6.76577">
        <ele>548.1</ele>
        <time>2014-05-04T08:49:23.000Z</time>
      </trkpt>
      <trkpt lat="47.41081" lon="6.76574">
        <ele>547.8</ele>
        <time>2014-05-04T08:49:24.000Z</time>
      </trkpt>
      <trkpt lat="47.41079" lon="6.76571">
        <ele>548</ele>
        <time>2014-05-04T08:49:25.000Z</time>
      </trkpt>
      <trkpt lat="47.41078" lon="6.76568">
        <ele>547.9</ele>
        <time>2014-05-04T08:49:26.000Z</time>
      </trkpt>
      <trkpt lat="47.41077" lon="6.76565">
        <ele>545.6</ele>
        <time>2014-05-04T08:49:27.000Z</time>
      </trkpt>
      <trkpt lat="47.41077" lon="6.76561">
        <ele>545.1</ele>
        <time>2014-05-04T08:49:28.000Z</time>
      </trkpt>
      <trkpt lat="47.41076" lon="6.76558">
        <ele>546.4</ele>
        <time>2014-05-04T08:49:29.000Z</time>
      </trkpt>
      <trkpt lat="47.41075" lon="6.76554">
        <ele>547.4</ele>
        <time>2014-05-04T08:49:30.000Z</time>
      </trkpt>
      <trkpt lat="47.41074" lon="6.7655">
        <ele>547.9</ele>
        <time>2014-05-04T08:49:31.000Z</time>
      </trkpt>
      <trkpt lat="47.41073" lon="6.76546">
        <ele>549.5</ele>
        <time>2014-05-04T08:49:32.000Z</time>
      </trkpt>
      <trkpt lat="47.41071" lon="6.76543">
        <ele>550.6</ele>
        <time>2014-05-04T08:49:33.000Z</time>
      </trkpt>
      <trkpt lat="47.4107" lon="6.76539">
        <ele>550.3</ele>
        <time>2014-05-04T08:49:34.000Z</time>
      </trkpt>
      <trkpt lat="47.41069" lon="6.76534">
        <ele>550.1</ele>
        <time>2014-05-04T08:49:35.000Z</time>
      </trkpt>
      <trkpt lat="47.41068" lon="6.7653">
        <ele>549.2</ele>
        <time>2014-05-04T08:49:36.000Z</time>
      </trkpt>
      <trkpt lat="47.41067" lon="6.76525">
        <ele>549.3</ele>
        <time>2014-05-04T08:49:37.000Z</time>
      </trkpt>
      <trkpt lat="47.41066" lon="6.76521">
        <ele>553.4</ele>
        <time>2014-05-04T08:49:38.000Z</time>
      </trkpt>
      <trkpt lat="47.41065" lon="6.76516">
        <ele>556.1</ele>
        <time>2014-05-04T08:49:39.000Z</time>
      </trkpt>
      <trkpt lat="47.41064" lon="6.76513">
        <ele>558</ele>
        <time>2014-05-04T08:49:40.000Z</time>
      </trkpt>
      <trkpt lat="47.41063" lon="6.7651">
        <ele>559.2</ele>
        <time>2014-05-04T08:49:41.000Z</time>
      </trkpt>
      <trkpt lat="47.4106" lon="6.765">
        <ele>557.6</ele>
        <time>2014-05-04T08:49:44.000Z</time>
      </trkpt>
      <trkpt lat="47.41059" lon="6.76497">
        <ele>557.5</ele>
        <time>2014-05-04T08:49:45.000Z</time>
      </trkpt>
      <trkpt lat="47.41058" lon="6.76493">
        <ele>554.8</ele>
        <time>2014-05-04T08:49:46.000Z</time>
      </trkpt>
      <trkpt lat="47.41057" lon="6.7649">
        <ele>554.5</ele>
        <time>2014-05-04T08:49:47.000Z</time>
      </trkpt>
      <trkpt lat="47.41056" lon="6.76487">
        <ele>554.3</ele>
        <time>2014-05-04T08:49:48.000Z</time>
      </trkpt>
      <trkpt lat="47.41055" lon="6.76484">
        <ele>555.8</ele>
        <time>2014-05-04T08:49:49.000Z</time>
      </trkpt>
      <trkpt lat="47.41053" lon="6.76482">
        <ele>554.9</ele>
        <time>2014-05-04T08:49:50.000Z</time>
      </trkpt>
      <trkpt lat="47.41051" lon="6.7648">
        <ele>555</ele>
        <time>2014-05-04T08:49:51.000Z</time>
      </trkpt>
      <trkpt lat="47.41049" lon="6.76478">
        <ele>554.6</ele>
        <time>2014-05-04T08:49:52.000Z</time>
      </trkpt>
      <trkpt lat="47.41047" lon="6.76475">
        <ele>554.5</ele>
        <time>2014-05-04T08:49:53.000Z</time>
      </trkpt>
      <trkpt lat="47.41046" lon="6.76472">
        <ele>554.8</ele>
        <time>2014-05-04T08:49:54.000Z</time>
      </trkpt>
      <trkpt lat="47.41044" lon="6.76465">
        <ele>563.2</ele>
        <time>2014-05-04T08:49:55.000Z</time>
      </trkpt>
      <trkpt lat="47.41043" lon="6.76461">
        <ele>565.2</ele>
        <time>2014-05-04T08:49:56.000Z</time>
      </trkpt>
      <trkpt lat="47.41042" lon="6.76457">
        <ele>567.7</ele>
        <time>2014-05-04T08:49:57.000Z</time>
      </trkpt>
      <trkpt lat="47.4104" lon="6.76453">
        <ele>566.1</ele>
        <time>2014-05-04T08:49:59.000Z</time>
      </trkpt>
      <trkpt lat="47.41038" lon="6.76449">
        <ele>565.1</ele>
        <time>2014-05-04T08:50:00.000Z</time>
      </trkpt>
      <trkpt lat="47.41036" lon="6.76445">
        <ele>563.7</ele>
        <time>2014-05-04T08:50:01.000Z</time>
      </trkpt>
      <trkpt lat="47.41034" lon="6.76443">
        <ele>565.1</ele>
        <time>2014-05-04T08:50:02.000Z</time>
      </trkpt>
      <trkpt lat="47.41033" lon="6.76439">
        <ele>564.2</ele>
        <time>2014-05-04T08:50:04.000Z</time>
      </trkpt>
      <trkpt lat="47.41032" lon="6.76436">
        <ele>562.7</ele>
        <time>2014-05-04T08:50:05.000Z</time>
      </trkpt>
      <trkpt lat="47.41032" lon="6.76433">
        <ele>560.8</ele>
        <time>2014-05-04T08:50:06.000Z</time>
      </trkpt>
      <trkpt lat="47.41031" lon="6.76429">
        <ele>559.6</ele>
        <time>2014-05-04T08:50:07.000Z</time>
      </trkpt>
      <trkpt lat="47.41032" lon="6.76423">
        <ele>558.2</ele>
        <time>2014-05-04T08:50:09.000Z</time>
      </trkpt>
      <trkpt lat="47.41032" lon="6.76419">
        <ele>556.3</ele>
        <time>2014-05-04T08:50:10.000Z</time>
      </trkpt>
      <trkpt lat="47.41032" lon="6.76416">
        <ele>555.7</ele>
        <time>2014-05-04T08:50:11.000Z</time>
      </trkpt>
      <trkpt lat="47.41033" lon="6.76413">
        <ele>555.5</ele>
        <time>2014-05-04T08:50:12.000Z</time>
      </trkpt>
      <trkpt lat="47.41033" lon="6.76407">
        <ele>555.1</ele>
        <time>2014-05-04T08:50:14.000Z</time>
      </trkpt>
      <trkpt lat="47.41034" lon="6.76404">
        <ele>554.8</ele>
        <time>2014-05-04T08:50:15.000Z</time>
      </trkpt>
      <trkpt lat="47.41034" lon="6.764">
        <ele>554</ele>
        <time>2014-05-04T08:50:16.000Z</time>
      </trkpt>
      <trkpt lat="47.41036" lon="6.76397">
        <ele>553</ele>
        <time>2014-05-04T08:50:17.000Z</time>
      </trkpt>
      <trkpt lat="47.41037" lon="6.76393">
        <ele>551.8</ele>
        <time>2014-05-04T08:50:18.000Z</time>
      </trkpt>
      <trkpt lat="47.41038" lon="6.76388">
        <ele>551</ele>
        <time>2014-05-04T08:50:19.000Z</time>
      </trkpt>
      <trkpt lat="47.41039" lon="6.76384">
        <ele>551</ele>
        <time>2014-05-04T08:50:20.000Z</time>
      </trkpt>
      <trkpt lat="47.41039" lon="6.7638">
        <ele>549.4</ele>
        <time>2014-05-04T08:50:21.000Z</time>
      </trkpt>
      <trkpt lat="47.4104" lon="6.76376">
        <ele>548.8</ele>
        <time>2014-05-04T08:50:22.000Z</time>
      </trkpt>
      <trkpt lat="47.4104" lon="6.76372">
        <ele>548.7</ele>
        <time>2014-05-04T08:50:23.000Z</time>
      </trkpt>
      <trkpt lat="47.4104" lon="6.76368">
        <ele>548.6</ele>
        <time>2014-05-04T08:50:24.000Z</time>
      </trkpt>
      <trkpt lat="47.41039" lon="6.76363">
        <ele>546</ele>
        <time>2014-05-04T08:50:25.000Z</time>
      </trkpt>
      <trkpt lat="47.41038" lon="6.76359">
        <ele>543.3</ele>
        <time>2014-05-04T08:50:26.000Z</time>
      </trkpt>
      <trkpt lat="47.41037" lon="6.76354">
        <ele>541.5</ele>
        <time>2014-05-04T08:50:27.000Z</time>
      </trkpt>
      <trkpt lat="47.41035" lon="6.7635">
        <ele>541.2</ele>
        <time>2014-05-04T08:50:28.000Z</time>
      </trkpt>
      <trkpt lat="47.41033" lon="6.76346">
        <ele>541.3</ele>
        <time>2014-05-04T08:50:29.000Z</time>
      </trkpt>
      <trkpt lat="47.41032" lon="6.76343">
        <ele>541.6</ele>
        <time>2014-05-04T08:50:30.000Z</time>
      </trkpt>
      <trkpt lat="47.4103" lon="6.7634">
        <ele>541.9</ele>
        <time>2014-05-04T08:50:31.000Z</time>
      </trkpt>
      <trkpt lat="47.41029" lon="6.76337">
        <ele>542.4</ele>
        <time>2014-05-04T08:50:32.000Z</time>
      </trkpt>
      <trkpt lat="47.41028" lon="6.76334">
        <ele>540.9</ele>
        <time>2014-05-04T08:50:33.000Z</time>
      </trkpt>
      <trkpt lat="47.41027" lon="6.7633">
        <ele>539.8</ele>
        <time>2014-05-04T08:50:34.000Z</time>
      </trkpt>
      <trkpt lat="47.41027" lon="6.76325">
        <ele>538.7</ele>
        <time>2014-05-04T08:50:35.000Z</time>
      </trkpt>
      <trkpt lat="47.41027" lon="6.7632">
        <ele>537.3</ele>
        <time>2014-05-04T08:50:36.000Z</time>
      </trkpt>
      <trkpt lat="47.41026" lon="6.76315">
        <ele>537.7</ele>
        <time>2014-05-04T08:50:37.000Z</time>
      </trkpt>
      <trkpt lat="47.41025" lon="6.7631">
        <ele>537.6</ele>
        <time>2014-05-04T08:50:38.000Z</time>
      </trkpt>
      <trkpt lat="47.41024" lon="6.76306">
        <ele>537.9</ele>
        <time>2014-05-04T08:50:39.000Z</time>
      </trkpt>
      <trkpt lat="47.41022" lon="6.76301">
        <ele>537.1</ele>
        <time>2014-05-04T08:50:40.000Z</time>
      </trkpt>
      <trkpt lat="47.41021" lon="6.76297">
        <ele>535.9</ele>
        <time>2014-05-04T08:50:41.000Z</time>
      </trkpt>
      <trkpt lat="47.4102" lon="6.76293">
        <ele>534.2</ele>
        <time>2014-05-04T08:50:42.000Z</time>
      </trkpt>
      <trkpt lat="47.41015" lon="6.76265">
        <ele>539.6</ele>
        <time>2014-05-04T08:50:50.000Z</time>
      </trkpt>
      <trkpt lat="47.41016" lon="6.7626">
        <ele>542.1</ele>
        <time>2014-05-04T08:50:53.000Z</time>
      </trkpt>
      <trkpt lat="47.41015" lon="6.76258">
        <ele>542.7</ele>
        <time>2014-05-04T08:50:54.000Z</time>
      </trkpt>
      <trkpt lat="47.41015" lon="6.76253">
        <ele>542.9</ele>
        <time>2014-05-04T08:50:56.000Z</time>
      </trkpt>
      <trkpt lat="47.41015" lon="6.7625">
        <ele>544.7</ele>
        <time>2014-05-04T08:50:57.000Z</time>
      </trkpt>
      <trkpt lat="47.41013" lon="6.76244">
        <ele>547.5</ele>
        <time>2014-05-04T08:50:59.000Z</time>
      </trkpt>
      <trkpt lat="47.41011" lon="6.76241">
        <ele>548.1</ele>
        <time>2014-05-04T08:51:00.000Z</time>
      </trkpt>
      <trkpt lat="47.4101" lon="6.76238">
        <ele>550.6</ele>
        <time>2014-05-04T08:51:01.000Z</time>
      </trkpt>
      <trkpt lat="47.41009" lon="6.76235">
        <ele>551.1</ele>
        <time>2014-05-04T08:51:02.000Z</time>
      </trkpt>
      <trkpt lat="47.41009" lon="6.76231">
        <ele>552.9</ele>
        <time>2014-05-04T08:51:03.000Z</time>
      </trkpt>
      <trkpt lat="47.41008" lon="6.76227">
        <ele>554</ele>
        <time>2014-05-04T08:51:04.000Z</time>
      </trkpt>
      <trkpt lat="47.41007" lon="6.76221">
        <ele>553.5</ele>
        <time>2014-05-04T08:51:06.000Z</time>
      </trkpt>
      <trkpt lat="47.41006" lon="6.76218">
        <ele>553.4</ele>
        <time>2014-05-04T08:51:07.000Z</time>
      </trkpt>
      <trkpt lat="47.41005" lon="6.76215">
        <ele>554.1</ele>
        <time>2014-05-04T08:51:08.000Z</time>
      </trkpt>
      <trkpt lat="47.41005" lon="6.76211">
        <ele>552.8</ele>
        <time>2014-05-04T08:51:09.000Z</time>
      </trkpt>
      <trkpt lat="47.41005" lon="6.76207">
        <ele>558.1</ele>
        <time>2014-05-04T08:51:10.000Z</time>
      </trkpt>
      <trkpt lat="47.41005" lon="6.76203">
        <ele>559</ele>
        <time>2014-05-04T08:51:11.000Z</time>
      </trkpt>
      <trkpt lat="47.41005" lon="6.76198">
        <ele>559</ele>
        <time>2014-05-04T08:51:12.000Z</time>
      </trkpt>
      <trkpt lat="47.41006" lon="6.76192">
        <ele>559</ele>
        <time>2014-05-04T08:51:13.000Z</time>
      </trkpt>
      <trkpt lat="47.41006" lon="6.76187">
        <ele>558.8</ele>
        <time>2014-05-04T08:51:14.000Z</time>
      </trkpt>
      <trkpt lat="47.41005" lon="6.76181">
        <ele>558.2</ele>
        <time>2014-05-04T08:51:15.000Z</time>
      </trkpt>
      <trkpt lat="47.41005" lon="6.76176">
        <ele>558.1</ele>
        <time>2014-05-04T08:51:16.000Z</time>
      </trkpt>
      <trkpt lat="47.41005" lon="6.76171">
        <ele>557.1</ele>
        <time>2014-05-04T08:51:17.000Z</time>
      </trkpt>
      <trkpt lat="47.41005" lon="6.76166">
        <ele>558.9</ele>
        <time>2014-05-04T08:51:18.000Z</time>
      </trkpt>
      <trkpt lat="47.41005" lon="6.76161">
        <ele>559.1</ele>
        <time>2014-05-04T08:51:19.000Z</time>
      </trkpt>
      <trkpt lat="47.41005" lon="6.76157">
        <ele>555.3</ele>
        <time>2014-05-04T08:51:20.000Z</time>
      </trkpt>
      <trkpt lat="47.41006" lon="6.76153">
        <ele>554.9</ele>
        <time>2014-05-04T08:51:21.000Z</time>
      </trkpt>
      <trkpt lat="47.41006" lon="6.76149">
        <ele>555.3</ele>
        <time>2014-05-04T08:51:22.000Z</time>
      </trkpt>
      <trkpt lat="47.41005" lon="6.76145">
        <ele>555.1</ele>
        <time>2014-05-04T08:51:23.000Z</time>
      </trkpt>
      <trkpt lat="47.41002" lon="6.76141">
        <ele>555.9</ele>
        <time>2014-05-04T08:51:24.000Z</time>
      </trkpt>
      <trkpt lat="47.41001" lon="6.76138">
        <ele>554.4</ele>
        <time>2014-05-04T08:51:25.000Z</time>
      </trkpt>
      <trkpt lat="47.40999" lon="6.76134">
        <ele>554.5</ele>
        <time>2014-05-04T08:51:26.000Z</time>
      </trkpt>
      <trkpt lat="47.40998" lon="6.7613">
        <ele>554.3</ele>
        <time>2014-05-04T08:51:27.000Z</time>
      </trkpt>
      <trkpt lat="47.40998" lon="6.76126">
        <ele>553.7</ele>
        <time>2014-05-04T08:51:28.000Z</time>
      </trkpt>
      <trkpt lat="47.40998" lon="6.76122">
        <ele>553.8</ele>
        <time>2014-05-04T08:51:29.000Z</time>
      </trkpt>
      <trkpt lat="47.40999" lon="6.76117">
        <ele>552.6</ele>
        <time>2014-05-04T08:51:30.000Z</time>
      </trkpt>
      <trkpt lat="47.40999" lon="6.76113">
        <ele>552.6</ele>
        <time>2014-05-04T08:51:31.000Z</time>
      </trkpt>
      <trkpt lat="47.40999" lon="6.76109">
        <ele>555.4</ele>
        <time>2014-05-04T08:51:32.000Z</time>
      </trkpt>
      <trkpt lat="47.41" lon="6.76105">
        <ele>555.4</ele>
        <time>2014-05-04T08:51:33.000Z</time>
      </trkpt>
      <trkpt lat="47.41001" lon="6.76101">
        <ele>554.7</ele>
        <time>2014-05-04T08:51:34.000Z</time>
      </trkpt>
      <trkpt lat="47.41001" lon="6.76097">
        <ele>554</ele>
        <time>2014-05-04T08:51:35.000Z</time>
      </trkpt>
      <trkpt lat="47.41002" lon="6.76091">
        <ele>553.4</ele>
        <time>2014-05-04T08:51:37.000Z</time>
      </trkpt>
      <trkpt lat="47.41003" lon="6.76088">
        <ele>554.1</ele>
        <time>2014-05-04T08:51:38.000Z</time>
      </trkpt>
      <trkpt lat="47.41004" lon="6.76082">
        <ele>554.5</ele>
        <time>2014-05-04T08:51:40.000Z</time>
      </trkpt>
      <trkpt lat="47.41004" lon="6.76078">
        <ele>553.3</ele>
        <time>2014-05-04T08:51:41.000Z</time>
      </trkpt>
      <trkpt lat="47.41005" lon="6.76075">
        <ele>553.3</ele>
        <time>2014-05-04T08:51:42.000Z</time>
      </trkpt>
      <trkpt lat="47.41007" lon="6.76049">
        <ele>553.5</ele>
        <time>2014-05-04T08:51:50.000Z</time>
      </trkpt>
      <trkpt lat="47.41007" lon="6.76045">
        <ele>555</ele>
        <time>2014-05-04T08:51:51.000Z</time>
      </trkpt>
      <trkpt lat="47.41007" lon="6.76041">
        <ele>555.7</ele>
        <time>2014-05-04T08:51:52.000Z</time>
      </trkpt>
      <trkpt lat="47.41007" lon="6.76034">
        <ele>558.7</ele>
        <time>2014-05-04T08:51:54.000Z</time>
      </trkpt>
      <trkpt lat="47.41007" lon="6.76031">
        <ele>559</ele>
        <time>2014-05-04T08:51:55.000Z</time>
      </trkpt>
      <trkpt lat="47.41007" lon="6.76028">
        <ele>558.2</ele>
        <time>2014-05-04T08:51:56.000Z</time>
      </trkpt>
      <trkpt lat="47.41007" lon="6.76024">
        <ele>557.8</ele>
        <time>2014-05-04T08:51:57.000Z</time>
      </trkpt>
      <trkpt lat="47.41007" lon="6.7602">
        <ele>557</ele>
        <time>2014-05-04T08:51:58.000Z</time>
      </trkpt>
      <trkpt lat="47.41008" lon="6.76015">
        <ele>556.6</ele>
        <time>2014-05-04T08:51:59.000Z</time>
      </trkpt>
      <trkpt lat="47.41008" lon="6.76011">
        <ele>557.3</ele>
        <time>2014-05-04T08:52:00.000Z</time>
      </trkpt>
      <trkpt lat="47.41008" lon="6.76007">
        <ele>558.7</ele>
        <time>2014-05-04T08:52:01.000Z</time>
      </trkpt>
      <trkpt lat="47.41008" lon="6.76003">
        <ele>560.6</ele>
        <time>2014-05-04T08:52:02.000Z</time>
      </trkpt>
      <trkpt lat="47.41008" lon="6.76">
        <ele>561.7</ele>
        <time>2014-05-04T08:52:03.000Z</time>
      </trkpt>
      <trkpt lat="47.41009" lon="6.75994">
        <ele>562.3</ele>
        <time>2014-05-04T08:52:05.000Z</time>
      </trkpt>
      <trkpt lat="47.41009" lon="6.75992">
        <ele>563.1</ele>
        <time>2014-05-04T08:52:06.000Z</time>
      </trkpt>
      <trkpt lat="47.41009" lon="6.75988">
        <ele>563.4</ele>
        <time>2014-05-04T08:52:07.000Z</time>
      </trkpt>
      <trkpt lat="47.41009" lon="6.75985">
        <ele>563.4</ele>
        <time>2014-05-04T08:52:08.000Z</time>
      </trkpt>
      <trkpt lat="47.41009" lon="6.75981">
        <ele>563.3</ele>
        <time>2014-05-04T08:52:09.000Z</time>
      </trkpt>
      <trkpt lat="47.41008" lon="6.75977">
        <ele>563.3</ele>
        <time>2014-05-04T08:52:10.000Z</time>
      </trkpt>
      <trkpt lat="47.41009" lon="6.75973">
        <ele>562.4</ele>
        <time>2014-05-04T08:52:11.000Z</time>
      </trkpt>
      <trkpt lat="47.41009" lon="6.7597">
        <ele>562</ele>
        <time>2014-05-04T08:52:12.000Z</time>
      </trkpt>
      <trkpt lat="47.41009" lon="6.75966">
        <ele>563</ele>
        <time>2014-05-04T08:52:13.000Z</time>
      </trkpt>
      <trkpt lat="47.41009" lon="6.75963">
        <ele>564.1</ele>
        <time>2014-05-04T08:52:14.000Z</time>
      </trkpt>
      <trkpt lat="47.41009" lon="6.75959">
        <ele>564</ele>
        <time>2014-05-04T08:52:15.000Z</time>
      </trkpt>
      <trkpt lat="47.41009" lon="6.75955">
        <ele>563</ele>
        <time>2014-05-04T08:52:16.000Z</time>
      </trkpt>
      <trkpt lat="47.41009" lon="6.75952">
        <ele>564.2</ele>
        <time>2014-05-04T08:52:17.000Z</time>
      </trkpt>
      <trkpt lat="47.41009" lon="6.75948">
        <ele>564.2</ele>
        <time>2014-05-04T08:52:18.000Z</time>
      </trkpt>
      <trkpt lat="47.41009" lon="6.75944">
        <ele>564.5</ele>
        <time>2014-05-04T08:52:19.000Z</time>
      </trkpt>
      <trkpt lat="47.41009" lon="6.75941">
        <ele>565.2</ele>
        <time>2014-05-04T08:52:20.000Z</time>
      </trkpt>
      <trkpt lat="47.41009" lon="6.75936">
        <ele>565.3</ele>
        <time>2014-05-04T08:52:21.000Z</time>
      </trkpt>
      <trkpt lat="47.41009" lon="6.75932">
        <ele>564.9</ele>
        <time>2014-05-04T08:52:22.000Z</time>
      </trkpt>
      <trkpt lat="47.41009" lon="6.75928">
        <ele>565</ele>
        <time>2014-05-04T08:52:23.000Z</time>
      </trkpt>
      <trkpt lat="47.41009" lon="6.75924">
        <ele>565.2</ele>
        <time>2014-05-04T08:52:24.000Z</time>
      </trkpt>
      <trkpt lat="47.41009" lon="6.7592">
        <ele>564.7</ele>
        <time>2014-05-04T08:52:25.000Z</time>
      </trkpt>
      <trkpt lat="47.41009" lon="6.75917">
        <ele>564.5</ele>
        <time>2014-05-04T08:52:26.000Z</time>
      </trkpt>
      <trkpt lat="47.41009" lon="6.75913">
        <ele>565.8</ele>
        <time>2014-05-04T08:52:27.000Z</time>
      </trkpt>
      <trkpt lat="47.41009" lon="6.7591">
        <ele>565.6</ele>
        <time>2014-05-04T08:52:28.000Z</time>
      </trkpt>
      <trkpt lat="47.4101" lon="6.75904">
        <ele>565.6</ele>
        <time>2014-05-04T08:52:30.000Z</time>
      </trkpt>
      <trkpt lat="47.4101" lon="6.75901">
        <ele>564.8</ele>
        <time>2014-05-04T08:52:31.000Z</time>
      </trkpt>
      <trkpt lat="47.4101" lon="6.75895">
        <ele>565.1</ele>
        <time>2014-05-04T08:52:33.000Z</time>
      </trkpt>
      <trkpt lat="47.4101" lon="6.75891">
        <ele>564.5</ele>
        <time>2014-05-04T08:52:34.000Z</time>
      </trkpt>
      <trkpt lat="47.4101" lon="6.75887">
        <ele>564.3</ele>
        <time>2014-05-04T08:52:35.000Z</time>
      </trkpt>
      <trkpt lat="47.4101" lon="6.75883">
        <ele>564.8</ele>
        <time>2014-05-04T08:52:36.000Z</time>
      </trkpt>
      <trkpt lat="47.41011" lon="6.75879">
        <ele>565.3</ele>
        <time>2014-05-04T08:52:37.000Z</time>
      </trkpt>
      <trkpt lat="47.41011" lon="6.75875">
        <ele>564.9</ele>
        <time>2014-05-04T08:52:38.000Z</time>
      </trkpt>
      <trkpt lat="47.41011" lon="6.75871">
        <ele>564.8</ele>
        <time>2014-05-04T08:52:39.000Z</time>
      </trkpt>
      <trkpt lat="47.41012" lon="6.75866">
        <ele>564.8</ele>
        <time>2014-05-04T08:52:40.000Z</time>
      </trkpt>
      <trkpt lat="47.41013" lon="6.75862">
        <ele>565.3</ele>
        <time>2014-05-04T08:52:41.000Z</time>
      </trkpt>
      <trkpt lat="47.41014" lon="6.75858">
        <ele>564.6</ele>
        <time>2014-05-04T08:52:42.000Z</time>
      </trkpt>
      <trkpt lat="47.4102" lon="6.75825">
        <ele>566</ele>
        <time>2014-05-04T08:52:51.000Z</time>
      </trkpt>
      <trkpt lat="47.41021" lon="6.7582">
        <ele>565.1</ele>
        <time>2014-05-04T08:52:52.000Z</time>
      </trkpt>
      <trkpt lat="47.41022" lon="6.75815">
        <ele>564.7</ele>
        <time>2014-05-04T08:52:53.000Z</time>
      </trkpt>
      <trkpt lat="47.41022" lon="6.7581">
        <ele>564.8</ele>
        <time>2014-05-04T08:52:54.000Z</time>
      </trkpt>
      <trkpt lat="47.41023" lon="6.75805">
        <ele>564.9</ele>
        <time>2014-05-04T08:52:55.000Z</time>
      </trkpt>
      <trkpt lat="47.41023" lon="6.758">
        <ele>565.1</ele>
        <time>2014-05-04T08:52:56.000Z</time>
      </trkpt>
      <trkpt lat="47.41024" lon="6.75795">
        <ele>565.6</ele>
        <time>2014-05-04T08:52:57.000Z</time>
      </trkpt>
      <trkpt lat="47.41024" lon="6.75791">
        <ele>565.4</ele>
        <time>2014-05-04T08:52:58.000Z</time>
      </trkpt>
      <trkpt lat="47.41024" lon="6.75787">
        <ele>565</ele>
        <time>2014-05-04T08:52:59.000Z</time>
      </trkpt>
      <trkpt lat="47.41024" lon="6.75781">
        <ele>563.3</ele>
        <time>2014-05-04T08:53:01.000Z</time>
      </trkpt>
      <trkpt lat="47.41024" lon="6.75778">
        <ele>563.1</ele>
        <time>2014-05-04T08:53:02.000Z</time>
      </trkpt>
      <trkpt lat="47.41024" lon="6.75773">
        <ele>563.7</ele>
        <time>2014-05-04T08:53:04.000Z</time>
      </trkpt>
      <trkpt lat="47.41024" lon="6.75771">
        <ele>563</ele>
        <time>2014-05-04T08:53:05.000Z</time>
      </trkpt>
      <trkpt lat="47.41025" lon="6.75766">
        <ele>562.6</ele>
        <time>2014-05-04T08:53:07.000Z</time>
      </trkpt>
      <trkpt lat="47.41025" lon="6.75763">
        <ele>563</ele>
        <time>2014-05-04T08:53:08.000Z</time>
      </trkpt>
      <trkpt lat="47.41025" lon="6.75756">
        <ele>565.3</ele>
        <time>2014-05-04T08:53:11.000Z</time>
      </trkpt>
      <trkpt lat="47.41025" lon="6.75754">
        <ele>565.1</ele>
        <time>2014-05-04T08:53:12.000Z</time>
      </trkpt>
      <trkpt lat="47.41024" lon="6.7575">
        <ele>566</ele>
        <time>2014-05-04T08:53:14.000Z</time>
      </trkpt>
      <trkpt lat="47.41024" lon="6.75747">
        <ele>565.9</ele>
        <time>2014-05-04T08:53:15.000Z</time>
      </trkpt>
      <trkpt lat="47.41023" lon="6.7574">
        <ele>566</ele>
        <time>2014-05-04T08:53:17.000Z</time>
      </trkpt>
      <trkpt lat="47.41022" lon="6.75737">
        <ele>566</ele>
        <time>2014-05-04T08:53:18.000Z</time>
      </trkpt>
      <trkpt lat="47.41022" lon="6.75733">
        <ele>565.5</ele>
        <time>2014-05-04T08:53:19.000Z</time>
      </trkpt>
      <trkpt lat="47.41022" lon="6.75729">
        <ele>565.6</ele>
        <time>2014-05-04T08:53:20.000Z</time>
      </trkpt>
      <trkpt lat="47.41022" lon="6.75726">
        <ele>566.1</ele>
        <time>2014-05-04T08:53:21.000Z</time>
      </trkpt>
      <trkpt lat="47.41022" lon="6.75722">
        <ele>565.3</ele>
        <time>2014-05-04T08:53:22.000Z</time>
      </trkpt>
      <trkpt lat="47.41022" lon="6.75718">
        <ele>564</ele>
        <time>2014-05-04T08:53:23.000Z</time>
      </trkpt>
      <trkpt lat="47.41022" lon="6.75714">
        <ele>565.4</ele>
        <time>2014-05-04T08:53:24.000Z</time>
      </trkpt>
      <trkpt lat="47.41022" lon="6.7571">
        <ele>565.9</ele>
        <time>2014-05-04T08:53:25.000Z</time>
      </trkpt>
      <trkpt lat="47.41022" lon="6.75707">
        <ele>566.5</ele>
        <time>2014-05-04T08:53:26.000Z</time>
      </trkpt>
      <trkpt lat="47.41023" lon="6.75701">
        <ele>566.8</ele>
        <time>2014-05-04T08:53:28.000Z</time>
      </trkpt>
      <trkpt lat="47.41023" lon="6.75698">
        <ele>566</ele>
        <time>2014-05-04T08:53:29.000Z</time>
      </trkpt>
      <trkpt lat="47.41025" lon="6.75693">
        <ele>570</ele>
        <time>2014-05-04T08:53:32.000Z</time>
      </trkpt>
      <trkpt lat="47.41027" lon="6.75693">
        <ele>567.4</ele>
        <time>2014-05-04T08:53:33.000Z</time>
      </trkpt>
      <trkpt lat="47.41031" lon="6.75693">
        <ele>566.6</ele>
        <time>2014-05-04T08:53:36.000Z</time>
      </trkpt>
      <trkpt lat="47.41032" lon="6.75694">
        <ele>566.3</ele>
        <time>2014-05-04T08:53:37.000Z</time>
      </trkpt>
      <trkpt lat="47.41027" lon="6.75693">
        <ele>555.5</ele>
        <time>2014-05-04T08:56:38.000Z</time>
      </trkpt>
      <trkpt lat="47.41027" lon="6.75694">
        <ele>556</ele>
        <time>2014-05-04T08:56:39.000Z</time>
      </trkpt>
      <trkpt lat="47.41031" lon="6.75691">
        <ele>520.6</ele>
        <time>2014-05-04T08:59:43.000Z</time>
      </trkpt>
      <trkpt lat="47.41031" lon="6.75691">
        <ele>521</ele>
        <time>2014-05-04T08:59:44.000Z</time>
      </trkpt>
      <trkpt lat="47.41035" lon="6.75691">
        <ele>542.9</ele>
        <time>2014-05-04T09:01:45.000Z</time>
      </trkpt>
      <trkpt lat="47.41036" lon="6.75692">
        <ele>544.4</ele>
        <time>2014-05-04T09:01:53.000Z</time>
      </trkpt>
      <trkpt lat="47.41031" lon="6.75693">
        <ele>549.9</ele>
        <time>2014-05-04T09:03:07.000Z</time>
      </trkpt>
      <trkpt lat="47.41031" lon="6.75693">
        <ele>550.2</ele>
        <time>2014-05-04T09:03:08.000Z</time>
      </trkpt>
      <trkpt lat="47.41035" lon="6.75697">
        <ele>539.8</ele>
        <time>2014-05-04T09:05:27.000Z</time>
      </trkpt>
      <trkpt lat="47.41035" lon="6.75697">
        <ele>539.9</ele>
        <time>2014-05-04T09:05:28.000Z</time>
      </trkpt>
      <trkpt lat="47.41038" lon="6.75699">
        <ele>547.2</ele>
        <time>2014-05-04T09:06:43.000Z</time>
      </trkpt>
      <trkpt lat="47.41039" lon="6.75699">
        <ele>546.8</ele>
        <time>2014-05-04T09:06:44.000Z</time>
      </trkpt>
      <trkpt lat="47.41041" lon="6.75699">
        <ele>547.3</ele>
        <time>2014-05-04T09:06:45.000Z</time>
      </trkpt>
      <trkpt lat="47.41054" lon="6.75698">
        <ele>551</ele>
        <time>2014-05-04T09:06:53.000Z</time>
      </trkpt>
      <trkpt lat="47.41058" lon="6.75698">
        <ele>550.3</ele>
        <time>2014-05-04T09:06:55.000Z</time>
      </trkpt>
      <trkpt lat="47.4106" lon="6.75699">
        <ele>550.1</ele>
        <time>2014-05-04T09:06:56.000Z</time>
      </trkpt>
      <trkpt lat="47.41064" lon="6.757">
        <ele>550.3</ele>
        <time>2014-05-04T09:06:58.000Z</time>
      </trkpt>
      <trkpt lat="47.41066" lon="6.757">
        <ele>551.1</ele>
        <time>2014-05-04T09:06:59.000Z</time>
      </trkpt>
      <trkpt lat="47.4107" lon="6.75701">
        <ele>552.2</ele>
        <time>2014-05-04T09:07:01.000Z</time>
      </trkpt>
      <trkpt lat="47.41072" lon="6.75702">
        <ele>552.4</ele>
        <time>2014-05-04T09:07:02.000Z</time>
      </trkpt>
      <trkpt lat="47.41076" lon="6.75703">
        <ele>552.5</ele>
        <time>2014-05-04T09:07:04.000Z</time>
      </trkpt>
      <trkpt lat="47.41079" lon="6.75704">
        <ele>552.2</ele>
        <time>2014-05-04T09:07:05.000Z</time>
      </trkpt>
      <trkpt lat="47.41081" lon="6.75705">
        <ele>551.9</ele>
        <time>2014-05-04T09:07:06.000Z</time>
      </trkpt>
      <trkpt lat="47.41083" lon="6.75705">
        <ele>551.9</ele>
        <time>2014-05-04T09:07:07.000Z</time>
      </trkpt>
      <trkpt lat="47.41085" lon="6.75706">
        <ele>550.8</ele>
        <time>2014-05-04T09:07:08.000Z</time>
      </trkpt>
      <trkpt lat="47.41088" lon="6.75706">
        <ele>550.5</ele>
        <time>2014-05-04T09:07:09.000Z</time>
      </trkpt>
      <trkpt lat="47.4109" lon="6.75707">
        <ele>550.7</ele>
        <time>2014-05-04T09:07:10.000Z</time>
      </trkpt>
      <trkpt lat="47.41092" lon="6.75708">
        <ele>550.9</ele>
        <time>2014-05-04T09:07:11.000Z</time>
      </trkpt>
      <trkpt lat="47.41096" lon="6.7571">
        <ele>551.1</ele>
        <time>2014-05-04T09:07:13.000Z</time>
      </trkpt>
      <trkpt lat="47.41097" lon="6.75711">
        <ele>553.2</ele>
        <time>2014-05-04T09:07:14.000Z</time>
      </trkpt>
      <trkpt lat="47.41101" lon="6.75712">
        <ele>554.6</ele>
        <time>2014-05-04T09:07:16.000Z</time>
      </trkpt>
      <trkpt lat="47.41103" lon="6.75713">
        <ele>555.4</ele>
        <time>2014-05-04T09:07:17.000Z</time>
      </trkpt>
      <trkpt lat="47.41107" lon="6.75714">
        <ele>556.5</ele>
        <time>2014-05-04T09:07:19.000Z</time>
      </trkpt>
      <trkpt lat="47.41109" lon="6.75715">
        <ele>557.2</ele>
        <time>2014-05-04T09:07:20.000Z</time>
      </trkpt>
      <trkpt lat="47.41113" lon="6.75715">
        <ele>557.4</ele>
        <time>2014-05-04T09:07:22.000Z</time>
      </trkpt>
      <trkpt lat="47.41115" lon="6.75716">
        <ele>557.1</ele>
        <time>2014-05-04T09:07:23.000Z</time>
      </trkpt>
      <trkpt lat="47.41117" lon="6.75716">
        <ele>556.8</ele>
        <time>2014-05-04T09:07:24.000Z</time>
      </trkpt>
      <trkpt lat="47.4112" lon="6.75717">
        <ele>557.4</ele>
        <time>2014-05-04T09:07:25.000Z</time>
      </trkpt>
      <trkpt lat="47.41122" lon="6.75718">
        <ele>557.4</ele>
        <time>2014-05-04T09:07:26.000Z</time>
      </trkpt>
      <trkpt lat="47.41124" lon="6.75719">
        <ele>556.8</ele>
        <time>2014-05-04T09:07:27.000Z</time>
      </trkpt>
      <trkpt lat="47.41126" lon="6.75719">
        <ele>557.1</ele>
        <time>2014-05-04T09:07:28.000Z</time>
      </trkpt>
      <trkpt lat="47.41129" lon="6.7572">
        <ele>558.4</ele>
        <time>2014-05-04T09:07:29.000Z</time>
      </trkpt>
      <trkpt lat="47.41131" lon="6.75721">
        <ele>559.7</ele>
        <time>2014-05-04T09:07:30.000Z</time>
      </trkpt>
      <trkpt lat="47.41133" lon="6.75722">
        <ele>559</ele>
        <time>2014-05-04T09:07:31.000Z</time>
      </trkpt>
      <trkpt lat="47.41135" lon="6.75723">
        <ele>560.6</ele>
        <time>2014-05-04T09:07:32.000Z</time>
      </trkpt>
      <trkpt lat="47.41138" lon="6.75724">
        <ele>560</ele>
        <time>2014-05-04T09:07:33.000Z</time>
      </trkpt>
      <trkpt lat="47.4114" lon="6.75725">
        <ele>560.3</ele>
        <time>2014-05-04T09:07:34.000Z</time>
      </trkpt>
      <trkpt lat="47.41143" lon="6.75727">
        <ele>559.9</ele>
        <time>2014-05-04T09:07:35.000Z</time>
      </trkpt>
      <trkpt lat="47.41147" lon="6.75728">
        <ele>561.5</ele>
        <time>2014-05-04T09:07:37.000Z</time>
      </trkpt>
      <trkpt lat="47.41149" lon="6.75728">
        <ele>562.1</ele>
        <time>2014-05-04T09:07:38.000Z</time>
      </trkpt>
      <trkpt lat="47.41153" lon="6.75728">
        <ele>561.8</ele>
        <time>2014-05-04T09:07:40.000Z</time>
      </trkpt>
      <trkpt lat="47.41155" lon="6.75729">
        <ele>561.7</ele>
        <time>2014-05-04T09:07:41.000Z</time>
      </trkpt>
      <trkpt lat="47.41158" lon="6.7573">
        <ele>561.8</ele>
        <time>2014-05-04T09:07:42.000Z</time>
      </trkpt>
      <trkpt lat="47.4116" lon="6.75731">
        <ele>561.9</ele>
        <time>2014-05-04T09:07:43.000Z</time>
      </trkpt>
      <trkpt lat="47.41163" lon="6.75732">
        <ele>561.2</ele>
        <time>2014-05-04T09:07:44.000Z</time>
      </trkpt>
      <trkpt lat="47.41165" lon="6.75733">
        <ele>562.2</ele>
        <time>2014-05-04T09:07:45.000Z</time>
      </trkpt>
      <trkpt lat="47.41172" lon="6.75737">
        <ele>560.9</ele>
        <time>2014-05-04T09:07:48.000Z</time>
      </trkpt>
      <trkpt lat="47.41176" lon="6.75737">
        <ele>565.8</ele>
        <time>2014-05-04T09:07:50.000Z</time>
      </trkpt>
      <trkpt lat="47.41178" lon="6.75737">
        <ele>566.2</ele>
        <time>2014-05-04T09:07:51.000Z</time>
      </trkpt>
      <trkpt lat="47.41182" lon="6.75738">
        <ele>565.9</ele>
        <time>2014-05-04T09:07:53.000Z</time>
      </trkpt>
      <trkpt lat="47.41185" lon="6.75738">
        <ele>566.5</ele>
        <time>2014-05-04T09:07:54.000Z</time>
      </trkpt>
      <trkpt lat="47.41187" lon="6.75739">
        <ele>566.9</ele>
        <time>2014-05-04T09:07:55.000Z</time>
      </trkpt>
      <trkpt lat="47.41189" lon="6.75739">
        <ele>566.9</ele>
        <time>2014-05-04T09:07:56.000Z</time>
      </trkpt>
      <trkpt lat="47.41192" lon="6.7574">
        <ele>567</ele>
        <time>2014-05-04T09:07:57.000Z</time>
      </trkpt>
      <trkpt lat="47.41194" lon="6.7574">
        <ele>567.2</ele>
        <time>2014-05-04T09:07:58.000Z</time>
      </trkpt>
      <trkpt lat="47.41196" lon="6.75741">
        <ele>566.8</ele>
        <time>2014-05-04T09:07:59.000Z</time>
      </trkpt>
      <trkpt lat="47.41198" lon="6.75742">
        <ele>566.3</ele>
        <time>2014-05-04T09:08:00.000Z</time>
      </trkpt>
      <trkpt lat="47.41202" lon="6.75743">
        <ele>568.4</ele>
        <time>2014-05-04T09:08:02.000Z</time>
      </trkpt>
      <trkpt lat="47.41204" lon="6.75743">
        <ele>569.2</ele>
        <time>2014-05-04T09:08:03.000Z</time>
      </trkpt>
      <trkpt lat="47.41207" lon="6.75744">
        <ele>570.6</ele>
        <time>2014-05-04T09:08:05.000Z</time>
      </trkpt>
      <trkpt lat="47.41209" lon="6.75744">
        <ele>572.8</ele>
        <time>2014-05-04T09:08:06.000Z</time>
      </trkpt>
      <trkpt lat="47.41213" lon="6.75745">
        <ele>574.4</ele>
        <time>2014-05-04T09:08:09.000Z</time>
      </trkpt>
      <trkpt lat="47.41214" lon="6.75746">
        <ele>575</ele>
        <time>2014-05-04T09:08:10.000Z</time>
      </trkpt>
      <trkpt lat="47.41217" lon="6.75748">
        <ele>574.6</ele>
        <time>2014-05-04T09:08:12.000Z</time>
      </trkpt>
      <trkpt lat="47.41219" lon="6.75749">
        <ele>576</ele>
        <time>2014-05-04T09:08:13.000Z</time>
      </trkpt>
      <trkpt lat="47.41223" lon="6.7575">
        <ele>579.6</ele>
        <time>2014-05-04T09:08:15.000Z</time>
      </trkpt>
      <trkpt lat="47.41226" lon="6.75751">
        <ele>580.2</ele>
        <time>2014-05-04T09:08:16.000Z</time>
      </trkpt>
      <trkpt lat="47.41228" lon="6.75752">
        <ele>579.4</ele>
        <time>2014-05-04T09:08:17.000Z</time>
      </trkpt>
      <trkpt lat="47.4123" lon="6.75753">
        <ele>580.9</ele>
        <time>2014-05-04T09:08:18.000Z</time>
      </trkpt>
      <trkpt lat="47.41233" lon="6.75754">
        <ele>582.1</ele>
        <time>2014-05-04T09:08:20.000Z</time>
      </trkpt>
      <trkpt lat="47.41235" lon="6.75754">
        <ele>582.3</ele>
        <time>2014-05-04T09:08:21.000Z</time>
      </trkpt>
      <trkpt lat="47.41238" lon="6.75755">
        <ele>584.7</ele>
        <time>2014-05-04T09:08:23.000Z</time>
      </trkpt>
      <trkpt lat="47.4124" lon="6.75757">
        <ele>585.3</ele>
        <time>2014-05-04T09:08:24.000Z</time>
      </trkpt>
      <trkpt lat="47.41242" lon="6.75758">
        <ele>585.2</ele>
        <time>2014-05-04T09:08:25.000Z</time>
      </trkpt>
      <trkpt lat="47.41244" lon="6.75759">
        <ele>585.3</ele>
        <time>2014-05-04T09:08:26.000Z</time>
      </trkpt>
      <trkpt lat="47.41247" lon="6.7576">
        <ele>585.1</ele>
        <time>2014-05-04T09:08:27.000Z</time>
      </trkpt>
      <trkpt lat="47.41249" lon="6.75761">
        <ele>584.9</ele>
        <time>2014-05-04T09:08:28.000Z</time>
      </trkpt>
      <trkpt lat="47.41251" lon="6.75762">
        <ele>585.4</ele>
        <time>2014-05-04T09:08:29.000Z</time>
      </trkpt>
      <trkpt lat="47.41254" lon="6.75764">
        <ele>584</ele>
        <time>2014-05-04T09:08:30.000Z</time>
      </trkpt>
      <trkpt lat="47.41257" lon="6.75765">
        <ele>583.6</ele>
        <time>2014-05-04T09:08:31.000Z</time>
      </trkpt>
      <trkpt lat="47.41259" lon="6.75767">
        <ele>584.8</ele>
        <time>2014-05-04T09:08:32.000Z</time>
      </trkpt>
      <trkpt lat="47.41262" lon="6.75768">
        <ele>583.7</ele>
        <time>2014-05-04T09:08:33.000Z</time>
      </trkpt>
      <trkpt lat="47.41265" lon="6.75769">
        <ele>582.6</ele>
        <time>2014-05-04T09:08:34.000Z</time>
      </trkpt>
      <trkpt lat="47.41268" lon="6.75771">
        <ele>581.7</ele>
        <time>2014-05-04T09:08:35.000Z</time>
      </trkpt>
      <trkpt lat="47.4127" lon="6.75772">
        <ele>582.3</ele>
        <time>2014-05-04T09:08:36.000Z</time>
      </trkpt>
      <trkpt lat="47.41273" lon="6.75773">
        <ele>581.1</ele>
        <time>2014-05-04T09:08:37.000Z</time>
      </trkpt>
      <trkpt lat="47.41276" lon="6.75774">
        <ele>580.4</ele>
        <time>2014-05-04T09:08:38.000Z</time>
      </trkpt>
      <trkpt lat="47.41279" lon="6.75775">
        <ele>578.8</ele>
        <time>2014-05-04T09:08:39.000Z</time>
      </trkpt>
      <trkpt lat="47.41282" lon="6.75776">
        <ele>578.4</ele>
        <time>2014-05-04T09:08:40.000Z</time>
      </trkpt>
      <trkpt lat="47.41285" lon="6.75777">
        <ele>579</ele>
        <time>2014-05-04T09:08:41.000Z</time>
      </trkpt>
      <trkpt lat="47.41288" lon="6.75777">
        <ele>579.1</ele>
        <time>2014-05-04T09:08:42.000Z</time>
      </trkpt>
      <trkpt lat="47.41291" lon="6.75778">
        <ele>578.9</ele>
        <time>2014-05-04T09:08:43.000Z</time>
      </trkpt>
      <trkpt lat="47.41294" lon="6.75779">
        <ele>579.6</ele>
        <time>2014-05-04T09:08:44.000Z</time>
      </trkpt>
      <trkpt lat="47.41297" lon="6.7578">
        <ele>579.2</ele>
        <time>2014-05-04T09:08:45.000Z</time>
      </trkpt>
      <trkpt lat="47.41322" lon="6.75776">
        <ele>576.2</ele>
        <time>2014-05-04T09:08:53.000Z</time>
      </trkpt>
      <trkpt lat="47.41324" lon="6.75771">
        <ele>575.8</ele>
        <time>2014-05-04T09:08:54.000Z</time>
      </trkpt>
      <trkpt lat="47.41324" lon="6.75764">
        <ele>575</ele>
        <time>2014-05-04T09:08:55.000Z</time>
      </trkpt>
      <trkpt lat="47.41324" lon="6.75759">
        <ele>575.6</ele>
        <time>2014-05-04T09:08:56.000Z</time>
      </trkpt>
      <trkpt lat="47.41325" lon="6.75753">
        <ele>575</ele>
        <time>2014-05-04T09:08:57.000Z</time>
      </trkpt>
      <trkpt lat="47.41325" lon="6.75749">
        <ele>575.6</ele>
        <time>2014-05-04T09:08:58.000Z</time>
      </trkpt>
      <trkpt lat="47.41326" lon="6.75745">
        <ele>576.1</ele>
        <time>2014-05-04T09:08:59.000Z</time>
      </trkpt>
      <trkpt lat="47.41326" lon="6.75741">
        <ele>576.2</ele>
        <time>2014-05-04T09:09:00.000Z</time>
      </trkpt>
      <trkpt lat="47.41327" lon="6.75737">
        <ele>576.1</ele>
        <time>2014-05-04T09:09:01.000Z</time>
      </trkpt>
      <trkpt lat="47.41327" lon="6.75734">
        <ele>576.5</ele>
        <time>2014-05-04T09:09:02.000Z</time>
      </trkpt>
      <trkpt lat="47.41327" lon="6.7573">
        <ele>576.8</ele>
        <time>2014-05-04T09:09:03.000Z</time>
      </trkpt>
      <trkpt lat="47.41327" lon="6.75724">
        <ele>576.2</ele>
        <time>2014-05-04T09:09:05.000Z</time>
      </trkpt>
      <trkpt lat="47.41326" lon="6.75721">
        <ele>576.7</ele>
        <time>2014-05-04T09:09:06.000Z</time>
      </trkpt>
      <trkpt lat="47.41326" lon="6.75717">
        <ele>576.7</ele>
        <time>2014-05-04T09:09:07.000Z</time>
      </trkpt>
      <trkpt lat="47.41326" lon="6.75712">
        <ele>575.3</ele>
        <time>2014-05-04T09:09:08.000Z</time>
      </trkpt>
      <trkpt lat="47.41326" lon="6.75707">
        <ele>575.7</ele>
        <time>2014-05-04T09:09:09.000Z</time>
      </trkpt>
      <trkpt lat="47.41326" lon="6.75702">
        <ele>576</ele>
        <time>2014-05-04T09:09:10.000Z</time>
      </trkpt>
      <trkpt lat="47.41326" lon="6.75698">
        <ele>575.9</ele>
        <time>2014-05-04T09:09:11.000Z</time>
      </trkpt>
      <trkpt lat="47.41326" lon="6.75694">
        <ele>576.4</ele>
        <time>2014-05-04T09:09:12.000Z</time>
      </trkpt>
      <trkpt lat="47.41326" lon="6.7569">
        <ele>576.1</ele>
        <time>2014-05-04T09:09:13.000Z</time>
      </trkpt>
      <trkpt lat="47.41326" lon="6.75686">
        <ele>576.2</ele>
        <time>2014-05-04T09:09:14.000Z</time>
      </trkpt>
      <trkpt lat="47.41327" lon="6.75681">
        <ele>575.6</ele>
        <time>2014-05-04T09:09:15.000Z</time>
      </trkpt>
      <trkpt lat="47.41327" lon="6.75677">
        <ele>575.9</ele>
        <time>2014-05-04T09:09:16.000Z</time>
      </trkpt>
      <trkpt lat="47.41328" lon="6.75673">
        <ele>576</ele>
        <time>2014-05-04T09:09:17.000Z</time>
      </trkpt>
      <trkpt lat="47.41328" lon="6.75668">
        <ele>575.7</ele>
        <time>2014-05-04T09:09:18.000Z</time>
      </trkpt>
      <trkpt lat="47.41328" lon="6.75664">
        <ele>575.7</ele>
        <time>2014-05-04T09:09:19.000Z</time>
      </trkpt>
      <trkpt lat="47.41328" lon="6.75659">
        <ele>575.9</ele>
        <time>2014-05-04T09:09:20.000Z</time>
      </trkpt>
      <trkpt lat="47.41328" lon="6.75653">
        <ele>576.1</ele>
        <time>2014-05-04T09:09:22.000Z</time>
      </trkpt>
      <trkpt lat="47.41327" lon="6.75652">
        <ele>576.5</ele>
        <time>2014-05-04T09:09:23.000Z</time>
      </trkpt>
      <trkpt lat="47.41324" lon="6.75649">
        <ele>578.2</ele>
        <time>2014-05-04T09:09:28.000Z</time>
      </trkpt>
      <trkpt lat="47.41323" lon="6.75649">
        <ele>578.1</ele>
        <time>2014-05-04T09:09:29.000Z</time>
      </trkpt>
      <trkpt lat="47.4132" lon="6.75644">
        <ele>577.5</ele>
        <time>2014-05-04T09:09:32.000Z</time>
      </trkpt>
      <trkpt lat="47.4132" lon="6.75641">
        <ele>578.7</ele>
        <time>2014-05-04T09:09:33.000Z</time>
      </trkpt>
      <trkpt lat="47.4132" lon="6.75638">
        <ele>579.9</ele>
        <time>2014-05-04T09:09:34.000Z</time>
      </trkpt>
      <trkpt lat="47.41321" lon="6.75635">
        <ele>581.8</ele>
        <time>2014-05-04T09:09:35.000Z</time>
      </trkpt>
      <trkpt lat="47.41321" lon="6.75631">
        <ele>582.8</ele>
        <time>2014-05-04T09:09:36.000Z</time>
      </trkpt>
      <trkpt lat="47.41321" lon="6.75627">
        <ele>583.4</ele>
        <time>2014-05-04T09:09:37.000Z</time>
      </trkpt>
      <trkpt lat="47.41321" lon="6.75622">
        <ele>584.7</ele>
        <time>2014-05-04T09:09:38.000Z</time>
      </trkpt>
      <trkpt lat="47.4132" lon="6.75618">
        <ele>585.8</ele>
        <time>2014-05-04T09:09:39.000Z</time>
      </trkpt>
      <trkpt lat="47.4132" lon="6.75615">
        <ele>586.3</ele>
        <time>2014-05-04T09:09:40.000Z</time>
      </trkpt>
      <trkpt lat="47.4132" lon="6.75611">
        <ele>586.4</ele>
        <time>2014-05-04T09:09:41.000Z</time>
      </trkpt>
      <trkpt lat="47.41321" lon="6.75605">
        <ele>586.7</ele>
        <time>2014-05-04T09:09:43.000Z</time>
      </trkpt>
      <trkpt lat="47.41321" lon="6.75603">
        <ele>586.9</ele>
        <time>2014-05-04T09:09:44.000Z</time>
      </trkpt>
      <trkpt lat="47.41322" lon="6.75601">
        <ele>586.1</ele>
        <time>2014-05-04T09:09:45.000Z</time>
      </trkpt>
      <trkpt lat="47.41324" lon="6.7559">
        <ele>579.2</ele>
        <time>2014-05-04T09:09:54.000Z</time>
      </trkpt>
      <trkpt lat="47.41323" lon="6.75585">
        <ele>579.1</ele>
        <time>2014-05-04T09:10:01.000Z</time>
      </trkpt>
      <trkpt lat="47.41323" lon="6.75582">
        <ele>578.9</ele>
        <time>2014-05-04T09:10:02.000Z</time>
      </trkpt>
      <trkpt lat="47.41323" lon="6.75576">
        <ele>579.7</ele>
        <time>2014-05-04T09:10:04.000Z</time>
      </trkpt>
      <trkpt lat="47.41323" lon="6.75572">
        <ele>577.1</ele>
        <time>2014-05-04T09:10:05.000Z</time>
      </trkpt>
      <trkpt lat="47.41323" lon="6.75568">
        <ele>576.1</ele>
        <time>2014-05-04T09:10:06.000Z</time>
      </trkpt>
      <trkpt lat="47.41322" lon="6.75565">
        <ele>575.6</ele>
        <time>2014-05-04T09:10:07.000Z</time>
      </trkpt>
      <trkpt lat="47.41322" lon="6.75561">
        <ele>576.2</ele>
        <time>2014-05-04T09:10:08.000Z</time>
      </trkpt>
      <trkpt lat="47.41322" lon="6.75557">
        <ele>578.1</ele>
        <time>2014-05-04T09:10:09.000Z</time>
      </trkpt>
      <trkpt lat="47.41321" lon="6.75554">
        <ele>580.5</ele>
        <time>2014-05-04T09:10:10.000Z</time>
      </trkpt>
      <trkpt lat="47.4132" lon="6.75551">
        <ele>579.9</ele>
        <time>2014-05-04T09:10:11.000Z</time>
      </trkpt>
      <trkpt lat="47.41319" lon="6.75547">
        <ele>579.9</ele>
        <time>2014-05-04T09:10:12.000Z</time>
      </trkpt>
      <trkpt lat="47.41318" lon="6.75543">
        <ele>580.2</ele>
        <time>2014-05-04T09:10:13.000Z</time>
      </trkpt>
      <trkpt lat="47.41317" lon="6.7554">
        <ele>582.4</ele>
        <time>2014-05-04T09:10:14.000Z</time>
      </trkpt>
      <trkpt lat="47.41316" lon="6.75535">
        <ele>580.7</ele>
        <time>2014-05-04T09:10:15.000Z</time>
      </trkpt>
      <trkpt lat="47.41315" lon="6.75532">
        <ele>582.2</ele>
        <time>2014-05-04T09:10:16.000Z</time>
      </trkpt>
      <trkpt lat="47.41313" lon="6.75529">
        <ele>583.3</ele>
        <time>2014-05-04T09:10:17.000Z</time>
      </trkpt>
      <trkpt lat="47.41311" lon="6.75526">
        <ele>584.5</ele>
        <time>2014-05-04T09:10:18.000Z</time>
      </trkpt>
      <trkpt lat="47.4131" lon="6.75522">
        <ele>584.6</ele>
        <time>2014-05-04T09:10:19.000Z</time>
      </trkpt>
      <trkpt lat="47.41309" lon="6.75519">
        <ele>586.4</ele>
        <time>2014-05-04T09:10:20.000Z</time>
      </trkpt>
      <trkpt lat="47.41308" lon="6.75515">
        <ele>585.8</ele>
        <time>2014-05-04T09:10:21.000Z</time>
      </trkpt>
      <trkpt lat="47.41307" lon="6.75512">
        <ele>586.4</ele>
        <time>2014-05-04T09:10:22.000Z</time>
      </trkpt>
      <trkpt lat="47.41306" lon="6.75508">
        <ele>585.5</ele>
        <time>2014-05-04T09:10:23.000Z</time>
      </trkpt>
      <trkpt lat="47.41305" lon="6.75505">
        <ele>584.1</ele>
        <time>2014-05-04T09:10:24.000Z</time>
      </trkpt>
      <trkpt lat="47.41304" lon="6.75501">
        <ele>583.6</ele>
        <time>2014-05-04T09:10:25.000Z</time>
      </trkpt>
      <trkpt lat="47.41303" lon="6.75498">
        <ele>583.1</ele>
        <time>2014-05-04T09:10:26.000Z</time>
      </trkpt>
      <trkpt lat="47.41302" lon="6.75494">
        <ele>582.1</ele>
        <time>2014-05-04T09:10:27.000Z</time>
      </trkpt>
      <trkpt lat="47.41301" lon="6.7549">
        <ele>582</ele>
        <time>2014-05-04T09:10:28.000Z</time>
      </trkpt>
      <trkpt lat="47.41301" lon="6.75487">
        <ele>583</ele>
        <time>2014-05-04T09:10:29.000Z</time>
      </trkpt>
      <trkpt lat="47.413" lon="6.75483">
        <ele>584.3</ele>
        <time>2014-05-04T09:10:30.000Z</time>
      </trkpt>
      <trkpt lat="47.413" lon="6.75479">
        <ele>585.3</ele>
        <time>2014-05-04T09:10:31.000Z</time>
      </trkpt>
      <trkpt lat="47.41299" lon="6.75475">
        <ele>584.9</ele>
        <time>2014-05-04T09:10:32.000Z</time>
      </trkpt>
      <trkpt lat="47.41299" lon="6.75472">
        <ele>584.9</ele>
        <time>2014-05-04T09:10:33.000Z</time>
      </trkpt>
      <trkpt lat="47.41298" lon="6.75468">
        <ele>585.3</ele>
        <time>2014-05-04T09:10:34.000Z</time>
      </trkpt>
      <trkpt lat="47.41298" lon="6.75465">
        <ele>585.9</ele>
        <time>2014-05-04T09:10:35.000Z</time>
      </trkpt>
      <trkpt lat="47.41296" lon="6.7546">
        <ele>585.1</ele>
        <time>2014-05-04T09:10:37.000Z</time>
      </trkpt>
      <trkpt lat="47.41296" lon="6.75457">
        <ele>585</ele>
        <time>2014-05-04T09:10:38.000Z</time>
      </trkpt>
      <trkpt lat="47.41294" lon="6.75451">
        <ele>583.7</ele>
        <time>2014-05-04T09:10:40.000Z</time>
      </trkpt>
      <trkpt lat="47.41294" lon="6.75447">
        <ele>583.1</ele>
        <time>2014-05-04T09:10:41.000Z</time>
      </trkpt>
      <trkpt lat="47.41292" lon="6.75441">
        <ele>584.2</ele>
        <time>2014-05-04T09:10:43.000Z</time>
      </trkpt>
      <trkpt lat="47.41292" lon="6.75438">
        <ele>583.7</ele>
        <time>2014-05-04T09:10:44.000Z</time>
      </trkpt>
      <trkpt lat="47.41291" lon="6.75435">
        <ele>582.9</ele>
        <time>2014-05-04T09:10:45.000Z</time>
      </trkpt>
      <trkpt lat="47.41287" lon="6.75411">
        <ele>578.2</ele>
        <time>2014-05-04T09:10:53.000Z</time>
      </trkpt>
      <trkpt lat="47.41286" lon="6.75406">
        <ele>577.8</ele>
        <time>2014-05-04T09:10:55.000Z</time>
      </trkpt>
      <trkpt lat="47.41286" lon="6.75404">
        <ele>578.9</ele>
        <time>2014-05-04T09:10:56.000Z</time>
      </trkpt>
      <trkpt lat="47.41284" lon="6.75399">
        <ele>578.2</ele>
        <time>2014-05-04T09:10:58.000Z</time>
      </trkpt>
      <trkpt lat="47.41283" lon="6.75397">
        <ele>577.1</ele>
        <time>2014-05-04T09:10:59.000Z</time>
      </trkpt>
      <trkpt lat="47.41282" lon="6.75392">
        <ele>575.9</ele>
        <time>2014-05-04T09:11:01.000Z</time>
      </trkpt>
      <trkpt lat="47.41282" lon="6.75389">
        <ele>575.5</ele>
        <time>2014-05-04T09:11:02.000Z</time>
      </trkpt>
      <trkpt lat="47.41281" lon="6.75385">
        <ele>575.1</ele>
        <time>2014-05-04T09:11:03.000Z</time>
      </trkpt>
      <trkpt lat="47.41281" lon="6.75382">
        <ele>574.8</ele>
        <time>2014-05-04T09:11:04.000Z</time>
      </trkpt>
      <trkpt lat="47.4128" lon="6.75378">
        <ele>574.1</ele>
        <time>2014-05-04T09:11:05.000Z</time>
      </trkpt>
      <trkpt lat="47.4128" lon="6.75374">
        <ele>574.2</ele>
        <time>2014-05-04T09:11:06.000Z</time>
      </trkpt>
      <trkpt lat="47.4128" lon="6.75371">
        <ele>573.8</ele>
        <time>2014-05-04T09:11:07.000Z</time>
      </trkpt>
      <trkpt lat="47.4128" lon="6.75367">
        <ele>573.1</ele>
        <time>2014-05-04T09:11:08.000Z</time>
      </trkpt>
      <trkpt lat="47.4128" lon="6.75362">
        <ele>572.6</ele>
        <time>2014-05-04T09:11:09.000Z</time>
      </trkpt>
      <trkpt lat="47.4128" lon="6.75357">
        <ele>572.4</ele>
        <time>2014-05-04T09:11:10.000Z</time>
      </trkpt>
      <trkpt lat="47.41279" lon="6.75351">
        <ele>572.3</ele>
        <time>2014-05-04T09:11:11.000Z</time>
      </trkpt>
      <trkpt lat="47.41279" lon="6.75346">
        <ele>571.5</ele>
        <time>2014-05-04T09:11:12.000Z</time>
      </trkpt>
      <trkpt lat="47.41279" lon="6.7534">
        <ele>571.2</ele>
        <time>2014-05-04T09:11:13.000Z</time>
      </trkpt>
      <trkpt lat="47.41279" lon="6.75334">
        <ele>571</ele>
        <time>2014-05-04T09:11:14.000Z</time>
      </trkpt>
      <trkpt lat="47.41279" lon="6.75328">
        <ele>571</ele>
        <time>2014-05-04T09:11:15.000Z</time>
      </trkpt>
      <trkpt lat="47.4128" lon="6.75323">
        <ele>571</ele>
        <time>2014-05-04T09:11:16.000Z</time>
      </trkpt>
      <trkpt lat="47.4128" lon="6.75318">
        <ele>569.6</ele>
        <time>2014-05-04T09:11:17.000Z</time>
      </trkpt>
      <trkpt lat="47.41281" lon="6.75313">
        <ele>569.4</ele>
        <time>2014-05-04T09:11:18.000Z</time>
      </trkpt>
      <trkpt lat="47.41282" lon="6.75308">
        <ele>568.8</ele>
        <time>2014-05-04T09:11:19.000Z</time>
      </trkpt>
      <trkpt lat="47.41282" lon="6.75303">
        <ele>568.8</ele>
        <time>2014-05-04T09:11:20.000Z</time>
      </trkpt>
      <trkpt lat="47.41282" lon="6.75298">
        <ele>568.6</ele>
        <time>2014-05-04T09:11:21.000Z</time>
      </trkpt>
      <trkpt lat="47.4128" lon="6.75294">
        <ele>568.4</ele>
        <time>2014-05-04T09:11:22.000Z</time>
      </trkpt>
      <trkpt lat="47.41279" lon="6.75289">
        <ele>568</ele>
        <time>2014-05-04T09:11:23.000Z</time>
      </trkpt>
      <trkpt lat="47.41277" lon="6.75284">
        <ele>568</ele>
        <time>2014-05-04T09:11:24.000Z</time>
      </trkpt>
      <trkpt lat="47.41275" lon="6.75279">
        <ele>568.2</ele>
        <time>2014-05-04T09:11:25.000Z</time>
      </trkpt>
      <trkpt lat="47.41273" lon="6.75274">
        <ele>568</ele>
        <time>2014-05-04T09:11:26.000Z</time>
      </trkpt>
      <trkpt lat="47.41271" lon="6.75269">
        <ele>567.9</ele>
        <time>2014-05-04T09:11:27.000Z</time>
      </trkpt>
      <trkpt lat="47.41269" lon="6.75264">
        <ele>567.4</ele>
        <time>2014-05-04T09:11:28.000Z</time>
      </trkpt>
      <trkpt lat="47.41267" lon="6.75258">
        <ele>567.1</ele>
        <time>2014-05-04T09:11:29.000Z</time>
      </trkpt>
      <trkpt lat="47.41266" lon="6.75253">
        <ele>566.6</ele>
        <time>2014-05-04T09:11:30.000Z</time>
      </trkpt>
      <trkpt lat="47.41264" lon="6.75247">
        <ele>565.8</ele>
        <time>2014-05-04T09:11:31.000Z</time>
      </trkpt>
      <trkpt lat="47.41263" lon="6.75242">
        <ele>566.1</ele>
        <time>2014-05-04T09:11:32.000Z</time>
      </trkpt>
      <trkpt lat="47.41262" lon="6.75236">
        <ele>566.8</ele>
        <time>2014-05-04T09:11:33.000Z</time>
      </trkpt>
      <trkpt lat="47.4126" lon="6.75231">
        <ele>567.1</ele>
        <time>2014-05-04T09:11:34.000Z</time>
      </trkpt>
      <trkpt lat="47.41258" lon="6.75226">
        <ele>566</ele>
        <time>2014-05-04T09:11:35.000Z</time>
      </trkpt>
      <trkpt lat="47.41256" lon="6.75221">
        <ele>565.5</ele>
        <time>2014-05-04T09:11:36.000Z</time>
      </trkpt>
      <trkpt lat="47.41254" lon="6.75216">
        <ele>566.1</ele>
        <time>2014-05-04T09:11:37.000Z</time>
      </trkpt>
      <trkpt lat="47.41254" lon="6.75211">
        <ele>565.9</ele>
        <time>2014-05-04T09:11:38.000Z</time>
      </trkpt>
      <trkpt lat="47.41255" lon="6.75207">
        <ele>565.7</ele>
        <time>2014-05-04T09:11:39.000Z</time>
      </trkpt>
      <trkpt lat="47.41257" lon="6.75203">
        <ele>565.5</ele>
        <time>2014-05-04T09:11:40.000Z</time>
      </trkpt>
      <trkpt lat="47.4126" lon="6.752">
        <ele>564.5</ele>
        <time>2014-05-04T09:11:41.000Z</time>
      </trkpt>
      <trkpt lat="47.41263" lon="6.75196">
        <ele>563.9</ele>
        <time>2014-05-04T09:11:42.000Z</time>
      </trkpt>
      <trkpt lat="47.41266" lon="6.75193">
        <ele>560.2</ele>
        <time>2014-05-04T09:11:43.000Z</time>
      </trkpt>
      <trkpt lat="47.41273" lon="6.75192">
        <ele>559.5</ele>
        <time>2014-05-04T09:11:44.000Z</time>
      </trkpt>
      <trkpt lat="47.41278" lon="6.75191">
        <ele>559.3</ele>
        <time>2014-05-04T09:11:45.000Z</time>
      </trkpt>
      <trkpt lat="47.41295" lon="6.75189">
        <ele>558.9</ele>
        <time>2014-05-04T09:11:48.000Z</time>
      </trkpt>
      <trkpt lat="47.413" lon="6.75187">
        <ele>559.5</ele>
        <time>2014-05-04T09:11:49.000Z</time>
      </trkpt>
      <trkpt lat="47.41305" lon="6.75183">
        <ele>561.1</ele>
        <time>2014-05-04T09:11:50.000Z</time>
      </trkpt>
      <trkpt lat="47.41309" lon="6.75181">
        <ele>562.2</ele>
        <time>2014-05-04T09:11:51.000Z</time>
      </trkpt>
      <trkpt lat="47.41312" lon="6.75178">
        <ele>563.2</ele>
        <time>2014-05-04T09:11:52.000Z</time>
      </trkpt>
      <trkpt lat="47.41319" lon="6.75178">
        <ele>561.6</ele>
        <time>2014-05-04T09:11:53.000Z</time>
      </trkpt>
      <trkpt lat="47.41325" lon="6.75176">
        <ele>561.5</ele>
        <time>2014-05-04T09:11:54.000Z</time>
      </trkpt>
      <trkpt lat="47.41329" lon="6.75173">
        <ele>563.3</ele>
        <time>2014-05-04T09:11:55.000Z</time>
      </trkpt>
      <trkpt lat="47.41334" lon="6.75172">
        <ele>564.7</ele>
        <time>2014-05-04T09:11:56.000Z</time>
      </trkpt>
      <trkpt lat="47.41338" lon="6.75172">
        <ele>565.3</ele>
        <time>2014-05-04T09:11:57.000Z</time>
      </trkpt>
      <trkpt lat="47.41345" lon="6.75176">
        <ele>564</ele>
        <time>2014-05-04T09:11:58.000Z</time>
      </trkpt>
      <trkpt lat="47.41348" lon="6.75174">
        <ele>564.7</ele>
        <time>2014-05-04T09:11:59.000Z</time>
      </trkpt>
      <trkpt lat="47.41349" lon="6.75171">
        <ele>567.4</ele>
        <time>2014-05-04T09:12:00.000Z</time>
      </trkpt>
      <trkpt lat="47.4135" lon="6.75166">
        <ele>573.3</ele>
        <time>2014-05-04T09:12:02.000Z</time>
      </trkpt>
      <trkpt lat="47.4136" lon="6.75167">
        <ele>572.4</ele>
        <time>2014-05-04T09:12:03.000Z</time>
      </trkpt>
      <trkpt lat="47.41367" lon="6.75167">
        <ele>572.6</ele>
        <time>2014-05-04T09:12:04.000Z</time>
      </trkpt>
      <trkpt lat="47.41375" lon="6.75166">
        <ele>573.4</ele>
        <time>2014-05-04T09:12:05.000Z</time>
      </trkpt>
      <trkpt lat="47.41382" lon="6.75168">
        <ele>572.2</ele>
        <time>2014-05-04T09:12:06.000Z</time>
      </trkpt>
      <trkpt lat="47.4139" lon="6.75168">
        <ele>571.3</ele>
        <time>2014-05-04T09:12:07.000Z</time>
      </trkpt>
      <trkpt lat="47.41397" lon="6.75166">
        <ele>568.2</ele>
        <time>2014-05-04T09:12:08.000Z</time>
      </trkpt>
      <trkpt lat="47.41406" lon="6.75169">
        <ele>568.3</ele>
        <time>2014-05-04T09:12:09.000Z</time>
      </trkpt>
      <trkpt lat="47.41415" lon="6.75169">
        <ele>566.7</ele>
        <time>2014-05-04T09:12:10.000Z</time>
      </trkpt>
      <trkpt lat="47.41423" lon="6.75169">
        <ele>566.1</ele>
        <time>2014-05-04T09:12:11.000Z</time>
      </trkpt>
      <trkpt lat="47.41431" lon="6.7517">
        <ele>563.7</ele>
        <time>2014-05-04T09:12:12.000Z</time>
      </trkpt>
      <trkpt lat="47.41439" lon="6.75171">
        <ele>562.3</ele>
        <time>2014-05-04T09:12:13.000Z</time>
      </trkpt>
      <trkpt lat="47.41448" lon="6.75171">
        <ele>560.6</ele>
        <time>2014-05-04T09:12:14.000Z</time>
      </trkpt>
      <trkpt lat="47.41457" lon="6.75169">
        <ele>559.1</ele>
        <time>2014-05-04T09:12:15.000Z</time>
      </trkpt>
      <trkpt lat="47.41467" lon="6.75168">
        <ele>559.8</ele>
        <time>2014-05-04T09:12:16.000Z</time>
      </trkpt>
      <trkpt lat="47.41475" lon="6.75168">
        <ele>559</ele>
        <time>2014-05-04T09:12:17.000Z</time>
      </trkpt>
      <trkpt lat="47.41485" lon="6.75167">
        <ele>556.7</ele>
        <time>2014-05-04T09:12:18.000Z</time>
      </trkpt>
      <trkpt lat="47.41495" lon="6.75166">
        <ele>556.7</ele>
        <time>2014-05-04T09:12:19.000Z</time>
      </trkpt>
      <trkpt lat="47.41505" lon="6.75165">
        <ele>555.5</ele>
        <time>2014-05-04T09:12:20.000Z</time>
      </trkpt>
      <trkpt lat="47.41513" lon="6.75164">
        <ele>554.5</ele>
        <time>2014-05-04T09:12:21.000Z</time>
      </trkpt>
      <trkpt lat="47.41521" lon="6.75162">
        <ele>554.4</ele>
        <time>2014-05-04T09:12:22.000Z</time>
      </trkpt>
      <trkpt lat="47.4153" lon="6.75162">
        <ele>554.4</ele>
        <time>2014-05-04T09:12:23.000Z</time>
      </trkpt>
      <trkpt lat="47.41537" lon="6.7516">
        <ele>554.5</ele>
        <time>2014-05-04T09:12:24.000Z</time>
      </trkpt>
      <trkpt lat="47.41545" lon="6.75159">
        <ele>553.9</ele>
        <time>2014-05-04T09:12:25.000Z</time>
      </trkpt>
      <trkpt lat="47.41553" lon="6.75156">
        <ele>554.5</ele>
        <time>2014-05-04T09:12:26.000Z</time>
      </trkpt>
      <trkpt lat="47.4156" lon="6.75155">
        <ele>554.6</ele>
        <time>2014-05-04T09:12:27.000Z</time>
      </trkpt>
      <trkpt lat="47.41566" lon="6.75152">
        <ele>555.6</ele>
        <time>2014-05-04T09:12:28.000Z</time>
      </trkpt>
      <trkpt lat="47.41572" lon="6.75151">
        <ele>556.3</ele>
        <time>2014-05-04T09:12:29.000Z</time>
      </trkpt>
      <trkpt lat="47.41577" lon="6.75147">
        <ele>556.6</ele>
        <time>2014-05-04T09:12:30.000Z</time>
      </trkpt>
      <trkpt lat="47.41581" lon="6.75143">
        <ele>557</ele>
        <time>2014-05-04T09:12:31.000Z</time>
      </trkpt>
      <trkpt lat="47.41581" lon="6.75138">
        <ele>557.5</ele>
        <time>2014-05-04T09:12:32.000Z</time>
      </trkpt>
      <trkpt lat="47.41581" lon="6.75134">
        <ele>558.3</ele>
        <time>2014-05-04T09:12:33.000Z</time>
      </trkpt>
      <trkpt lat="47.41579" lon="6.75128">
        <ele>557.7</ele>
        <time>2014-05-04T09:12:55.000Z</time>
      </trkpt>
      <trkpt lat="47.41578" lon="6.75128">
        <ele>556.6</ele>
        <time>2014-05-04T09:12:56.000Z</time>
      </trkpt>
      <trkpt lat="47.41578" lon="6.75121">
        <ele>550.3</ele>
        <time>2014-05-04T09:13:10.000Z</time>
      </trkpt>
      <trkpt lat="47.41579" lon="6.7512">
        <ele>549.3</ele>
        <time>2014-05-04T09:13:11.000Z</time>
      </trkpt>
      <trkpt lat="47.41579" lon="6.75115">
        <ele>544.3</ele>
        <time>2014-05-04T09:13:45.000Z</time>
      </trkpt>
      <trkpt lat="47.41589" lon="6.75109">
        <ele>542.8</ele>
        <time>2014-05-04T09:13:53.000Z</time>
      </trkpt>
      <trkpt lat="47.41591" lon="6.75106">
        <ele>543.5</ele>
        <time>2014-05-04T09:13:54.000Z</time>
      </trkpt>
      <trkpt lat="47.41594" lon="6.75101">
        <ele>542.9</ele>
        <time>2014-05-04T09:13:55.000Z</time>
      </trkpt>
      <trkpt lat="47.41597" lon="6.75097">
        <ele>542.5</ele>
        <time>2014-05-04T09:13:56.000Z</time>
      </trkpt>
      <trkpt lat="47.41599" lon="6.75093">
        <ele>544</ele>
        <time>2014-05-04T09:13:57.000Z</time>
      </trkpt>
      <trkpt lat="47.41602" lon="6.75089">
        <ele>543.9</ele>
        <time>2014-05-04T09:13:58.000Z</time>
      </trkpt>
      <trkpt lat="47.41604" lon="6.75085">
        <ele>544.8</ele>
        <time>2014-05-04T09:13:59.000Z</time>
      </trkpt>
      <trkpt lat="47.41606" lon="6.75081">
        <ele>545.6</ele>
        <time>2014-05-04T09:14:00.000Z</time>
      </trkpt>
      <trkpt lat="47.41608" lon="6.75078">
        <ele>544.8</ele>
        <time>2014-05-04T09:14:01.000Z</time>
      </trkpt>
      <trkpt lat="47.4161" lon="6.75073">
        <ele>545.5</ele>
        <time>2014-05-04T09:14:02.000Z</time>
      </trkpt>
      <trkpt lat="47.41612" lon="6.75069">
        <ele>545.8</ele>
        <time>2014-05-04T09:14:03.000Z</time>
      </trkpt>
      <trkpt lat="47.41614" lon="6.75064">
        <ele>545.8</ele>
        <time>2014-05-04T09:14:04.000Z</time>
      </trkpt>
      <trkpt lat="47.41615" lon="6.75059">
        <ele>547.1</ele>
        <time>2014-05-04T09:14:05.000Z</time>
      </trkpt>
      <trkpt lat="47.41617" lon="6.75054">
        <ele>547.9</ele>
        <time>2014-05-04T09:14:06.000Z</time>
      </trkpt>
      <trkpt lat="47.41619" lon="6.7505">
        <ele>548</ele>
        <time>2014-05-04T09:14:07.000Z</time>
      </trkpt>
      <trkpt lat="47.4162" lon="6.75045">
        <ele>548.4</ele>
        <time>2014-05-04T09:14:08.000Z</time>
      </trkpt>
      <trkpt lat="47.41622" lon="6.75041">
        <ele>548.2</ele>
        <time>2014-05-04T09:14:09.000Z</time>
      </trkpt>
      <trkpt lat="47.41623" lon="6.75036">
        <ele>547.4</ele>
        <time>2014-05-04T09:14:10.000Z</time>
      </trkpt>
      <trkpt lat="47.41625" lon="6.75031">
        <ele>547</ele>
        <time>2014-05-04T09:14:11.000Z</time>
      </trkpt>
      <trkpt lat="47.41627" lon="6.75026">
        <ele>546</ele>
        <time>2014-05-04T09:14:12.000Z</time>
      </trkpt>
      <trkpt lat="47.41629" lon="6.75022">
        <ele>545.5</ele>
        <time>2014-05-04T09:14:13.000Z</time>
      </trkpt>
      <trkpt lat="47.41631" lon="6.75018">
        <ele>546.1</ele>
        <time>2014-05-04T09:14:14.000Z</time>
      </trkpt>
      <trkpt lat="47.41632" lon="6.75015">
        <ele>546.4</ele>
        <time>2014-05-04T09:14:15.000Z</time>
      </trkpt>
      <trkpt lat="47.41634" lon="6.75011">
        <ele>546.6</ele>
        <time>2014-05-04T09:14:16.000Z</time>
      </trkpt>
      <trkpt lat="47.41636" lon="6.75007">
        <ele>547.1</ele>
        <time>2014-05-04T09:14:17.000Z</time>
      </trkpt>
      <trkpt lat="47.41638" lon="6.75002">
        <ele>546.6</ele>
        <time>2014-05-04T09:14:18.000Z</time>
      </trkpt>
      <trkpt lat="47.41639" lon="6.74997">
        <ele>545.3</ele>
        <time>2014-05-04T09:14:19.000Z</time>
      </trkpt>
      <trkpt lat="47.4164" lon="6.74992">
        <ele>545.2</ele>
        <time>2014-05-04T09:14:20.000Z</time>
      </trkpt>
      <trkpt lat="47.41641" lon="6.74987">
        <ele>545.6</ele>
        <time>2014-05-04T09:14:21.000Z</time>
      </trkpt>
      <trkpt lat="47.41643" lon="6.74981">
        <ele>543.9</ele>
        <time>2014-05-04T09:14:22.000Z</time>
      </trkpt>
      <trkpt lat="47.41644" lon="6.74976">
        <ele>542.8</ele>
        <time>2014-05-04T09:14:23.000Z</time>
      </trkpt>
      <trkpt lat="47.41646" lon="6.7497">
        <ele>543.5</ele>
        <time>2014-05-04T09:14:24.000Z</time>
      </trkpt>
      <trkpt lat="47.41648" lon="6.74965">
        <ele>542.8</ele>
        <time>2014-05-04T09:14:25.000Z</time>
      </trkpt>
      <trkpt lat="47.41649" lon="6.74959">
        <ele>542.8</ele>
        <time>2014-05-04T09:14:26.000Z</time>
      </trkpt>
      <trkpt lat="47.4165" lon="6.74953">
        <ele>541.9</ele>
        <time>2014-05-04T09:14:27.000Z</time>
      </trkpt>
      <trkpt lat="47.41651" lon="6.74947">
        <ele>540.7</ele>
        <time>2014-05-04T09:14:28.000Z</time>
      </trkpt>
      <trkpt lat="47.41652" lon="6.74941">
        <ele>540.6</ele>
        <time>2014-05-04T09:14:29.000Z</time>
      </trkpt>
      <trkpt lat="47.41653" lon="6.74935">
        <ele>540.9</ele>
        <time>2014-05-04T09:14:30.000Z</time>
      </trkpt>
      <trkpt lat="47.41655" lon="6.74926">
        <ele>541.3</ele>
        <time>2014-05-04T09:14:31.000Z</time>
      </trkpt>
      <trkpt lat="47.41657" lon="6.7492">
        <ele>541.2</ele>
        <time>2014-05-04T09:14:32.000Z</time>
      </trkpt>
      <trkpt lat="47.41659" lon="6.74914">
        <ele>541.9</ele>
        <time>2014-05-04T09:14:33.000Z</time>
      </trkpt>
      <trkpt lat="47.4166" lon="6.74908">
        <ele>541.5</ele>
        <time>2014-05-04T09:14:34.000Z</time>
      </trkpt>
      <trkpt lat="47.41662" lon="6.74902">
        <ele>541.9</ele>
        <time>2014-05-04T09:14:35.000Z</time>
      </trkpt>
      <trkpt lat="47.41663" lon="6.74896">
        <ele>542.2</ele>
        <time>2014-05-04T09:14:36.000Z</time>
      </trkpt>
      <trkpt lat="47.41665" lon="6.74891">
        <ele>541.4</ele>
        <time>2014-05-04T09:14:37.000Z</time>
      </trkpt>
      <trkpt lat="47.41666" lon="6.74886">
        <ele>542.3</ele>
        <time>2014-05-04T09:14:38.000Z</time>
      </trkpt>
      <trkpt lat="47.41667" lon="6.7488">
        <ele>542.9</ele>
        <time>2014-05-04T09:14:39.000Z</time>
      </trkpt>
      <trkpt lat="47.41669" lon="6.74874">
        <ele>542.4</ele>
        <time>2014-05-04T09:14:40.000Z</time>
      </trkpt>
      <trkpt lat="47.4167" lon="6.74867">
        <ele>541.4</ele>
        <time>2014-05-04T09:14:41.000Z</time>
      </trkpt>
      <trkpt lat="47.41671" lon="6.74861">
        <ele>541.4</ele>
        <time>2014-05-04T09:14:42.000Z</time>
      </trkpt>
      <trkpt lat="47.41671" lon="6.74854">
        <ele>541.3</ele>
        <time>2014-05-04T09:14:43.000Z</time>
      </trkpt>
      <trkpt lat="47.41676" lon="6.74797">
        <ele>539.1</ele>
        <time>2014-05-04T09:14:51.000Z</time>
      </trkpt>
      <trkpt lat="47.41677" lon="6.74789">
        <ele>538.8</ele>
        <time>2014-05-04T09:14:52.000Z</time>
      </trkpt>
      <trkpt lat="47.41678" lon="6.74781">
        <ele>538.6</ele>
        <time>2014-05-04T09:14:53.000Z</time>
      </trkpt>
      <trkpt lat="47.41679" lon="6.74775">
        <ele>538.9</ele>
        <time>2014-05-04T09:14:54.000Z</time>
      </trkpt>
      <trkpt lat="47.4168" lon="6.74769">
        <ele>538</ele>
        <time>2014-05-04T09:14:55.000Z</time>
      </trkpt>
      <trkpt lat="47.4168" lon="6.74763">
        <ele>537.8</ele>
        <time>2014-05-04T09:14:56.000Z</time>
      </trkpt>
      <trkpt lat="47.4168" lon="6.74757">
        <ele>537.7</ele>
        <time>2014-05-04T09:14:57.000Z</time>
      </trkpt>
      <trkpt lat="47.4168" lon="6.7475">
        <ele>537.2</ele>
        <time>2014-05-04T09:14:58.000Z</time>
      </trkpt>
      <trkpt lat="47.4168" lon="6.74743">
        <ele>535.8</ele>
        <time>2014-05-04T09:14:59.000Z</time>
      </trkpt>
      <trkpt lat="47.4168" lon="6.74737">
        <ele>535.7</ele>
        <time>2014-05-04T09:15:00.000Z</time>
      </trkpt>
      <trkpt lat="47.4168" lon="6.7473">
        <ele>535.8</ele>
        <time>2014-05-04T09:15:01.000Z</time>
      </trkpt>
      <trkpt lat="47.41681" lon="6.74722">
        <ele>536.1</ele>
        <time>2014-05-04T09:15:02.000Z</time>
      </trkpt>
      <trkpt lat="47.41682" lon="6.74716">
        <ele>535.8</ele>
        <time>2014-05-04T09:15:03.000Z</time>
      </trkpt>
      <trkpt lat="47.41683" lon="6.7471">
        <ele>535.5</ele>
        <time>2014-05-04T09:15:04.000Z</time>
      </trkpt>
      <trkpt lat="47.41683" lon="6.74703">
        <ele>534.5</ele>
        <time>2014-05-04T09:15:05.000Z</time>
      </trkpt>
      <trkpt lat="47.41683" lon="6.74696">
        <ele>534.6</ele>
        <time>2014-05-04T09:15:06.000Z</time>
      </trkpt>
      <trkpt lat="47.41684" lon="6.74691">
        <ele>534.3</ele>
        <time>2014-05-04T09:15:07.000Z</time>
      </trkpt>
      <trkpt lat="47.41685" lon="6.74684">
        <ele>534.2</ele>
        <time>2014-05-04T09:15:08.000Z</time>
      </trkpt>
      <trkpt lat="47.41685" lon="6.74677">
        <ele>534.4</ele>
        <time>2014-05-04T09:15:09.000Z</time>
      </trkpt>
      <trkpt lat="47.41686" lon="6.74671">
        <ele>533.4</ele>
        <time>2014-05-04T09:15:10.000Z</time>
      </trkpt>
      <trkpt lat="47.41686" lon="6.74668">
        <ele>533.3</ele>
        <time>2014-05-04T09:15:11.000Z</time>
      </trkpt>
      <trkpt lat="47.41687" lon="6.74664">
        <ele>533.3</ele>
        <time>2014-05-04T09:15:12.000Z</time>
      </trkpt>
      <trkpt lat="47.41688" lon="6.74658">
        <ele>533.7</ele>
        <time>2014-05-04T09:15:14.000Z</time>
      </trkpt>
      <trkpt lat="47.41688" lon="6.74657">
        <ele>533.6</ele>
        <time>2014-05-04T09:15:15.000Z</time>
      </trkpt>
      <trkpt lat="47.41686" lon="6.74652">
        <ele>534.3</ele>
        <time>2014-05-04T09:15:21.000Z</time>
      </trkpt>
      <trkpt lat="47.41686" lon="6.74651">
        <ele>534.3</ele>
        <time>2014-05-04T09:15:22.000Z</time>
      </trkpt>
      <trkpt lat="47.41686" lon="6.74645">
        <ele>536.4</ele>
        <time>2014-05-04T09:15:43.000Z</time>
      </trkpt>
      <trkpt lat="47.41686" lon="6.7464">
        <ele>538.5</ele>
        <time>2014-05-04T09:15:51.000Z</time>
      </trkpt>
      <trkpt lat="47.41686" lon="6.74634">
        <ele>537.5</ele>
        <time>2014-05-04T09:15:53.000Z</time>
      </trkpt>
      <trkpt lat="47.41686" lon="6.7463">
        <ele>536.8</ele>
        <time>2014-05-04T09:15:54.000Z</time>
      </trkpt>
      <trkpt lat="47.41685" lon="6.74624">
        <ele>535.2</ele>
        <time>2014-05-04T09:15:56.001Z</time>
      </trkpt>
      <trkpt lat="47.41685" lon="6.7462">
        <ele>537.9</ele>
        <time>2014-05-04T09:15:57.000Z</time>
      </trkpt>
      <trkpt lat="47.41685" lon="6.74616">
        <ele>538.1</ele>
        <time>2014-05-04T09:15:58.000Z</time>
      </trkpt>
      <trkpt lat="47.41685" lon="6.74612">
        <ele>538.6</ele>
        <time>2014-05-04T09:15:59.000Z</time>
      </trkpt>
      <trkpt lat="47.41684" lon="6.74608">
        <ele>539.2</ele>
        <time>2014-05-04T09:16:00.000Z</time>
      </trkpt>
      <trkpt lat="47.41684" lon="6.74603">
        <ele>538.6</ele>
        <time>2014-05-04T09:16:01.000Z</time>
      </trkpt>
      <trkpt lat="47.41684" lon="6.74598">
        <ele>538.6</ele>
        <time>2014-05-04T09:16:02.000Z</time>
      </trkpt>
      <trkpt lat="47.41683" lon="6.74592">
        <ele>538.5</ele>
        <time>2014-05-04T09:16:03.000Z</time>
      </trkpt>
      <trkpt lat="47.41683" lon="6.74586">
        <ele>538</ele>
        <time>2014-05-04T09:16:04.000Z</time>
      </trkpt>
      <trkpt lat="47.41682" lon="6.7458">
        <ele>539</ele>
        <time>2014-05-04T09:16:05.000Z</time>
      </trkpt>
      <trkpt lat="47.41682" lon="6.74569">
        <ele>539</ele>
        <time>2014-05-04T09:16:06.000Z</time>
      </trkpt>
      <trkpt lat="47.41682" lon="6.7456">
        <ele>538</ele>
        <time>2014-05-04T09:16:07.000Z</time>
      </trkpt>
      <trkpt lat="47.41682" lon="6.74552">
        <ele>536.8</ele>
        <time>2014-05-04T09:16:08.000Z</time>
      </trkpt>
      <trkpt lat="47.41683" lon="6.74546">
        <ele>536.7</ele>
        <time>2014-05-04T09:16:09.000Z</time>
      </trkpt>
      <trkpt lat="47.41683" lon="6.74538">
        <ele>535.6</ele>
        <time>2014-05-04T09:16:10.000Z</time>
      </trkpt>
      <trkpt lat="47.41683" lon="6.74531">
        <ele>535</ele>
        <time>2014-05-04T09:16:11.000Z</time>
      </trkpt>
      <trkpt lat="47.41683" lon="6.74523">
        <ele>534.8</ele>
        <time>2014-05-04T09:16:12.000Z</time>
      </trkpt>
      <trkpt lat="47.41683" lon="6.74516">
        <ele>534.1</ele>
        <time>2014-05-04T09:16:13.000Z</time>
      </trkpt>
      <trkpt lat="47.41682" lon="6.74509">
        <ele>534.5</ele>
        <time>2014-05-04T09:16:14.000Z</time>
      </trkpt>
      <trkpt lat="47.41682" lon="6.745">
        <ele>534.8</ele>
        <time>2014-05-04T09:16:15.000Z</time>
      </trkpt>
      <trkpt lat="47.41682" lon="6.74491">
        <ele>534.2</ele>
        <time>2014-05-04T09:16:16.000Z</time>
      </trkpt>
      <trkpt lat="47.41683" lon="6.74483">
        <ele>534.5</ele>
        <time>2014-05-04T09:16:17.000Z</time>
      </trkpt>
      <trkpt lat="47.41682" lon="6.74474">
        <ele>534.7</ele>
        <time>2014-05-04T09:16:18.000Z</time>
      </trkpt>
      <trkpt lat="47.41681" lon="6.74466">
        <ele>534.6</ele>
        <time>2014-05-04T09:16:19.000Z</time>
      </trkpt>
      <trkpt lat="47.41682" lon="6.7446">
        <ele>534.8</ele>
        <time>2014-05-04T09:16:20.000Z</time>
      </trkpt>
      <trkpt lat="47.41682" lon="6.74452">
        <ele>535.4</ele>
        <time>2014-05-04T09:16:21.000Z</time>
      </trkpt>
      <trkpt lat="47.41682" lon="6.74445">
        <ele>535.1</ele>
        <time>2014-05-04T09:16:22.000Z</time>
      </trkpt>
      <trkpt lat="47.41683" lon="6.74437">
        <ele>534.3</ele>
        <time>2014-05-04T09:16:23.000Z</time>
      </trkpt>
      <trkpt lat="47.41684" lon="6.74431">
        <ele>534.2</ele>
        <time>2014-05-04T09:16:24.000Z</time>
      </trkpt>
      <trkpt lat="47.41684" lon="6.74423">
        <ele>533.2</ele>
        <time>2014-05-04T09:16:25.000Z</time>
      </trkpt>
      <trkpt lat="47.41685" lon="6.74414">
        <ele>531.5</ele>
        <time>2014-05-04T09:16:26.000Z</time>
      </trkpt>
      <trkpt lat="47.41684" lon="6.74408">
        <ele>532.1</ele>
        <time>2014-05-04T09:16:27.000Z</time>
      </trkpt>
      <trkpt lat="47.41683" lon="6.74399">
        <ele>531.2</ele>
        <time>2014-05-04T09:16:28.000Z</time>
      </trkpt>
      <trkpt lat="47.41684" lon="6.74393">
        <ele>530.1</ele>
        <time>2014-05-04T09:16:29.000Z</time>
      </trkpt>
      <trkpt lat="47.41684" lon="6.74385">
        <ele>529.7</ele>
        <time>2014-05-04T09:16:30.000Z</time>
      </trkpt>
      <trkpt lat="47.41685" lon="6.74379">
        <ele>527.6</ele>
        <time>2014-05-04T09:16:31.000Z</time>
      </trkpt>
      <trkpt lat="47.41686" lon="6.7437">
        <ele>526.7</ele>
        <time>2014-05-04T09:16:32.000Z</time>
      </trkpt>
      <trkpt lat="47.41687" lon="6.74363">
        <ele>526.9</ele>
        <time>2014-05-04T09:16:33.000Z</time>
      </trkpt>
      <trkpt lat="47.41688" lon="6.74355">
        <ele>526.6</ele>
        <time>2014-05-04T09:16:34.000Z</time>
      </trkpt>
      <trkpt lat="47.41688" lon="6.74348">
        <ele>526.2</ele>
        <time>2014-05-04T09:16:35.000Z</time>
      </trkpt>
      <trkpt lat="47.41688" lon="6.74341">
        <ele>524.7</ele>
        <time>2014-05-04T09:16:36.000Z</time>
      </trkpt>
      <trkpt lat="47.4169" lon="6.74333">
        <ele>523.8</ele>
        <time>2014-05-04T09:16:37.000Z</time>
      </trkpt>
      <trkpt lat="47.41691" lon="6.74325">
        <ele>523.3</ele>
        <time>2014-05-04T09:16:38.000Z</time>
      </trkpt>
      <trkpt lat="47.41691" lon="6.74317">
        <ele>522.3</ele>
        <time>2014-05-04T09:16:39.000Z</time>
      </trkpt>
      <trkpt lat="47.41692" lon="6.74311">
        <ele>521.7</ele>
        <time>2014-05-04T09:16:40.000Z</time>
      </trkpt>
      <trkpt lat="47.41693" lon="6.74303">
        <ele>521.1</ele>
        <time>2014-05-04T09:16:41.000Z</time>
      </trkpt>
      <trkpt lat="47.41695" lon="6.74296">
        <ele>520.5</ele>
        <time>2014-05-04T09:16:42.000Z</time>
      </trkpt>
      <trkpt lat="47.41698" lon="6.74288">
        <ele>519.6</ele>
        <time>2014-05-04T09:16:43.000Z</time>
      </trkpt>
      <trkpt lat="47.41718" lon="6.74237">
        <ele>517.2</ele>
        <time>2014-05-04T09:16:51.000Z</time>
      </trkpt>
      <trkpt lat="47.41721" lon="6.74229">
        <ele>516.4</ele>
        <time>2014-05-04T09:16:52.000Z</time>
      </trkpt>
      <trkpt lat="47.41725" lon="6.74219">
        <ele>514.2</ele>
        <time>2014-05-04T09:16:53.000Z</time>
      </trkpt>
      <trkpt lat="47.41727" lon="6.74211">
        <ele>513.3</ele>
        <time>2014-05-04T09:16:54.000Z</time>
      </trkpt>
      <trkpt lat="47.4173" lon="6.74204">
        <ele>512.8</ele>
        <time>2014-05-04T09:16:55.000Z</time>
      </trkpt>
      <trkpt lat="47.41733" lon="6.74198">
        <ele>512.7</ele>
        <time>2014-05-04T09:16:56.000Z</time>
      </trkpt>
      <trkpt lat="47.41736" lon="6.74191">
        <ele>512.1</ele>
        <time>2014-05-04T09:16:57.000Z</time>
      </trkpt>
      <trkpt lat="47.4174" lon="6.74184">
        <ele>511.4</ele>
        <time>2014-05-04T09:16:58.000Z</time>
      </trkpt>
      <trkpt lat="47.41743" lon="6.74177">
        <ele>510.8</ele>
        <time>2014-05-04T09:16:59.000Z</time>
      </trkpt>
      <trkpt lat="47.41745" lon="6.74168">
        <ele>511.3</ele>
        <time>2014-05-04T09:17:00.000Z</time>
      </trkpt>
      <trkpt lat="47.41747" lon="6.74162">
        <ele>513</ele>
        <time>2014-05-04T09:17:01.000Z</time>
      </trkpt>
      <trkpt lat="47.41749" lon="6.74157">
        <ele>513.6</ele>
        <time>2014-05-04T09:17:02.000Z</time>
      </trkpt>
      <trkpt lat="47.4175" lon="6.74149">
        <ele>514.2</ele>
        <time>2014-05-04T09:17:03.000Z</time>
      </trkpt>
      <trkpt lat="47.41756" lon="6.74143">
        <ele>511.8</ele>
        <time>2014-05-04T09:17:04.000Z</time>
      </trkpt>
      <trkpt lat="47.4176" lon="6.74135">
        <ele>511.1</ele>
        <time>2014-05-04T09:17:05.000Z</time>
      </trkpt>
      <trkpt lat="47.41764" lon="6.74126">
        <ele>509.3</ele>
        <time>2014-05-04T09:17:06.000Z</time>
      </trkpt>
      <trkpt lat="47.41767" lon="6.74119">
        <ele>508.1</ele>
        <time>2014-05-04T09:17:07.000Z</time>
      </trkpt>
      <trkpt lat="47.41769" lon="6.74112">
        <ele>507.7</ele>
        <time>2014-05-04T09:17:08.000Z</time>
      </trkpt>
      <trkpt lat="47.41773" lon="6.74105">
        <ele>507.5</ele>
        <time>2014-05-04T09:17:09.000Z</time>
      </trkpt>
      <trkpt lat="47.41777" lon="6.74097">
        <ele>505.8</ele>
        <time>2014-05-04T09:17:10.000Z</time>
      </trkpt>
      <trkpt lat="47.4178" lon="6.74089">
        <ele>505.3</ele>
        <time>2014-05-04T09:17:11.000Z</time>
      </trkpt>
      <trkpt lat="47.41784" lon="6.74082">
        <ele>504.5</ele>
        <time>2014-05-04T09:17:12.000Z</time>
      </trkpt>
      <trkpt lat="47.41787" lon="6.74075">
        <ele>504</ele>
        <time>2014-05-04T09:17:13.000Z</time>
      </trkpt>
      <trkpt lat="47.41789" lon="6.74069">
        <ele>504.1</ele>
        <time>2014-05-04T09:17:14.000Z</time>
      </trkpt>
      <trkpt lat="47.41794" lon="6.74064">
        <ele>503.2</ele>
        <time>2014-05-04T09:17:15.000Z</time>
      </trkpt>
      <trkpt lat="47.41798" lon="6.74059">
        <ele>502.5</ele>
        <time>2014-05-04T09:17:16.000Z</time>
      </trkpt>
      <trkpt lat="47.41804" lon="6.74054">
        <ele>501.2</ele>
        <time>2014-05-04T09:17:17.000Z</time>
      </trkpt>
      <trkpt lat="47.41808" lon="6.7405">
        <ele>500.6</ele>
        <time>2014-05-04T09:17:18.000Z</time>
      </trkpt>
      <trkpt lat="47.41815" lon="6.74048">
        <ele>499.1</ele>
        <time>2014-05-04T09:17:19.000Z</time>
      </trkpt>
      <trkpt lat="47.41821" lon="6.74047">
        <ele>499.7</ele>
        <time>2014-05-04T09:17:20.000Z</time>
      </trkpt>
      <trkpt lat="47.41828" lon="6.74046">
        <ele>497.8</ele>
        <time>2014-05-04T09:17:21.000Z</time>
      </trkpt>
      <trkpt lat="47.41833" lon="6.74046">
        <ele>497.6</ele>
        <time>2014-05-04T09:17:22.000Z</time>
      </trkpt>
      <trkpt lat="47.41836" lon="6.7405">
        <ele>497.4</ele>
        <time>2014-05-04T09:17:23.000Z</time>
      </trkpt>
      <trkpt lat="47.41839" lon="6.74052">
        <ele>495.3</ele>
        <time>2014-05-04T09:17:24.000Z</time>
      </trkpt>
      <trkpt lat="47.41843" lon="6.74055">
        <ele>494.2</ele>
        <time>2014-05-04T09:17:25.000Z</time>
      </trkpt>
      <trkpt lat="47.41845" lon="6.74058">
        <ele>495</ele>
        <time>2014-05-04T09:17:26.000Z</time>
      </trkpt>
      <trkpt lat="47.41847" lon="6.74063">
        <ele>495.5</ele>
        <time>2014-05-04T09:17:27.000Z</time>
      </trkpt>
      <trkpt lat="47.41849" lon="6.74066">
        <ele>495.4</ele>
        <time>2014-05-04T09:17:28.000Z</time>
      </trkpt>
      <trkpt lat="47.41852" lon="6.74069">
        <ele>496.4</ele>
        <time>2014-05-04T09:17:29.000Z</time>
      </trkpt>
      <trkpt lat="47.41853" lon="6.74073">
        <ele>495.7</ele>
        <time>2014-05-04T09:17:30.000Z</time>
      </trkpt>
      <trkpt lat="47.41854" lon="6.74077">
        <ele>495.6</ele>
        <time>2014-05-04T09:17:31.000Z</time>
      </trkpt>
      <trkpt lat="47.41855" lon="6.74081">
        <ele>495.9</ele>
        <time>2014-05-04T09:17:32.000Z</time>
      </trkpt>
      <trkpt lat="47.41857" lon="6.74085">
        <ele>497.1</ele>
        <time>2014-05-04T09:17:33.000Z</time>
      </trkpt>
      <trkpt lat="47.41858" lon="6.74089">
        <ele>494.9</ele>
        <time>2014-05-04T09:17:34.000Z</time>
      </trkpt>
      <trkpt lat="47.4186" lon="6.74093">
        <ele>495.6</ele>
        <time>2014-05-04T09:17:35.000Z</time>
      </trkpt>
      <trkpt lat="47.41862" lon="6.74097">
        <ele>494.5</ele>
        <time>2014-05-04T09:17:36.000Z</time>
      </trkpt>
      <trkpt lat="47.41863" lon="6.74101">
        <ele>493.2</ele>
        <time>2014-05-04T09:17:37.000Z</time>
      </trkpt>
      <trkpt lat="47.41864" lon="6.74105">
        <ele>490.9</ele>
        <time>2014-05-04T09:17:38.000Z</time>
      </trkpt>
      <trkpt lat="47.41865" lon="6.74109">
        <ele>489.6</ele>
        <time>2014-05-04T09:17:39.000Z</time>
      </trkpt>
      <trkpt lat="47.41865" lon="6.74113">
        <ele>490.7</ele>
        <time>2014-05-04T09:17:40.000Z</time>
      </trkpt>
      <trkpt lat="47.41865" lon="6.74118">
        <ele>491.2</ele>
        <time>2014-05-04T09:17:41.000Z</time>
      </trkpt>
      <trkpt lat="47.41865" lon="6.74122">
        <ele>491.4</ele>
        <time>2014-05-04T09:17:42.000Z</time>
      </trkpt>
      <trkpt lat="47.41865" lon="6.74127">
        <ele>491.1</ele>
        <time>2014-05-04T09:17:43.000Z</time>
      </trkpt>
      <trkpt lat="47.41872" lon="6.74162">
        <ele>493.5</ele>
        <time>2014-05-04T09:17:51.000Z</time>
      </trkpt>
      <trkpt lat="47.41873" lon="6.74166">
        <ele>494</ele>
        <time>2014-05-04T09:17:52.000Z</time>
      </trkpt>
      <trkpt lat="47.41874" lon="6.7417">
        <ele>493.7</ele>
        <time>2014-05-04T09:17:53.000Z</time>
      </trkpt>
      <trkpt lat="47.41876" lon="6.74175">
        <ele>494.7</ele>
        <time>2014-05-04T09:17:54.000Z</time>
      </trkpt>
      <trkpt lat="47.41877" lon="6.74179">
        <ele>495.6</ele>
        <time>2014-05-04T09:17:55.000Z</time>
      </trkpt>
      <trkpt lat="47.41878" lon="6.74184">
        <ele>496.6</ele>
        <time>2014-05-04T09:17:56.000Z</time>
      </trkpt>
      <trkpt lat="47.41879" lon="6.74188">
        <ele>500.3</ele>
        <time>2014-05-04T09:17:57.000Z</time>
      </trkpt>
      <trkpt lat="47.4188" lon="6.74192">
        <ele>500.6</ele>
        <time>2014-05-04T09:17:58.000Z</time>
      </trkpt>
      <trkpt lat="47.41881" lon="6.74196">
        <ele>500.2</ele>
        <time>2014-05-04T09:17:59.000Z</time>
      </trkpt>
      <trkpt lat="47.41882" lon="6.74199">
        <ele>499.4</ele>
        <time>2014-05-04T09:18:00.000Z</time>
      </trkpt>
      <trkpt lat="47.41884" lon="6.74203">
        <ele>498.3</ele>
        <time>2014-05-04T09:18:01.000Z</time>
      </trkpt>
      <trkpt lat="47.41886" lon="6.74208">
        <ele>499</ele>
        <time>2014-05-04T09:18:02.000Z</time>
      </trkpt>
      <trkpt lat="47.41888" lon="6.74213">
        <ele>498.9</ele>
        <time>2014-05-04T09:18:03.000Z</time>
      </trkpt>
      <trkpt lat="47.4189" lon="6.74218">
        <ele>499.1</ele>
        <time>2014-05-04T09:18:04.000Z</time>
      </trkpt>
      <trkpt lat="47.41891" lon="6.74223">
        <ele>498.6</ele>
        <time>2014-05-04T09:18:05.000Z</time>
      </trkpt>
      <trkpt lat="47.41892" lon="6.74227">
        <ele>498.1</ele>
        <time>2014-05-04T09:18:06.000Z</time>
      </trkpt>
      <trkpt lat="47.41893" lon="6.74232">
        <ele>498.1</ele>
        <time>2014-05-04T09:18:07.000Z</time>
      </trkpt>
      <trkpt lat="47.41893" lon="6.74236">
        <ele>497.4</ele>
        <time>2014-05-04T09:18:08.000Z</time>
      </trkpt>
      <trkpt lat="47.41893" lon="6.7424">
        <ele>496.7</ele>
        <time>2014-05-04T09:18:09.000Z</time>
      </trkpt>
      <trkpt lat="47.41893" lon="6.74244">
        <ele>496.8</ele>
        <time>2014-05-04T09:18:10.000Z</time>
      </trkpt>
      <trkpt lat="47.41893" lon="6.74248">
        <ele>497.2</ele>
        <time>2014-05-04T09:18:11.000Z</time>
      </trkpt>
      <trkpt lat="47.41894" lon="6.74251">
        <ele>496.8</ele>
        <time>2014-05-04T09:18:12.000Z</time>
      </trkpt>
      <trkpt lat="47.41894" lon="6.74255">
        <ele>496.3</ele>
        <time>2014-05-04T09:18:13.000Z</time>
      </trkpt>
      <trkpt lat="47.41894" lon="6.74258">
        <ele>495.6</ele>
        <time>2014-05-04T09:18:14.000Z</time>
      </trkpt>
      <trkpt lat="47.41894" lon="6.74261">
        <ele>495.2</ele>
        <time>2014-05-04T09:18:15.000Z</time>
      </trkpt>
      <trkpt lat="47.41893" lon="6.74265">
        <ele>495.4</ele>
        <time>2014-05-04T09:18:16.000Z</time>
      </trkpt>
      <trkpt lat="47.41893" lon="6.74268">
        <ele>497</ele>
        <time>2014-05-04T09:18:17.000Z</time>
      </trkpt>
      <trkpt lat="47.41892" lon="6.74274">
        <ele>497.4</ele>
        <time>2014-05-04T09:18:19.000Z</time>
      </trkpt>
      <trkpt lat="47.41891" lon="6.74278">
        <ele>497.7</ele>
        <time>2014-05-04T09:18:20.000Z</time>
      </trkpt>
      <trkpt lat="47.41891" lon="6.74282">
        <ele>497.4</ele>
        <time>2014-05-04T09:18:21.000Z</time>
      </trkpt>
      <trkpt lat="47.41891" lon="6.74286">
        <ele>498.4</ele>
        <time>2014-05-04T09:18:22.000Z</time>
      </trkpt>
      <trkpt lat="47.41891" lon="6.7429">
        <ele>498.7</ele>
        <time>2014-05-04T09:18:23.000Z</time>
      </trkpt>
      <trkpt lat="47.41892" lon="6.74294">
        <ele>499.6</ele>
        <time>2014-05-04T09:18:24.000Z</time>
      </trkpt>
      <trkpt lat="47.41892" lon="6.74298">
        <ele>499.4</ele>
        <time>2014-05-04T09:18:25.000Z</time>
      </trkpt>
      <trkpt lat="47.41893" lon="6.74302">
        <ele>500.1</ele>
        <time>2014-05-04T09:18:26.000Z</time>
      </trkpt>
      <trkpt lat="47.41893" lon="6.74306">
        <ele>498.5</ele>
        <time>2014-05-04T09:18:27.000Z</time>
      </trkpt>
      <trkpt lat="47.41893" lon="6.74311">
        <ele>497.8</ele>
        <time>2014-05-04T09:18:28.000Z</time>
      </trkpt>
      <trkpt lat="47.41894" lon="6.74315">
        <ele>497.6</ele>
        <time>2014-05-04T09:18:29.000Z</time>
      </trkpt>
      <trkpt lat="47.41894" lon="6.7432">
        <ele>497.7</ele>
        <time>2014-05-04T09:18:30.000Z</time>
      </trkpt>
      <trkpt lat="47.41894" lon="6.74324">
        <ele>497.6</ele>
        <time>2014-05-04T09:18:31.000Z</time>
      </trkpt>
      <trkpt lat="47.41894" lon="6.74328">
        <ele>497.1</ele>
        <time>2014-05-04T09:18:32.000Z</time>
      </trkpt>
      <trkpt lat="47.41894" lon="6.74333">
        <ele>497.2</ele>
        <time>2014-05-04T09:18:33.000Z</time>
      </trkpt>
      <trkpt lat="47.41894" lon="6.74337">
        <ele>496.8</ele>
        <time>2014-05-04T09:18:34.000Z</time>
      </trkpt>
      <trkpt lat="47.41894" lon="6.74342">
        <ele>497</ele>
        <time>2014-05-04T09:18:35.000Z</time>
      </trkpt>
      <trkpt lat="47.41895" lon="6.74346">
        <ele>496</ele>
        <time>2014-05-04T09:18:36.000Z</time>
      </trkpt>
      <trkpt lat="47.41895" lon="6.7435">
        <ele>496.3</ele>
        <time>2014-05-04T09:18:37.000Z</time>
      </trkpt>
      <trkpt lat="47.41895" lon="6.74354">
        <ele>496.3</ele>
        <time>2014-05-04T09:18:38.000Z</time>
      </trkpt>
      <trkpt lat="47.41895" lon="6.74358">
        <ele>496</ele>
        <time>2014-05-04T09:18:39.000Z</time>
      </trkpt>
      <trkpt lat="47.41895" lon="6.74361">
        <ele>495.4</ele>
        <time>2014-05-04T09:18:40.000Z</time>
      </trkpt>
      <trkpt lat="47.41894" lon="6.74368">
        <ele>495.2</ele>
        <time>2014-05-04T09:18:42.000Z</time>
      </trkpt>
      <trkpt lat="47.41894" lon="6.74371">
        <ele>496</ele>
        <time>2014-05-04T09:18:43.000Z</time>
      </trkpt>
      <trkpt lat="47.41895" lon="6.74395">
        <ele>498.2</ele>
        <time>2014-05-04T09:18:51.000Z</time>
      </trkpt>
      <trkpt lat="47.41895" lon="6.74401">
        <ele>496.6</ele>
        <time>2014-05-04T09:18:53.000Z</time>
      </trkpt>
      <trkpt lat="47.41894" lon="6.74404">
        <ele>496</ele>
        <time>2014-05-04T09:18:54.000Z</time>
      </trkpt>
      <trkpt lat="47.41893" lon="6.74407">
        <ele>496.4</ele>
        <time>2014-05-04T09:18:55.000Z</time>
      </trkpt>
      <trkpt lat="47.41893" lon="6.7441">
        <ele>495.5</ele>
        <time>2014-05-04T09:18:56.000Z</time>
      </trkpt>
      <trkpt lat="47.41893" lon="6.74414">
        <ele>496.1</ele>
        <time>2014-05-04T09:18:57.000Z</time>
      </trkpt>
      <trkpt lat="47.41894" lon="6.74418">
        <ele>495.5</ele>
        <time>2014-05-04T09:18:58.000Z</time>
      </trkpt>
      <trkpt lat="47.41895" lon="6.74422">
        <ele>495</ele>
        <time>2014-05-04T09:18:59.000Z</time>
      </trkpt>
      <trkpt lat="47.41896" lon="6.74427">
        <ele>494.5</ele>
        <time>2014-05-04T09:19:00.000Z</time>
      </trkpt>
      <trkpt lat="47.41897" lon="6.7443">
        <ele>495.1</ele>
        <time>2014-05-04T09:19:01.000Z</time>
      </trkpt>
      <trkpt lat="47.41898" lon="6.74434">
        <ele>495.6</ele>
        <time>2014-05-04T09:19:02.000Z</time>
      </trkpt>
      <trkpt lat="47.419" lon="6.74438">
        <ele>495.1</ele>
        <time>2014-05-04T09:19:03.000Z</time>
      </trkpt>
      <trkpt lat="47.41901" lon="6.74442">
        <ele>494.4</ele>
        <time>2014-05-04T09:19:04.000Z</time>
      </trkpt>
      <trkpt lat="47.41902" lon="6.74445">
        <ele>495.2</ele>
        <time>2014-05-04T09:19:05.000Z</time>
      </trkpt>
      <trkpt lat="47.41903" lon="6.7445">
        <ele>494.7</ele>
        <time>2014-05-04T09:19:06.000Z</time>
      </trkpt>
      <trkpt lat="47.41903" lon="6.74454">
        <ele>494.1</ele>
        <time>2014-05-04T09:19:07.000Z</time>
      </trkpt>
      <trkpt lat="47.41904" lon="6.74458">
        <ele>494.6</ele>
        <time>2014-05-04T09:19:08.000Z</time>
      </trkpt>
      <trkpt lat="47.41904" lon="6.74462">
        <ele>495.3</ele>
        <time>2014-05-04T09:19:09.000Z</time>
      </trkpt>
      <trkpt lat="47.41905" lon="6.74465">
        <ele>496.5</ele>
        <time>2014-05-04T09:19:10.000Z</time>
      </trkpt>
      <trkpt lat="47.41906" lon="6.74471">
        <ele>496.2</ele>
        <time>2014-05-04T09:19:12.000Z</time>
      </trkpt>
      <trkpt lat="47.41907" lon="6.74474">
        <ele>495.4</ele>
        <time>2014-05-04T09:19:13.000Z</time>
      </trkpt>
      <trkpt lat="47.41907" lon="6.74481">
        <ele>495.8</ele>
        <time>2014-05-04T09:19:15.000Z</time>
      </trkpt>
      <trkpt lat="47.41908" lon="6.74484">
        <ele>496.5</ele>
        <time>2014-05-04T09:19:16.000Z</time>
      </trkpt>
      <trkpt lat="47.41909" lon="6.7449">
        <ele>497.2</ele>
        <time>2014-05-04T09:19:18.000Z</time>
      </trkpt>
      <trkpt lat="47.4191" lon="6.74494">
        <ele>495.7</ele>
        <time>2014-05-04T09:19:19.000Z</time>
      </trkpt>
      <trkpt lat="47.4191" lon="6.74497">
        <ele>495.4</ele>
        <time>2014-05-04T09:19:20.000Z</time>
      </trkpt>
      <trkpt lat="47.4191" lon="6.74501">
        <ele>494.8</ele>
        <time>2014-05-04T09:19:21.000Z</time>
      </trkpt>
      <trkpt lat="47.4191" lon="6.74504">
        <ele>494.6</ele>
        <time>2014-05-04T09:19:22.000Z</time>
      </trkpt>
      <trkpt lat="47.41911" lon="6.74508">
        <ele>495.4</ele>
        <time>2014-05-04T09:19:23.000Z</time>
      </trkpt>
      <trkpt lat="47.41912" lon="6.74511">
        <ele>495.4</ele>
        <time>2014-05-04T09:19:24.000Z</time>
      </trkpt>
      <trkpt lat="47.41913" lon="6.74515">
        <ele>495.9</ele>
        <time>2014-05-04T09:19:25.000Z</time>
      </trkpt>
      <trkpt lat="47.41915" lon="6.74518">
        <ele>496.9</ele>
        <time>2014-05-04T09:19:26.000Z</time>
      </trkpt>
      <trkpt lat="47.41917" lon="6.74521">
        <ele>497.3</ele>
        <time>2014-05-04T09:19:27.000Z</time>
      </trkpt>
      <trkpt lat="47.41919" lon="6.74525">
        <ele>497.7</ele>
        <time>2014-05-04T09:19:28.000Z</time>
      </trkpt>
      <trkpt lat="47.4192" lon="6.74528">
        <ele>495.5</ele>
        <time>2014-05-04T09:19:29.000Z</time>
      </trkpt>
      <trkpt lat="47.41921" lon="6.74531">
        <ele>493.9</ele>
        <time>2014-05-04T09:19:30.000Z</time>
      </trkpt>
      <trkpt lat="47.41922" lon="6.74534">
        <ele>494.6</ele>
        <time>2014-05-04T09:19:31.000Z</time>
      </trkpt>
      <trkpt lat="47.41924" lon="6.74537">
        <ele>493.9</ele>
        <time>2014-05-04T09:19:32.000Z</time>
      </trkpt>
      <trkpt lat="47.41925" lon="6.7454">
        <ele>493.7</ele>
        <time>2014-05-04T09:19:33.000Z</time>
      </trkpt>
      <trkpt lat="47.41927" lon="6.74543">
        <ele>492.7</ele>
        <time>2014-05-04T09:19:34.000Z</time>
      </trkpt>
      <trkpt lat="47.41928" lon="6.74545">
        <ele>492.2</ele>
        <time>2014-05-04T09:19:35.000Z</time>
      </trkpt>
      <trkpt lat="47.4193" lon="6.74548">
        <ele>491.8</ele>
        <time>2014-05-04T09:19:36.000Z</time>
      </trkpt>
      <trkpt lat="47.41932" lon="6.7455">
        <ele>491.5</ele>
        <time>2014-05-04T09:19:37.000Z</time>
      </trkpt>
      <trkpt lat="47.41933" lon="6.74553">
        <ele>491</ele>
        <time>2014-05-04T09:19:38.000Z</time>
      </trkpt>
      <trkpt lat="47.41935" lon="6.74555">
        <ele>490.8</ele>
        <time>2014-05-04T09:19:38.999Z</time>
      </trkpt>
      <trkpt lat="47.41936" lon="6.7456">
        <ele>491.3</ele>
        <time>2014-05-04T09:19:41.000Z</time>
      </trkpt>
      <trkpt lat="47.41936" lon="6.74562">
        <ele>490.9</ele>
        <time>2014-05-04T09:19:42.000Z</time>
      </trkpt>
      <trkpt lat="47.41937" lon="6.74563">
        <ele>490.7</ele>
        <time>2014-05-04T09:19:43.000Z</time>
      </trkpt>
      <trkpt lat="47.41945" lon="6.74573">
        <ele>489.8</ele>
        <time>2014-05-04T09:19:51.000Z</time>
      </trkpt>
      <trkpt lat="47.41947" lon="6.74571">
        <ele>486.6</ele>
        <time>2014-05-04T09:20:01.001Z</time>
      </trkpt>
      <trkpt lat="47.41948" lon="6.74568">
        <ele>488</ele>
        <time>2014-05-04T09:20:02.001Z</time>
      </trkpt>
      <trkpt lat="47.41952" lon="6.74569">
        <ele>490</ele>
        <time>2014-05-04T09:20:18.000Z</time>
      </trkpt>
      <trkpt lat="47.41953" lon="6.7457">
        <ele>490.5</ele>
        <time>2014-05-04T09:20:19.000Z</time>
      </trkpt>
      <trkpt lat="47.41955" lon="6.74576">
        <ele>494.6</ele>
        <time>2014-05-04T09:20:37.000Z</time>
      </trkpt>
      <trkpt lat="47.41955" lon="6.74576">
        <ele>494.8</ele>
        <time>2014-05-04T09:20:38.000Z</time>
      </trkpt>
      <trkpt lat="47.41955" lon="6.74577">
        <ele>495.3</ele>
        <time>2014-05-04T09:20:43.000Z</time>
      </trkpt>
      <trkpt lat="47.41961" lon="6.74579">
        <ele>497.9</ele>
        <time>2014-05-04T09:20:51.000Z</time>
      </trkpt>
      <trkpt lat="47.41965" lon="6.74582">
        <ele>498.4</ele>
        <time>2014-05-04T09:20:53.000Z</time>
      </trkpt>
      <trkpt lat="47.41967" lon="6.74583">
        <ele>498.6</ele>
        <time>2014-05-04T09:20:54.000Z</time>
      </trkpt>
      <trkpt lat="47.41971" lon="6.74585">
        <ele>497.3</ele>
        <time>2014-05-04T09:20:56.000Z</time>
      </trkpt>
      <trkpt lat="47.41973" lon="6.74585">
        <ele>497.2</ele>
        <time>2014-05-04T09:20:57.000Z</time>
      </trkpt>
      <trkpt lat="47.41976" lon="6.74585">
        <ele>498.8</ele>
        <time>2014-05-04T09:20:59.000Z</time>
      </trkpt>
      <trkpt lat="47.41978" lon="6.74585">
        <ele>498.8</ele>
        <time>2014-05-04T09:21:00.000Z</time>
      </trkpt>
      <trkpt lat="47.41981" lon="6.74585">
        <ele>503.2</ele>
        <time>2014-05-04T09:21:02.000Z</time>
      </trkpt>
      <trkpt lat="47.41983" lon="6.74585">
        <ele>504.9</ele>
        <time>2014-05-04T09:21:03.000Z</time>
      </trkpt>
      <trkpt lat="47.41987" lon="6.74585">
        <ele>504.7</ele>
        <time>2014-05-04T09:21:05.000Z</time>
      </trkpt>
      <trkpt lat="47.41989" lon="6.74585">
        <ele>504.2</ele>
        <time>2014-05-04T09:21:06.000Z</time>
      </trkpt>
      <trkpt lat="47.41992" lon="6.74585">
        <ele>500.3</ele>
        <time>2014-05-04T09:21:07.000Z</time>
      </trkpt>
      <trkpt lat="47.41994" lon="6.74585">
        <ele>499.6</ele>
        <time>2014-05-04T09:21:08.000Z</time>
      </trkpt>
      <trkpt lat="47.41997" lon="6.74589">
        <ele>498.2</ele>
        <time>2014-05-04T09:21:11.000Z</time>
      </trkpt>
      <trkpt lat="47.41998" lon="6.74591">
        <ele>498.4</ele>
        <time>2014-05-04T09:21:12.000Z</time>
      </trkpt>
      <trkpt lat="47.42" lon="6.74596">
        <ele>499.5</ele>
        <time>2014-05-04T09:21:15.000Z</time>
      </trkpt>
      <trkpt lat="47.42" lon="6.74598">
        <ele>499.3</ele>
        <time>2014-05-04T09:21:16.000Z</time>
      </trkpt>
      <trkpt lat="47.42002" lon="6.74603">
        <ele>512.5</ele>
        <time>2014-05-04T09:22:03.000Z</time>
      </trkpt>
      <trkpt lat="47.42003" lon="6.74603">
        <ele>512.9</ele>
        <time>2014-05-04T09:22:04.000Z</time>
      </trkpt>
      <trkpt lat="47.42007" lon="6.746">
        <ele>514.1</ele>
        <time>2014-05-04T09:22:07.000Z</time>
      </trkpt>
      <trkpt lat="47.42008" lon="6.74599">
        <ele>513.7</ele>
        <time>2014-05-04T09:22:08.000Z</time>
      </trkpt>
      <trkpt lat="47.42011" lon="6.74597">
        <ele>513.1</ele>
        <time>2014-05-04T09:22:10.000Z</time>
      </trkpt>
      <trkpt lat="47.42013" lon="6.74597">
        <ele>509.8</ele>
        <time>2014-05-04T09:22:11.000Z</time>
      </trkpt>
      <trkpt lat="47.42016" lon="6.74598">
        <ele>510.1</ele>
        <time>2014-05-04T09:22:13.000Z</time>
      </trkpt>
      <trkpt lat="47.42018" lon="6.74598">
        <ele>506</ele>
        <time>2014-05-04T09:22:14.000Z</time>
      </trkpt>
      <trkpt lat="47.42022" lon="6.746">
        <ele>505.6</ele>
        <time>2014-05-04T09:22:16.000Z</time>
      </trkpt>
      <trkpt lat="47.42023" lon="6.74601">
        <ele>503.4</ele>
        <time>2014-05-04T09:22:17.000Z</time>
      </trkpt>
      <trkpt lat="47.42026" lon="6.74602">
        <ele>501.2</ele>
        <time>2014-05-04T09:22:19.000Z</time>
      </trkpt>
      <trkpt lat="47.42028" lon="6.74602">
        <ele>500.6</ele>
        <time>2014-05-04T09:22:20.000Z</time>
      </trkpt>
      <trkpt lat="47.42032" lon="6.74603">
        <ele>502</ele>
        <time>2014-05-04T09:22:22.000Z</time>
      </trkpt>
      <trkpt lat="47.42033" lon="6.74602">
        <ele>503.2</ele>
        <time>2014-05-04T09:22:23.000Z</time>
      </trkpt>
      <trkpt lat="47.42037" lon="6.74603">
        <ele>503.4</ele>
        <time>2014-05-04T09:22:26.000Z</time>
      </trkpt>
      <trkpt lat="47.42038" lon="6.74604">
        <ele>503.6</ele>
        <time>2014-05-04T09:22:27.000Z</time>
      </trkpt>
      <trkpt lat="47.42041" lon="6.74606">
        <ele>504.6</ele>
        <time>2014-05-04T09:22:29.000Z</time>
      </trkpt>
      <trkpt lat="47.42043" lon="6.74606">
        <ele>503.6</ele>
        <time>2014-05-04T09:22:30.000Z</time>
      </trkpt>
      <trkpt lat="47.42046" lon="6.74607">
        <ele>505</ele>
        <time>2014-05-04T09:22:32.000Z</time>
      </trkpt>
      <trkpt lat="47.42048" lon="6.74607">
        <ele>503.8</ele>
        <time>2014-05-04T09:22:33.000Z</time>
      </trkpt>
      <trkpt lat="47.42052" lon="6.74608">
        <ele>503.8</ele>
        <time>2014-05-04T09:22:36.000Z</time>
      </trkpt>
      <trkpt lat="47.42053" lon="6.74608">
        <ele>506.2</ele>
        <time>2014-05-04T09:22:37.000Z</time>
      </trkpt>
      <trkpt lat="47.42056" lon="6.74612">
        <ele>508.8</ele>
        <time>2014-05-04T09:22:42.000Z</time>
      </trkpt>
      <trkpt lat="47.42057" lon="6.74613">
        <ele>510.2</ele>
        <time>2014-05-04T09:22:43.000Z</time>
      </trkpt>
      <trkpt lat="47.42061" lon="6.7462">
        <ele>513</ele>
        <time>2014-05-04T09:22:51.000Z</time>
      </trkpt>
      <trkpt lat="47.42064" lon="6.74624">
        <ele>510.9</ele>
        <time>2014-05-04T09:22:55.000Z</time>
      </trkpt>
      <trkpt lat="47.42065" lon="6.74625">
        <ele>512.8</ele>
        <time>2014-05-04T09:22:56.000Z</time>
      </trkpt>
      <trkpt lat="47.42068" lon="6.74629">
        <ele>516.6</ele>
        <time>2014-05-04T09:23:00.000Z</time>
      </trkpt>
      <trkpt lat="47.42069" lon="6.7463">
        <ele>517.6</ele>
        <time>2014-05-04T09:23:01.000Z</time>
      </trkpt>
      <trkpt lat="47.42071" lon="6.74634">
        <ele>518.5</ele>
        <time>2014-05-04T09:23:05.000Z</time>
      </trkpt>
      <trkpt lat="47.42072" lon="6.74635">
        <ele>518.9</ele>
        <time>2014-05-04T09:23:06.000Z</time>
      </trkpt>
      <trkpt lat="47.42076" lon="6.74638">
        <ele>519.9</ele>
        <time>2014-05-04T09:23:09.000Z</time>
      </trkpt>
      <trkpt lat="47.42077" lon="6.74639">
        <ele>519.7</ele>
        <time>2014-05-04T09:23:10.000Z</time>
      </trkpt>
      <trkpt lat="47.4208" lon="6.74641">
        <ele>521</ele>
        <time>2014-05-04T09:23:13.000Z</time>
      </trkpt>
      <trkpt lat="47.42081" lon="6.74641">
        <ele>521.5</ele>
        <time>2014-05-04T09:23:14.000Z</time>
      </trkpt>
      <trkpt lat="47.42085" lon="6.74644">
        <ele>526.2</ele>
        <time>2014-05-04T09:23:18.000Z</time>
      </trkpt>
      <trkpt lat="47.42086" lon="6.74645">
        <ele>528.3</ele>
        <time>2014-05-04T09:23:19.000Z</time>
      </trkpt>
      <trkpt lat="47.42088" lon="6.7465">
        <ele>530.5</ele>
        <time>2014-05-04T09:23:21.000Z</time>
      </trkpt>
      <trkpt lat="47.42089" lon="6.74652">
        <ele>531.7</ele>
        <time>2014-05-04T09:23:22.000Z</time>
      </trkpt>
      <trkpt lat="47.42092" lon="6.74655">
        <ele>530.8</ele>
        <time>2014-05-04T09:23:24.000Z</time>
      </trkpt>
      <trkpt lat="47.42094" lon="6.74657">
        <ele>530.1</ele>
        <time>2014-05-04T09:23:25.000Z</time>
      </trkpt>
      <trkpt lat="47.42097" lon="6.7466">
        <ele>530.3</ele>
        <time>2014-05-04T09:23:27.000Z</time>
      </trkpt>
      <trkpt lat="47.42098" lon="6.74662">
        <ele>529.2</ele>
        <time>2014-05-04T09:23:28.000Z</time>
      </trkpt>
      <trkpt lat="47.42101" lon="6.74665">
        <ele>528.5</ele>
        <time>2014-05-04T09:23:30.000Z</time>
      </trkpt>
      <trkpt lat="47.42102" lon="6.74667">
        <ele>528.6</ele>
        <time>2014-05-04T09:23:31.000Z</time>
      </trkpt>
      <trkpt lat="47.42104" lon="6.7467">
        <ele>529.5</ele>
        <time>2014-05-04T09:23:33.000Z</time>
      </trkpt>
      <trkpt lat="47.42106" lon="6.74671">
        <ele>528.4</ele>
        <time>2014-05-04T09:23:34.000Z</time>
      </trkpt>
      <trkpt lat="47.42109" lon="6.74675">
        <ele>529.4</ele>
        <time>2014-05-04T09:23:36.000Z</time>
      </trkpt>
      <trkpt lat="47.42111" lon="6.74677">
        <ele>529.8</ele>
        <time>2014-05-04T09:23:37.000Z</time>
      </trkpt>
      <trkpt lat="47.42113" lon="6.74681">
        <ele>530.1</ele>
        <time>2014-05-04T09:23:39.000Z</time>
      </trkpt>
      <trkpt lat="47.42114" lon="6.74683">
        <ele>529.2</ele>
        <time>2014-05-04T09:23:40.000Z</time>
      </trkpt>
      <trkpt lat="47.42116" lon="6.74687">
        <ele>527.3</ele>
        <time>2014-05-04T09:23:42.000Z</time>
      </trkpt>
      <trkpt lat="47.42117" lon="6.7469">
        <ele>526.3</ele>
        <time>2014-05-04T09:23:43.000Z</time>
      </trkpt>
      <trkpt lat="47.42127" lon="6.74705">
        <ele>526.6</ele>
        <time>2014-05-04T09:23:51.000Z</time>
      </trkpt>
      <trkpt lat="47.42129" lon="6.74709">
        <ele>526.1</ele>
        <time>2014-05-04T09:23:53.000Z</time>
      </trkpt>
      <trkpt lat="47.42129" lon="6.74711">
        <ele>533</ele>
        <time>2014-05-04T09:23:54.000Z</time>
      </trkpt>
      <trkpt lat="47.42128" lon="6.74716">
        <ele>541.4</ele>
        <time>2014-05-04T09:23:56.000Z</time>
      </trkpt>
      <trkpt lat="47.42128" lon="6.74719">
        <ele>540.6</ele>
        <time>2014-05-04T09:23:57.000Z</time>
      </trkpt>
      <trkpt lat="47.42129" lon="6.74723">
        <ele>542.2</ele>
        <time>2014-05-04T09:23:59.000Z</time>
      </trkpt>
      <trkpt lat="47.42131" lon="6.74726">
        <ele>542.8</ele>
        <time>2014-05-04T09:24:00.000Z</time>
      </trkpt>
      <trkpt lat="47.42132" lon="6.74728">
        <ele>543.7</ele>
        <time>2014-05-04T09:24:00.999Z</time>
      </trkpt>
      <trkpt lat="47.42135" lon="6.74729">
        <ele>545.5</ele>
        <time>2014-05-04T09:24:02.000Z</time>
      </trkpt>
      <trkpt lat="47.42138" lon="6.74731">
        <ele>548.9</ele>
        <time>2014-05-04T09:24:03.000Z</time>
      </trkpt>
      <trkpt lat="47.42141" lon="6.74732">
        <ele>549.2</ele>
        <time>2014-05-04T09:24:04.000Z</time>
      </trkpt>
      <trkpt lat="47.42144" lon="6.74736">
        <ele>550.8</ele>
        <time>2014-05-04T09:24:06.000Z</time>
      </trkpt>
      <trkpt lat="47.42144" lon="6.74738">
        <ele>550.5</ele>
        <time>2014-05-04T09:24:07.000Z</time>
      </trkpt>
      <trkpt lat="47.42145" lon="6.74743">
        <ele>552.4</ele>
        <time>2014-05-04T09:24:10.000Z</time>
      </trkpt>
      <trkpt lat="47.42145" lon="6.74745">
        <ele>552.8</ele>
        <time>2014-05-04T09:24:11.000Z</time>
      </trkpt>
      <trkpt lat="47.42146" lon="6.74749">
        <ele>553.7</ele>
        <time>2014-05-04T09:24:13.000Z</time>
      </trkpt>
      <trkpt lat="47.42147" lon="6.74751">
        <ele>557.1</ele>
        <time>2014-05-04T09:24:14.000Z</time>
      </trkpt>
      <trkpt lat="47.42149" lon="6.74755">
        <ele>561.7</ele>
        <time>2014-05-04T09:24:16.000Z</time>
      </trkpt>
      <trkpt lat="47.42151" lon="6.74757">
        <ele>565.2</ele>
        <time>2014-05-04T09:24:17.000Z</time>
      </trkpt>
      <trkpt lat="47.42154" lon="6.74759">
        <ele>565.4</ele>
        <time>2014-05-04T09:24:18.000Z</time>
      </trkpt>
      <trkpt lat="47.42156" lon="6.74761">
        <ele>565.4</ele>
        <time>2014-05-04T09:24:19.000Z</time>
      </trkpt>
      <trkpt lat="47.4216" lon="6.74765">
        <ele>572.1</ele>
        <time>2014-05-04T09:24:21.000Z</time>
      </trkpt>
      <trkpt lat="47.42161" lon="6.74768">
        <ele>572.3</ele>
        <time>2014-05-04T09:24:22.000Z</time>
      </trkpt>
      <trkpt lat="47.42163" lon="6.74773">
        <ele>573.8</ele>
        <time>2014-05-04T09:24:24.000Z</time>
      </trkpt>
      <trkpt lat="47.42164" lon="6.74776">
        <ele>574.5</ele>
        <time>2014-05-04T09:24:25.000Z</time>
      </trkpt>
      <trkpt lat="47.42164" lon="6.74781">
        <ele>580</ele>
        <time>2014-05-04T09:24:27.000Z</time>
      </trkpt>
      <trkpt lat="47.42162" lon="6.74784">
        <ele>577.9</ele>
        <time>2014-05-04T09:24:28.000Z</time>
      </trkpt>
      <trkpt lat="47.4216" lon="6.74788">
        <ele>576.9</ele>
        <time>2014-05-04T09:24:29.000Z</time>
      </trkpt>
      <trkpt lat="47.4216" lon="6.74791">
        <ele>577.9</ele>
        <time>2014-05-04T09:24:30.000Z</time>
      </trkpt>
      <trkpt lat="47.4216" lon="6.74797">
        <ele>577.6</ele>
        <time>2014-05-04T09:24:32.000Z</time>
      </trkpt>
      <trkpt lat="47.42161" lon="6.748">
        <ele>578.4</ele>
        <time>2014-05-04T09:24:33.000Z</time>
      </trkpt>
      <trkpt lat="47.42161" lon="6.74806">
        <ele>570.3</ele>
        <time>2014-05-04T09:24:35.000Z</time>
      </trkpt>
      <trkpt lat="47.42162" lon="6.74808">
        <ele>570.3</ele>
        <time>2014-05-04T09:24:35.999Z</time>
      </trkpt>
      <trkpt lat="47.42162" lon="6.74813">
        <ele>569.8</ele>
        <time>2014-05-04T09:24:37.000Z</time>
      </trkpt>
      <trkpt lat="47.42161" lon="6.74816">
        <ele>569.7</ele>
        <time>2014-05-04T09:24:38.000Z</time>
      </trkpt>
      <trkpt lat="47.42162" lon="6.74822">
        <ele>571.9</ele>
        <time>2014-05-04T09:24:40.000Z</time>
      </trkpt>
      <trkpt lat="47.42161" lon="6.74824">
        <ele>570.8</ele>
        <time>2014-05-04T09:24:41.000Z</time>
      </trkpt>
      <trkpt lat="47.42162" lon="6.74829">
        <ele>571.8</ele>
        <time>2014-05-04T09:24:43.000Z</time>
      </trkpt>
      <trkpt lat="47.42167" lon="6.74844">
        <ele>564.3</ele>
        <time>2014-05-04T09:24:51.000Z</time>
      </trkpt>
      <trkpt lat="47.42163" lon="6.74845">
        <ele>562.3</ele>
        <time>2014-05-04T09:24:53.000Z</time>
      </trkpt>
      <trkpt lat="47.42161" lon="6.74847">
        <ele>558.9</ele>
        <time>2014-05-04T09:24:54.000Z</time>
      </trkpt>
      <trkpt lat="47.42158" lon="6.7485">
        <ele>560.5</ele>
        <time>2014-05-04T09:24:57.000Z</time>
      </trkpt>
      <trkpt lat="47.42157" lon="6.74852">
        <ele>558.4</ele>
        <time>2014-05-04T09:24:58.000Z</time>
      </trkpt>
      <trkpt lat="47.42157" lon="6.74857">
        <ele>560.8</ele>
        <time>2014-05-04T09:25:04.000Z</time>
      </trkpt>
      <trkpt lat="47.42157" lon="6.74858">
        <ele>563.2</ele>
        <time>2014-05-04T09:25:04.999Z</time>
      </trkpt>
      <trkpt lat="47.42159" lon="6.74862">
        <ele>560.9</ele>
        <time>2014-05-04T09:25:08.000Z</time>
      </trkpt>
      <trkpt lat="47.4216" lon="6.74864">
        <ele>562</ele>
        <time>2014-05-04T09:25:09.000Z</time>
      </trkpt>
      <trkpt lat="47.42164" lon="6.74867">
        <ele>563.2</ele>
        <time>2014-05-04T09:25:12.000Z</time>
      </trkpt>
      <trkpt lat="47.42165" lon="6.74867">
        <ele>564.5</ele>
        <time>2014-05-04T09:25:13.000Z</time>
      </trkpt>
      <trkpt lat="47.42163" lon="6.74872">
        <ele>564.2</ele>
        <time>2014-05-04T09:25:16.000Z</time>
      </trkpt>
      <trkpt lat="47.42163" lon="6.74874">
        <ele>564</ele>
        <time>2014-05-04T09:25:17.000Z</time>
      </trkpt>
      <trkpt lat="47.42161" lon="6.7488">
        <ele>556.1</ele>
        <time>2014-05-04T09:25:19.000Z</time>
      </trkpt>
      <trkpt lat="47.42161" lon="6.74882">
        <ele>556.1</ele>
        <time>2014-05-04T09:25:20.001Z</time>
      </trkpt>
      <trkpt lat="47.42159" lon="6.74886">
        <ele>559.4</ele>
        <time>2014-05-04T09:25:22.000Z</time>
      </trkpt>
      <trkpt lat="47.42159" lon="6.74888">
        <ele>561.5</ele>
        <time>2014-05-04T09:25:23.000Z</time>
      </trkpt>
      <trkpt lat="47.42158" lon="6.74893">
        <ele>555.1</ele>
        <time>2014-05-04T09:25:26.000Z</time>
      </trkpt>
      <trkpt lat="47.42156" lon="6.74894">
        <ele>554.3</ele>
        <time>2014-05-04T09:25:27.000Z</time>
      </trkpt>
      <trkpt lat="47.4216" lon="6.74898">
        <ele>544.4</ele>
        <time>2014-05-04T09:26:05.000Z</time>
      </trkpt>
      <trkpt lat="47.42161" lon="6.74897">
        <ele>543.2</ele>
        <time>2014-05-04T09:26:06.000Z</time>
      </trkpt>
      <trkpt lat="47.42164" lon="6.74896">
        <ele>546.3</ele>
        <time>2014-05-04T09:26:08.000Z</time>
      </trkpt>
      <trkpt lat="47.42166" lon="6.74895">
        <ele>546.2</ele>
        <time>2014-05-04T09:26:09.000Z</time>
      </trkpt>
      <trkpt lat="47.42168" lon="6.74894">
        <ele>545.7</ele>
        <time>2014-05-04T09:26:10.000Z</time>
      </trkpt>
      <trkpt lat="47.4217" lon="6.74893">
        <ele>546</ele>
        <time>2014-05-04T09:26:11.000Z</time>
      </trkpt>
      <trkpt lat="47.42173" lon="6.74891">
        <ele>546</ele>
        <time>2014-05-04T09:26:12.000Z</time>
      </trkpt>
      <trkpt lat="47.42176" lon="6.7489">
        <ele>546.2</ele>
        <time>2014-05-04T09:26:13.000Z</time>
      </trkpt>
      <trkpt lat="47.4218" lon="6.74887">
        <ele>546.8</ele>
        <time>2014-05-04T09:26:14.000Z</time>
      </trkpt>
      <trkpt lat="47.42183" lon="6.7487">
        <ele>541.6</ele>
        <time>2014-05-04T09:26:15.000Z</time>
      </trkpt>
      <trkpt lat="47.42186" lon="6.74863">
        <ele>540.4</ele>
        <time>2014-05-04T09:26:16.000Z</time>
      </trkpt>
      <trkpt lat="47.42188" lon="6.74856">
        <ele>539.2</ele>
        <time>2014-05-04T09:26:17.000Z</time>
      </trkpt>
      <trkpt lat="47.42189" lon="6.74848">
        <ele>539</ele>
        <time>2014-05-04T09:26:18.000Z</time>
      </trkpt>
      <trkpt lat="47.42197" lon="6.74843">
        <ele>537.4</ele>
        <time>2014-05-04T09:26:19.000Z</time>
      </trkpt>
      <trkpt lat="47.42201" lon="6.74839">
        <ele>535.7</ele>
        <time>2014-05-04T09:26:20.000Z</time>
      </trkpt>
      <trkpt lat="47.42204" lon="6.74835">
        <ele>535</ele>
        <time>2014-05-04T09:26:21.000Z</time>
      </trkpt>
      <trkpt lat="47.4221" lon="6.74833">
        <ele>534.8</ele>
        <time>2014-05-04T09:26:22.000Z</time>
      </trkpt>
      <trkpt lat="47.42214" lon="6.74831">
        <ele>534.4</ele>
        <time>2014-05-04T09:26:23.000Z</time>
      </trkpt>
      <trkpt lat="47.42217" lon="6.74826">
        <ele>536.2</ele>
        <time>2014-05-04T09:26:24.000Z</time>
      </trkpt>
      <trkpt lat="47.4222" lon="6.74824">
        <ele>535.9</ele>
        <time>2014-05-04T09:26:25.000Z</time>
      </trkpt>
      <trkpt lat="47.42224" lon="6.74819">
        <ele>535.5</ele>
        <time>2014-05-04T09:26:26.000Z</time>
      </trkpt>
      <trkpt lat="47.42231" lon="6.74811">
        <ele>535.7</ele>
        <time>2014-05-04T09:26:27.000Z</time>
      </trkpt>
      <trkpt lat="47.42239" lon="6.7481">
        <ele>532.9</ele>
        <time>2014-05-04T09:26:28.000Z</time>
      </trkpt>
      <trkpt lat="47.42242" lon="6.74807">
        <ele>532.7</ele>
        <time>2014-05-04T09:26:29.000Z</time>
      </trkpt>
      <trkpt lat="47.42247" lon="6.74802">
        <ele>529.6</ele>
        <time>2014-05-04T09:26:30.000Z</time>
      </trkpt>
      <trkpt lat="47.42252" lon="6.74798">
        <ele>526.7</ele>
        <time>2014-05-04T09:26:31.000Z</time>
      </trkpt>
      <trkpt lat="47.42259" lon="6.74793">
        <ele>526.6</ele>
        <time>2014-05-04T09:26:32.000Z</time>
      </trkpt>
      <trkpt lat="47.42264" lon="6.74789">
        <ele>526.8</ele>
        <time>2014-05-04T09:26:33.000Z</time>
      </trkpt>
      <trkpt lat="47.42268" lon="6.74788">
        <ele>525.7</ele>
        <time>2014-05-04T09:26:34.000Z</time>
      </trkpt>
      <trkpt lat="47.4227" lon="6.74785">
        <ele>525</ele>
        <time>2014-05-04T09:26:35.000Z</time>
      </trkpt>
      <trkpt lat="47.42273" lon="6.74783">
        <ele>521</ele>
        <time>2014-05-04T09:26:36.000Z</time>
      </trkpt>
      <trkpt lat="47.42274" lon="6.7478">
        <ele>520.1</ele>
        <time>2014-05-04T09:26:37.000Z</time>
      </trkpt>
      <trkpt lat="47.42276" lon="6.74777">
        <ele>521.4</ele>
        <time>2014-05-04T09:26:38.000Z</time>
      </trkpt>
      <trkpt lat="47.42277" lon="6.74773">
        <ele>522.8</ele>
        <time>2014-05-04T09:26:39.000Z</time>
      </trkpt>
      <trkpt lat="47.42279" lon="6.7477">
        <ele>522.6</ele>
        <time>2014-05-04T09:26:40.000Z</time>
      </trkpt>
      <trkpt lat="47.4228" lon="6.74766">
        <ele>520.9</ele>
        <time>2014-05-04T09:26:41.000Z</time>
      </trkpt>
      <trkpt lat="47.42284" lon="6.74757">
        <ele>519.5</ele>
        <time>2014-05-04T09:26:42.000Z</time>
      </trkpt>
      <trkpt lat="47.42286" lon="6.74752">
        <ele>519.6</ele>
        <time>2014-05-04T09:26:43.000Z</time>
      </trkpt>
      <trkpt lat="47.42308" lon="6.74714">
        <ele>515.6</ele>
        <time>2014-05-04T09:26:51.000Z</time>
      </trkpt>
      <trkpt lat="47.42311" lon="6.74709">
        <ele>514.6</ele>
        <time>2014-05-04T09:26:52.000Z</time>
      </trkpt>
      <trkpt lat="47.42315" lon="6.747">
        <ele>512.7</ele>
        <time>2014-05-04T09:26:53.000Z</time>
      </trkpt>
      <trkpt lat="47.42317" lon="6.74692">
        <ele>511</ele>
        <time>2014-05-04T09:26:54.000Z</time>
      </trkpt>
      <trkpt lat="47.4232" lon="6.74683">
        <ele>510.7</ele>
        <time>2014-05-04T09:26:55.000Z</time>
      </trkpt>
      <trkpt lat="47.42321" lon="6.74678">
        <ele>509.7</ele>
        <time>2014-05-04T09:26:56.000Z</time>
      </trkpt>
      <trkpt lat="47.42324" lon="6.74671">
        <ele>509.4</ele>
        <time>2014-05-04T09:26:57.000Z</time>
      </trkpt>
      <trkpt lat="47.42327" lon="6.74664">
        <ele>509.1</ele>
        <time>2014-05-04T09:26:58.000Z</time>
      </trkpt>
      <trkpt lat="47.4233" lon="6.74657">
        <ele>508.5</ele>
        <time>2014-05-04T09:26:59.000Z</time>
      </trkpt>
      <trkpt lat="47.42335" lon="6.74654">
        <ele>507.4</ele>
        <time>2014-05-04T09:27:00.000Z</time>
      </trkpt>
      <trkpt lat="47.42339" lon="6.74648">
        <ele>506.4</ele>
        <time>2014-05-04T09:27:01.000Z</time>
      </trkpt>
      <trkpt lat="47.42342" lon="6.74644">
        <ele>505.6</ele>
        <time>2014-05-04T09:27:02.000Z</time>
      </trkpt>
      <trkpt lat="47.42345" lon="6.74641">
        <ele>503.9</ele>
        <time>2014-05-04T09:27:03.000Z</time>
      </trkpt>
      <trkpt lat="47.42348" lon="6.74638">
        <ele>504.4</ele>
        <time>2014-05-04T09:27:04.000Z</time>
      </trkpt>
      <trkpt lat="47.42351" lon="6.74634">
        <ele>505.1</ele>
        <time>2014-05-04T09:27:05.000Z</time>
      </trkpt>
      <trkpt lat="47.42354" lon="6.74631">
        <ele>505.2</ele>
        <time>2014-05-04T09:27:06.000Z</time>
      </trkpt>
      <trkpt lat="47.42357" lon="6.74628">
        <ele>505.6</ele>
        <time>2014-05-04T09:27:07.000Z</time>
      </trkpt>
      <trkpt lat="47.42359" lon="6.74623">
        <ele>505.1</ele>
        <time>2014-05-04T09:27:08.000Z</time>
      </trkpt>
      <trkpt lat="47.42361" lon="6.74618">
        <ele>504.7</ele>
        <time>2014-05-04T09:27:09.000Z</time>
      </trkpt>
      <trkpt lat="47.42364" lon="6.74614">
        <ele>504.6</ele>
        <time>2014-05-04T09:27:10.000Z</time>
      </trkpt>
      <trkpt lat="47.42367" lon="6.74607">
        <ele>503.3</ele>
        <time>2014-05-04T09:27:11.000Z</time>
      </trkpt>
      <trkpt lat="47.42369" lon="6.74601">
        <ele>502.3</ele>
        <time>2014-05-04T09:27:12.000Z</time>
      </trkpt>
      <trkpt lat="47.42372" lon="6.74595">
        <ele>501</ele>
        <time>2014-05-04T09:27:13.000Z</time>
      </trkpt>
      <trkpt lat="47.42373" lon="6.74591">
        <ele>501.4</ele>
        <time>2014-05-04T09:27:14.000Z</time>
      </trkpt>
      <trkpt lat="47.42374" lon="6.74587">
        <ele>501.7</ele>
        <time>2014-05-04T09:27:15.000Z</time>
      </trkpt>
      <trkpt lat="47.42376" lon="6.74583">
        <ele>501.6</ele>
        <time>2014-05-04T09:27:16.000Z</time>
      </trkpt>
      <trkpt lat="47.42377" lon="6.74579">
        <ele>501</ele>
        <time>2014-05-04T09:27:17.000Z</time>
      </trkpt>
      <trkpt lat="47.42382" lon="6.74569">
        <ele>497.2</ele>
        <time>2014-05-04T09:27:18.000Z</time>
      </trkpt>
      <trkpt lat="47.42384" lon="6.74563">
        <ele>495.7</ele>
        <time>2014-05-04T09:27:19.000Z</time>
      </trkpt>
      <trkpt lat="47.42385" lon="6.74559">
        <ele>496.3</ele>
        <time>2014-05-04T09:27:20.000Z</time>
      </trkpt>
      <trkpt lat="47.42386" lon="6.74557">
        <ele>493.2</ele>
        <time>2014-05-04T09:27:21.000Z</time>
      </trkpt>
      <trkpt lat="47.42388" lon="6.74555">
        <ele>491.9</ele>
        <time>2014-05-04T09:27:22.000Z</time>
      </trkpt>
      <trkpt lat="47.4239" lon="6.74552">
        <ele>491.9</ele>
        <time>2014-05-04T09:27:23.000Z</time>
      </trkpt>
      <trkpt lat="47.42392" lon="6.74551">
        <ele>492.3</ele>
        <time>2014-05-04T09:27:24.000Z</time>
      </trkpt>
      <trkpt lat="47.42394" lon="6.74547">
        <ele>491.9</ele>
        <time>2014-05-04T09:27:25.000Z</time>
      </trkpt>
      <trkpt lat="47.42396" lon="6.74543">
        <ele>494.4</ele>
        <time>2014-05-04T09:27:26.000Z</time>
      </trkpt>
      <trkpt lat="47.42398" lon="6.74541">
        <ele>493.8</ele>
        <time>2014-05-04T09:27:27.000Z</time>
      </trkpt>
      <trkpt lat="47.42401" lon="6.74537">
        <ele>494.5</ele>
        <time>2014-05-04T09:27:29.000Z</time>
      </trkpt>
      <trkpt lat="47.42403" lon="6.74536">
        <ele>492.2</ele>
        <time>2014-05-04T09:27:30.000Z</time>
      </trkpt>
      <trkpt lat="47.42406" lon="6.74533">
        <ele>495.5</ele>
        <time>2014-05-04T09:27:32.000Z</time>
      </trkpt>
      <trkpt lat="47.42408" lon="6.74532">
        <ele>496.3</ele>
        <time>2014-05-04T09:27:33.000Z</time>
      </trkpt>
      <trkpt lat="47.42411" lon="6.7453">
        <ele>498.9</ele>
        <time>2014-05-04T09:27:35.000Z</time>
      </trkpt>
      <trkpt lat="47.42412" lon="6.74529">
        <ele>497</ele>
        <time>2014-05-04T09:27:36.000Z</time>
      </trkpt>
      <trkpt lat="47.42416" lon="6.74526">
        <ele>497.5</ele>
        <time>2014-05-04T09:27:39.000Z</time>
      </trkpt>
      <trkpt lat="47.42417" lon="6.74526">
        <ele>495.5</ele>
        <time>2014-05-04T09:27:40.000Z</time>
      </trkpt>
      <trkpt lat="47.4242" lon="6.74527">
        <ele>496.1</ele>
        <time>2014-05-04T09:27:42.000Z</time>
      </trkpt>
      <trkpt lat="47.42422" lon="6.74526">
        <ele>493.2</ele>
        <time>2014-05-04T09:27:43.000Z</time>
      </trkpt>
      <trkpt lat="47.42427" lon="6.74524">
        <ele>491.6</ele>
        <time>2014-05-04T09:27:46.000Z</time>
      </trkpt>
      <trkpt lat="47.4243" lon="6.74521">
        <ele>487.7</ele>
        <time>2014-05-04T09:27:48.000Z</time>
      </trkpt>
      <trkpt lat="47.42432" lon="6.7452">
        <ele>487</ele>
        <time>2014-05-04T09:27:49.000Z</time>
      </trkpt>
      <trkpt lat="47.42436" lon="6.74518">
        <ele>485.8</ele>
        <time>2014-05-04T09:27:52.000Z</time>
      </trkpt>
      <trkpt lat="47.42438" lon="6.74518">
        <ele>485.4</ele>
        <time>2014-05-04T09:27:53.000Z</time>
      </trkpt>
      <trkpt lat="47.4244" lon="6.74518">
        <ele>483.4</ele>
        <time>2014-05-04T09:27:55.000Z</time>
      </trkpt>
      <trkpt lat="47.42442" lon="6.74519">
        <ele>482.4</ele>
        <time>2014-05-04T09:27:56.000Z</time>
      </trkpt>
      <trkpt lat="47.42444" lon="6.74519">
        <ele>480.6</ele>
        <time>2014-05-04T09:27:57.000Z</time>
      </trkpt>
      <trkpt lat="47.42446" lon="6.7452">
        <ele>481.2</ele>
        <time>2014-05-04T09:27:58.000Z</time>
      </trkpt>
      <trkpt lat="47.42449" lon="6.7452">
        <ele>482.4</ele>
        <time>2014-05-04T09:27:59.000Z</time>
      </trkpt>
      <trkpt lat="47.42451" lon="6.7452">
        <ele>482.9</ele>
        <time>2014-05-04T09:28:00.000Z</time>
      </trkpt>
      <trkpt lat="47.42454" lon="6.74521">
        <ele>485.7</ele>
        <time>2014-05-04T09:28:01.000Z</time>
      </trkpt>
      <trkpt lat="47.42456" lon="6.74521">
        <ele>487.3</ele>
        <time>2014-05-04T09:28:02.000Z</time>
      </trkpt>
      <trkpt lat="47.42459" lon="6.7452">
        <ele>489</ele>
        <time>2014-05-04T09:28:03.000Z</time>
      </trkpt>
      <trkpt lat="47.42462" lon="6.7452">
        <ele>488.5</ele>
        <time>2014-05-04T09:28:04.000Z</time>
      </trkpt>
      <trkpt lat="47.42465" lon="6.74519">
        <ele>488.5</ele>
        <time>2014-05-04T09:28:05.000Z</time>
      </trkpt>
      <trkpt lat="47.42468" lon="6.74519">
        <ele>488.2</ele>
        <time>2014-05-04T09:28:06.000Z</time>
      </trkpt>
      <trkpt lat="47.42471" lon="6.7452">
        <ele>487.8</ele>
        <time>2014-05-04T09:28:07.000Z</time>
      </trkpt>
      <trkpt lat="47.42474" lon="6.7452">
        <ele>487.7</ele>
        <time>2014-05-04T09:28:08.000Z</time>
      </trkpt>
      <trkpt lat="47.42478" lon="6.74521">
        <ele>485.8</ele>
        <time>2014-05-04T09:28:09.000Z</time>
      </trkpt>
      <trkpt lat="47.42481" lon="6.74521">
        <ele>484.6</ele>
        <time>2014-05-04T09:28:10.000Z</time>
      </trkpt>
      <trkpt lat="47.42484" lon="6.74522">
        <ele>483.5</ele>
        <time>2014-05-04T09:28:11.000Z</time>
      </trkpt>
      <trkpt lat="47.42487" lon="6.74523">
        <ele>484</ele>
        <time>2014-05-04T09:28:12.000Z</time>
      </trkpt>
      <trkpt lat="47.4249" lon="6.74524">
        <ele>483.5</ele>
        <time>2014-05-04T09:28:13.000Z</time>
      </trkpt>
      <trkpt lat="47.42493" lon="6.74525">
        <ele>482.8</ele>
        <time>2014-05-04T09:28:14.000Z</time>
      </trkpt>
      <trkpt lat="47.42496" lon="6.74526">
        <ele>482.7</ele>
        <time>2014-05-04T09:28:15.000Z</time>
      </trkpt>
      <trkpt lat="47.42498" lon="6.74526">
        <ele>482.7</ele>
        <time>2014-05-04T09:28:16.000Z</time>
      </trkpt>
      <trkpt lat="47.42501" lon="6.74526">
        <ele>483.4</ele>
        <time>2014-05-04T09:28:17.000Z</time>
      </trkpt>
      <trkpt lat="47.42503" lon="6.74526">
        <ele>484.5</ele>
        <time>2014-05-04T09:28:18.000Z</time>
      </trkpt>
      <trkpt lat="47.42506" lon="6.74528">
        <ele>484.8</ele>
        <time>2014-05-04T09:28:20.000Z</time>
      </trkpt>
      <trkpt lat="47.42508" lon="6.7453">
        <ele>484.7</ele>
        <time>2014-05-04T09:28:21.000Z</time>
      </trkpt>
      <trkpt lat="47.42511" lon="6.74531">
        <ele>482.5</ele>
        <time>2014-05-04T09:28:22.000Z</time>
      </trkpt>
      <trkpt lat="47.42514" lon="6.74532">
        <ele>482.1</ele>
        <time>2014-05-04T09:28:23.000Z</time>
      </trkpt>
      <trkpt lat="47.42516" lon="6.74532">
        <ele>482.3</ele>
        <time>2014-05-04T09:28:24.000Z</time>
      </trkpt>
      <trkpt lat="47.42519" lon="6.74533">
        <ele>483</ele>
        <time>2014-05-04T09:28:25.000Z</time>
      </trkpt>
      <trkpt lat="47.42523" lon="6.74534">
        <ele>481.3</ele>
        <time>2014-05-04T09:28:26.000Z</time>
      </trkpt>
      <trkpt lat="47.42526" lon="6.74534">
        <ele>481</ele>
        <time>2014-05-04T09:28:27.000Z</time>
      </trkpt>
      <trkpt lat="47.42529" lon="6.74535">
        <ele>481.3</ele>
        <time>2014-05-04T09:28:28.000Z</time>
      </trkpt>
      <trkpt lat="47.42532" lon="6.74536">
        <ele>483</ele>
        <time>2014-05-04T09:28:29.000Z</time>
      </trkpt>
      <trkpt lat="47.42534" lon="6.74537">
        <ele>483.7</ele>
        <time>2014-05-04T09:28:30.000Z</time>
      </trkpt>
      <trkpt lat="47.42537" lon="6.74538">
        <ele>483.2</ele>
        <time>2014-05-04T09:28:31.000Z</time>
      </trkpt>
      <trkpt lat="47.42539" lon="6.74539">
        <ele>484.3</ele>
        <time>2014-05-04T09:28:32.000Z</time>
      </trkpt>
      <trkpt lat="47.42542" lon="6.74541">
        <ele>483.9</ele>
        <time>2014-05-04T09:28:33.000Z</time>
      </trkpt>
      <trkpt lat="47.42545" lon="6.74541">
        <ele>483.6</ele>
        <time>2014-05-04T09:28:34.000Z</time>
      </trkpt>
      <trkpt lat="47.42547" lon="6.74542">
        <ele>485</ele>
        <time>2014-05-04T09:28:35.000Z</time>
      </trkpt>
      <trkpt lat="47.4255" lon="6.74542">
        <ele>486</ele>
        <time>2014-05-04T09:28:36.000Z</time>
      </trkpt>
      <trkpt lat="47.42553" lon="6.74543">
        <ele>486.7</ele>
        <time>2014-05-04T09:28:37.000Z</time>
      </trkpt>
      <trkpt lat="47.42555" lon="6.74543">
        <ele>487.5</ele>
        <time>2014-05-04T09:28:38.000Z</time>
      </trkpt>
      <trkpt lat="47.42558" lon="6.74543">
        <ele>489.4</ele>
        <time>2014-05-04T09:28:39.000Z</time>
      </trkpt>
      <trkpt lat="47.42561" lon="6.74543">
        <ele>489.7</ele>
        <time>2014-05-04T09:28:40.000Z</time>
      </trkpt>
      <trkpt lat="47.42564" lon="6.74543">
        <ele>488.7</ele>
        <time>2014-05-04T09:28:41.000Z</time>
      </trkpt>
      <trkpt lat="47.42567" lon="6.74543">
        <ele>487.9</ele>
        <time>2014-05-04T09:28:42.000Z</time>
      </trkpt>
      <trkpt lat="47.4257" lon="6.74543">
        <ele>487.2</ele>
        <time>2014-05-04T09:28:43.000Z</time>
      </trkpt>
      <trkpt lat="47.42596" lon="6.74521">
        <ele>494.6</ele>
        <time>2014-05-04T09:28:51.000Z</time>
      </trkpt>
      <trkpt lat="47.42605" lon="6.7451">
        <ele>491.9</ele>
        <time>2014-05-04T09:28:52.000Z</time>
      </trkpt>
      <trkpt lat="47.42611" lon="6.74505">
        <ele>490.5</ele>
        <time>2014-05-04T09:28:53.000Z</time>
      </trkpt>
      <trkpt lat="47.42619" lon="6.74499">
        <ele>490.9</ele>
        <time>2014-05-04T09:28:54.000Z</time>
      </trkpt>
      <trkpt lat="47.42624" lon="6.74497">
        <ele>490.1</ele>
        <time>2014-05-04T09:28:55.000Z</time>
      </trkpt>
      <trkpt lat="47.42631" lon="6.74493">
        <ele>486.9</ele>
        <time>2014-05-04T09:28:56.000Z</time>
      </trkpt>
      <trkpt lat="47.42638" lon="6.74488">
        <ele>484.8</ele>
        <time>2014-05-04T09:28:57.000Z</time>
      </trkpt>
      <trkpt lat="47.42644" lon="6.74484">
        <ele>484.5</ele>
        <time>2014-05-04T09:28:58.000Z</time>
      </trkpt>
      <trkpt lat="47.42651" lon="6.74478">
        <ele>483.1</ele>
        <time>2014-05-04T09:28:59.000Z</time>
      </trkpt>
      <trkpt lat="47.42658" lon="6.74472">
        <ele>482.2</ele>
        <time>2014-05-04T09:29:00.000Z</time>
      </trkpt>
      <trkpt lat="47.42663" lon="6.74468">
        <ele>481.5</ele>
        <time>2014-05-04T09:29:01.000Z</time>
      </trkpt>
      <trkpt lat="47.42668" lon="6.74464">
        <ele>481.2</ele>
        <time>2014-05-04T09:29:02.000Z</time>
      </trkpt>
      <trkpt lat="47.42673" lon="6.7446">
        <ele>481.2</ele>
        <time>2014-05-04T09:29:02.999Z</time>
      </trkpt>
      <trkpt lat="47.42687" lon="6.74463">
        <ele>479.5</ele>
        <time>2014-05-04T09:29:04.000Z</time>
      </trkpt>
      <trkpt lat="47.42698" lon="6.74463">
        <ele>477.8</ele>
        <time>2014-05-04T09:29:05.000Z</time>
      </trkpt>
      <trkpt lat="47.42708" lon="6.74466">
        <ele>475.1</ele>
        <time>2014-05-04T09:29:06.000Z</time>
      </trkpt>
      <trkpt lat="47.42717" lon="6.74464">
        <ele>472.6</ele>
        <time>2014-05-04T09:29:07.000Z</time>
      </trkpt>
      <trkpt lat="47.42725" lon="6.74467">
        <ele>471.6</ele>
        <time>2014-05-04T09:29:08.000Z</time>
      </trkpt>
      <trkpt lat="47.42733" lon="6.74469">
        <ele>470.4</ele>
        <time>2014-05-04T09:29:09.000Z</time>
      </trkpt>
      <trkpt lat="47.42739" lon="6.74472">
        <ele>469.1</ele>
        <time>2014-05-04T09:29:10.000Z</time>
      </trkpt>
      <trkpt lat="47.42746" lon="6.74475">
        <ele>467.5</ele>
        <time>2014-05-04T09:29:11.000Z</time>
      </trkpt>
      <trkpt lat="47.42753" lon="6.74478">
        <ele>465.3</ele>
        <time>2014-05-04T09:29:12.000Z</time>
      </trkpt>
      <trkpt lat="47.42759" lon="6.74479">
        <ele>464</ele>
        <time>2014-05-04T09:29:13.000Z</time>
      </trkpt>
      <trkpt lat="47.42765" lon="6.74481">
        <ele>462.3</ele>
        <time>2014-05-04T09:29:14.000Z</time>
      </trkpt>
      <trkpt lat="47.42772" lon="6.74481">
        <ele>460.8</ele>
        <time>2014-05-04T09:29:15.000Z</time>
      </trkpt>
      <trkpt lat="47.4278" lon="6.74479">
        <ele>458.3</ele>
        <time>2014-05-04T09:29:16.000Z</time>
      </trkpt>
      <trkpt lat="47.42786" lon="6.74477">
        <ele>456.9</ele>
        <time>2014-05-04T09:29:17.000Z</time>
      </trkpt>
      <trkpt lat="47.42796" lon="6.74473">
        <ele>454.6</ele>
        <time>2014-05-04T09:29:18.000Z</time>
      </trkpt>
      <trkpt lat="47.42804" lon="6.74469">
        <ele>453.7</ele>
        <time>2014-05-04T09:29:19.000Z</time>
      </trkpt>
      <trkpt lat="47.42812" lon="6.74466">
        <ele>453.5</ele>
        <time>2014-05-04T09:29:20.000Z</time>
      </trkpt>
      <trkpt lat="47.42819" lon="6.74462">
        <ele>453.3</ele>
        <time>2014-05-04T09:29:21.000Z</time>
      </trkpt>
      <trkpt lat="47.42827" lon="6.74457">
        <ele>451.8</ele>
        <time>2014-05-04T09:29:22.000Z</time>
      </trkpt>
      <trkpt lat="47.42834" lon="6.74454">
        <ele>452</ele>
        <time>2014-05-04T09:29:23.000Z</time>
      </trkpt>
      <trkpt lat="47.42842" lon="6.74451">
        <ele>452</ele>
        <time>2014-05-04T09:29:24.000Z</time>
      </trkpt>
      <trkpt lat="47.4285" lon="6.7445">
        <ele>450.4</ele>
        <time>2014-05-04T09:29:25.000Z</time>
      </trkpt>
      <trkpt lat="47.42858" lon="6.74449">
        <ele>449.2</ele>
        <time>2014-05-04T09:29:25.999Z</time>
      </trkpt>
      <trkpt lat="47.42866" lon="6.7445">
        <ele>448.3</ele>
        <time>2014-05-04T09:29:27.000Z</time>
      </trkpt>
      <trkpt lat="47.42876" lon="6.74449">
        <ele>447</ele>
        <time>2014-05-04T09:29:28.000Z</time>
      </trkpt>
      <trkpt lat="47.42886" lon="6.7445">
        <ele>445.4</ele>
        <time>2014-05-04T09:29:29.000Z</time>
      </trkpt>
      <trkpt lat="47.42895" lon="6.74448">
        <ele>444</ele>
        <time>2014-05-04T09:29:30.000Z</time>
      </trkpt>
      <trkpt lat="47.42903" lon="6.74449">
        <ele>442.7</ele>
        <time>2014-05-04T09:29:31.000Z</time>
      </trkpt>
      <trkpt lat="47.42914" lon="6.74448">
        <ele>442</ele>
        <time>2014-05-04T09:29:32.000Z</time>
      </trkpt>
      <trkpt lat="47.42922" lon="6.74449">
        <ele>441</ele>
        <time>2014-05-04T09:29:33.000Z</time>
      </trkpt>
      <trkpt lat="47.42929" lon="6.74446">
        <ele>439.2</ele>
        <time>2014-05-04T09:29:34.000Z</time>
      </trkpt>
      <trkpt lat="47.42936" lon="6.74443">
        <ele>438.1</ele>
        <time>2014-05-04T09:29:35.000Z</time>
      </trkpt>
      <trkpt lat="47.42942" lon="6.7444">
        <ele>436.8</ele>
        <time>2014-05-04T09:29:36.000Z</time>
      </trkpt>
      <trkpt lat="47.42947" lon="6.74434">
        <ele>435.8</ele>
        <time>2014-05-04T09:29:37.000Z</time>
      </trkpt>
      <trkpt lat="47.42954" lon="6.74427">
        <ele>435.6</ele>
        <time>2014-05-04T09:29:38.000Z</time>
      </trkpt>
      <trkpt lat="47.42961" lon="6.74421">
        <ele>433.8</ele>
        <time>2014-05-04T09:29:39.000Z</time>
      </trkpt>
      <trkpt lat="47.42968" lon="6.74413">
        <ele>432.6</ele>
        <time>2014-05-04T09:29:40.000Z</time>
      </trkpt>
      <trkpt lat="47.42977" lon="6.74406">
        <ele>430.2</ele>
        <time>2014-05-04T09:29:41.000Z</time>
      </trkpt>
      <trkpt lat="47.42987" lon="6.74401">
        <ele>429.3</ele>
        <time>2014-05-04T09:29:42.000Z</time>
      </trkpt>
      <trkpt lat="47.42995" lon="6.74397">
        <ele>429.6</ele>
        <time>2014-05-04T09:29:43.000Z</time>
      </trkpt>
      <trkpt lat="47.43044" lon="6.74358">
        <ele>427.3</ele>
        <time>2014-05-04T09:29:51.000Z</time>
      </trkpt>
      <trkpt lat="47.4305" lon="6.74357">
        <ele>427.6</ele>
        <time>2014-05-04T09:29:52.000Z</time>
      </trkpt>
      <trkpt lat="47.43059" lon="6.74353">
        <ele>427.7</ele>
        <time>2014-05-04T09:29:53.000Z</time>
      </trkpt>
      <trkpt lat="47.43064" lon="6.74352">
        <ele>427.5</ele>
        <time>2014-05-04T09:29:54.000Z</time>
      </trkpt>
      <trkpt lat="47.4307" lon="6.74348">
        <ele>431.3</ele>
        <time>2014-05-04T09:29:55.000Z</time>
      </trkpt>
      <trkpt lat="47.43075" lon="6.74345">
        <ele>434.6</ele>
        <time>2014-05-04T09:29:56.000Z</time>
      </trkpt>
      <trkpt lat="47.43084" lon="6.7434">
        <ele>430.4</ele>
        <time>2014-05-04T09:29:57.000Z</time>
      </trkpt>
      <trkpt lat="47.43091" lon="6.74337">
        <ele>430.6</ele>
        <time>2014-05-04T09:29:58.000Z</time>
      </trkpt>
      <trkpt lat="47.43098" lon="6.74332">
        <ele>431.7</ele>
        <time>2014-05-04T09:29:59.000Z</time>
      </trkpt>
      <trkpt lat="47.43105" lon="6.74328">
        <ele>431.7</ele>
        <time>2014-05-04T09:30:00.000Z</time>
      </trkpt>
      <trkpt lat="47.43113" lon="6.74327">
        <ele>430.4</ele>
        <time>2014-05-04T09:30:01.000Z</time>
      </trkpt>
      <trkpt lat="47.43124" lon="6.74322">
        <ele>427.8</ele>
        <time>2014-05-04T09:30:02.000Z</time>
      </trkpt>
      <trkpt lat="47.43135" lon="6.74323">
        <ele>423.7</ele>
        <time>2014-05-04T09:30:03.000Z</time>
      </trkpt>
      <trkpt lat="47.43142" lon="6.74322">
        <ele>422.2</ele>
        <time>2014-05-04T09:30:04.000Z</time>
      </trkpt>
      <trkpt lat="47.43149" lon="6.74322">
        <ele>422.3</ele>
        <time>2014-05-04T09:30:05.000Z</time>
      </trkpt>
      <trkpt lat="47.43156" lon="6.74323">
        <ele>422.3</ele>
        <time>2014-05-04T09:30:06.000Z</time>
      </trkpt>
      <trkpt lat="47.43163" lon="6.74326">
        <ele>421.8</ele>
        <time>2014-05-04T09:30:07.000Z</time>
      </trkpt>
      <trkpt lat="47.43169" lon="6.74328">
        <ele>420.1</ele>
        <time>2014-05-04T09:30:08.000Z</time>
      </trkpt>
      <trkpt lat="47.43174" lon="6.74328">
        <ele>418.8</ele>
        <time>2014-05-04T09:30:09.000Z</time>
      </trkpt>
      <trkpt lat="47.4318" lon="6.74331">
        <ele>417.8</ele>
        <time>2014-05-04T09:30:10.000Z</time>
      </trkpt>
      <trkpt lat="47.43186" lon="6.74334">
        <ele>416.7</ele>
        <time>2014-05-04T09:30:11.000Z</time>
      </trkpt>
      <trkpt lat="47.43191" lon="6.74337">
        <ele>416.9</ele>
        <time>2014-05-04T09:30:12.000Z</time>
      </trkpt>
      <trkpt lat="47.43196" lon="6.7434">
        <ele>418.1</ele>
        <time>2014-05-04T09:30:13.000Z</time>
      </trkpt>
      <trkpt lat="47.43202" lon="6.74344">
        <ele>416.8</ele>
        <time>2014-05-04T09:30:14.000Z</time>
      </trkpt>
      <trkpt lat="47.43207" lon="6.74344">
        <ele>415</ele>
        <time>2014-05-04T09:30:15.000Z</time>
      </trkpt>
      <trkpt lat="47.43212" lon="6.74345">
        <ele>413.7</ele>
        <time>2014-05-04T09:30:16.000Z</time>
      </trkpt>
      <trkpt lat="47.43218" lon="6.74348">
        <ele>413.7</ele>
        <time>2014-05-04T09:30:17.000Z</time>
      </trkpt>
      <trkpt lat="47.43223" lon="6.74348">
        <ele>413.2</ele>
        <time>2014-05-04T09:30:18.000Z</time>
      </trkpt>
      <trkpt lat="47.43229" lon="6.74349">
        <ele>413.4</ele>
        <time>2014-05-04T09:30:19.000Z</time>
      </trkpt>
      <trkpt lat="47.43235" lon="6.74351">
        <ele>413.4</ele>
        <time>2014-05-04T09:30:20.000Z</time>
      </trkpt>
      <trkpt lat="47.43241" lon="6.74352">
        <ele>412.5</ele>
        <time>2014-05-04T09:30:21.000Z</time>
      </trkpt>
      <trkpt lat="47.43247" lon="6.74353">
        <ele>410.3</ele>
        <time>2014-05-04T09:30:22.000Z</time>
      </trkpt>
      <trkpt lat="47.43252" lon="6.74355">
        <ele>410.2</ele>
        <time>2014-05-04T09:30:23.000Z</time>
      </trkpt>
      <trkpt lat="47.43258" lon="6.74355">
        <ele>409.6</ele>
        <time>2014-05-04T09:30:24.000Z</time>
      </trkpt>
      <trkpt lat="47.43263" lon="6.74356">
        <ele>409.4</ele>
        <time>2014-05-04T09:30:25.000Z</time>
      </trkpt>
      <trkpt lat="47.43268" lon="6.74356">
        <ele>408.6</ele>
        <time>2014-05-04T09:30:26.000Z</time>
      </trkpt>
      <trkpt lat="47.43273" lon="6.74356">
        <ele>407.6</ele>
        <time>2014-05-04T09:30:27.000Z</time>
      </trkpt>
      <trkpt lat="47.43278" lon="6.74355">
        <ele>407.2</ele>
        <time>2014-05-04T09:30:28.000Z</time>
      </trkpt>
      <trkpt lat="47.43283" lon="6.74355">
        <ele>407.4</ele>
        <time>2014-05-04T09:30:29.000Z</time>
      </trkpt>
      <trkpt lat="47.43288" lon="6.74355">
        <ele>406.2</ele>
        <time>2014-05-04T09:30:30.000Z</time>
      </trkpt>
      <trkpt lat="47.43293" lon="6.74357">
        <ele>406.1</ele>
        <time>2014-05-04T09:30:31.000Z</time>
      </trkpt>
      <trkpt lat="47.43296" lon="6.7436">
        <ele>406</ele>
        <time>2014-05-04T09:30:32.000Z</time>
      </trkpt>
      <trkpt lat="47.433" lon="6.74363">
        <ele>406.8</ele>
        <time>2014-05-04T09:30:33.000Z</time>
      </trkpt>
      <trkpt lat="47.43304" lon="6.74367">
        <ele>407.5</ele>
        <time>2014-05-04T09:30:34.000Z</time>
      </trkpt>
      <trkpt lat="47.43308" lon="6.74371">
        <ele>407.7</ele>
        <time>2014-05-04T09:30:35.000Z</time>
      </trkpt>
      <trkpt lat="47.43312" lon="6.74376">
        <ele>407.6</ele>
        <time>2014-05-04T09:30:36.000Z</time>
      </trkpt>
      <trkpt lat="47.43316" lon="6.74378">
        <ele>408</ele>
        <time>2014-05-04T09:30:37.000Z</time>
      </trkpt>
      <trkpt lat="47.4332" lon="6.7438">
        <ele>407.3</ele>
        <time>2014-05-04T09:30:38.000Z</time>
      </trkpt>
      <trkpt lat="47.43323" lon="6.74383">
        <ele>408</ele>
        <time>2014-05-04T09:30:39.000Z</time>
      </trkpt>
      <trkpt lat="47.43326" lon="6.74385">
        <ele>407.1</ele>
        <time>2014-05-04T09:30:40.000Z</time>
      </trkpt>
      <trkpt lat="47.43329" lon="6.74387">
        <ele>407.2</ele>
        <time>2014-05-04T09:30:41.000Z</time>
      </trkpt>
      <trkpt lat="47.43333" lon="6.74389">
        <ele>407</ele>
        <time>2014-05-04T09:30:42.000Z</time>
      </trkpt>
      <trkpt lat="47.43336" lon="6.7439">
        <ele>406.4</ele>
        <time>2014-05-04T09:30:43.000Z</time>
      </trkpt>
      <trkpt lat="47.43346" lon="6.74395">
        <ele>406.6</ele>
        <time>2014-05-04T09:30:46.000Z</time>
      </trkpt>
      <trkpt lat="47.4335" lon="6.74398">
        <ele>406.8</ele>
        <time>2014-05-04T09:30:47.000Z</time>
      </trkpt>
      <trkpt lat="47.43354" lon="6.74401">
        <ele>407</ele>
        <time>2014-05-04T09:30:48.000Z</time>
      </trkpt>
      <trkpt lat="47.43358" lon="6.74403">
        <ele>407.7</ele>
        <time>2014-05-04T09:30:49.000Z</time>
      </trkpt>
      <trkpt lat="47.43361" lon="6.74405">
        <ele>407.8</ele>
        <time>2014-05-04T09:30:50.000Z</time>
      </trkpt>
      <trkpt lat="47.43365" lon="6.74407">
        <ele>407.3</ele>
        <time>2014-05-04T09:30:51.000Z</time>
      </trkpt>
      <trkpt lat="47.43369" lon="6.74409">
        <ele>406.5</ele>
        <time>2014-05-04T09:30:52.000Z</time>
      </trkpt>
      <trkpt lat="47.43373" lon="6.74411">
        <ele>407</ele>
        <time>2014-05-04T09:30:53.000Z</time>
      </trkpt>
      <trkpt lat="47.43377" lon="6.74413">
        <ele>406.3</ele>
        <time>2014-05-04T09:30:54.000Z</time>
      </trkpt>
      <trkpt lat="47.4338" lon="6.74415">
        <ele>404.6</ele>
        <time>2014-05-04T09:30:55.000Z</time>
      </trkpt>
      <trkpt lat="47.43384" lon="6.74417">
        <ele>405.1</ele>
        <time>2014-05-04T09:30:56.000Z</time>
      </trkpt>
      <trkpt lat="47.43388" lon="6.74419">
        <ele>404.1</ele>
        <time>2014-05-04T09:30:57.000Z</time>
      </trkpt>
      <trkpt lat="47.43391" lon="6.74421">
        <ele>404.6</ele>
        <time>2014-05-04T09:30:58.000Z</time>
      </trkpt>
      <trkpt lat="47.43395" lon="6.74423">
        <ele>405</ele>
        <time>2014-05-04T09:30:59.000Z</time>
      </trkpt>
      <trkpt lat="47.43398" lon="6.74425">
        <ele>405.5</ele>
        <time>2014-05-04T09:31:00.000Z</time>
      </trkpt>
      <trkpt lat="47.43402" lon="6.74427">
        <ele>405.5</ele>
        <time>2014-05-04T09:31:01.000Z</time>
      </trkpt>
      <trkpt lat="47.43406" lon="6.74428">
        <ele>405.7</ele>
        <time>2014-05-04T09:31:02.000Z</time>
      </trkpt>
      <trkpt lat="47.4341" lon="6.7443">
        <ele>406.3</ele>
        <time>2014-05-04T09:31:03.000Z</time>
      </trkpt>
      <trkpt lat="47.43413" lon="6.74432">
        <ele>406.4</ele>
        <time>2014-05-04T09:31:04.000Z</time>
      </trkpt>
      <trkpt lat="47.43417" lon="6.74434">
        <ele>407</ele>
        <time>2014-05-04T09:31:05.000Z</time>
      </trkpt>
      <trkpt lat="47.43421" lon="6.74435">
        <ele>407.1</ele>
        <time>2014-05-04T09:31:06.000Z</time>
      </trkpt>
      <trkpt lat="47.43425" lon="6.74437">
        <ele>407.8</ele>
        <time>2014-05-04T09:31:07.000Z</time>
      </trkpt>
      <trkpt lat="47.43429" lon="6.74439">
        <ele>407.4</ele>
        <time>2014-05-04T09:31:08.000Z</time>
      </trkpt>
      <trkpt lat="47.43433" lon="6.7444">
        <ele>407.7</ele>
        <time>2014-05-04T09:31:09.000Z</time>
      </trkpt>
      <trkpt lat="47.43437" lon="6.74442">
        <ele>407.4</ele>
        <time>2014-05-04T09:31:10.000Z</time>
      </trkpt>
      <trkpt lat="47.4344" lon="6.74444">
        <ele>407.9</ele>
        <time>2014-05-04T09:31:11.000Z</time>
      </trkpt>
      <trkpt lat="47.43444" lon="6.74446">
        <ele>409</ele>
        <time>2014-05-04T09:31:12.000Z</time>
      </trkpt>
      <trkpt lat="47.43447" lon="6.74448">
        <ele>408.9</ele>
        <time>2014-05-04T09:31:13.000Z</time>
      </trkpt>
      <trkpt lat="47.43451" lon="6.74449">
        <ele>409.1</ele>
        <time>2014-05-04T09:31:14.000Z</time>
      </trkpt>
      <trkpt lat="47.43454" lon="6.74451">
        <ele>408.9</ele>
        <time>2014-05-04T09:31:15.000Z</time>
      </trkpt>
      <trkpt lat="47.43458" lon="6.74452">
        <ele>409.8</ele>
        <time>2014-05-04T09:31:16.000Z</time>
      </trkpt>
      <trkpt lat="47.43461" lon="6.74454">
        <ele>408.6</ele>
        <time>2014-05-04T09:31:17.000Z</time>
      </trkpt>
      <trkpt lat="47.43465" lon="6.74454">
        <ele>407.6</ele>
        <time>2014-05-04T09:31:18.000Z</time>
      </trkpt>
      <trkpt lat="47.43469" lon="6.74455">
        <ele>406.5</ele>
        <time>2014-05-04T09:31:19.000Z</time>
      </trkpt>
      <trkpt lat="47.43474" lon="6.74454">
        <ele>405.8</ele>
        <time>2014-05-04T09:31:20.000Z</time>
      </trkpt>
      <trkpt lat="47.43478" lon="6.74454">
        <ele>406.2</ele>
        <time>2014-05-04T09:31:21.000Z</time>
      </trkpt>
      <trkpt lat="47.43482" lon="6.74453">
        <ele>406.3</ele>
        <time>2014-05-04T09:31:22.000Z</time>
      </trkpt>
      <trkpt lat="47.43487" lon="6.74452">
        <ele>405.1</ele>
        <time>2014-05-04T09:31:23.000Z</time>
      </trkpt>
      <trkpt lat="47.43491" lon="6.74451">
        <ele>405.2</ele>
        <time>2014-05-04T09:31:24.000Z</time>
      </trkpt>
      <trkpt lat="47.43495" lon="6.74451">
        <ele>405.5</ele>
        <time>2014-05-04T09:31:25.000Z</time>
      </trkpt>
      <trkpt lat="47.43498" lon="6.74451">
        <ele>406.7</ele>
        <time>2014-05-04T09:31:26.000Z</time>
      </trkpt>
      <trkpt lat="47.43502" lon="6.74451">
        <ele>407.3</ele>
        <time>2014-05-04T09:31:27.000Z</time>
      </trkpt>
      <trkpt lat="47.43506" lon="6.74452">
        <ele>407.8</ele>
        <time>2014-05-04T09:31:28.000Z</time>
      </trkpt>
      <trkpt lat="47.43509" lon="6.74453">
        <ele>406.9</ele>
        <time>2014-05-04T09:31:29.000Z</time>
      </trkpt>
      <trkpt lat="47.43513" lon="6.74455">
        <ele>407.3</ele>
        <time>2014-05-04T09:31:30.000Z</time>
      </trkpt>
      <trkpt lat="47.43517" lon="6.74458">
        <ele>407.1</ele>
        <time>2014-05-04T09:31:31.000Z</time>
      </trkpt>
      <trkpt lat="47.43521" lon="6.7446">
        <ele>407.1</ele>
        <time>2014-05-04T09:31:32.000Z</time>
      </trkpt>
      <trkpt lat="47.43524" lon="6.74462">
        <ele>407.4</ele>
        <time>2014-05-04T09:31:33.000Z</time>
      </trkpt>
      <trkpt lat="47.43528" lon="6.74464">
        <ele>408</ele>
        <time>2014-05-04T09:31:34.000Z</time>
      </trkpt>
      <trkpt lat="47.43531" lon="6.74466">
        <ele>409.6</ele>
        <time>2014-05-04T09:31:35.000Z</time>
      </trkpt>
      <trkpt lat="47.43535" lon="6.74468">
        <ele>410.5</ele>
        <time>2014-05-04T09:31:36.000Z</time>
      </trkpt>
      <trkpt lat="47.43538" lon="6.7447">
        <ele>411</ele>
        <time>2014-05-04T09:31:37.000Z</time>
      </trkpt>
      <trkpt lat="47.43541" lon="6.74471">
        <ele>411</ele>
        <time>2014-05-04T09:31:38.000Z</time>
      </trkpt>
      <trkpt lat="47.43545" lon="6.74473">
        <ele>410.6</ele>
        <time>2014-05-04T09:31:39.000Z</time>
      </trkpt>
      <trkpt lat="47.43548" lon="6.74474">
        <ele>411.1</ele>
        <time>2014-05-04T09:31:40.000Z</time>
      </trkpt>
      <trkpt lat="47.43551" lon="6.74475">
        <ele>411.2</ele>
        <time>2014-05-04T09:31:41.000Z</time>
      </trkpt>
      <trkpt lat="47.43554" lon="6.74477">
        <ele>411.3</ele>
        <time>2014-05-04T09:31:42.000Z</time>
      </trkpt>
      <trkpt lat="47.43558" lon="6.74478">
        <ele>410.8</ele>
        <time>2014-05-04T09:31:43.000Z</time>
      </trkpt>
      <trkpt lat="47.43567" lon="6.74482">
        <ele>410.9</ele>
        <time>2014-05-04T09:31:46.000Z</time>
      </trkpt>
      <trkpt lat="47.4357" lon="6.74483">
        <ele>409.9</ele>
        <time>2014-05-04T09:31:47.000Z</time>
      </trkpt>
      <trkpt lat="47.43573" lon="6.74485">
        <ele>410.5</ele>
        <time>2014-05-04T09:31:48.000Z</time>
      </trkpt>
      <trkpt lat="47.43577" lon="6.74486">
        <ele>409.6</ele>
        <time>2014-05-04T09:31:49.000Z</time>
      </trkpt>
      <trkpt lat="47.4358" lon="6.74487">
        <ele>409.4</ele>
        <time>2014-05-04T09:31:50.000Z</time>
      </trkpt>
      <trkpt lat="47.43583" lon="6.74489">
        <ele>408.7</ele>
        <time>2014-05-04T09:31:51.000Z</time>
      </trkpt>
      <trkpt lat="47.43586" lon="6.74491">
        <ele>409</ele>
        <time>2014-05-04T09:31:52.000Z</time>
      </trkpt>
      <trkpt lat="47.43589" lon="6.74492">
        <ele>408.6</ele>
        <time>2014-05-04T09:31:53.000Z</time>
      </trkpt>
      <trkpt lat="47.43591" lon="6.74494">
        <ele>408</ele>
        <time>2014-05-04T09:31:54.000Z</time>
      </trkpt>
      <trkpt lat="47.43594" lon="6.74496">
        <ele>408</ele>
        <time>2014-05-04T09:31:55.000Z</time>
      </trkpt>
      <trkpt lat="47.43597" lon="6.74498">
        <ele>407.7</ele>
        <time>2014-05-04T09:31:56.000Z</time>
      </trkpt>
      <trkpt lat="47.436" lon="6.745">
        <ele>406.6</ele>
        <time>2014-05-04T09:31:57.000Z</time>
      </trkpt>
      <trkpt lat="47.43603" lon="6.74502">
        <ele>407</ele>
        <time>2014-05-04T09:31:58.000Z</time>
      </trkpt>
      <trkpt lat="47.43605" lon="6.74504">
        <ele>407</ele>
        <time>2014-05-04T09:31:59.000Z</time>
      </trkpt>
      <trkpt lat="47.43608" lon="6.74507">
        <ele>406.2</ele>
        <time>2014-05-04T09:32:00.000Z</time>
      </trkpt>
      <trkpt lat="47.4361" lon="6.74511">
        <ele>405.9</ele>
        <time>2014-05-04T09:32:01.000Z</time>
      </trkpt>
      <trkpt lat="47.43612" lon="6.74514">
        <ele>405.6</ele>
        <time>2014-05-04T09:32:02.000Z</time>
      </trkpt>
      <trkpt lat="47.43614" lon="6.74518">
        <ele>406.2</ele>
        <time>2014-05-04T09:32:03.000Z</time>
      </trkpt>
      <trkpt lat="47.43616" lon="6.74522">
        <ele>406.6</ele>
        <time>2014-05-04T09:32:04.000Z</time>
      </trkpt>
      <trkpt lat="47.4362" lon="6.74528">
        <ele>405.7</ele>
        <time>2014-05-04T09:32:05.000Z</time>
      </trkpt>
      <trkpt lat="47.43623" lon="6.74532">
        <ele>405.7</ele>
        <time>2014-05-04T09:32:06.000Z</time>
      </trkpt>
      <trkpt lat="47.43627" lon="6.74537">
        <ele>404.9</ele>
        <time>2014-05-04T09:32:07.000Z</time>
      </trkpt>
      <trkpt lat="47.43632" lon="6.74542">
        <ele>404.6</ele>
        <time>2014-05-04T09:32:08.000Z</time>
      </trkpt>
      <trkpt lat="47.43637" lon="6.74547">
        <ele>404</ele>
        <time>2014-05-04T09:32:09.000Z</time>
      </trkpt>
      <trkpt lat="47.43642" lon="6.74552">
        <ele>403.4</ele>
        <time>2014-05-04T09:32:10.000Z</time>
      </trkpt>
      <trkpt lat="47.43648" lon="6.74558">
        <ele>402.5</ele>
        <time>2014-05-04T09:32:11.000Z</time>
      </trkpt>
      <trkpt lat="47.43654" lon="6.74564">
        <ele>403</ele>
        <time>2014-05-04T09:32:12.000Z</time>
      </trkpt>
      <trkpt lat="47.43659" lon="6.74571">
        <ele>402.8</ele>
        <time>2014-05-04T09:32:13.000Z</time>
      </trkpt>
      <trkpt lat="47.43666" lon="6.74577">
        <ele>402.2</ele>
        <time>2014-05-04T09:32:14.000Z</time>
      </trkpt>
      <trkpt lat="47.43672" lon="6.74583">
        <ele>401.4</ele>
        <time>2014-05-04T09:32:15.000Z</time>
      </trkpt>
      <trkpt lat="47.43678" lon="6.74589">
        <ele>401.3</ele>
        <time>2014-05-04T09:32:16.000Z</time>
      </trkpt>
      <trkpt lat="47.43685" lon="6.74597">
        <ele>400.1</ele>
        <time>2014-05-04T09:32:17.000Z</time>
      </trkpt>
      <trkpt lat="47.43691" lon="6.74604">
        <ele>399.1</ele>
        <time>2014-05-04T09:32:18.000Z</time>
      </trkpt>
      <trkpt lat="47.43698" lon="6.74612">
        <ele>397.9</ele>
        <time>2014-05-04T09:32:19.000Z</time>
      </trkpt>
      <trkpt lat="47.43706" lon="6.7462">
        <ele>396.9</ele>
        <time>2014-05-04T09:32:20.000Z</time>
      </trkpt>
      <trkpt lat="47.43713" lon="6.74627">
        <ele>396.3</ele>
        <time>2014-05-04T09:32:21.000Z</time>
      </trkpt>
      <trkpt lat="47.4372" lon="6.74635">
        <ele>395.2</ele>
        <time>2014-05-04T09:32:22.000Z</time>
      </trkpt>
      <trkpt lat="47.43729" lon="6.74644">
        <ele>393.7</ele>
        <time>2014-05-04T09:32:23.000Z</time>
      </trkpt>
      <trkpt lat="47.43736" lon="6.74652">
        <ele>393.8</ele>
        <time>2014-05-04T09:32:24.000Z</time>
      </trkpt>
      <trkpt lat="47.43745" lon="6.74659">
        <ele>392.8</ele>
        <time>2014-05-04T09:32:25.000Z</time>
      </trkpt>
      <trkpt lat="47.43753" lon="6.74664">
        <ele>388.7</ele>
        <time>2014-05-04T09:32:26.000Z</time>
      </trkpt>
      <trkpt lat="47.43761" lon="6.74671">
        <ele>387.8</ele>
        <time>2014-05-04T09:32:27.000Z</time>
      </trkpt>
      <trkpt lat="47.43768" lon="6.74678">
        <ele>385.8</ele>
        <time>2014-05-04T09:32:28.000Z</time>
      </trkpt>
      <trkpt lat="47.43775" lon="6.74685">
        <ele>384.3</ele>
        <time>2014-05-04T09:32:29.000Z</time>
      </trkpt>
      <trkpt lat="47.43783" lon="6.74693">
        <ele>385.1</ele>
        <time>2014-05-04T09:32:30.000Z</time>
      </trkpt>
      <trkpt lat="47.43791" lon="6.74701">
        <ele>384.4</ele>
        <time>2014-05-04T09:32:31.000Z</time>
      </trkpt>
      <trkpt lat="47.438" lon="6.74707">
        <ele>381.8</ele>
        <time>2014-05-04T09:32:32.000Z</time>
      </trkpt>
      <trkpt lat="47.43807" lon="6.74714">
        <ele>381.7</ele>
        <time>2014-05-04T09:32:33.000Z</time>
      </trkpt>
      <trkpt lat="47.43814" lon="6.74723">
        <ele>381.8</ele>
        <time>2014-05-04T09:32:34.000Z</time>
      </trkpt>
      <trkpt lat="47.43821" lon="6.74731">
        <ele>381.5</ele>
        <time>2014-05-04T09:32:35.000Z</time>
      </trkpt>
      <trkpt lat="47.43827" lon="6.74739">
        <ele>381.8</ele>
        <time>2014-05-04T09:32:36.000Z</time>
      </trkpt>
      <trkpt lat="47.43834" lon="6.74749">
        <ele>382</ele>
        <time>2014-05-04T09:32:37.000Z</time>
      </trkpt>
      <trkpt lat="47.43839" lon="6.74758">
        <ele>382.4</ele>
        <time>2014-05-04T09:32:38.000Z</time>
      </trkpt>
      <trkpt lat="47.43845" lon="6.74766">
        <ele>383.3</ele>
        <time>2014-05-04T09:32:39.000Z</time>
      </trkpt>
      <trkpt lat="47.43851" lon="6.74772">
        <ele>382.8</ele>
        <time>2014-05-04T09:32:40.000Z</time>
      </trkpt>
      <trkpt lat="47.43856" lon="6.74779">
        <ele>382.9</ele>
        <time>2014-05-04T09:32:41.000Z</time>
      </trkpt>
      <trkpt lat="47.43862" lon="6.74786">
        <ele>383.8</ele>
        <time>2014-05-04T09:32:42.000Z</time>
      </trkpt>
      <trkpt lat="47.43869" lon="6.74791">
        <ele>384.3</ele>
        <time>2014-05-04T09:32:43.000Z</time>
      </trkpt>
      <trkpt lat="47.43925" lon="6.74815">
        <ele>383.9</ele>
        <time>2014-05-04T09:32:51.000Z</time>
      </trkpt>
      <trkpt lat="47.43931" lon="6.74817">
        <ele>385.1</ele>
        <time>2014-05-04T09:32:52.000Z</time>
      </trkpt>
      <trkpt lat="47.43939" lon="6.74821">
        <ele>385</ele>
        <time>2014-05-04T09:32:53.000Z</time>
      </trkpt>
      <trkpt lat="47.43944" lon="6.74827">
        <ele>385.8</ele>
        <time>2014-05-04T09:32:54.000Z</time>
      </trkpt>
      <trkpt lat="47.4395" lon="6.74831">
        <ele>385.7</ele>
        <time>2014-05-04T09:32:55.000Z</time>
      </trkpt>
      <trkpt lat="47.43957" lon="6.74836">
        <ele>385.5</ele>
        <time>2014-05-04T09:32:56.000Z</time>
      </trkpt>
      <trkpt lat="47.43962" lon="6.74841">
        <ele>385.7</ele>
        <time>2014-05-04T09:32:57.000Z</time>
      </trkpt>
      <trkpt lat="47.43967" lon="6.74846">
        <ele>385.1</ele>
        <time>2014-05-04T09:32:58.000Z</time>
      </trkpt>
      <trkpt lat="47.43974" lon="6.74853">
        <ele>385.2</ele>
        <time>2014-05-04T09:32:59.000Z</time>
      </trkpt>
      <trkpt lat="47.4398" lon="6.7486">
        <ele>386.1</ele>
        <time>2014-05-04T09:33:00.000Z</time>
      </trkpt>
      <trkpt lat="47.43985" lon="6.74865">
        <ele>386.6</ele>
        <time>2014-05-04T09:33:01.000Z</time>
      </trkpt>
      <trkpt lat="47.43991" lon="6.74873">
        <ele>385.2</ele>
        <time>2014-05-04T09:33:02.000Z</time>
      </trkpt>
      <trkpt lat="47.43997" lon="6.7488">
        <ele>385.2</ele>
        <time>2014-05-04T09:33:03.000Z</time>
      </trkpt>
      <trkpt lat="47.44002" lon="6.74887">
        <ele>385.5</ele>
        <time>2014-05-04T09:33:04.000Z</time>
      </trkpt>
      <trkpt lat="47.44009" lon="6.74897">
        <ele>384.6</ele>
        <time>2014-05-04T09:33:05.000Z</time>
      </trkpt>
      <trkpt lat="47.44014" lon="6.74906">
        <ele>383.8</ele>
        <time>2014-05-04T09:33:06.000Z</time>
      </trkpt>
      <trkpt lat="47.44019" lon="6.74915">
        <ele>384.6</ele>
        <time>2014-05-04T09:33:07.000Z</time>
      </trkpt>
      <trkpt lat="47.44023" lon="6.74924">
        <ele>384.7</ele>
        <time>2014-05-04T09:33:08.000Z</time>
      </trkpt>
      <trkpt lat="47.44027" lon="6.74934">
        <ele>386.1</ele>
        <time>2014-05-04T09:33:09.000Z</time>
      </trkpt>
      <trkpt lat="47.44031" lon="6.74942">
        <ele>387.3</ele>
        <time>2014-05-04T09:33:10.000Z</time>
      </trkpt>
      <trkpt lat="47.44036" lon="6.74951">
        <ele>387.8</ele>
        <time>2014-05-04T09:33:11.000Z</time>
      </trkpt>
      <trkpt lat="47.44041" lon="6.74957">
        <ele>384.6</ele>
        <time>2014-05-04T09:33:12.000Z</time>
      </trkpt>
      <trkpt lat="47.44047" lon="6.74966">
        <ele>384.3</ele>
        <time>2014-05-04T09:33:13.000Z</time>
      </trkpt>
      <trkpt lat="47.44052" lon="6.74975">
        <ele>384.5</ele>
        <time>2014-05-04T09:33:14.000Z</time>
      </trkpt>
      <trkpt lat="47.44057" lon="6.74984">
        <ele>384.6</ele>
        <time>2014-05-04T09:33:15.000Z</time>
      </trkpt>
      <trkpt lat="47.44063" lon="6.74991">
        <ele>382.5</ele>
        <time>2014-05-04T09:33:16.000Z</time>
      </trkpt>
      <trkpt lat="47.44068" lon="6.74999">
        <ele>380.4</ele>
        <time>2014-05-04T09:33:17.000Z</time>
      </trkpt>
      <trkpt lat="47.44073" lon="6.75008">
        <ele>378.7</ele>
        <time>2014-05-04T09:33:18.000Z</time>
      </trkpt>
      <trkpt lat="47.44077" lon="6.75018">
        <ele>378.9</ele>
        <time>2014-05-04T09:33:19.000Z</time>
      </trkpt>
      <trkpt lat="47.44082" lon="6.75028">
        <ele>378.1</ele>
        <time>2014-05-04T09:33:20.000Z</time>
      </trkpt>
      <trkpt lat="47.44088" lon="6.75038">
        <ele>377.3</ele>
        <time>2014-05-04T09:33:21.000Z</time>
      </trkpt>
      <trkpt lat="47.44094" lon="6.75048">
        <ele>378.2</ele>
        <time>2014-05-04T09:33:22.000Z</time>
      </trkpt>
      <trkpt lat="47.44097" lon="6.75059">
        <ele>378.3</ele>
        <time>2014-05-04T09:33:23.000Z</time>
      </trkpt>
      <trkpt lat="47.44101" lon="6.75069">
        <ele>378.1</ele>
        <time>2014-05-04T09:33:24.000Z</time>
      </trkpt>
      <trkpt lat="47.44106" lon="6.75078">
        <ele>375.4</ele>
        <time>2014-05-04T09:33:25.000Z</time>
      </trkpt>
      <trkpt lat="47.44111" lon="6.75087">
        <ele>375.2</ele>
        <time>2014-05-04T09:33:26.000Z</time>
      </trkpt>
      <trkpt lat="47.44116" lon="6.75096">
        <ele>375.5</ele>
        <time>2014-05-04T09:33:27.000Z</time>
      </trkpt>
      <trkpt lat="47.44121" lon="6.75105">
        <ele>375.1</ele>
        <time>2014-05-04T09:33:28.000Z</time>
      </trkpt>
      <trkpt lat="47.44125" lon="6.75113">
        <ele>376.1</ele>
        <time>2014-05-04T09:33:29.000Z</time>
      </trkpt>
      <trkpt lat="47.44131" lon="6.75122">
        <ele>374.7</ele>
        <time>2014-05-04T09:33:30.000Z</time>
      </trkpt>
      <trkpt lat="47.44136" lon="6.75132">
        <ele>374.4</ele>
        <time>2014-05-04T09:33:31.000Z</time>
      </trkpt>
      <trkpt lat="47.44141" lon="6.75141">
        <ele>373.8</ele>
        <time>2014-05-04T09:33:32.000Z</time>
      </trkpt>
      <trkpt lat="47.44147" lon="6.7515">
        <ele>374.8</ele>
        <time>2014-05-04T09:33:33.000Z</time>
      </trkpt>
      <trkpt lat="47.44151" lon="6.75158">
        <ele>375.8</ele>
        <time>2014-05-04T09:33:34.000Z</time>
      </trkpt>
      <trkpt lat="47.44157" lon="6.75166">
        <ele>374.8</ele>
        <time>2014-05-04T09:33:35.000Z</time>
      </trkpt>
      <trkpt lat="47.44161" lon="6.75172">
        <ele>374.9</ele>
        <time>2014-05-04T09:33:36.000Z</time>
      </trkpt>
      <trkpt lat="47.44166" lon="6.75178">
        <ele>375.1</ele>
        <time>2014-05-04T09:33:37.000Z</time>
      </trkpt>
      <trkpt lat="47.44171" lon="6.75184">
        <ele>375</ele>
        <time>2014-05-04T09:33:38.000Z</time>
      </trkpt>
      <trkpt lat="47.44176" lon="6.75191">
        <ele>374.8</ele>
        <time>2014-05-04T09:33:39.000Z</time>
      </trkpt>
      <trkpt lat="47.4418" lon="6.75198">
        <ele>375.2</ele>
        <time>2014-05-04T09:33:40.000Z</time>
      </trkpt>
      <trkpt lat="47.44185" lon="6.75204">
        <ele>373.9</ele>
        <time>2014-05-04T09:33:41.000Z</time>
      </trkpt>
      <trkpt lat="47.44191" lon="6.75211">
        <ele>373.5</ele>
        <time>2014-05-04T09:33:42.000Z</time>
      </trkpt>
      <trkpt lat="47.44197" lon="6.75218">
        <ele>373.8</ele>
        <time>2014-05-04T09:33:43.000Z</time>
      </trkpt>
      <trkpt lat="47.44246" lon="6.75265">
        <ele>375.1</ele>
        <time>2014-05-04T09:33:51.000Z</time>
      </trkpt>
      <trkpt lat="47.44251" lon="6.7527">
        <ele>375</ele>
        <time>2014-05-04T09:33:52.000Z</time>
      </trkpt>
      <trkpt lat="47.44257" lon="6.75274">
        <ele>375.6</ele>
        <time>2014-05-04T09:33:53.000Z</time>
      </trkpt>
      <trkpt lat="47.44263" lon="6.75278">
        <ele>375.6</ele>
        <time>2014-05-04T09:33:54.000Z</time>
      </trkpt>
      <trkpt lat="47.44269" lon="6.75284">
        <ele>375.5</ele>
        <time>2014-05-04T09:33:55.000Z</time>
      </trkpt>
      <trkpt lat="47.44276" lon="6.75289">
        <ele>375.8</ele>
        <time>2014-05-04T09:33:56.000Z</time>
      </trkpt>
      <trkpt lat="47.44282" lon="6.75294">
        <ele>375.6</ele>
        <time>2014-05-04T09:33:57.000Z</time>
      </trkpt>
      <trkpt lat="47.4429" lon="6.753">
        <ele>374.6</ele>
        <time>2014-05-04T09:33:58.000Z</time>
      </trkpt>
      <trkpt lat="47.44298" lon="6.75304">
        <ele>374.5</ele>
        <time>2014-05-04T09:33:59.000Z</time>
      </trkpt>
      <trkpt lat="47.44306" lon="6.75308">
        <ele>373.7</ele>
        <time>2014-05-04T09:34:00.000Z</time>
      </trkpt>
      <trkpt lat="47.44313" lon="6.75312">
        <ele>373</ele>
        <time>2014-05-04T09:34:01.000Z</time>
      </trkpt>
      <trkpt lat="47.44321" lon="6.75315">
        <ele>372.9</ele>
        <time>2014-05-04T09:34:02.000Z</time>
      </trkpt>
      <trkpt lat="47.44328" lon="6.75319">
        <ele>373.5</ele>
        <time>2014-05-04T09:34:03.000Z</time>
      </trkpt>
      <trkpt lat="47.44337" lon="6.75322">
        <ele>372.5</ele>
        <time>2014-05-04T09:34:04.000Z</time>
      </trkpt>
      <trkpt lat="47.44344" lon="6.75324">
        <ele>372.9</ele>
        <time>2014-05-04T09:34:05.000Z</time>
      </trkpt>
      <trkpt lat="47.44351" lon="6.75326">
        <ele>372</ele>
        <time>2014-05-04T09:34:06.000Z</time>
      </trkpt>
      <trkpt lat="47.44359" lon="6.75329">
        <ele>372</ele>
        <time>2014-05-04T09:34:07.000Z</time>
      </trkpt>
      <trkpt lat="47.44366" lon="6.75333">
        <ele>371.4</ele>
        <time>2014-05-04T09:34:08.000Z</time>
      </trkpt>
      <trkpt lat="47.44373" lon="6.75337">
        <ele>371.8</ele>
        <time>2014-05-04T09:34:09.000Z</time>
      </trkpt>
      <trkpt lat="47.4438" lon="6.75342">
        <ele>373.6</ele>
        <time>2014-05-04T09:34:10.000Z</time>
      </trkpt>
      <trkpt lat="47.44386" lon="6.75348">
        <ele>374.2</ele>
        <time>2014-05-04T09:34:11.000Z</time>
      </trkpt>
      <trkpt lat="47.44392" lon="6.75355">
        <ele>375.1</ele>
        <time>2014-05-04T09:34:12.000Z</time>
      </trkpt>
      <trkpt lat="47.44398" lon="6.7536">
        <ele>375.7</ele>
        <time>2014-05-04T09:34:13.000Z</time>
      </trkpt>
      <trkpt lat="47.44404" lon="6.75368">
        <ele>376</ele>
        <time>2014-05-04T09:34:14.000Z</time>
      </trkpt>
      <trkpt lat="47.44411" lon="6.75375">
        <ele>375.7</ele>
        <time>2014-05-04T09:34:15.000Z</time>
      </trkpt>
      <trkpt lat="47.44417" lon="6.75381">
        <ele>377.2</ele>
        <time>2014-05-04T09:34:16.000Z</time>
      </trkpt>
      <trkpt lat="47.44423" lon="6.75387">
        <ele>377.6</ele>
        <time>2014-05-04T09:34:17.000Z</time>
      </trkpt>
      <trkpt lat="47.44429" lon="6.75394">
        <ele>377.1</ele>
        <time>2014-05-04T09:34:18.000Z</time>
      </trkpt>
      <trkpt lat="47.44436" lon="6.75401">
        <ele>376.9</ele>
        <time>2014-05-04T09:34:19.000Z</time>
      </trkpt>
      <trkpt lat="47.44443" lon="6.75407">
        <ele>376</ele>
        <time>2014-05-04T09:34:20.000Z</time>
      </trkpt>
      <trkpt lat="47.4445" lon="6.75412">
        <ele>375.2</ele>
        <time>2014-05-04T09:34:21.000Z</time>
      </trkpt>
      <trkpt lat="47.44457" lon="6.75419">
        <ele>375.1</ele>
        <time>2014-05-04T09:34:22.000Z</time>
      </trkpt>
      <trkpt lat="47.44465" lon="6.75425">
        <ele>375.3</ele>
        <time>2014-05-04T09:34:23.000Z</time>
      </trkpt>
      <trkpt lat="47.44472" lon="6.75431">
        <ele>374.7</ele>
        <time>2014-05-04T09:34:24.000Z</time>
      </trkpt>
      <trkpt lat="47.44478" lon="6.75436">
        <ele>375.3</ele>
        <time>2014-05-04T09:34:25.000Z</time>
      </trkpt>
      <trkpt lat="47.44483" lon="6.75439">
        <ele>375.4</ele>
        <time>2014-05-04T09:34:26.000Z</time>
      </trkpt>
      <trkpt lat="47.44489" lon="6.75444">
        <ele>376.5</ele>
        <time>2014-05-04T09:34:27.000Z</time>
      </trkpt>
      <trkpt lat="47.44495" lon="6.75447">
        <ele>377.1</ele>
        <time>2014-05-04T09:34:28.000Z</time>
      </trkpt>
      <trkpt lat="47.44501" lon="6.75451">
        <ele>377.6</ele>
        <time>2014-05-04T09:34:29.000Z</time>
      </trkpt>
      <trkpt lat="47.44507" lon="6.75453">
        <ele>377</ele>
        <time>2014-05-04T09:34:29.999Z</time>
      </trkpt>
      <trkpt lat="47.44513" lon="6.75457">
        <ele>378.4</ele>
        <time>2014-05-04T09:34:31.001Z</time>
      </trkpt>
      <trkpt lat="47.44519" lon="6.75459">
        <ele>378.4</ele>
        <time>2014-05-04T09:34:32.000Z</time>
      </trkpt>
      <trkpt lat="47.44526" lon="6.75461">
        <ele>378.3</ele>
        <time>2014-05-04T09:34:33.000Z</time>
      </trkpt>
      <trkpt lat="47.44533" lon="6.75462">
        <ele>377.5</ele>
        <time>2014-05-04T09:34:34.000Z</time>
      </trkpt>
      <trkpt lat="47.44541" lon="6.75462">
        <ele>377.4</ele>
        <time>2014-05-04T09:34:35.000Z</time>
      </trkpt>
      <trkpt lat="47.44548" lon="6.75462">
        <ele>377.7</ele>
        <time>2014-05-04T09:34:36.000Z</time>
      </trkpt>
      <trkpt lat="47.44555" lon="6.75462">
        <ele>377.5</ele>
        <time>2014-05-04T09:34:37.000Z</time>
      </trkpt>
      <trkpt lat="47.44562" lon="6.75461">
        <ele>377</ele>
        <time>2014-05-04T09:34:38.000Z</time>
      </trkpt>
      <trkpt lat="47.44569" lon="6.7546">
        <ele>376.9</ele>
        <time>2014-05-04T09:34:39.000Z</time>
      </trkpt>
      <trkpt lat="47.44576" lon="6.75459">
        <ele>376.8</ele>
        <time>2014-05-04T09:34:40.000Z</time>
      </trkpt>
      <trkpt lat="47.44582" lon="6.75459">
        <ele>376.7</ele>
        <time>2014-05-04T09:34:41.000Z</time>
      </trkpt>
      <trkpt lat="47.44589" lon="6.75458">
        <ele>376.3</ele>
        <time>2014-05-04T09:34:42.000Z</time>
      </trkpt>
      <trkpt lat="47.44595" lon="6.75458">
        <ele>376</ele>
        <time>2014-05-04T09:34:43.000Z</time>
      </trkpt>
      <trkpt lat="47.44602" lon="6.75457">
        <ele>375.9</ele>
        <time>2014-05-04T09:34:44.000Z</time>
      </trkpt>
      <trkpt lat="47.44608" lon="6.75457">
        <ele>375.8</ele>
        <time>2014-05-04T09:34:45.000Z</time>
      </trkpt>
      <trkpt lat="47.44614" lon="6.75456">
        <ele>375.1</ele>
        <time>2014-05-04T09:34:46.000Z</time>
      </trkpt>
      <trkpt lat="47.44619" lon="6.75456">
        <ele>374.7</ele>
        <time>2014-05-04T09:34:47.000Z</time>
      </trkpt>
      <trkpt lat="47.44625" lon="6.75455">
        <ele>374.2</ele>
        <time>2014-05-04T09:34:48.000Z</time>
      </trkpt>
      <trkpt lat="47.44631" lon="6.75456">
        <ele>373.5</ele>
        <time>2014-05-04T09:34:49.000Z</time>
      </trkpt>
      <trkpt lat="47.44637" lon="6.75456">
        <ele>373.5</ele>
        <time>2014-05-04T09:34:50.000Z</time>
      </trkpt>
      <trkpt lat="47.44643" lon="6.75456">
        <ele>373.9</ele>
        <time>2014-05-04T09:34:51.000Z</time>
      </trkpt>
      <trkpt lat="47.44649" lon="6.75455">
        <ele>374.2</ele>
        <time>2014-05-04T09:34:52.000Z</time>
      </trkpt>
      <trkpt lat="47.44655" lon="6.75456">
        <ele>373.7</ele>
        <time>2014-05-04T09:34:53.000Z</time>
      </trkpt>
      <trkpt lat="47.44661" lon="6.75457">
        <ele>373.4</ele>
        <time>2014-05-04T09:34:54.000Z</time>
      </trkpt>
      <trkpt lat="47.44668" lon="6.75457">
        <ele>373.6</ele>
        <time>2014-05-04T09:34:55.000Z</time>
      </trkpt>
      <trkpt lat="47.44675" lon="6.75457">
        <ele>371.8</ele>
        <time>2014-05-04T09:34:56.000Z</time>
      </trkpt>
      <trkpt lat="47.44681" lon="6.75457">
        <ele>371.2</ele>
        <time>2014-05-04T09:34:57.000Z</time>
      </trkpt>
      <trkpt lat="47.44688" lon="6.75457">
        <ele>370.9</ele>
        <time>2014-05-04T09:34:58.000Z</time>
      </trkpt>
      <trkpt lat="47.44695" lon="6.75458">
        <ele>370.8</ele>
        <time>2014-05-04T09:34:59.000Z</time>
      </trkpt>
      <trkpt lat="47.44703" lon="6.75458">
        <ele>371</ele>
        <time>2014-05-04T09:35:00.000Z</time>
      </trkpt>
      <trkpt lat="47.4471" lon="6.75457">
        <ele>370.8</ele>
        <time>2014-05-04T09:35:01.000Z</time>
      </trkpt>
      <trkpt lat="47.44718" lon="6.75457">
        <ele>370</ele>
        <time>2014-05-04T09:35:02.000Z</time>
      </trkpt>
      <trkpt lat="47.44727" lon="6.75456">
        <ele>368.3</ele>
        <time>2014-05-04T09:35:03.000Z</time>
      </trkpt>
      <trkpt lat="47.44736" lon="6.75455">
        <ele>367.4</ele>
        <time>2014-05-04T09:35:04.000Z</time>
      </trkpt>
      <trkpt lat="47.44743" lon="6.75455">
        <ele>368</ele>
        <time>2014-05-04T09:35:05.000Z</time>
      </trkpt>
      <trkpt lat="47.44751" lon="6.75454">
        <ele>368</ele>
        <time>2014-05-04T09:35:06.000Z</time>
      </trkpt>
      <trkpt lat="47.44759" lon="6.75453">
        <ele>367.5</ele>
        <time>2014-05-04T09:35:07.000Z</time>
      </trkpt>
      <trkpt lat="47.44767" lon="6.75451">
        <ele>368.1</ele>
        <time>2014-05-04T09:35:08.000Z</time>
      </trkpt>
      <trkpt lat="47.44775" lon="6.7545">
        <ele>368</ele>
        <time>2014-05-04T09:35:09.000Z</time>
      </trkpt>
      <trkpt lat="47.44783" lon="6.75448">
        <ele>369</ele>
        <time>2014-05-04T09:35:10.000Z</time>
      </trkpt>
      <trkpt lat="47.4479" lon="6.75448">
        <ele>369.3</ele>
        <time>2014-05-04T09:35:11.000Z</time>
      </trkpt>
      <trkpt lat="47.44798" lon="6.75446">
        <ele>369.4</ele>
        <time>2014-05-04T09:35:12.000Z</time>
      </trkpt>
      <trkpt lat="47.44805" lon="6.75446">
        <ele>369.3</ele>
        <time>2014-05-04T09:35:13.000Z</time>
      </trkpt>
      <trkpt lat="47.44813" lon="6.75445">
        <ele>369.5</ele>
        <time>2014-05-04T09:35:14.000Z</time>
      </trkpt>
      <trkpt lat="47.4482" lon="6.75444">
        <ele>368.6</ele>
        <time>2014-05-04T09:35:15.000Z</time>
      </trkpt>
      <trkpt lat="47.44828" lon="6.75442">
        <ele>368.2</ele>
        <time>2014-05-04T09:35:16.000Z</time>
      </trkpt>
      <trkpt lat="47.44835" lon="6.75442">
        <ele>369.8</ele>
        <time>2014-05-04T09:35:17.000Z</time>
      </trkpt>
      <trkpt lat="47.44843" lon="6.75441">
        <ele>368.8</ele>
        <time>2014-05-04T09:35:18.000Z</time>
      </trkpt>
      <trkpt lat="47.4485" lon="6.7544">
        <ele>367.5</ele>
        <time>2014-05-04T09:35:19.000Z</time>
      </trkpt>
      <trkpt lat="47.44857" lon="6.75439">
        <ele>368.2</ele>
        <time>2014-05-04T09:35:20.000Z</time>
      </trkpt>
      <trkpt lat="47.44864" lon="6.75439">
        <ele>368.2</ele>
        <time>2014-05-04T09:35:21.000Z</time>
      </trkpt>
      <trkpt lat="47.44872" lon="6.75438">
        <ele>368</ele>
        <time>2014-05-04T09:35:22.000Z</time>
      </trkpt>
      <trkpt lat="47.4488" lon="6.75438">
        <ele>367.2</ele>
        <time>2014-05-04T09:35:23.000Z</time>
      </trkpt>
      <trkpt lat="47.44887" lon="6.75438">
        <ele>366.9</ele>
        <time>2014-05-04T09:35:24.000Z</time>
      </trkpt>
      <trkpt lat="47.44895" lon="6.75438">
        <ele>366.7</ele>
        <time>2014-05-04T09:35:25.000Z</time>
      </trkpt>
      <trkpt lat="47.44903" lon="6.75438">
        <ele>367</ele>
        <time>2014-05-04T09:35:26.000Z</time>
      </trkpt>
      <trkpt lat="47.4491" lon="6.75438">
        <ele>366.6</ele>
        <time>2014-05-04T09:35:27.000Z</time>
      </trkpt>
      <trkpt lat="47.44917" lon="6.75438">
        <ele>365.7</ele>
        <time>2014-05-04T09:35:28.000Z</time>
      </trkpt>
      <trkpt lat="47.44924" lon="6.75439">
        <ele>366</ele>
        <time>2014-05-04T09:35:29.000Z</time>
      </trkpt>
      <trkpt lat="47.44932" lon="6.75439">
        <ele>366.3</ele>
        <time>2014-05-04T09:35:30.000Z</time>
      </trkpt>
      <trkpt lat="47.4494" lon="6.75441">
        <ele>365.2</ele>
        <time>2014-05-04T09:35:31.000Z</time>
      </trkpt>
      <trkpt lat="47.44947" lon="6.75442">
        <ele>365.2</ele>
        <time>2014-05-04T09:35:32.000Z</time>
      </trkpt>
      <trkpt lat="47.44954" lon="6.75443">
        <ele>365.3</ele>
        <time>2014-05-04T09:35:33.000Z</time>
      </trkpt>
      <trkpt lat="47.44962" lon="6.75444">
        <ele>364.3</ele>
        <time>2014-05-04T09:35:34.000Z</time>
      </trkpt>
      <trkpt lat="47.4497" lon="6.75445">
        <ele>364</ele>
        <time>2014-05-04T09:35:35.000Z</time>
      </trkpt>
      <trkpt lat="47.44978" lon="6.75445">
        <ele>364.8</ele>
        <time>2014-05-04T09:35:36.000Z</time>
      </trkpt>
      <trkpt lat="47.44985" lon="6.75447">
        <ele>364.8</ele>
        <time>2014-05-04T09:35:37.000Z</time>
      </trkpt>
      <trkpt lat="47.44992" lon="6.75448">
        <ele>365.2</ele>
        <time>2014-05-04T09:35:38.000Z</time>
      </trkpt>
      <trkpt lat="47.45" lon="6.7545">
        <ele>365.4</ele>
        <time>2014-05-04T09:35:39.000Z</time>
      </trkpt>
      <trkpt lat="47.45008" lon="6.75451">
        <ele>366.2</ele>
        <time>2014-05-04T09:35:40.000Z</time>
      </trkpt>
      <trkpt lat="47.45016" lon="6.75452">
        <ele>365.4</ele>
        <time>2014-05-04T09:35:41.000Z</time>
      </trkpt>
      <trkpt lat="47.45023" lon="6.75452">
        <ele>365.9</ele>
        <time>2014-05-04T09:35:42.000Z</time>
      </trkpt>
      <trkpt lat="47.4503" lon="6.75453">
        <ele>366.8</ele>
        <time>2014-05-04T09:35:43.000Z</time>
      </trkpt>
      <trkpt lat="47.45085" lon="6.75442">
        <ele>365.5</ele>
        <time>2014-05-04T09:35:51.000Z</time>
      </trkpt>
      <trkpt lat="47.45091" lon="6.75441">
        <ele>364.9</ele>
        <time>2014-05-04T09:35:52.000Z</time>
      </trkpt>
      <trkpt lat="47.45097" lon="6.75439">
        <ele>364.2</ele>
        <time>2014-05-04T09:35:53.000Z</time>
      </trkpt>
      <trkpt lat="47.45102" lon="6.75438">
        <ele>364.9</ele>
        <time>2014-05-04T09:35:54.000Z</time>
      </trkpt>
      <trkpt lat="47.45108" lon="6.75438">
        <ele>364.1</ele>
        <time>2014-05-04T09:35:55.000Z</time>
      </trkpt>
      <trkpt lat="47.45113" lon="6.75436">
        <ele>363.8</ele>
        <time>2014-05-04T09:35:56.000Z</time>
      </trkpt>
      <trkpt lat="47.45119" lon="6.75434">
        <ele>363.9</ele>
        <time>2014-05-04T09:35:57.000Z</time>
      </trkpt>
      <trkpt lat="47.45124" lon="6.75434">
        <ele>363.9</ele>
        <time>2014-05-04T09:35:58.000Z</time>
      </trkpt>
      <trkpt lat="47.4513" lon="6.75432">
        <ele>364.4</ele>
        <time>2014-05-04T09:35:59.000Z</time>
      </trkpt>
      <trkpt lat="47.45136" lon="6.75431">
        <ele>364.9</ele>
        <time>2014-05-04T09:36:00.000Z</time>
      </trkpt>
      <trkpt lat="47.45142" lon="6.75428">
        <ele>365.5</ele>
        <time>2014-05-04T09:36:01.000Z</time>
      </trkpt>
      <trkpt lat="47.45149" lon="6.75427">
        <ele>366.1</ele>
        <time>2014-05-04T09:36:02.000Z</time>
      </trkpt>
      <trkpt lat="47.45154" lon="6.75426">
        <ele>366.6</ele>
        <time>2014-05-04T09:36:03.000Z</time>
      </trkpt>
      <trkpt lat="47.45161" lon="6.75423">
        <ele>365.8</ele>
        <time>2014-05-04T09:36:04.000Z</time>
      </trkpt>
      <trkpt lat="47.45168" lon="6.75421">
        <ele>364.7</ele>
        <time>2014-05-04T09:36:05.000Z</time>
      </trkpt>
      <trkpt lat="47.45174" lon="6.75418">
        <ele>363.8</ele>
        <time>2014-05-04T09:36:06.000Z</time>
      </trkpt>
      <trkpt lat="47.4518" lon="6.75415">
        <ele>364.2</ele>
        <time>2014-05-04T09:36:07.000Z</time>
      </trkpt>
      <trkpt lat="47.45186" lon="6.75411">
        <ele>364.8</ele>
        <time>2014-05-04T09:36:08.000Z</time>
      </trkpt>
      <trkpt lat="47.45193" lon="6.75408">
        <ele>364.1</ele>
        <time>2014-05-04T09:36:09.000Z</time>
      </trkpt>
      <trkpt lat="47.45198" lon="6.75405">
        <ele>363.4</ele>
        <time>2014-05-04T09:36:10.000Z</time>
      </trkpt>
      <trkpt lat="47.45205" lon="6.75401">
        <ele>363.9</ele>
        <time>2014-05-04T09:36:11.000Z</time>
      </trkpt>
      <trkpt lat="47.45211" lon="6.75398">
        <ele>363.2</ele>
        <time>2014-05-04T09:36:12.000Z</time>
      </trkpt>
      <trkpt lat="47.45217" lon="6.75395">
        <ele>364.1</ele>
        <time>2014-05-04T09:36:13.000Z</time>
      </trkpt>
      <trkpt lat="47.45223" lon="6.75392">
        <ele>363.9</ele>
        <time>2014-05-04T09:36:14.000Z</time>
      </trkpt>
      <trkpt lat="47.4523" lon="6.75388">
        <ele>363.5</ele>
        <time>2014-05-04T09:36:15.000Z</time>
      </trkpt>
      <trkpt lat="47.45236" lon="6.75385">
        <ele>363.5</ele>
        <time>2014-05-04T09:36:16.000Z</time>
      </trkpt>
      <trkpt lat="47.45242" lon="6.75381">
        <ele>364.2</ele>
        <time>2014-05-04T09:36:17.000Z</time>
      </trkpt>
      <trkpt lat="47.45247" lon="6.75379">
        <ele>363.6</ele>
        <time>2014-05-04T09:36:18.000Z</time>
      </trkpt>
      <trkpt lat="47.45253" lon="6.75376">
        <ele>364.3</ele>
        <time>2014-05-04T09:36:19.000Z</time>
      </trkpt>
      <trkpt lat="47.45259" lon="6.75373">
        <ele>364.1</ele>
        <time>2014-05-04T09:36:20.000Z</time>
      </trkpt>
      <trkpt lat="47.45265" lon="6.7537">
        <ele>363.7</ele>
        <time>2014-05-04T09:36:21.000Z</time>
      </trkpt>
      <trkpt lat="47.45271" lon="6.75367">
        <ele>363.4</ele>
        <time>2014-05-04T09:36:22.000Z</time>
      </trkpt>
      <trkpt lat="47.45276" lon="6.75365">
        <ele>363.9</ele>
        <time>2014-05-04T09:36:23.000Z</time>
      </trkpt>
      <trkpt lat="47.45282" lon="6.75361">
        <ele>364.2</ele>
        <time>2014-05-04T09:36:24.000Z</time>
      </trkpt>
      <trkpt lat="47.45288" lon="6.75358">
        <ele>364.1</ele>
        <time>2014-05-04T09:36:25.000Z</time>
      </trkpt>
      <trkpt lat="47.45294" lon="6.75354">
        <ele>364.1</ele>
        <time>2014-05-04T09:36:26.000Z</time>
      </trkpt>
      <trkpt lat="47.453" lon="6.75351">
        <ele>364</ele>
        <time>2014-05-04T09:36:27.000Z</time>
      </trkpt>
      <trkpt lat="47.45305" lon="6.75348">
        <ele>363.8</ele>
        <time>2014-05-04T09:36:28.000Z</time>
      </trkpt>
      <trkpt lat="47.45312" lon="6.75344">
        <ele>364.1</ele>
        <time>2014-05-04T09:36:29.000Z</time>
      </trkpt>
      <trkpt lat="47.45318" lon="6.7534">
        <ele>364.1</ele>
        <time>2014-05-04T09:36:30.000Z</time>
      </trkpt>
      <trkpt lat="47.45324" lon="6.75336">
        <ele>363.7</ele>
        <time>2014-05-04T09:36:31.000Z</time>
      </trkpt>
      <trkpt lat="47.4533" lon="6.75332">
        <ele>364.1</ele>
        <time>2014-05-04T09:36:32.001Z</time>
      </trkpt>
      <trkpt lat="47.45336" lon="6.75328">
        <ele>364</ele>
        <time>2014-05-04T09:36:33.000Z</time>
      </trkpt>
      <trkpt lat="47.45342" lon="6.75325">
        <ele>364</ele>
        <time>2014-05-04T09:36:34.000Z</time>
      </trkpt>
      <trkpt lat="47.45349" lon="6.75322">
        <ele>363.8</ele>
        <time>2014-05-04T09:36:35.000Z</time>
      </trkpt>
      <trkpt lat="47.45357" lon="6.75319">
        <ele>363.2</ele>
        <time>2014-05-04T09:36:36.000Z</time>
      </trkpt>
      <trkpt lat="47.45364" lon="6.75316">
        <ele>362</ele>
        <time>2014-05-04T09:36:37.000Z</time>
      </trkpt>
      <trkpt lat="47.4537" lon="6.75311">
        <ele>362.3</ele>
        <time>2014-05-04T09:36:38.000Z</time>
      </trkpt>
      <trkpt lat="47.45378" lon="6.75308">
        <ele>361.3</ele>
        <time>2014-05-04T09:36:39.000Z</time>
      </trkpt>
      <trkpt lat="47.45386" lon="6.75305">
        <ele>360.2</ele>
        <time>2014-05-04T09:36:40.000Z</time>
      </trkpt>
      <trkpt lat="47.45393" lon="6.75305">
        <ele>360.8</ele>
        <time>2014-05-04T09:36:41.000Z</time>
      </trkpt>
      <trkpt lat="47.45401" lon="6.75305">
        <ele>360.7</ele>
        <time>2014-05-04T09:36:42.000Z</time>
      </trkpt>
      <trkpt lat="47.45409" lon="6.75305">
        <ele>360.7</ele>
        <time>2014-05-04T09:36:43.000Z</time>
      </trkpt>
      <trkpt lat="47.45466" lon="6.75324">
        <ele>359.8</ele>
        <time>2014-05-04T09:36:51.000Z</time>
      </trkpt>
      <trkpt lat="47.45473" lon="6.75327">
        <ele>359</ele>
        <time>2014-05-04T09:36:52.000Z</time>
      </trkpt>
      <trkpt lat="47.4548" lon="6.75328">
        <ele>359</ele>
        <time>2014-05-04T09:36:53.000Z</time>
      </trkpt>
      <trkpt lat="47.45486" lon="6.75332">
        <ele>358.3</ele>
        <time>2014-05-04T09:36:54.000Z</time>
      </trkpt>
      <trkpt lat="47.45493" lon="6.75333">
        <ele>358.1</ele>
        <time>2014-05-04T09:36:55.000Z</time>
      </trkpt>
      <trkpt lat="47.455" lon="6.75336">
        <ele>357.4</ele>
        <time>2014-05-04T09:36:56.000Z</time>
      </trkpt>
      <trkpt lat="47.45506" lon="6.75339">
        <ele>357.9</ele>
        <time>2014-05-04T09:36:57.000Z</time>
      </trkpt>
      <trkpt lat="47.45513" lon="6.75342">
        <ele>357.5</ele>
        <time>2014-05-04T09:36:58.000Z</time>
      </trkpt>
      <trkpt lat="47.4552" lon="6.75345">
        <ele>357.2</ele>
        <time>2014-05-04T09:36:59.000Z</time>
      </trkpt>
      <trkpt lat="47.45526" lon="6.75348">
        <ele>356.9</ele>
        <time>2014-05-04T09:37:00.000Z</time>
      </trkpt>
      <trkpt lat="47.45532" lon="6.75352">
        <ele>358</ele>
        <time>2014-05-04T09:37:01.000Z</time>
      </trkpt>
      <trkpt lat="47.45538" lon="6.75355">
        <ele>358</ele>
        <time>2014-05-04T09:37:02.000Z</time>
      </trkpt>
      <trkpt lat="47.45545" lon="6.75358">
        <ele>358.3</ele>
        <time>2014-05-04T09:37:03.000Z</time>
      </trkpt>
      <trkpt lat="47.45551" lon="6.75363">
        <ele>358.8</ele>
        <time>2014-05-04T09:37:04.000Z</time>
      </trkpt>
      <trkpt lat="47.45557" lon="6.75367">
        <ele>359.6</ele>
        <time>2014-05-04T09:37:05.000Z</time>
      </trkpt>
      <trkpt lat="47.45563" lon="6.75371">
        <ele>359.5</ele>
        <time>2014-05-04T09:37:06.000Z</time>
      </trkpt>
      <trkpt lat="47.4557" lon="6.75375">
        <ele>359.4</ele>
        <time>2014-05-04T09:37:07.000Z</time>
      </trkpt>
      <trkpt lat="47.45576" lon="6.75379">
        <ele>360</ele>
        <time>2014-05-04T09:37:08.000Z</time>
      </trkpt>
      <trkpt lat="47.45583" lon="6.75383">
        <ele>360.7</ele>
        <time>2014-05-04T09:37:09.000Z</time>
      </trkpt>
      <trkpt lat="47.45589" lon="6.75387">
        <ele>360.9</ele>
        <time>2014-05-04T09:37:10.000Z</time>
      </trkpt>
      <trkpt lat="47.45596" lon="6.7539">
        <ele>361.1</ele>
        <time>2014-05-04T09:37:11.000Z</time>
      </trkpt>
      <trkpt lat="47.45602" lon="6.75394">
        <ele>362.6</ele>
        <time>2014-05-04T09:37:12.000Z</time>
      </trkpt>
      <trkpt lat="47.45609" lon="6.75398">
        <ele>362.1</ele>
        <time>2014-05-04T09:37:13.000Z</time>
      </trkpt>
      <trkpt lat="47.45616" lon="6.75402">
        <ele>362.8</ele>
        <time>2014-05-04T09:37:14.000Z</time>
      </trkpt>
      <trkpt lat="47.45622" lon="6.75407">
        <ele>363.3</ele>
        <time>2014-05-04T09:37:15.000Z</time>
      </trkpt>
      <trkpt lat="47.45629" lon="6.75413">
        <ele>363.3</ele>
        <time>2014-05-04T09:37:16.000Z</time>
      </trkpt>
      <trkpt lat="47.45635" lon="6.75418">
        <ele>363.4</ele>
        <time>2014-05-04T09:37:17.000Z</time>
      </trkpt>
      <trkpt lat="47.45642" lon="6.75424">
        <ele>363.7</ele>
        <time>2014-05-04T09:37:18.000Z</time>
      </trkpt>
      <trkpt lat="47.45648" lon="6.7543">
        <ele>363.2</ele>
        <time>2014-05-04T09:37:19.000Z</time>
      </trkpt>
      <trkpt lat="47.45654" lon="6.75436">
        <ele>363.5</ele>
        <time>2014-05-04T09:37:20.000Z</time>
      </trkpt>
      <trkpt lat="47.45659" lon="6.75443">
        <ele>364.2</ele>
        <time>2014-05-04T09:37:21.000Z</time>
      </trkpt>
      <trkpt lat="47.45665" lon="6.75449">
        <ele>363.4</ele>
        <time>2014-05-04T09:37:22.000Z</time>
      </trkpt>
      <trkpt lat="47.4567" lon="6.75456">
        <ele>364.2</ele>
        <time>2014-05-04T09:37:23.000Z</time>
      </trkpt>
      <trkpt lat="47.45675" lon="6.75462">
        <ele>364.7</ele>
        <time>2014-05-04T09:37:24.000Z</time>
      </trkpt>
      <trkpt lat="47.4568" lon="6.75469">
        <ele>365.1</ele>
        <time>2014-05-04T09:37:25.000Z</time>
      </trkpt>
      <trkpt lat="47.45686" lon="6.75476">
        <ele>364</ele>
        <time>2014-05-04T09:37:26.000Z</time>
      </trkpt>
      <trkpt lat="47.45691" lon="6.75482">
        <ele>365.2</ele>
        <time>2014-05-04T09:37:27.000Z</time>
      </trkpt>
      <trkpt lat="47.45697" lon="6.75488">
        <ele>364.7</ele>
        <time>2014-05-04T09:37:28.000Z</time>
      </trkpt>
      <trkpt lat="47.45701" lon="6.75495">
        <ele>364.6</ele>
        <time>2014-05-04T09:37:29.000Z</time>
      </trkpt>
      <trkpt lat="47.45707" lon="6.75502">
        <ele>364.5</ele>
        <time>2014-05-04T09:37:30.000Z</time>
      </trkpt>
      <trkpt lat="47.45712" lon="6.75507">
        <ele>363.9</ele>
        <time>2014-05-04T09:37:31.000Z</time>
      </trkpt>
      <trkpt lat="47.45716" lon="6.75515">
        <ele>363.6</ele>
        <time>2014-05-04T09:37:32.000Z</time>
      </trkpt>
      <trkpt lat="47.45721" lon="6.75521">
        <ele>362.5</ele>
        <time>2014-05-04T09:37:33.000Z</time>
      </trkpt>
      <trkpt lat="47.45726" lon="6.75528">
        <ele>362.4</ele>
        <time>2014-05-04T09:37:34.000Z</time>
      </trkpt>
      <trkpt lat="47.4573" lon="6.75537">
        <ele>362.6</ele>
        <time>2014-05-04T09:37:35.000Z</time>
      </trkpt>
      <trkpt lat="47.45735" lon="6.75544">
        <ele>362.2</ele>
        <time>2014-05-04T09:37:36.000Z</time>
      </trkpt>
      <trkpt lat="47.4574" lon="6.75552">
        <ele>362.1</ele>
        <time>2014-05-04T09:37:37.000Z</time>
      </trkpt>
      <trkpt lat="47.45743" lon="6.7556">
        <ele>362</ele>
        <time>2014-05-04T09:37:38.000Z</time>
      </trkpt>
      <trkpt lat="47.45748" lon="6.75568">
        <ele>361.8</ele>
        <time>2014-05-04T09:37:39.000Z</time>
      </trkpt>
      <trkpt lat="47.45754" lon="6.75574">
        <ele>355.2</ele>
        <time>2014-05-04T09:37:40.000Z</time>
      </trkpt>
      <trkpt lat="47.45759" lon="6.75581">
        <ele>357</ele>
        <time>2014-05-04T09:37:41.000Z</time>
      </trkpt>
      <trkpt lat="47.45765" lon="6.7559">
        <ele>357.8</ele>
        <time>2014-05-04T09:37:42.000Z</time>
      </trkpt>
      <trkpt lat="47.45771" lon="6.75599">
        <ele>357.4</ele>
        <time>2014-05-04T09:37:43.000Z</time>
      </trkpt>
      <trkpt lat="47.45812" lon="6.75649">
        <ele>355.2</ele>
        <time>2014-05-04T09:37:51.000Z</time>
      </trkpt>
      <trkpt lat="47.45817" lon="6.75655">
        <ele>355</ele>
        <time>2014-05-04T09:37:52.000Z</time>
      </trkpt>
      <trkpt lat="47.45822" lon="6.75663">
        <ele>355.4</ele>
        <time>2014-05-04T09:37:53.000Z</time>
      </trkpt>
      <trkpt lat="47.45827" lon="6.75669">
        <ele>356</ele>
        <time>2014-05-04T09:37:54.000Z</time>
      </trkpt>
      <trkpt lat="47.45833" lon="6.75674">
        <ele>356</ele>
        <time>2014-05-04T09:37:55.000Z</time>
      </trkpt>
      <trkpt lat="47.45839" lon="6.75679">
        <ele>356.4</ele>
        <time>2014-05-04T09:37:56.000Z</time>
      </trkpt>
      <trkpt lat="47.45844" lon="6.75684">
        <ele>358</ele>
        <time>2014-05-04T09:37:57.000Z</time>
      </trkpt>
      <trkpt lat="47.4585" lon="6.75686">
        <ele>358.2</ele>
        <time>2014-05-04T09:37:58.000Z</time>
      </trkpt>
      <trkpt lat="47.45857" lon="6.75692">
        <ele>356.9</ele>
        <time>2014-05-04T09:37:59.000Z</time>
      </trkpt>
      <trkpt lat="47.45862" lon="6.75696">
        <ele>356.5</ele>
        <time>2014-05-04T09:38:00.000Z</time>
      </trkpt>
      <trkpt lat="47.45868" lon="6.75702">
        <ele>356.4</ele>
        <time>2014-05-04T09:38:01.000Z</time>
      </trkpt>
      <trkpt lat="47.45874" lon="6.75708">
        <ele>356.4</ele>
        <time>2014-05-04T09:38:02.000Z</time>
      </trkpt>
      <trkpt lat="47.4588" lon="6.75713">
        <ele>357.4</ele>
        <time>2014-05-04T09:38:03.000Z</time>
      </trkpt>
      <trkpt lat="47.45887" lon="6.75718">
        <ele>353.8</ele>
        <time>2014-05-04T09:38:04.000Z</time>
      </trkpt>
      <trkpt lat="47.45895" lon="6.75721">
        <ele>352.6</ele>
        <time>2014-05-04T09:38:05.000Z</time>
      </trkpt>
      <trkpt lat="47.459" lon="6.75726">
        <ele>352.4</ele>
        <time>2014-05-04T09:38:06.000Z</time>
      </trkpt>
      <trkpt lat="47.45907" lon="6.75729">
        <ele>351.3</ele>
        <time>2014-05-04T09:38:07.000Z</time>
      </trkpt>
      <trkpt lat="47.45913" lon="6.75734">
        <ele>350.2</ele>
        <time>2014-05-04T09:38:08.000Z</time>
      </trkpt>
      <trkpt lat="47.45918" lon="6.75739">
        <ele>349.8</ele>
        <time>2014-05-04T09:38:09.000Z</time>
      </trkpt>
      <trkpt lat="47.45923" lon="6.75744">
        <ele>349.4</ele>
        <time>2014-05-04T09:38:10.000Z</time>
      </trkpt>
      <trkpt lat="47.45928" lon="6.75749">
        <ele>350.6</ele>
        <time>2014-05-04T09:38:11.000Z</time>
      </trkpt>
      <trkpt lat="47.45933" lon="6.75753">
        <ele>350</ele>
        <time>2014-05-04T09:38:12.000Z</time>
      </trkpt>
      <trkpt lat="47.45939" lon="6.75757">
        <ele>349.7</ele>
        <time>2014-05-04T09:38:13.000Z</time>
      </trkpt>
      <trkpt lat="47.45944" lon="6.7576">
        <ele>348.4</ele>
        <time>2014-05-04T09:38:14.000Z</time>
      </trkpt>
      <trkpt lat="47.45947" lon="6.75765">
        <ele>350.2</ele>
        <time>2014-05-04T09:38:15.000Z</time>
      </trkpt>
      <trkpt lat="47.45952" lon="6.75771">
        <ele>350.5</ele>
        <time>2014-05-04T09:38:16.000Z</time>
      </trkpt>
      <trkpt lat="47.45956" lon="6.75776">
        <ele>350.8</ele>
        <time>2014-05-04T09:38:17.000Z</time>
      </trkpt>
      <trkpt lat="47.45961" lon="6.75778">
        <ele>347.9</ele>
        <time>2014-05-04T09:38:18.000Z</time>
      </trkpt>
      <trkpt lat="47.45965" lon="6.75783">
        <ele>348.2</ele>
        <time>2014-05-04T09:38:19.000Z</time>
      </trkpt>
      <trkpt lat="47.45969" lon="6.75787">
        <ele>348.6</ele>
        <time>2014-05-04T09:38:20.000Z</time>
      </trkpt>
      <trkpt lat="47.45975" lon="6.75792">
        <ele>347.7</ele>
        <time>2014-05-04T09:38:21.000Z</time>
      </trkpt>
      <trkpt lat="47.4598" lon="6.75797">
        <ele>348.5</ele>
        <time>2014-05-04T09:38:22.000Z</time>
      </trkpt>
      <trkpt lat="47.45985" lon="6.75801">
        <ele>347.9</ele>
        <time>2014-05-04T09:38:23.000Z</time>
      </trkpt>
      <trkpt lat="47.4599" lon="6.75807">
        <ele>348.1</ele>
        <time>2014-05-04T09:38:24.000Z</time>
      </trkpt>
      <trkpt lat="47.45995" lon="6.7581">
        <ele>348.2</ele>
        <time>2014-05-04T09:38:25.000Z</time>
      </trkpt>
      <trkpt lat="47.46" lon="6.75815">
        <ele>348.3</ele>
        <time>2014-05-04T09:38:26.000Z</time>
      </trkpt>
      <trkpt lat="47.46004" lon="6.75818">
        <ele>347.3</ele>
        <time>2014-05-04T09:38:27.000Z</time>
      </trkpt>
      <trkpt lat="47.46009" lon="6.75823">
        <ele>347.5</ele>
        <time>2014-05-04T09:38:28.000Z</time>
      </trkpt>
      <trkpt lat="47.46014" lon="6.75828">
        <ele>346.8</ele>
        <time>2014-05-04T09:38:29.000Z</time>
      </trkpt>
      <trkpt lat="47.46019" lon="6.75831">
        <ele>345.9</ele>
        <time>2014-05-04T09:38:30.000Z</time>
      </trkpt>
      <trkpt lat="47.46024" lon="6.75837">
        <ele>346.9</ele>
        <time>2014-05-04T09:38:31.000Z</time>
      </trkpt>
      <trkpt lat="47.46027" lon="6.75843">
        <ele>346.7</ele>
        <time>2014-05-04T09:38:32.000Z</time>
      </trkpt>
      <trkpt lat="47.4603" lon="6.75849">
        <ele>347.2</ele>
        <time>2014-05-04T09:38:33.000Z</time>
      </trkpt>
      <trkpt lat="47.46033" lon="6.75853">
        <ele>345.4</ele>
        <time>2014-05-04T09:38:34.000Z</time>
      </trkpt>
      <trkpt lat="47.46037" lon="6.75861">
        <ele>345.4</ele>
        <time>2014-05-04T09:38:35.000Z</time>
      </trkpt>
      <trkpt lat="47.4604" lon="6.75867">
        <ele>345.7</ele>
        <time>2014-05-04T09:38:36.000Z</time>
      </trkpt>
      <trkpt lat="47.46045" lon="6.75876">
        <ele>345.1</ele>
        <time>2014-05-04T09:38:37.000Z</time>
      </trkpt>
      <trkpt lat="47.4605" lon="6.75883">
        <ele>344.1</ele>
        <time>2014-05-04T09:38:38.000Z</time>
      </trkpt>
      <trkpt lat="47.46054" lon="6.7589">
        <ele>342.5</ele>
        <time>2014-05-04T09:38:39.000Z</time>
      </trkpt>
      <trkpt lat="47.46058" lon="6.75899">
        <ele>343.4</ele>
        <time>2014-05-04T09:38:40.000Z</time>
      </trkpt>
      <trkpt lat="47.46062" lon="6.75907">
        <ele>344.9</ele>
        <time>2014-05-04T09:38:41.000Z</time>
      </trkpt>
      <trkpt lat="47.46065" lon="6.75915">
        <ele>345.2</ele>
        <time>2014-05-04T09:38:42.000Z</time>
      </trkpt>
      <trkpt lat="47.46069" lon="6.75924">
        <ele>345.6</ele>
        <time>2014-05-04T09:38:43.000Z</time>
      </trkpt>
      <trkpt lat="47.46097" lon="6.75995">
        <ele>346.1</ele>
        <time>2014-05-04T09:38:51.000Z</time>
      </trkpt>
      <trkpt lat="47.46101" lon="6.76005">
        <ele>346.7</ele>
        <time>2014-05-04T09:38:52.000Z</time>
      </trkpt>
      <trkpt lat="47.46105" lon="6.76013">
        <ele>346.2</ele>
        <time>2014-05-04T09:38:53.000Z</time>
      </trkpt>
      <trkpt lat="47.4611" lon="6.76022">
        <ele>346</ele>
        <time>2014-05-04T09:38:54.000Z</time>
      </trkpt>
      <trkpt lat="47.46115" lon="6.76029">
        <ele>346.9</ele>
        <time>2014-05-04T09:38:55.000Z</time>
      </trkpt>
      <trkpt lat="47.46118" lon="6.76037">
        <ele>347.6</ele>
        <time>2014-05-04T09:38:56.000Z</time>
      </trkpt>
      <trkpt lat="47.46122" lon="6.76046">
        <ele>347.6</ele>
        <time>2014-05-04T09:38:57.000Z</time>
      </trkpt>
      <trkpt lat="47.46126" lon="6.76054">
        <ele>347.6</ele>
        <time>2014-05-04T09:38:58.000Z</time>
      </trkpt>
      <trkpt lat="47.4613" lon="6.76063">
        <ele>347.9</ele>
        <time>2014-05-04T09:38:59.000Z</time>
      </trkpt>
      <trkpt lat="47.46134" lon="6.76072">
        <ele>348.2</ele>
        <time>2014-05-04T09:39:00.000Z</time>
      </trkpt>
      <trkpt lat="47.46138" lon="6.7608">
        <ele>349.3</ele>
        <time>2014-05-04T09:39:01.000Z</time>
      </trkpt>
      <trkpt lat="47.46142" lon="6.76089">
        <ele>349.1</ele>
        <time>2014-05-04T09:39:02.000Z</time>
      </trkpt>
      <trkpt lat="47.46147" lon="6.76097">
        <ele>347.8</ele>
        <time>2014-05-04T09:39:03.000Z</time>
      </trkpt>
      <trkpt lat="47.46152" lon="6.76104">
        <ele>347.8</ele>
        <time>2014-05-04T09:39:04.000Z</time>
      </trkpt>
      <trkpt lat="47.46157" lon="6.76113">
        <ele>346.6</ele>
        <time>2014-05-04T09:39:05.000Z</time>
      </trkpt>
      <trkpt lat="47.46162" lon="6.7612">
        <ele>346.6</ele>
        <time>2014-05-04T09:39:06.000Z</time>
      </trkpt>
      <trkpt lat="47.46167" lon="6.76128">
        <ele>347.1</ele>
        <time>2014-05-04T09:39:07.000Z</time>
      </trkpt>
      <trkpt lat="47.46172" lon="6.76136">
        <ele>346.8</ele>
        <time>2014-05-04T09:39:08.000Z</time>
      </trkpt>
      <trkpt lat="47.46177" lon="6.76144">
        <ele>347.5</ele>
        <time>2014-05-04T09:39:09.000Z</time>
      </trkpt>
      <trkpt lat="47.46182" lon="6.76151">
        <ele>346</ele>
        <time>2014-05-04T09:39:10.000Z</time>
      </trkpt>
      <trkpt lat="47.46187" lon="6.76159">
        <ele>345.6</ele>
        <time>2014-05-04T09:39:11.000Z</time>
      </trkpt>
      <trkpt lat="47.46193" lon="6.76165">
        <ele>345.9</ele>
        <time>2014-05-04T09:39:12.000Z</time>
      </trkpt>
      <trkpt lat="47.46199" lon="6.76171">
        <ele>345.2</ele>
        <time>2014-05-04T09:39:13.000Z</time>
      </trkpt>
      <trkpt lat="47.46205" lon="6.76177">
        <ele>344.8</ele>
        <time>2014-05-04T09:39:14.000Z</time>
      </trkpt>
      <trkpt lat="47.4621" lon="6.76183">
        <ele>345.8</ele>
        <time>2014-05-04T09:39:15.000Z</time>
      </trkpt>
      <trkpt lat="47.46215" lon="6.76189">
        <ele>345.6</ele>
        <time>2014-05-04T09:39:16.000Z</time>
      </trkpt>
      <trkpt lat="47.4622" lon="6.76195">
        <ele>346.3</ele>
        <time>2014-05-04T09:39:17.000Z</time>
      </trkpt>
      <trkpt lat="47.46224" lon="6.762">
        <ele>346.5</ele>
        <time>2014-05-04T09:39:18.000Z</time>
      </trkpt>
      <trkpt lat="47.46229" lon="6.76205">
        <ele>347.5</ele>
        <time>2014-05-04T09:39:19.000Z</time>
      </trkpt>
      <trkpt lat="47.46233" lon="6.7621">
        <ele>347.4</ele>
        <time>2014-05-04T09:39:20.000Z</time>
      </trkpt>
      <trkpt lat="47.46237" lon="6.76216">
        <ele>348.1</ele>
        <time>2014-05-04T09:39:21.000Z</time>
      </trkpt>
      <trkpt lat="47.46241" lon="6.76221">
        <ele>347.9</ele>
        <time>2014-05-04T09:39:22.000Z</time>
      </trkpt>
      <trkpt lat="47.46244" lon="6.76225">
        <ele>347.7</ele>
        <time>2014-05-04T09:39:23.000Z</time>
      </trkpt>
      <trkpt lat="47.46248" lon="6.76231">
        <ele>349</ele>
        <time>2014-05-04T09:39:24.000Z</time>
      </trkpt>
      <trkpt lat="47.46252" lon="6.76236">
        <ele>349.6</ele>
        <time>2014-05-04T09:39:25.000Z</time>
      </trkpt>
      <trkpt lat="47.46257" lon="6.76241">
        <ele>349.8</ele>
        <time>2014-05-04T09:39:26.000Z</time>
      </trkpt>
      <trkpt lat="47.46261" lon="6.76244">
        <ele>349.8</ele>
        <time>2014-05-04T09:39:27.000Z</time>
      </trkpt>
      <trkpt lat="47.46265" lon="6.76246">
        <ele>349.6</ele>
        <time>2014-05-04T09:39:28.000Z</time>
      </trkpt>
      <trkpt lat="47.46269" lon="6.76247">
        <ele>350.7</ele>
        <time>2014-05-04T09:39:29.000Z</time>
      </trkpt>
      <trkpt lat="47.46273" lon="6.76248">
        <ele>350.7</ele>
        <time>2014-05-04T09:39:30.000Z</time>
      </trkpt>
      <trkpt lat="47.46277" lon="6.7625">
        <ele>349</ele>
        <time>2014-05-04T09:39:31.000Z</time>
      </trkpt>
      <trkpt lat="47.46281" lon="6.76252">
        <ele>348.5</ele>
        <time>2014-05-04T09:39:32.000Z</time>
      </trkpt>
      <trkpt lat="47.46284" lon="6.76253">
        <ele>349.6</ele>
        <time>2014-05-04T09:39:33.000Z</time>
      </trkpt>
      <trkpt lat="47.46286" lon="6.76252">
        <ele>351.1</ele>
        <time>2014-05-04T09:39:34.000Z</time>
      </trkpt>
      <trkpt lat="47.46289" lon="6.76254">
        <ele>354.4</ele>
        <time>2014-05-04T09:39:36.000Z</time>
      </trkpt>
      <trkpt lat="47.46291" lon="6.76256">
        <ele>355.7</ele>
        <time>2014-05-04T09:39:37.000Z</time>
      </trkpt>
      <trkpt lat="47.46294" lon="6.76257">
        <ele>357.4</ele>
        <time>2014-05-04T09:39:39.000Z</time>
      </trkpt>
      <trkpt lat="47.46296" lon="6.76258">
        <ele>354.3</ele>
        <time>2014-05-04T09:39:40.000Z</time>
      </trkpt>
      <trkpt lat="47.46299" lon="6.76259">
        <ele>352.4</ele>
        <time>2014-05-04T09:39:41.000Z</time>
      </trkpt>
      <trkpt lat="47.46302" lon="6.76261">
        <ele>352</ele>
        <time>2014-05-04T09:39:42.000Z</time>
      </trkpt>
      <trkpt lat="47.46304" lon="6.76262">
        <ele>352.1</ele>
        <time>2014-05-04T09:39:43.000Z</time>
      </trkpt>
      <trkpt lat="47.46317" lon="6.76264">
        <ele>355.5</ele>
        <time>2014-05-04T09:39:51.000Z</time>
      </trkpt>
      <trkpt lat="47.4632" lon="6.76264">
        <ele>355.9</ele>
        <time>2014-05-04T09:39:52.000Z</time>
      </trkpt>
      <trkpt lat="47.46325" lon="6.76266">
        <ele>356.6</ele>
        <time>2014-05-04T09:39:53.000Z</time>
      </trkpt>
      <trkpt lat="47.46329" lon="6.76267">
        <ele>356.8</ele>
        <time>2014-05-04T09:39:54.000Z</time>
      </trkpt>
      <trkpt lat="47.46338" lon="6.76273">
        <ele>354.4</ele>
        <time>2014-05-04T09:39:55.000Z</time>
      </trkpt>
      <trkpt lat="47.46342" lon="6.76276">
        <ele>356</ele>
        <time>2014-05-04T09:39:56.000Z</time>
      </trkpt>
      <trkpt lat="47.46347" lon="6.76276">
        <ele>358.9</ele>
        <time>2014-05-04T09:39:57.000Z</time>
      </trkpt>
      <trkpt lat="47.46351" lon="6.76275">
        <ele>361</ele>
        <time>2014-05-04T09:39:58.000Z</time>
      </trkpt>
      <trkpt lat="47.46355" lon="6.76275">
        <ele>362</ele>
        <time>2014-05-04T09:39:59.000Z</time>
      </trkpt>
      <trkpt lat="47.4636" lon="6.76275">
        <ele>362.7</ele>
        <time>2014-05-04T09:40:00.000Z</time>
      </trkpt>
      <trkpt lat="47.46366" lon="6.76277">
        <ele>361.8</ele>
        <time>2014-05-04T09:40:01.000Z</time>
      </trkpt>
      <trkpt lat="47.46367" lon="6.76281">
        <ele>370.2</ele>
        <time>2014-05-04T09:40:02.000Z</time>
      </trkpt>
      <trkpt lat="47.46369" lon="6.76284">
        <ele>373.8</ele>
        <time>2014-05-04T09:40:03.000Z</time>
      </trkpt>
      <trkpt lat="47.46371" lon="6.76286">
        <ele>376.2</ele>
        <time>2014-05-04T09:40:04.000Z</time>
      </trkpt>
      <trkpt lat="47.46374" lon="6.76289">
        <ele>376.3</ele>
        <time>2014-05-04T09:40:05.000Z</time>
      </trkpt>
      <trkpt lat="47.46379" lon="6.76293">
        <ele>376</ele>
        <time>2014-05-04T09:40:06.000Z</time>
      </trkpt>
      <trkpt lat="47.46385" lon="6.7629">
        <ele>375.5</ele>
        <time>2014-05-04T09:40:07.000Z</time>
      </trkpt>
      <trkpt lat="47.46392" lon="6.76286">
        <ele>373.1</ele>
        <time>2014-05-04T09:40:08.000Z</time>
      </trkpt>
      <trkpt lat="47.46397" lon="6.76287">
        <ele>372.4</ele>
        <time>2014-05-04T09:40:09.000Z</time>
      </trkpt>
      <trkpt lat="47.46402" lon="6.76287">
        <ele>373.4</ele>
        <time>2014-05-04T09:40:10.000Z</time>
      </trkpt>
      <trkpt lat="47.46407" lon="6.76286">
        <ele>374.6</ele>
        <time>2014-05-04T09:40:11.000Z</time>
      </trkpt>
      <trkpt lat="47.46411" lon="6.76286">
        <ele>373.5</ele>
        <time>2014-05-04T09:40:12.000Z</time>
      </trkpt>
      <trkpt lat="47.46414" lon="6.76285">
        <ele>372.8</ele>
        <time>2014-05-04T09:40:13.000Z</time>
      </trkpt>
      <trkpt lat="47.46417" lon="6.76286">
        <ele>372</ele>
        <time>2014-05-04T09:40:14.000Z</time>
      </trkpt>
      <trkpt lat="47.4642" lon="6.76284">
        <ele>371.5</ele>
        <time>2014-05-04T09:40:15.000Z</time>
      </trkpt>
      <trkpt lat="47.46424" lon="6.76285">
        <ele>371.3</ele>
        <time>2014-05-04T09:40:16.000Z</time>
      </trkpt>
      <trkpt lat="47.46429" lon="6.76282">
        <ele>369.6</ele>
        <time>2014-05-04T09:40:17.000Z</time>
      </trkpt>
      <trkpt lat="47.46433" lon="6.76286">
        <ele>368.1</ele>
        <time>2014-05-04T09:40:18.000Z</time>
      </trkpt>
      <trkpt lat="47.46438" lon="6.76287">
        <ele>366.1</ele>
        <time>2014-05-04T09:40:19.000Z</time>
      </trkpt>
      <trkpt lat="47.46442" lon="6.76288">
        <ele>364.6</ele>
        <time>2014-05-04T09:40:20.000Z</time>
      </trkpt>
      <trkpt lat="47.46445" lon="6.76288">
        <ele>364.7</ele>
        <time>2014-05-04T09:40:21.000Z</time>
      </trkpt>
      <trkpt lat="47.4645" lon="6.76288">
        <ele>363.8</ele>
        <time>2014-05-04T09:40:22.000Z</time>
      </trkpt>
      <trkpt lat="47.46454" lon="6.76288">
        <ele>365.9</ele>
        <time>2014-05-04T09:40:23.000Z</time>
      </trkpt>
      <trkpt lat="47.46459" lon="6.76288">
        <ele>366.7</ele>
        <time>2014-05-04T09:40:24.000Z</time>
      </trkpt>
      <trkpt lat="47.46464" lon="6.76288">
        <ele>365.9</ele>
        <time>2014-05-04T09:40:25.000Z</time>
      </trkpt>
      <trkpt lat="47.46469" lon="6.76288">
        <ele>364.9</ele>
        <time>2014-05-04T09:40:26.000Z</time>
      </trkpt>
      <trkpt lat="47.46473" lon="6.76288">
        <ele>363.8</ele>
        <time>2014-05-04T09:40:27.000Z</time>
      </trkpt>
      <trkpt lat="47.46478" lon="6.76288">
        <ele>364.4</ele>
        <time>2014-05-04T09:40:28.000Z</time>
      </trkpt>
      <trkpt lat="47.46483" lon="6.76288">
        <ele>363.4</ele>
        <time>2014-05-04T09:40:29.000Z</time>
      </trkpt>
      <trkpt lat="47.46487" lon="6.76288">
        <ele>362.8</ele>
        <time>2014-05-04T09:40:30.000Z</time>
      </trkpt>
      <trkpt lat="47.46492" lon="6.76288">
        <ele>362.7</ele>
        <time>2014-05-04T09:40:31.000Z</time>
      </trkpt>
      <trkpt lat="47.46497" lon="6.76288">
        <ele>362.8</ele>
        <time>2014-05-04T09:40:32.000Z</time>
      </trkpt>
      <trkpt lat="47.46504" lon="6.76289">
        <ele>361.4</ele>
        <time>2014-05-04T09:40:33.000Z</time>
      </trkpt>
      <trkpt lat="47.46507" lon="6.76288">
        <ele>361.3</ele>
        <time>2014-05-04T09:40:34.000Z</time>
      </trkpt>
      <trkpt lat="47.46512" lon="6.7629">
        <ele>361.9</ele>
        <time>2014-05-04T09:40:35.000Z</time>
      </trkpt>
      <trkpt lat="47.46516" lon="6.7629">
        <ele>361.8</ele>
        <time>2014-05-04T09:40:36.000Z</time>
      </trkpt>
      <trkpt lat="47.4652" lon="6.76288">
        <ele>362.1</ele>
        <time>2014-05-04T09:40:37.000Z</time>
      </trkpt>
      <trkpt lat="47.46525" lon="6.76289">
        <ele>362.7</ele>
        <time>2014-05-04T09:40:38.000Z</time>
      </trkpt>
      <trkpt lat="47.46529" lon="6.7629">
        <ele>362.5</ele>
        <time>2014-05-04T09:40:39.000Z</time>
      </trkpt>
      <trkpt lat="47.46533" lon="6.76288">
        <ele>368.6</ele>
        <time>2014-05-04T09:40:41.000Z</time>
      </trkpt>
      <trkpt lat="47.46536" lon="6.76287">
        <ele>369.2</ele>
        <time>2014-05-04T09:40:42.000Z</time>
      </trkpt>
      <trkpt lat="47.46539" lon="6.76286">
        <ele>368</ele>
        <time>2014-05-04T09:40:43.000Z</time>
      </trkpt>
      <trkpt lat="47.46567" lon="6.7629">
        <ele>365.9</ele>
        <time>2014-05-04T09:40:51.000Z</time>
      </trkpt>
      <trkpt lat="47.46571" lon="6.76294">
        <ele>370.5</ele>
        <time>2014-05-04T09:40:52.000Z</time>
      </trkpt>
      <trkpt lat="47.46577" lon="6.76299">
        <ele>366.9</ele>
        <time>2014-05-04T09:40:53.000Z</time>
      </trkpt>
      <trkpt lat="47.46583" lon="6.76301">
        <ele>361.4</ele>
        <time>2014-05-04T09:40:54.000Z</time>
      </trkpt>
      <trkpt lat="47.46588" lon="6.76303">
        <ele>359.1</ele>
        <time>2014-05-04T09:40:55.000Z</time>
      </trkpt>
      <trkpt lat="47.46599" lon="6.76306">
        <ele>358.6</ele>
        <time>2014-05-04T09:40:56.000Z</time>
      </trkpt>
      <trkpt lat="47.46603" lon="6.76307">
        <ele>355.4</ele>
        <time>2014-05-04T09:40:57.000Z</time>
      </trkpt>
      <trkpt lat="47.46608" lon="6.76305">
        <ele>350.5</ele>
        <time>2014-05-04T09:40:58.000Z</time>
      </trkpt>
      <trkpt lat="47.46612" lon="6.76305">
        <ele>350.8</ele>
        <time>2014-05-04T09:40:59.000Z</time>
      </trkpt>
      <trkpt lat="47.46618" lon="6.76307">
        <ele>348.9</ele>
        <time>2014-05-04T09:41:00.000Z</time>
      </trkpt>
      <trkpt lat="47.46623" lon="6.76307">
        <ele>349.4</ele>
        <time>2014-05-04T09:41:01.000Z</time>
      </trkpt>
      <trkpt lat="47.46628" lon="6.76308">
        <ele>347.7</ele>
        <time>2014-05-04T09:41:02.000Z</time>
      </trkpt>
      <trkpt lat="47.46633" lon="6.76308">
        <ele>348.4</ele>
        <time>2014-05-04T09:41:03.000Z</time>
      </trkpt>
      <trkpt lat="47.46637" lon="6.76309">
        <ele>348.5</ele>
        <time>2014-05-04T09:41:04.000Z</time>
      </trkpt>
      <trkpt lat="47.46642" lon="6.76309">
        <ele>348.3</ele>
        <time>2014-05-04T09:41:05.000Z</time>
      </trkpt>
      <trkpt lat="47.46646" lon="6.76309">
        <ele>347.5</ele>
        <time>2014-05-04T09:41:06.000Z</time>
      </trkpt>
      <trkpt lat="47.46651" lon="6.76309">
        <ele>347.4</ele>
        <time>2014-05-04T09:41:07.000Z</time>
      </trkpt>
      <trkpt lat="47.46655" lon="6.76309">
        <ele>344.8</ele>
        <time>2014-05-04T09:41:08.000Z</time>
      </trkpt>
      <trkpt lat="47.4666" lon="6.76309">
        <ele>343.9</ele>
        <time>2014-05-04T09:41:09.000Z</time>
      </trkpt>
      <trkpt lat="47.46664" lon="6.7631">
        <ele>344.6</ele>
        <time>2014-05-04T09:41:10.000Z</time>
      </trkpt>
      <trkpt lat="47.46669" lon="6.7631">
        <ele>345.4</ele>
        <time>2014-05-04T09:41:11.000Z</time>
      </trkpt>
      <trkpt lat="47.46674" lon="6.7631">
        <ele>344.2</ele>
        <time>2014-05-04T09:41:12.000Z</time>
      </trkpt>
      <trkpt lat="47.46679" lon="6.7631">
        <ele>345.1</ele>
        <time>2014-05-04T09:41:13.000Z</time>
      </trkpt>
      <trkpt lat="47.46684" lon="6.7631">
        <ele>344.2</ele>
        <time>2014-05-04T09:41:14.000Z</time>
      </trkpt>
      <trkpt lat="47.46688" lon="6.7631">
        <ele>344.6</ele>
        <time>2014-05-04T09:41:15.000Z</time>
      </trkpt>
      <trkpt lat="47.46693" lon="6.76309">
        <ele>344.1</ele>
        <time>2014-05-04T09:41:16.000Z</time>
      </trkpt>
      <trkpt lat="47.46699" lon="6.76309">
        <ele>343.5</ele>
        <time>2014-05-04T09:41:17.000Z</time>
      </trkpt>
      <trkpt lat="47.46704" lon="6.76308">
        <ele>344</ele>
        <time>2014-05-04T09:41:18.000Z</time>
      </trkpt>
      <trkpt lat="47.4671" lon="6.76308">
        <ele>344.6</ele>
        <time>2014-05-04T09:41:19.000Z</time>
      </trkpt>
      <trkpt lat="47.46715" lon="6.76308">
        <ele>344.1</ele>
        <time>2014-05-04T09:41:20.000Z</time>
      </trkpt>
      <trkpt lat="47.4672" lon="6.76308">
        <ele>344.9</ele>
        <time>2014-05-04T09:41:21.000Z</time>
      </trkpt>
      <trkpt lat="47.46724" lon="6.7631">
        <ele>344.1</ele>
        <time>2014-05-04T09:41:22.000Z</time>
      </trkpt>
      <trkpt lat="47.46729" lon="6.7631">
        <ele>343.6</ele>
        <time>2014-05-04T09:41:23.000Z</time>
      </trkpt>
      <trkpt lat="47.46735" lon="6.76309">
        <ele>343.1</ele>
        <time>2014-05-04T09:41:24.000Z</time>
      </trkpt>
      <trkpt lat="47.4674" lon="6.76308">
        <ele>343</ele>
        <time>2014-05-04T09:41:25.000Z</time>
      </trkpt>
      <trkpt lat="47.46745" lon="6.76308">
        <ele>342.8</ele>
        <time>2014-05-04T09:41:26.000Z</time>
      </trkpt>
      <trkpt lat="47.46749" lon="6.76307">
        <ele>343</ele>
        <time>2014-05-04T09:41:27.000Z</time>
      </trkpt>
      <trkpt lat="47.46754" lon="6.76306">
        <ele>343</ele>
        <time>2014-05-04T09:41:28.002Z</time>
      </trkpt>
      <trkpt lat="47.46759" lon="6.76305">
        <ele>343</ele>
        <time>2014-05-04T09:41:29.000Z</time>
      </trkpt>
      <trkpt lat="47.46764" lon="6.76305">
        <ele>343</ele>
        <time>2014-05-04T09:41:30.000Z</time>
      </trkpt>
      <trkpt lat="47.46767" lon="6.76305">
        <ele>343.2</ele>
        <time>2014-05-04T09:41:31.000Z</time>
      </trkpt>
      <trkpt lat="47.46774" lon="6.76307">
        <ele>343</ele>
        <time>2014-05-04T09:41:32.000Z</time>
      </trkpt>
      <trkpt lat="47.46778" lon="6.7631">
        <ele>342.7</ele>
        <time>2014-05-04T09:41:33.000Z</time>
      </trkpt>
      <trkpt lat="47.46784" lon="6.76302">
        <ele>341.5</ele>
        <time>2014-05-04T09:41:34.000Z</time>
      </trkpt>
      <trkpt lat="47.4679" lon="6.76299">
        <ele>339.3</ele>
        <time>2014-05-04T09:41:35.000Z</time>
      </trkpt>
      <trkpt lat="47.46795" lon="6.76303">
        <ele>336.4</ele>
        <time>2014-05-04T09:41:36.000Z</time>
      </trkpt>
      <trkpt lat="47.46799" lon="6.76305">
        <ele>334.5</ele>
        <time>2014-05-04T09:41:37.000Z</time>
      </trkpt>
      <trkpt lat="47.46803" lon="6.76308">
        <ele>333.1</ele>
        <time>2014-05-04T09:41:38.000Z</time>
      </trkpt>
      <trkpt lat="47.46808" lon="6.7631">
        <ele>332.8</ele>
        <time>2014-05-04T09:41:39.000Z</time>
      </trkpt>
      <trkpt lat="47.46813" lon="6.76312">
        <ele>332.8</ele>
        <time>2014-05-04T09:41:40.000Z</time>
      </trkpt>
      <trkpt lat="47.46818" lon="6.76315">
        <ele>332.5</ele>
        <time>2014-05-04T09:41:41.000Z</time>
      </trkpt>
      <trkpt lat="47.46823" lon="6.76317">
        <ele>333.1</ele>
        <time>2014-05-04T09:41:42.000Z</time>
      </trkpt>
      <trkpt lat="47.46828" lon="6.7632">
        <ele>333.7</ele>
        <time>2014-05-04T09:41:43.000Z</time>
      </trkpt>
      <trkpt lat="47.46872" lon="6.76332">
        <ele>335</ele>
        <time>2014-05-04T09:41:51.000Z</time>
      </trkpt>
      <trkpt lat="47.4688" lon="6.76333">
        <ele>333.7</ele>
        <time>2014-05-04T09:41:52.000Z</time>
      </trkpt>
      <trkpt lat="47.46887" lon="6.76334">
        <ele>333.7</ele>
        <time>2014-05-04T09:41:53.000Z</time>
      </trkpt>
      <trkpt lat="47.46893" lon="6.76336">
        <ele>333.2</ele>
        <time>2014-05-04T09:41:54.000Z</time>
      </trkpt>
      <trkpt lat="47.469" lon="6.76338">
        <ele>332.8</ele>
        <time>2014-05-04T09:41:55.000Z</time>
      </trkpt>
      <trkpt lat="47.46906" lon="6.76338">
        <ele>333.3</ele>
        <time>2014-05-04T09:41:56.000Z</time>
      </trkpt>
      <trkpt lat="47.46912" lon="6.76338">
        <ele>335.1</ele>
        <time>2014-05-04T09:41:57.000Z</time>
      </trkpt>
      <trkpt lat="47.46918" lon="6.76339">
        <ele>334.4</ele>
        <time>2014-05-04T09:41:58.000Z</time>
      </trkpt>
      <trkpt lat="47.46924" lon="6.76337">
        <ele>333.8</ele>
        <time>2014-05-04T09:41:59.000Z</time>
      </trkpt>
      <trkpt lat="47.46931" lon="6.76338">
        <ele>332.4</ele>
        <time>2014-05-04T09:42:00.000Z</time>
      </trkpt>
      <trkpt lat="47.46936" lon="6.76339">
        <ele>332.9</ele>
        <time>2014-05-04T09:42:01.000Z</time>
      </trkpt>
      <trkpt lat="47.46941" lon="6.76339">
        <ele>333.4</ele>
        <time>2014-05-04T09:42:02.000Z</time>
      </trkpt>
      <trkpt lat="47.46946" lon="6.7634">
        <ele>334</ele>
        <time>2014-05-04T09:42:03.000Z</time>
      </trkpt>
      <trkpt lat="47.46951" lon="6.76342">
        <ele>335.8</ele>
        <time>2014-05-04T09:42:04.000Z</time>
      </trkpt>
      <trkpt lat="47.46956" lon="6.76343">
        <ele>336.4</ele>
        <time>2014-05-04T09:42:05.000Z</time>
      </trkpt>
      <trkpt lat="47.46962" lon="6.76344">
        <ele>336.5</ele>
        <time>2014-05-04T09:42:06.000Z</time>
      </trkpt>
      <trkpt lat="47.46967" lon="6.76344">
        <ele>337</ele>
        <time>2014-05-04T09:42:07.000Z</time>
      </trkpt>
      <trkpt lat="47.46972" lon="6.76346">
        <ele>337.6</ele>
        <time>2014-05-04T09:42:08.000Z</time>
      </trkpt>
      <trkpt lat="47.46978" lon="6.76347">
        <ele>337.7</ele>
        <time>2014-05-04T09:42:09.000Z</time>
      </trkpt>
      <trkpt lat="47.46983" lon="6.76349">
        <ele>337.8</ele>
        <time>2014-05-04T09:42:10.000Z</time>
      </trkpt>
      <trkpt lat="47.46988" lon="6.7635">
        <ele>338</ele>
        <time>2014-05-04T09:42:11.000Z</time>
      </trkpt>
      <trkpt lat="47.46994" lon="6.7635">
        <ele>336.3</ele>
        <time>2014-05-04T09:42:12.000Z</time>
      </trkpt>
      <trkpt lat="47.47" lon="6.7635">
        <ele>334.6</ele>
        <time>2014-05-04T09:42:13.000Z</time>
      </trkpt>
      <trkpt lat="47.47006" lon="6.76352">
        <ele>334.3</ele>
        <time>2014-05-04T09:42:14.000Z</time>
      </trkpt>
      <trkpt lat="47.47012" lon="6.76354">
        <ele>333.8</ele>
        <time>2014-05-04T09:42:15.000Z</time>
      </trkpt>
      <trkpt lat="47.47017" lon="6.76355">
        <ele>334</ele>
        <time>2014-05-04T09:42:16.000Z</time>
      </trkpt>
      <trkpt lat="47.47022" lon="6.76354">
        <ele>333.5</ele>
        <time>2014-05-04T09:42:17.000Z</time>
      </trkpt>
      <trkpt lat="47.47028" lon="6.76354">
        <ele>332</ele>
        <time>2014-05-04T09:42:18.000Z</time>
      </trkpt>
      <trkpt lat="47.47033" lon="6.76355">
        <ele>331.9</ele>
        <time>2014-05-04T09:42:19.000Z</time>
      </trkpt>
      <trkpt lat="47.47038" lon="6.76357">
        <ele>332.6</ele>
        <time>2014-05-04T09:42:20.000Z</time>
      </trkpt>
      <trkpt lat="47.47043" lon="6.76357">
        <ele>332.7</ele>
        <time>2014-05-04T09:42:21.000Z</time>
      </trkpt>
      <trkpt lat="47.47048" lon="6.76358">
        <ele>333</ele>
        <time>2014-05-04T09:42:22.000Z</time>
      </trkpt>
      <trkpt lat="47.47054" lon="6.76359">
        <ele>333.8</ele>
        <time>2014-05-04T09:42:23.000Z</time>
      </trkpt>
      <trkpt lat="47.4706" lon="6.7636">
        <ele>334</ele>
        <time>2014-05-04T09:42:24.000Z</time>
      </trkpt>
      <trkpt lat="47.47065" lon="6.76362">
        <ele>333.5</ele>
        <time>2014-05-04T09:42:25.000Z</time>
      </trkpt>
      <trkpt lat="47.47071" lon="6.76364">
        <ele>332.8</ele>
        <time>2014-05-04T09:42:26.000Z</time>
      </trkpt>
      <trkpt lat="47.47077" lon="6.76366">
        <ele>333.4</ele>
        <time>2014-05-04T09:42:27.000Z</time>
      </trkpt>
      <trkpt lat="47.47083" lon="6.76367">
        <ele>333.5</ele>
        <time>2014-05-04T09:42:28.000Z</time>
      </trkpt>
      <trkpt lat="47.47089" lon="6.76369">
        <ele>333.4</ele>
        <time>2014-05-04T09:42:29.000Z</time>
      </trkpt>
      <trkpt lat="47.47095" lon="6.76369">
        <ele>331.9</ele>
        <time>2014-05-04T09:42:30.000Z</time>
      </trkpt>
      <trkpt lat="47.471" lon="6.7637">
        <ele>333</ele>
        <time>2014-05-04T09:42:31.000Z</time>
      </trkpt>
      <trkpt lat="47.47107" lon="6.76371">
        <ele>330.4</ele>
        <time>2014-05-04T09:42:32.000Z</time>
      </trkpt>
      <trkpt lat="47.47113" lon="6.76372">
        <ele>330.6</ele>
        <time>2014-05-04T09:42:33.000Z</time>
      </trkpt>
      <trkpt lat="47.47119" lon="6.76374">
        <ele>330.4</ele>
        <time>2014-05-04T09:42:34.000Z</time>
      </trkpt>
      <trkpt lat="47.47125" lon="6.76376">
        <ele>330.1</ele>
        <time>2014-05-04T09:42:35.000Z</time>
      </trkpt>
      <trkpt lat="47.4713" lon="6.76378">
        <ele>330.9</ele>
        <time>2014-05-04T09:42:36.000Z</time>
      </trkpt>
      <trkpt lat="47.47135" lon="6.7638">
        <ele>330.8</ele>
        <time>2014-05-04T09:42:37.000Z</time>
      </trkpt>
      <trkpt lat="47.4714" lon="6.76381">
        <ele>330.8</ele>
        <time>2014-05-04T09:42:38.000Z</time>
      </trkpt>
      <trkpt lat="47.47145" lon="6.76382">
        <ele>329.4</ele>
        <time>2014-05-04T09:42:39.000Z</time>
      </trkpt>
      <trkpt lat="47.4715" lon="6.76384">
        <ele>329.3</ele>
        <time>2014-05-04T09:42:40.000Z</time>
      </trkpt>
      <trkpt lat="47.47155" lon="6.76386">
        <ele>328.7</ele>
        <time>2014-05-04T09:42:41.000Z</time>
      </trkpt>
      <trkpt lat="47.47162" lon="6.76385">
        <ele>332.5</ele>
        <time>2014-05-04T09:42:42.000Z</time>
      </trkpt>
      <trkpt lat="47.47169" lon="6.76386">
        <ele>334</ele>
        <time>2014-05-04T09:42:43.000Z</time>
      </trkpt>
      <trkpt lat="47.47216" lon="6.764">
        <ele>330.6</ele>
        <time>2014-05-04T09:42:51.000Z</time>
      </trkpt>
      <trkpt lat="47.47221" lon="6.76399">
        <ele>329.4</ele>
        <time>2014-05-04T09:42:52.000Z</time>
      </trkpt>
      <trkpt lat="47.47226" lon="6.76399">
        <ele>330</ele>
        <time>2014-05-04T09:42:53.000Z</time>
      </trkpt>
      <trkpt lat="47.47232" lon="6.764">
        <ele>331</ele>
        <time>2014-05-04T09:42:54.000Z</time>
      </trkpt>
      <trkpt lat="47.47237" lon="6.76401">
        <ele>330.7</ele>
        <time>2014-05-04T09:42:55.000Z</time>
      </trkpt>
      <trkpt lat="47.47242" lon="6.76404">
        <ele>332.8</ele>
        <time>2014-05-04T09:42:56.000Z</time>
      </trkpt>
      <trkpt lat="47.47249" lon="6.76402">
        <ele>331.7</ele>
        <time>2014-05-04T09:42:57.000Z</time>
      </trkpt>
      <trkpt lat="47.47254" lon="6.764">
        <ele>331.7</ele>
        <time>2014-05-04T09:42:58.000Z</time>
      </trkpt>
      <trkpt lat="47.47261" lon="6.76398">
        <ele>332.2</ele>
        <time>2014-05-04T09:42:59.000Z</time>
      </trkpt>
      <trkpt lat="47.47267" lon="6.76396">
        <ele>331.9</ele>
        <time>2014-05-04T09:43:00.000Z</time>
      </trkpt>
      <trkpt lat="47.47274" lon="6.76395">
        <ele>332</ele>
        <time>2014-05-04T09:43:01.000Z</time>
      </trkpt>
      <trkpt lat="47.47279" lon="6.76393">
        <ele>332.5</ele>
        <time>2014-05-04T09:43:02.000Z</time>
      </trkpt>
      <trkpt lat="47.47284" lon="6.76391">
        <ele>332.6</ele>
        <time>2014-05-04T09:43:03.000Z</time>
      </trkpt>
      <trkpt lat="47.4729" lon="6.76388">
        <ele>332.7</ele>
        <time>2014-05-04T09:43:04.000Z</time>
      </trkpt>
      <trkpt lat="47.47297" lon="6.76388">
        <ele>331.5</ele>
        <time>2014-05-04T09:43:05.000Z</time>
      </trkpt>
      <trkpt lat="47.47303" lon="6.76389">
        <ele>331.6</ele>
        <time>2014-05-04T09:43:06.000Z</time>
      </trkpt>
      <trkpt lat="47.47309" lon="6.76391">
        <ele>331.2</ele>
        <time>2014-05-04T09:43:07.000Z</time>
      </trkpt>
      <trkpt lat="47.47315" lon="6.76393">
        <ele>331.3</ele>
        <time>2014-05-04T09:43:08.000Z</time>
      </trkpt>
      <trkpt lat="47.47321" lon="6.76395">
        <ele>331.2</ele>
        <time>2014-05-04T09:43:09.000Z</time>
      </trkpt>
      <trkpt lat="47.47326" lon="6.76398">
        <ele>331.9</ele>
        <time>2014-05-04T09:43:10.000Z</time>
      </trkpt>
      <trkpt lat="47.47332" lon="6.764">
        <ele>332.1</ele>
        <time>2014-05-04T09:43:11.000Z</time>
      </trkpt>
      <trkpt lat="47.47337" lon="6.76403">
        <ele>332.4</ele>
        <time>2014-05-04T09:43:12.000Z</time>
      </trkpt>
      <trkpt lat="47.47343" lon="6.76405">
        <ele>332.6</ele>
        <time>2014-05-04T09:43:13.000Z</time>
      </trkpt>
      <trkpt lat="47.47348" lon="6.76408">
        <ele>332.8</ele>
        <time>2014-05-04T09:43:14.000Z</time>
      </trkpt>
      <trkpt lat="47.47354" lon="6.76411">
        <ele>332.1</ele>
        <time>2014-05-04T09:43:15.000Z</time>
      </trkpt>
      <trkpt lat="47.47359" lon="6.76416">
        <ele>332.3</ele>
        <time>2014-05-04T09:43:16.000Z</time>
      </trkpt>
      <trkpt lat="47.47365" lon="6.7642">
        <ele>331.4</ele>
        <time>2014-05-04T09:43:17.000Z</time>
      </trkpt>
      <trkpt lat="47.4737" lon="6.76422">
        <ele>331.4</ele>
        <time>2014-05-04T09:43:18.000Z</time>
      </trkpt>
      <trkpt lat="47.47375" lon="6.76426">
        <ele>331.9</ele>
        <time>2014-05-04T09:43:19.000Z</time>
      </trkpt>
      <trkpt lat="47.4738" lon="6.76429">
        <ele>332.5</ele>
        <time>2014-05-04T09:43:20.000Z</time>
      </trkpt>
      <trkpt lat="47.47385" lon="6.76432">
        <ele>331.6</ele>
        <time>2014-05-04T09:43:21.000Z</time>
      </trkpt>
      <trkpt lat="47.47389" lon="6.76436">
        <ele>332.1</ele>
        <time>2014-05-04T09:43:22.000Z</time>
      </trkpt>
      <trkpt lat="47.47393" lon="6.76441">
        <ele>331.9</ele>
        <time>2014-05-04T09:43:23.000Z</time>
      </trkpt>
      <trkpt lat="47.47398" lon="6.76443">
        <ele>330.1</ele>
        <time>2014-05-04T09:43:24.000Z</time>
      </trkpt>
      <trkpt lat="47.47403" lon="6.76445">
        <ele>327.8</ele>
        <time>2014-05-04T09:43:25.000Z</time>
      </trkpt>
      <trkpt lat="47.47407" lon="6.76448">
        <ele>326</ele>
        <time>2014-05-04T09:43:26.000Z</time>
      </trkpt>
      <trkpt lat="47.47411" lon="6.76452">
        <ele>327.4</ele>
        <time>2014-05-04T09:43:27.000Z</time>
      </trkpt>
      <trkpt lat="47.47416" lon="6.76453">
        <ele>324.5</ele>
        <time>2014-05-04T09:43:28.000Z</time>
      </trkpt>
      <trkpt lat="47.4742" lon="6.76457">
        <ele>324.9</ele>
        <time>2014-05-04T09:43:29.000Z</time>
      </trkpt>
      <trkpt lat="47.47424" lon="6.76459">
        <ele>325.4</ele>
        <time>2014-05-04T09:43:30.000Z</time>
      </trkpt>
      <trkpt lat="47.47427" lon="6.76459">
        <ele>326.1</ele>
        <time>2014-05-04T09:43:31.000Z</time>
      </trkpt>
      <trkpt lat="47.4743" lon="6.7646">
        <ele>326.7</ele>
        <time>2014-05-04T09:43:32.000Z</time>
      </trkpt>
      <trkpt lat="47.47432" lon="6.76461">
        <ele>327.6</ele>
        <time>2014-05-04T09:43:33.000Z</time>
      </trkpt>
      <trkpt lat="47.47434" lon="6.76462">
        <ele>327.7</ele>
        <time>2014-05-04T09:43:34.000Z</time>
      </trkpt>
      <trkpt lat="47.47437" lon="6.76458">
        <ele>328.9</ele>
        <time>2014-05-04T09:43:35.000Z</time>
      </trkpt>
      <trkpt lat="47.47439" lon="6.76457">
        <ele>330.8</ele>
        <time>2014-05-04T09:43:36.000Z</time>
      </trkpt>
      <trkpt lat="47.47444" lon="6.76455">
        <ele>331.7</ele>
        <time>2014-05-04T09:43:37.000Z</time>
      </trkpt>
      <trkpt lat="47.47449" lon="6.76453">
        <ele>332.4</ele>
        <time>2014-05-04T09:43:38.000Z</time>
      </trkpt>
      <trkpt lat="47.47454" lon="6.76451">
        <ele>331.9</ele>
        <time>2014-05-04T09:43:39.000Z</time>
      </trkpt>
      <trkpt lat="47.4746" lon="6.76453">
        <ele>331.5</ele>
        <time>2014-05-04T09:43:40.000Z</time>
      </trkpt>
      <trkpt lat="47.47465" lon="6.76454">
        <ele>331.3</ele>
        <time>2014-05-04T09:43:41.000Z</time>
      </trkpt>
      <trkpt lat="47.47471" lon="6.76456">
        <ele>331.2</ele>
        <time>2014-05-04T09:43:42.000Z</time>
      </trkpt>
      <trkpt lat="47.47472" lon="6.76456">
        <ele>332.8</ele>
        <time>2014-05-04T09:43:43.000Z</time>
      </trkpt>
      <trkpt lat="47.47509" lon="6.76449">
        <ele>322.6</ele>
        <time>2014-05-04T09:43:51.000Z</time>
      </trkpt>
      <trkpt lat="47.47513" lon="6.76441">
        <ele>322.7</ele>
        <time>2014-05-04T09:43:52.000Z</time>
      </trkpt>
      <trkpt lat="47.47518" lon="6.76434">
        <ele>324.3</ele>
        <time>2014-05-04T09:43:53.000Z</time>
      </trkpt>
      <trkpt lat="47.47524" lon="6.76427">
        <ele>324</ele>
        <time>2014-05-04T09:43:54.000Z</time>
      </trkpt>
      <trkpt lat="47.47529" lon="6.76421">
        <ele>325.3</ele>
        <time>2014-05-04T09:43:55.000Z</time>
      </trkpt>
      <trkpt lat="47.47535" lon="6.76414">
        <ele>326.3</ele>
        <time>2014-05-04T09:43:56.000Z</time>
      </trkpt>
      <trkpt lat="47.47541" lon="6.76406">
        <ele>326.7</ele>
        <time>2014-05-04T09:43:57.000Z</time>
      </trkpt>
      <trkpt lat="47.47546" lon="6.76399">
        <ele>327</ele>
        <time>2014-05-04T09:43:58.000Z</time>
      </trkpt>
      <trkpt lat="47.47545" lon="6.76386">
        <ele>328.8</ele>
        <time>2014-05-04T09:43:59.000Z</time>
      </trkpt>
      <trkpt lat="47.47546" lon="6.76377">
        <ele>328.7</ele>
        <time>2014-05-04T09:44:00.000Z</time>
      </trkpt>
      <trkpt lat="47.47549" lon="6.7637">
        <ele>329.6</ele>
        <time>2014-05-04T09:44:01.000Z</time>
      </trkpt>
      <trkpt lat="47.47553" lon="6.76361">
        <ele>331.1</ele>
        <time>2014-05-04T09:44:02.000Z</time>
      </trkpt>
      <trkpt lat="47.47557" lon="6.76354">
        <ele>331.3</ele>
        <time>2014-05-04T09:44:03.000Z</time>
      </trkpt>
      <trkpt lat="47.47562" lon="6.76344">
        <ele>331.8</ele>
        <time>2014-05-04T09:44:04.000Z</time>
      </trkpt>
      <trkpt lat="47.47567" lon="6.76337">
        <ele>331.5</ele>
        <time>2014-05-04T09:44:05.000Z</time>
      </trkpt>
      <trkpt lat="47.47572" lon="6.76329">
        <ele>332.3</ele>
        <time>2014-05-04T09:44:06.000Z</time>
      </trkpt>
      <trkpt lat="47.47577" lon="6.76321">
        <ele>332.6</ele>
        <time>2014-05-04T09:44:07.000Z</time>
      </trkpt>
      <trkpt lat="47.47583" lon="6.76312">
        <ele>332.2</ele>
        <time>2014-05-04T09:44:08.000Z</time>
      </trkpt>
      <trkpt lat="47.47587" lon="6.76304">
        <ele>331.8</ele>
        <time>2014-05-04T09:44:09.000Z</time>
      </trkpt>
      <trkpt lat="47.47591" lon="6.76296">
        <ele>332</ele>
        <time>2014-05-04T09:44:10.000Z</time>
      </trkpt>
      <trkpt lat="47.47595" lon="6.76288">
        <ele>332.8</ele>
        <time>2014-05-04T09:44:11.000Z</time>
      </trkpt>
      <trkpt lat="47.47599" lon="6.76279">
        <ele>333.3</ele>
        <time>2014-05-04T09:44:12.000Z</time>
      </trkpt>
      <trkpt lat="47.47603" lon="6.76271">
        <ele>333.6</ele>
        <time>2014-05-04T09:44:13.000Z</time>
      </trkpt>
      <trkpt lat="47.47606" lon="6.76265">
        <ele>333.4</ele>
        <time>2014-05-04T09:44:14.000Z</time>
      </trkpt>
      <trkpt lat="47.47608" lon="6.76256">
        <ele>333.9</ele>
        <time>2014-05-04T09:44:15.000Z</time>
      </trkpt>
      <trkpt lat="47.47612" lon="6.76248">
        <ele>334.1</ele>
        <time>2014-05-04T09:44:16.000Z</time>
      </trkpt>
      <trkpt lat="47.47616" lon="6.76241">
        <ele>334.2</ele>
        <time>2014-05-04T09:44:17.000Z</time>
      </trkpt>
      <trkpt lat="47.47617" lon="6.76233">
        <ele>334.6</ele>
        <time>2014-05-04T09:44:18.000Z</time>
      </trkpt>
      <trkpt lat="47.47623" lon="6.76227">
        <ele>335.2</ele>
        <time>2014-05-04T09:44:19.000Z</time>
      </trkpt>
      <trkpt lat="47.47627" lon="6.76219">
        <ele>334.5</ele>
        <time>2014-05-04T09:44:20.000Z</time>
      </trkpt>
      <trkpt lat="47.4763" lon="6.76209">
        <ele>336.3</ele>
        <time>2014-05-04T09:44:21.000Z</time>
      </trkpt>
      <trkpt lat="47.47634" lon="6.762">
        <ele>336.2</ele>
        <time>2014-05-04T09:44:22.000Z</time>
      </trkpt>
      <trkpt lat="47.47637" lon="6.76192">
        <ele>336.1</ele>
        <time>2014-05-04T09:44:23.000Z</time>
      </trkpt>
      <trkpt lat="47.4764" lon="6.76185">
        <ele>336.9</ele>
        <time>2014-05-04T09:44:24.000Z</time>
      </trkpt>
      <trkpt lat="47.47642" lon="6.76177">
        <ele>336.8</ele>
        <time>2014-05-04T09:44:25.000Z</time>
      </trkpt>
      <trkpt lat="47.47644" lon="6.76169">
        <ele>337.4</ele>
        <time>2014-05-04T09:44:26.000Z</time>
      </trkpt>
      <trkpt lat="47.47647" lon="6.76162">
        <ele>338.7</ele>
        <time>2014-05-04T09:44:27.000Z</time>
      </trkpt>
      <trkpt lat="47.4765" lon="6.76153">
        <ele>340.1</ele>
        <time>2014-05-04T09:44:28.000Z</time>
      </trkpt>
      <trkpt lat="47.47653" lon="6.76143">
        <ele>340.8</ele>
        <time>2014-05-04T09:44:29.000Z</time>
      </trkpt>
      <trkpt lat="47.47656" lon="6.76135">
        <ele>340.4</ele>
        <time>2014-05-04T09:44:30.000Z</time>
      </trkpt>
      <trkpt lat="47.4766" lon="6.76127">
        <ele>340.4</ele>
        <time>2014-05-04T09:44:31.000Z</time>
      </trkpt>
      <trkpt lat="47.47664" lon="6.76119">
        <ele>340</ele>
        <time>2014-05-04T09:44:32.000Z</time>
      </trkpt>
      <trkpt lat="47.47665" lon="6.7611">
        <ele>339.2</ele>
        <time>2014-05-04T09:44:33.000Z</time>
      </trkpt>
      <trkpt lat="47.47667" lon="6.76102">
        <ele>338</ele>
        <time>2014-05-04T09:44:34.000Z</time>
      </trkpt>
      <trkpt lat="47.47672" lon="6.76101">
        <ele>337</ele>
        <time>2014-05-04T09:44:35.000Z</time>
      </trkpt>
      <trkpt lat="47.47678" lon="6.76094">
        <ele>327.8</ele>
        <time>2014-05-04T09:44:36.000Z</time>
      </trkpt>
      <trkpt lat="47.47682" lon="6.76094">
        <ele>326.4</ele>
        <time>2014-05-04T09:44:37.000Z</time>
      </trkpt>
      <trkpt lat="47.47684" lon="6.76098">
        <ele>325.5</ele>
        <time>2014-05-04T09:44:38.000Z</time>
      </trkpt>
      <trkpt lat="47.47687" lon="6.76102">
        <ele>323</ele>
        <time>2014-05-04T09:44:39.000Z</time>
      </trkpt>
      <trkpt lat="47.4769" lon="6.76106">
        <ele>321.9</ele>
        <time>2014-05-04T09:44:40.000Z</time>
      </trkpt>
      <trkpt lat="47.47692" lon="6.76111">
        <ele>321.2</ele>
        <time>2014-05-04T09:44:41.000Z</time>
      </trkpt>
      <trkpt lat="47.47696" lon="6.76115">
        <ele>322.3</ele>
        <time>2014-05-04T09:44:42.000Z</time>
      </trkpt>
      <trkpt lat="47.47698" lon="6.7612">
        <ele>323.5</ele>
        <time>2014-05-04T09:44:43.000Z</time>
      </trkpt>
      <trkpt lat="47.47721" lon="6.76155">
        <ele>323.4</ele>
        <time>2014-05-04T09:44:51.000Z</time>
      </trkpt>
      <trkpt lat="47.47724" lon="6.76158">
        <ele>323.4</ele>
        <time>2014-05-04T09:44:52.000Z</time>
      </trkpt>
      <trkpt lat="47.47727" lon="6.76162">
        <ele>323</ele>
        <time>2014-05-04T09:44:53.000Z</time>
      </trkpt>
      <trkpt lat="47.47731" lon="6.76168">
        <ele>321.6</ele>
        <time>2014-05-04T09:44:54.000Z</time>
      </trkpt>
      <trkpt lat="47.47734" lon="6.76173">
        <ele>320.5</ele>
        <time>2014-05-04T09:44:55.000Z</time>
      </trkpt>
      <trkpt lat="47.47737" lon="6.76178">
        <ele>320.2</ele>
        <time>2014-05-04T09:44:56.000Z</time>
      </trkpt>
      <trkpt lat="47.47739" lon="6.76183">
        <ele>320.8</ele>
        <time>2014-05-04T09:44:57.000Z</time>
      </trkpt>
      <trkpt lat="47.47742" lon="6.76188">
        <ele>320.5</ele>
        <time>2014-05-04T09:44:58.000Z</time>
      </trkpt>
      <trkpt lat="47.47745" lon="6.76193">
        <ele>320.7</ele>
        <time>2014-05-04T09:44:59.000Z</time>
      </trkpt>
      <trkpt lat="47.47748" lon="6.76197">
        <ele>320.4</ele>
        <time>2014-05-04T09:45:00.000Z</time>
      </trkpt>
      <trkpt lat="47.47752" lon="6.76202">
        <ele>320.2</ele>
        <time>2014-05-04T09:45:01.000Z</time>
      </trkpt>
      <trkpt lat="47.47755" lon="6.76207">
        <ele>321.2</ele>
        <time>2014-05-04T09:45:02.000Z</time>
      </trkpt>
      <trkpt lat="47.47759" lon="6.76212">
        <ele>321.2</ele>
        <time>2014-05-04T09:45:03.000Z</time>
      </trkpt>
      <trkpt lat="47.47762" lon="6.76217">
        <ele>320.7</ele>
        <time>2014-05-04T09:45:04.000Z</time>
      </trkpt>
      <trkpt lat="47.47765" lon="6.76223">
        <ele>320.1</ele>
        <time>2014-05-04T09:45:05.000Z</time>
      </trkpt>
      <trkpt lat="47.47768" lon="6.76228">
        <ele>319.6</ele>
        <time>2014-05-04T09:45:06.000Z</time>
      </trkpt>
      <trkpt lat="47.47772" lon="6.76233">
        <ele>319.3</ele>
        <time>2014-05-04T09:45:07.000Z</time>
      </trkpt>
      <trkpt lat="47.47776" lon="6.76238">
        <ele>320</ele>
        <time>2014-05-04T09:45:08.000Z</time>
      </trkpt>
      <trkpt lat="47.4778" lon="6.76244">
        <ele>319.3</ele>
        <time>2014-05-04T09:45:09.000Z</time>
      </trkpt>
      <trkpt lat="47.47785" lon="6.76248">
        <ele>319</ele>
        <time>2014-05-04T09:45:10.000Z</time>
      </trkpt>
      <trkpt lat="47.47789" lon="6.76253">
        <ele>319.1</ele>
        <time>2014-05-04T09:45:10.998Z</time>
      </trkpt>
      <trkpt lat="47.47794" lon="6.76257">
        <ele>319.4</ele>
        <time>2014-05-04T09:45:12.000Z</time>
      </trkpt>
      <trkpt lat="47.47798" lon="6.76262">
        <ele>320.1</ele>
        <time>2014-05-04T09:45:13.000Z</time>
      </trkpt>
      <trkpt lat="47.47804" lon="6.76264">
        <ele>319.7</ele>
        <time>2014-05-04T09:45:14.000Z</time>
      </trkpt>
      <trkpt lat="47.47809" lon="6.76264">
        <ele>323.1</ele>
        <time>2014-05-04T09:45:15.000Z</time>
      </trkpt>
      <trkpt lat="47.47816" lon="6.76267">
        <ele>324.2</ele>
        <time>2014-05-04T09:45:16.000Z</time>
      </trkpt>
      <trkpt lat="47.47822" lon="6.76271">
        <ele>322.9</ele>
        <time>2014-05-04T09:45:17.000Z</time>
      </trkpt>
      <trkpt lat="47.47827" lon="6.76274">
        <ele>322.8</ele>
        <time>2014-05-04T09:45:18.000Z</time>
      </trkpt>
      <trkpt lat="47.47832" lon="6.76278">
        <ele>323.3</ele>
        <time>2014-05-04T09:45:19.000Z</time>
      </trkpt>
      <trkpt lat="47.47838" lon="6.76282">
        <ele>322.1</ele>
        <time>2014-05-04T09:45:20.000Z</time>
      </trkpt>
      <trkpt lat="47.47843" lon="6.76287">
        <ele>321.1</ele>
        <time>2014-05-04T09:45:21.000Z</time>
      </trkpt>
      <trkpt lat="47.47847" lon="6.76292">
        <ele>321.5</ele>
        <time>2014-05-04T09:45:22.000Z</time>
      </trkpt>
      <trkpt lat="47.47851" lon="6.76299">
        <ele>321.2</ele>
        <time>2014-05-04T09:45:23.000Z</time>
      </trkpt>
      <trkpt lat="47.47854" lon="6.76307">
        <ele>319.9</ele>
        <time>2014-05-04T09:45:24.000Z</time>
      </trkpt>
      <trkpt lat="47.47857" lon="6.76314">
        <ele>320.4</ele>
        <time>2014-05-04T09:45:25.000Z</time>
      </trkpt>
      <trkpt lat="47.47861" lon="6.76321">
        <ele>319.9</ele>
        <time>2014-05-04T09:45:26.000Z</time>
      </trkpt>
      <trkpt lat="47.47866" lon="6.76329">
        <ele>319.6</ele>
        <time>2014-05-04T09:45:27.000Z</time>
      </trkpt>
      <trkpt lat="47.4787" lon="6.76336">
        <ele>320.4</ele>
        <time>2014-05-04T09:45:28.000Z</time>
      </trkpt>
      <trkpt lat="47.47873" lon="6.76342">
        <ele>320.2</ele>
        <time>2014-05-04T09:45:29.000Z</time>
      </trkpt>
      <trkpt lat="47.47877" lon="6.76349">
        <ele>320.2</ele>
        <time>2014-05-04T09:45:30.000Z</time>
      </trkpt>
      <trkpt lat="47.47881" lon="6.76356">
        <ele>320</ele>
        <time>2014-05-04T09:45:31.000Z</time>
      </trkpt>
      <trkpt lat="47.47885" lon="6.76362">
        <ele>320.2</ele>
        <time>2014-05-04T09:45:32.000Z</time>
      </trkpt>
      <trkpt lat="47.47889" lon="6.7637">
        <ele>319.4</ele>
        <time>2014-05-04T09:45:33.000Z</time>
      </trkpt>
      <trkpt lat="47.47892" lon="6.76377">
        <ele>318.7</ele>
        <time>2014-05-04T09:45:34.000Z</time>
      </trkpt>
      <trkpt lat="47.47895" lon="6.76383">
        <ele>318.8</ele>
        <time>2014-05-04T09:45:35.000Z</time>
      </trkpt>
      <trkpt lat="47.47898" lon="6.76389">
        <ele>318</ele>
        <time>2014-05-04T09:45:36.000Z</time>
      </trkpt>
      <trkpt lat="47.47902" lon="6.76397">
        <ele>316.7</ele>
        <time>2014-05-04T09:45:37.000Z</time>
      </trkpt>
      <trkpt lat="47.47906" lon="6.76401">
        <ele>314.4</ele>
        <time>2014-05-04T09:45:38.000Z</time>
      </trkpt>
      <trkpt lat="47.47907" lon="6.76408">
        <ele>314.6</ele>
        <time>2014-05-04T09:45:39.000Z</time>
      </trkpt>
      <trkpt lat="47.4791" lon="6.76414">
        <ele>314.4</ele>
        <time>2014-05-04T09:45:40.000Z</time>
      </trkpt>
      <trkpt lat="47.47913" lon="6.7642">
        <ele>315</ele>
        <time>2014-05-04T09:45:41.000Z</time>
      </trkpt>
      <trkpt lat="47.47915" lon="6.76426">
        <ele>315.1</ele>
        <time>2014-05-04T09:45:42.000Z</time>
      </trkpt>
      <trkpt lat="47.47917" lon="6.76433">
        <ele>315.3</ele>
        <time>2014-05-04T09:45:43.000Z</time>
      </trkpt>
      <trkpt lat="47.47926" lon="6.76471">
        <ele>317.6</ele>
        <time>2014-05-04T09:45:51.000Z</time>
      </trkpt>
      <trkpt lat="47.47927" lon="6.76479">
        <ele>317.7</ele>
        <time>2014-05-04T09:45:52.000Z</time>
      </trkpt>
      <trkpt lat="47.47927" lon="6.76487">
        <ele>317.2</ele>
        <time>2014-05-04T09:45:53.000Z</time>
      </trkpt>
      <trkpt lat="47.47929" lon="6.76494">
        <ele>318.1</ele>
        <time>2014-05-04T09:45:54.000Z</time>
      </trkpt>
      <trkpt lat="47.4793" lon="6.76501">
        <ele>318.1</ele>
        <time>2014-05-04T09:45:55.000Z</time>
      </trkpt>
      <trkpt lat="47.47933" lon="6.76508">
        <ele>316.9</ele>
        <time>2014-05-04T09:45:56.000Z</time>
      </trkpt>
      <trkpt lat="47.47934" lon="6.76514">
        <ele>316.1</ele>
        <time>2014-05-04T09:45:57.000Z</time>
      </trkpt>
      <trkpt lat="47.47936" lon="6.76521">
        <ele>315.8</ele>
        <time>2014-05-04T09:45:58.000Z</time>
      </trkpt>
      <trkpt lat="47.47937" lon="6.76527">
        <ele>316.1</ele>
        <time>2014-05-04T09:45:59.000Z</time>
      </trkpt>
      <trkpt lat="47.47938" lon="6.76534">
        <ele>316.4</ele>
        <time>2014-05-04T09:46:00.000Z</time>
      </trkpt>
      <trkpt lat="47.47939" lon="6.7654">
        <ele>317</ele>
        <time>2014-05-04T09:46:01.000Z</time>
      </trkpt>
      <trkpt lat="47.47941" lon="6.76548">
        <ele>316.8</ele>
        <time>2014-05-04T09:46:02.000Z</time>
      </trkpt>
      <trkpt lat="47.47943" lon="6.76554">
        <ele>316.4</ele>
        <time>2014-05-04T09:46:03.000Z</time>
      </trkpt>
      <trkpt lat="47.47945" lon="6.76561">
        <ele>318.2</ele>
        <time>2014-05-04T09:46:04.000Z</time>
      </trkpt>
      <trkpt lat="47.47947" lon="6.76568">
        <ele>317.7</ele>
        <time>2014-05-04T09:46:05.000Z</time>
      </trkpt>
      <trkpt lat="47.47949" lon="6.76574">
        <ele>317.7</ele>
        <time>2014-05-04T09:46:06.000Z</time>
      </trkpt>
      <trkpt lat="47.4795" lon="6.76582">
        <ele>317.1</ele>
        <time>2014-05-04T09:46:07.000Z</time>
      </trkpt>
      <trkpt lat="47.47951" lon="6.76589">
        <ele>316.6</ele>
        <time>2014-05-04T09:46:08.000Z</time>
      </trkpt>
      <trkpt lat="47.47951" lon="6.76596">
        <ele>317.4</ele>
        <time>2014-05-04T09:46:09.000Z</time>
      </trkpt>
      <trkpt lat="47.47951" lon="6.76602">
        <ele>316.8</ele>
        <time>2014-05-04T09:46:10.000Z</time>
      </trkpt>
      <trkpt lat="47.47952" lon="6.76608">
        <ele>316.5</ele>
        <time>2014-05-04T09:46:11.000Z</time>
      </trkpt>
      <trkpt lat="47.47952" lon="6.76613">
        <ele>318.5</ele>
        <time>2014-05-04T09:46:14.000Z</time>
      </trkpt>
      <trkpt lat="47.47952" lon="6.76614">
        <ele>318.4</ele>
        <time>2014-05-04T09:46:15.000Z</time>
      </trkpt>
      <trkpt lat="47.47955" lon="6.76616">
        <ele>320</ele>
        <time>2014-05-04T09:46:19.000Z</time>
      </trkpt>
      <trkpt lat="47.47957" lon="6.76616">
        <ele>319.6</ele>
        <time>2014-05-04T09:46:20.000Z</time>
      </trkpt>
      <trkpt lat="47.4796" lon="6.76617">
        <ele>320.1</ele>
        <time>2014-05-04T09:46:21.000Z</time>
      </trkpt>
      <trkpt lat="47.47963" lon="6.76618">
        <ele>320.5</ele>
        <time>2014-05-04T09:46:22.000Z</time>
      </trkpt>
      <trkpt lat="47.47967" lon="6.76619">
        <ele>320.7</ele>
        <time>2014-05-04T09:46:23.000Z</time>
      </trkpt>
      <trkpt lat="47.47971" lon="6.76618">
        <ele>320.7</ele>
        <time>2014-05-04T09:46:24.000Z</time>
      </trkpt>
      <trkpt lat="47.47977" lon="6.76615">
        <ele>320.7</ele>
        <time>2014-05-04T09:46:25.000Z</time>
      </trkpt>
      <trkpt lat="47.47981" lon="6.76612">
        <ele>320</ele>
        <time>2014-05-04T09:46:26.000Z</time>
      </trkpt>
      <trkpt lat="47.47985" lon="6.7661">
        <ele>319.7</ele>
        <time>2014-05-04T09:46:27.000Z</time>
      </trkpt>
      <trkpt lat="47.47989" lon="6.76608">
        <ele>318.5</ele>
        <time>2014-05-04T09:46:28.000Z</time>
      </trkpt>
      <trkpt lat="47.47993" lon="6.76607">
        <ele>319.2</ele>
        <time>2014-05-04T09:46:29.000Z</time>
      </trkpt>
      <trkpt lat="47.47997" lon="6.76606">
        <ele>320.6</ele>
        <time>2014-05-04T09:46:30.000Z</time>
      </trkpt>
      <trkpt lat="47.48002" lon="6.76603">
        <ele>321.1</ele>
        <time>2014-05-04T09:46:31.000Z</time>
      </trkpt>
      <trkpt lat="47.48007" lon="6.76601">
        <ele>321.6</ele>
        <time>2014-05-04T09:46:32.000Z</time>
      </trkpt>
      <trkpt lat="47.48011" lon="6.76598">
        <ele>322.1</ele>
        <time>2014-05-04T09:46:33.000Z</time>
      </trkpt>
      <trkpt lat="47.48016" lon="6.76595">
        <ele>322.6</ele>
        <time>2014-05-04T09:46:34.000Z</time>
      </trkpt>
      <trkpt lat="47.4802" lon="6.76592">
        <ele>322.7</ele>
        <time>2014-05-04T09:46:35.000Z</time>
      </trkpt>
      <trkpt lat="47.48024" lon="6.76588">
        <ele>322.8</ele>
        <time>2014-05-04T09:46:36.000Z</time>
      </trkpt>
      <trkpt lat="47.48029" lon="6.76584">
        <ele>323.4</ele>
        <time>2014-05-04T09:46:37.000Z</time>
      </trkpt>
      <trkpt lat="47.48034" lon="6.76581">
        <ele>323.6</ele>
        <time>2014-05-04T09:46:38.000Z</time>
      </trkpt>
      <trkpt lat="47.48038" lon="6.76578">
        <ele>323.4</ele>
        <time>2014-05-04T09:46:39.000Z</time>
      </trkpt>
      <trkpt lat="47.48043" lon="6.76574">
        <ele>323.1</ele>
        <time>2014-05-04T09:46:40.000Z</time>
      </trkpt>
      <trkpt lat="47.48047" lon="6.76571">
        <ele>323.6</ele>
        <time>2014-05-04T09:46:41.000Z</time>
      </trkpt>
      <trkpt lat="47.48051" lon="6.76567">
        <ele>325.1</ele>
        <time>2014-05-04T09:46:42.000Z</time>
      </trkpt>
      <trkpt lat="47.48055" lon="6.76564">
        <ele>325.2</ele>
        <time>2014-05-04T09:46:43.000Z</time>
      </trkpt>
      <trkpt lat="47.48085" lon="6.76533">
        <ele>328.8</ele>
        <time>2014-05-04T09:46:51.000Z</time>
      </trkpt>
      <trkpt lat="47.48089" lon="6.76529">
        <ele>328.2</ele>
        <time>2014-05-04T09:46:52.000Z</time>
      </trkpt>
      <trkpt lat="47.48093" lon="6.76527">
        <ele>327.9</ele>
        <time>2014-05-04T09:46:53.000Z</time>
      </trkpt>
      <trkpt lat="47.48096" lon="6.76524">
        <ele>328.3</ele>
        <time>2014-05-04T09:46:54.000Z</time>
      </trkpt>
      <trkpt lat="47.481" lon="6.76521">
        <ele>328.3</ele>
        <time>2014-05-04T09:46:55.000Z</time>
      </trkpt>
      <trkpt lat="47.48103" lon="6.76521">
        <ele>328.4</ele>
        <time>2014-05-04T09:46:56.000Z</time>
      </trkpt>
      <trkpt lat="47.48106" lon="6.76524">
        <ele>328.6</ele>
        <time>2014-05-04T09:46:57.000Z</time>
      </trkpt>
      <trkpt lat="47.48109" lon="6.76528">
        <ele>329</ele>
        <time>2014-05-04T09:46:58.000Z</time>
      </trkpt>
      <trkpt lat="47.48111" lon="6.76533">
        <ele>329.4</ele>
        <time>2014-05-04T09:46:59.000Z</time>
      </trkpt>
      <trkpt lat="47.48114" lon="6.76538">
        <ele>329.8</ele>
        <time>2014-05-04T09:47:00.000Z</time>
      </trkpt>
      <trkpt lat="47.48116" lon="6.76543">
        <ele>330.6</ele>
        <time>2014-05-04T09:47:01.000Z</time>
      </trkpt>
      <trkpt lat="47.48117" lon="6.76549">
        <ele>327.2</ele>
        <time>2014-05-04T09:47:02.000Z</time>
      </trkpt>
      <trkpt lat="47.48115" lon="6.76557">
        <ele>328</ele>
        <time>2014-05-04T09:47:03.000Z</time>
      </trkpt>
      <trkpt lat="47.48113" lon="6.76563">
        <ele>328.4</ele>
        <time>2014-05-04T09:47:03.999Z</time>
      </trkpt>
      <trkpt lat="47.4811" lon="6.76567">
        <ele>327.5</ele>
        <time>2014-05-04T09:47:05.000Z</time>
      </trkpt>
      <trkpt lat="47.48107" lon="6.76572">
        <ele>328.4</ele>
        <time>2014-05-04T09:47:06.000Z</time>
      </trkpt>
      <trkpt lat="47.48104" lon="6.76577">
        <ele>329.5</ele>
        <time>2014-05-04T09:47:07.000Z</time>
      </trkpt>
      <trkpt lat="47.48101" lon="6.76582">
        <ele>330.9</ele>
        <time>2014-05-04T09:47:08.000Z</time>
      </trkpt>
      <trkpt lat="47.481" lon="6.76588">
        <ele>331</ele>
        <time>2014-05-04T09:47:09.000Z</time>
      </trkpt>
      <trkpt lat="47.48097" lon="6.76595">
        <ele>331.7</ele>
        <time>2014-05-04T09:47:10.000Z</time>
      </trkpt>
      <trkpt lat="47.48096" lon="6.76604">
        <ele>331.4</ele>
        <time>2014-05-04T09:47:11.000Z</time>
      </trkpt>
      <trkpt lat="47.48095" lon="6.76612">
        <ele>330.4</ele>
        <time>2014-05-04T09:47:12.000Z</time>
      </trkpt>
      <trkpt lat="47.48098" lon="6.76614">
        <ele>325.8</ele>
        <time>2014-05-04T09:47:13.000Z</time>
      </trkpt>
      <trkpt lat="47.48101" lon="6.76623">
        <ele>326</ele>
        <time>2014-05-04T09:47:14.000Z</time>
      </trkpt>
      <trkpt lat="47.48102" lon="6.76631">
        <ele>326.7</ele>
        <time>2014-05-04T09:47:15.000Z</time>
      </trkpt>
      <trkpt lat="47.48104" lon="6.76637">
        <ele>328.8</ele>
        <time>2014-05-04T09:47:16.000Z</time>
      </trkpt>
      <trkpt lat="47.48106" lon="6.76642">
        <ele>330.5</ele>
        <time>2014-05-04T09:47:17.000Z</time>
      </trkpt>
      <trkpt lat="47.48109" lon="6.76649">
        <ele>331.9</ele>
        <time>2014-05-04T09:47:18.000Z</time>
      </trkpt>
      <trkpt lat="47.48112" lon="6.76656">
        <ele>331.8</ele>
        <time>2014-05-04T09:47:19.000Z</time>
      </trkpt>
      <trkpt lat="47.48113" lon="6.76662">
        <ele>333</ele>
        <time>2014-05-04T09:47:21.000Z</time>
      </trkpt>
      <trkpt lat="47.48115" lon="6.76668">
        <ele>333.3</ele>
        <time>2014-05-04T09:47:22.000Z</time>
      </trkpt>
      <trkpt lat="47.4812" lon="6.76676">
        <ele>333</ele>
        <time>2014-05-04T09:47:23.000Z</time>
      </trkpt>
      <trkpt lat="47.48127" lon="6.76685">
        <ele>331.3</ele>
        <time>2014-05-04T09:47:24.000Z</time>
      </trkpt>
      <trkpt lat="47.48131" lon="6.7669">
        <ele>329</ele>
        <time>2014-05-04T09:47:25.000Z</time>
      </trkpt>
      <trkpt lat="47.48135" lon="6.76698">
        <ele>329.7</ele>
        <time>2014-05-04T09:47:26.000Z</time>
      </trkpt>
      <trkpt lat="47.48139" lon="6.76706">
        <ele>330</ele>
        <time>2014-05-04T09:47:27.000Z</time>
      </trkpt>
      <trkpt lat="47.48142" lon="6.76714">
        <ele>329.5</ele>
        <time>2014-05-04T09:47:28.000Z</time>
      </trkpt>
      <trkpt lat="47.48145" lon="6.76722">
        <ele>330.1</ele>
        <time>2014-05-04T09:47:29.000Z</time>
      </trkpt>
      <trkpt lat="47.48148" lon="6.7673">
        <ele>329.3</ele>
        <time>2014-05-04T09:47:30.000Z</time>
      </trkpt>
      <trkpt lat="47.48152" lon="6.76738">
        <ele>329.3</ele>
        <time>2014-05-04T09:47:31.000Z</time>
      </trkpt>
      <trkpt lat="47.48157" lon="6.76743">
        <ele>326.8</ele>
        <time>2014-05-04T09:47:32.000Z</time>
      </trkpt>
      <trkpt lat="47.48161" lon="6.76751">
        <ele>327.1</ele>
        <time>2014-05-04T09:47:33.000Z</time>
      </trkpt>
      <trkpt lat="47.48166" lon="6.76757">
        <ele>327.2</ele>
        <time>2014-05-04T09:47:34.000Z</time>
      </trkpt>
      <trkpt lat="47.48172" lon="6.76765">
        <ele>327.6</ele>
        <time>2014-05-04T09:47:35.000Z</time>
      </trkpt>
      <trkpt lat="47.48179" lon="6.76773">
        <ele>327</ele>
        <time>2014-05-04T09:47:36.000Z</time>
      </trkpt>
      <trkpt lat="47.48186" lon="6.7678">
        <ele>327.3</ele>
        <time>2014-05-04T09:47:37.000Z</time>
      </trkpt>
      <trkpt lat="47.48193" lon="6.76785">
        <ele>327.6</ele>
        <time>2014-05-04T09:47:38.000Z</time>
      </trkpt>
      <trkpt lat="47.482" lon="6.76789">
        <ele>327.9</ele>
        <time>2014-05-04T09:47:39.000Z</time>
      </trkpt>
      <trkpt lat="47.48208" lon="6.76794">
        <ele>327.6</ele>
        <time>2014-05-04T09:47:40.000Z</time>
      </trkpt>
      <trkpt lat="47.48217" lon="6.76798">
        <ele>327.6</ele>
        <time>2014-05-04T09:47:41.000Z</time>
      </trkpt>
      <trkpt lat="47.48225" lon="6.76802">
        <ele>327.1</ele>
        <time>2014-05-04T09:47:42.000Z</time>
      </trkpt>
      <trkpt lat="47.48232" lon="6.76807">
        <ele>327.3</ele>
        <time>2014-05-04T09:47:43.000Z</time>
      </trkpt>
      <trkpt lat="47.48283" lon="6.76869">
        <ele>329.8</ele>
        <time>2014-05-04T09:47:51.000Z</time>
      </trkpt>
      <trkpt lat="47.48288" lon="6.76879">
        <ele>330.7</ele>
        <time>2014-05-04T09:47:52.000Z</time>
      </trkpt>
      <trkpt lat="47.48295" lon="6.76887">
        <ele>331.6</ele>
        <time>2014-05-04T09:47:53.000Z</time>
      </trkpt>
      <trkpt lat="47.48302" lon="6.76892">
        <ele>331.7</ele>
        <time>2014-05-04T09:47:54.000Z</time>
      </trkpt>
      <trkpt lat="47.48309" lon="6.76898">
        <ele>331.2</ele>
        <time>2014-05-04T09:47:55.000Z</time>
      </trkpt>
      <trkpt lat="47.48314" lon="6.76903">
        <ele>331.2</ele>
        <time>2014-05-04T09:47:56.000Z</time>
      </trkpt>
      <trkpt lat="47.48318" lon="6.76909">
        <ele>331.3</ele>
        <time>2014-05-04T09:47:57.000Z</time>
      </trkpt>
      <trkpt lat="47.48326" lon="6.76916">
        <ele>329.1</ele>
        <time>2014-05-04T09:47:58.000Z</time>
      </trkpt>
      <trkpt lat="47.48333" lon="6.76921">
        <ele>329.1</ele>
        <time>2014-05-04T09:47:59.000Z</time>
      </trkpt>
      <trkpt lat="47.4834" lon="6.76924">
        <ele>328.7</ele>
        <time>2014-05-04T09:48:00.000Z</time>
      </trkpt>
      <trkpt lat="47.48347" lon="6.76928">
        <ele>329.2</ele>
        <time>2014-05-04T09:48:01.000Z</time>
      </trkpt>
      <trkpt lat="47.48353" lon="6.76931">
        <ele>329.6</ele>
        <time>2014-05-04T09:48:02.000Z</time>
      </trkpt>
      <trkpt lat="47.48361" lon="6.76935">
        <ele>328.7</ele>
        <time>2014-05-04T09:48:03.000Z</time>
      </trkpt>
      <trkpt lat="47.48367" lon="6.76939">
        <ele>329.9</ele>
        <time>2014-05-04T09:48:04.000Z</time>
      </trkpt>
      <trkpt lat="47.48372" lon="6.76943">
        <ele>329.8</ele>
        <time>2014-05-04T09:48:05.000Z</time>
      </trkpt>
      <trkpt lat="47.48376" lon="6.76947">
        <ele>329.2</ele>
        <time>2014-05-04T09:48:06.000Z</time>
      </trkpt>
      <trkpt lat="47.48382" lon="6.7695">
        <ele>328.6</ele>
        <time>2014-05-04T09:48:07.000Z</time>
      </trkpt>
      <trkpt lat="47.48386" lon="6.76954">
        <ele>329.9</ele>
        <time>2014-05-04T09:48:08.000Z</time>
      </trkpt>
      <trkpt lat="47.4839" lon="6.76957">
        <ele>330.1</ele>
        <time>2014-05-04T09:48:09.000Z</time>
      </trkpt>
      <trkpt lat="47.48395" lon="6.7696">
        <ele>330.2</ele>
        <time>2014-05-04T09:48:10.000Z</time>
      </trkpt>
      <trkpt lat="47.484" lon="6.76963">
        <ele>329.6</ele>
        <time>2014-05-04T09:48:11.000Z</time>
      </trkpt>
      <trkpt lat="47.48404" lon="6.76965">
        <ele>329.6</ele>
        <time>2014-05-04T09:48:12.000Z</time>
      </trkpt>
      <trkpt lat="47.48411" lon="6.76968">
        <ele>329.7</ele>
        <time>2014-05-04T09:48:13.000Z</time>
      </trkpt>
      <trkpt lat="47.48416" lon="6.7697">
        <ele>329.8</ele>
        <time>2014-05-04T09:48:14.000Z</time>
      </trkpt>
      <trkpt lat="47.48421" lon="6.76972">
        <ele>329.5</ele>
        <time>2014-05-04T09:48:15.000Z</time>
      </trkpt>
      <trkpt lat="47.48426" lon="6.76974">
        <ele>330.5</ele>
        <time>2014-05-04T09:48:16.000Z</time>
      </trkpt>
      <trkpt lat="47.48431" lon="6.76976">
        <ele>330.5</ele>
        <time>2014-05-04T09:48:17.000Z</time>
      </trkpt>
      <trkpt lat="47.48437" lon="6.76979">
        <ele>330.7</ele>
        <time>2014-05-04T09:48:18.000Z</time>
      </trkpt>
      <trkpt lat="47.48443" lon="6.76982">
        <ele>331.4</ele>
        <time>2014-05-04T09:48:19.000Z</time>
      </trkpt>
      <trkpt lat="47.48448" lon="6.76985">
        <ele>331.6</ele>
        <time>2014-05-04T09:48:20.000Z</time>
      </trkpt>
      <trkpt lat="47.48453" lon="6.76989">
        <ele>332</ele>
        <time>2014-05-04T09:48:21.000Z</time>
      </trkpt>
      <trkpt lat="47.48458" lon="6.76993">
        <ele>331.9</ele>
        <time>2014-05-04T09:48:22.000Z</time>
      </trkpt>
      <trkpt lat="47.48463" lon="6.76996">
        <ele>331.9</ele>
        <time>2014-05-04T09:48:23.000Z</time>
      </trkpt>
      <trkpt lat="47.48469" lon="6.76999">
        <ele>331.7</ele>
        <time>2014-05-04T09:48:24.000Z</time>
      </trkpt>
      <trkpt lat="47.48475" lon="6.77003">
        <ele>331.5</ele>
        <time>2014-05-04T09:48:25.000Z</time>
      </trkpt>
      <trkpt lat="47.4848" lon="6.77007">
        <ele>331.5</ele>
        <time>2014-05-04T09:48:26.000Z</time>
      </trkpt>
      <trkpt lat="47.48486" lon="6.7701">
        <ele>330.7</ele>
        <time>2014-05-04T09:48:27.000Z</time>
      </trkpt>
      <trkpt lat="47.48492" lon="6.77015">
        <ele>329.7</ele>
        <time>2014-05-04T09:48:28.000Z</time>
      </trkpt>
      <trkpt lat="47.48498" lon="6.77018">
        <ele>329.7</ele>
        <time>2014-05-04T09:48:29.000Z</time>
      </trkpt>
      <trkpt lat="47.48504" lon="6.77022">
        <ele>330.2</ele>
        <time>2014-05-04T09:48:30.000Z</time>
      </trkpt>
      <trkpt lat="47.48511" lon="6.77025">
        <ele>329.3</ele>
        <time>2014-05-04T09:48:31.000Z</time>
      </trkpt>
      <trkpt lat="47.48517" lon="6.7703">
        <ele>329.2</ele>
        <time>2014-05-04T09:48:32.000Z</time>
      </trkpt>
      <trkpt lat="47.48524" lon="6.77037">
        <ele>328</ele>
        <time>2014-05-04T09:48:33.000Z</time>
      </trkpt>
      <trkpt lat="47.48531" lon="6.77042">
        <ele>326.7</ele>
        <time>2014-05-04T09:48:34.000Z</time>
      </trkpt>
      <trkpt lat="47.48537" lon="6.77048">
        <ele>327.5</ele>
        <time>2014-05-04T09:48:35.000Z</time>
      </trkpt>
      <trkpt lat="47.48544" lon="6.77053">
        <ele>328.9</ele>
        <time>2014-05-04T09:48:36.000Z</time>
      </trkpt>
      <trkpt lat="47.48552" lon="6.77057">
        <ele>329.7</ele>
        <time>2014-05-04T09:48:37.000Z</time>
      </trkpt>
      <trkpt lat="47.48558" lon="6.77058">
        <ele>329</ele>
        <time>2014-05-04T09:48:38.000Z</time>
      </trkpt>
      <trkpt lat="47.48564" lon="6.7706">
        <ele>329.7</ele>
        <time>2014-05-04T09:48:39.000Z</time>
      </trkpt>
      <trkpt lat="47.48569" lon="6.77061">
        <ele>327.7</ele>
        <time>2014-05-04T09:48:40.000Z</time>
      </trkpt>
      <trkpt lat="47.48575" lon="6.77062">
        <ele>326.9</ele>
        <time>2014-05-04T09:48:41.000Z</time>
      </trkpt>
      <trkpt lat="47.4858" lon="6.77064">
        <ele>325.8</ele>
        <time>2014-05-04T09:48:42.000Z</time>
      </trkpt>
      <trkpt lat="47.48585" lon="6.77066">
        <ele>325.9</ele>
        <time>2014-05-04T09:48:43.000Z</time>
      </trkpt>
      <trkpt lat="47.4862" lon="6.77087">
        <ele>324.9</ele>
        <time>2014-05-04T09:48:51.000Z</time>
      </trkpt>
      <trkpt lat="47.48625" lon="6.77087">
        <ele>323.3</ele>
        <time>2014-05-04T09:48:52.000Z</time>
      </trkpt>
      <trkpt lat="47.48628" lon="6.77087">
        <ele>321.9</ele>
        <time>2014-05-04T09:48:53.000Z</time>
      </trkpt>
      <trkpt lat="47.48633" lon="6.7709">
        <ele>320.1</ele>
        <time>2014-05-04T09:48:54.000Z</time>
      </trkpt>
      <trkpt lat="47.48638" lon="6.77093">
        <ele>318</ele>
        <time>2014-05-04T09:48:55.000Z</time>
      </trkpt>
      <trkpt lat="47.48643" lon="6.77098">
        <ele>317.4</ele>
        <time>2014-05-04T09:48:56.000Z</time>
      </trkpt>
      <trkpt lat="47.48648" lon="6.77104">
        <ele>316.7</ele>
        <time>2014-05-04T09:48:57.000Z</time>
      </trkpt>
      <trkpt lat="47.48654" lon="6.77109">
        <ele>316.2</ele>
        <time>2014-05-04T09:48:58.000Z</time>
      </trkpt>
      <trkpt lat="47.48658" lon="6.77115">
        <ele>315.9</ele>
        <time>2014-05-04T09:48:59.000Z</time>
      </trkpt>
      <trkpt lat="47.48663" lon="6.77121">
        <ele>316.3</ele>
        <time>2014-05-04T09:49:00.000Z</time>
      </trkpt>
      <trkpt lat="47.48668" lon="6.77125">
        <ele>316.6</ele>
        <time>2014-05-04T09:49:01.000Z</time>
      </trkpt>
      <trkpt lat="47.48672" lon="6.7713">
        <ele>316.8</ele>
        <time>2014-05-04T09:49:02.000Z</time>
      </trkpt>
      <trkpt lat="47.48676" lon="6.77135">
        <ele>317.1</ele>
        <time>2014-05-04T09:49:03.000Z</time>
      </trkpt>
      <trkpt lat="47.48681" lon="6.77141">
        <ele>316.9</ele>
        <time>2014-05-04T09:49:04.000Z</time>
      </trkpt>
      <trkpt lat="47.48685" lon="6.77146">
        <ele>317.3</ele>
        <time>2014-05-04T09:49:05.000Z</time>
      </trkpt>
      <trkpt lat="47.4869" lon="6.77152">
        <ele>317.9</ele>
        <time>2014-05-04T09:49:06.000Z</time>
      </trkpt>
      <trkpt lat="47.48696" lon="6.77155">
        <ele>320.5</ele>
        <time>2014-05-04T09:49:07.000Z</time>
      </trkpt>
      <trkpt lat="47.487" lon="6.77159">
        <ele>322.2</ele>
        <time>2014-05-04T09:49:08.000Z</time>
      </trkpt>
      <trkpt lat="47.48706" lon="6.77163">
        <ele>321.7</ele>
        <time>2014-05-04T09:49:09.000Z</time>
      </trkpt>
      <trkpt lat="47.4871" lon="6.77167">
        <ele>321.6</ele>
        <time>2014-05-04T09:49:10.000Z</time>
      </trkpt>
      <trkpt lat="47.48715" lon="6.77171">
        <ele>321.3</ele>
        <time>2014-05-04T09:49:11.000Z</time>
      </trkpt>
      <trkpt lat="47.4872" lon="6.77176">
        <ele>320.6</ele>
        <time>2014-05-04T09:49:12.000Z</time>
      </trkpt>
      <trkpt lat="47.48724" lon="6.7718">
        <ele>320.9</ele>
        <time>2014-05-04T09:49:13.000Z</time>
      </trkpt>
      <trkpt lat="47.4873" lon="6.77185">
        <ele>321</ele>
        <time>2014-05-04T09:49:14.000Z</time>
      </trkpt>
      <trkpt lat="47.48736" lon="6.77189">
        <ele>322</ele>
        <time>2014-05-04T09:49:15.000Z</time>
      </trkpt>
      <trkpt lat="47.48742" lon="6.77193">
        <ele>321.7</ele>
        <time>2014-05-04T09:49:16.000Z</time>
      </trkpt>
      <trkpt lat="47.48749" lon="6.77198">
        <ele>321.1</ele>
        <time>2014-05-04T09:49:17.000Z</time>
      </trkpt>
      <trkpt lat="47.48756" lon="6.77204">
        <ele>321.3</ele>
        <time>2014-05-04T09:49:18.000Z</time>
      </trkpt>
      <trkpt lat="47.48763" lon="6.77209">
        <ele>320.5</ele>
        <time>2014-05-04T09:49:19.000Z</time>
      </trkpt>
      <trkpt lat="47.4877" lon="6.77214">
        <ele>320.5</ele>
        <time>2014-05-04T09:49:20.000Z</time>
      </trkpt>
      <trkpt lat="47.48778" lon="6.77219">
        <ele>320.9</ele>
        <time>2014-05-04T09:49:21.000Z</time>
      </trkpt>
      <trkpt lat="47.48784" lon="6.77223">
        <ele>320.1</ele>
        <time>2014-05-04T09:49:22.000Z</time>
      </trkpt>
      <trkpt lat="47.48792" lon="6.77227">
        <ele>319.2</ele>
        <time>2014-05-04T09:49:23.000Z</time>
      </trkpt>
      <trkpt lat="47.48799" lon="6.77233">
        <ele>319.3</ele>
        <time>2014-05-04T09:49:24.000Z</time>
      </trkpt>
      <trkpt lat="47.48805" lon="6.77238">
        <ele>320.2</ele>
        <time>2014-05-04T09:49:25.000Z</time>
      </trkpt>
      <trkpt lat="47.48812" lon="6.77244">
        <ele>320.2</ele>
        <time>2014-05-04T09:49:26.000Z</time>
      </trkpt>
      <trkpt lat="47.48818" lon="6.77249">
        <ele>319.2</ele>
        <time>2014-05-04T09:49:27.000Z</time>
      </trkpt>
      <trkpt lat="47.48824" lon="6.77254">
        <ele>319</ele>
        <time>2014-05-04T09:49:28.000Z</time>
      </trkpt>
      <trkpt lat="47.4883" lon="6.77258">
        <ele>318.6</ele>
        <time>2014-05-04T09:49:29.000Z</time>
      </trkpt>
      <trkpt lat="47.48836" lon="6.77263">
        <ele>318.9</ele>
        <time>2014-05-04T09:49:30.000Z</time>
      </trkpt>
      <trkpt lat="47.48842" lon="6.77266">
        <ele>318.2</ele>
        <time>2014-05-04T09:49:31.000Z</time>
      </trkpt>
      <trkpt lat="47.48847" lon="6.77271">
        <ele>318.5</ele>
        <time>2014-05-04T09:49:32.000Z</time>
      </trkpt>
      <trkpt lat="47.48854" lon="6.77275">
        <ele>319.1</ele>
        <time>2014-05-04T09:49:33.000Z</time>
      </trkpt>
      <trkpt lat="47.48859" lon="6.77278">
        <ele>319.2</ele>
        <time>2014-05-04T09:49:34.000Z</time>
      </trkpt>
      <trkpt lat="47.48865" lon="6.77282">
        <ele>319.1</ele>
        <time>2014-05-04T09:49:35.000Z</time>
      </trkpt>
      <trkpt lat="47.48871" lon="6.77285">
        <ele>319.5</ele>
        <time>2014-05-04T09:49:36.000Z</time>
      </trkpt>
      <trkpt lat="47.48878" lon="6.77287">
        <ele>319.3</ele>
        <time>2014-05-04T09:49:37.000Z</time>
      </trkpt>
      <trkpt lat="47.48884" lon="6.77289">
        <ele>319.6</ele>
        <time>2014-05-04T09:49:38.000Z</time>
      </trkpt>
      <trkpt lat="47.48889" lon="6.77291">
        <ele>319.5</ele>
        <time>2014-05-04T09:49:39.000Z</time>
      </trkpt>
      <trkpt lat="47.48895" lon="6.77294">
        <ele>320.3</ele>
        <time>2014-05-04T09:49:40.000Z</time>
      </trkpt>
      <trkpt lat="47.48902" lon="6.77294">
        <ele>318.8</ele>
        <time>2014-05-04T09:49:41.000Z</time>
      </trkpt>
      <trkpt lat="47.48908" lon="6.77296">
        <ele>319.1</ele>
        <time>2014-05-04T09:49:42.000Z</time>
      </trkpt>
      <trkpt lat="47.48914" lon="6.77298">
        <ele>318.5</ele>
        <time>2014-05-04T09:49:43.000Z</time>
      </trkpt>
      <trkpt lat="47.48956" lon="6.77316">
        <ele>318.4</ele>
        <time>2014-05-04T09:49:51.000Z</time>
      </trkpt>
      <trkpt lat="47.48962" lon="6.77318">
        <ele>318.3</ele>
        <time>2014-05-04T09:49:52.000Z</time>
      </trkpt>
      <trkpt lat="47.48968" lon="6.77319">
        <ele>318.6</ele>
        <time>2014-05-04T09:49:53.000Z</time>
      </trkpt>
      <trkpt lat="47.48973" lon="6.77319">
        <ele>319.7</ele>
        <time>2014-05-04T09:49:54.000Z</time>
      </trkpt>
      <trkpt lat="47.48979" lon="6.7732">
        <ele>320.5</ele>
        <time>2014-05-04T09:49:55.000Z</time>
      </trkpt>
      <trkpt lat="47.48984" lon="6.77322">
        <ele>320.3</ele>
        <time>2014-05-04T09:49:56.000Z</time>
      </trkpt>
      <trkpt lat="47.4899" lon="6.77323">
        <ele>320.7</ele>
        <time>2014-05-04T09:49:57.000Z</time>
      </trkpt>
      <trkpt lat="47.48995" lon="6.77324">
        <ele>321.2</ele>
        <time>2014-05-04T09:49:58.000Z</time>
      </trkpt>
      <trkpt lat="47.49" lon="6.77325">
        <ele>322.3</ele>
        <time>2014-05-04T09:49:59.000Z</time>
      </trkpt>
      <trkpt lat="47.49006" lon="6.77324">
        <ele>322.5</ele>
        <time>2014-05-04T09:50:00.000Z</time>
      </trkpt>
      <trkpt lat="47.4901" lon="6.77324">
        <ele>322.2</ele>
        <time>2014-05-04T09:50:01.000Z</time>
      </trkpt>
      <trkpt lat="47.49015" lon="6.77325">
        <ele>322.8</ele>
        <time>2014-05-04T09:50:02.000Z</time>
      </trkpt>
      <trkpt lat="47.49021" lon="6.77325">
        <ele>324.5</ele>
        <time>2014-05-04T09:50:03.000Z</time>
      </trkpt>
      <trkpt lat="47.49026" lon="6.77325">
        <ele>325.5</ele>
        <time>2014-05-04T09:50:04.000Z</time>
      </trkpt>
      <trkpt lat="47.49031" lon="6.77326">
        <ele>325.7</ele>
        <time>2014-05-04T09:50:05.000Z</time>
      </trkpt>
      <trkpt lat="47.49037" lon="6.77326">
        <ele>326.1</ele>
        <time>2014-05-04T09:50:06.000Z</time>
      </trkpt>
      <trkpt lat="47.49043" lon="6.77325">
        <ele>323.7</ele>
        <time>2014-05-04T09:50:07.000Z</time>
      </trkpt>
      <trkpt lat="47.49049" lon="6.77325">
        <ele>324.6</ele>
        <time>2014-05-04T09:50:08.000Z</time>
      </trkpt>
      <trkpt lat="47.49055" lon="6.77326">
        <ele>325.1</ele>
        <time>2014-05-04T09:50:09.000Z</time>
      </trkpt>
      <trkpt lat="47.49061" lon="6.77328">
        <ele>324.7</ele>
        <time>2014-05-04T09:50:10.000Z</time>
      </trkpt>
      <trkpt lat="47.49067" lon="6.77328">
        <ele>324.9</ele>
        <time>2014-05-04T09:50:11.000Z</time>
      </trkpt>
      <trkpt lat="47.49072" lon="6.77329">
        <ele>324.1</ele>
        <time>2014-05-04T09:50:12.000Z</time>
      </trkpt>
      <trkpt lat="47.49077" lon="6.77329">
        <ele>323.9</ele>
        <time>2014-05-04T09:50:13.000Z</time>
      </trkpt>
      <trkpt lat="47.49081" lon="6.7733">
        <ele>324.3</ele>
        <time>2014-05-04T09:50:14.000Z</time>
      </trkpt>
      <trkpt lat="47.49086" lon="6.77331">
        <ele>324.5</ele>
        <time>2014-05-04T09:50:15.000Z</time>
      </trkpt>
      <trkpt lat="47.49091" lon="6.77332">
        <ele>324.9</ele>
        <time>2014-05-04T09:50:16.000Z</time>
      </trkpt>
      <trkpt lat="47.49096" lon="6.77333">
        <ele>325.6</ele>
        <time>2014-05-04T09:50:17.000Z</time>
      </trkpt>
      <trkpt lat="47.49101" lon="6.77333">
        <ele>326.3</ele>
        <time>2014-05-04T09:50:18.000Z</time>
      </trkpt>
      <trkpt lat="47.49107" lon="6.77334">
        <ele>326.5</ele>
        <time>2014-05-04T09:50:19.000Z</time>
      </trkpt>
      <trkpt lat="47.49111" lon="6.77334">
        <ele>327.1</ele>
        <time>2014-05-04T09:50:20.000Z</time>
      </trkpt>
      <trkpt lat="47.49116" lon="6.77335">
        <ele>328.5</ele>
        <time>2014-05-04T09:50:21.000Z</time>
      </trkpt>
      <trkpt lat="47.4912" lon="6.77335">
        <ele>331.4</ele>
        <time>2014-05-04T09:50:22.000Z</time>
      </trkpt>
      <trkpt lat="47.49124" lon="6.77337">
        <ele>332.1</ele>
        <time>2014-05-04T09:50:23.000Z</time>
      </trkpt>
      <trkpt lat="47.49129" lon="6.77336">
        <ele>332.1</ele>
        <time>2014-05-04T09:50:24.000Z</time>
      </trkpt>
      <trkpt lat="47.49134" lon="6.77337">
        <ele>332</ele>
        <time>2014-05-04T09:50:25.000Z</time>
      </trkpt>
      <trkpt lat="47.49139" lon="6.77339">
        <ele>332.5</ele>
        <time>2014-05-04T09:50:26.000Z</time>
      </trkpt>
      <trkpt lat="47.49144" lon="6.77338">
        <ele>332.1</ele>
        <time>2014-05-04T09:50:27.000Z</time>
      </trkpt>
      <trkpt lat="47.49148" lon="6.77339">
        <ele>332.8</ele>
        <time>2014-05-04T09:50:28.000Z</time>
      </trkpt>
      <trkpt lat="47.49154" lon="6.7734">
        <ele>332.9</ele>
        <time>2014-05-04T09:50:29.000Z</time>
      </trkpt>
      <trkpt lat="47.49159" lon="6.77341">
        <ele>333.3</ele>
        <time>2014-05-04T09:50:30.000Z</time>
      </trkpt>
      <trkpt lat="47.49163" lon="6.77341">
        <ele>333.6</ele>
        <time>2014-05-04T09:50:31.000Z</time>
      </trkpt>
      <trkpt lat="47.49167" lon="6.77342">
        <ele>333</ele>
        <time>2014-05-04T09:50:32.000Z</time>
      </trkpt>
      <trkpt lat="47.49171" lon="6.77342">
        <ele>333.6</ele>
        <time>2014-05-04T09:50:33.000Z</time>
      </trkpt>
      <trkpt lat="47.49175" lon="6.77342">
        <ele>333.3</ele>
        <time>2014-05-04T09:50:34.000Z</time>
      </trkpt>
      <trkpt lat="47.49179" lon="6.77342">
        <ele>332.9</ele>
        <time>2014-05-04T09:50:35.000Z</time>
      </trkpt>
      <trkpt lat="47.49182" lon="6.77344">
        <ele>332.3</ele>
        <time>2014-05-04T09:50:36.000Z</time>
      </trkpt>
      <trkpt lat="47.49185" lon="6.77344">
        <ele>333.1</ele>
        <time>2014-05-04T09:50:37.000Z</time>
      </trkpt>
      <trkpt lat="47.49189" lon="6.77343">
        <ele>334.1</ele>
        <time>2014-05-04T09:50:39.000Z</time>
      </trkpt>
      <trkpt lat="47.49191" lon="6.7734">
        <ele>330.2</ele>
        <time>2014-05-04T09:50:40.000Z</time>
      </trkpt>
      <trkpt lat="47.49191" lon="6.77335">
        <ele>328.7</ele>
        <time>2014-05-04T09:50:42.000Z</time>
      </trkpt>
      <trkpt lat="47.49191" lon="6.77332">
        <ele>327</ele>
        <time>2014-05-04T09:50:43.000Z</time>
      </trkpt>
      <trkpt lat="47.49186" lon="6.77307">
        <ele>321.8</ele>
        <time>2014-05-04T09:50:51.000Z</time>
      </trkpt>
      <trkpt lat="47.49185" lon="6.77301">
        <ele>319.5</ele>
        <time>2014-05-04T09:51:26.000Z</time>
      </trkpt>
      <trkpt lat="47.49185" lon="6.77301">
        <ele>319.3</ele>
        <time>2014-05-04T09:51:27.000Z</time>
      </trkpt>
      <trkpt lat="47.49184" lon="6.77297">
        <ele>319.4</ele>
        <time>2014-05-04T09:51:59.000Z</time>
      </trkpt>
      <trkpt lat="47.49184" lon="6.77294">
        <ele>319.4</ele>
        <time>2014-05-04T09:52:00.000Z</time>
      </trkpt>
      <trkpt lat="47.49184" lon="6.77289">
        <ele>318.7</ele>
        <time>2014-05-04T09:52:01.000Z</time>
      </trkpt>
      <trkpt lat="47.49184" lon="6.77284">
        <ele>317.9</ele>
        <time>2014-05-04T09:52:02.000Z</time>
      </trkpt>
      <trkpt lat="47.49184" lon="6.77279">
        <ele>318.5</ele>
        <time>2014-05-04T09:52:03.000Z</time>
      </trkpt>
      <trkpt lat="47.49185" lon="6.77273">
        <ele>317.4</ele>
        <time>2014-05-04T09:52:04.000Z</time>
      </trkpt>
      <trkpt lat="47.49186" lon="6.77266">
        <ele>316.4</ele>
        <time>2014-05-04T09:52:05.000Z</time>
      </trkpt>
      <trkpt lat="47.49187" lon="6.77261">
        <ele>317.4</ele>
        <time>2014-05-04T09:52:06.000Z</time>
      </trkpt>
      <trkpt lat="47.49188" lon="6.77255">
        <ele>317.8</ele>
        <time>2014-05-04T09:52:07.000Z</time>
      </trkpt>
      <trkpt lat="47.49188" lon="6.77251">
        <ele>318.4</ele>
        <time>2014-05-04T09:52:08.000Z</time>
      </trkpt>
      <trkpt lat="47.49189" lon="6.77247">
        <ele>318.3</ele>
        <time>2014-05-04T09:52:09.000Z</time>
      </trkpt>
      <trkpt lat="47.49189" lon="6.77244">
        <ele>318.4</ele>
        <time>2014-05-04T09:52:10.000Z</time>
      </trkpt>
      <trkpt lat="47.49187" lon="6.77238">
        <ele>317.4</ele>
        <time>2014-05-04T09:52:12.000Z</time>
      </trkpt>
      <trkpt lat="47.49186" lon="6.77234">
        <ele>317.3</ele>
        <time>2014-05-04T09:52:13.000Z</time>
      </trkpt>
      <trkpt lat="47.49185" lon="6.7723">
        <ele>317.4</ele>
        <time>2014-05-04T09:52:14.000Z</time>
      </trkpt>
      <trkpt lat="47.49185" lon="6.77225">
        <ele>317.9</ele>
        <time>2014-05-04T09:52:15.000Z</time>
      </trkpt>
      <trkpt lat="47.49185" lon="6.7722">
        <ele>318.7</ele>
        <time>2014-05-04T09:52:16.000Z</time>
      </trkpt>
      <trkpt lat="47.49185" lon="6.77215">
        <ele>319.1</ele>
        <time>2014-05-04T09:52:17.000Z</time>
      </trkpt>
      <trkpt lat="47.49186" lon="6.77211">
        <ele>319.4</ele>
        <time>2014-05-04T09:52:18.000Z</time>
      </trkpt>
      <trkpt lat="47.49186" lon="6.77206">
        <ele>318.8</ele>
        <time>2014-05-04T09:52:19.000Z</time>
      </trkpt>
      <trkpt lat="47.49187" lon="6.77202">
        <ele>319.1</ele>
        <time>2014-05-04T09:52:20.000Z</time>
      </trkpt>
      <trkpt lat="47.49189" lon="6.77199">
        <ele>319.3</ele>
        <time>2014-05-04T09:52:21.000Z</time>
      </trkpt>
      <trkpt lat="47.49191" lon="6.77197">
        <ele>319.5</ele>
        <time>2014-05-04T09:52:22.000Z</time>
      </trkpt>
      <trkpt lat="47.49193" lon="6.77196">
        <ele>320.1</ele>
        <time>2014-05-04T09:52:23.000Z</time>
      </trkpt>
      <trkpt lat="47.49195" lon="6.77195">
        <ele>321.6</ele>
        <time>2014-05-04T09:52:24.000Z</time>
      </trkpt>
      <trkpt lat="47.49199" lon="6.77195">
        <ele>321.7</ele>
        <time>2014-05-04T09:52:25.000Z</time>
      </trkpt>
      <trkpt lat="47.49203" lon="6.77195">
        <ele>321.9</ele>
        <time>2014-05-04T09:52:26.000Z</time>
      </trkpt>
      <trkpt lat="47.49207" lon="6.77195">
        <ele>322</ele>
        <time>2014-05-04T09:52:27.000Z</time>
      </trkpt>
      <trkpt lat="47.49212" lon="6.77195">
        <ele>322.6</ele>
        <time>2014-05-04T09:52:28.000Z</time>
      </trkpt>
      <trkpt lat="47.49216" lon="6.77194">
        <ele>324.6</ele>
        <time>2014-05-04T09:52:29.000Z</time>
      </trkpt>
      <trkpt lat="47.49222" lon="6.77193">
        <ele>326.2</ele>
        <time>2014-05-04T09:52:30.000Z</time>
      </trkpt>
      <trkpt lat="47.49227" lon="6.7719">
        <ele>326</ele>
        <time>2014-05-04T09:52:31.000Z</time>
      </trkpt>
      <trkpt lat="47.49232" lon="6.77187">
        <ele>326.1</ele>
        <time>2014-05-04T09:52:32.000Z</time>
      </trkpt>
      <trkpt lat="47.49238" lon="6.77183">
        <ele>326.2</ele>
        <time>2014-05-04T09:52:33.000Z</time>
      </trkpt>
      <trkpt lat="47.49243" lon="6.7718">
        <ele>326.9</ele>
        <time>2014-05-04T09:52:34.000Z</time>
      </trkpt>
      <trkpt lat="47.49248" lon="6.77176">
        <ele>327.7</ele>
        <time>2014-05-04T09:52:35.000Z</time>
      </trkpt>
      <trkpt lat="47.49253" lon="6.77173">
        <ele>328.8</ele>
        <time>2014-05-04T09:52:36.000Z</time>
      </trkpt>
      <trkpt lat="47.49258" lon="6.77169">
        <ele>328.8</ele>
        <time>2014-05-04T09:52:37.000Z</time>
      </trkpt>
      <trkpt lat="47.49263" lon="6.77166">
        <ele>328.7</ele>
        <time>2014-05-04T09:52:38.000Z</time>
      </trkpt>
      <trkpt lat="47.49268" lon="6.77162">
        <ele>328.4</ele>
        <time>2014-05-04T09:52:39.000Z</time>
      </trkpt>
      <trkpt lat="47.49273" lon="6.77158">
        <ele>328.8</ele>
        <time>2014-05-04T09:52:40.000Z</time>
      </trkpt>
      <trkpt lat="47.49277" lon="6.77155">
        <ele>329.4</ele>
        <time>2014-05-04T09:52:41.000Z</time>
      </trkpt>
      <trkpt lat="47.4928" lon="6.77149">
        <ele>328.3</ele>
        <time>2014-05-04T09:52:42.000Z</time>
      </trkpt>
      <trkpt lat="47.49281" lon="6.77142">
        <ele>326.8</ele>
        <time>2014-05-04T09:52:43.000Z</time>
      </trkpt>
      <trkpt lat="47.49264" lon="6.77086">
        <ele>322.9</ele>
        <time>2014-05-04T09:52:51.000Z</time>
      </trkpt>
      <trkpt lat="47.49265" lon="6.77081">
        <ele>323.4</ele>
        <time>2014-05-04T09:52:52.000Z</time>
      </trkpt>
      <trkpt lat="47.49266" lon="6.77075">
        <ele>323.5</ele>
        <time>2014-05-04T09:52:52.999Z</time>
      </trkpt>
      <trkpt lat="47.4927" lon="6.77072">
        <ele>323.5</ele>
        <time>2014-05-04T09:52:54.000Z</time>
      </trkpt>
      <trkpt lat="47.49273" lon="6.77069">
        <ele>323</ele>
        <time>2014-05-04T09:52:55.000Z</time>
      </trkpt>
      <trkpt lat="47.49275" lon="6.77067">
        <ele>322.7</ele>
        <time>2014-05-04T09:52:56.000Z</time>
      </trkpt>
      <trkpt lat="47.4928" lon="6.77064">
        <ele>322.3</ele>
        <time>2014-05-04T09:52:57.000Z</time>
      </trkpt>
      <trkpt lat="47.49283" lon="6.77061">
        <ele>322.3</ele>
        <time>2014-05-04T09:52:58.000Z</time>
      </trkpt>
      <trkpt lat="47.49287" lon="6.77057">
        <ele>321.1</ele>
        <time>2014-05-04T09:52:59.000Z</time>
      </trkpt>
      <trkpt lat="47.49292" lon="6.77053">
        <ele>320.6</ele>
        <time>2014-05-04T09:53:00.000Z</time>
      </trkpt>
      <trkpt lat="47.49296" lon="6.77051">
        <ele>320.2</ele>
        <time>2014-05-04T09:53:01.000Z</time>
      </trkpt>
      <trkpt lat="47.49301" lon="6.77053">
        <ele>322.6</ele>
        <time>2014-05-04T09:53:02.000Z</time>
      </trkpt>
      <trkpt lat="47.49306" lon="6.77054">
        <ele>324</ele>
        <time>2014-05-04T09:53:03.000Z</time>
      </trkpt>
      <trkpt lat="47.4931" lon="6.77057">
        <ele>324.9</ele>
        <time>2014-05-04T09:53:04.000Z</time>
      </trkpt>
      <trkpt lat="47.49315" lon="6.77059">
        <ele>323.8</ele>
        <time>2014-05-04T09:53:05.000Z</time>
      </trkpt>
      <trkpt lat="47.4932" lon="6.77061">
        <ele>324</ele>
        <time>2014-05-04T09:53:06.002Z</time>
      </trkpt>
      <trkpt lat="47.49323" lon="6.77064">
        <ele>324.2</ele>
        <time>2014-05-04T09:53:07.000Z</time>
      </trkpt>
      <trkpt lat="47.49327" lon="6.7707">
        <ele>324.3</ele>
        <time>2014-05-04T09:53:08.000Z</time>
      </trkpt>
      <trkpt lat="47.49331" lon="6.77075">
        <ele>324.4</ele>
        <time>2014-05-04T09:53:09.000Z</time>
      </trkpt>
      <trkpt lat="47.49336" lon="6.77081">
        <ele>323.8</ele>
        <time>2014-05-04T09:53:10.000Z</time>
      </trkpt>
      <trkpt lat="47.4934" lon="6.77085">
        <ele>324</ele>
        <time>2014-05-04T09:53:11.000Z</time>
      </trkpt>
      <trkpt lat="47.49344" lon="6.77091">
        <ele>324.7</ele>
        <time>2014-05-04T09:53:12.000Z</time>
      </trkpt>
      <trkpt lat="47.49349" lon="6.77092">
        <ele>323.5</ele>
        <time>2014-05-04T09:53:13.000Z</time>
      </trkpt>
      <trkpt lat="47.49354" lon="6.77096">
        <ele>324</ele>
        <time>2014-05-04T09:53:14.000Z</time>
      </trkpt>
      <trkpt lat="47.49359" lon="6.77101">
        <ele>325</ele>
        <time>2014-05-04T09:53:15.000Z</time>
      </trkpt>
      <trkpt lat="47.49365" lon="6.77105">
        <ele>327</ele>
        <time>2014-05-04T09:53:16.000Z</time>
      </trkpt>
      <trkpt lat="47.4937" lon="6.77109">
        <ele>327.9</ele>
        <time>2014-05-04T09:53:17.000Z</time>
      </trkpt>
      <trkpt lat="47.49374" lon="6.77112">
        <ele>326.9</ele>
        <time>2014-05-04T09:53:18.000Z</time>
      </trkpt>
      <trkpt lat="47.49379" lon="6.77115">
        <ele>325.3</ele>
        <time>2014-05-04T09:53:19.000Z</time>
      </trkpt>
      <trkpt lat="47.49384" lon="6.77119">
        <ele>324.9</ele>
        <time>2014-05-04T09:53:20.000Z</time>
      </trkpt>
      <trkpt lat="47.49389" lon="6.77121">
        <ele>325</ele>
        <time>2014-05-04T09:53:21.000Z</time>
      </trkpt>
      <trkpt lat="47.49393" lon="6.77123">
        <ele>325.1</ele>
        <time>2014-05-04T09:53:22.000Z</time>
      </trkpt>
      <trkpt lat="47.49398" lon="6.77127">
        <ele>326.2</ele>
        <time>2014-05-04T09:53:23.000Z</time>
      </trkpt>
      <trkpt lat="47.49402" lon="6.77131">
        <ele>326.4</ele>
        <time>2014-05-04T09:53:24.000Z</time>
      </trkpt>
      <trkpt lat="47.49406" lon="6.77135">
        <ele>326.6</ele>
        <time>2014-05-04T09:53:24.999Z</time>
      </trkpt>
      <trkpt lat="47.4941" lon="6.77138">
        <ele>326.6</ele>
        <time>2014-05-04T09:53:26.002Z</time>
      </trkpt>
      <trkpt lat="47.49413" lon="6.77143">
        <ele>326.1</ele>
        <time>2014-05-04T09:53:27.000Z</time>
      </trkpt>
      <trkpt lat="47.49418" lon="6.77146">
        <ele>325.9</ele>
        <time>2014-05-04T09:53:28.000Z</time>
      </trkpt>
      <trkpt lat="47.49422" lon="6.77148">
        <ele>325.1</ele>
        <time>2014-05-04T09:53:29.000Z</time>
      </trkpt>
      <trkpt lat="47.49426" lon="6.77152">
        <ele>325.6</ele>
        <time>2014-05-04T09:53:30.000Z</time>
      </trkpt>
      <trkpt lat="47.4943" lon="6.77155">
        <ele>325.6</ele>
        <time>2014-05-04T09:53:31.000Z</time>
      </trkpt>
      <trkpt lat="47.49433" lon="6.77157">
        <ele>324.7</ele>
        <time>2014-05-04T09:53:32.000Z</time>
      </trkpt>
      <trkpt lat="47.49437" lon="6.77161">
        <ele>324.1</ele>
        <time>2014-05-04T09:53:33.000Z</time>
      </trkpt>
      <trkpt lat="47.49442" lon="6.77164">
        <ele>323.9</ele>
        <time>2014-05-04T09:53:34.000Z</time>
      </trkpt>
      <trkpt lat="47.49446" lon="6.77168">
        <ele>324.1</ele>
        <time>2014-05-04T09:53:35.000Z</time>
      </trkpt>
      <trkpt lat="47.49452" lon="6.7717">
        <ele>324</ele>
        <time>2014-05-04T09:53:36.000Z</time>
      </trkpt>
      <trkpt lat="47.49456" lon="6.77173">
        <ele>324.4</ele>
        <time>2014-05-04T09:53:37.000Z</time>
      </trkpt>
      <trkpt lat="47.49461" lon="6.77177">
        <ele>324</ele>
        <time>2014-05-04T09:53:38.000Z</time>
      </trkpt>
      <trkpt lat="47.49466" lon="6.77181">
        <ele>324.9</ele>
        <time>2014-05-04T09:53:39.000Z</time>
      </trkpt>
      <trkpt lat="47.4947" lon="6.77183">
        <ele>325.6</ele>
        <time>2014-05-04T09:53:40.000Z</time>
      </trkpt>
      <trkpt lat="47.49474" lon="6.77187">
        <ele>326.7</ele>
        <time>2014-05-04T09:53:41.000Z</time>
      </trkpt>
      <trkpt lat="47.49479" lon="6.77191">
        <ele>328.1</ele>
        <time>2014-05-04T09:53:42.000Z</time>
      </trkpt>
      <trkpt lat="47.49483" lon="6.77194">
        <ele>328.3</ele>
        <time>2014-05-04T09:53:43.000Z</time>
      </trkpt>
      <trkpt lat="47.49525" lon="6.77207">
        <ele>328.2</ele>
        <time>2014-05-04T09:53:52.000Z</time>
      </trkpt>
      <trkpt lat="47.49555" lon="6.77212">
        <ele>330.9</ele>
        <time>2014-05-04T09:53:58.000Z</time>
      </trkpt>
      <trkpt lat="47.49562" lon="6.77212">
        <ele>331</ele>
        <time>2014-05-04T09:53:59.000Z</time>
      </trkpt>
      <trkpt lat="47.49565" lon="6.77214">
        <ele>330.8</ele>
        <time>2014-05-04T09:54:00.000Z</time>
      </trkpt>
      <trkpt lat="47.49572" lon="6.77216">
        <ele>328.1</ele>
        <time>2014-05-04T09:54:01.000Z</time>
      </trkpt>
      <trkpt lat="47.49577" lon="6.77217">
        <ele>328.6</ele>
        <time>2014-05-04T09:54:02.000Z</time>
      </trkpt>
      <trkpt lat="47.49582" lon="6.77217">
        <ele>329.3</ele>
        <time>2014-05-04T09:54:03.000Z</time>
      </trkpt>
      <trkpt lat="47.49586" lon="6.77219">
        <ele>328.9</ele>
        <time>2014-05-04T09:54:03.999Z</time>
      </trkpt>
      <trkpt lat="47.4959" lon="6.7722">
        <ele>329.4</ele>
        <time>2014-05-04T09:54:05.000Z</time>
      </trkpt>
      <trkpt lat="47.49594" lon="6.77223">
        <ele>329.9</ele>
        <time>2014-05-04T09:54:06.000Z</time>
      </trkpt>
      <trkpt lat="47.49597" lon="6.77226">
        <ele>331.1</ele>
        <time>2014-05-04T09:54:07.000Z</time>
      </trkpt>
      <trkpt lat="47.49601" lon="6.77228">
        <ele>331</ele>
        <time>2014-05-04T09:54:08.000Z</time>
      </trkpt>
      <trkpt lat="47.49605" lon="6.7723">
        <ele>330.1</ele>
        <time>2014-05-04T09:54:09.000Z</time>
      </trkpt>
      <trkpt lat="47.49611" lon="6.77231">
        <ele>329.9</ele>
        <time>2014-05-04T09:54:10.000Z</time>
      </trkpt>
      <trkpt lat="47.49617" lon="6.77233">
        <ele>328.9</ele>
        <time>2014-05-04T09:54:11.000Z</time>
      </trkpt>
      <trkpt lat="47.49622" lon="6.77235">
        <ele>328.8</ele>
        <time>2014-05-04T09:54:11.998Z</time>
      </trkpt>
      <trkpt lat="47.49628" lon="6.77237">
        <ele>327.4</ele>
        <time>2014-05-04T09:54:13.000Z</time>
      </trkpt>
      <trkpt lat="47.49633" lon="6.77239">
        <ele>327.3</ele>
        <time>2014-05-04T09:54:13.998Z</time>
      </trkpt>
      <trkpt lat="47.49639" lon="6.77241">
        <ele>326.4</ele>
        <time>2014-05-04T09:54:15.000Z</time>
      </trkpt>
      <trkpt lat="47.49644" lon="6.77244">
        <ele>326.5</ele>
        <time>2014-05-04T09:54:16.000Z</time>
      </trkpt>
      <trkpt lat="47.49649" lon="6.77248">
        <ele>327.1</ele>
        <time>2014-05-04T09:54:17.000Z</time>
      </trkpt>
      <trkpt lat="47.49655" lon="6.77251">
        <ele>326.3</ele>
        <time>2014-05-04T09:54:18.000Z</time>
      </trkpt>
      <trkpt lat="47.4966" lon="6.77254">
        <ele>325.7</ele>
        <time>2014-05-04T09:54:19.000Z</time>
      </trkpt>
      <trkpt lat="47.49666" lon="6.77259">
        <ele>324.8</ele>
        <time>2014-05-04T09:54:20.000Z</time>
      </trkpt>
      <trkpt lat="47.49671" lon="6.77262">
        <ele>324.9</ele>
        <time>2014-05-04T09:54:21.000Z</time>
      </trkpt>
      <trkpt lat="47.49676" lon="6.77266">
        <ele>325.9</ele>
        <time>2014-05-04T09:54:22.000Z</time>
      </trkpt>
      <trkpt lat="47.49682" lon="6.77268">
        <ele>325.5</ele>
        <time>2014-05-04T09:54:23.000Z</time>
      </trkpt>
      <trkpt lat="47.49687" lon="6.77272">
        <ele>325.5</ele>
        <time>2014-05-04T09:54:24.000Z</time>
      </trkpt>
      <trkpt lat="47.49692" lon="6.77276">
        <ele>325.8</ele>
        <time>2014-05-04T09:54:25.000Z</time>
      </trkpt>
      <trkpt lat="47.49697" lon="6.77279">
        <ele>326.1</ele>
        <time>2014-05-04T09:54:26.000Z</time>
      </trkpt>
      <trkpt lat="47.49702" lon="6.77282">
        <ele>326.2</ele>
        <time>2014-05-04T09:54:27.000Z</time>
      </trkpt>
      <trkpt lat="47.49707" lon="6.77287">
        <ele>325.8</ele>
        <time>2014-05-04T09:54:28.000Z</time>
      </trkpt>
      <trkpt lat="47.49713" lon="6.7729">
        <ele>326.1</ele>
        <time>2014-05-04T09:54:29.000Z</time>
      </trkpt>
      <trkpt lat="47.49718" lon="6.77293">
        <ele>326.4</ele>
        <time>2014-05-04T09:54:30.000Z</time>
      </trkpt>
      <trkpt lat="47.49722" lon="6.77296">
        <ele>326.6</ele>
        <time>2014-05-04T09:54:31.000Z</time>
      </trkpt>
      <trkpt lat="47.49727" lon="6.77299">
        <ele>327.8</ele>
        <time>2014-05-04T09:54:32.000Z</time>
      </trkpt>
      <trkpt lat="47.49732" lon="6.77302">
        <ele>327.7</ele>
        <time>2014-05-04T09:54:33.000Z</time>
      </trkpt>
      <trkpt lat="47.49737" lon="6.77305">
        <ele>328.2</ele>
        <time>2014-05-04T09:54:34.000Z</time>
      </trkpt>
      <trkpt lat="47.49743" lon="6.77308">
        <ele>328.8</ele>
        <time>2014-05-04T09:54:35.000Z</time>
      </trkpt>
      <trkpt lat="47.49748" lon="6.77309">
        <ele>328.5</ele>
        <time>2014-05-04T09:54:36.000Z</time>
      </trkpt>
      <trkpt lat="47.49753" lon="6.77311">
        <ele>329.4</ele>
        <time>2014-05-04T09:54:37.000Z</time>
      </trkpt>
      <trkpt lat="47.49757" lon="6.77314">
        <ele>330.7</ele>
        <time>2014-05-04T09:54:38.000Z</time>
      </trkpt>
      <trkpt lat="47.49762" lon="6.77316">
        <ele>330.8</ele>
        <time>2014-05-04T09:54:39.000Z</time>
      </trkpt>
      <trkpt lat="47.49766" lon="6.77317">
        <ele>331.4</ele>
        <time>2014-05-04T09:54:40.000Z</time>
      </trkpt>
      <trkpt lat="47.49773" lon="6.77314">
        <ele>329.3</ele>
        <time>2014-05-04T09:54:41.000Z</time>
      </trkpt>
      <trkpt lat="47.49778" lon="6.77315">
        <ele>328.9</ele>
        <time>2014-05-04T09:54:42.000Z</time>
      </trkpt>
      <trkpt lat="47.49783" lon="6.77314">
        <ele>328.7</ele>
        <time>2014-05-04T09:54:43.000Z</time>
      </trkpt>
      <trkpt lat="47.49822" lon="6.77312">
        <ele>334.5</ele>
        <time>2014-05-04T09:54:51.000Z</time>
      </trkpt>
      <trkpt lat="47.49828" lon="6.77312">
        <ele>335.5</ele>
        <time>2014-05-04T09:54:52.000Z</time>
      </trkpt>
      <trkpt lat="47.49832" lon="6.7731">
        <ele>338.2</ele>
        <time>2014-05-04T09:54:53.000Z</time>
      </trkpt>
      <trkpt lat="47.49838" lon="6.77311">
        <ele>338.4</ele>
        <time>2014-05-04T09:54:54.000Z</time>
      </trkpt>
      <trkpt lat="47.49844" lon="6.77311">
        <ele>338.3</ele>
        <time>2014-05-04T09:54:55.000Z</time>
      </trkpt>
      <trkpt lat="47.49849" lon="6.77311">
        <ele>339</ele>
        <time>2014-05-04T09:54:56.000Z</time>
      </trkpt>
      <trkpt lat="47.49854" lon="6.77311">
        <ele>339.8</ele>
        <time>2014-05-04T09:54:57.000Z</time>
      </trkpt>
      <trkpt lat="47.4986" lon="6.77311">
        <ele>339.5</ele>
        <time>2014-05-04T09:54:58.000Z</time>
      </trkpt>
      <trkpt lat="47.49866" lon="6.77311">
        <ele>338.8</ele>
        <time>2014-05-04T09:54:59.000Z</time>
      </trkpt>
      <trkpt lat="47.49872" lon="6.77309">
        <ele>339</ele>
        <time>2014-05-04T09:55:00.000Z</time>
      </trkpt>
      <trkpt lat="47.49879" lon="6.77308">
        <ele>337.2</ele>
        <time>2014-05-04T09:55:01.000Z</time>
      </trkpt>
      <trkpt lat="47.49884" lon="6.77307">
        <ele>339.1</ele>
        <time>2014-05-04T09:55:02.000Z</time>
      </trkpt>
      <trkpt lat="47.49888" lon="6.77307">
        <ele>338.7</ele>
        <time>2014-05-04T09:55:03.000Z</time>
      </trkpt>
      <trkpt lat="47.49893" lon="6.77305">
        <ele>338.1</ele>
        <time>2014-05-04T09:55:04.000Z</time>
      </trkpt>
      <trkpt lat="47.49898" lon="6.77302">
        <ele>338</ele>
        <time>2014-05-04T09:55:05.000Z</time>
      </trkpt>
      <trkpt lat="47.49903" lon="6.77299">
        <ele>338.5</ele>
        <time>2014-05-04T09:55:06.000Z</time>
      </trkpt>
      <trkpt lat="47.49909" lon="6.77297">
        <ele>338</ele>
        <time>2014-05-04T09:55:07.000Z</time>
      </trkpt>
      <trkpt lat="47.49913" lon="6.77293">
        <ele>339.1</ele>
        <time>2014-05-04T09:55:08.000Z</time>
      </trkpt>
      <trkpt lat="47.49918" lon="6.77289">
        <ele>339.8</ele>
        <time>2014-05-04T09:55:09.000Z</time>
      </trkpt>
      <trkpt lat="47.49923" lon="6.77288">
        <ele>339.3</ele>
        <time>2014-05-04T09:55:10.000Z</time>
      </trkpt>
      <trkpt lat="47.4993" lon="6.77285">
        <ele>339</ele>
        <time>2014-05-04T09:55:11.000Z</time>
      </trkpt>
      <trkpt lat="47.49935" lon="6.77281">
        <ele>340.7</ele>
        <time>2014-05-04T09:55:12.000Z</time>
      </trkpt>
      <trkpt lat="47.49939" lon="6.77278">
        <ele>341.5</ele>
        <time>2014-05-04T09:55:13.000Z</time>
      </trkpt>
      <trkpt lat="47.49944" lon="6.77274">
        <ele>343</ele>
        <time>2014-05-04T09:55:14.000Z</time>
      </trkpt>
      <trkpt lat="47.49949" lon="6.77273">
        <ele>343.8</ele>
        <time>2014-05-04T09:55:15.000Z</time>
      </trkpt>
      <trkpt lat="47.49954" lon="6.77272">
        <ele>344.6</ele>
        <time>2014-05-04T09:55:16.000Z</time>
      </trkpt>
      <trkpt lat="47.49959" lon="6.77268">
        <ele>345.9</ele>
        <time>2014-05-04T09:55:17.000Z</time>
      </trkpt>
      <trkpt lat="47.49964" lon="6.77267">
        <ele>345.7</ele>
        <time>2014-05-04T09:55:18.000Z</time>
      </trkpt>
      <trkpt lat="47.49969" lon="6.77264">
        <ele>345.4</ele>
        <time>2014-05-04T09:55:19.000Z</time>
      </trkpt>
      <trkpt lat="47.49975" lon="6.7726">
        <ele>345.4</ele>
        <time>2014-05-04T09:55:20.000Z</time>
      </trkpt>
      <trkpt lat="47.49981" lon="6.77258">
        <ele>344.3</ele>
        <time>2014-05-04T09:55:21.000Z</time>
      </trkpt>
      <trkpt lat="47.49986" lon="6.77255">
        <ele>344.2</ele>
        <time>2014-05-04T09:55:22.000Z</time>
      </trkpt>
      <trkpt lat="47.4999" lon="6.77252">
        <ele>344.2</ele>
        <time>2014-05-04T09:55:23.000Z</time>
      </trkpt>
      <trkpt lat="47.49994" lon="6.77251">
        <ele>344.9</ele>
        <time>2014-05-04T09:55:24.000Z</time>
      </trkpt>
      <trkpt lat="47.49998" lon="6.77251">
        <ele>344.2</ele>
        <time>2014-05-04T09:55:25.000Z</time>
      </trkpt>
      <trkpt lat="47.50001" lon="6.7725">
        <ele>345.4</ele>
        <time>2014-05-04T09:55:26.000Z</time>
      </trkpt>
      <trkpt lat="47.50004" lon="6.7725">
        <ele>345.2</ele>
        <time>2014-05-04T09:55:27.000Z</time>
      </trkpt>
      <trkpt lat="47.50007" lon="6.77249">
        <ele>345.4</ele>
        <time>2014-05-04T09:55:28.000Z</time>
      </trkpt>
      <trkpt lat="47.5001" lon="6.77248">
        <ele>345.2</ele>
        <time>2014-05-04T09:55:29.000Z</time>
      </trkpt>
      <trkpt lat="47.50012" lon="6.77246">
        <ele>345.7</ele>
        <time>2014-05-04T09:55:30.000Z</time>
      </trkpt>
      <trkpt lat="47.50015" lon="6.77244">
        <ele>343.4</ele>
        <time>2014-05-04T09:55:31.000Z</time>
      </trkpt>
      <trkpt lat="47.50018" lon="6.77242">
        <ele>344.1</ele>
        <time>2014-05-04T09:55:32.000Z</time>
      </trkpt>
      <trkpt lat="47.50022" lon="6.7724">
        <ele>344.5</ele>
        <time>2014-05-04T09:55:33.000Z</time>
      </trkpt>
      <trkpt lat="47.50027" lon="6.77237">
        <ele>344.1</ele>
        <time>2014-05-04T09:55:34.000Z</time>
      </trkpt>
      <trkpt lat="47.50032" lon="6.77234">
        <ele>344.3</ele>
        <time>2014-05-04T09:55:35.000Z</time>
      </trkpt>
      <trkpt lat="47.50037" lon="6.77233">
        <ele>344.6</ele>
        <time>2014-05-04T09:55:36.000Z</time>
      </trkpt>
      <trkpt lat="47.50042" lon="6.77231">
        <ele>345.4</ele>
        <time>2014-05-04T09:55:37.000Z</time>
      </trkpt>
      <trkpt lat="47.50045" lon="6.77227">
        <ele>345.8</ele>
        <time>2014-05-04T09:55:38.000Z</time>
      </trkpt>
      <trkpt lat="47.50051" lon="6.77226">
        <ele>346.5</ele>
        <time>2014-05-04T09:55:39.000Z</time>
      </trkpt>
      <trkpt lat="47.50056" lon="6.77223">
        <ele>348.1</ele>
        <time>2014-05-04T09:55:40.000Z</time>
      </trkpt>
      <trkpt lat="47.50061" lon="6.77223">
        <ele>348.4</ele>
        <time>2014-05-04T09:55:41.000Z</time>
      </trkpt>
      <trkpt lat="47.50067" lon="6.7722">
        <ele>348.2</ele>
        <time>2014-05-04T09:55:42.000Z</time>
      </trkpt>
      <trkpt lat="47.50074" lon="6.77217">
        <ele>347.2</ele>
        <time>2014-05-04T09:55:43.000Z</time>
      </trkpt>
      <trkpt lat="47.50118" lon="6.77213">
        <ele>347.9</ele>
        <time>2014-05-04T09:55:51.000Z</time>
      </trkpt>
      <trkpt lat="47.50125" lon="6.77214">
        <ele>347</ele>
        <time>2014-05-04T09:55:52.000Z</time>
      </trkpt>
      <trkpt lat="47.50132" lon="6.77217">
        <ele>345.7</ele>
        <time>2014-05-04T09:55:53.000Z</time>
      </trkpt>
      <trkpt lat="47.50139" lon="6.77219">
        <ele>346</ele>
        <time>2014-05-04T09:55:54.000Z</time>
      </trkpt>
      <trkpt lat="47.50145" lon="6.77219">
        <ele>345.1</ele>
        <time>2014-05-04T09:55:55.000Z</time>
      </trkpt>
      <trkpt lat="47.50149" lon="6.77225">
        <ele>343</ele>
        <time>2014-05-04T09:55:56.000Z</time>
      </trkpt>
      <trkpt lat="47.50155" lon="6.7723">
        <ele>343.9</ele>
        <time>2014-05-04T09:55:57.000Z</time>
      </trkpt>
      <trkpt lat="47.50162" lon="6.77236">
        <ele>343.5</ele>
        <time>2014-05-04T09:55:58.000Z</time>
      </trkpt>
      <trkpt lat="47.50167" lon="6.7724">
        <ele>343</ele>
        <time>2014-05-04T09:55:59.000Z</time>
      </trkpt>
      <trkpt lat="47.50174" lon="6.77239">
        <ele>337.8</ele>
        <time>2014-05-04T09:56:00.000Z</time>
      </trkpt>
      <trkpt lat="47.5018" lon="6.77241">
        <ele>334.9</ele>
        <time>2014-05-04T09:56:01.000Z</time>
      </trkpt>
      <trkpt lat="47.50186" lon="6.77244">
        <ele>333.3</ele>
        <time>2014-05-04T09:56:02.000Z</time>
      </trkpt>
      <trkpt lat="47.50191" lon="6.7725">
        <ele>332.9</ele>
        <time>2014-05-04T09:56:03.000Z</time>
      </trkpt>
      <trkpt lat="47.50197" lon="6.77253">
        <ele>331.1</ele>
        <time>2014-05-04T09:56:04.000Z</time>
      </trkpt>
      <trkpt lat="47.50201" lon="6.77258">
        <ele>331.6</ele>
        <time>2014-05-04T09:56:05.000Z</time>
      </trkpt>
      <trkpt lat="47.50206" lon="6.77263">
        <ele>331.2</ele>
        <time>2014-05-04T09:56:06.000Z</time>
      </trkpt>
      <trkpt lat="47.50211" lon="6.77267">
        <ele>330.8</ele>
        <time>2014-05-04T09:56:07.000Z</time>
      </trkpt>
      <trkpt lat="47.50216" lon="6.77271">
        <ele>331.7</ele>
        <time>2014-05-04T09:56:08.000Z</time>
      </trkpt>
      <trkpt lat="47.50221" lon="6.77273">
        <ele>330.8</ele>
        <time>2014-05-04T09:56:09.000Z</time>
      </trkpt>
      <trkpt lat="47.50225" lon="6.77276">
        <ele>330.5</ele>
        <time>2014-05-04T09:56:10.000Z</time>
      </trkpt>
      <trkpt lat="47.5023" lon="6.77279">
        <ele>330.8</ele>
        <time>2014-05-04T09:56:11.000Z</time>
      </trkpt>
      <trkpt lat="47.50235" lon="6.77281">
        <ele>328.9</ele>
        <time>2014-05-04T09:56:12.000Z</time>
      </trkpt>
      <trkpt lat="47.50241" lon="6.77285">
        <ele>328.4</ele>
        <time>2014-05-04T09:56:13.000Z</time>
      </trkpt>
      <trkpt lat="47.50247" lon="6.77288">
        <ele>327.5</ele>
        <time>2014-05-04T09:56:14.000Z</time>
      </trkpt>
      <trkpt lat="47.50252" lon="6.77293">
        <ele>326.7</ele>
        <time>2014-05-04T09:56:15.000Z</time>
      </trkpt>
      <trkpt lat="47.50257" lon="6.77296">
        <ele>326</ele>
        <time>2014-05-04T09:56:16.000Z</time>
      </trkpt>
      <trkpt lat="47.50262" lon="6.773">
        <ele>326.6</ele>
        <time>2014-05-04T09:56:17.000Z</time>
      </trkpt>
      <trkpt lat="47.50268" lon="6.77304">
        <ele>326.3</ele>
        <time>2014-05-04T09:56:18.000Z</time>
      </trkpt>
      <trkpt lat="47.50273" lon="6.77307">
        <ele>324.8</ele>
        <time>2014-05-04T09:56:19.000Z</time>
      </trkpt>
      <trkpt lat="47.50278" lon="6.77311">
        <ele>324.3</ele>
        <time>2014-05-04T09:56:20.000Z</time>
      </trkpt>
      <trkpt lat="47.50284" lon="6.77314">
        <ele>324.2</ele>
        <time>2014-05-04T09:56:21.000Z</time>
      </trkpt>
      <trkpt lat="47.50288" lon="6.77318">
        <ele>323.3</ele>
        <time>2014-05-04T09:56:22.000Z</time>
      </trkpt>
      <trkpt lat="47.50293" lon="6.77322">
        <ele>323.8</ele>
        <time>2014-05-04T09:56:23.000Z</time>
      </trkpt>
      <trkpt lat="47.50298" lon="6.77326">
        <ele>324.7</ele>
        <time>2014-05-04T09:56:24.000Z</time>
      </trkpt>
      <trkpt lat="47.50303" lon="6.7733">
        <ele>324</ele>
        <time>2014-05-04T09:56:25.000Z</time>
      </trkpt>
      <trkpt lat="47.50307" lon="6.77335">
        <ele>324.6</ele>
        <time>2014-05-04T09:56:26.000Z</time>
      </trkpt>
      <trkpt lat="47.50312" lon="6.77339">
        <ele>325.2</ele>
        <time>2014-05-04T09:56:27.000Z</time>
      </trkpt>
      <trkpt lat="47.50317" lon="6.77342">
        <ele>323.9</ele>
        <time>2014-05-04T09:56:28.000Z</time>
      </trkpt>
      <trkpt lat="47.50322" lon="6.77346">
        <ele>324.4</ele>
        <time>2014-05-04T09:56:29.000Z</time>
      </trkpt>
      <trkpt lat="47.50327" lon="6.7735">
        <ele>324.9</ele>
        <time>2014-05-04T09:56:30.000Z</time>
      </trkpt>
      <trkpt lat="47.50332" lon="6.77354">
        <ele>324.4</ele>
        <time>2014-05-04T09:56:31.000Z</time>
      </trkpt>
      <trkpt lat="47.50337" lon="6.77358">
        <ele>324.8</ele>
        <time>2014-05-04T09:56:32.000Z</time>
      </trkpt>
      <trkpt lat="47.50342" lon="6.77362">
        <ele>324.9</ele>
        <time>2014-05-04T09:56:33.000Z</time>
      </trkpt>
      <trkpt lat="47.50347" lon="6.77366">
        <ele>325.1</ele>
        <time>2014-05-04T09:56:34.000Z</time>
      </trkpt>
      <trkpt lat="47.50351" lon="6.7737">
        <ele>324.4</ele>
        <time>2014-05-04T09:56:35.000Z</time>
      </trkpt>
      <trkpt lat="47.50357" lon="6.77374">
        <ele>324.2</ele>
        <time>2014-05-04T09:56:36.000Z</time>
      </trkpt>
      <trkpt lat="47.50362" lon="6.77378">
        <ele>324.1</ele>
        <time>2014-05-04T09:56:37.000Z</time>
      </trkpt>
      <trkpt lat="47.50368" lon="6.77382">
        <ele>323</ele>
        <time>2014-05-04T09:56:38.000Z</time>
      </trkpt>
      <trkpt lat="47.50373" lon="6.77385">
        <ele>322.2</ele>
        <time>2014-05-04T09:56:39.000Z</time>
      </trkpt>
      <trkpt lat="47.50378" lon="6.77389">
        <ele>322.6</ele>
        <time>2014-05-04T09:56:40.000Z</time>
      </trkpt>
      <trkpt lat="47.50384" lon="6.77392">
        <ele>321.5</ele>
        <time>2014-05-04T09:56:41.000Z</time>
      </trkpt>
      <trkpt lat="47.5039" lon="6.77396">
        <ele>322.7</ele>
        <time>2014-05-04T09:56:42.000Z</time>
      </trkpt>
      <trkpt lat="47.50395" lon="6.77401">
        <ele>323.6</ele>
        <time>2014-05-04T09:56:43.000Z</time>
      </trkpt>
      <trkpt lat="47.50432" lon="6.77437">
        <ele>324</ele>
        <time>2014-05-04T09:56:51.000Z</time>
      </trkpt>
      <trkpt lat="47.50437" lon="6.77441">
        <ele>324.4</ele>
        <time>2014-05-04T09:56:52.000Z</time>
      </trkpt>
      <trkpt lat="47.50441" lon="6.77447">
        <ele>325.9</ele>
        <time>2014-05-04T09:56:53.000Z</time>
      </trkpt>
      <trkpt lat="47.50446" lon="6.77451">
        <ele>326.2</ele>
        <time>2014-05-04T09:56:54.000Z</time>
      </trkpt>
      <trkpt lat="47.50451" lon="6.77456">
        <ele>326.4</ele>
        <time>2014-05-04T09:56:55.000Z</time>
      </trkpt>
      <trkpt lat="47.50455" lon="6.7746">
        <ele>326.7</ele>
        <time>2014-05-04T09:56:56.000Z</time>
      </trkpt>
      <trkpt lat="47.50459" lon="6.77464">
        <ele>326.9</ele>
        <time>2014-05-04T09:56:57.000Z</time>
      </trkpt>
      <trkpt lat="47.50463" lon="6.77467">
        <ele>327.1</ele>
        <time>2014-05-04T09:56:58.000Z</time>
      </trkpt>
      <trkpt lat="47.50468" lon="6.77471">
        <ele>325</ele>
        <time>2014-05-04T09:56:59.000Z</time>
      </trkpt>
      <trkpt lat="47.50473" lon="6.77475">
        <ele>324.1</ele>
        <time>2014-05-04T09:57:00.000Z</time>
      </trkpt>
      <trkpt lat="47.50477" lon="6.77479">
        <ele>324.7</ele>
        <time>2014-05-04T09:57:01.000Z</time>
      </trkpt>
      <trkpt lat="47.50481" lon="6.77482">
        <ele>325</ele>
        <time>2014-05-04T09:57:02.000Z</time>
      </trkpt>
      <trkpt lat="47.50485" lon="6.77485">
        <ele>325.4</ele>
        <time>2014-05-04T09:57:03.000Z</time>
      </trkpt>
      <trkpt lat="47.50489" lon="6.77489">
        <ele>324.7</ele>
        <time>2014-05-04T09:57:04.000Z</time>
      </trkpt>
      <trkpt lat="47.50493" lon="6.77492">
        <ele>324</ele>
        <time>2014-05-04T09:57:05.000Z</time>
      </trkpt>
      <trkpt lat="47.50498" lon="6.77496">
        <ele>322.2</ele>
        <time>2014-05-04T09:57:06.000Z</time>
      </trkpt>
      <trkpt lat="47.50504" lon="6.77499">
        <ele>321.7</ele>
        <time>2014-05-04T09:57:07.000Z</time>
      </trkpt>
      <trkpt lat="47.50507" lon="6.77502">
        <ele>323.4</ele>
        <time>2014-05-04T09:57:08.000Z</time>
      </trkpt>
      <trkpt lat="47.50511" lon="6.77504">
        <ele>323.7</ele>
        <time>2014-05-04T09:57:09.000Z</time>
      </trkpt>
      <trkpt lat="47.50517" lon="6.77508">
        <ele>323.5</ele>
        <time>2014-05-04T09:57:10.000Z</time>
      </trkpt>
      <trkpt lat="47.50524" lon="6.77511">
        <ele>323</ele>
        <time>2014-05-04T09:57:11.000Z</time>
      </trkpt>
      <trkpt lat="47.50529" lon="6.77514">
        <ele>323.1</ele>
        <time>2014-05-04T09:57:12.000Z</time>
      </trkpt>
      <trkpt lat="47.50533" lon="6.77517">
        <ele>324</ele>
        <time>2014-05-04T09:57:13.000Z</time>
      </trkpt>
      <trkpt lat="47.50538" lon="6.77522">
        <ele>324.3</ele>
        <time>2014-05-04T09:57:14.000Z</time>
      </trkpt>
      <trkpt lat="47.50542" lon="6.77525">
        <ele>324.9</ele>
        <time>2014-05-04T09:57:15.000Z</time>
      </trkpt>
      <trkpt lat="47.50546" lon="6.77528">
        <ele>324.5</ele>
        <time>2014-05-04T09:57:16.000Z</time>
      </trkpt>
      <trkpt lat="47.5055" lon="6.77531">
        <ele>324.4</ele>
        <time>2014-05-04T09:57:17.000Z</time>
      </trkpt>
      <trkpt lat="47.50553" lon="6.77537">
        <ele>324.7</ele>
        <time>2014-05-04T09:57:18.000Z</time>
      </trkpt>
      <trkpt lat="47.50556" lon="6.77543">
        <ele>323.7</ele>
        <time>2014-05-04T09:57:19.000Z</time>
      </trkpt>
      <trkpt lat="47.50558" lon="6.77549">
        <ele>323.5</ele>
        <time>2014-05-04T09:57:20.000Z</time>
      </trkpt>
      <trkpt lat="47.50561" lon="6.77554">
        <ele>323.6</ele>
        <time>2014-05-04T09:57:21.000Z</time>
      </trkpt>
      <trkpt lat="47.50565" lon="6.77557">
        <ele>324.7</ele>
        <time>2014-05-04T09:57:22.000Z</time>
      </trkpt>
      <trkpt lat="47.50569" lon="6.77559">
        <ele>325.4</ele>
        <time>2014-05-04T09:57:23.000Z</time>
      </trkpt>
      <trkpt lat="47.50575" lon="6.77559">
        <ele>326.1</ele>
        <time>2014-05-04T09:57:24.000Z</time>
      </trkpt>
      <trkpt lat="47.5058" lon="6.77558">
        <ele>327.1</ele>
        <time>2014-05-04T09:57:25.000Z</time>
      </trkpt>
      <trkpt lat="47.50584" lon="6.77554">
        <ele>327.7</ele>
        <time>2014-05-04T09:57:26.000Z</time>
      </trkpt>
      <trkpt lat="47.50585" lon="6.7755">
        <ele>328.8</ele>
        <time>2014-05-04T09:57:27.000Z</time>
      </trkpt>
      <trkpt lat="47.50587" lon="6.77548">
        <ele>329.7</ele>
        <time>2014-05-04T09:57:28.000Z</time>
      </trkpt>
      <trkpt lat="47.50589" lon="6.77546">
        <ele>329.9</ele>
        <time>2014-05-04T09:57:29.000Z</time>
      </trkpt>
      <trkpt lat="47.50594" lon="6.77547">
        <ele>331.7</ele>
        <time>2014-05-04T09:57:30.000Z</time>
      </trkpt>
      <trkpt lat="47.50597" lon="6.77548">
        <ele>332.7</ele>
        <time>2014-05-04T09:57:31.000Z</time>
      </trkpt>
      <trkpt lat="47.50602" lon="6.77546">
        <ele>330.9</ele>
        <time>2014-05-04T09:57:32.000Z</time>
      </trkpt>
      <trkpt lat="47.50607" lon="6.77548">
        <ele>330.4</ele>
        <time>2014-05-04T09:57:33.000Z</time>
      </trkpt>
      <trkpt lat="47.50612" lon="6.77544">
        <ele>329.8</ele>
        <time>2014-05-04T09:57:34.000Z</time>
      </trkpt>
      <trkpt lat="47.50617" lon="6.77543">
        <ele>329.4</ele>
        <time>2014-05-04T09:57:35.000Z</time>
      </trkpt>
      <trkpt lat="47.50623" lon="6.77545">
        <ele>328.8</ele>
        <time>2014-05-04T09:57:36.000Z</time>
      </trkpt>
      <trkpt lat="47.50627" lon="6.77545">
        <ele>327.2</ele>
        <time>2014-05-04T09:57:37.000Z</time>
      </trkpt>
      <trkpt lat="47.5063" lon="6.77538">
        <ele>329.2</ele>
        <time>2014-05-04T09:57:38.000Z</time>
      </trkpt>
      <trkpt lat="47.50635" lon="6.77535">
        <ele>330.1</ele>
        <time>2014-05-04T09:57:39.000Z</time>
      </trkpt>
      <trkpt lat="47.50639" lon="6.77535">
        <ele>330</ele>
        <time>2014-05-04T09:57:40.000Z</time>
      </trkpt>
      <trkpt lat="47.50644" lon="6.77536">
        <ele>330</ele>
        <time>2014-05-04T09:57:41.000Z</time>
      </trkpt>
      <trkpt lat="47.50648" lon="6.77538">
        <ele>330</ele>
        <time>2014-05-04T09:57:42.000Z</time>
      </trkpt>
      <trkpt lat="47.50653" lon="6.77539">
        <ele>330.5</ele>
        <time>2014-05-04T09:57:43.000Z</time>
      </trkpt>
      <trkpt lat="47.50695" lon="6.77537">
        <ele>335.9</ele>
        <time>2014-05-04T09:57:51.000Z</time>
      </trkpt>
      <trkpt lat="47.50701" lon="6.77539">
        <ele>336.5</ele>
        <time>2014-05-04T09:57:52.000Z</time>
      </trkpt>
      <trkpt lat="47.50706" lon="6.77541">
        <ele>337.9</ele>
        <time>2014-05-04T09:57:53.000Z</time>
      </trkpt>
      <trkpt lat="47.50712" lon="6.77543">
        <ele>338.4</ele>
        <time>2014-05-04T09:57:54.000Z</time>
      </trkpt>
      <trkpt lat="47.50718" lon="6.77544">
        <ele>334.9</ele>
        <time>2014-05-04T09:57:55.000Z</time>
      </trkpt>
      <trkpt lat="47.50723" lon="6.77547">
        <ele>334.6</ele>
        <time>2014-05-04T09:57:56.000Z</time>
      </trkpt>
      <trkpt lat="47.50729" lon="6.77549">
        <ele>333.7</ele>
        <time>2014-05-04T09:57:57.000Z</time>
      </trkpt>
      <trkpt lat="47.50736" lon="6.7755">
        <ele>330.2</ele>
        <time>2014-05-04T09:57:58.000Z</time>
      </trkpt>
      <trkpt lat="47.5074" lon="6.77554">
        <ele>329.5</ele>
        <time>2014-05-04T09:57:59.000Z</time>
      </trkpt>
      <trkpt lat="47.50745" lon="6.77557">
        <ele>327.7</ele>
        <time>2014-05-04T09:58:00.000Z</time>
      </trkpt>
      <trkpt lat="47.5075" lon="6.77561">
        <ele>327.7</ele>
        <time>2014-05-04T09:58:01.000Z</time>
      </trkpt>
      <trkpt lat="47.50755" lon="6.77565">
        <ele>327.9</ele>
        <time>2014-05-04T09:58:02.000Z</time>
      </trkpt>
      <trkpt lat="47.5076" lon="6.77569">
        <ele>328.1</ele>
        <time>2014-05-04T09:58:03.000Z</time>
      </trkpt>
      <trkpt lat="47.50765" lon="6.77574">
        <ele>327.3</ele>
        <time>2014-05-04T09:58:04.000Z</time>
      </trkpt>
      <trkpt lat="47.5077" lon="6.77578">
        <ele>328.6</ele>
        <time>2014-05-04T09:58:05.000Z</time>
      </trkpt>
      <trkpt lat="47.50775" lon="6.77581">
        <ele>328.5</ele>
        <time>2014-05-04T09:58:06.000Z</time>
      </trkpt>
      <trkpt lat="47.50782" lon="6.77585">
        <ele>327.5</ele>
        <time>2014-05-04T09:58:07.000Z</time>
      </trkpt>
      <trkpt lat="47.50787" lon="6.7759">
        <ele>327.6</ele>
        <time>2014-05-04T09:58:08.000Z</time>
      </trkpt>
      <trkpt lat="47.50792" lon="6.77595">
        <ele>329.4</ele>
        <time>2014-05-04T09:58:09.000Z</time>
      </trkpt>
      <trkpt lat="47.50798" lon="6.77598">
        <ele>328.1</ele>
        <time>2014-05-04T09:58:10.000Z</time>
      </trkpt>
      <trkpt lat="47.50803" lon="6.77601">
        <ele>327.3</ele>
        <time>2014-05-04T09:58:11.000Z</time>
      </trkpt>
      <trkpt lat="47.50809" lon="6.77605">
        <ele>327.8</ele>
        <time>2014-05-04T09:58:12.002Z</time>
      </trkpt>
      <trkpt lat="47.50814" lon="6.7761">
        <ele>325.5</ele>
        <time>2014-05-04T09:58:13.000Z</time>
      </trkpt>
      <trkpt lat="47.50819" lon="6.77614">
        <ele>325.1</ele>
        <time>2014-05-04T09:58:14.000Z</time>
      </trkpt>
      <trkpt lat="47.50825" lon="6.77617">
        <ele>323.5</ele>
        <time>2014-05-04T09:58:15.000Z</time>
      </trkpt>
      <trkpt lat="47.50828" lon="6.7762">
        <ele>323.2</ele>
        <time>2014-05-04T09:58:16.000Z</time>
      </trkpt>
      <trkpt lat="47.50832" lon="6.77627">
        <ele>322.5</ele>
        <time>2014-05-04T09:58:17.000Z</time>
      </trkpt>
      <trkpt lat="47.50836" lon="6.77632">
        <ele>323.3</ele>
        <time>2014-05-04T09:58:18.000Z</time>
      </trkpt>
      <trkpt lat="47.50842" lon="6.77637">
        <ele>321.4</ele>
        <time>2014-05-04T09:58:19.000Z</time>
      </trkpt>
      <trkpt lat="47.50848" lon="6.77645">
        <ele>321.2</ele>
        <time>2014-05-04T09:58:20.000Z</time>
      </trkpt>
      <trkpt lat="47.50851" lon="6.77652">
        <ele>319.8</ele>
        <time>2014-05-04T09:58:21.000Z</time>
      </trkpt>
      <trkpt lat="47.50855" lon="6.77658">
        <ele>319.6</ele>
        <time>2014-05-04T09:58:22.000Z</time>
      </trkpt>
      <trkpt lat="47.50861" lon="6.77664">
        <ele>319</ele>
        <time>2014-05-04T09:58:23.000Z</time>
      </trkpt>
      <trkpt lat="47.50866" lon="6.7767">
        <ele>319.2</ele>
        <time>2014-05-04T09:58:24.000Z</time>
      </trkpt>
      <trkpt lat="47.50871" lon="6.77677">
        <ele>320</ele>
        <time>2014-05-04T09:58:25.000Z</time>
      </trkpt>
      <trkpt lat="47.50875" lon="6.77684">
        <ele>318.7</ele>
        <time>2014-05-04T09:58:26.000Z</time>
      </trkpt>
      <trkpt lat="47.50879" lon="6.7769">
        <ele>316.9</ele>
        <time>2014-05-04T09:58:27.000Z</time>
      </trkpt>
      <trkpt lat="47.50881" lon="6.77696">
        <ele>317.5</ele>
        <time>2014-05-04T09:58:28.000Z</time>
      </trkpt>
      <trkpt lat="47.50884" lon="6.77703">
        <ele>316.9</ele>
        <time>2014-05-04T09:58:29.000Z</time>
      </trkpt>
      <trkpt lat="47.50887" lon="6.77706">
        <ele>316.3</ele>
        <time>2014-05-04T09:58:30.000Z</time>
      </trkpt>
      <trkpt lat="47.5089" lon="6.77707">
        <ele>317.5</ele>
        <time>2014-05-04T09:58:31.000Z</time>
      </trkpt>
      <trkpt lat="47.50895" lon="6.77708">
        <ele>318.7</ele>
        <time>2014-05-04T09:58:32.000Z</time>
      </trkpt>
      <trkpt lat="47.50899" lon="6.77707">
        <ele>318.4</ele>
        <time>2014-05-04T09:58:33.000Z</time>
      </trkpt>
      <trkpt lat="47.50903" lon="6.77707">
        <ele>319.3</ele>
        <time>2014-05-04T09:58:34.000Z</time>
      </trkpt>
      <trkpt lat="47.50905" lon="6.77708">
        <ele>322.9</ele>
        <time>2014-05-04T09:58:35.000Z</time>
      </trkpt>
      <trkpt lat="47.50908" lon="6.77708">
        <ele>323.5</ele>
        <time>2014-05-04T09:58:36.000Z</time>
      </trkpt>
      <trkpt lat="47.50911" lon="6.77707">
        <ele>325</ele>
        <time>2014-05-04T09:58:37.000Z</time>
      </trkpt>
      <trkpt lat="47.50914" lon="6.77706">
        <ele>326.5</ele>
        <time>2014-05-04T09:58:38.000Z</time>
      </trkpt>
      <trkpt lat="47.50917" lon="6.77705">
        <ele>327.6</ele>
        <time>2014-05-04T09:58:39.000Z</time>
      </trkpt>
      <trkpt lat="47.50921" lon="6.77705">
        <ele>328.4</ele>
        <time>2014-05-04T09:58:40.000Z</time>
      </trkpt>
      <trkpt lat="47.50924" lon="6.77706">
        <ele>329.1</ele>
        <time>2014-05-04T09:58:41.000Z</time>
      </trkpt>
      <trkpt lat="47.50927" lon="6.77707">
        <ele>328.7</ele>
        <time>2014-05-04T09:58:42.000Z</time>
      </trkpt>
      <trkpt lat="47.5093" lon="6.77708">
        <ele>329.3</ele>
        <time>2014-05-04T09:58:43.000Z</time>
      </trkpt>
      <trkpt lat="47.50956" lon="6.77707">
        <ele>328.5</ele>
        <time>2014-05-04T09:58:51.000Z</time>
      </trkpt>
      <trkpt lat="47.50959" lon="6.77705">
        <ele>329.4</ele>
        <time>2014-05-04T09:58:52.000Z</time>
      </trkpt>
      <trkpt lat="47.50961" lon="6.77698">
        <ele>328.5</ele>
        <time>2014-05-04T09:58:53.000Z</time>
      </trkpt>
      <trkpt lat="47.50964" lon="6.77694">
        <ele>327.1</ele>
        <time>2014-05-04T09:58:54.000Z</time>
      </trkpt>
      <trkpt lat="47.50967" lon="6.77693">
        <ele>327.3</ele>
        <time>2014-05-04T09:58:55.000Z</time>
      </trkpt>
      <trkpt lat="47.50969" lon="6.77694">
        <ele>325</ele>
        <time>2014-05-04T09:58:56.000Z</time>
      </trkpt>
      <trkpt lat="47.50971" lon="6.77698">
        <ele>324.5</ele>
        <time>2014-05-04T09:58:57.000Z</time>
      </trkpt>
      <trkpt lat="47.50974" lon="6.77702">
        <ele>324</ele>
        <time>2014-05-04T09:58:58.000Z</time>
      </trkpt>
      <trkpt lat="47.50979" lon="6.77709">
        <ele>323.6</ele>
        <time>2014-05-04T09:58:59.000Z</time>
      </trkpt>
      <trkpt lat="47.50984" lon="6.77713">
        <ele>322.9</ele>
        <time>2014-05-04T09:59:00.000Z</time>
      </trkpt>
      <trkpt lat="47.50988" lon="6.77717">
        <ele>322.9</ele>
        <time>2014-05-04T09:59:01.000Z</time>
      </trkpt>
      <trkpt lat="47.50992" lon="6.77721">
        <ele>322.6</ele>
        <time>2014-05-04T09:59:02.000Z</time>
      </trkpt>
      <trkpt lat="47.50997" lon="6.77725">
        <ele>322.1</ele>
        <time>2014-05-04T09:59:03.000Z</time>
      </trkpt>
      <trkpt lat="47.51001" lon="6.77729">
        <ele>322</ele>
        <time>2014-05-04T09:59:04.000Z</time>
      </trkpt>
      <trkpt lat="47.51006" lon="6.77732">
        <ele>321.7</ele>
        <time>2014-05-04T09:59:05.000Z</time>
      </trkpt>
      <trkpt lat="47.51011" lon="6.77736">
        <ele>320.7</ele>
        <time>2014-05-04T09:59:06.000Z</time>
      </trkpt>
      <trkpt lat="47.51015" lon="6.77741">
        <ele>319.8</ele>
        <time>2014-05-04T09:59:07.000Z</time>
      </trkpt>
      <trkpt lat="47.51019" lon="6.77744">
        <ele>320.9</ele>
        <time>2014-05-04T09:59:08.000Z</time>
      </trkpt>
      <trkpt lat="47.51023" lon="6.77747">
        <ele>321.8</ele>
        <time>2014-05-04T09:59:09.000Z</time>
      </trkpt>
      <trkpt lat="47.51027" lon="6.7775">
        <ele>322.7</ele>
        <time>2014-05-04T09:59:10.000Z</time>
      </trkpt>
      <trkpt lat="47.51031" lon="6.77755">
        <ele>324.1</ele>
        <time>2014-05-04T09:59:11.000Z</time>
      </trkpt>
      <trkpt lat="47.51035" lon="6.77757">
        <ele>325</ele>
        <time>2014-05-04T09:59:12.000Z</time>
      </trkpt>
      <trkpt lat="47.51038" lon="6.7776">
        <ele>325.9</ele>
        <time>2014-05-04T09:59:13.000Z</time>
      </trkpt>
      <trkpt lat="47.51041" lon="6.77763">
        <ele>326.4</ele>
        <time>2014-05-04T09:59:14.000Z</time>
      </trkpt>
      <trkpt lat="47.51043" lon="6.77764">
        <ele>332</ele>
        <time>2014-05-04T09:59:15.000Z</time>
      </trkpt>
      <trkpt lat="47.51048" lon="6.77765">
        <ele>330.7</ele>
        <time>2014-05-04T09:59:17.000Z</time>
      </trkpt>
      <trkpt lat="47.51048" lon="6.77767">
        <ele>330</ele>
        <time>2014-05-04T09:59:18.000Z</time>
      </trkpt>
      <trkpt lat="47.51052" lon="6.77771">
        <ele>329.6</ele>
        <time>2014-05-04T09:59:20.000Z</time>
      </trkpt>
      <trkpt lat="47.51054" lon="6.77772">
        <ele>328.9</ele>
        <time>2014-05-04T09:59:21.000Z</time>
      </trkpt>
      <trkpt lat="47.51056" lon="6.77774">
        <ele>328.6</ele>
        <time>2014-05-04T09:59:22.000Z</time>
      </trkpt>
      <trkpt lat="47.51059" lon="6.77776">
        <ele>328.8</ele>
        <time>2014-05-04T09:59:23.000Z</time>
      </trkpt>
      <trkpt lat="47.51062" lon="6.77778">
        <ele>328.3</ele>
        <time>2014-05-04T09:59:24.000Z</time>
      </trkpt>
      <trkpt lat="47.51065" lon="6.7778">
        <ele>328.3</ele>
        <time>2014-05-04T09:59:25.000Z</time>
      </trkpt>
      <trkpt lat="47.51069" lon="6.77781">
        <ele>328.3</ele>
        <time>2014-05-04T09:59:26.000Z</time>
      </trkpt>
      <trkpt lat="47.51073" lon="6.77783">
        <ele>328.8</ele>
        <time>2014-05-04T09:59:27.002Z</time>
      </trkpt>
      <trkpt lat="47.51077" lon="6.77784">
        <ele>327.8</ele>
        <time>2014-05-04T09:59:28.000Z</time>
      </trkpt>
      <trkpt lat="47.51081" lon="6.77785">
        <ele>327.2</ele>
        <time>2014-05-04T09:59:29.000Z</time>
      </trkpt>
      <trkpt lat="47.51085" lon="6.77786">
        <ele>327.7</ele>
        <time>2014-05-04T09:59:30.000Z</time>
      </trkpt>
      <trkpt lat="47.51089" lon="6.77787">
        <ele>327.4</ele>
        <time>2014-05-04T09:59:31.000Z</time>
      </trkpt>
      <trkpt lat="47.51093" lon="6.77787">
        <ele>326.8</ele>
        <time>2014-05-04T09:59:32.000Z</time>
      </trkpt>
      <trkpt lat="47.51097" lon="6.77788">
        <ele>327.7</ele>
        <time>2014-05-04T09:59:33.000Z</time>
      </trkpt>
      <trkpt lat="47.511" lon="6.77788">
        <ele>328.4</ele>
        <time>2014-05-04T09:59:34.000Z</time>
      </trkpt>
      <trkpt lat="47.51104" lon="6.77789">
        <ele>329.2</ele>
        <time>2014-05-04T09:59:35.000Z</time>
      </trkpt>
      <trkpt lat="47.51107" lon="6.77789">
        <ele>329.7</ele>
        <time>2014-05-04T09:59:36.000Z</time>
      </trkpt>
      <trkpt lat="47.5111" lon="6.77789">
        <ele>329.5</ele>
        <time>2014-05-04T09:59:37.000Z</time>
      </trkpt>
      <trkpt lat="47.51113" lon="6.77789">
        <ele>329.7</ele>
        <time>2014-05-04T09:59:38.000Z</time>
      </trkpt>
      <trkpt lat="47.51117" lon="6.7779">
        <ele>330.6</ele>
        <time>2014-05-04T09:59:39.000Z</time>
      </trkpt>
      <trkpt lat="47.5112" lon="6.7779">
        <ele>331.8</ele>
        <time>2014-05-04T09:59:40.000Z</time>
      </trkpt>
      <trkpt lat="47.51123" lon="6.77791">
        <ele>331.7</ele>
        <time>2014-05-04T09:59:41.000Z</time>
      </trkpt>
      <trkpt lat="47.51126" lon="6.77791">
        <ele>332.2</ele>
        <time>2014-05-04T09:59:42.000Z</time>
      </trkpt>
      <trkpt lat="47.5113" lon="6.77792">
        <ele>333.5</ele>
        <time>2014-05-04T09:59:43.000Z</time>
      </trkpt>
      <trkpt lat="47.51154" lon="6.77794">
        <ele>338.2</ele>
        <time>2014-05-04T09:59:51.000Z</time>
      </trkpt>
      <trkpt lat="47.51156" lon="6.77795">
        <ele>339.4</ele>
        <time>2014-05-04T09:59:52.000Z</time>
      </trkpt>
      <trkpt lat="47.51159" lon="6.77796">
        <ele>339.7</ele>
        <time>2014-05-04T09:59:53.000Z</time>
      </trkpt>
      <trkpt lat="47.51161" lon="6.77796">
        <ele>340.6</ele>
        <time>2014-05-04T09:59:54.000Z</time>
      </trkpt>
      <trkpt lat="47.51164" lon="6.77796">
        <ele>341.3</ele>
        <time>2014-05-04T09:59:55.000Z</time>
      </trkpt>
      <trkpt lat="47.51166" lon="6.77796">
        <ele>341.8</ele>
        <time>2014-05-04T09:59:56.000Z</time>
      </trkpt>
      <trkpt lat="47.51169" lon="6.77797">
        <ele>342.9</ele>
        <time>2014-05-04T09:59:57.000Z</time>
      </trkpt>
      <trkpt lat="47.51171" lon="6.77797">
        <ele>343.6</ele>
        <time>2014-05-04T09:59:58.000Z</time>
      </trkpt>
      <trkpt lat="47.51174" lon="6.77797">
        <ele>340.6</ele>
        <time>2014-05-04T09:59:59.000Z</time>
      </trkpt>
      <trkpt lat="47.51176" lon="6.77797">
        <ele>341.3</ele>
        <time>2014-05-04T10:00:00.000Z</time>
      </trkpt>
      <trkpt lat="47.51179" lon="6.77797">
        <ele>340.4</ele>
        <time>2014-05-04T10:00:01.000Z</time>
      </trkpt>
      <trkpt lat="47.51182" lon="6.77797">
        <ele>341.5</ele>
        <time>2014-05-04T10:00:02.000Z</time>
      </trkpt>
      <trkpt lat="47.51185" lon="6.77797">
        <ele>342.6</ele>
        <time>2014-05-04T10:00:03.000Z</time>
      </trkpt>
      <trkpt lat="47.51187" lon="6.77796">
        <ele>343.1</ele>
        <time>2014-05-04T10:00:04.000Z</time>
      </trkpt>
      <trkpt lat="47.51189" lon="6.77796">
        <ele>344</ele>
        <time>2014-05-04T10:00:05.000Z</time>
      </trkpt>
      <trkpt lat="47.51192" lon="6.77795">
        <ele>342.7</ele>
        <time>2014-05-04T10:00:06.000Z</time>
      </trkpt>
      <trkpt lat="47.51194" lon="6.77794">
        <ele>342.4</ele>
        <time>2014-05-04T10:00:07.000Z</time>
      </trkpt>
      <trkpt lat="47.51197" lon="6.77794">
        <ele>342.9</ele>
        <time>2014-05-04T10:00:08.000Z</time>
      </trkpt>
      <trkpt lat="47.51199" lon="6.77794">
        <ele>342.9</ele>
        <time>2014-05-04T10:00:09.000Z</time>
      </trkpt>
      <trkpt lat="47.51201" lon="6.77794">
        <ele>343.5</ele>
        <time>2014-05-04T10:00:10.000Z</time>
      </trkpt>
      <trkpt lat="47.51204" lon="6.77794">
        <ele>344.1</ele>
        <time>2014-05-04T10:00:11.000Z</time>
      </trkpt>
      <trkpt lat="47.51206" lon="6.77793">
        <ele>344.8</ele>
        <time>2014-05-04T10:00:12.000Z</time>
      </trkpt>
      <trkpt lat="47.51208" lon="6.77793">
        <ele>346.5</ele>
        <time>2014-05-04T10:00:13.000Z</time>
      </trkpt>
      <trkpt lat="47.51213" lon="6.77793">
        <ele>347.5</ele>
        <time>2014-05-04T10:00:15.000Z</time>
      </trkpt>
      <trkpt lat="47.51215" lon="6.77793">
        <ele>348.3</ele>
        <time>2014-05-04T10:00:16.000Z</time>
      </trkpt>
      <trkpt lat="47.51217" lon="6.77793">
        <ele>348.7</ele>
        <time>2014-05-04T10:00:17.000Z</time>
      </trkpt>
      <trkpt lat="47.51219" lon="6.77793">
        <ele>349</ele>
        <time>2014-05-04T10:00:18.000Z</time>
      </trkpt>
      <trkpt lat="47.51222" lon="6.77794">
        <ele>349.5</ele>
        <time>2014-05-04T10:00:19.000Z</time>
      </trkpt>
      <trkpt lat="47.51224" lon="6.77795">
        <ele>350.6</ele>
        <time>2014-05-04T10:00:20.000Z</time>
      </trkpt>
      <trkpt lat="47.51226" lon="6.77795">
        <ele>351.3</ele>
        <time>2014-05-04T10:00:21.000Z</time>
      </trkpt>
      <trkpt lat="47.51229" lon="6.77795">
        <ele>351.5</ele>
        <time>2014-05-04T10:00:22.000Z</time>
      </trkpt>
      <trkpt lat="47.51231" lon="6.77795">
        <ele>352.7</ele>
        <time>2014-05-04T10:00:23.000Z</time>
      </trkpt>
      <trkpt lat="47.51234" lon="6.77795">
        <ele>353.4</ele>
        <time>2014-05-04T10:00:24.000Z</time>
      </trkpt>
      <trkpt lat="47.51236" lon="6.77795">
        <ele>353.6</ele>
        <time>2014-05-04T10:00:25.000Z</time>
      </trkpt>
      <trkpt lat="47.51238" lon="6.77794">
        <ele>352.6</ele>
        <time>2014-05-04T10:00:26.000Z</time>
      </trkpt>
      <trkpt lat="47.51241" lon="6.77794">
        <ele>353.4</ele>
        <time>2014-05-04T10:00:27.000Z</time>
      </trkpt>
      <trkpt lat="47.51243" lon="6.77793">
        <ele>351.6</ele>
        <time>2014-05-04T10:00:28.000Z</time>
      </trkpt>
      <trkpt lat="47.51246" lon="6.77793">
        <ele>349.9</ele>
        <time>2014-05-04T10:00:29.000Z</time>
      </trkpt>
      <trkpt lat="47.51248" lon="6.77793">
        <ele>349.7</ele>
        <time>2014-05-04T10:00:30.000Z</time>
      </trkpt>
      <trkpt lat="47.5125" lon="6.77793">
        <ele>350.4</ele>
        <time>2014-05-04T10:00:31.000Z</time>
      </trkpt>
      <trkpt lat="47.51253" lon="6.77792">
        <ele>349.5</ele>
        <time>2014-05-04T10:00:32.000Z</time>
      </trkpt>
      <trkpt lat="47.51257" lon="6.77791">
        <ele>349.7</ele>
        <time>2014-05-04T10:00:34.000Z</time>
      </trkpt>
      <trkpt lat="47.51259" lon="6.77791">
        <ele>348.6</ele>
        <time>2014-05-04T10:00:35.000Z</time>
      </trkpt>
      <trkpt lat="47.51261" lon="6.7779">
        <ele>347.8</ele>
        <time>2014-05-04T10:00:36.000Z</time>
      </trkpt>
      <trkpt lat="47.51264" lon="6.77789">
        <ele>347.6</ele>
        <time>2014-05-04T10:00:37.000Z</time>
      </trkpt>
      <trkpt lat="47.51268" lon="6.77788">
        <ele>348.6</ele>
        <time>2014-05-04T10:00:39.000Z</time>
      </trkpt>
      <trkpt lat="47.5127" lon="6.77787">
        <ele>349.2</ele>
        <time>2014-05-04T10:00:40.000Z</time>
      </trkpt>
      <trkpt lat="47.51273" lon="6.77787">
        <ele>350.9</ele>
        <time>2014-05-04T10:00:42.000Z</time>
      </trkpt>
      <trkpt lat="47.51275" lon="6.77787">
        <ele>352</ele>
        <time>2014-05-04T10:00:43.000Z</time>
      </trkpt>
      <trkpt lat="47.5129" lon="6.77786">
        <ele>356.6</ele>
        <time>2014-05-04T10:00:51.000Z</time>
      </trkpt>
      <trkpt lat="47.51294" lon="6.77785">
        <ele>355.9</ele>
        <time>2014-05-04T10:00:53.000Z</time>
      </trkpt>
      <trkpt lat="47.51297" lon="6.77785">
        <ele>354.3</ele>
        <time>2014-05-04T10:00:54.000Z</time>
      </trkpt>
      <trkpt lat="47.51301" lon="6.77784">
        <ele>354.2</ele>
        <time>2014-05-04T10:00:56.000Z</time>
      </trkpt>
      <trkpt lat="47.51303" lon="6.77783">
        <ele>353.3</ele>
        <time>2014-05-04T10:00:57.000Z</time>
      </trkpt>
      <trkpt lat="47.51305" lon="6.77783">
        <ele>352.9</ele>
        <time>2014-05-04T10:00:58.000Z</time>
      </trkpt>
      <trkpt lat="47.51307" lon="6.77782">
        <ele>352.3</ele>
        <time>2014-05-04T10:00:59.000Z</time>
      </trkpt>
      <trkpt lat="47.5131" lon="6.77782">
        <ele>350.6</ele>
        <time>2014-05-04T10:01:00.000Z</time>
      </trkpt>
      <trkpt lat="47.51312" lon="6.77782">
        <ele>351.2</ele>
        <time>2014-05-04T10:01:01.000Z</time>
      </trkpt>
      <trkpt lat="47.51316" lon="6.77781">
        <ele>350.9</ele>
        <time>2014-05-04T10:01:03.000Z</time>
      </trkpt>
      <trkpt lat="47.51318" lon="6.77781">
        <ele>351.2</ele>
        <time>2014-05-04T10:01:04.000Z</time>
      </trkpt>
      <trkpt lat="47.51321" lon="6.7778">
        <ele>352.2</ele>
        <time>2014-05-04T10:01:06.000Z</time>
      </trkpt>
      <trkpt lat="47.51323" lon="6.7778">
        <ele>351.9</ele>
        <time>2014-05-04T10:01:07.000Z</time>
      </trkpt>
      <trkpt lat="47.51326" lon="6.77779">
        <ele>351.9</ele>
        <time>2014-05-04T10:01:09.000Z</time>
      </trkpt>
      <trkpt lat="47.51328" lon="6.77779">
        <ele>352.1</ele>
        <time>2014-05-04T10:01:10.000Z</time>
      </trkpt>
      <trkpt lat="47.51331" lon="6.77781">
        <ele>353.1</ele>
        <time>2014-05-04T10:01:12.000Z</time>
      </trkpt>
      <trkpt lat="47.51333" lon="6.77782">
        <ele>352.2</ele>
        <time>2014-05-04T10:01:13.000Z</time>
      </trkpt>
      <trkpt lat="47.51336" lon="6.77784">
        <ele>354.7</ele>
        <time>2014-05-04T10:01:15.000Z</time>
      </trkpt>
      <trkpt lat="47.51337" lon="6.77785">
        <ele>355.1</ele>
        <time>2014-05-04T10:01:16.000Z</time>
      </trkpt>
      <trkpt lat="47.5134" lon="6.77786">
        <ele>355.3</ele>
        <time>2014-05-04T10:01:18.000Z</time>
      </trkpt>
      <trkpt lat="47.51342" lon="6.77787">
        <ele>356.5</ele>
        <time>2014-05-04T10:01:19.000Z</time>
      </trkpt>
      <trkpt lat="47.51345" lon="6.77786">
        <ele>353.2</ele>
        <time>2014-05-04T10:01:21.000Z</time>
      </trkpt>
      <trkpt lat="47.51347" lon="6.77785">
        <ele>353.7</ele>
        <time>2014-05-04T10:01:22.000Z</time>
      </trkpt>
      <trkpt lat="47.5135" lon="6.77783">
        <ele>355.2</ele>
        <time>2014-05-04T10:01:24.000Z</time>
      </trkpt>
      <trkpt lat="47.51352" lon="6.77782">
        <ele>355.5</ele>
        <time>2014-05-04T10:01:25.000Z</time>
      </trkpt>
      <trkpt lat="47.51355" lon="6.77779">
        <ele>355.9</ele>
        <time>2014-05-04T10:01:27.000Z</time>
      </trkpt>
      <trkpt lat="47.51357" lon="6.77778">
        <ele>356.1</ele>
        <time>2014-05-04T10:01:28.000Z</time>
      </trkpt>
      <trkpt lat="47.5136" lon="6.77775">
        <ele>358.4</ele>
        <time>2014-05-04T10:01:30.000Z</time>
      </trkpt>
      <trkpt lat="47.51361" lon="6.77774">
        <ele>358.8</ele>
        <time>2014-05-04T10:01:31.000Z</time>
      </trkpt>
      <trkpt lat="47.51364" lon="6.77773">
        <ele>359.6</ele>
        <time>2014-05-04T10:01:33.000Z</time>
      </trkpt>
      <trkpt lat="47.51366" lon="6.77772">
        <ele>359.5</ele>
        <time>2014-05-04T10:01:34.000Z</time>
      </trkpt>
      <trkpt lat="47.51369" lon="6.77769">
        <ele>360</ele>
        <time>2014-05-04T10:01:36.000Z</time>
      </trkpt>
      <trkpt lat="47.5137" lon="6.77768">
        <ele>360.8</ele>
        <time>2014-05-04T10:01:37.000Z</time>
      </trkpt>
      <trkpt lat="47.51373" lon="6.77765">
        <ele>361</ele>
        <time>2014-05-04T10:01:39.000Z</time>
      </trkpt>
      <trkpt lat="47.51375" lon="6.77764">
        <ele>361.7</ele>
        <time>2014-05-04T10:01:40.000Z</time>
      </trkpt>
      <trkpt lat="47.51379" lon="6.77763">
        <ele>361.1</ele>
        <time>2014-05-04T10:01:42.000Z</time>
      </trkpt>
      <trkpt lat="47.51381" lon="6.77762">
        <ele>361.3</ele>
        <time>2014-05-04T10:01:43.000Z</time>
      </trkpt>
      <trkpt lat="47.51395" lon="6.77759">
        <ele>362.4</ele>
        <time>2014-05-04T10:01:51.000Z</time>
      </trkpt>
      <trkpt lat="47.51399" lon="6.77756">
        <ele>361.9</ele>
        <time>2014-05-04T10:01:53.000Z</time>
      </trkpt>
      <trkpt lat="47.51401" lon="6.77755">
        <ele>361.5</ele>
        <time>2014-05-04T10:01:54.000Z</time>
      </trkpt>
      <trkpt lat="47.51404" lon="6.77752">
        <ele>363.5</ele>
        <time>2014-05-04T10:01:56.000Z</time>
      </trkpt>
      <trkpt lat="47.51405" lon="6.77751">
        <ele>365.7</ele>
        <time>2014-05-04T10:01:57.000Z</time>
      </trkpt>
      <trkpt lat="47.51408" lon="6.77748">
        <ele>367.6</ele>
        <time>2014-05-04T10:01:59.000Z</time>
      </trkpt>
      <trkpt lat="47.51409" lon="6.77746">
        <ele>368.3</ele>
        <time>2014-05-04T10:02:00.000Z</time>
      </trkpt>
      <trkpt lat="47.51412" lon="6.77744">
        <ele>370.9</ele>
        <time>2014-05-04T10:02:03.000Z</time>
      </trkpt>
      <trkpt lat="47.51413" lon="6.77744">
        <ele>371.1</ele>
        <time>2014-05-04T10:02:04.000Z</time>
      </trkpt>
      <trkpt lat="47.51416" lon="6.77743">
        <ele>369.6</ele>
        <time>2014-05-04T10:02:06.000Z</time>
      </trkpt>
      <trkpt lat="47.51418" lon="6.77742">
        <ele>369.9</ele>
        <time>2014-05-04T10:02:07.000Z</time>
      </trkpt>
      <trkpt lat="47.51421" lon="6.7774">
        <ele>370.3</ele>
        <time>2014-05-04T10:02:09.000Z</time>
      </trkpt>
      <trkpt lat="47.51423" lon="6.7774">
        <ele>371.2</ele>
        <time>2014-05-04T10:02:10.000Z</time>
      </trkpt>
      <trkpt lat="47.51426" lon="6.77738">
        <ele>372.9</ele>
        <time>2014-05-04T10:02:12.000Z</time>
      </trkpt>
      <trkpt lat="47.51427" lon="6.77738">
        <ele>372.7</ele>
        <time>2014-05-04T10:02:13.000Z</time>
      </trkpt>
      <trkpt lat="47.51431" lon="6.77738">
        <ele>373.6</ele>
        <time>2014-05-04T10:02:15.000Z</time>
      </trkpt>
      <trkpt lat="47.51432" lon="6.77738">
        <ele>374.4</ele>
        <time>2014-05-04T10:02:16.000Z</time>
      </trkpt>
      <trkpt lat="47.51436" lon="6.77739">
        <ele>377.3</ele>
        <time>2014-05-04T10:02:19.000Z</time>
      </trkpt>
      <trkpt lat="47.51438" lon="6.7774">
        <ele>377.5</ele>
        <time>2014-05-04T10:02:20.000Z</time>
      </trkpt>
      <trkpt lat="47.51442" lon="6.77741">
        <ele>379</ele>
        <time>2014-05-04T10:02:23.000Z</time>
      </trkpt>
      <trkpt lat="47.51443" lon="6.77742">
        <ele>379.4</ele>
        <time>2014-05-04T10:02:24.000Z</time>
      </trkpt>
      <trkpt lat="47.51447" lon="6.77742">
        <ele>378.8</ele>
        <time>2014-05-04T10:02:26.000Z</time>
      </trkpt>
      <trkpt lat="47.51448" lon="6.77742">
        <ele>378.6</ele>
        <time>2014-05-04T10:02:27.000Z</time>
      </trkpt>
      <trkpt lat="47.51452" lon="6.77741">
        <ele>378.1</ele>
        <time>2014-05-04T10:02:29.000Z</time>
      </trkpt>
      <trkpt lat="47.51454" lon="6.7774">
        <ele>374.2</ele>
        <time>2014-05-04T10:02:30.000Z</time>
      </trkpt>
      <trkpt lat="47.51458" lon="6.7774">
        <ele>371.8</ele>
        <time>2014-05-04T10:02:32.000Z</time>
      </trkpt>
      <trkpt lat="47.5146" lon="6.7774">
        <ele>372.8</ele>
        <time>2014-05-04T10:02:33.000Z</time>
      </trkpt>
      <trkpt lat="47.51463" lon="6.77739">
        <ele>373.6</ele>
        <time>2014-05-04T10:02:35.000Z</time>
      </trkpt>
      <trkpt lat="47.51465" lon="6.77739">
        <ele>374</ele>
        <time>2014-05-04T10:02:36.000Z</time>
      </trkpt>
      <trkpt lat="47.51469" lon="6.77738">
        <ele>373.1</ele>
        <time>2014-05-04T10:02:38.000Z</time>
      </trkpt>
      <trkpt lat="47.51471" lon="6.77738">
        <ele>373.9</ele>
        <time>2014-05-04T10:02:39.000Z</time>
      </trkpt>
      <trkpt lat="47.51475" lon="6.77736">
        <ele>374.7</ele>
        <time>2014-05-04T10:02:41.000Z</time>
      </trkpt>
      <trkpt lat="47.51476" lon="6.77736">
        <ele>375.5</ele>
        <time>2014-05-04T10:02:42.000Z</time>
      </trkpt>
      <trkpt lat="47.51478" lon="6.77736">
        <ele>374.5</ele>
        <time>2014-05-04T10:02:43.000Z</time>
      </trkpt>
      <trkpt lat="47.51489" lon="6.77736">
        <ele>378.5</ele>
        <time>2014-05-04T10:02:51.000Z</time>
      </trkpt>
      <trkpt lat="47.51493" lon="6.77737">
        <ele>378.9</ele>
        <time>2014-05-04T10:02:54.000Z</time>
      </trkpt>
      <trkpt lat="47.51495" lon="6.77737">
        <ele>378.5</ele>
        <time>2014-05-04T10:02:55.000Z</time>
      </trkpt>
      <trkpt lat="47.51498" lon="6.77736">
        <ele>380.4</ele>
        <time>2014-05-04T10:02:57.000Z</time>
      </trkpt>
      <trkpt lat="47.51499" lon="6.77735">
        <ele>380.2</ele>
        <time>2014-05-04T10:02:58.000Z</time>
      </trkpt>
      <trkpt lat="47.51503" lon="6.77733">
        <ele>382.4</ele>
        <time>2014-05-04T10:03:01.000Z</time>
      </trkpt>
      <trkpt lat="47.51504" lon="6.77732">
        <ele>382.9</ele>
        <time>2014-05-04T10:03:02.000Z</time>
      </trkpt>
      <trkpt lat="47.51507" lon="6.77733">
        <ele>383.7</ele>
        <time>2014-05-04T10:03:04.000Z</time>
      </trkpt>
      <trkpt lat="47.51509" lon="6.77733">
        <ele>383.6</ele>
        <time>2014-05-04T10:03:05.000Z</time>
      </trkpt>
      <trkpt lat="47.51512" lon="6.77735">
        <ele>384.6</ele>
        <time>2014-05-04T10:03:07.000Z</time>
      </trkpt>
      <trkpt lat="47.51513" lon="6.77736">
        <ele>385.2</ele>
        <time>2014-05-04T10:03:08.000Z</time>
      </trkpt>
      <trkpt lat="47.51517" lon="6.77737">
        <ele>388.8</ele>
        <time>2014-05-04T10:03:11.000Z</time>
      </trkpt>
      <trkpt lat="47.51518" lon="6.77737">
        <ele>390</ele>
        <time>2014-05-04T10:03:12.000Z</time>
      </trkpt>
      <trkpt lat="47.51522" lon="6.77736">
        <ele>392.9</ele>
        <time>2014-05-04T10:03:15.000Z</time>
      </trkpt>
      <trkpt lat="47.51523" lon="6.77736">
        <ele>393.2</ele>
        <time>2014-05-04T10:03:16.000Z</time>
      </trkpt>
      <trkpt lat="47.51526" lon="6.77735">
        <ele>394.9</ele>
        <time>2014-05-04T10:03:18.000Z</time>
      </trkpt>
      <trkpt lat="47.51528" lon="6.77734">
        <ele>395.3</ele>
        <time>2014-05-04T10:03:19.000Z</time>
      </trkpt>
      <trkpt lat="47.51531" lon="6.77735">
        <ele>395.5</ele>
        <time>2014-05-04T10:03:21.000Z</time>
      </trkpt>
      <trkpt lat="47.51533" lon="6.77736">
        <ele>394.5</ele>
        <time>2014-05-04T10:03:22.000Z</time>
      </trkpt>
      <trkpt lat="47.51536" lon="6.77737">
        <ele>393.3</ele>
        <time>2014-05-04T10:03:24.000Z</time>
      </trkpt>
      <trkpt lat="47.51538" lon="6.77737">
        <ele>390.8</ele>
        <time>2014-05-04T10:03:25.000Z</time>
      </trkpt>
      <trkpt lat="47.51542" lon="6.77738">
        <ele>391.6</ele>
        <time>2014-05-04T10:03:27.000Z</time>
      </trkpt>
      <trkpt lat="47.51543" lon="6.77738">
        <ele>392.4</ele>
        <time>2014-05-04T10:03:28.000Z</time>
      </trkpt>
      <trkpt lat="47.51547" lon="6.7774">
        <ele>393.6</ele>
        <time>2014-05-04T10:03:31.000Z</time>
      </trkpt>
      <trkpt lat="47.51549" lon="6.77741">
        <ele>393.6</ele>
        <time>2014-05-04T10:03:32.000Z</time>
      </trkpt>
      <trkpt lat="47.51551" lon="6.77742">
        <ele>392.8</ele>
        <time>2014-05-04T10:03:34.000Z</time>
      </trkpt>
      <trkpt lat="47.51553" lon="6.77743">
        <ele>393.7</ele>
        <time>2014-05-04T10:03:35.000Z</time>
      </trkpt>
      <trkpt lat="47.51556" lon="6.77744">
        <ele>394.6</ele>
        <time>2014-05-04T10:03:37.000Z</time>
      </trkpt>
      <trkpt lat="47.51558" lon="6.77745">
        <ele>395.8</ele>
        <time>2014-05-04T10:03:38.000Z</time>
      </trkpt>
      <trkpt lat="47.51563" lon="6.77746">
        <ele>395.2</ele>
        <time>2014-05-04T10:03:41.000Z</time>
      </trkpt>
      <trkpt lat="47.51564" lon="6.77746">
        <ele>393.9</ele>
        <time>2014-05-04T10:03:42.000Z</time>
      </trkpt>
      <trkpt lat="47.51566" lon="6.77747">
        <ele>393.5</ele>
        <time>2014-05-04T10:03:43.000Z</time>
      </trkpt>
      <trkpt lat="47.51579" lon="6.77748">
        <ele>399.1</ele>
        <time>2014-05-04T10:03:51.000Z</time>
      </trkpt>
      <trkpt lat="47.51583" lon="6.7775">
        <ele>396.7</ele>
        <time>2014-05-04T10:03:53.000Z</time>
      </trkpt>
      <trkpt lat="47.51586" lon="6.77752">
        <ele>397.6</ele>
        <time>2014-05-04T10:03:54.000Z</time>
      </trkpt>
      <trkpt lat="47.51588" lon="6.77754">
        <ele>398.3</ele>
        <time>2014-05-04T10:03:55.000Z</time>
      </trkpt>
      <trkpt lat="47.5159" lon="6.77756">
        <ele>396.4</ele>
        <time>2014-05-04T10:03:56.000Z</time>
      </trkpt>
      <trkpt lat="47.51593" lon="6.7776">
        <ele>397.2</ele>
        <time>2014-05-04T10:03:58.000Z</time>
      </trkpt>
      <trkpt lat="47.51595" lon="6.77761">
        <ele>398.7</ele>
        <time>2014-05-04T10:03:59.000Z</time>
      </trkpt>
      <trkpt lat="47.51599" lon="6.77763">
        <ele>392.4</ele>
        <time>2014-05-04T10:04:01.000Z</time>
      </trkpt>
      <trkpt lat="47.51601" lon="6.77764">
        <ele>392.5</ele>
        <time>2014-05-04T10:04:02.000Z</time>
      </trkpt>
      <trkpt lat="47.51605" lon="6.77766">
        <ele>392.4</ele>
        <time>2014-05-04T10:04:04.000Z</time>
      </trkpt>
      <trkpt lat="47.51607" lon="6.77766">
        <ele>391.9</ele>
        <time>2014-05-04T10:04:05.000Z</time>
      </trkpt>
      <trkpt lat="47.5161" lon="6.77766">
        <ele>391</ele>
        <time>2014-05-04T10:04:07.000Z</time>
      </trkpt>
      <trkpt lat="47.51612" lon="6.77766">
        <ele>390.9</ele>
        <time>2014-05-04T10:04:08.000Z</time>
      </trkpt>
      <trkpt lat="47.51615" lon="6.77764">
        <ele>389.9</ele>
        <time>2014-05-04T10:04:10.000Z</time>
      </trkpt>
      <trkpt lat="47.51618" lon="6.77764">
        <ele>391</ele>
        <time>2014-05-04T10:04:11.000Z</time>
      </trkpt>
      <trkpt lat="47.51621" lon="6.77762">
        <ele>390.2</ele>
        <time>2014-05-04T10:04:13.000Z</time>
      </trkpt>
      <trkpt lat="47.51623" lon="6.77761">
        <ele>390</ele>
        <time>2014-05-04T10:04:14.000Z</time>
      </trkpt>
      <trkpt lat="47.51627" lon="6.7776">
        <ele>390.1</ele>
        <time>2014-05-04T10:04:16.000Z</time>
      </trkpt>
      <trkpt lat="47.51629" lon="6.7776">
        <ele>391.5</ele>
        <time>2014-05-04T10:04:17.000Z</time>
      </trkpt>
      <trkpt lat="47.51631" lon="6.77759">
        <ele>390.3</ele>
        <time>2014-05-04T10:04:18.000Z</time>
      </trkpt>
      <trkpt lat="47.51634" lon="6.77759">
        <ele>395.2</ele>
        <time>2014-05-04T10:04:19.000Z</time>
      </trkpt>
      <trkpt lat="47.51637" lon="6.7776">
        <ele>398.2</ele>
        <time>2014-05-04T10:04:20.000Z</time>
      </trkpt>
      <trkpt lat="47.5164" lon="6.7776">
        <ele>399.6</ele>
        <time>2014-05-04T10:04:21.000Z</time>
      </trkpt>
      <trkpt lat="47.51644" lon="6.77761">
        <ele>398.6</ele>
        <time>2014-05-04T10:04:22.000Z</time>
      </trkpt>
      <trkpt lat="47.51647" lon="6.77762">
        <ele>399.6</ele>
        <time>2014-05-04T10:04:23.000Z</time>
      </trkpt>
      <trkpt lat="47.51649" lon="6.77762">
        <ele>400.2</ele>
        <time>2014-05-04T10:04:24.000Z</time>
      </trkpt>
      <trkpt lat="47.51651" lon="6.77763">
        <ele>401.9</ele>
        <time>2014-05-04T10:04:25.000Z</time>
      </trkpt>
      <trkpt lat="47.51655" lon="6.77763">
        <ele>405.9</ele>
        <time>2014-05-04T10:04:27.000Z</time>
      </trkpt>
      <trkpt lat="47.51656" lon="6.77763">
        <ele>407.4</ele>
        <time>2014-05-04T10:04:28.000Z</time>
      </trkpt>
      <trkpt lat="47.51659" lon="6.77762">
        <ele>407</ele>
        <time>2014-05-04T10:04:29.000Z</time>
      </trkpt>
      <trkpt lat="47.51661" lon="6.77762">
        <ele>406.5</ele>
        <time>2014-05-04T10:04:30.000Z</time>
      </trkpt>
      <trkpt lat="47.51663" lon="6.77763">
        <ele>406.7</ele>
        <time>2014-05-04T10:04:31.000Z</time>
      </trkpt>
      <trkpt lat="47.51666" lon="6.77763">
        <ele>406.1</ele>
        <time>2014-05-04T10:04:32.000Z</time>
      </trkpt>
      <trkpt lat="47.51668" lon="6.77764">
        <ele>405.8</ele>
        <time>2014-05-04T10:04:33.000Z</time>
      </trkpt>
      <trkpt lat="47.51671" lon="6.77764">
        <ele>406.5</ele>
        <time>2014-05-04T10:04:34.000Z</time>
      </trkpt>
      <trkpt lat="47.51673" lon="6.77764">
        <ele>406.9</ele>
        <time>2014-05-04T10:04:35.000Z</time>
      </trkpt>
      <trkpt lat="47.51675" lon="6.77764">
        <ele>407.7</ele>
        <time>2014-05-04T10:04:36.000Z</time>
      </trkpt>
      <trkpt lat="47.51679" lon="6.77766">
        <ele>413.7</ele>
        <time>2014-05-04T10:04:38.000Z</time>
      </trkpt>
      <trkpt lat="47.5168" lon="6.77766">
        <ele>412.4</ele>
        <time>2014-05-04T10:04:39.000Z</time>
      </trkpt>
      <trkpt lat="47.51684" lon="6.77768">
        <ele>411.6</ele>
        <time>2014-05-04T10:04:42.000Z</time>
      </trkpt>
      <trkpt lat="47.51686" lon="6.77769">
        <ele>411.3</ele>
        <time>2014-05-04T10:04:43.000Z</time>
      </trkpt>
      <trkpt lat="47.51698" lon="6.77765">
        <ele>403.9</ele>
        <time>2014-05-04T10:04:51.000Z</time>
      </trkpt>
      <trkpt lat="47.51699" lon="6.77762">
        <ele>404.6</ele>
        <time>2014-05-04T10:04:52.000Z</time>
      </trkpt>
      <trkpt lat="47.517" lon="6.77757">
        <ele>405.2</ele>
        <time>2014-05-04T10:04:53.000Z</time>
      </trkpt>
      <trkpt lat="47.517" lon="6.77753">
        <ele>404.9</ele>
        <time>2014-05-04T10:04:54.000Z</time>
      </trkpt>
      <trkpt lat="47.517" lon="6.77749">
        <ele>405.8</ele>
        <time>2014-05-04T10:04:55.000Z</time>
      </trkpt>
      <trkpt lat="47.51701" lon="6.77745">
        <ele>403.3</ele>
        <time>2014-05-04T10:04:56.000Z</time>
      </trkpt>
      <trkpt lat="47.51702" lon="6.77741">
        <ele>400.9</ele>
        <time>2014-05-04T10:04:57.000Z</time>
      </trkpt>
      <trkpt lat="47.51702" lon="6.77738">
        <ele>401.2</ele>
        <time>2014-05-04T10:04:58.000Z</time>
      </trkpt>
      <trkpt lat="47.51702" lon="6.77734">
        <ele>400.9</ele>
        <time>2014-05-04T10:04:59.000Z</time>
      </trkpt>
      <trkpt lat="47.51702" lon="6.77728">
        <ele>401.4</ele>
        <time>2014-05-04T10:05:01.000Z</time>
      </trkpt>
      <trkpt lat="47.51701" lon="6.77725">
        <ele>401.1</ele>
        <time>2014-05-04T10:05:02.000Z</time>
      </trkpt>
      <trkpt lat="47.51701" lon="6.77719">
        <ele>401.6</ele>
        <time>2014-05-04T10:05:04.000Z</time>
      </trkpt>
      <trkpt lat="47.51701" lon="6.77715">
        <ele>401.4</ele>
        <time>2014-05-04T10:05:05.000Z</time>
      </trkpt>
      <trkpt lat="47.51701" lon="6.77709">
        <ele>404.1</ele>
        <time>2014-05-04T10:05:07.000Z</time>
      </trkpt>
      <trkpt lat="47.51702" lon="6.77705">
        <ele>401.2</ele>
        <time>2014-05-04T10:05:08.000Z</time>
      </trkpt>
      <trkpt lat="47.51702" lon="6.77702">
        <ele>400.1</ele>
        <time>2014-05-04T10:05:09.000Z</time>
      </trkpt>
      <trkpt lat="47.51702" lon="6.77698">
        <ele>400.3</ele>
        <time>2014-05-04T10:05:10.000Z</time>
      </trkpt>
      <trkpt lat="47.51702" lon="6.77694">
        <ele>400.6</ele>
        <time>2014-05-04T10:05:11.000Z</time>
      </trkpt>
      <trkpt lat="47.51701" lon="6.77691">
        <ele>399.5</ele>
        <time>2014-05-04T10:05:12.000Z</time>
      </trkpt>
      <trkpt lat="47.51701" lon="6.77685">
        <ele>400.4</ele>
        <time>2014-05-04T10:05:14.000Z</time>
      </trkpt>
      <trkpt lat="47.51701" lon="6.77681">
        <ele>400.2</ele>
        <time>2014-05-04T10:05:15.000Z</time>
      </trkpt>
      <trkpt lat="47.51701" lon="6.77678">
        <ele>400.8</ele>
        <time>2014-05-04T10:05:16.000Z</time>
      </trkpt>
      <trkpt lat="47.51701" lon="6.77674">
        <ele>400.9</ele>
        <time>2014-05-04T10:05:17.000Z</time>
      </trkpt>
      <trkpt lat="47.51702" lon="6.77671">
        <ele>399.5</ele>
        <time>2014-05-04T10:05:18.000Z</time>
      </trkpt>
      <trkpt lat="47.51702" lon="6.77667">
        <ele>399.4</ele>
        <time>2014-05-04T10:05:19.000Z</time>
      </trkpt>
      <trkpt lat="47.51703" lon="6.77663">
        <ele>400.4</ele>
        <time>2014-05-04T10:05:20.000Z</time>
      </trkpt>
      <trkpt lat="47.51704" lon="6.77659">
        <ele>400.3</ele>
        <time>2014-05-04T10:05:21.000Z</time>
      </trkpt>
      <trkpt lat="47.51706" lon="6.77655">
        <ele>399.9</ele>
        <time>2014-05-04T10:05:22.000Z</time>
      </trkpt>
      <trkpt lat="47.51708" lon="6.77651">
        <ele>401.1</ele>
        <time>2014-05-04T10:05:23.000Z</time>
      </trkpt>
      <trkpt lat="47.51709" lon="6.77647">
        <ele>401.6</ele>
        <time>2014-05-04T10:05:24.000Z</time>
      </trkpt>
      <trkpt lat="47.5171" lon="6.77643">
        <ele>401.9</ele>
        <time>2014-05-04T10:05:25.000Z</time>
      </trkpt>
      <trkpt lat="47.51711" lon="6.77639">
        <ele>402</ele>
        <time>2014-05-04T10:05:26.000Z</time>
      </trkpt>
      <trkpt lat="47.51711" lon="6.77635">
        <ele>402.3</ele>
        <time>2014-05-04T10:05:27.000Z</time>
      </trkpt>
      <trkpt lat="47.51711" lon="6.77631">
        <ele>401.5</ele>
        <time>2014-05-04T10:05:28.000Z</time>
      </trkpt>
      <trkpt lat="47.51711" lon="6.77627">
        <ele>401.2</ele>
        <time>2014-05-04T10:05:29.000Z</time>
      </trkpt>
      <trkpt lat="47.51711" lon="6.77623">
        <ele>401.5</ele>
        <time>2014-05-04T10:05:30.000Z</time>
      </trkpt>
      <trkpt lat="47.51711" lon="6.77619">
        <ele>401</ele>
        <time>2014-05-04T10:05:31.000Z</time>
      </trkpt>
      <trkpt lat="47.5171" lon="6.77615">
        <ele>401.1</ele>
        <time>2014-05-04T10:05:32.000Z</time>
      </trkpt>
      <trkpt lat="47.5171" lon="6.77612">
        <ele>400.7</ele>
        <time>2014-05-04T10:05:33.000Z</time>
      </trkpt>
      <trkpt lat="47.51711" lon="6.77606">
        <ele>400.9</ele>
        <time>2014-05-04T10:05:35.000Z</time>
      </trkpt>
      <trkpt lat="47.51712" lon="6.77604">
        <ele>401.3</ele>
        <time>2014-05-04T10:05:36.000Z</time>
      </trkpt>
      <trkpt lat="47.51714" lon="6.77601">
        <ele>402.2</ele>
        <time>2014-05-04T10:05:37.000Z</time>
      </trkpt>
      <trkpt lat="47.51715" lon="6.77598">
        <ele>402.4</ele>
        <time>2014-05-04T10:05:38.000Z</time>
      </trkpt>
      <trkpt lat="47.51717" lon="6.77594">
        <ele>403.8</ele>
        <time>2014-05-04T10:05:40.000Z</time>
      </trkpt>
      <trkpt lat="47.51718" lon="6.77592">
        <ele>403.7</ele>
        <time>2014-05-04T10:05:41.000Z</time>
      </trkpt>
      <trkpt lat="47.5172" lon="6.77588">
        <ele>402.3</ele>
        <time>2014-05-04T10:05:43.000Z</time>
      </trkpt>
      <trkpt lat="47.51717" lon="6.77552">
        <ele>401.3</ele>
        <time>2014-05-04T10:05:51.000Z</time>
      </trkpt>
      <trkpt lat="47.51718" lon="6.77546">
        <ele>400.9</ele>
        <time>2014-05-04T10:05:52.000Z</time>
      </trkpt>
      <trkpt lat="47.5172" lon="6.7754">
        <ele>400</ele>
        <time>2014-05-04T10:05:53.000Z</time>
      </trkpt>
      <trkpt lat="47.51721" lon="6.77534">
        <ele>399.9</ele>
        <time>2014-05-04T10:05:54.000Z</time>
      </trkpt>
      <trkpt lat="47.51722" lon="6.77528">
        <ele>400.5</ele>
        <time>2014-05-04T10:05:55.000Z</time>
      </trkpt>
      <trkpt lat="47.51723" lon="6.77523">
        <ele>400.4</ele>
        <time>2014-05-04T10:05:56.000Z</time>
      </trkpt>
      <trkpt lat="47.51724" lon="6.77517">
        <ele>401</ele>
        <time>2014-05-04T10:05:57.000Z</time>
      </trkpt>
      <trkpt lat="47.51724" lon="6.77512">
        <ele>401.5</ele>
        <time>2014-05-04T10:05:58.000Z</time>
      </trkpt>
      <trkpt lat="47.51725" lon="6.77507">
        <ele>401.5</ele>
        <time>2014-05-04T10:05:59.000Z</time>
      </trkpt>
      <trkpt lat="47.51726" lon="6.77502">
        <ele>401.7</ele>
        <time>2014-05-04T10:06:00.000Z</time>
      </trkpt>
      <trkpt lat="47.51726" lon="6.77497">
        <ele>401.7</ele>
        <time>2014-05-04T10:06:01.000Z</time>
      </trkpt>
      <trkpt lat="47.51727" lon="6.77493">
        <ele>403.5</ele>
        <time>2014-05-04T10:06:02.000Z</time>
      </trkpt>
      <trkpt lat="47.51729" lon="6.7749">
        <ele>403</ele>
        <time>2014-05-04T10:06:03.000Z</time>
      </trkpt>
      <trkpt lat="47.51731" lon="6.77488">
        <ele>404</ele>
        <time>2014-05-04T10:06:04.000Z</time>
      </trkpt>
      <trkpt lat="47.51734" lon="6.77487">
        <ele>404.2</ele>
        <time>2014-05-04T10:06:05.000Z</time>
      </trkpt>
      <trkpt lat="47.51737" lon="6.77487">
        <ele>403.9</ele>
        <time>2014-05-04T10:06:06.000Z</time>
      </trkpt>
      <trkpt lat="47.51741" lon="6.77488">
        <ele>404.8</ele>
        <time>2014-05-04T10:06:07.000Z</time>
      </trkpt>
      <trkpt lat="47.51744" lon="6.77488">
        <ele>404.8</ele>
        <time>2014-05-04T10:06:08.000Z</time>
      </trkpt>
      <trkpt lat="47.51748" lon="6.77489">
        <ele>404.2</ele>
        <time>2014-05-04T10:06:09.000Z</time>
      </trkpt>
      <trkpt lat="47.51752" lon="6.77489">
        <ele>403</ele>
        <time>2014-05-04T10:06:10.000Z</time>
      </trkpt>
      <trkpt lat="47.51756" lon="6.7749">
        <ele>401.5</ele>
        <time>2014-05-04T10:06:11.000Z</time>
      </trkpt>
      <trkpt lat="47.5176" lon="6.77491">
        <ele>401.9</ele>
        <time>2014-05-04T10:06:12.000Z</time>
      </trkpt>
      <trkpt lat="47.51763" lon="6.77493">
        <ele>400.2</ele>
        <time>2014-05-04T10:06:13.000Z</time>
      </trkpt>
      <trkpt lat="47.51767" lon="6.77493">
        <ele>399.7</ele>
        <time>2014-05-04T10:06:14.000Z</time>
      </trkpt>
      <trkpt lat="47.51771" lon="6.77493">
        <ele>397.9</ele>
        <time>2014-05-04T10:06:15.000Z</time>
      </trkpt>
      <trkpt lat="47.51774" lon="6.77493">
        <ele>397.9</ele>
        <time>2014-05-04T10:06:16.000Z</time>
      </trkpt>
      <trkpt lat="47.51779" lon="6.77493">
        <ele>397</ele>
        <time>2014-05-04T10:06:17.000Z</time>
      </trkpt>
      <trkpt lat="47.51783" lon="6.77494">
        <ele>395.6</ele>
        <time>2014-05-04T10:06:18.000Z</time>
      </trkpt>
      <trkpt lat="47.51789" lon="6.77494">
        <ele>395.2</ele>
        <time>2014-05-04T10:06:19.000Z</time>
      </trkpt>
      <trkpt lat="47.51793" lon="6.77496">
        <ele>394.7</ele>
        <time>2014-05-04T10:06:20.000Z</time>
      </trkpt>
      <trkpt lat="47.51797" lon="6.77498">
        <ele>394.6</ele>
        <time>2014-05-04T10:06:21.000Z</time>
      </trkpt>
      <trkpt lat="47.51801" lon="6.775">
        <ele>394.9</ele>
        <time>2014-05-04T10:06:22.000Z</time>
      </trkpt>
      <trkpt lat="47.51804" lon="6.77498">
        <ele>394.5</ele>
        <time>2014-05-04T10:06:23.000Z</time>
      </trkpt>
      <trkpt lat="47.51806" lon="6.77494">
        <ele>394.6</ele>
        <time>2014-05-04T10:06:24.000Z</time>
      </trkpt>
      <trkpt lat="47.51806" lon="6.77489">
        <ele>393.5</ele>
        <time>2014-05-04T10:06:25.000Z</time>
      </trkpt>
      <trkpt lat="47.51806" lon="6.77484">
        <ele>393</ele>
        <time>2014-05-04T10:06:26.000Z</time>
      </trkpt>
      <trkpt lat="47.51805" lon="6.77479">
        <ele>393.1</ele>
        <time>2014-05-04T10:06:27.000Z</time>
      </trkpt>
      <trkpt lat="47.51806" lon="6.77475">
        <ele>393.3</ele>
        <time>2014-05-04T10:06:28.000Z</time>
      </trkpt>
      <trkpt lat="47.51804" lon="6.77472">
        <ele>392.9</ele>
        <time>2014-05-04T10:06:29.000Z</time>
      </trkpt>
      <trkpt lat="47.51803" lon="6.77466">
        <ele>393.5</ele>
        <time>2014-05-04T10:06:31.000Z</time>
      </trkpt>
      <trkpt lat="47.51803" lon="6.77464">
        <ele>393.4</ele>
        <time>2014-05-04T10:06:32.000Z</time>
      </trkpt>
      <trkpt lat="47.51805" lon="6.77462">
        <ele>393.5</ele>
        <time>2014-05-04T10:06:43.000Z</time>
      </trkpt>
      <trkpt lat="47.51804" lon="6.77454">
        <ele>394.1</ele>
        <time>2014-05-04T10:06:51.000Z</time>
      </trkpt>
      <trkpt lat="47.518" lon="6.77457">
        <ele>395.7</ele>
        <time>2014-05-04T10:06:55.000Z</time>
      </trkpt>
      <trkpt lat="47.51799" lon="6.77458">
        <ele>393.6</ele>
        <time>2014-05-04T10:06:56.000Z</time>
      </trkpt>
      <trkpt lat="47.51796" lon="6.77462">
        <ele>387.8</ele>
        <time>2014-05-04T10:07:16.000Z</time>
      </trkpt>
      <trkpt lat="47.51796" lon="6.77463">
        <ele>388.7</ele>
        <time>2014-05-04T10:07:17.000Z</time>
      </trkpt>
      <trkpt lat="47.51795" lon="6.77466">
        <ele>393.1</ele>
        <time>2014-05-04T10:07:19.000Z</time>
      </trkpt>
      <trkpt lat="47.51794" lon="6.77469">
        <ele>393.5</ele>
        <time>2014-05-04T10:07:20.000Z</time>
      </trkpt>
      <trkpt lat="47.51793" lon="6.77472">
        <ele>392.5</ele>
        <time>2014-05-04T10:07:21.000Z</time>
      </trkpt>
      <trkpt lat="47.51792" lon="6.77476">
        <ele>392.8</ele>
        <time>2014-05-04T10:07:22.000Z</time>
      </trkpt>
      <trkpt lat="47.51794" lon="6.7748">
        <ele>394.3</ele>
        <time>2014-05-04T10:07:24.000Z</time>
      </trkpt>
      <trkpt lat="47.51797" lon="6.77482">
        <ele>393</ele>
        <time>2014-05-04T10:07:25.000Z</time>
      </trkpt>
      <trkpt lat="47.51799" lon="6.77482">
        <ele>394.9</ele>
        <time>2014-05-04T10:07:26.000Z</time>
      </trkpt>
      <trkpt lat="47.51801" lon="6.77482">
        <ele>395.4</ele>
        <time>2014-05-04T10:07:27.000Z</time>
      </trkpt>
      <trkpt lat="47.518" lon="6.77482">
        <ele>396</ele>
        <time>2014-05-04T10:09:24.000Z</time>
      </trkpt>
    </trkseg>
  </trk>
</gpx>